<?xml version="1.0" encoding="UTF-8" standalone="no" ?>
<gpx xmlns="http://www.topografix.com/GPX/1/1" xmlns:xsi="http://www.w3.org/2001/XMLSchema-instance" xsi:schemaLocation="http://www.topografix.com/GPX/1/1 http://www.topografix.com/GPX/1/1/gpx.xsd" version="1.1" creator="VisuGPX - https://www.visugpx.com">
  <metadata>
    <name>Senechas - Aujaguet</name>
    <desc><![CDATA[Le tour du Lac de barrage de Sénéchas avec des points de vue et un patrimoine surprenant.]]></desc>
  </metadata>
  <trk>
    <name><![CDATA[2013-04-03-01Senechas Aujaguet]]></name>
    <trkseg>
      <trkpt lat="44.32625" lon="4.02628">
        <ele>452</ele>
        <time>2013-04-03T09:59:49Z</time>
      </trkpt>
      <trkpt lat="44.32625" lon="4.02628">
        <ele>452</ele>
        <time>2013-04-03T09:59:50Z</time>
      </trkpt>
      <trkpt lat="44.32625" lon="4.02628">
        <ele>452</ele>
        <time>2013-04-03T09:59:53Z</time>
      </trkpt>
      <trkpt lat="44.32625" lon="4.02628">
        <ele>452</ele>
        <time>2013-04-03T09:59:55Z</time>
      </trkpt>
      <trkpt lat="44.32625" lon="4.02628">
        <ele>451</ele>
        <time>2013-04-03T09:59:57Z</time>
      </trkpt>
      <trkpt lat="44.32625" lon="4.02628">
        <ele>451</ele>
        <time>2013-04-03T09:59:59Z</time>
      </trkpt>
      <trkpt lat="44.32625" lon="4.02628">
        <ele>451</ele>
        <time>2013-04-03T10:00:01Z</time>
      </trkpt>
      <trkpt lat="44.32625" lon="4.02628">
        <ele>451</ele>
        <time>2013-04-03T10:00:03Z</time>
      </trkpt>
      <trkpt lat="44.32625" lon="4.02628">
        <ele>451</ele>
        <time>2013-04-03T10:00:05Z</time>
      </trkpt>
      <trkpt lat="44.32625" lon="4.02628">
        <ele>451</ele>
        <time>2013-04-03T10:00:07Z</time>
      </trkpt>
      <trkpt lat="44.32625" lon="4.02628">
        <ele>451</ele>
        <time>2013-04-03T10:00:09Z</time>
      </trkpt>
      <trkpt lat="44.32625" lon="4.02628">
        <ele>451</ele>
        <time>2013-04-03T10:00:11Z</time>
      </trkpt>
      <trkpt lat="44.32625" lon="4.02628">
        <ele>451</ele>
        <time>2013-04-03T10:00:13Z</time>
      </trkpt>
      <trkpt lat="44.32625" lon="4.02628">
        <ele>451</ele>
        <time>2013-04-03T10:00:15Z</time>
      </trkpt>
      <trkpt lat="44.32625" lon="4.02628">
        <ele>450</ele>
        <time>2013-04-03T10:00:17Z</time>
      </trkpt>
      <trkpt lat="44.32625" lon="4.02628">
        <ele>450</ele>
        <time>2013-04-03T10:00:19Z</time>
      </trkpt>
      <trkpt lat="44.32625" lon="4.02628">
        <ele>450</ele>
        <time>2013-04-03T10:00:21Z</time>
      </trkpt>
      <trkpt lat="44.32624" lon="4.02629">
        <ele>451</ele>
        <time>2013-04-03T10:00:23Z</time>
      </trkpt>
      <trkpt lat="44.32624" lon="4.0263">
        <ele>451</ele>
        <time>2013-04-03T10:00:25Z</time>
      </trkpt>
      <trkpt lat="44.32624" lon="4.02631">
        <ele>452</ele>
        <time>2013-04-03T10:00:27Z</time>
      </trkpt>
      <trkpt lat="44.32624" lon="4.02631">
        <ele>452</ele>
        <time>2013-04-03T10:00:29Z</time>
      </trkpt>
      <trkpt lat="44.32624" lon="4.02631">
        <ele>452</ele>
        <time>2013-04-03T10:00:31Z</time>
      </trkpt>
      <trkpt lat="44.32624" lon="4.02631">
        <ele>451</ele>
        <time>2013-04-03T10:00:33Z</time>
      </trkpt>
      <trkpt lat="44.32624" lon="4.02631">
        <ele>451</ele>
        <time>2013-04-03T10:00:35Z</time>
      </trkpt>
      <trkpt lat="44.32624" lon="4.02631">
        <ele>451</ele>
        <time>2013-04-03T10:00:37Z</time>
      </trkpt>
      <trkpt lat="44.32624" lon="4.02632">
        <ele>452</ele>
        <time>2013-04-03T10:00:39Z</time>
      </trkpt>
      <trkpt lat="44.32624" lon="4.02632">
        <ele>452</ele>
        <time>2013-04-03T10:00:41Z</time>
      </trkpt>
      <trkpt lat="44.32624" lon="4.02634">
        <ele>451</ele>
        <time>2013-04-03T10:00:43Z</time>
      </trkpt>
      <trkpt lat="44.32624" lon="4.02636">
        <ele>452</ele>
        <time>2013-04-03T10:00:45Z</time>
      </trkpt>
      <trkpt lat="44.32624" lon="4.02636">
        <ele>453</ele>
        <time>2013-04-03T10:00:47Z</time>
      </trkpt>
      <trkpt lat="44.32624" lon="4.02636">
        <ele>453</ele>
        <time>2013-04-03T10:00:49Z</time>
      </trkpt>
      <trkpt lat="44.32624" lon="4.02636">
        <ele>453</ele>
        <time>2013-04-03T10:00:51Z</time>
      </trkpt>
      <trkpt lat="44.32624" lon="4.02637">
        <ele>452</ele>
        <time>2013-04-03T10:00:52Z</time>
      </trkpt>
      <trkpt lat="44.32624" lon="4.02637">
        <ele>452</ele>
        <time>2013-04-03T10:00:55Z</time>
      </trkpt>
      <trkpt lat="44.32624" lon="4.02637">
        <ele>452</ele>
        <time>2013-04-03T10:00:57Z</time>
      </trkpt>
      <trkpt lat="44.32624" lon="4.02637">
        <ele>452</ele>
        <time>2013-04-03T10:00:59Z</time>
      </trkpt>
      <trkpt lat="44.32624" lon="4.02638">
        <ele>453</ele>
        <time>2013-04-03T10:01:01Z</time>
      </trkpt>
      <trkpt lat="44.32624" lon="4.02641">
        <ele>454</ele>
        <time>2013-04-03T10:01:03Z</time>
      </trkpt>
      <trkpt lat="44.32624" lon="4.02641">
        <ele>454</ele>
        <time>2013-04-03T10:01:05Z</time>
      </trkpt>
      <trkpt lat="44.32624" lon="4.02641">
        <ele>454</ele>
        <time>2013-04-03T10:01:07Z</time>
      </trkpt>
      <trkpt lat="44.32624" lon="4.02641">
        <ele>454</ele>
        <time>2013-04-03T10:01:09Z</time>
      </trkpt>
      <trkpt lat="44.32624" lon="4.02641">
        <ele>454</ele>
        <time>2013-04-03T10:01:11Z</time>
      </trkpt>
      <trkpt lat="44.32624" lon="4.02641">
        <ele>454</ele>
        <time>2013-04-03T10:01:13Z</time>
      </trkpt>
      <trkpt lat="44.32624" lon="4.02641">
        <ele>456</ele>
        <time>2013-04-03T10:01:15Z</time>
      </trkpt>
      <trkpt lat="44.32624" lon="4.02641">
        <ele>455</ele>
        <time>2013-04-03T10:01:17Z</time>
      </trkpt>
      <trkpt lat="44.32624" lon="4.02641">
        <ele>455</ele>
        <time>2013-04-03T10:01:19Z</time>
      </trkpt>
      <trkpt lat="44.32623" lon="4.02641">
        <ele>455</ele>
        <time>2013-04-03T10:01:21Z</time>
      </trkpt>
      <trkpt lat="44.32621" lon="4.02641">
        <ele>456</ele>
        <time>2013-04-03T10:01:23Z</time>
      </trkpt>
      <trkpt lat="44.32619" lon="4.02641">
        <ele>457</ele>
        <time>2013-04-03T10:01:25Z</time>
      </trkpt>
      <trkpt lat="44.32617" lon="4.02642">
        <ele>456</ele>
        <time>2013-04-03T10:01:27Z</time>
      </trkpt>
      <trkpt lat="44.32616" lon="4.02642">
        <ele>456</ele>
        <time>2013-04-03T10:01:29Z</time>
      </trkpt>
      <trkpt lat="44.32615" lon="4.02642">
        <ele>456</ele>
        <time>2013-04-03T10:01:31Z</time>
      </trkpt>
      <trkpt lat="44.32613" lon="4.02643">
        <ele>458</ele>
        <time>2013-04-03T10:01:33Z</time>
      </trkpt>
      <trkpt lat="44.3261" lon="4.02643">
        <ele>458</ele>
        <time>2013-04-03T10:01:35Z</time>
      </trkpt>
      <trkpt lat="44.32608" lon="4.02643">
        <ele>459</ele>
        <time>2013-04-03T10:01:37Z</time>
      </trkpt>
      <trkpt lat="44.32608" lon="4.02643">
        <ele>459</ele>
        <time>2013-04-03T10:01:39Z</time>
      </trkpt>
      <trkpt lat="44.32607" lon="4.02643">
        <ele>460</ele>
        <time>2013-04-03T10:01:41Z</time>
      </trkpt>
      <trkpt lat="44.32604" lon="4.02643">
        <ele>460</ele>
        <time>2013-04-03T10:01:43Z</time>
      </trkpt>
      <trkpt lat="44.32603" lon="4.02643">
        <ele>460</ele>
        <time>2013-04-03T10:01:45Z</time>
      </trkpt>
      <trkpt lat="44.32601" lon="4.02642">
        <ele>460</ele>
        <time>2013-04-03T10:01:47Z</time>
      </trkpt>
      <trkpt lat="44.326" lon="4.02642">
        <ele>460</ele>
        <time>2013-04-03T10:01:49Z</time>
      </trkpt>
      <trkpt lat="44.32599" lon="4.02641">
        <ele>460</ele>
        <time>2013-04-03T10:01:51Z</time>
      </trkpt>
      <trkpt lat="44.32598" lon="4.02641">
        <ele>460</ele>
        <time>2013-04-03T10:01:53Z</time>
      </trkpt>
      <trkpt lat="44.32597" lon="4.02641">
        <ele>460</ele>
        <time>2013-04-03T10:01:54Z</time>
      </trkpt>
      <trkpt lat="44.32594" lon="4.0264">
        <ele>460</ele>
        <time>2013-04-03T10:01:57Z</time>
      </trkpt>
      <trkpt lat="44.32592" lon="4.0264">
        <ele>461</ele>
        <time>2013-04-03T10:01:59Z</time>
      </trkpt>
      <trkpt lat="44.32591" lon="4.0264">
        <ele>460</ele>
        <time>2013-04-03T10:02:01Z</time>
      </trkpt>
      <trkpt lat="44.3259" lon="4.0264">
        <ele>460</ele>
        <time>2013-04-03T10:02:03Z</time>
      </trkpt>
      <trkpt lat="44.32589" lon="4.0264">
        <ele>460</ele>
        <time>2013-04-03T10:02:05Z</time>
      </trkpt>
      <trkpt lat="44.32589" lon="4.0264">
        <ele>460</ele>
        <time>2013-04-03T10:02:07Z</time>
      </trkpt>
      <trkpt lat="44.32589" lon="4.0264">
        <ele>461</ele>
        <time>2013-04-03T10:02:09Z</time>
      </trkpt>
      <trkpt lat="44.32589" lon="4.0264">
        <ele>461</ele>
        <time>2013-04-03T10:02:11Z</time>
      </trkpt>
      <trkpt lat="44.32589" lon="4.0264">
        <ele>461</ele>
        <time>2013-04-03T10:02:13Z</time>
      </trkpt>
      <trkpt lat="44.32589" lon="4.0264">
        <ele>461</ele>
        <time>2013-04-03T10:02:15Z</time>
      </trkpt>
      <trkpt lat="44.32589" lon="4.0264">
        <ele>461</ele>
        <time>2013-04-03T10:02:17Z</time>
      </trkpt>
      <trkpt lat="44.32589" lon="4.0264">
        <ele>461</ele>
        <time>2013-04-03T10:02:19Z</time>
      </trkpt>
      <trkpt lat="44.32589" lon="4.0264">
        <ele>461</ele>
        <time>2013-04-03T10:02:21Z</time>
      </trkpt>
      <trkpt lat="44.32589" lon="4.0264">
        <ele>461</ele>
        <time>2013-04-03T10:02:23Z</time>
      </trkpt>
      <trkpt lat="44.32589" lon="4.02641">
        <ele>461</ele>
        <time>2013-04-03T10:02:25Z</time>
      </trkpt>
      <trkpt lat="44.32587" lon="4.02642">
        <ele>461</ele>
        <time>2013-04-03T10:02:27Z</time>
      </trkpt>
      <trkpt lat="44.32586" lon="4.02643">
        <ele>461</ele>
        <time>2013-04-03T10:02:29Z</time>
      </trkpt>
      <trkpt lat="44.32584" lon="4.02644">
        <ele>462</ele>
        <time>2013-04-03T10:02:31Z</time>
      </trkpt>
      <trkpt lat="44.32583" lon="4.02646">
        <ele>462</ele>
        <time>2013-04-03T10:02:33Z</time>
      </trkpt>
      <trkpt lat="44.32583" lon="4.02647">
        <ele>462</ele>
        <time>2013-04-03T10:02:35Z</time>
      </trkpt>
      <trkpt lat="44.32582" lon="4.02648">
        <ele>463</ele>
        <time>2013-04-03T10:02:37Z</time>
      </trkpt>
      <trkpt lat="44.32581" lon="4.02649">
        <ele>462</ele>
        <time>2013-04-03T10:02:39Z</time>
      </trkpt>
      <trkpt lat="44.32581" lon="4.02649">
        <ele>463</ele>
        <time>2013-04-03T10:02:41Z</time>
      </trkpt>
      <trkpt lat="44.32581" lon="4.02649">
        <ele>463</ele>
        <time>2013-04-03T10:02:43Z</time>
      </trkpt>
      <trkpt lat="44.32581" lon="4.02649">
        <ele>463</ele>
        <time>2013-04-03T10:02:45Z</time>
      </trkpt>
      <trkpt lat="44.32581" lon="4.02649">
        <ele>463</ele>
        <time>2013-04-03T10:02:47Z</time>
      </trkpt>
      <trkpt lat="44.32581" lon="4.02649">
        <ele>463</ele>
        <time>2013-04-03T10:02:49Z</time>
      </trkpt>
      <trkpt lat="44.32581" lon="4.02649">
        <ele>463</ele>
        <time>2013-04-03T10:02:51Z</time>
      </trkpt>
      <trkpt lat="44.32581" lon="4.0265">
        <ele>463</ele>
        <time>2013-04-03T10:02:53Z</time>
      </trkpt>
      <trkpt lat="44.3258" lon="4.02652">
        <ele>463</ele>
        <time>2013-04-03T10:02:55Z</time>
      </trkpt>
      <trkpt lat="44.32579" lon="4.02652">
        <ele>463</ele>
        <time>2013-04-03T10:02:56Z</time>
      </trkpt>
      <trkpt lat="44.32577" lon="4.02654">
        <ele>463</ele>
        <time>2013-04-03T10:02:59Z</time>
      </trkpt>
      <trkpt lat="44.32576" lon="4.02656">
        <ele>463</ele>
        <time>2013-04-03T10:03:01Z</time>
      </trkpt>
      <trkpt lat="44.32574" lon="4.02657">
        <ele>463</ele>
        <time>2013-04-03T10:03:03Z</time>
      </trkpt>
      <trkpt lat="44.32573" lon="4.02659">
        <ele>463</ele>
        <time>2013-04-03T10:03:05Z</time>
      </trkpt>
      <trkpt lat="44.32572" lon="4.0266">
        <ele>463</ele>
        <time>2013-04-03T10:03:07Z</time>
      </trkpt>
      <trkpt lat="44.32571" lon="4.0266">
        <ele>463</ele>
        <time>2013-04-03T10:03:09Z</time>
      </trkpt>
      <trkpt lat="44.32571" lon="4.02661">
        <ele>463</ele>
        <time>2013-04-03T10:03:11Z</time>
      </trkpt>
      <trkpt lat="44.32571" lon="4.02661">
        <ele>463</ele>
        <time>2013-04-03T10:03:13Z</time>
      </trkpt>
      <trkpt lat="44.32571" lon="4.02661">
        <ele>463</ele>
        <time>2013-04-03T10:03:15Z</time>
      </trkpt>
      <trkpt lat="44.32569" lon="4.02662">
        <ele>463</ele>
        <time>2013-04-03T10:03:17Z</time>
      </trkpt>
      <trkpt lat="44.32569" lon="4.02662">
        <ele>463</ele>
        <time>2013-04-03T10:03:19Z</time>
      </trkpt>
      <trkpt lat="44.32569" lon="4.02663">
        <ele>463</ele>
        <time>2013-04-03T10:03:21Z</time>
      </trkpt>
      <trkpt lat="44.32569" lon="4.02663">
        <ele>463</ele>
        <time>2013-04-03T10:03:23Z</time>
      </trkpt>
      <trkpt lat="44.32569" lon="4.02663">
        <ele>463</ele>
        <time>2013-04-03T10:03:25Z</time>
      </trkpt>
      <trkpt lat="44.32568" lon="4.02663">
        <ele>463</ele>
        <time>2013-04-03T10:03:27Z</time>
      </trkpt>
      <trkpt lat="44.32566" lon="4.02666">
        <ele>463</ele>
        <time>2013-04-03T10:03:29Z</time>
      </trkpt>
      <trkpt lat="44.32564" lon="4.02668">
        <ele>463</ele>
        <time>2013-04-03T10:03:31Z</time>
      </trkpt>
      <trkpt lat="44.32562" lon="4.0267">
        <ele>463</ele>
        <time>2013-04-03T10:03:33Z</time>
      </trkpt>
      <trkpt lat="44.3256" lon="4.02672">
        <ele>463</ele>
        <time>2013-04-03T10:03:35Z</time>
      </trkpt>
      <trkpt lat="44.32558" lon="4.02675">
        <ele>464</ele>
        <time>2013-04-03T10:03:37Z</time>
      </trkpt>
      <trkpt lat="44.32555" lon="4.02678">
        <ele>463</ele>
        <time>2013-04-03T10:03:39Z</time>
      </trkpt>
      <trkpt lat="44.32553" lon="4.02681">
        <ele>463</ele>
        <time>2013-04-03T10:03:41Z</time>
      </trkpt>
      <trkpt lat="44.32551" lon="4.02684">
        <ele>463</ele>
        <time>2013-04-03T10:03:43Z</time>
      </trkpt>
      <trkpt lat="44.32549" lon="4.02687">
        <ele>463</ele>
        <time>2013-04-03T10:03:45Z</time>
      </trkpt>
      <trkpt lat="44.32546" lon="4.0269">
        <ele>463</ele>
        <time>2013-04-03T10:03:47Z</time>
      </trkpt>
      <trkpt lat="44.32545" lon="4.02693">
        <ele>463</ele>
        <time>2013-04-03T10:03:49Z</time>
      </trkpt>
      <trkpt lat="44.32543" lon="4.02696">
        <ele>463</ele>
        <time>2013-04-03T10:03:51Z</time>
      </trkpt>
      <trkpt lat="44.32541" lon="4.02699">
        <ele>462</ele>
        <time>2013-04-03T10:03:53Z</time>
      </trkpt>
      <trkpt lat="44.32539" lon="4.02701">
        <ele>462</ele>
        <time>2013-04-03T10:03:55Z</time>
      </trkpt>
      <trkpt lat="44.32538" lon="4.02703">
        <ele>461</ele>
        <time>2013-04-03T10:03:57Z</time>
      </trkpt>
      <trkpt lat="44.32537" lon="4.02704">
        <ele>461</ele>
        <time>2013-04-03T10:03:58Z</time>
      </trkpt>
      <trkpt lat="44.32534" lon="4.02707">
        <ele>461</ele>
        <time>2013-04-03T10:04:01Z</time>
      </trkpt>
      <trkpt lat="44.32531" lon="4.02708">
        <ele>461</ele>
        <time>2013-04-03T10:04:03Z</time>
      </trkpt>
      <trkpt lat="44.32529" lon="4.02709">
        <ele>461</ele>
        <time>2013-04-03T10:04:05Z</time>
      </trkpt>
      <trkpt lat="44.32528" lon="4.02709">
        <ele>461</ele>
        <time>2013-04-03T10:04:07Z</time>
      </trkpt>
      <trkpt lat="44.32527" lon="4.0271">
        <ele>461</ele>
        <time>2013-04-03T10:04:09Z</time>
      </trkpt>
      <trkpt lat="44.32526" lon="4.02712">
        <ele>461</ele>
        <time>2013-04-03T10:04:11Z</time>
      </trkpt>
      <trkpt lat="44.32525" lon="4.02714">
        <ele>461</ele>
        <time>2013-04-03T10:04:13Z</time>
      </trkpt>
      <trkpt lat="44.32523" lon="4.02715">
        <ele>462</ele>
        <time>2013-04-03T10:04:15Z</time>
      </trkpt>
      <trkpt lat="44.3252" lon="4.02717">
        <ele>462</ele>
        <time>2013-04-03T10:04:17Z</time>
      </trkpt>
      <trkpt lat="44.32518" lon="4.0272">
        <ele>462</ele>
        <time>2013-04-03T10:04:19Z</time>
      </trkpt>
      <trkpt lat="44.32516" lon="4.02722">
        <ele>461</ele>
        <time>2013-04-03T10:04:21Z</time>
      </trkpt>
      <trkpt lat="44.32515" lon="4.02725">
        <ele>461</ele>
        <time>2013-04-03T10:04:23Z</time>
      </trkpt>
      <trkpt lat="44.32514" lon="4.02729">
        <ele>461</ele>
        <time>2013-04-03T10:04:25Z</time>
      </trkpt>
      <trkpt lat="44.32512" lon="4.02732">
        <ele>461</ele>
        <time>2013-04-03T10:04:27Z</time>
      </trkpt>
      <trkpt lat="44.32511" lon="4.02735">
        <ele>461</ele>
        <time>2013-04-03T10:04:29Z</time>
      </trkpt>
      <trkpt lat="44.3251" lon="4.02737">
        <ele>461</ele>
        <time>2013-04-03T10:04:31Z</time>
      </trkpt>
      <trkpt lat="44.32509" lon="4.02741">
        <ele>461</ele>
        <time>2013-04-03T10:04:33Z</time>
      </trkpt>
      <trkpt lat="44.32509" lon="4.02744">
        <ele>461</ele>
        <time>2013-04-03T10:04:35Z</time>
      </trkpt>
      <trkpt lat="44.32509" lon="4.02747">
        <ele>461</ele>
        <time>2013-04-03T10:04:37Z</time>
      </trkpt>
      <trkpt lat="44.32508" lon="4.0275">
        <ele>461</ele>
        <time>2013-04-03T10:04:39Z</time>
      </trkpt>
      <trkpt lat="44.32508" lon="4.0275">
        <ele>461</ele>
        <time>2013-04-03T10:04:41Z</time>
      </trkpt>
      <trkpt lat="44.32507" lon="4.02752">
        <ele>461</ele>
        <time>2013-04-03T10:04:43Z</time>
      </trkpt>
      <trkpt lat="44.32506" lon="4.02755">
        <ele>461</ele>
        <time>2013-04-03T10:04:45Z</time>
      </trkpt>
      <trkpt lat="44.32506" lon="4.02758">
        <ele>461</ele>
        <time>2013-04-03T10:04:47Z</time>
      </trkpt>
      <trkpt lat="44.32506" lon="4.02762">
        <ele>461</ele>
        <time>2013-04-03T10:04:49Z</time>
      </trkpt>
      <trkpt lat="44.32506" lon="4.02766">
        <ele>461</ele>
        <time>2013-04-03T10:04:51Z</time>
      </trkpt>
      <trkpt lat="44.32505" lon="4.02769">
        <ele>461</ele>
        <time>2013-04-03T10:04:53Z</time>
      </trkpt>
      <trkpt lat="44.32505" lon="4.02772">
        <ele>460</ele>
        <time>2013-04-03T10:04:55Z</time>
      </trkpt>
      <trkpt lat="44.32503" lon="4.02776">
        <ele>460</ele>
        <time>2013-04-03T10:04:57Z</time>
      </trkpt>
      <trkpt lat="44.32503" lon="4.02779">
        <ele>460</ele>
        <time>2013-04-03T10:04:59Z</time>
      </trkpt>
      <trkpt lat="44.32503" lon="4.02781">
        <ele>460</ele>
        <time>2013-04-03T10:05:00Z</time>
      </trkpt>
      <trkpt lat="44.32502" lon="4.02785">
        <ele>460</ele>
        <time>2013-04-03T10:05:03Z</time>
      </trkpt>
      <trkpt lat="44.32502" lon="4.02788">
        <ele>460</ele>
        <time>2013-04-03T10:05:05Z</time>
      </trkpt>
      <trkpt lat="44.32501" lon="4.02791">
        <ele>460</ele>
        <time>2013-04-03T10:05:07Z</time>
      </trkpt>
      <trkpt lat="44.32501" lon="4.02795">
        <ele>460</ele>
        <time>2013-04-03T10:05:09Z</time>
      </trkpt>
      <trkpt lat="44.325" lon="4.02797">
        <ele>460</ele>
        <time>2013-04-03T10:05:11Z</time>
      </trkpt>
      <trkpt lat="44.325" lon="4.02801">
        <ele>460</ele>
        <time>2013-04-03T10:05:13Z</time>
      </trkpt>
      <trkpt lat="44.32499" lon="4.02805">
        <ele>460</ele>
        <time>2013-04-03T10:05:15Z</time>
      </trkpt>
      <trkpt lat="44.32498" lon="4.02808">
        <ele>460</ele>
        <time>2013-04-03T10:05:17Z</time>
      </trkpt>
      <trkpt lat="44.32496" lon="4.02812">
        <ele>459</ele>
        <time>2013-04-03T10:05:19Z</time>
      </trkpt>
      <trkpt lat="44.32495" lon="4.02815">
        <ele>458</ele>
        <time>2013-04-03T10:05:21Z</time>
      </trkpt>
      <trkpt lat="44.32494" lon="4.02819">
        <ele>458</ele>
        <time>2013-04-03T10:05:23Z</time>
      </trkpt>
      <trkpt lat="44.32493" lon="4.02822">
        <ele>458</ele>
        <time>2013-04-03T10:05:25Z</time>
      </trkpt>
      <trkpt lat="44.32493" lon="4.02826">
        <ele>458</ele>
        <time>2013-04-03T10:05:27Z</time>
      </trkpt>
      <trkpt lat="44.32494" lon="4.0283">
        <ele>457</ele>
        <time>2013-04-03T10:05:29Z</time>
      </trkpt>
      <trkpt lat="44.32493" lon="4.02833">
        <ele>457</ele>
        <time>2013-04-03T10:05:31Z</time>
      </trkpt>
      <trkpt lat="44.32493" lon="4.02836">
        <ele>457</ele>
        <time>2013-04-03T10:05:33Z</time>
      </trkpt>
      <trkpt lat="44.32493" lon="4.0284">
        <ele>458</ele>
        <time>2013-04-03T10:05:35Z</time>
      </trkpt>
      <trkpt lat="44.32493" lon="4.02845">
        <ele>458</ele>
        <time>2013-04-03T10:05:37Z</time>
      </trkpt>
      <trkpt lat="44.32492" lon="4.02848">
        <ele>457</ele>
        <time>2013-04-03T10:05:39Z</time>
      </trkpt>
      <trkpt lat="44.32491" lon="4.02852">
        <ele>456</ele>
        <time>2013-04-03T10:05:41Z</time>
      </trkpt>
      <trkpt lat="44.32491" lon="4.02855">
        <ele>456</ele>
        <time>2013-04-03T10:05:43Z</time>
      </trkpt>
      <trkpt lat="44.3249" lon="4.02859">
        <ele>456</ele>
        <time>2013-04-03T10:05:45Z</time>
      </trkpt>
      <trkpt lat="44.3249" lon="4.02863">
        <ele>456</ele>
        <time>2013-04-03T10:05:47Z</time>
      </trkpt>
      <trkpt lat="44.32489" lon="4.02866">
        <ele>456</ele>
        <time>2013-04-03T10:05:49Z</time>
      </trkpt>
      <trkpt lat="44.32489" lon="4.0287">
        <ele>455</ele>
        <time>2013-04-03T10:05:51Z</time>
      </trkpt>
      <trkpt lat="44.32488" lon="4.02873">
        <ele>456</ele>
        <time>2013-04-03T10:05:53Z</time>
      </trkpt>
      <trkpt lat="44.32488" lon="4.02877">
        <ele>455</ele>
        <time>2013-04-03T10:05:55Z</time>
      </trkpt>
      <trkpt lat="44.32488" lon="4.0288">
        <ele>455</ele>
        <time>2013-04-03T10:05:57Z</time>
      </trkpt>
      <trkpt lat="44.32487" lon="4.02883">
        <ele>454</ele>
        <time>2013-04-03T10:05:59Z</time>
      </trkpt>
      <trkpt lat="44.32487" lon="4.02884">
        <ele>454</ele>
        <time>2013-04-03T10:06:01Z</time>
      </trkpt>
      <trkpt lat="44.32486" lon="4.02885">
        <ele>453</ele>
        <time>2013-04-03T10:06:02Z</time>
      </trkpt>
      <trkpt lat="44.32486" lon="4.02889">
        <ele>452</ele>
        <time>2013-04-03T10:06:05Z</time>
      </trkpt>
      <trkpt lat="44.32486" lon="4.02892">
        <ele>452</ele>
        <time>2013-04-03T10:06:07Z</time>
      </trkpt>
      <trkpt lat="44.32486" lon="4.02896">
        <ele>452</ele>
        <time>2013-04-03T10:06:09Z</time>
      </trkpt>
      <trkpt lat="44.32485" lon="4.029">
        <ele>452</ele>
        <time>2013-04-03T10:06:11Z</time>
      </trkpt>
      <trkpt lat="44.32485" lon="4.02902">
        <ele>452</ele>
        <time>2013-04-03T10:06:13Z</time>
      </trkpt>
      <trkpt lat="44.32484" lon="4.02906">
        <ele>452</ele>
        <time>2013-04-03T10:06:15Z</time>
      </trkpt>
      <trkpt lat="44.32483" lon="4.02909">
        <ele>451</ele>
        <time>2013-04-03T10:06:17Z</time>
      </trkpt>
      <trkpt lat="44.32481" lon="4.02912">
        <ele>451</ele>
        <time>2013-04-03T10:06:19Z</time>
      </trkpt>
      <trkpt lat="44.3248" lon="4.02916">
        <ele>452</ele>
        <time>2013-04-03T10:06:21Z</time>
      </trkpt>
      <trkpt lat="44.3248" lon="4.0292">
        <ele>452</ele>
        <time>2013-04-03T10:06:23Z</time>
      </trkpt>
      <trkpt lat="44.32481" lon="4.02923">
        <ele>451</ele>
        <time>2013-04-03T10:06:25Z</time>
      </trkpt>
      <trkpt lat="44.32481" lon="4.02925">
        <ele>452</ele>
        <time>2013-04-03T10:06:27Z</time>
      </trkpt>
      <trkpt lat="44.32482" lon="4.02928">
        <ele>451</ele>
        <time>2013-04-03T10:06:29Z</time>
      </trkpt>
      <trkpt lat="44.32482" lon="4.02931">
        <ele>451</ele>
        <time>2013-04-03T10:06:31Z</time>
      </trkpt>
      <trkpt lat="44.32482" lon="4.02934">
        <ele>450</ele>
        <time>2013-04-03T10:06:33Z</time>
      </trkpt>
      <trkpt lat="44.32481" lon="4.02937">
        <ele>450</ele>
        <time>2013-04-03T10:06:35Z</time>
      </trkpt>
      <trkpt lat="44.32481" lon="4.0294">
        <ele>450</ele>
        <time>2013-04-03T10:06:37Z</time>
      </trkpt>
      <trkpt lat="44.32479" lon="4.02942">
        <ele>451</ele>
        <time>2013-04-03T10:06:39Z</time>
      </trkpt>
      <trkpt lat="44.32477" lon="4.02945">
        <ele>450</ele>
        <time>2013-04-03T10:06:41Z</time>
      </trkpt>
      <trkpt lat="44.32476" lon="4.02948">
        <ele>450</ele>
        <time>2013-04-03T10:06:43Z</time>
      </trkpt>
      <trkpt lat="44.32476" lon="4.02952">
        <ele>450</ele>
        <time>2013-04-03T10:06:45Z</time>
      </trkpt>
      <trkpt lat="44.32476" lon="4.02953">
        <ele>449</ele>
        <time>2013-04-03T10:06:47Z</time>
      </trkpt>
      <trkpt lat="44.32476" lon="4.02953">
        <ele>449</ele>
        <time>2013-04-03T10:06:49Z</time>
      </trkpt>
      <trkpt lat="44.32474" lon="4.02956">
        <ele>449</ele>
        <time>2013-04-03T10:06:51Z</time>
      </trkpt>
      <trkpt lat="44.32472" lon="4.02959">
        <ele>447</ele>
        <time>2013-04-03T10:06:53Z</time>
      </trkpt>
      <trkpt lat="44.32471" lon="4.02963">
        <ele>446</ele>
        <time>2013-04-03T10:06:55Z</time>
      </trkpt>
      <trkpt lat="44.3247" lon="4.02966">
        <ele>446</ele>
        <time>2013-04-03T10:06:57Z</time>
      </trkpt>
      <trkpt lat="44.32468" lon="4.0297">
        <ele>444</ele>
        <time>2013-04-03T10:06:59Z</time>
      </trkpt>
      <trkpt lat="44.32467" lon="4.02974">
        <ele>444</ele>
        <time>2013-04-03T10:07:01Z</time>
      </trkpt>
      <trkpt lat="44.32466" lon="4.02978">
        <ele>443</ele>
        <time>2013-04-03T10:07:03Z</time>
      </trkpt>
      <trkpt lat="44.32466" lon="4.02979">
        <ele>442</ele>
        <time>2013-04-03T10:07:04Z</time>
      </trkpt>
      <trkpt lat="44.32464" lon="4.02985">
        <ele>442</ele>
        <time>2013-04-03T10:07:07Z</time>
      </trkpt>
      <trkpt lat="44.32463" lon="4.02988">
        <ele>441</ele>
        <time>2013-04-03T10:07:09Z</time>
      </trkpt>
      <trkpt lat="44.32462" lon="4.02991">
        <ele>441</ele>
        <time>2013-04-03T10:07:11Z</time>
      </trkpt>
      <trkpt lat="44.32461" lon="4.02994">
        <ele>440</ele>
        <time>2013-04-03T10:07:13Z</time>
      </trkpt>
      <trkpt lat="44.3246" lon="4.02998">
        <ele>440</ele>
        <time>2013-04-03T10:07:15Z</time>
      </trkpt>
      <trkpt lat="44.32459" lon="4.03001">
        <ele>440</ele>
        <time>2013-04-03T10:07:17Z</time>
      </trkpt>
      <trkpt lat="44.32458" lon="4.03005">
        <ele>440</ele>
        <time>2013-04-03T10:07:19Z</time>
      </trkpt>
      <trkpt lat="44.32457" lon="4.03009">
        <ele>439</ele>
        <time>2013-04-03T10:07:21Z</time>
      </trkpt>
      <trkpt lat="44.32455" lon="4.03011">
        <ele>439</ele>
        <time>2013-04-03T10:07:23Z</time>
      </trkpt>
      <trkpt lat="44.32454" lon="4.03015">
        <ele>439</ele>
        <time>2013-04-03T10:07:25Z</time>
      </trkpt>
      <trkpt lat="44.32453" lon="4.03018">
        <ele>438</ele>
        <time>2013-04-03T10:07:27Z</time>
      </trkpt>
      <trkpt lat="44.32451" lon="4.03022">
        <ele>438</ele>
        <time>2013-04-03T10:07:29Z</time>
      </trkpt>
      <trkpt lat="44.3245" lon="4.03025">
        <ele>438</ele>
        <time>2013-04-03T10:07:31Z</time>
      </trkpt>
      <trkpt lat="44.32449" lon="4.03028">
        <ele>438</ele>
        <time>2013-04-03T10:07:33Z</time>
      </trkpt>
      <trkpt lat="44.32449" lon="4.03031">
        <ele>438</ele>
        <time>2013-04-03T10:07:35Z</time>
      </trkpt>
      <trkpt lat="44.32447" lon="4.03035">
        <ele>438</ele>
        <time>2013-04-03T10:07:37Z</time>
      </trkpt>
      <trkpt lat="44.32446" lon="4.03038">
        <ele>439</ele>
        <time>2013-04-03T10:07:39Z</time>
      </trkpt>
      <trkpt lat="44.32446" lon="4.03041">
        <ele>439</ele>
        <time>2013-04-03T10:07:41Z</time>
      </trkpt>
      <trkpt lat="44.32445" lon="4.03043">
        <ele>439</ele>
        <time>2013-04-03T10:07:43Z</time>
      </trkpt>
      <trkpt lat="44.32444" lon="4.03046">
        <ele>439</ele>
        <time>2013-04-03T10:07:45Z</time>
      </trkpt>
      <trkpt lat="44.32443" lon="4.0305">
        <ele>439</ele>
        <time>2013-04-03T10:07:47Z</time>
      </trkpt>
      <trkpt lat="44.32442" lon="4.03053">
        <ele>439</ele>
        <time>2013-04-03T10:07:49Z</time>
      </trkpt>
      <trkpt lat="44.32442" lon="4.03057">
        <ele>439</ele>
        <time>2013-04-03T10:07:51Z</time>
      </trkpt>
      <trkpt lat="44.32441" lon="4.0306">
        <ele>439</ele>
        <time>2013-04-03T10:07:53Z</time>
      </trkpt>
      <trkpt lat="44.3244" lon="4.03063">
        <ele>439</ele>
        <time>2013-04-03T10:07:55Z</time>
      </trkpt>
      <trkpt lat="44.32438" lon="4.03067">
        <ele>439</ele>
        <time>2013-04-03T10:07:57Z</time>
      </trkpt>
      <trkpt lat="44.32437" lon="4.03071">
        <ele>439</ele>
        <time>2013-04-03T10:07:59Z</time>
      </trkpt>
      <trkpt lat="44.32437" lon="4.03074">
        <ele>439</ele>
        <time>2013-04-03T10:08:01Z</time>
      </trkpt>
      <trkpt lat="44.32436" lon="4.03077">
        <ele>439</ele>
        <time>2013-04-03T10:08:03Z</time>
      </trkpt>
      <trkpt lat="44.32435" lon="4.03081">
        <ele>439</ele>
        <time>2013-04-03T10:08:05Z</time>
      </trkpt>
      <trkpt lat="44.32434" lon="4.03082">
        <ele>438</ele>
        <time>2013-04-03T10:08:06Z</time>
      </trkpt>
      <trkpt lat="44.32432" lon="4.03088">
        <ele>438</ele>
        <time>2013-04-03T10:08:09Z</time>
      </trkpt>
      <trkpt lat="44.32432" lon="4.03092">
        <ele>438</ele>
        <time>2013-04-03T10:08:11Z</time>
      </trkpt>
      <trkpt lat="44.32431" lon="4.03095">
        <ele>438</ele>
        <time>2013-04-03T10:08:13Z</time>
      </trkpt>
      <trkpt lat="44.3243" lon="4.03099">
        <ele>438</ele>
        <time>2013-04-03T10:08:15Z</time>
      </trkpt>
      <trkpt lat="44.32429" lon="4.03102">
        <ele>437</ele>
        <time>2013-04-03T10:08:17Z</time>
      </trkpt>
      <trkpt lat="44.32428" lon="4.03106">
        <ele>438</ele>
        <time>2013-04-03T10:08:19Z</time>
      </trkpt>
      <trkpt lat="44.32427" lon="4.03109">
        <ele>437</ele>
        <time>2013-04-03T10:08:21Z</time>
      </trkpt>
      <trkpt lat="44.32425" lon="4.03112">
        <ele>437</ele>
        <time>2013-04-03T10:08:23Z</time>
      </trkpt>
      <trkpt lat="44.32425" lon="4.03117">
        <ele>437</ele>
        <time>2013-04-03T10:08:25Z</time>
      </trkpt>
      <trkpt lat="44.32424" lon="4.0312">
        <ele>437</ele>
        <time>2013-04-03T10:08:27Z</time>
      </trkpt>
      <trkpt lat="44.32423" lon="4.03124">
        <ele>437</ele>
        <time>2013-04-03T10:08:29Z</time>
      </trkpt>
      <trkpt lat="44.32422" lon="4.03127">
        <ele>437</ele>
        <time>2013-04-03T10:08:31Z</time>
      </trkpt>
      <trkpt lat="44.32421" lon="4.0313">
        <ele>437</ele>
        <time>2013-04-03T10:08:33Z</time>
      </trkpt>
      <trkpt lat="44.32419" lon="4.03133">
        <ele>437</ele>
        <time>2013-04-03T10:08:35Z</time>
      </trkpt>
      <trkpt lat="44.32418" lon="4.03136">
        <ele>437</ele>
        <time>2013-04-03T10:08:37Z</time>
      </trkpt>
      <trkpt lat="44.32418" lon="4.03139">
        <ele>437</ele>
        <time>2013-04-03T10:08:39Z</time>
      </trkpt>
      <trkpt lat="44.32416" lon="4.03142">
        <ele>437</ele>
        <time>2013-04-03T10:08:41Z</time>
      </trkpt>
      <trkpt lat="44.32414" lon="4.03145">
        <ele>437</ele>
        <time>2013-04-03T10:08:43Z</time>
      </trkpt>
      <trkpt lat="44.32412" lon="4.03148">
        <ele>437</ele>
        <time>2013-04-03T10:08:45Z</time>
      </trkpt>
      <trkpt lat="44.32411" lon="4.03151">
        <ele>436</ele>
        <time>2013-04-03T10:08:47Z</time>
      </trkpt>
      <trkpt lat="44.32411" lon="4.03154">
        <ele>436</ele>
        <time>2013-04-03T10:08:49Z</time>
      </trkpt>
      <trkpt lat="44.3241" lon="4.03157">
        <ele>435</ele>
        <time>2013-04-03T10:08:51Z</time>
      </trkpt>
      <trkpt lat="44.32409" lon="4.0316">
        <ele>435</ele>
        <time>2013-04-03T10:08:53Z</time>
      </trkpt>
      <trkpt lat="44.32408" lon="4.03163">
        <ele>435</ele>
        <time>2013-04-03T10:08:55Z</time>
      </trkpt>
      <trkpt lat="44.32407" lon="4.03167">
        <ele>435</ele>
        <time>2013-04-03T10:08:57Z</time>
      </trkpt>
      <trkpt lat="44.32406" lon="4.0317">
        <ele>434</ele>
        <time>2013-04-03T10:08:59Z</time>
      </trkpt>
      <trkpt lat="44.32405" lon="4.03172">
        <ele>434</ele>
        <time>2013-04-03T10:09:01Z</time>
      </trkpt>
      <trkpt lat="44.32403" lon="4.03174">
        <ele>434</ele>
        <time>2013-04-03T10:09:03Z</time>
      </trkpt>
      <trkpt lat="44.32401" lon="4.03178">
        <ele>434</ele>
        <time>2013-04-03T10:09:05Z</time>
      </trkpt>
      <trkpt lat="44.32399" lon="4.03182">
        <ele>434</ele>
        <time>2013-04-03T10:09:07Z</time>
      </trkpt>
      <trkpt lat="44.32398" lon="4.03184">
        <ele>433</ele>
        <time>2013-04-03T10:09:08Z</time>
      </trkpt>
      <trkpt lat="44.32396" lon="4.03189">
        <ele>433</ele>
        <time>2013-04-03T10:09:11Z</time>
      </trkpt>
      <trkpt lat="44.32395" lon="4.03191">
        <ele>433</ele>
        <time>2013-04-03T10:09:13Z</time>
      </trkpt>
      <trkpt lat="44.32394" lon="4.03194">
        <ele>434</ele>
        <time>2013-04-03T10:09:15Z</time>
      </trkpt>
      <trkpt lat="44.32393" lon="4.03196">
        <ele>434</ele>
        <time>2013-04-03T10:09:17Z</time>
      </trkpt>
      <trkpt lat="44.32392" lon="4.03198">
        <ele>434</ele>
        <time>2013-04-03T10:09:19Z</time>
      </trkpt>
      <trkpt lat="44.32391" lon="4.03202">
        <ele>434</ele>
        <time>2013-04-03T10:09:21Z</time>
      </trkpt>
      <trkpt lat="44.32391" lon="4.03205">
        <ele>432</ele>
        <time>2013-04-03T10:09:23Z</time>
      </trkpt>
      <trkpt lat="44.3239" lon="4.0321">
        <ele>432</ele>
        <time>2013-04-03T10:09:25Z</time>
      </trkpt>
      <trkpt lat="44.3239" lon="4.03213">
        <ele>432</ele>
        <time>2013-04-03T10:09:27Z</time>
      </trkpt>
      <trkpt lat="44.3239" lon="4.03217">
        <ele>432</ele>
        <time>2013-04-03T10:09:29Z</time>
      </trkpt>
      <trkpt lat="44.3239" lon="4.0322">
        <ele>431</ele>
        <time>2013-04-03T10:09:31Z</time>
      </trkpt>
      <trkpt lat="44.32389" lon="4.03223">
        <ele>432</ele>
        <time>2013-04-03T10:09:33Z</time>
      </trkpt>
      <trkpt lat="44.32389" lon="4.03226">
        <ele>432</ele>
        <time>2013-04-03T10:09:35Z</time>
      </trkpt>
      <trkpt lat="44.32389" lon="4.03229">
        <ele>432</ele>
        <time>2013-04-03T10:09:37Z</time>
      </trkpt>
      <trkpt lat="44.32389" lon="4.03232">
        <ele>433</ele>
        <time>2013-04-03T10:09:39Z</time>
      </trkpt>
      <trkpt lat="44.32389" lon="4.03236">
        <ele>433</ele>
        <time>2013-04-03T10:09:41Z</time>
      </trkpt>
      <trkpt lat="44.32389" lon="4.03239">
        <ele>433</ele>
        <time>2013-04-03T10:09:43Z</time>
      </trkpt>
      <trkpt lat="44.32388" lon="4.03242">
        <ele>434</ele>
        <time>2013-04-03T10:09:45Z</time>
      </trkpt>
      <trkpt lat="44.32388" lon="4.03245">
        <ele>435</ele>
        <time>2013-04-03T10:09:47Z</time>
      </trkpt>
      <trkpt lat="44.32387" lon="4.03249">
        <ele>434</ele>
        <time>2013-04-03T10:09:49Z</time>
      </trkpt>
      <trkpt lat="44.32387" lon="4.03252">
        <ele>434</ele>
        <time>2013-04-03T10:09:51Z</time>
      </trkpt>
      <trkpt lat="44.32388" lon="4.03255">
        <ele>435</ele>
        <time>2013-04-03T10:09:53Z</time>
      </trkpt>
      <trkpt lat="44.32388" lon="4.03258">
        <ele>435</ele>
        <time>2013-04-03T10:09:55Z</time>
      </trkpt>
      <trkpt lat="44.32388" lon="4.0326">
        <ele>435</ele>
        <time>2013-04-03T10:09:57Z</time>
      </trkpt>
      <trkpt lat="44.32387" lon="4.03264">
        <ele>436</ele>
        <time>2013-04-03T10:09:59Z</time>
      </trkpt>
      <trkpt lat="44.32388" lon="4.03268">
        <ele>436</ele>
        <time>2013-04-03T10:10:01Z</time>
      </trkpt>
      <trkpt lat="44.32388" lon="4.03271">
        <ele>436</ele>
        <time>2013-04-03T10:10:03Z</time>
      </trkpt>
      <trkpt lat="44.32388" lon="4.03273">
        <ele>436</ele>
        <time>2013-04-03T10:10:05Z</time>
      </trkpt>
      <trkpt lat="44.32387" lon="4.03277">
        <ele>436</ele>
        <time>2013-04-03T10:10:07Z</time>
      </trkpt>
      <trkpt lat="44.32388" lon="4.0328">
        <ele>437</ele>
        <time>2013-04-03T10:10:09Z</time>
      </trkpt>
      <trkpt lat="44.32388" lon="4.03282">
        <ele>437</ele>
        <time>2013-04-03T10:10:10Z</time>
      </trkpt>
      <trkpt lat="44.32388" lon="4.03286">
        <ele>437</ele>
        <time>2013-04-03T10:10:13Z</time>
      </trkpt>
      <trkpt lat="44.32387" lon="4.03289">
        <ele>438</ele>
        <time>2013-04-03T10:10:15Z</time>
      </trkpt>
      <trkpt lat="44.32387" lon="4.03293">
        <ele>438</ele>
        <time>2013-04-03T10:10:17Z</time>
      </trkpt>
      <trkpt lat="44.32387" lon="4.03296">
        <ele>439</ele>
        <time>2013-04-03T10:10:19Z</time>
      </trkpt>
      <trkpt lat="44.32387" lon="4.033">
        <ele>439</ele>
        <time>2013-04-03T10:10:21Z</time>
      </trkpt>
      <trkpt lat="44.32386" lon="4.03303">
        <ele>439</ele>
        <time>2013-04-03T10:10:23Z</time>
      </trkpt>
      <trkpt lat="44.32386" lon="4.03307">
        <ele>439</ele>
        <time>2013-04-03T10:10:25Z</time>
      </trkpt>
      <trkpt lat="44.32387" lon="4.0331">
        <ele>440</ele>
        <time>2013-04-03T10:10:27Z</time>
      </trkpt>
      <trkpt lat="44.32387" lon="4.03314">
        <ele>440</ele>
        <time>2013-04-03T10:10:29Z</time>
      </trkpt>
      <trkpt lat="44.32385" lon="4.03316">
        <ele>440</ele>
        <time>2013-04-03T10:10:31Z</time>
      </trkpt>
      <trkpt lat="44.32385" lon="4.0332">
        <ele>440</ele>
        <time>2013-04-03T10:10:33Z</time>
      </trkpt>
      <trkpt lat="44.32384" lon="4.03323">
        <ele>440</ele>
        <time>2013-04-03T10:10:35Z</time>
      </trkpt>
      <trkpt lat="44.32383" lon="4.03327">
        <ele>440</ele>
        <time>2013-04-03T10:10:37Z</time>
      </trkpt>
      <trkpt lat="44.32382" lon="4.0333">
        <ele>440</ele>
        <time>2013-04-03T10:10:39Z</time>
      </trkpt>
      <trkpt lat="44.32381" lon="4.03333">
        <ele>440</ele>
        <time>2013-04-03T10:10:41Z</time>
      </trkpt>
      <trkpt lat="44.3238" lon="4.03337">
        <ele>440</ele>
        <time>2013-04-03T10:10:43Z</time>
      </trkpt>
      <trkpt lat="44.3238" lon="4.0334">
        <ele>441</ele>
        <time>2013-04-03T10:10:45Z</time>
      </trkpt>
      <trkpt lat="44.3238" lon="4.03343">
        <ele>442</ele>
        <time>2013-04-03T10:10:47Z</time>
      </trkpt>
      <trkpt lat="44.3238" lon="4.03347">
        <ele>442</ele>
        <time>2013-04-03T10:10:49Z</time>
      </trkpt>
      <trkpt lat="44.3238" lon="4.0335">
        <ele>442</ele>
        <time>2013-04-03T10:10:51Z</time>
      </trkpt>
      <trkpt lat="44.3238" lon="4.03353">
        <ele>442</ele>
        <time>2013-04-03T10:10:53Z</time>
      </trkpt>
      <trkpt lat="44.3238" lon="4.03355">
        <ele>442</ele>
        <time>2013-04-03T10:10:55Z</time>
      </trkpt>
      <trkpt lat="44.32379" lon="4.03358">
        <ele>442</ele>
        <time>2013-04-03T10:10:57Z</time>
      </trkpt>
      <trkpt lat="44.32378" lon="4.03362">
        <ele>442</ele>
        <time>2013-04-03T10:10:59Z</time>
      </trkpt>
      <trkpt lat="44.32378" lon="4.03364">
        <ele>443</ele>
        <time>2013-04-03T10:11:01Z</time>
      </trkpt>
      <trkpt lat="44.32376" lon="4.03366">
        <ele>443</ele>
        <time>2013-04-03T10:11:03Z</time>
      </trkpt>
      <trkpt lat="44.32374" lon="4.03368">
        <ele>443</ele>
        <time>2013-04-03T10:11:05Z</time>
      </trkpt>
      <trkpt lat="44.32373" lon="4.0337">
        <ele>443</ele>
        <time>2013-04-03T10:11:07Z</time>
      </trkpt>
      <trkpt lat="44.32372" lon="4.03373">
        <ele>442</ele>
        <time>2013-04-03T10:11:09Z</time>
      </trkpt>
      <trkpt lat="44.3237" lon="4.03374">
        <ele>442</ele>
        <time>2013-04-03T10:11:11Z</time>
      </trkpt>
      <trkpt lat="44.3237" lon="4.03374">
        <ele>442</ele>
        <time>2013-04-03T10:11:12Z</time>
      </trkpt>
      <trkpt lat="44.32367" lon="4.03376">
        <ele>442</ele>
        <time>2013-04-03T10:11:15Z</time>
      </trkpt>
      <trkpt lat="44.32365" lon="4.03378">
        <ele>442</ele>
        <time>2013-04-03T10:11:17Z</time>
      </trkpt>
      <trkpt lat="44.32363" lon="4.03379">
        <ele>442</ele>
        <time>2013-04-03T10:11:19Z</time>
      </trkpt>
      <trkpt lat="44.32362" lon="4.03382">
        <ele>441</ele>
        <time>2013-04-03T10:11:21Z</time>
      </trkpt>
      <trkpt lat="44.3236" lon="4.03383">
        <ele>440</ele>
        <time>2013-04-03T10:11:23Z</time>
      </trkpt>
      <trkpt lat="44.32358" lon="4.03385">
        <ele>440</ele>
        <time>2013-04-03T10:11:25Z</time>
      </trkpt>
      <trkpt lat="44.32356" lon="4.03387">
        <ele>440</ele>
        <time>2013-04-03T10:11:27Z</time>
      </trkpt>
      <trkpt lat="44.32354" lon="4.03389">
        <ele>440</ele>
        <time>2013-04-03T10:11:29Z</time>
      </trkpt>
      <trkpt lat="44.32353" lon="4.03391">
        <ele>440</ele>
        <time>2013-04-03T10:11:31Z</time>
      </trkpt>
      <trkpt lat="44.32351" lon="4.03392">
        <ele>440</ele>
        <time>2013-04-03T10:11:33Z</time>
      </trkpt>
      <trkpt lat="44.32349" lon="4.03394">
        <ele>440</ele>
        <time>2013-04-03T10:11:35Z</time>
      </trkpt>
      <trkpt lat="44.32348" lon="4.03395">
        <ele>440</ele>
        <time>2013-04-03T10:11:37Z</time>
      </trkpt>
      <trkpt lat="44.32346" lon="4.03397">
        <ele>440</ele>
        <time>2013-04-03T10:11:39Z</time>
      </trkpt>
      <trkpt lat="44.32344" lon="4.03398">
        <ele>440</ele>
        <time>2013-04-03T10:11:41Z</time>
      </trkpt>
      <trkpt lat="44.32343" lon="4.034">
        <ele>440</ele>
        <time>2013-04-03T10:11:43Z</time>
      </trkpt>
      <trkpt lat="44.32341" lon="4.03402">
        <ele>440</ele>
        <time>2013-04-03T10:11:45Z</time>
      </trkpt>
      <trkpt lat="44.32339" lon="4.03404">
        <ele>440</ele>
        <time>2013-04-03T10:11:47Z</time>
      </trkpt>
      <trkpt lat="44.32338" lon="4.03406">
        <ele>440</ele>
        <time>2013-04-03T10:11:49Z</time>
      </trkpt>
      <trkpt lat="44.32336" lon="4.03408">
        <ele>440</ele>
        <time>2013-04-03T10:11:51Z</time>
      </trkpt>
      <trkpt lat="44.32334" lon="4.0341">
        <ele>440</ele>
        <time>2013-04-03T10:11:53Z</time>
      </trkpt>
      <trkpt lat="44.32331" lon="4.0341">
        <ele>440</ele>
        <time>2013-04-03T10:11:55Z</time>
      </trkpt>
      <trkpt lat="44.32329" lon="4.03412">
        <ele>439</ele>
        <time>2013-04-03T10:11:57Z</time>
      </trkpt>
      <trkpt lat="44.32326" lon="4.03413">
        <ele>439</ele>
        <time>2013-04-03T10:11:59Z</time>
      </trkpt>
      <trkpt lat="44.32323" lon="4.03415">
        <ele>439</ele>
        <time>2013-04-03T10:12:01Z</time>
      </trkpt>
      <trkpt lat="44.32322" lon="4.03417">
        <ele>439</ele>
        <time>2013-04-03T10:12:03Z</time>
      </trkpt>
      <trkpt lat="44.3232" lon="4.03419">
        <ele>439</ele>
        <time>2013-04-03T10:12:05Z</time>
      </trkpt>
      <trkpt lat="44.32318" lon="4.0342">
        <ele>439</ele>
        <time>2013-04-03T10:12:07Z</time>
      </trkpt>
      <trkpt lat="44.32316" lon="4.03422">
        <ele>440</ele>
        <time>2013-04-03T10:12:09Z</time>
      </trkpt>
      <trkpt lat="44.32314" lon="4.03423">
        <ele>440</ele>
        <time>2013-04-03T10:12:11Z</time>
      </trkpt>
      <trkpt lat="44.32313" lon="4.03424">
        <ele>439</ele>
        <time>2013-04-03T10:12:13Z</time>
      </trkpt>
      <trkpt lat="44.32312" lon="4.03425">
        <ele>440</ele>
        <time>2013-04-03T10:12:14Z</time>
      </trkpt>
      <trkpt lat="44.32309" lon="4.03428">
        <ele>439</ele>
        <time>2013-04-03T10:12:17Z</time>
      </trkpt>
      <trkpt lat="44.32308" lon="4.03431">
        <ele>438</ele>
        <time>2013-04-03T10:12:19Z</time>
      </trkpt>
      <trkpt lat="44.32307" lon="4.03434">
        <ele>438</ele>
        <time>2013-04-03T10:12:21Z</time>
      </trkpt>
      <trkpt lat="44.32306" lon="4.03437">
        <ele>437</ele>
        <time>2013-04-03T10:12:23Z</time>
      </trkpt>
      <trkpt lat="44.32304" lon="4.03441">
        <ele>437</ele>
        <time>2013-04-03T10:12:25Z</time>
      </trkpt>
      <trkpt lat="44.32302" lon="4.03443">
        <ele>438</ele>
        <time>2013-04-03T10:12:27Z</time>
      </trkpt>
      <trkpt lat="44.32301" lon="4.03445">
        <ele>437</ele>
        <time>2013-04-03T10:12:29Z</time>
      </trkpt>
      <trkpt lat="44.32299" lon="4.03448">
        <ele>437</ele>
        <time>2013-04-03T10:12:31Z</time>
      </trkpt>
      <trkpt lat="44.32298" lon="4.0345">
        <ele>437</ele>
        <time>2013-04-03T10:12:33Z</time>
      </trkpt>
      <trkpt lat="44.32296" lon="4.03453">
        <ele>437</ele>
        <time>2013-04-03T10:12:35Z</time>
      </trkpt>
      <trkpt lat="44.32295" lon="4.03456">
        <ele>437</ele>
        <time>2013-04-03T10:12:37Z</time>
      </trkpt>
      <trkpt lat="44.32293" lon="4.03459">
        <ele>436</ele>
        <time>2013-04-03T10:12:39Z</time>
      </trkpt>
      <trkpt lat="44.32292" lon="4.03461">
        <ele>436</ele>
        <time>2013-04-03T10:12:41Z</time>
      </trkpt>
      <trkpt lat="44.32292" lon="4.03464">
        <ele>437</ele>
        <time>2013-04-03T10:12:43Z</time>
      </trkpt>
      <trkpt lat="44.32291" lon="4.03466">
        <ele>438</ele>
        <time>2013-04-03T10:12:45Z</time>
      </trkpt>
      <trkpt lat="44.32289" lon="4.03469">
        <ele>437</ele>
        <time>2013-04-03T10:12:47Z</time>
      </trkpt>
      <trkpt lat="44.32287" lon="4.03471">
        <ele>438</ele>
        <time>2013-04-03T10:12:49Z</time>
      </trkpt>
      <trkpt lat="44.32286" lon="4.03474">
        <ele>438</ele>
        <time>2013-04-03T10:12:51Z</time>
      </trkpt>
      <trkpt lat="44.32285" lon="4.03476">
        <ele>438</ele>
        <time>2013-04-03T10:12:53Z</time>
      </trkpt>
      <trkpt lat="44.32284" lon="4.03479">
        <ele>438</ele>
        <time>2013-04-03T10:12:55Z</time>
      </trkpt>
      <trkpt lat="44.32282" lon="4.03481">
        <ele>438</ele>
        <time>2013-04-03T10:12:57Z</time>
      </trkpt>
      <trkpt lat="44.32281" lon="4.03484">
        <ele>438</ele>
        <time>2013-04-03T10:12:59Z</time>
      </trkpt>
      <trkpt lat="44.32279" lon="4.03486">
        <ele>438</ele>
        <time>2013-04-03T10:13:01Z</time>
      </trkpt>
      <trkpt lat="44.32279" lon="4.03489">
        <ele>438</ele>
        <time>2013-04-03T10:13:03Z</time>
      </trkpt>
      <trkpt lat="44.32279" lon="4.03491">
        <ele>438</ele>
        <time>2013-04-03T10:13:05Z</time>
      </trkpt>
      <trkpt lat="44.32278" lon="4.03494">
        <ele>439</ele>
        <time>2013-04-03T10:13:07Z</time>
      </trkpt>
      <trkpt lat="44.32276" lon="4.03498">
        <ele>438</ele>
        <time>2013-04-03T10:13:09Z</time>
      </trkpt>
      <trkpt lat="44.32275" lon="4.03501">
        <ele>438</ele>
        <time>2013-04-03T10:13:11Z</time>
      </trkpt>
      <trkpt lat="44.32273" lon="4.03502">
        <ele>439</ele>
        <time>2013-04-03T10:13:13Z</time>
      </trkpt>
      <trkpt lat="44.32272" lon="4.03505">
        <ele>439</ele>
        <time>2013-04-03T10:13:15Z</time>
      </trkpt>
      <trkpt lat="44.32271" lon="4.03507">
        <ele>439</ele>
        <time>2013-04-03T10:13:16Z</time>
      </trkpt>
      <trkpt lat="44.3227" lon="4.03512">
        <ele>439</ele>
        <time>2013-04-03T10:13:19Z</time>
      </trkpt>
      <trkpt lat="44.32269" lon="4.03514">
        <ele>439</ele>
        <time>2013-04-03T10:13:21Z</time>
      </trkpt>
      <trkpt lat="44.32267" lon="4.03517">
        <ele>439</ele>
        <time>2013-04-03T10:13:23Z</time>
      </trkpt>
      <trkpt lat="44.32267" lon="4.03521">
        <ele>440</ele>
        <time>2013-04-03T10:13:25Z</time>
      </trkpt>
      <trkpt lat="44.32266" lon="4.03524">
        <ele>440</ele>
        <time>2013-04-03T10:13:27Z</time>
      </trkpt>
      <trkpt lat="44.32265" lon="4.03526">
        <ele>440</ele>
        <time>2013-04-03T10:13:29Z</time>
      </trkpt>
      <trkpt lat="44.32264" lon="4.0353">
        <ele>439</ele>
        <time>2013-04-03T10:13:31Z</time>
      </trkpt>
      <trkpt lat="44.32263" lon="4.03533">
        <ele>439</ele>
        <time>2013-04-03T10:13:33Z</time>
      </trkpt>
      <trkpt lat="44.32261" lon="4.03535">
        <ele>440</ele>
        <time>2013-04-03T10:13:35Z</time>
      </trkpt>
      <trkpt lat="44.3226" lon="4.03538">
        <ele>439</ele>
        <time>2013-04-03T10:13:37Z</time>
      </trkpt>
      <trkpt lat="44.32259" lon="4.03541">
        <ele>439</ele>
        <time>2013-04-03T10:13:39Z</time>
      </trkpt>
      <trkpt lat="44.32257" lon="4.03544">
        <ele>439</ele>
        <time>2013-04-03T10:13:41Z</time>
      </trkpt>
      <trkpt lat="44.32255" lon="4.03547">
        <ele>440</ele>
        <time>2013-04-03T10:13:43Z</time>
      </trkpt>
      <trkpt lat="44.32254" lon="4.0355">
        <ele>440</ele>
        <time>2013-04-03T10:13:45Z</time>
      </trkpt>
      <trkpt lat="44.32254" lon="4.03552">
        <ele>440</ele>
        <time>2013-04-03T10:13:47Z</time>
      </trkpt>
      <trkpt lat="44.32253" lon="4.03556">
        <ele>440</ele>
        <time>2013-04-03T10:13:49Z</time>
      </trkpt>
      <trkpt lat="44.32251" lon="4.0356">
        <ele>441</ele>
        <time>2013-04-03T10:13:51Z</time>
      </trkpt>
      <trkpt lat="44.32251" lon="4.03563">
        <ele>440</ele>
        <time>2013-04-03T10:13:53Z</time>
      </trkpt>
      <trkpt lat="44.3225" lon="4.03567">
        <ele>440</ele>
        <time>2013-04-03T10:13:55Z</time>
      </trkpt>
      <trkpt lat="44.32249" lon="4.0357">
        <ele>440</ele>
        <time>2013-04-03T10:13:57Z</time>
      </trkpt>
      <trkpt lat="44.32248" lon="4.03573">
        <ele>439</ele>
        <time>2013-04-03T10:13:59Z</time>
      </trkpt>
      <trkpt lat="44.32247" lon="4.03576">
        <ele>438</ele>
        <time>2013-04-03T10:14:01Z</time>
      </trkpt>
      <trkpt lat="44.32247" lon="4.03578">
        <ele>438</ele>
        <time>2013-04-03T10:14:03Z</time>
      </trkpt>
      <trkpt lat="44.32247" lon="4.03581">
        <ele>439</ele>
        <time>2013-04-03T10:14:05Z</time>
      </trkpt>
      <trkpt lat="44.32245" lon="4.03582">
        <ele>439</ele>
        <time>2013-04-03T10:14:07Z</time>
      </trkpt>
      <trkpt lat="44.32244" lon="4.03586">
        <ele>439</ele>
        <time>2013-04-03T10:14:09Z</time>
      </trkpt>
      <trkpt lat="44.32244" lon="4.03587">
        <ele>440</ele>
        <time>2013-04-03T10:14:11Z</time>
      </trkpt>
      <trkpt lat="44.32243" lon="4.03588">
        <ele>440</ele>
        <time>2013-04-03T10:14:13Z</time>
      </trkpt>
      <trkpt lat="44.32244" lon="4.0359">
        <ele>440</ele>
        <time>2013-04-03T10:14:15Z</time>
      </trkpt>
      <trkpt lat="44.32243" lon="4.03593">
        <ele>440</ele>
        <time>2013-04-03T10:14:17Z</time>
      </trkpt>
      <trkpt lat="44.32242" lon="4.03595">
        <ele>439</ele>
        <time>2013-04-03T10:14:18Z</time>
      </trkpt>
      <trkpt lat="44.32238" lon="4.03599">
        <ele>439</ele>
        <time>2013-04-03T10:14:21Z</time>
      </trkpt>
      <trkpt lat="44.32236" lon="4.03602">
        <ele>439</ele>
        <time>2013-04-03T10:14:23Z</time>
      </trkpt>
      <trkpt lat="44.32234" lon="4.03605">
        <ele>438</ele>
        <time>2013-04-03T10:14:25Z</time>
      </trkpt>
      <trkpt lat="44.32231" lon="4.03607">
        <ele>438</ele>
        <time>2013-04-03T10:14:27Z</time>
      </trkpt>
      <trkpt lat="44.32229" lon="4.0361">
        <ele>437</ele>
        <time>2013-04-03T10:14:29Z</time>
      </trkpt>
      <trkpt lat="44.32229" lon="4.03613">
        <ele>437</ele>
        <time>2013-04-03T10:14:31Z</time>
      </trkpt>
      <trkpt lat="44.32228" lon="4.03615">
        <ele>436</ele>
        <time>2013-04-03T10:14:33Z</time>
      </trkpt>
      <trkpt lat="44.32227" lon="4.03618">
        <ele>436</ele>
        <time>2013-04-03T10:14:35Z</time>
      </trkpt>
      <trkpt lat="44.32225" lon="4.0362">
        <ele>437</ele>
        <time>2013-04-03T10:14:37Z</time>
      </trkpt>
      <trkpt lat="44.32225" lon="4.03622">
        <ele>436</ele>
        <time>2013-04-03T10:14:39Z</time>
      </trkpt>
      <trkpt lat="44.32225" lon="4.03624">
        <ele>436</ele>
        <time>2013-04-03T10:14:41Z</time>
      </trkpt>
      <trkpt lat="44.32225" lon="4.03626">
        <ele>436</ele>
        <time>2013-04-03T10:14:43Z</time>
      </trkpt>
      <trkpt lat="44.32225" lon="4.03627">
        <ele>436</ele>
        <time>2013-04-03T10:14:45Z</time>
      </trkpt>
      <trkpt lat="44.32225" lon="4.03628">
        <ele>437</ele>
        <time>2013-04-03T10:14:47Z</time>
      </trkpt>
      <trkpt lat="44.32225" lon="4.03628">
        <ele>437</ele>
        <time>2013-04-03T10:14:49Z</time>
      </trkpt>
      <trkpt lat="44.32225" lon="4.03628">
        <ele>437</ele>
        <time>2013-04-03T10:14:51Z</time>
      </trkpt>
      <trkpt lat="44.32223" lon="4.03629">
        <ele>437</ele>
        <time>2013-04-03T10:14:53Z</time>
      </trkpt>
      <trkpt lat="44.32222" lon="4.0363">
        <ele>436</ele>
        <time>2013-04-03T10:14:55Z</time>
      </trkpt>
      <trkpt lat="44.32222" lon="4.03631">
        <ele>436</ele>
        <time>2013-04-03T10:14:57Z</time>
      </trkpt>
      <trkpt lat="44.32221" lon="4.03633">
        <ele>436</ele>
        <time>2013-04-03T10:14:59Z</time>
      </trkpt>
      <trkpt lat="44.32221" lon="4.03635">
        <ele>435</ele>
        <time>2013-04-03T10:15:01Z</time>
      </trkpt>
      <trkpt lat="44.3222" lon="4.03638">
        <ele>435</ele>
        <time>2013-04-03T10:15:03Z</time>
      </trkpt>
      <trkpt lat="44.32218" lon="4.03639">
        <ele>435</ele>
        <time>2013-04-03T10:15:05Z</time>
      </trkpt>
      <trkpt lat="44.32219" lon="4.0364">
        <ele>435</ele>
        <time>2013-04-03T10:15:07Z</time>
      </trkpt>
      <trkpt lat="44.32219" lon="4.03641">
        <ele>435</ele>
        <time>2013-04-03T10:15:09Z</time>
      </trkpt>
      <trkpt lat="44.32217" lon="4.03644">
        <ele>435</ele>
        <time>2013-04-03T10:15:11Z</time>
      </trkpt>
      <trkpt lat="44.32217" lon="4.03645">
        <ele>436</ele>
        <time>2013-04-03T10:15:13Z</time>
      </trkpt>
      <trkpt lat="44.32215" lon="4.03647">
        <ele>436</ele>
        <time>2013-04-03T10:15:15Z</time>
      </trkpt>
      <trkpt lat="44.32214" lon="4.0365">
        <ele>435</ele>
        <time>2013-04-03T10:15:17Z</time>
      </trkpt>
      <trkpt lat="44.32215" lon="4.03654">
        <ele>435</ele>
        <time>2013-04-03T10:15:19Z</time>
      </trkpt>
      <trkpt lat="44.32215" lon="4.03655">
        <ele>435</ele>
        <time>2013-04-03T10:15:20Z</time>
      </trkpt>
      <trkpt lat="44.32213" lon="4.0366">
        <ele>435</ele>
        <time>2013-04-03T10:15:23Z</time>
      </trkpt>
      <trkpt lat="44.32213" lon="4.03663">
        <ele>435</ele>
        <time>2013-04-03T10:15:25Z</time>
      </trkpt>
      <trkpt lat="44.32213" lon="4.03666">
        <ele>434</ele>
        <time>2013-04-03T10:15:27Z</time>
      </trkpt>
      <trkpt lat="44.32213" lon="4.03669">
        <ele>434</ele>
        <time>2013-04-03T10:15:29Z</time>
      </trkpt>
      <trkpt lat="44.32211" lon="4.03672">
        <ele>434</ele>
        <time>2013-04-03T10:15:31Z</time>
      </trkpt>
      <trkpt lat="44.32211" lon="4.03677">
        <ele>433</ele>
        <time>2013-04-03T10:15:33Z</time>
      </trkpt>
      <trkpt lat="44.3221" lon="4.03679">
        <ele>433</ele>
        <time>2013-04-03T10:15:35Z</time>
      </trkpt>
      <trkpt lat="44.3221" lon="4.03682">
        <ele>433</ele>
        <time>2013-04-03T10:15:37Z</time>
      </trkpt>
      <trkpt lat="44.32211" lon="4.03684">
        <ele>432</ele>
        <time>2013-04-03T10:15:39Z</time>
      </trkpt>
      <trkpt lat="44.3221" lon="4.03687">
        <ele>431</ele>
        <time>2013-04-03T10:15:41Z</time>
      </trkpt>
      <trkpt lat="44.3221" lon="4.03689">
        <ele>430</ele>
        <time>2013-04-03T10:15:43Z</time>
      </trkpt>
      <trkpt lat="44.32211" lon="4.03692">
        <ele>430</ele>
        <time>2013-04-03T10:15:45Z</time>
      </trkpt>
      <trkpt lat="44.3221" lon="4.03693">
        <ele>430</ele>
        <time>2013-04-03T10:15:47Z</time>
      </trkpt>
      <trkpt lat="44.32208" lon="4.03696">
        <ele>430</ele>
        <time>2013-04-03T10:15:49Z</time>
      </trkpt>
      <trkpt lat="44.32206" lon="4.03698">
        <ele>430</ele>
        <time>2013-04-03T10:15:51Z</time>
      </trkpt>
      <trkpt lat="44.32205" lon="4.037">
        <ele>429</ele>
        <time>2013-04-03T10:15:53Z</time>
      </trkpt>
      <trkpt lat="44.32204" lon="4.03702">
        <ele>429</ele>
        <time>2013-04-03T10:15:55Z</time>
      </trkpt>
      <trkpt lat="44.32203" lon="4.03705">
        <ele>429</ele>
        <time>2013-04-03T10:15:57Z</time>
      </trkpt>
      <trkpt lat="44.32203" lon="4.03706">
        <ele>429</ele>
        <time>2013-04-03T10:15:59Z</time>
      </trkpt>
      <trkpt lat="44.32202" lon="4.03707">
        <ele>429</ele>
        <time>2013-04-03T10:16:01Z</time>
      </trkpt>
      <trkpt lat="44.32201" lon="4.03708">
        <ele>429</ele>
        <time>2013-04-03T10:16:03Z</time>
      </trkpt>
      <trkpt lat="44.32199" lon="4.0371">
        <ele>429</ele>
        <time>2013-04-03T10:16:05Z</time>
      </trkpt>
      <trkpt lat="44.32198" lon="4.03712">
        <ele>429</ele>
        <time>2013-04-03T10:16:07Z</time>
      </trkpt>
      <trkpt lat="44.32197" lon="4.03713">
        <ele>428</ele>
        <time>2013-04-03T10:16:09Z</time>
      </trkpt>
      <trkpt lat="44.32197" lon="4.03715">
        <ele>428</ele>
        <time>2013-04-03T10:16:11Z</time>
      </trkpt>
      <trkpt lat="44.32196" lon="4.03717">
        <ele>428</ele>
        <time>2013-04-03T10:16:13Z</time>
      </trkpt>
      <trkpt lat="44.32196" lon="4.0372">
        <ele>427</ele>
        <time>2013-04-03T10:16:15Z</time>
      </trkpt>
      <trkpt lat="44.32195" lon="4.03722">
        <ele>426</ele>
        <time>2013-04-03T10:16:17Z</time>
      </trkpt>
      <trkpt lat="44.32195" lon="4.03723">
        <ele>426</ele>
        <time>2013-04-03T10:16:19Z</time>
      </trkpt>
      <trkpt lat="44.32194" lon="4.03725">
        <ele>426</ele>
        <time>2013-04-03T10:16:21Z</time>
      </trkpt>
      <trkpt lat="44.32193" lon="4.03726">
        <ele>426</ele>
        <time>2013-04-03T10:16:22Z</time>
      </trkpt>
      <trkpt lat="44.32192" lon="4.03728">
        <ele>426</ele>
        <time>2013-04-03T10:16:25Z</time>
      </trkpt>
      <trkpt lat="44.32194" lon="4.0373">
        <ele>426</ele>
        <time>2013-04-03T10:16:27Z</time>
      </trkpt>
      <trkpt lat="44.32193" lon="4.03732">
        <ele>426</ele>
        <time>2013-04-03T10:16:29Z</time>
      </trkpt>
      <trkpt lat="44.32193" lon="4.03733">
        <ele>425</ele>
        <time>2013-04-03T10:16:31Z</time>
      </trkpt>
      <trkpt lat="44.32192" lon="4.03736">
        <ele>425</ele>
        <time>2013-04-03T10:16:33Z</time>
      </trkpt>
      <trkpt lat="44.32191" lon="4.03738">
        <ele>425</ele>
        <time>2013-04-03T10:16:35Z</time>
      </trkpt>
      <trkpt lat="44.32189" lon="4.03739">
        <ele>424</ele>
        <time>2013-04-03T10:16:37Z</time>
      </trkpt>
      <trkpt lat="44.32188" lon="4.03742">
        <ele>424</ele>
        <time>2013-04-03T10:16:39Z</time>
      </trkpt>
      <trkpt lat="44.32189" lon="4.03744">
        <ele>424</ele>
        <time>2013-04-03T10:16:41Z</time>
      </trkpt>
      <trkpt lat="44.32191" lon="4.03747">
        <ele>425</ele>
        <time>2013-04-03T10:16:43Z</time>
      </trkpt>
      <trkpt lat="44.3219" lon="4.03748">
        <ele>426</ele>
        <time>2013-04-03T10:16:45Z</time>
      </trkpt>
      <trkpt lat="44.32191" lon="4.03751">
        <ele>426</ele>
        <time>2013-04-03T10:16:47Z</time>
      </trkpt>
      <trkpt lat="44.32192" lon="4.03752">
        <ele>426</ele>
        <time>2013-04-03T10:16:49Z</time>
      </trkpt>
      <trkpt lat="44.32192" lon="4.03754">
        <ele>426</ele>
        <time>2013-04-03T10:16:51Z</time>
      </trkpt>
      <trkpt lat="44.32191" lon="4.03755">
        <ele>426</ele>
        <time>2013-04-03T10:16:53Z</time>
      </trkpt>
      <trkpt lat="44.32191" lon="4.03758">
        <ele>426</ele>
        <time>2013-04-03T10:16:55Z</time>
      </trkpt>
      <trkpt lat="44.3219" lon="4.03761">
        <ele>425</ele>
        <time>2013-04-03T10:16:57Z</time>
      </trkpt>
      <trkpt lat="44.32189" lon="4.03764">
        <ele>425</ele>
        <time>2013-04-03T10:16:59Z</time>
      </trkpt>
      <trkpt lat="44.32188" lon="4.03768">
        <ele>425</ele>
        <time>2013-04-03T10:17:01Z</time>
      </trkpt>
      <trkpt lat="44.32187" lon="4.03767">
        <ele>425</ele>
        <time>2013-04-03T10:17:03Z</time>
      </trkpt>
      <trkpt lat="44.32184" lon="4.03769">
        <ele>424</ele>
        <time>2013-04-03T10:17:05Z</time>
      </trkpt>
      <trkpt lat="44.32183" lon="4.03772">
        <ele>422</ele>
        <time>2013-04-03T10:17:07Z</time>
      </trkpt>
      <trkpt lat="44.32182" lon="4.03775">
        <ele>422</ele>
        <time>2013-04-03T10:17:09Z</time>
      </trkpt>
      <trkpt lat="44.32183" lon="4.03778">
        <ele>422</ele>
        <time>2013-04-03T10:17:11Z</time>
      </trkpt>
      <trkpt lat="44.32182" lon="4.03781">
        <ele>422</ele>
        <time>2013-04-03T10:17:13Z</time>
      </trkpt>
      <trkpt lat="44.3218" lon="4.03783">
        <ele>421</ele>
        <time>2013-04-03T10:17:15Z</time>
      </trkpt>
      <trkpt lat="44.32179" lon="4.03786">
        <ele>420</ele>
        <time>2013-04-03T10:17:17Z</time>
      </trkpt>
      <trkpt lat="44.32178" lon="4.0379">
        <ele>420</ele>
        <time>2013-04-03T10:17:19Z</time>
      </trkpt>
      <trkpt lat="44.32179" lon="4.03794">
        <ele>419</ele>
        <time>2013-04-03T10:17:21Z</time>
      </trkpt>
      <trkpt lat="44.32179" lon="4.03797">
        <ele>418</ele>
        <time>2013-04-03T10:17:23Z</time>
      </trkpt>
      <trkpt lat="44.32179" lon="4.03798">
        <ele>418</ele>
        <time>2013-04-03T10:17:24Z</time>
      </trkpt>
      <trkpt lat="44.3218" lon="4.03801">
        <ele>418</ele>
        <time>2013-04-03T10:17:27Z</time>
      </trkpt>
      <trkpt lat="44.3218" lon="4.03805">
        <ele>418</ele>
        <time>2013-04-03T10:17:29Z</time>
      </trkpt>
      <trkpt lat="44.32178" lon="4.0381">
        <ele>417</ele>
        <time>2013-04-03T10:17:31Z</time>
      </trkpt>
      <trkpt lat="44.32176" lon="4.03814">
        <ele>418</ele>
        <time>2013-04-03T10:17:33Z</time>
      </trkpt>
      <trkpt lat="44.32175" lon="4.03816">
        <ele>417</ele>
        <time>2013-04-03T10:17:35Z</time>
      </trkpt>
      <trkpt lat="44.32175" lon="4.03817">
        <ele>417</ele>
        <time>2013-04-03T10:17:37Z</time>
      </trkpt>
      <trkpt lat="44.32174" lon="4.03819">
        <ele>417</ele>
        <time>2013-04-03T10:17:39Z</time>
      </trkpt>
      <trkpt lat="44.32173" lon="4.03821">
        <ele>416</ele>
        <time>2013-04-03T10:17:41Z</time>
      </trkpt>
      <trkpt lat="44.32172" lon="4.03824">
        <ele>416</ele>
        <time>2013-04-03T10:17:43Z</time>
      </trkpt>
      <trkpt lat="44.3217" lon="4.03826">
        <ele>416</ele>
        <time>2013-04-03T10:17:45Z</time>
      </trkpt>
      <trkpt lat="44.32171" lon="4.03829">
        <ele>416</ele>
        <time>2013-04-03T10:17:47Z</time>
      </trkpt>
      <trkpt lat="44.32171" lon="4.03833">
        <ele>416</ele>
        <time>2013-04-03T10:17:49Z</time>
      </trkpt>
      <trkpt lat="44.32171" lon="4.03834">
        <ele>417</ele>
        <time>2013-04-03T10:17:51Z</time>
      </trkpt>
      <trkpt lat="44.32171" lon="4.03837">
        <ele>417</ele>
        <time>2013-04-03T10:17:53Z</time>
      </trkpt>
      <trkpt lat="44.32171" lon="4.03842">
        <ele>417</ele>
        <time>2013-04-03T10:17:55Z</time>
      </trkpt>
      <trkpt lat="44.32171" lon="4.03846">
        <ele>417</ele>
        <time>2013-04-03T10:17:57Z</time>
      </trkpt>
      <trkpt lat="44.32171" lon="4.0385">
        <ele>417</ele>
        <time>2013-04-03T10:17:59Z</time>
      </trkpt>
      <trkpt lat="44.32171" lon="4.03853">
        <ele>416</ele>
        <time>2013-04-03T10:18:01Z</time>
      </trkpt>
      <trkpt lat="44.32171" lon="4.03857">
        <ele>417</ele>
        <time>2013-04-03T10:18:03Z</time>
      </trkpt>
      <trkpt lat="44.32171" lon="4.0386">
        <ele>417</ele>
        <time>2013-04-03T10:18:05Z</time>
      </trkpt>
      <trkpt lat="44.32171" lon="4.03863">
        <ele>416</ele>
        <time>2013-04-03T10:18:07Z</time>
      </trkpt>
      <trkpt lat="44.32172" lon="4.03867">
        <ele>416</ele>
        <time>2013-04-03T10:18:09Z</time>
      </trkpt>
      <trkpt lat="44.32173" lon="4.0387">
        <ele>416</ele>
        <time>2013-04-03T10:18:11Z</time>
      </trkpt>
      <trkpt lat="44.32171" lon="4.03872">
        <ele>417</ele>
        <time>2013-04-03T10:18:13Z</time>
      </trkpt>
      <trkpt lat="44.32173" lon="4.03874">
        <ele>418</ele>
        <time>2013-04-03T10:18:15Z</time>
      </trkpt>
      <trkpt lat="44.32173" lon="4.03874">
        <ele>418</ele>
        <time>2013-04-03T10:18:17Z</time>
      </trkpt>
      <trkpt lat="44.32173" lon="4.03877">
        <ele>418</ele>
        <time>2013-04-03T10:18:19Z</time>
      </trkpt>
      <trkpt lat="44.32172" lon="4.0388">
        <ele>418</ele>
        <time>2013-04-03T10:18:21Z</time>
      </trkpt>
      <trkpt lat="44.3217" lon="4.03883">
        <ele>417</ele>
        <time>2013-04-03T10:18:23Z</time>
      </trkpt>
      <trkpt lat="44.32167" lon="4.03886">
        <ele>418</ele>
        <time>2013-04-03T10:18:25Z</time>
      </trkpt>
      <trkpt lat="44.32166" lon="4.03888">
        <ele>418</ele>
        <time>2013-04-03T10:18:26Z</time>
      </trkpt>
      <trkpt lat="44.32166" lon="4.03892">
        <ele>419</ele>
        <time>2013-04-03T10:18:29Z</time>
      </trkpt>
      <trkpt lat="44.32166" lon="4.03894">
        <ele>418</ele>
        <time>2013-04-03T10:18:31Z</time>
      </trkpt>
      <trkpt lat="44.32166" lon="4.03894">
        <ele>418</ele>
        <time>2013-04-03T10:18:33Z</time>
      </trkpt>
      <trkpt lat="44.32164" lon="4.03896">
        <ele>418</ele>
        <time>2013-04-03T10:18:35Z</time>
      </trkpt>
      <trkpt lat="44.32163" lon="4.03897">
        <ele>418</ele>
        <time>2013-04-03T10:18:37Z</time>
      </trkpt>
      <trkpt lat="44.32162" lon="4.03899">
        <ele>419</ele>
        <time>2013-04-03T10:18:39Z</time>
      </trkpt>
      <trkpt lat="44.32161" lon="4.03901">
        <ele>418</ele>
        <time>2013-04-03T10:18:41Z</time>
      </trkpt>
      <trkpt lat="44.32161" lon="4.03905">
        <ele>419</ele>
        <time>2013-04-03T10:18:43Z</time>
      </trkpt>
      <trkpt lat="44.32161" lon="4.03909">
        <ele>419</ele>
        <time>2013-04-03T10:18:45Z</time>
      </trkpt>
      <trkpt lat="44.3216" lon="4.03913">
        <ele>417</ele>
        <time>2013-04-03T10:18:47Z</time>
      </trkpt>
      <trkpt lat="44.3216" lon="4.03918">
        <ele>416</ele>
        <time>2013-04-03T10:18:49Z</time>
      </trkpt>
      <trkpt lat="44.32159" lon="4.03923">
        <ele>416</ele>
        <time>2013-04-03T10:18:51Z</time>
      </trkpt>
      <trkpt lat="44.3216" lon="4.03927">
        <ele>415</ele>
        <time>2013-04-03T10:18:53Z</time>
      </trkpt>
      <trkpt lat="44.32159" lon="4.03931">
        <ele>414</ele>
        <time>2013-04-03T10:18:55Z</time>
      </trkpt>
      <trkpt lat="44.32156" lon="4.03935">
        <ele>413</ele>
        <time>2013-04-03T10:18:57Z</time>
      </trkpt>
      <trkpt lat="44.32155" lon="4.03938">
        <ele>413</ele>
        <time>2013-04-03T10:18:59Z</time>
      </trkpt>
      <trkpt lat="44.32155" lon="4.03941">
        <ele>413</ele>
        <time>2013-04-03T10:19:01Z</time>
      </trkpt>
      <trkpt lat="44.32155" lon="4.03943">
        <ele>413</ele>
        <time>2013-04-03T10:19:03Z</time>
      </trkpt>
      <trkpt lat="44.32157" lon="4.03947">
        <ele>415</ele>
        <time>2013-04-03T10:19:05Z</time>
      </trkpt>
      <trkpt lat="44.32157" lon="4.0395">
        <ele>415</ele>
        <time>2013-04-03T10:19:07Z</time>
      </trkpt>
      <trkpt lat="44.32155" lon="4.03953">
        <ele>415</ele>
        <time>2013-04-03T10:19:09Z</time>
      </trkpt>
      <trkpt lat="44.32155" lon="4.03953">
        <ele>415</ele>
        <time>2013-04-03T10:19:11Z</time>
      </trkpt>
      <trkpt lat="44.32155" lon="4.03953">
        <ele>415</ele>
        <time>2013-04-03T10:19:13Z</time>
      </trkpt>
      <trkpt lat="44.32155" lon="4.03953">
        <ele>415</ele>
        <time>2013-04-03T10:19:15Z</time>
      </trkpt>
      <trkpt lat="44.32155" lon="4.03953">
        <ele>415</ele>
        <time>2013-04-03T10:19:17Z</time>
      </trkpt>
      <trkpt lat="44.32155" lon="4.03953">
        <ele>415</ele>
        <time>2013-04-03T10:19:19Z</time>
      </trkpt>
      <trkpt lat="44.32155" lon="4.03953">
        <ele>415</ele>
        <time>2013-04-03T10:19:21Z</time>
      </trkpt>
      <trkpt lat="44.32155" lon="4.03953">
        <ele>415</ele>
        <time>2013-04-03T10:19:23Z</time>
      </trkpt>
      <trkpt lat="44.32155" lon="4.03953">
        <ele>415</ele>
        <time>2013-04-03T10:19:25Z</time>
      </trkpt>
      <trkpt lat="44.32155" lon="4.03953">
        <ele>415</ele>
        <time>2013-04-03T10:19:27Z</time>
      </trkpt>
      <trkpt lat="44.32155" lon="4.03953">
        <ele>415</ele>
        <time>2013-04-03T10:19:28Z</time>
      </trkpt>
      <trkpt lat="44.32155" lon="4.03953">
        <ele>415</ele>
        <time>2013-04-03T10:19:31Z</time>
      </trkpt>
      <trkpt lat="44.32155" lon="4.03953">
        <ele>415</ele>
        <time>2013-04-03T10:19:33Z</time>
      </trkpt>
      <trkpt lat="44.32155" lon="4.03953">
        <ele>415</ele>
        <time>2013-04-03T10:19:35Z</time>
      </trkpt>
      <trkpt lat="44.32155" lon="4.03953">
        <ele>415</ele>
        <time>2013-04-03T10:19:37Z</time>
      </trkpt>
      <trkpt lat="44.32155" lon="4.03953">
        <ele>415</ele>
        <time>2013-04-03T10:19:39Z</time>
      </trkpt>
      <trkpt lat="44.32155" lon="4.03953">
        <ele>415</ele>
        <time>2013-04-03T10:19:41Z</time>
      </trkpt>
      <trkpt lat="44.32155" lon="4.03953">
        <ele>415</ele>
        <time>2013-04-03T10:19:43Z</time>
      </trkpt>
      <trkpt lat="44.32155" lon="4.03953">
        <ele>415</ele>
        <time>2013-04-03T10:19:45Z</time>
      </trkpt>
      <trkpt lat="44.32155" lon="4.03953">
        <ele>415</ele>
        <time>2013-04-03T10:19:47Z</time>
      </trkpt>
      <trkpt lat="44.32155" lon="4.03953">
        <ele>415</ele>
        <time>2013-04-03T10:19:49Z</time>
      </trkpt>
      <trkpt lat="44.32155" lon="4.03953">
        <ele>415</ele>
        <time>2013-04-03T10:19:51Z</time>
      </trkpt>
      <trkpt lat="44.32155" lon="4.03953">
        <ele>415</ele>
        <time>2013-04-03T10:19:53Z</time>
      </trkpt>
      <trkpt lat="44.32155" lon="4.03953">
        <ele>415</ele>
        <time>2013-04-03T10:19:55Z</time>
      </trkpt>
      <trkpt lat="44.32155" lon="4.03953">
        <ele>415</ele>
        <time>2013-04-03T10:19:57Z</time>
      </trkpt>
      <trkpt lat="44.32155" lon="4.03953">
        <ele>415</ele>
        <time>2013-04-03T10:19:59Z</time>
      </trkpt>
      <trkpt lat="44.32155" lon="4.03953">
        <ele>415</ele>
        <time>2013-04-03T10:20:01Z</time>
      </trkpt>
      <trkpt lat="44.32155" lon="4.03953">
        <ele>415</ele>
        <time>2013-04-03T10:20:03Z</time>
      </trkpt>
      <trkpt lat="44.32156" lon="4.03954">
        <ele>414</ele>
        <time>2013-04-03T10:20:05Z</time>
      </trkpt>
      <trkpt lat="44.32155" lon="4.03954">
        <ele>412</ele>
        <time>2013-04-03T10:20:07Z</time>
      </trkpt>
      <trkpt lat="44.32155" lon="4.03954">
        <ele>413</ele>
        <time>2013-04-03T10:20:09Z</time>
      </trkpt>
      <trkpt lat="44.32155" lon="4.03954">
        <ele>413</ele>
        <time>2013-04-03T10:20:11Z</time>
      </trkpt>
      <trkpt lat="44.32155" lon="4.03954">
        <ele>413</ele>
        <time>2013-04-03T10:20:13Z</time>
      </trkpt>
      <trkpt lat="44.32155" lon="4.03954">
        <ele>413</ele>
        <time>2013-04-03T10:20:15Z</time>
      </trkpt>
      <trkpt lat="44.32155" lon="4.03954">
        <ele>413</ele>
        <time>2013-04-03T10:20:17Z</time>
      </trkpt>
      <trkpt lat="44.32155" lon="4.03954">
        <ele>413</ele>
        <time>2013-04-03T10:20:19Z</time>
      </trkpt>
      <trkpt lat="44.32155" lon="4.03954">
        <ele>413</ele>
        <time>2013-04-03T10:20:21Z</time>
      </trkpt>
      <trkpt lat="44.32155" lon="4.03954">
        <ele>413</ele>
        <time>2013-04-03T10:20:23Z</time>
      </trkpt>
      <trkpt lat="44.32155" lon="4.03954">
        <ele>413</ele>
        <time>2013-04-03T10:20:25Z</time>
      </trkpt>
      <trkpt lat="44.32155" lon="4.03956">
        <ele>413</ele>
        <time>2013-04-03T10:20:27Z</time>
      </trkpt>
      <trkpt lat="44.32155" lon="4.03959">
        <ele>414</ele>
        <time>2013-04-03T10:20:29Z</time>
      </trkpt>
      <trkpt lat="44.32154" lon="4.03961">
        <ele>414</ele>
        <time>2013-04-03T10:20:30Z</time>
      </trkpt>
      <trkpt lat="44.32153" lon="4.03966">
        <ele>413</ele>
        <time>2013-04-03T10:20:33Z</time>
      </trkpt>
      <trkpt lat="44.32153" lon="4.03969">
        <ele>413</ele>
        <time>2013-04-03T10:20:35Z</time>
      </trkpt>
      <trkpt lat="44.32151" lon="4.03972">
        <ele>412</ele>
        <time>2013-04-03T10:20:37Z</time>
      </trkpt>
      <trkpt lat="44.32149" lon="4.03976">
        <ele>412</ele>
        <time>2013-04-03T10:20:39Z</time>
      </trkpt>
      <trkpt lat="44.32149" lon="4.03979">
        <ele>412</ele>
        <time>2013-04-03T10:20:41Z</time>
      </trkpt>
      <trkpt lat="44.32148" lon="4.03981">
        <ele>412</ele>
        <time>2013-04-03T10:20:43Z</time>
      </trkpt>
      <trkpt lat="44.32147" lon="4.03984">
        <ele>412</ele>
        <time>2013-04-03T10:20:45Z</time>
      </trkpt>
      <trkpt lat="44.32145" lon="4.03986">
        <ele>413</ele>
        <time>2013-04-03T10:20:47Z</time>
      </trkpt>
      <trkpt lat="44.32144" lon="4.0399">
        <ele>412</ele>
        <time>2013-04-03T10:20:49Z</time>
      </trkpt>
      <trkpt lat="44.32144" lon="4.03993">
        <ele>412</ele>
        <time>2013-04-03T10:20:51Z</time>
      </trkpt>
      <trkpt lat="44.32142" lon="4.03996">
        <ele>412</ele>
        <time>2013-04-03T10:20:53Z</time>
      </trkpt>
      <trkpt lat="44.32141" lon="4.03999">
        <ele>412</ele>
        <time>2013-04-03T10:20:55Z</time>
      </trkpt>
      <trkpt lat="44.32141" lon="4.04002">
        <ele>412</ele>
        <time>2013-04-03T10:20:57Z</time>
      </trkpt>
      <trkpt lat="44.32139" lon="4.04006">
        <ele>412</ele>
        <time>2013-04-03T10:20:59Z</time>
      </trkpt>
      <trkpt lat="44.32139" lon="4.04009">
        <ele>411</ele>
        <time>2013-04-03T10:21:01Z</time>
      </trkpt>
      <trkpt lat="44.32139" lon="4.04012">
        <ele>410</ele>
        <time>2013-04-03T10:21:03Z</time>
      </trkpt>
      <trkpt lat="44.32138" lon="4.04015">
        <ele>411</ele>
        <time>2013-04-03T10:21:05Z</time>
      </trkpt>
      <trkpt lat="44.32138" lon="4.04016">
        <ele>411</ele>
        <time>2013-04-03T10:21:07Z</time>
      </trkpt>
      <trkpt lat="44.32138" lon="4.04017">
        <ele>411</ele>
        <time>2013-04-03T10:21:09Z</time>
      </trkpt>
      <trkpt lat="44.32138" lon="4.04019">
        <ele>411</ele>
        <time>2013-04-03T10:21:11Z</time>
      </trkpt>
      <trkpt lat="44.32137" lon="4.0402">
        <ele>411</ele>
        <time>2013-04-03T10:21:13Z</time>
      </trkpt>
      <trkpt lat="44.32137" lon="4.04022">
        <ele>412</ele>
        <time>2013-04-03T10:21:15Z</time>
      </trkpt>
      <trkpt lat="44.32136" lon="4.04027">
        <ele>412</ele>
        <time>2013-04-03T10:21:17Z</time>
      </trkpt>
      <trkpt lat="44.32134" lon="4.0403">
        <ele>412</ele>
        <time>2013-04-03T10:21:19Z</time>
      </trkpt>
      <trkpt lat="44.32134" lon="4.04033">
        <ele>412</ele>
        <time>2013-04-03T10:21:21Z</time>
      </trkpt>
      <trkpt lat="44.32133" lon="4.04037">
        <ele>411</ele>
        <time>2013-04-03T10:21:23Z</time>
      </trkpt>
      <trkpt lat="44.32132" lon="4.04041">
        <ele>411</ele>
        <time>2013-04-03T10:21:25Z</time>
      </trkpt>
      <trkpt lat="44.32131" lon="4.04044">
        <ele>410</ele>
        <time>2013-04-03T10:21:27Z</time>
      </trkpt>
      <trkpt lat="44.3213" lon="4.04047">
        <ele>410</ele>
        <time>2013-04-03T10:21:29Z</time>
      </trkpt>
      <trkpt lat="44.32129" lon="4.0405">
        <ele>409</ele>
        <time>2013-04-03T10:21:31Z</time>
      </trkpt>
      <trkpt lat="44.32129" lon="4.04052">
        <ele>409</ele>
        <time>2013-04-03T10:21:32Z</time>
      </trkpt>
      <trkpt lat="44.32128" lon="4.04057">
        <ele>408</ele>
        <time>2013-04-03T10:21:35Z</time>
      </trkpt>
      <trkpt lat="44.32128" lon="4.0406">
        <ele>408</ele>
        <time>2013-04-03T10:21:37Z</time>
      </trkpt>
      <trkpt lat="44.32127" lon="4.04062">
        <ele>408</ele>
        <time>2013-04-03T10:21:39Z</time>
      </trkpt>
      <trkpt lat="44.32125" lon="4.04064">
        <ele>408</ele>
        <time>2013-04-03T10:21:41Z</time>
      </trkpt>
      <trkpt lat="44.32125" lon="4.04068">
        <ele>408</ele>
        <time>2013-04-03T10:21:43Z</time>
      </trkpt>
      <trkpt lat="44.32126" lon="4.04072">
        <ele>407</ele>
        <time>2013-04-03T10:21:45Z</time>
      </trkpt>
      <trkpt lat="44.32126" lon="4.04075">
        <ele>408</ele>
        <time>2013-04-03T10:21:47Z</time>
      </trkpt>
      <trkpt lat="44.32126" lon="4.04079">
        <ele>408</ele>
        <time>2013-04-03T10:21:49Z</time>
      </trkpt>
      <trkpt lat="44.32126" lon="4.04081">
        <ele>408</ele>
        <time>2013-04-03T10:21:51Z</time>
      </trkpt>
      <trkpt lat="44.32126" lon="4.04082">
        <ele>407</ele>
        <time>2013-04-03T10:21:53Z</time>
      </trkpt>
      <trkpt lat="44.32124" lon="4.04084">
        <ele>407</ele>
        <time>2013-04-03T10:21:55Z</time>
      </trkpt>
      <trkpt lat="44.32122" lon="4.04087">
        <ele>408</ele>
        <time>2013-04-03T10:21:57Z</time>
      </trkpt>
      <trkpt lat="44.32121" lon="4.04091">
        <ele>409</ele>
        <time>2013-04-03T10:21:59Z</time>
      </trkpt>
      <trkpt lat="44.32119" lon="4.04093">
        <ele>409</ele>
        <time>2013-04-03T10:22:01Z</time>
      </trkpt>
      <trkpt lat="44.32118" lon="4.04095">
        <ele>408</ele>
        <time>2013-04-03T10:22:03Z</time>
      </trkpt>
      <trkpt lat="44.32118" lon="4.04097">
        <ele>407</ele>
        <time>2013-04-03T10:22:05Z</time>
      </trkpt>
      <trkpt lat="44.32116" lon="4.041">
        <ele>407</ele>
        <time>2013-04-03T10:22:07Z</time>
      </trkpt>
      <trkpt lat="44.32115" lon="4.04102">
        <ele>407</ele>
        <time>2013-04-03T10:22:09Z</time>
      </trkpt>
      <trkpt lat="44.32115" lon="4.04103">
        <ele>407</ele>
        <time>2013-04-03T10:22:11Z</time>
      </trkpt>
      <trkpt lat="44.32114" lon="4.04106">
        <ele>407</ele>
        <time>2013-04-03T10:22:13Z</time>
      </trkpt>
      <trkpt lat="44.32114" lon="4.04108">
        <ele>407</ele>
        <time>2013-04-03T10:22:15Z</time>
      </trkpt>
      <trkpt lat="44.32114" lon="4.04109">
        <ele>407</ele>
        <time>2013-04-03T10:22:17Z</time>
      </trkpt>
      <trkpt lat="44.32113" lon="4.04112">
        <ele>406</ele>
        <time>2013-04-03T10:22:19Z</time>
      </trkpt>
      <trkpt lat="44.32115" lon="4.04115">
        <ele>406</ele>
        <time>2013-04-03T10:22:21Z</time>
      </trkpt>
      <trkpt lat="44.32115" lon="4.04117">
        <ele>406</ele>
        <time>2013-04-03T10:22:23Z</time>
      </trkpt>
      <trkpt lat="44.32114" lon="4.04118">
        <ele>406</ele>
        <time>2013-04-03T10:22:25Z</time>
      </trkpt>
      <trkpt lat="44.32114" lon="4.04119">
        <ele>406</ele>
        <time>2013-04-03T10:22:27Z</time>
      </trkpt>
      <trkpt lat="44.32114" lon="4.04121">
        <ele>406</ele>
        <time>2013-04-03T10:22:29Z</time>
      </trkpt>
      <trkpt lat="44.32114" lon="4.04123">
        <ele>406</ele>
        <time>2013-04-03T10:22:31Z</time>
      </trkpt>
      <trkpt lat="44.32113" lon="4.04124">
        <ele>406</ele>
        <time>2013-04-03T10:22:33Z</time>
      </trkpt>
      <trkpt lat="44.32113" lon="4.04124">
        <ele>406</ele>
        <time>2013-04-03T10:22:34Z</time>
      </trkpt>
      <trkpt lat="44.32112" lon="4.04126">
        <ele>406</ele>
        <time>2013-04-03T10:22:37Z</time>
      </trkpt>
      <trkpt lat="44.32112" lon="4.04128">
        <ele>406</ele>
        <time>2013-04-03T10:22:39Z</time>
      </trkpt>
      <trkpt lat="44.3211" lon="4.04131">
        <ele>406</ele>
        <time>2013-04-03T10:22:41Z</time>
      </trkpt>
      <trkpt lat="44.32109" lon="4.04134">
        <ele>405</ele>
        <time>2013-04-03T10:22:43Z</time>
      </trkpt>
      <trkpt lat="44.32109" lon="4.04136">
        <ele>406</ele>
        <time>2013-04-03T10:22:45Z</time>
      </trkpt>
      <trkpt lat="44.32109" lon="4.04139">
        <ele>407</ele>
        <time>2013-04-03T10:22:47Z</time>
      </trkpt>
      <trkpt lat="44.32109" lon="4.04141">
        <ele>406</ele>
        <time>2013-04-03T10:22:49Z</time>
      </trkpt>
      <trkpt lat="44.32109" lon="4.04143">
        <ele>405</ele>
        <time>2013-04-03T10:22:51Z</time>
      </trkpt>
      <trkpt lat="44.32108" lon="4.04146">
        <ele>404</ele>
        <time>2013-04-03T10:22:53Z</time>
      </trkpt>
      <trkpt lat="44.32107" lon="4.04148">
        <ele>404</ele>
        <time>2013-04-03T10:22:55Z</time>
      </trkpt>
      <trkpt lat="44.32107" lon="4.04148">
        <ele>404</ele>
        <time>2013-04-03T10:22:57Z</time>
      </trkpt>
      <trkpt lat="44.32106" lon="4.04149">
        <ele>404</ele>
        <time>2013-04-03T10:22:59Z</time>
      </trkpt>
      <trkpt lat="44.32104" lon="4.04151">
        <ele>404</ele>
        <time>2013-04-03T10:23:01Z</time>
      </trkpt>
      <trkpt lat="44.32103" lon="4.04153">
        <ele>403</ele>
        <time>2013-04-03T10:23:03Z</time>
      </trkpt>
      <trkpt lat="44.32103" lon="4.04154">
        <ele>403</ele>
        <time>2013-04-03T10:23:05Z</time>
      </trkpt>
      <trkpt lat="44.32103" lon="4.04155">
        <ele>403</ele>
        <time>2013-04-03T10:23:07Z</time>
      </trkpt>
      <trkpt lat="44.32102" lon="4.04156">
        <ele>402</ele>
        <time>2013-04-03T10:23:09Z</time>
      </trkpt>
      <trkpt lat="44.32102" lon="4.04158">
        <ele>402</ele>
        <time>2013-04-03T10:23:11Z</time>
      </trkpt>
      <trkpt lat="44.32101" lon="4.04161">
        <ele>401</ele>
        <time>2013-04-03T10:23:13Z</time>
      </trkpt>
      <trkpt lat="44.32101" lon="4.04162">
        <ele>401</ele>
        <time>2013-04-03T10:23:15Z</time>
      </trkpt>
      <trkpt lat="44.32101" lon="4.04163">
        <ele>401</ele>
        <time>2013-04-03T10:23:17Z</time>
      </trkpt>
      <trkpt lat="44.321" lon="4.04163">
        <ele>400</ele>
        <time>2013-04-03T10:23:19Z</time>
      </trkpt>
      <trkpt lat="44.32099" lon="4.04167">
        <ele>399</ele>
        <time>2013-04-03T10:23:21Z</time>
      </trkpt>
      <trkpt lat="44.32096" lon="4.04168">
        <ele>398</ele>
        <time>2013-04-03T10:23:23Z</time>
      </trkpt>
      <trkpt lat="44.32094" lon="4.04169">
        <ele>398</ele>
        <time>2013-04-03T10:23:25Z</time>
      </trkpt>
      <trkpt lat="44.32093" lon="4.04171">
        <ele>397</ele>
        <time>2013-04-03T10:23:27Z</time>
      </trkpt>
      <trkpt lat="44.32092" lon="4.04174">
        <ele>397</ele>
        <time>2013-04-03T10:23:29Z</time>
      </trkpt>
      <trkpt lat="44.32093" lon="4.04177">
        <ele>397</ele>
        <time>2013-04-03T10:23:31Z</time>
      </trkpt>
      <trkpt lat="44.32093" lon="4.04177">
        <ele>397</ele>
        <time>2013-04-03T10:23:33Z</time>
      </trkpt>
      <trkpt lat="44.32093" lon="4.04177">
        <ele>397</ele>
        <time>2013-04-03T10:23:35Z</time>
      </trkpt>
      <trkpt lat="44.32092" lon="4.04178">
        <ele>396</ele>
        <time>2013-04-03T10:23:36Z</time>
      </trkpt>
      <trkpt lat="44.32091" lon="4.04182">
        <ele>395</ele>
        <time>2013-04-03T10:23:39Z</time>
      </trkpt>
      <trkpt lat="44.32092" lon="4.04185">
        <ele>394</ele>
        <time>2013-04-03T10:23:41Z</time>
      </trkpt>
      <trkpt lat="44.32091" lon="4.04187">
        <ele>395</ele>
        <time>2013-04-03T10:23:43Z</time>
      </trkpt>
      <trkpt lat="44.3209" lon="4.04189">
        <ele>394</ele>
        <time>2013-04-03T10:23:45Z</time>
      </trkpt>
      <trkpt lat="44.3209" lon="4.04192">
        <ele>393</ele>
        <time>2013-04-03T10:23:47Z</time>
      </trkpt>
      <trkpt lat="44.32089" lon="4.04194">
        <ele>392</ele>
        <time>2013-04-03T10:23:49Z</time>
      </trkpt>
      <trkpt lat="44.32088" lon="4.04195">
        <ele>392</ele>
        <time>2013-04-03T10:23:51Z</time>
      </trkpt>
      <trkpt lat="44.32088" lon="4.04196">
        <ele>392</ele>
        <time>2013-04-03T10:23:53Z</time>
      </trkpt>
      <trkpt lat="44.32088" lon="4.04197">
        <ele>392</ele>
        <time>2013-04-03T10:23:55Z</time>
      </trkpt>
      <trkpt lat="44.32088" lon="4.04199">
        <ele>392</ele>
        <time>2013-04-03T10:23:57Z</time>
      </trkpt>
      <trkpt lat="44.32088" lon="4.04203">
        <ele>393</ele>
        <time>2013-04-03T10:23:59Z</time>
      </trkpt>
      <trkpt lat="44.32088" lon="4.04206">
        <ele>392</ele>
        <time>2013-04-03T10:24:01Z</time>
      </trkpt>
      <trkpt lat="44.32087" lon="4.04208">
        <ele>392</ele>
        <time>2013-04-03T10:24:03Z</time>
      </trkpt>
      <trkpt lat="44.32088" lon="4.04209">
        <ele>392</ele>
        <time>2013-04-03T10:24:05Z</time>
      </trkpt>
      <trkpt lat="44.32086" lon="4.04213">
        <ele>393</ele>
        <time>2013-04-03T10:24:07Z</time>
      </trkpt>
      <trkpt lat="44.32084" lon="4.04216">
        <ele>392</ele>
        <time>2013-04-03T10:24:09Z</time>
      </trkpt>
      <trkpt lat="44.32084" lon="4.0422">
        <ele>392</ele>
        <time>2013-04-03T10:24:11Z</time>
      </trkpt>
      <trkpt lat="44.32083" lon="4.04223">
        <ele>392</ele>
        <time>2013-04-03T10:24:13Z</time>
      </trkpt>
      <trkpt lat="44.32083" lon="4.04226">
        <ele>393</ele>
        <time>2013-04-03T10:24:15Z</time>
      </trkpt>
      <trkpt lat="44.32083" lon="4.04229">
        <ele>393</ele>
        <time>2013-04-03T10:24:17Z</time>
      </trkpt>
      <trkpt lat="44.32084" lon="4.04233">
        <ele>393</ele>
        <time>2013-04-03T10:24:19Z</time>
      </trkpt>
      <trkpt lat="44.32085" lon="4.04235">
        <ele>393</ele>
        <time>2013-04-03T10:24:21Z</time>
      </trkpt>
      <trkpt lat="44.32085" lon="4.04238">
        <ele>395</ele>
        <time>2013-04-03T10:24:23Z</time>
      </trkpt>
      <trkpt lat="44.32085" lon="4.04242">
        <ele>396</ele>
        <time>2013-04-03T10:24:25Z</time>
      </trkpt>
      <trkpt lat="44.32085" lon="4.04245">
        <ele>396</ele>
        <time>2013-04-03T10:24:27Z</time>
      </trkpt>
      <trkpt lat="44.32084" lon="4.04249">
        <ele>395</ele>
        <time>2013-04-03T10:24:29Z</time>
      </trkpt>
      <trkpt lat="44.32084" lon="4.04251">
        <ele>395</ele>
        <time>2013-04-03T10:24:31Z</time>
      </trkpt>
      <trkpt lat="44.32084" lon="4.04252">
        <ele>395</ele>
        <time>2013-04-03T10:24:33Z</time>
      </trkpt>
      <trkpt lat="44.32084" lon="4.04254">
        <ele>396</ele>
        <time>2013-04-03T10:24:35Z</time>
      </trkpt>
      <trkpt lat="44.32084" lon="4.04254">
        <ele>396</ele>
        <time>2013-04-03T10:24:37Z</time>
      </trkpt>
      <trkpt lat="44.32084" lon="4.04255">
        <ele>396</ele>
        <time>2013-04-03T10:24:38Z</time>
      </trkpt>
      <trkpt lat="44.32084" lon="4.04256">
        <ele>395</ele>
        <time>2013-04-03T10:24:41Z</time>
      </trkpt>
      <trkpt lat="44.32083" lon="4.04259">
        <ele>394</ele>
        <time>2013-04-03T10:24:43Z</time>
      </trkpt>
      <trkpt lat="44.32083" lon="4.04261">
        <ele>394</ele>
        <time>2013-04-03T10:24:45Z</time>
      </trkpt>
      <trkpt lat="44.32083" lon="4.04261">
        <ele>394</ele>
        <time>2013-04-03T10:24:47Z</time>
      </trkpt>
      <trkpt lat="44.32082" lon="4.04264">
        <ele>394</ele>
        <time>2013-04-03T10:24:49Z</time>
      </trkpt>
      <trkpt lat="44.3208" lon="4.04266">
        <ele>394</ele>
        <time>2013-04-03T10:24:51Z</time>
      </trkpt>
      <trkpt lat="44.32079" lon="4.04269">
        <ele>393</ele>
        <time>2013-04-03T10:24:53Z</time>
      </trkpt>
      <trkpt lat="44.32078" lon="4.04273">
        <ele>392</ele>
        <time>2013-04-03T10:24:55Z</time>
      </trkpt>
      <trkpt lat="44.32077" lon="4.04277">
        <ele>393</ele>
        <time>2013-04-03T10:24:57Z</time>
      </trkpt>
      <trkpt lat="44.32076" lon="4.04281">
        <ele>392</ele>
        <time>2013-04-03T10:24:59Z</time>
      </trkpt>
      <trkpt lat="44.32075" lon="4.04284">
        <ele>392</ele>
        <time>2013-04-03T10:25:01Z</time>
      </trkpt>
      <trkpt lat="44.32076" lon="4.04287">
        <ele>393</ele>
        <time>2013-04-03T10:25:03Z</time>
      </trkpt>
      <trkpt lat="44.32074" lon="4.0429">
        <ele>393</ele>
        <time>2013-04-03T10:25:05Z</time>
      </trkpt>
      <trkpt lat="44.32074" lon="4.04291">
        <ele>393</ele>
        <time>2013-04-03T10:25:07Z</time>
      </trkpt>
      <trkpt lat="44.32073" lon="4.04293">
        <ele>393</ele>
        <time>2013-04-03T10:25:09Z</time>
      </trkpt>
      <trkpt lat="44.32073" lon="4.04293">
        <ele>393</ele>
        <time>2013-04-03T10:25:11Z</time>
      </trkpt>
      <trkpt lat="44.32073" lon="4.04293">
        <ele>393</ele>
        <time>2013-04-03T10:25:13Z</time>
      </trkpt>
      <trkpt lat="44.32072" lon="4.04294">
        <ele>393</ele>
        <time>2013-04-03T10:25:15Z</time>
      </trkpt>
      <trkpt lat="44.32072" lon="4.04294">
        <ele>393</ele>
        <time>2013-04-03T10:25:17Z</time>
      </trkpt>
      <trkpt lat="44.32071" lon="4.04295">
        <ele>393</ele>
        <time>2013-04-03T10:25:19Z</time>
      </trkpt>
      <trkpt lat="44.32071" lon="4.04298">
        <ele>392</ele>
        <time>2013-04-03T10:25:21Z</time>
      </trkpt>
      <trkpt lat="44.32069" lon="4.04301">
        <ele>391</ele>
        <time>2013-04-03T10:25:23Z</time>
      </trkpt>
      <trkpt lat="44.32069" lon="4.04305">
        <ele>392</ele>
        <time>2013-04-03T10:25:25Z</time>
      </trkpt>
      <trkpt lat="44.32068" lon="4.04308">
        <ele>392</ele>
        <time>2013-04-03T10:25:27Z</time>
      </trkpt>
      <trkpt lat="44.32068" lon="4.04311">
        <ele>392</ele>
        <time>2013-04-03T10:25:29Z</time>
      </trkpt>
      <trkpt lat="44.32067" lon="4.04314">
        <ele>392</ele>
        <time>2013-04-03T10:25:31Z</time>
      </trkpt>
      <trkpt lat="44.32067" lon="4.04316">
        <ele>392</ele>
        <time>2013-04-03T10:25:33Z</time>
      </trkpt>
      <trkpt lat="44.32064" lon="4.04319">
        <ele>391</ele>
        <time>2013-04-03T10:25:35Z</time>
      </trkpt>
      <trkpt lat="44.32064" lon="4.0432">
        <ele>391</ele>
        <time>2013-04-03T10:25:37Z</time>
      </trkpt>
      <trkpt lat="44.32063" lon="4.04322">
        <ele>390</ele>
        <time>2013-04-03T10:25:39Z</time>
      </trkpt>
      <trkpt lat="44.32062" lon="4.04323">
        <ele>390</ele>
        <time>2013-04-03T10:25:40Z</time>
      </trkpt>
      <trkpt lat="44.3206" lon="4.04327">
        <ele>389</ele>
        <time>2013-04-03T10:25:43Z</time>
      </trkpt>
      <trkpt lat="44.32058" lon="4.0433">
        <ele>388</ele>
        <time>2013-04-03T10:25:45Z</time>
      </trkpt>
      <trkpt lat="44.32056" lon="4.04333">
        <ele>387</ele>
        <time>2013-04-03T10:25:47Z</time>
      </trkpt>
      <trkpt lat="44.32055" lon="4.04337">
        <ele>386</ele>
        <time>2013-04-03T10:25:49Z</time>
      </trkpt>
      <trkpt lat="44.32052" lon="4.04339">
        <ele>385</ele>
        <time>2013-04-03T10:25:51Z</time>
      </trkpt>
      <trkpt lat="44.32052" lon="4.0434">
        <ele>385</ele>
        <time>2013-04-03T10:25:53Z</time>
      </trkpt>
      <trkpt lat="44.32051" lon="4.04343">
        <ele>384</ele>
        <time>2013-04-03T10:25:55Z</time>
      </trkpt>
      <trkpt lat="44.32048" lon="4.04345">
        <ele>382</ele>
        <time>2013-04-03T10:25:57Z</time>
      </trkpt>
      <trkpt lat="44.32046" lon="4.04347">
        <ele>383</ele>
        <time>2013-04-03T10:25:59Z</time>
      </trkpt>
      <trkpt lat="44.32044" lon="4.0435">
        <ele>383</ele>
        <time>2013-04-03T10:26:01Z</time>
      </trkpt>
      <trkpt lat="44.32044" lon="4.04351">
        <ele>383</ele>
        <time>2013-04-03T10:26:03Z</time>
      </trkpt>
      <trkpt lat="44.32042" lon="4.04353">
        <ele>383</ele>
        <time>2013-04-03T10:26:05Z</time>
      </trkpt>
      <trkpt lat="44.3204" lon="4.04355">
        <ele>383</ele>
        <time>2013-04-03T10:26:07Z</time>
      </trkpt>
      <trkpt lat="44.3204" lon="4.04357">
        <ele>382</ele>
        <time>2013-04-03T10:26:09Z</time>
      </trkpt>
      <trkpt lat="44.32039" lon="4.0436">
        <ele>382</ele>
        <time>2013-04-03T10:26:11Z</time>
      </trkpt>
      <trkpt lat="44.32038" lon="4.04363">
        <ele>382</ele>
        <time>2013-04-03T10:26:13Z</time>
      </trkpt>
      <trkpt lat="44.32038" lon="4.04363">
        <ele>382</ele>
        <time>2013-04-03T10:26:15Z</time>
      </trkpt>
      <trkpt lat="44.32037" lon="4.04366">
        <ele>382</ele>
        <time>2013-04-03T10:26:17Z</time>
      </trkpt>
      <trkpt lat="44.32037" lon="4.04368">
        <ele>382</ele>
        <time>2013-04-03T10:26:19Z</time>
      </trkpt>
      <trkpt lat="44.32037" lon="4.04369">
        <ele>382</ele>
        <time>2013-04-03T10:26:21Z</time>
      </trkpt>
      <trkpt lat="44.32036" lon="4.04372">
        <ele>380</ele>
        <time>2013-04-03T10:26:23Z</time>
      </trkpt>
      <trkpt lat="44.32034" lon="4.04375">
        <ele>379</ele>
        <time>2013-04-03T10:26:25Z</time>
      </trkpt>
      <trkpt lat="44.32033" lon="4.04378">
        <ele>377</ele>
        <time>2013-04-03T10:26:27Z</time>
      </trkpt>
      <trkpt lat="44.32032" lon="4.04382">
        <ele>376</ele>
        <time>2013-04-03T10:26:29Z</time>
      </trkpt>
      <trkpt lat="44.32032" lon="4.04382">
        <ele>376</ele>
        <time>2013-04-03T10:26:31Z</time>
      </trkpt>
      <trkpt lat="44.32031" lon="4.04382">
        <ele>376</ele>
        <time>2013-04-03T10:26:33Z</time>
      </trkpt>
      <trkpt lat="44.32032" lon="4.04383">
        <ele>376</ele>
        <time>2013-04-03T10:26:35Z</time>
      </trkpt>
      <trkpt lat="44.3203" lon="4.04385">
        <ele>375</ele>
        <time>2013-04-03T10:26:37Z</time>
      </trkpt>
      <trkpt lat="44.3203" lon="4.04385">
        <ele>375</ele>
        <time>2013-04-03T10:26:39Z</time>
      </trkpt>
      <trkpt lat="44.3203" lon="4.04386">
        <ele>375</ele>
        <time>2013-04-03T10:26:41Z</time>
      </trkpt>
      <trkpt lat="44.32029" lon="4.04386">
        <ele>374</ele>
        <time>2013-04-03T10:26:42Z</time>
      </trkpt>
      <trkpt lat="44.32027" lon="4.04389">
        <ele>373</ele>
        <time>2013-04-03T10:26:45Z</time>
      </trkpt>
      <trkpt lat="44.32027" lon="4.04389">
        <ele>373</ele>
        <time>2013-04-03T10:26:47Z</time>
      </trkpt>
      <trkpt lat="44.32026" lon="4.0439">
        <ele>371</ele>
        <time>2013-04-03T10:26:49Z</time>
      </trkpt>
      <trkpt lat="44.32025" lon="4.0439">
        <ele>370</ele>
        <time>2013-04-03T10:26:51Z</time>
      </trkpt>
      <trkpt lat="44.32024" lon="4.04391">
        <ele>368</ele>
        <time>2013-04-03T10:26:53Z</time>
      </trkpt>
      <trkpt lat="44.32023" lon="4.04392">
        <ele>367</ele>
        <time>2013-04-03T10:26:55Z</time>
      </trkpt>
      <trkpt lat="44.32023" lon="4.04393">
        <ele>366</ele>
        <time>2013-04-03T10:26:57Z</time>
      </trkpt>
      <trkpt lat="44.32023" lon="4.04394">
        <ele>366</ele>
        <time>2013-04-03T10:26:59Z</time>
      </trkpt>
      <trkpt lat="44.32023" lon="4.04394">
        <ele>365</ele>
        <time>2013-04-03T10:27:01Z</time>
      </trkpt>
      <trkpt lat="44.32021" lon="4.04395">
        <ele>364</ele>
        <time>2013-04-03T10:27:03Z</time>
      </trkpt>
      <trkpt lat="44.32021" lon="4.04395">
        <ele>364</ele>
        <time>2013-04-03T10:27:05Z</time>
      </trkpt>
      <trkpt lat="44.32021" lon="4.04395">
        <ele>364</ele>
        <time>2013-04-03T10:27:07Z</time>
      </trkpt>
      <trkpt lat="44.3202" lon="4.04395">
        <ele>364</ele>
        <time>2013-04-03T10:27:09Z</time>
      </trkpt>
      <trkpt lat="44.32019" lon="4.04396">
        <ele>364</ele>
        <time>2013-04-03T10:27:11Z</time>
      </trkpt>
      <trkpt lat="44.32017" lon="4.04396">
        <ele>363</ele>
        <time>2013-04-03T10:27:13Z</time>
      </trkpt>
      <trkpt lat="44.32017" lon="4.04396">
        <ele>363</ele>
        <time>2013-04-03T10:27:15Z</time>
      </trkpt>
      <trkpt lat="44.32017" lon="4.04397">
        <ele>362</ele>
        <time>2013-04-03T10:27:17Z</time>
      </trkpt>
      <trkpt lat="44.32014" lon="4.04398">
        <ele>361</ele>
        <time>2013-04-03T10:27:19Z</time>
      </trkpt>
      <trkpt lat="44.32012" lon="4.04399">
        <ele>360</ele>
        <time>2013-04-03T10:27:21Z</time>
      </trkpt>
      <trkpt lat="44.32012" lon="4.04399">
        <ele>359</ele>
        <time>2013-04-03T10:27:23Z</time>
      </trkpt>
      <trkpt lat="44.3201" lon="4.04401">
        <ele>358</ele>
        <time>2013-04-03T10:27:25Z</time>
      </trkpt>
      <trkpt lat="44.32009" lon="4.04401">
        <ele>357</ele>
        <time>2013-04-03T10:27:27Z</time>
      </trkpt>
      <trkpt lat="44.32007" lon="4.04402">
        <ele>356</ele>
        <time>2013-04-03T10:27:29Z</time>
      </trkpt>
      <trkpt lat="44.32004" lon="4.04405">
        <ele>356</ele>
        <time>2013-04-03T10:27:31Z</time>
      </trkpt>
      <trkpt lat="44.32002" lon="4.04406">
        <ele>355</ele>
        <time>2013-04-03T10:27:33Z</time>
      </trkpt>
      <trkpt lat="44.32002" lon="4.04406">
        <ele>355</ele>
        <time>2013-04-03T10:27:35Z</time>
      </trkpt>
      <trkpt lat="44.32002" lon="4.04406">
        <ele>355</ele>
        <time>2013-04-03T10:27:37Z</time>
      </trkpt>
      <trkpt lat="44.32" lon="4.04407">
        <ele>353</ele>
        <time>2013-04-03T10:27:39Z</time>
      </trkpt>
      <trkpt lat="44.32" lon="4.04407">
        <ele>353</ele>
        <time>2013-04-03T10:27:41Z</time>
      </trkpt>
      <trkpt lat="44.31999" lon="4.04409">
        <ele>354</ele>
        <time>2013-04-03T10:27:43Z</time>
      </trkpt>
      <trkpt lat="44.31998" lon="4.0441">
        <ele>354</ele>
        <time>2013-04-03T10:27:44Z</time>
      </trkpt>
      <trkpt lat="44.31995" lon="4.04412">
        <ele>353</ele>
        <time>2013-04-03T10:27:47Z</time>
      </trkpt>
      <trkpt lat="44.31993" lon="4.04412">
        <ele>353</ele>
        <time>2013-04-03T10:27:49Z</time>
      </trkpt>
      <trkpt lat="44.31992" lon="4.04412">
        <ele>352</ele>
        <time>2013-04-03T10:27:51Z</time>
      </trkpt>
      <trkpt lat="44.3199" lon="4.04413">
        <ele>352</ele>
        <time>2013-04-03T10:27:53Z</time>
      </trkpt>
      <trkpt lat="44.31989" lon="4.04414">
        <ele>352</ele>
        <time>2013-04-03T10:27:55Z</time>
      </trkpt>
      <trkpt lat="44.31989" lon="4.04414">
        <ele>352</ele>
        <time>2013-04-03T10:27:57Z</time>
      </trkpt>
      <trkpt lat="44.31989" lon="4.04414">
        <ele>351</ele>
        <time>2013-04-03T10:27:59Z</time>
      </trkpt>
      <trkpt lat="44.31987" lon="4.04414">
        <ele>351</ele>
        <time>2013-04-03T10:28:01Z</time>
      </trkpt>
      <trkpt lat="44.31987" lon="4.04414">
        <ele>351</ele>
        <time>2013-04-03T10:28:03Z</time>
      </trkpt>
      <trkpt lat="44.31987" lon="4.04414">
        <ele>351</ele>
        <time>2013-04-03T10:28:05Z</time>
      </trkpt>
      <trkpt lat="44.31986" lon="4.04414">
        <ele>351</ele>
        <time>2013-04-03T10:28:07Z</time>
      </trkpt>
      <trkpt lat="44.31985" lon="4.04415">
        <ele>351</ele>
        <time>2013-04-03T10:28:08Z</time>
      </trkpt>
      <trkpt lat="44.31983" lon="4.04415">
        <ele>352</ele>
        <time>2013-04-03T10:28:09Z</time>
      </trkpt>
      <trkpt lat="44.31983" lon="4.04415">
        <ele>352</ele>
        <time>2013-04-03T10:28:11Z</time>
      </trkpt>
      <trkpt lat="44.31981" lon="4.04415">
        <ele>351</ele>
        <time>2013-04-03T10:28:13Z</time>
      </trkpt>
      <trkpt lat="44.31979" lon="4.04414">
        <ele>351</ele>
        <time>2013-04-03T10:28:15Z</time>
      </trkpt>
      <trkpt lat="44.31979" lon="4.04414">
        <ele>351</ele>
        <time>2013-04-03T10:28:16Z</time>
      </trkpt>
      <trkpt lat="44.31977" lon="4.04412">
        <ele>351</ele>
        <time>2013-04-03T10:28:18Z</time>
      </trkpt>
      <trkpt lat="44.31975" lon="4.04411">
        <ele>351</ele>
        <time>2013-04-03T10:28:20Z</time>
      </trkpt>
      <trkpt lat="44.31974" lon="4.0441">
        <ele>351</ele>
        <time>2013-04-03T10:28:22Z</time>
      </trkpt>
      <trkpt lat="44.31973" lon="4.04409">
        <ele>349</ele>
        <time>2013-04-03T10:28:24Z</time>
      </trkpt>
      <trkpt lat="44.31973" lon="4.04409">
        <ele>349</ele>
        <time>2013-04-03T10:28:26Z</time>
      </trkpt>
      <trkpt lat="44.31973" lon="4.04409">
        <ele>350</ele>
        <time>2013-04-03T10:28:28Z</time>
      </trkpt>
      <trkpt lat="44.31972" lon="4.04411">
        <ele>351</ele>
        <time>2013-04-03T10:28:30Z</time>
      </trkpt>
      <trkpt lat="44.31969" lon="4.04412">
        <ele>350</ele>
        <time>2013-04-03T10:28:32Z</time>
      </trkpt>
      <trkpt lat="44.31967" lon="4.04415">
        <ele>350</ele>
        <time>2013-04-03T10:28:34Z</time>
      </trkpt>
      <trkpt lat="44.31966" lon="4.04415">
        <ele>351</ele>
        <time>2013-04-03T10:28:36Z</time>
      </trkpt>
      <trkpt lat="44.31965" lon="4.04416">
        <ele>350</ele>
        <time>2013-04-03T10:28:38Z</time>
      </trkpt>
      <trkpt lat="44.31965" lon="4.04416">
        <ele>350</ele>
        <time>2013-04-03T10:28:40Z</time>
      </trkpt>
      <trkpt lat="44.31963" lon="4.04417">
        <ele>348</ele>
        <time>2013-04-03T10:28:42Z</time>
      </trkpt>
      <trkpt lat="44.31961" lon="4.04419">
        <ele>348</ele>
        <time>2013-04-03T10:28:44Z</time>
      </trkpt>
      <trkpt lat="44.31961" lon="4.0442">
        <ele>348</ele>
        <time>2013-04-03T10:28:45Z</time>
      </trkpt>
      <trkpt lat="44.31959" lon="4.04423">
        <ele>346</ele>
        <time>2013-04-03T10:28:48Z</time>
      </trkpt>
      <trkpt lat="44.31958" lon="4.04425">
        <ele>346</ele>
        <time>2013-04-03T10:28:50Z</time>
      </trkpt>
      <trkpt lat="44.31955" lon="4.04426">
        <ele>344</ele>
        <time>2013-04-03T10:28:52Z</time>
      </trkpt>
      <trkpt lat="44.31953" lon="4.04427">
        <ele>343</ele>
        <time>2013-04-03T10:28:54Z</time>
      </trkpt>
      <trkpt lat="44.3195" lon="4.04427">
        <ele>341</ele>
        <time>2013-04-03T10:28:56Z</time>
      </trkpt>
      <trkpt lat="44.31948" lon="4.04424">
        <ele>340</ele>
        <time>2013-04-03T10:28:58Z</time>
      </trkpt>
      <trkpt lat="44.31947" lon="4.04423">
        <ele>340</ele>
        <time>2013-04-03T10:28:59Z</time>
      </trkpt>
      <trkpt lat="44.31947" lon="4.04421">
        <ele>340</ele>
        <time>2013-04-03T10:29:00Z</time>
      </trkpt>
      <trkpt lat="44.31945" lon="4.04419">
        <ele>338</ele>
        <time>2013-04-03T10:29:02Z</time>
      </trkpt>
      <trkpt lat="44.31945" lon="4.04417">
        <ele>338</ele>
        <time>2013-04-03T10:29:04Z</time>
      </trkpt>
      <trkpt lat="44.31944" lon="4.04415">
        <ele>336</ele>
        <time>2013-04-03T10:29:06Z</time>
      </trkpt>
      <trkpt lat="44.31943" lon="4.04415">
        <ele>336</ele>
        <time>2013-04-03T10:29:08Z</time>
      </trkpt>
      <trkpt lat="44.31944" lon="4.04413">
        <ele>336</ele>
        <time>2013-04-03T10:29:10Z</time>
      </trkpt>
      <trkpt lat="44.31943" lon="4.04411">
        <ele>335</ele>
        <time>2013-04-03T10:29:12Z</time>
      </trkpt>
      <trkpt lat="44.31942" lon="4.04409">
        <ele>335</ele>
        <time>2013-04-03T10:29:14Z</time>
      </trkpt>
      <trkpt lat="44.31942" lon="4.04408">
        <ele>335</ele>
        <time>2013-04-03T10:29:15Z</time>
      </trkpt>
      <trkpt lat="44.31942" lon="4.04407">
        <ele>335</ele>
        <time>2013-04-03T10:29:16Z</time>
      </trkpt>
      <trkpt lat="44.31942" lon="4.04406">
        <ele>334</ele>
        <time>2013-04-03T10:29:18Z</time>
      </trkpt>
      <trkpt lat="44.31942" lon="4.04404">
        <ele>334</ele>
        <time>2013-04-03T10:29:20Z</time>
      </trkpt>
      <trkpt lat="44.31942" lon="4.04402">
        <ele>335</ele>
        <time>2013-04-03T10:29:22Z</time>
      </trkpt>
      <trkpt lat="44.31942" lon="4.044">
        <ele>335</ele>
        <time>2013-04-03T10:29:24Z</time>
      </trkpt>
      <trkpt lat="44.31941" lon="4.04397">
        <ele>335</ele>
        <time>2013-04-03T10:29:26Z</time>
      </trkpt>
      <trkpt lat="44.31941" lon="4.04394">
        <ele>335</ele>
        <time>2013-04-03T10:29:28Z</time>
      </trkpt>
      <trkpt lat="44.31941" lon="4.04391">
        <ele>335</ele>
        <time>2013-04-03T10:29:30Z</time>
      </trkpt>
      <trkpt lat="44.3194" lon="4.04388">
        <ele>336</ele>
        <time>2013-04-03T10:29:32Z</time>
      </trkpt>
      <trkpt lat="44.31939" lon="4.04386">
        <ele>335</ele>
        <time>2013-04-03T10:29:34Z</time>
      </trkpt>
      <trkpt lat="44.31939" lon="4.04385">
        <ele>335</ele>
        <time>2013-04-03T10:29:36Z</time>
      </trkpt>
      <trkpt lat="44.31939" lon="4.04384">
        <ele>335</ele>
        <time>2013-04-03T10:29:38Z</time>
      </trkpt>
      <trkpt lat="44.31939" lon="4.04383">
        <ele>335</ele>
        <time>2013-04-03T10:29:40Z</time>
      </trkpt>
      <trkpt lat="44.31939" lon="4.04383">
        <ele>335</ele>
        <time>2013-04-03T10:29:42Z</time>
      </trkpt>
      <trkpt lat="44.3194" lon="4.04383">
        <ele>335</ele>
        <time>2013-04-03T10:29:44Z</time>
      </trkpt>
      <trkpt lat="44.3194" lon="4.04384">
        <ele>336</ele>
        <time>2013-04-03T10:29:46Z</time>
      </trkpt>
      <trkpt lat="44.3194" lon="4.04384">
        <ele>336</ele>
        <time>2013-04-03T10:29:47Z</time>
      </trkpt>
      <trkpt lat="44.31939" lon="4.04384">
        <ele>335</ele>
        <time>2013-04-03T10:29:50Z</time>
      </trkpt>
      <trkpt lat="44.31939" lon="4.04383">
        <ele>335</ele>
        <time>2013-04-03T10:29:52Z</time>
      </trkpt>
      <trkpt lat="44.31938" lon="4.04384">
        <ele>334</ele>
        <time>2013-04-03T10:29:54Z</time>
      </trkpt>
      <trkpt lat="44.31937" lon="4.04385">
        <ele>334</ele>
        <time>2013-04-03T10:29:56Z</time>
      </trkpt>
      <trkpt lat="44.31936" lon="4.04385">
        <ele>334</ele>
        <time>2013-04-03T10:29:58Z</time>
      </trkpt>
      <trkpt lat="44.31936" lon="4.04385">
        <ele>334</ele>
        <time>2013-04-03T10:29:59Z</time>
      </trkpt>
      <trkpt lat="44.31936" lon="4.04385">
        <ele>334</ele>
        <time>2013-04-03T10:30:00Z</time>
      </trkpt>
      <trkpt lat="44.31936" lon="4.04385">
        <ele>335</ele>
        <time>2013-04-03T10:30:02Z</time>
      </trkpt>
      <trkpt lat="44.31936" lon="4.04385">
        <ele>335</ele>
        <time>2013-04-03T10:30:04Z</time>
      </trkpt>
      <trkpt lat="44.31936" lon="4.04385">
        <ele>335</ele>
        <time>2013-04-03T10:30:06Z</time>
      </trkpt>
      <trkpt lat="44.31935" lon="4.04387">
        <ele>335</ele>
        <time>2013-04-03T10:30:08Z</time>
      </trkpt>
      <trkpt lat="44.31933" lon="4.04388">
        <ele>336</ele>
        <time>2013-04-03T10:30:10Z</time>
      </trkpt>
      <trkpt lat="44.31932" lon="4.04389">
        <ele>335</ele>
        <time>2013-04-03T10:30:12Z</time>
      </trkpt>
      <trkpt lat="44.31932" lon="4.04389">
        <ele>335</ele>
        <time>2013-04-03T10:30:14Z</time>
      </trkpt>
      <trkpt lat="44.31932" lon="4.04389">
        <ele>335</ele>
        <time>2013-04-03T10:30:15Z</time>
      </trkpt>
      <trkpt lat="44.31932" lon="4.04389">
        <ele>335</ele>
        <time>2013-04-03T10:30:16Z</time>
      </trkpt>
      <trkpt lat="44.31931" lon="4.04389">
        <ele>336</ele>
        <time>2013-04-03T10:30:18Z</time>
      </trkpt>
      <trkpt lat="44.31931" lon="4.04389">
        <ele>336</ele>
        <time>2013-04-03T10:30:20Z</time>
      </trkpt>
      <trkpt lat="44.31931" lon="4.04389">
        <ele>336</ele>
        <time>2013-04-03T10:30:22Z</time>
      </trkpt>
      <trkpt lat="44.31931" lon="4.04389">
        <ele>336</ele>
        <time>2013-04-03T10:30:24Z</time>
      </trkpt>
      <trkpt lat="44.31931" lon="4.04389">
        <ele>336</ele>
        <time>2013-04-03T10:30:26Z</time>
      </trkpt>
      <trkpt lat="44.31931" lon="4.04389">
        <ele>336</ele>
        <time>2013-04-03T10:30:28Z</time>
      </trkpt>
      <trkpt lat="44.3193" lon="4.04389">
        <ele>336</ele>
        <time>2013-04-03T10:30:30Z</time>
      </trkpt>
      <trkpt lat="44.3193" lon="4.04389">
        <ele>336</ele>
        <time>2013-04-03T10:30:32Z</time>
      </trkpt>
      <trkpt lat="44.3193" lon="4.04389">
        <ele>336</ele>
        <time>2013-04-03T10:30:34Z</time>
      </trkpt>
      <trkpt lat="44.31929" lon="4.04389">
        <ele>337</ele>
        <time>2013-04-03T10:30:36Z</time>
      </trkpt>
      <trkpt lat="44.31929" lon="4.0439">
        <ele>337</ele>
        <time>2013-04-03T10:30:38Z</time>
      </trkpt>
      <trkpt lat="44.31929" lon="4.04391">
        <ele>337</ele>
        <time>2013-04-03T10:30:40Z</time>
      </trkpt>
      <trkpt lat="44.31928" lon="4.04391">
        <ele>337</ele>
        <time>2013-04-03T10:30:42Z</time>
      </trkpt>
      <trkpt lat="44.31928" lon="4.04391">
        <ele>338</ele>
        <time>2013-04-03T10:30:44Z</time>
      </trkpt>
      <trkpt lat="44.31928" lon="4.04391">
        <ele>338</ele>
        <time>2013-04-03T10:30:46Z</time>
      </trkpt>
      <trkpt lat="44.31928" lon="4.04391">
        <ele>338</ele>
        <time>2013-04-03T10:30:48Z</time>
      </trkpt>
      <trkpt lat="44.31927" lon="4.04391">
        <ele>337</ele>
        <time>2013-04-03T10:30:49Z</time>
      </trkpt>
      <trkpt lat="44.31927" lon="4.04391">
        <ele>337</ele>
        <time>2013-04-03T10:30:52Z</time>
      </trkpt>
      <trkpt lat="44.31927" lon="4.04391">
        <ele>337</ele>
        <time>2013-04-03T10:30:54Z</time>
      </trkpt>
      <trkpt lat="44.31926" lon="4.0439">
        <ele>337</ele>
        <time>2013-04-03T10:30:56Z</time>
      </trkpt>
      <trkpt lat="44.31926" lon="4.04391">
        <ele>337</ele>
        <time>2013-04-03T10:30:58Z</time>
      </trkpt>
      <trkpt lat="44.31926" lon="4.04391">
        <ele>337</ele>
        <time>2013-04-03T10:30:59Z</time>
      </trkpt>
      <trkpt lat="44.31926" lon="4.04391">
        <ele>337</ele>
        <time>2013-04-03T10:31:00Z</time>
      </trkpt>
      <trkpt lat="44.31924" lon="4.04392">
        <ele>336</ele>
        <time>2013-04-03T10:31:02Z</time>
      </trkpt>
      <trkpt lat="44.31923" lon="4.04392">
        <ele>335</ele>
        <time>2013-04-03T10:31:04Z</time>
      </trkpt>
      <trkpt lat="44.31923" lon="4.04392">
        <ele>335</ele>
        <time>2013-04-03T10:31:06Z</time>
      </trkpt>
      <trkpt lat="44.31923" lon="4.04394">
        <ele>335</ele>
        <time>2013-04-03T10:31:08Z</time>
      </trkpt>
      <trkpt lat="44.31922" lon="4.04395">
        <ele>335</ele>
        <time>2013-04-03T10:31:10Z</time>
      </trkpt>
      <trkpt lat="44.31921" lon="4.04395">
        <ele>335</ele>
        <time>2013-04-03T10:31:12Z</time>
      </trkpt>
      <trkpt lat="44.31921" lon="4.04395">
        <ele>335</ele>
        <time>2013-04-03T10:31:14Z</time>
      </trkpt>
      <trkpt lat="44.31921" lon="4.04395">
        <ele>335</ele>
        <time>2013-04-03T10:31:15Z</time>
      </trkpt>
      <trkpt lat="44.31921" lon="4.04395">
        <ele>335</ele>
        <time>2013-04-03T10:31:16Z</time>
      </trkpt>
      <trkpt lat="44.31921" lon="4.04395">
        <ele>335</ele>
        <time>2013-04-03T10:31:18Z</time>
      </trkpt>
      <trkpt lat="44.3192" lon="4.04396">
        <ele>336</ele>
        <time>2013-04-03T10:31:20Z</time>
      </trkpt>
      <trkpt lat="44.31919" lon="4.04397">
        <ele>336</ele>
        <time>2013-04-03T10:31:22Z</time>
      </trkpt>
      <trkpt lat="44.31918" lon="4.04398">
        <ele>336</ele>
        <time>2013-04-03T10:31:24Z</time>
      </trkpt>
      <trkpt lat="44.31918" lon="4.044">
        <ele>336</ele>
        <time>2013-04-03T10:31:26Z</time>
      </trkpt>
      <trkpt lat="44.31918" lon="4.04401">
        <ele>337</ele>
        <time>2013-04-03T10:31:28Z</time>
      </trkpt>
      <trkpt lat="44.31918" lon="4.04402">
        <ele>337</ele>
        <time>2013-04-03T10:31:30Z</time>
      </trkpt>
      <trkpt lat="44.31918" lon="4.04402">
        <ele>336</ele>
        <time>2013-04-03T10:31:32Z</time>
      </trkpt>
      <trkpt lat="44.31918" lon="4.04402">
        <ele>336</ele>
        <time>2013-04-03T10:31:34Z</time>
      </trkpt>
      <trkpt lat="44.31917" lon="4.04402">
        <ele>336</ele>
        <time>2013-04-03T10:31:36Z</time>
      </trkpt>
      <trkpt lat="44.31917" lon="4.04402">
        <ele>336</ele>
        <time>2013-04-03T10:31:38Z</time>
      </trkpt>
      <trkpt lat="44.31917" lon="4.04403">
        <ele>336</ele>
        <time>2013-04-03T10:31:40Z</time>
      </trkpt>
      <trkpt lat="44.31916" lon="4.04403">
        <ele>336</ele>
        <time>2013-04-03T10:31:42Z</time>
      </trkpt>
      <trkpt lat="44.31916" lon="4.04404">
        <ele>336</ele>
        <time>2013-04-03T10:31:44Z</time>
      </trkpt>
      <trkpt lat="44.31915" lon="4.04406">
        <ele>334</ele>
        <time>2013-04-03T10:31:46Z</time>
      </trkpt>
      <trkpt lat="44.31915" lon="4.04408">
        <ele>332</ele>
        <time>2013-04-03T10:31:48Z</time>
      </trkpt>
      <trkpt lat="44.31915" lon="4.04408">
        <ele>331</ele>
        <time>2013-04-03T10:31:50Z</time>
      </trkpt>
      <trkpt lat="44.31915" lon="4.04408">
        <ele>331</ele>
        <time>2013-04-03T10:31:51Z</time>
      </trkpt>
      <trkpt lat="44.31914" lon="4.04409">
        <ele>330</ele>
        <time>2013-04-03T10:31:54Z</time>
      </trkpt>
      <trkpt lat="44.31914" lon="4.0441">
        <ele>330</ele>
        <time>2013-04-03T10:31:56Z</time>
      </trkpt>
      <trkpt lat="44.31913" lon="4.04411">
        <ele>328</ele>
        <time>2013-04-03T10:31:58Z</time>
      </trkpt>
      <trkpt lat="44.31913" lon="4.04411">
        <ele>328</ele>
        <time>2013-04-03T10:31:59Z</time>
      </trkpt>
      <trkpt lat="44.31913" lon="4.04411">
        <ele>328</ele>
        <time>2013-04-03T10:32:00Z</time>
      </trkpt>
      <trkpt lat="44.31913" lon="4.04412">
        <ele>328</ele>
        <time>2013-04-03T10:32:02Z</time>
      </trkpt>
      <trkpt lat="44.31913" lon="4.04413">
        <ele>327</ele>
        <time>2013-04-03T10:32:04Z</time>
      </trkpt>
      <trkpt lat="44.31913" lon="4.04413">
        <ele>327</ele>
        <time>2013-04-03T10:32:06Z</time>
      </trkpt>
      <trkpt lat="44.31912" lon="4.04414">
        <ele>327</ele>
        <time>2013-04-03T10:32:08Z</time>
      </trkpt>
      <trkpt lat="44.31912" lon="4.04415">
        <ele>327</ele>
        <time>2013-04-03T10:32:10Z</time>
      </trkpt>
      <trkpt lat="44.31912" lon="4.04415">
        <ele>326</ele>
        <time>2013-04-03T10:32:12Z</time>
      </trkpt>
      <trkpt lat="44.31912" lon="4.04415">
        <ele>326</ele>
        <time>2013-04-03T10:32:14Z</time>
      </trkpt>
      <trkpt lat="44.31912" lon="4.04415">
        <ele>326</ele>
        <time>2013-04-03T10:32:15Z</time>
      </trkpt>
      <trkpt lat="44.31912" lon="4.04415">
        <ele>326</ele>
        <time>2013-04-03T10:32:16Z</time>
      </trkpt>
      <trkpt lat="44.31911" lon="4.04416">
        <ele>325</ele>
        <time>2013-04-03T10:32:18Z</time>
      </trkpt>
      <trkpt lat="44.3191" lon="4.04418">
        <ele>325</ele>
        <time>2013-04-03T10:32:20Z</time>
      </trkpt>
      <trkpt lat="44.31909" lon="4.0442">
        <ele>325</ele>
        <time>2013-04-03T10:32:22Z</time>
      </trkpt>
      <trkpt lat="44.31909" lon="4.04422">
        <ele>325</ele>
        <time>2013-04-03T10:32:24Z</time>
      </trkpt>
      <trkpt lat="44.31909" lon="4.04422">
        <ele>325</ele>
        <time>2013-04-03T10:32:26Z</time>
      </trkpt>
      <trkpt lat="44.31909" lon="4.04422">
        <ele>325</ele>
        <time>2013-04-03T10:32:28Z</time>
      </trkpt>
      <trkpt lat="44.31909" lon="4.04422">
        <ele>325</ele>
        <time>2013-04-03T10:32:30Z</time>
      </trkpt>
      <trkpt lat="44.31909" lon="4.04422">
        <ele>325</ele>
        <time>2013-04-03T10:32:32Z</time>
      </trkpt>
      <trkpt lat="44.31907" lon="4.04421">
        <ele>322</ele>
        <time>2013-04-03T10:32:34Z</time>
      </trkpt>
      <trkpt lat="44.31905" lon="4.04422">
        <ele>320</ele>
        <time>2013-04-03T10:32:36Z</time>
      </trkpt>
      <trkpt lat="44.31905" lon="4.04422">
        <ele>320</ele>
        <time>2013-04-03T10:32:38Z</time>
      </trkpt>
      <trkpt lat="44.31903" lon="4.04422">
        <ele>318</ele>
        <time>2013-04-03T10:32:40Z</time>
      </trkpt>
      <trkpt lat="44.31902" lon="4.04422">
        <ele>318</ele>
        <time>2013-04-03T10:32:42Z</time>
      </trkpt>
      <trkpt lat="44.31902" lon="4.04422">
        <ele>318</ele>
        <time>2013-04-03T10:32:44Z</time>
      </trkpt>
      <trkpt lat="44.31902" lon="4.04422">
        <ele>318</ele>
        <time>2013-04-03T10:32:46Z</time>
      </trkpt>
      <trkpt lat="44.31901" lon="4.04422">
        <ele>317</ele>
        <time>2013-04-03T10:32:48Z</time>
      </trkpt>
      <trkpt lat="44.31901" lon="4.04422">
        <ele>317</ele>
        <time>2013-04-03T10:32:50Z</time>
      </trkpt>
      <trkpt lat="44.31901" lon="4.04422">
        <ele>317</ele>
        <time>2013-04-03T10:32:52Z</time>
      </trkpt>
      <trkpt lat="44.31901" lon="4.04422">
        <ele>317</ele>
        <time>2013-04-03T10:32:53Z</time>
      </trkpt>
      <trkpt lat="44.319" lon="4.04424">
        <ele>317</ele>
        <time>2013-04-03T10:32:56Z</time>
      </trkpt>
      <trkpt lat="44.31898" lon="4.04426">
        <ele>319</ele>
        <time>2013-04-03T10:32:58Z</time>
      </trkpt>
      <trkpt lat="44.31897" lon="4.04427">
        <ele>319</ele>
        <time>2013-04-03T10:32:59Z</time>
      </trkpt>
      <trkpt lat="44.31896" lon="4.04429">
        <ele>319</ele>
        <time>2013-04-03T10:33:00Z</time>
      </trkpt>
      <trkpt lat="44.31896" lon="4.04433">
        <ele>320</ele>
        <time>2013-04-03T10:33:02Z</time>
      </trkpt>
      <trkpt lat="44.31895" lon="4.04434">
        <ele>320</ele>
        <time>2013-04-03T10:33:04Z</time>
      </trkpt>
      <trkpt lat="44.31895" lon="4.04434">
        <ele>320</ele>
        <time>2013-04-03T10:33:06Z</time>
      </trkpt>
      <trkpt lat="44.31895" lon="4.04435">
        <ele>320</ele>
        <time>2013-04-03T10:33:08Z</time>
      </trkpt>
      <trkpt lat="44.31895" lon="4.04435">
        <ele>320</ele>
        <time>2013-04-03T10:33:10Z</time>
      </trkpt>
      <trkpt lat="44.31895" lon="4.04435">
        <ele>320</ele>
        <time>2013-04-03T10:33:12Z</time>
      </trkpt>
      <trkpt lat="44.31895" lon="4.04435">
        <ele>320</ele>
        <time>2013-04-03T10:33:14Z</time>
      </trkpt>
      <trkpt lat="44.31895" lon="4.04435">
        <ele>320</ele>
        <time>2013-04-03T10:33:15Z</time>
      </trkpt>
      <trkpt lat="44.31895" lon="4.04435">
        <ele>320</ele>
        <time>2013-04-03T10:33:16Z</time>
      </trkpt>
      <trkpt lat="44.31895" lon="4.04435">
        <ele>320</ele>
        <time>2013-04-03T10:33:18Z</time>
      </trkpt>
      <trkpt lat="44.31895" lon="4.04435">
        <ele>320</ele>
        <time>2013-04-03T10:33:20Z</time>
      </trkpt>
      <trkpt lat="44.31894" lon="4.04436">
        <ele>318</ele>
        <time>2013-04-03T10:33:22Z</time>
      </trkpt>
      <trkpt lat="44.31894" lon="4.04437">
        <ele>318</ele>
        <time>2013-04-03T10:33:24Z</time>
      </trkpt>
      <trkpt lat="44.31894" lon="4.04438">
        <ele>318</ele>
        <time>2013-04-03T10:33:26Z</time>
      </trkpt>
      <trkpt lat="44.31894" lon="4.04439">
        <ele>318</ele>
        <time>2013-04-03T10:33:28Z</time>
      </trkpt>
      <trkpt lat="44.31894" lon="4.0444">
        <ele>317</ele>
        <time>2013-04-03T10:33:30Z</time>
      </trkpt>
      <trkpt lat="44.31893" lon="4.04441">
        <ele>316</ele>
        <time>2013-04-03T10:33:32Z</time>
      </trkpt>
      <trkpt lat="44.31891" lon="4.0444">
        <ele>313</ele>
        <time>2013-04-03T10:33:34Z</time>
      </trkpt>
      <trkpt lat="44.31889" lon="4.04439">
        <ele>314</ele>
        <time>2013-04-03T10:33:36Z</time>
      </trkpt>
      <trkpt lat="44.31886" lon="4.04438">
        <ele>313</ele>
        <time>2013-04-03T10:33:38Z</time>
      </trkpt>
      <trkpt lat="44.31884" lon="4.04437">
        <ele>312</ele>
        <time>2013-04-03T10:33:40Z</time>
      </trkpt>
      <trkpt lat="44.31882" lon="4.04436">
        <ele>311</ele>
        <time>2013-04-03T10:33:42Z</time>
      </trkpt>
      <trkpt lat="44.3188" lon="4.04435">
        <ele>310</ele>
        <time>2013-04-03T10:33:44Z</time>
      </trkpt>
      <trkpt lat="44.31879" lon="4.04433">
        <ele>310</ele>
        <time>2013-04-03T10:33:46Z</time>
      </trkpt>
      <trkpt lat="44.31878" lon="4.04431">
        <ele>308</ele>
        <time>2013-04-03T10:33:48Z</time>
      </trkpt>
      <trkpt lat="44.31877" lon="4.0443">
        <ele>308</ele>
        <time>2013-04-03T10:33:50Z</time>
      </trkpt>
      <trkpt lat="44.31877" lon="4.04428">
        <ele>308</ele>
        <time>2013-04-03T10:33:52Z</time>
      </trkpt>
      <trkpt lat="44.31876" lon="4.04426">
        <ele>309</ele>
        <time>2013-04-03T10:33:54Z</time>
      </trkpt>
      <trkpt lat="44.31876" lon="4.04425">
        <ele>309</ele>
        <time>2013-04-03T10:33:55Z</time>
      </trkpt>
      <trkpt lat="44.31875" lon="4.0442">
        <ele>307</ele>
        <time>2013-04-03T10:33:58Z</time>
      </trkpt>
      <trkpt lat="44.31875" lon="4.04419">
        <ele>307</ele>
        <time>2013-04-03T10:33:59Z</time>
      </trkpt>
      <trkpt lat="44.31875" lon="4.04418">
        <ele>307</ele>
        <time>2013-04-03T10:34:00Z</time>
      </trkpt>
      <trkpt lat="44.31874" lon="4.04416">
        <ele>308</ele>
        <time>2013-04-03T10:34:02Z</time>
      </trkpt>
      <trkpt lat="44.31873" lon="4.04414">
        <ele>309</ele>
        <time>2013-04-03T10:34:04Z</time>
      </trkpt>
      <trkpt lat="44.31873" lon="4.04412">
        <ele>309</ele>
        <time>2013-04-03T10:34:06Z</time>
      </trkpt>
      <trkpt lat="44.31873" lon="4.0441">
        <ele>308</ele>
        <time>2013-04-03T10:34:08Z</time>
      </trkpt>
      <trkpt lat="44.31873" lon="4.04409">
        <ele>309</ele>
        <time>2013-04-03T10:34:10Z</time>
      </trkpt>
      <trkpt lat="44.31872" lon="4.04408">
        <ele>310</ele>
        <time>2013-04-03T10:34:12Z</time>
      </trkpt>
      <trkpt lat="44.31871" lon="4.04407">
        <ele>312</ele>
        <time>2013-04-03T10:34:14Z</time>
      </trkpt>
      <trkpt lat="44.31871" lon="4.04406">
        <ele>313</ele>
        <time>2013-04-03T10:34:15Z</time>
      </trkpt>
      <trkpt lat="44.31871" lon="4.04404">
        <ele>313</ele>
        <time>2013-04-03T10:34:16Z</time>
      </trkpt>
      <trkpt lat="44.31871" lon="4.04402">
        <ele>312</ele>
        <time>2013-04-03T10:34:18Z</time>
      </trkpt>
      <trkpt lat="44.31872" lon="4.04399">
        <ele>311</ele>
        <time>2013-04-03T10:34:20Z</time>
      </trkpt>
      <trkpt lat="44.31873" lon="4.04397">
        <ele>312</ele>
        <time>2013-04-03T10:34:22Z</time>
      </trkpt>
      <trkpt lat="44.31873" lon="4.04395">
        <ele>313</ele>
        <time>2013-04-03T10:34:24Z</time>
      </trkpt>
      <trkpt lat="44.31873" lon="4.04394">
        <ele>313</ele>
        <time>2013-04-03T10:34:26Z</time>
      </trkpt>
      <trkpt lat="44.31874" lon="4.04391">
        <ele>313</ele>
        <time>2013-04-03T10:34:28Z</time>
      </trkpt>
      <trkpt lat="44.31874" lon="4.04389">
        <ele>312</ele>
        <time>2013-04-03T10:34:30Z</time>
      </trkpt>
      <trkpt lat="44.31875" lon="4.04387">
        <ele>311</ele>
        <time>2013-04-03T10:34:32Z</time>
      </trkpt>
      <trkpt lat="44.31875" lon="4.04385">
        <ele>311</ele>
        <time>2013-04-03T10:34:34Z</time>
      </trkpt>
      <trkpt lat="44.31876" lon="4.04383">
        <ele>311</ele>
        <time>2013-04-03T10:34:36Z</time>
      </trkpt>
      <trkpt lat="44.31877" lon="4.0438">
        <ele>310</ele>
        <time>2013-04-03T10:34:38Z</time>
      </trkpt>
      <trkpt lat="44.31877" lon="4.04377">
        <ele>310</ele>
        <time>2013-04-03T10:34:40Z</time>
      </trkpt>
      <trkpt lat="44.31877" lon="4.04374">
        <ele>310</ele>
        <time>2013-04-03T10:34:42Z</time>
      </trkpt>
      <trkpt lat="44.31878" lon="4.04371">
        <ele>309</ele>
        <time>2013-04-03T10:34:44Z</time>
      </trkpt>
      <trkpt lat="44.31879" lon="4.04369">
        <ele>308</ele>
        <time>2013-04-03T10:34:46Z</time>
      </trkpt>
      <trkpt lat="44.3188" lon="4.04366">
        <ele>308</ele>
        <time>2013-04-03T10:34:48Z</time>
      </trkpt>
      <trkpt lat="44.31881" lon="4.04363">
        <ele>307</ele>
        <time>2013-04-03T10:34:50Z</time>
      </trkpt>
      <trkpt lat="44.31881" lon="4.04361">
        <ele>307</ele>
        <time>2013-04-03T10:34:52Z</time>
      </trkpt>
      <trkpt lat="44.31883" lon="4.04359">
        <ele>306</ele>
        <time>2013-04-03T10:34:54Z</time>
      </trkpt>
      <trkpt lat="44.31884" lon="4.04357">
        <ele>305</ele>
        <time>2013-04-03T10:34:56Z</time>
      </trkpt>
      <trkpt lat="44.31884" lon="4.04356">
        <ele>305</ele>
        <time>2013-04-03T10:34:57Z</time>
      </trkpt>
      <trkpt lat="44.31885" lon="4.04353">
        <ele>304</ele>
        <time>2013-04-03T10:34:59Z</time>
      </trkpt>
      <trkpt lat="44.31885" lon="4.04353">
        <ele>305</ele>
        <time>2013-04-03T10:35:00Z</time>
      </trkpt>
      <trkpt lat="44.31886" lon="4.0435">
        <ele>305</ele>
        <time>2013-04-03T10:35:02Z</time>
      </trkpt>
      <trkpt lat="44.31886" lon="4.04347">
        <ele>305</ele>
        <time>2013-04-03T10:35:04Z</time>
      </trkpt>
      <trkpt lat="44.31887" lon="4.04345">
        <ele>305</ele>
        <time>2013-04-03T10:35:06Z</time>
      </trkpt>
      <trkpt lat="44.31889" lon="4.04342">
        <ele>304</ele>
        <time>2013-04-03T10:35:08Z</time>
      </trkpt>
      <trkpt lat="44.3189" lon="4.0434">
        <ele>305</ele>
        <time>2013-04-03T10:35:10Z</time>
      </trkpt>
      <trkpt lat="44.31891" lon="4.04337">
        <ele>305</ele>
        <time>2013-04-03T10:35:12Z</time>
      </trkpt>
      <trkpt lat="44.31892" lon="4.04335">
        <ele>305</ele>
        <time>2013-04-03T10:35:14Z</time>
      </trkpt>
      <trkpt lat="44.31893" lon="4.04333">
        <ele>305</ele>
        <time>2013-04-03T10:35:15Z</time>
      </trkpt>
      <trkpt lat="44.31893" lon="4.04331">
        <ele>305</ele>
        <time>2013-04-03T10:35:16Z</time>
      </trkpt>
      <trkpt lat="44.31894" lon="4.04328">
        <ele>304</ele>
        <time>2013-04-03T10:35:18Z</time>
      </trkpt>
      <trkpt lat="44.31895" lon="4.04324">
        <ele>303</ele>
        <time>2013-04-03T10:35:20Z</time>
      </trkpt>
      <trkpt lat="44.31896" lon="4.04321">
        <ele>303</ele>
        <time>2013-04-03T10:35:22Z</time>
      </trkpt>
      <trkpt lat="44.31896" lon="4.04317">
        <ele>304</ele>
        <time>2013-04-03T10:35:24Z</time>
      </trkpt>
      <trkpt lat="44.31897" lon="4.04313">
        <ele>302</ele>
        <time>2013-04-03T10:35:26Z</time>
      </trkpt>
      <trkpt lat="44.31898" lon="4.0431">
        <ele>302</ele>
        <time>2013-04-03T10:35:28Z</time>
      </trkpt>
      <trkpt lat="44.31898" lon="4.04307">
        <ele>304</ele>
        <time>2013-04-03T10:35:30Z</time>
      </trkpt>
      <trkpt lat="44.31899" lon="4.04306">
        <ele>304</ele>
        <time>2013-04-03T10:35:32Z</time>
      </trkpt>
      <trkpt lat="44.319" lon="4.04301">
        <ele>303</ele>
        <time>2013-04-03T10:35:34Z</time>
      </trkpt>
      <trkpt lat="44.31901" lon="4.04297">
        <ele>303</ele>
        <time>2013-04-03T10:35:36Z</time>
      </trkpt>
      <trkpt lat="44.31903" lon="4.04295">
        <ele>303</ele>
        <time>2013-04-03T10:35:38Z</time>
      </trkpt>
      <trkpt lat="44.31904" lon="4.04293">
        <ele>303</ele>
        <time>2013-04-03T10:35:40Z</time>
      </trkpt>
      <trkpt lat="44.31905" lon="4.0429">
        <ele>302</ele>
        <time>2013-04-03T10:35:42Z</time>
      </trkpt>
      <trkpt lat="44.31906" lon="4.04287">
        <ele>302</ele>
        <time>2013-04-03T10:35:44Z</time>
      </trkpt>
      <trkpt lat="44.31908" lon="4.04284">
        <ele>302</ele>
        <time>2013-04-03T10:35:46Z</time>
      </trkpt>
      <trkpt lat="44.31909" lon="4.04281">
        <ele>302</ele>
        <time>2013-04-03T10:35:48Z</time>
      </trkpt>
      <trkpt lat="44.3191" lon="4.04278">
        <ele>302</ele>
        <time>2013-04-03T10:35:50Z</time>
      </trkpt>
      <trkpt lat="44.31911" lon="4.04275">
        <ele>303</ele>
        <time>2013-04-03T10:35:52Z</time>
      </trkpt>
      <trkpt lat="44.31911" lon="4.04271">
        <ele>303</ele>
        <time>2013-04-03T10:35:54Z</time>
      </trkpt>
      <trkpt lat="44.31912" lon="4.04268">
        <ele>303</ele>
        <time>2013-04-03T10:35:56Z</time>
      </trkpt>
      <trkpt lat="44.31913" lon="4.04265">
        <ele>303</ele>
        <time>2013-04-03T10:35:58Z</time>
      </trkpt>
      <trkpt lat="44.31913" lon="4.04263">
        <ele>303</ele>
        <time>2013-04-03T10:35:59Z</time>
      </trkpt>
      <trkpt lat="44.31913" lon="4.04261">
        <ele>303</ele>
        <time>2013-04-03T10:36:00Z</time>
      </trkpt>
      <trkpt lat="44.31914" lon="4.04257">
        <ele>303</ele>
        <time>2013-04-03T10:36:02Z</time>
      </trkpt>
      <trkpt lat="44.31914" lon="4.04253">
        <ele>302</ele>
        <time>2013-04-03T10:36:04Z</time>
      </trkpt>
      <trkpt lat="44.31916" lon="4.04249">
        <ele>302</ele>
        <time>2013-04-03T10:36:06Z</time>
      </trkpt>
      <trkpt lat="44.31916" lon="4.04245">
        <ele>302</ele>
        <time>2013-04-03T10:36:08Z</time>
      </trkpt>
      <trkpt lat="44.31918" lon="4.04241">
        <ele>302</ele>
        <time>2013-04-03T10:36:10Z</time>
      </trkpt>
      <trkpt lat="44.31919" lon="4.04238">
        <ele>303</ele>
        <time>2013-04-03T10:36:12Z</time>
      </trkpt>
      <trkpt lat="44.3192" lon="4.04234">
        <ele>303</ele>
        <time>2013-04-03T10:36:14Z</time>
      </trkpt>
      <trkpt lat="44.3192" lon="4.04232">
        <ele>302</ele>
        <time>2013-04-03T10:36:15Z</time>
      </trkpt>
      <trkpt lat="44.3192" lon="4.04231">
        <ele>302</ele>
        <time>2013-04-03T10:36:16Z</time>
      </trkpt>
      <trkpt lat="44.31921" lon="4.04227">
        <ele>302</ele>
        <time>2013-04-03T10:36:18Z</time>
      </trkpt>
      <trkpt lat="44.31922" lon="4.04224">
        <ele>303</ele>
        <time>2013-04-03T10:36:20Z</time>
      </trkpt>
      <trkpt lat="44.31923" lon="4.0422">
        <ele>303</ele>
        <time>2013-04-03T10:36:22Z</time>
      </trkpt>
      <trkpt lat="44.31924" lon="4.04216">
        <ele>303</ele>
        <time>2013-04-03T10:36:24Z</time>
      </trkpt>
      <trkpt lat="44.31925" lon="4.04213">
        <ele>303</ele>
        <time>2013-04-03T10:36:26Z</time>
      </trkpt>
      <trkpt lat="44.31926" lon="4.04209">
        <ele>303</ele>
        <time>2013-04-03T10:36:28Z</time>
      </trkpt>
      <trkpt lat="44.31926" lon="4.04205">
        <ele>304</ele>
        <time>2013-04-03T10:36:30Z</time>
      </trkpt>
      <trkpt lat="44.31927" lon="4.04202">
        <ele>303</ele>
        <time>2013-04-03T10:36:32Z</time>
      </trkpt>
      <trkpt lat="44.31927" lon="4.04198">
        <ele>303</ele>
        <time>2013-04-03T10:36:34Z</time>
      </trkpt>
      <trkpt lat="44.31927" lon="4.04194">
        <ele>303</ele>
        <time>2013-04-03T10:36:36Z</time>
      </trkpt>
      <trkpt lat="44.31928" lon="4.04191">
        <ele>303</ele>
        <time>2013-04-03T10:36:38Z</time>
      </trkpt>
      <trkpt lat="44.31928" lon="4.04188">
        <ele>303</ele>
        <time>2013-04-03T10:36:40Z</time>
      </trkpt>
      <trkpt lat="44.3193" lon="4.04185">
        <ele>303</ele>
        <time>2013-04-03T10:36:42Z</time>
      </trkpt>
      <trkpt lat="44.31931" lon="4.04181">
        <ele>303</ele>
        <time>2013-04-03T10:36:44Z</time>
      </trkpt>
      <trkpt lat="44.31932" lon="4.04179">
        <ele>303</ele>
        <time>2013-04-03T10:36:46Z</time>
      </trkpt>
      <trkpt lat="44.31932" lon="4.04176">
        <ele>303</ele>
        <time>2013-04-03T10:36:48Z</time>
      </trkpt>
      <trkpt lat="44.31933" lon="4.04173">
        <ele>303</ele>
        <time>2013-04-03T10:36:50Z</time>
      </trkpt>
      <trkpt lat="44.31935" lon="4.0417">
        <ele>302</ele>
        <time>2013-04-03T10:36:52Z</time>
      </trkpt>
      <trkpt lat="44.31936" lon="4.04167">
        <ele>303</ele>
        <time>2013-04-03T10:36:54Z</time>
      </trkpt>
      <trkpt lat="44.31936" lon="4.04163">
        <ele>303</ele>
        <time>2013-04-03T10:36:56Z</time>
      </trkpt>
      <trkpt lat="44.31937" lon="4.0416">
        <ele>303</ele>
        <time>2013-04-03T10:36:58Z</time>
      </trkpt>
      <trkpt lat="44.31938" lon="4.04158">
        <ele>303</ele>
        <time>2013-04-03T10:36:59Z</time>
      </trkpt>
      <trkpt lat="44.31938" lon="4.04157">
        <ele>303</ele>
        <time>2013-04-03T10:37:00Z</time>
      </trkpt>
      <trkpt lat="44.31939" lon="4.04154">
        <ele>303</ele>
        <time>2013-04-03T10:37:02Z</time>
      </trkpt>
      <trkpt lat="44.31939" lon="4.04151">
        <ele>303</ele>
        <time>2013-04-03T10:37:04Z</time>
      </trkpt>
      <trkpt lat="44.31939" lon="4.04148">
        <ele>303</ele>
        <time>2013-04-03T10:37:06Z</time>
      </trkpt>
      <trkpt lat="44.3194" lon="4.04145">
        <ele>302</ele>
        <time>2013-04-03T10:37:08Z</time>
      </trkpt>
      <trkpt lat="44.31941" lon="4.04142">
        <ele>302</ele>
        <time>2013-04-03T10:37:10Z</time>
      </trkpt>
      <trkpt lat="44.31942" lon="4.04139">
        <ele>301</ele>
        <time>2013-04-03T10:37:12Z</time>
      </trkpt>
      <trkpt lat="44.31942" lon="4.04135">
        <ele>302</ele>
        <time>2013-04-03T10:37:14Z</time>
      </trkpt>
      <trkpt lat="44.31943" lon="4.04134">
        <ele>302</ele>
        <time>2013-04-03T10:37:15Z</time>
      </trkpt>
      <trkpt lat="44.31943" lon="4.04132">
        <ele>301</ele>
        <time>2013-04-03T10:37:16Z</time>
      </trkpt>
      <trkpt lat="44.31943" lon="4.04128">
        <ele>301</ele>
        <time>2013-04-03T10:37:18Z</time>
      </trkpt>
      <trkpt lat="44.31943" lon="4.04125">
        <ele>301</ele>
        <time>2013-04-03T10:37:20Z</time>
      </trkpt>
      <trkpt lat="44.31942" lon="4.04121">
        <ele>302</ele>
        <time>2013-04-03T10:37:22Z</time>
      </trkpt>
      <trkpt lat="44.31942" lon="4.04117">
        <ele>302</ele>
        <time>2013-04-03T10:37:24Z</time>
      </trkpt>
      <trkpt lat="44.31942" lon="4.04114">
        <ele>302</ele>
        <time>2013-04-03T10:37:26Z</time>
      </trkpt>
      <trkpt lat="44.31943" lon="4.0411">
        <ele>300</ele>
        <time>2013-04-03T10:37:28Z</time>
      </trkpt>
      <trkpt lat="44.31943" lon="4.04107">
        <ele>301</ele>
        <time>2013-04-03T10:37:30Z</time>
      </trkpt>
      <trkpt lat="44.31944" lon="4.04104">
        <ele>301</ele>
        <time>2013-04-03T10:37:32Z</time>
      </trkpt>
      <trkpt lat="44.31945" lon="4.04101">
        <ele>300</ele>
        <time>2013-04-03T10:37:34Z</time>
      </trkpt>
      <trkpt lat="44.31945" lon="4.04098">
        <ele>300</ele>
        <time>2013-04-03T10:37:36Z</time>
      </trkpt>
      <trkpt lat="44.31944" lon="4.04096">
        <ele>301</ele>
        <time>2013-04-03T10:37:38Z</time>
      </trkpt>
      <trkpt lat="44.31944" lon="4.04092">
        <ele>300</ele>
        <time>2013-04-03T10:37:40Z</time>
      </trkpt>
      <trkpt lat="44.31944" lon="4.0409">
        <ele>300</ele>
        <time>2013-04-03T10:37:42Z</time>
      </trkpt>
      <trkpt lat="44.31945" lon="4.04087">
        <ele>300</ele>
        <time>2013-04-03T10:37:44Z</time>
      </trkpt>
      <trkpt lat="44.31944" lon="4.04084">
        <ele>300</ele>
        <time>2013-04-03T10:37:46Z</time>
      </trkpt>
      <trkpt lat="44.31943" lon="4.04081">
        <ele>301</ele>
        <time>2013-04-03T10:37:48Z</time>
      </trkpt>
      <trkpt lat="44.31943" lon="4.04078">
        <ele>301</ele>
        <time>2013-04-03T10:37:50Z</time>
      </trkpt>
      <trkpt lat="44.31942" lon="4.04075">
        <ele>301</ele>
        <time>2013-04-03T10:37:52Z</time>
      </trkpt>
      <trkpt lat="44.31941" lon="4.04071">
        <ele>300</ele>
        <time>2013-04-03T10:37:54Z</time>
      </trkpt>
      <trkpt lat="44.31941" lon="4.04069">
        <ele>301</ele>
        <time>2013-04-03T10:37:56Z</time>
      </trkpt>
      <trkpt lat="44.31939" lon="4.04067">
        <ele>301</ele>
        <time>2013-04-03T10:37:58Z</time>
      </trkpt>
      <trkpt lat="44.31939" lon="4.04065">
        <ele>301</ele>
        <time>2013-04-03T10:37:59Z</time>
      </trkpt>
      <trkpt lat="44.31939" lon="4.04064">
        <ele>301</ele>
        <time>2013-04-03T10:38:00Z</time>
      </trkpt>
      <trkpt lat="44.31939" lon="4.04062">
        <ele>301</ele>
        <time>2013-04-03T10:38:01Z</time>
      </trkpt>
      <trkpt lat="44.31937" lon="4.04057">
        <ele>302</ele>
        <time>2013-04-03T10:38:04Z</time>
      </trkpt>
      <trkpt lat="44.31936" lon="4.04053">
        <ele>302</ele>
        <time>2013-04-03T10:38:06Z</time>
      </trkpt>
      <trkpt lat="44.31936" lon="4.0405">
        <ele>302</ele>
        <time>2013-04-03T10:38:08Z</time>
      </trkpt>
      <trkpt lat="44.31935" lon="4.04046">
        <ele>302</ele>
        <time>2013-04-03T10:38:10Z</time>
      </trkpt>
      <trkpt lat="44.31933" lon="4.04043">
        <ele>302</ele>
        <time>2013-04-03T10:38:12Z</time>
      </trkpt>
      <trkpt lat="44.31932" lon="4.0404">
        <ele>302</ele>
        <time>2013-04-03T10:38:14Z</time>
      </trkpt>
      <trkpt lat="44.31932" lon="4.04038">
        <ele>303</ele>
        <time>2013-04-03T10:38:15Z</time>
      </trkpt>
      <trkpt lat="44.31931" lon="4.04036">
        <ele>303</ele>
        <time>2013-04-03T10:38:16Z</time>
      </trkpt>
      <trkpt lat="44.31931" lon="4.04033">
        <ele>304</ele>
        <time>2013-04-03T10:38:18Z</time>
      </trkpt>
      <trkpt lat="44.31931" lon="4.0403">
        <ele>304</ele>
        <time>2013-04-03T10:38:20Z</time>
      </trkpt>
      <trkpt lat="44.31931" lon="4.04027">
        <ele>305</ele>
        <time>2013-04-03T10:38:22Z</time>
      </trkpt>
      <trkpt lat="44.3193" lon="4.04024">
        <ele>306</ele>
        <time>2013-04-03T10:38:24Z</time>
      </trkpt>
      <trkpt lat="44.31931" lon="4.04021">
        <ele>306</ele>
        <time>2013-04-03T10:38:26Z</time>
      </trkpt>
      <trkpt lat="44.31932" lon="4.04017">
        <ele>305</ele>
        <time>2013-04-03T10:38:28Z</time>
      </trkpt>
      <trkpt lat="44.31932" lon="4.04014">
        <ele>305</ele>
        <time>2013-04-03T10:38:30Z</time>
      </trkpt>
      <trkpt lat="44.31933" lon="4.0401">
        <ele>304</ele>
        <time>2013-04-03T10:38:32Z</time>
      </trkpt>
      <trkpt lat="44.31934" lon="4.04007">
        <ele>304</ele>
        <time>2013-04-03T10:38:34Z</time>
      </trkpt>
      <trkpt lat="44.31935" lon="4.04004">
        <ele>303</ele>
        <time>2013-04-03T10:38:36Z</time>
      </trkpt>
      <trkpt lat="44.31936" lon="4.04002">
        <ele>302</ele>
        <time>2013-04-03T10:38:38Z</time>
      </trkpt>
      <trkpt lat="44.31938" lon="4.03998">
        <ele>302</ele>
        <time>2013-04-03T10:38:40Z</time>
      </trkpt>
      <trkpt lat="44.31939" lon="4.03994">
        <ele>301</ele>
        <time>2013-04-03T10:38:42Z</time>
      </trkpt>
      <trkpt lat="44.3194" lon="4.03991">
        <ele>301</ele>
        <time>2013-04-03T10:38:44Z</time>
      </trkpt>
      <trkpt lat="44.31942" lon="4.03988">
        <ele>301</ele>
        <time>2013-04-03T10:38:46Z</time>
      </trkpt>
      <trkpt lat="44.31943" lon="4.03984">
        <ele>300</ele>
        <time>2013-04-03T10:38:48Z</time>
      </trkpt>
      <trkpt lat="44.31944" lon="4.03981">
        <ele>300</ele>
        <time>2013-04-03T10:38:50Z</time>
      </trkpt>
      <trkpt lat="44.31946" lon="4.03979">
        <ele>300</ele>
        <time>2013-04-03T10:38:52Z</time>
      </trkpt>
      <trkpt lat="44.31947" lon="4.03977">
        <ele>301</ele>
        <time>2013-04-03T10:38:54Z</time>
      </trkpt>
      <trkpt lat="44.31948" lon="4.03974">
        <ele>301</ele>
        <time>2013-04-03T10:38:56Z</time>
      </trkpt>
      <trkpt lat="44.3195" lon="4.03972">
        <ele>301</ele>
        <time>2013-04-03T10:38:58Z</time>
      </trkpt>
      <trkpt lat="44.31951" lon="4.03971">
        <ele>301</ele>
        <time>2013-04-03T10:38:59Z</time>
      </trkpt>
      <trkpt lat="44.31951" lon="4.0397">
        <ele>301</ele>
        <time>2013-04-03T10:39:00Z</time>
      </trkpt>
      <trkpt lat="44.31952" lon="4.03966">
        <ele>301</ele>
        <time>2013-04-03T10:39:02Z</time>
      </trkpt>
      <trkpt lat="44.31953" lon="4.03965">
        <ele>302</ele>
        <time>2013-04-03T10:39:03Z</time>
      </trkpt>
      <trkpt lat="44.31955" lon="4.03963">
        <ele>303</ele>
        <time>2013-04-03T10:39:06Z</time>
      </trkpt>
      <trkpt lat="44.31956" lon="4.03959">
        <ele>303</ele>
        <time>2013-04-03T10:39:08Z</time>
      </trkpt>
      <trkpt lat="44.31957" lon="4.03956">
        <ele>303</ele>
        <time>2013-04-03T10:39:10Z</time>
      </trkpt>
      <trkpt lat="44.31959" lon="4.03952">
        <ele>303</ele>
        <time>2013-04-03T10:39:12Z</time>
      </trkpt>
      <trkpt lat="44.3196" lon="4.0395">
        <ele>304</ele>
        <time>2013-04-03T10:39:14Z</time>
      </trkpt>
      <trkpt lat="44.31961" lon="4.03948">
        <ele>304</ele>
        <time>2013-04-03T10:39:15Z</time>
      </trkpt>
      <trkpt lat="44.31962" lon="4.03947">
        <ele>304</ele>
        <time>2013-04-03T10:39:16Z</time>
      </trkpt>
      <trkpt lat="44.31963" lon="4.03944">
        <ele>304</ele>
        <time>2013-04-03T10:39:18Z</time>
      </trkpt>
      <trkpt lat="44.31964" lon="4.03943">
        <ele>305</ele>
        <time>2013-04-03T10:39:20Z</time>
      </trkpt>
      <trkpt lat="44.31964" lon="4.03942">
        <ele>306</ele>
        <time>2013-04-03T10:39:22Z</time>
      </trkpt>
      <trkpt lat="44.31966" lon="4.03941">
        <ele>306</ele>
        <time>2013-04-03T10:39:24Z</time>
      </trkpt>
      <trkpt lat="44.31966" lon="4.03941">
        <ele>306</ele>
        <time>2013-04-03T10:39:26Z</time>
      </trkpt>
      <trkpt lat="44.31966" lon="4.03941">
        <ele>306</ele>
        <time>2013-04-03T10:39:28Z</time>
      </trkpt>
      <trkpt lat="44.31966" lon="4.0394">
        <ele>306</ele>
        <time>2013-04-03T10:39:30Z</time>
      </trkpt>
      <trkpt lat="44.31966" lon="4.0394">
        <ele>306</ele>
        <time>2013-04-03T10:39:32Z</time>
      </trkpt>
      <trkpt lat="44.31966" lon="4.0394">
        <ele>306</ele>
        <time>2013-04-03T10:39:34Z</time>
      </trkpt>
      <trkpt lat="44.31966" lon="4.03939">
        <ele>307</ele>
        <time>2013-04-03T10:39:36Z</time>
      </trkpt>
      <trkpt lat="44.31967" lon="4.03938">
        <ele>306</ele>
        <time>2013-04-03T10:39:38Z</time>
      </trkpt>
      <trkpt lat="44.31968" lon="4.03936">
        <ele>307</ele>
        <time>2013-04-03T10:39:40Z</time>
      </trkpt>
      <trkpt lat="44.3197" lon="4.03933">
        <ele>307</ele>
        <time>2013-04-03T10:39:42Z</time>
      </trkpt>
      <trkpt lat="44.31971" lon="4.0393">
        <ele>306</ele>
        <time>2013-04-03T10:39:44Z</time>
      </trkpt>
      <trkpt lat="44.31972" lon="4.03927">
        <ele>307</ele>
        <time>2013-04-03T10:39:46Z</time>
      </trkpt>
      <trkpt lat="44.31973" lon="4.03925">
        <ele>307</ele>
        <time>2013-04-03T10:39:48Z</time>
      </trkpt>
      <trkpt lat="44.31973" lon="4.03923">
        <ele>307</ele>
        <time>2013-04-03T10:39:50Z</time>
      </trkpt>
      <trkpt lat="44.31975" lon="4.03921">
        <ele>307</ele>
        <time>2013-04-03T10:39:52Z</time>
      </trkpt>
      <trkpt lat="44.31976" lon="4.03918">
        <ele>307</ele>
        <time>2013-04-03T10:39:54Z</time>
      </trkpt>
      <trkpt lat="44.31978" lon="4.03915">
        <ele>306</ele>
        <time>2013-04-03T10:39:56Z</time>
      </trkpt>
      <trkpt lat="44.31979" lon="4.03911">
        <ele>306</ele>
        <time>2013-04-03T10:39:58Z</time>
      </trkpt>
      <trkpt lat="44.3198" lon="4.0391">
        <ele>307</ele>
        <time>2013-04-03T10:39:59Z</time>
      </trkpt>
      <trkpt lat="44.3198" lon="4.03909">
        <ele>307</ele>
        <time>2013-04-03T10:40:00Z</time>
      </trkpt>
      <trkpt lat="44.31982" lon="4.03905">
        <ele>306</ele>
        <time>2013-04-03T10:40:02Z</time>
      </trkpt>
      <trkpt lat="44.31984" lon="4.03902">
        <ele>306</ele>
        <time>2013-04-03T10:40:04Z</time>
      </trkpt>
      <trkpt lat="44.31985" lon="4.03901">
        <ele>306</ele>
        <time>2013-04-03T10:40:05Z</time>
      </trkpt>
      <trkpt lat="44.31986" lon="4.03895">
        <ele>304</ele>
        <time>2013-04-03T10:40:08Z</time>
      </trkpt>
      <trkpt lat="44.31987" lon="4.03892">
        <ele>304</ele>
        <time>2013-04-03T10:40:10Z</time>
      </trkpt>
      <trkpt lat="44.31988" lon="4.03887">
        <ele>303</ele>
        <time>2013-04-03T10:40:12Z</time>
      </trkpt>
      <trkpt lat="44.31989" lon="4.03884">
        <ele>302</ele>
        <time>2013-04-03T10:40:14Z</time>
      </trkpt>
      <trkpt lat="44.3199" lon="4.03882">
        <ele>302</ele>
        <time>2013-04-03T10:40:15Z</time>
      </trkpt>
      <trkpt lat="44.31991" lon="4.0388">
        <ele>302</ele>
        <time>2013-04-03T10:40:16Z</time>
      </trkpt>
      <trkpt lat="44.31992" lon="4.03876">
        <ele>302</ele>
        <time>2013-04-03T10:40:18Z</time>
      </trkpt>
      <trkpt lat="44.31993" lon="4.03873">
        <ele>301</ele>
        <time>2013-04-03T10:40:20Z</time>
      </trkpt>
      <trkpt lat="44.31995" lon="4.0387">
        <ele>300</ele>
        <time>2013-04-03T10:40:22Z</time>
      </trkpt>
      <trkpt lat="44.31996" lon="4.03867">
        <ele>300</ele>
        <time>2013-04-03T10:40:24Z</time>
      </trkpt>
      <trkpt lat="44.31997" lon="4.03864">
        <ele>299</ele>
        <time>2013-04-03T10:40:26Z</time>
      </trkpt>
      <trkpt lat="44.31998" lon="4.03861">
        <ele>299</ele>
        <time>2013-04-03T10:40:28Z</time>
      </trkpt>
      <trkpt lat="44.31999" lon="4.03858">
        <ele>299</ele>
        <time>2013-04-03T10:40:30Z</time>
      </trkpt>
      <trkpt lat="44.32" lon="4.03855">
        <ele>298</ele>
        <time>2013-04-03T10:40:32Z</time>
      </trkpt>
      <trkpt lat="44.32" lon="4.03851">
        <ele>299</ele>
        <time>2013-04-03T10:40:34Z</time>
      </trkpt>
      <trkpt lat="44.32001" lon="4.03848">
        <ele>299</ele>
        <time>2013-04-03T10:40:36Z</time>
      </trkpt>
      <trkpt lat="44.32002" lon="4.03845">
        <ele>299</ele>
        <time>2013-04-03T10:40:38Z</time>
      </trkpt>
      <trkpt lat="44.32002" lon="4.03841">
        <ele>298</ele>
        <time>2013-04-03T10:40:40Z</time>
      </trkpt>
      <trkpt lat="44.32002" lon="4.03838">
        <ele>299</ele>
        <time>2013-04-03T10:40:42Z</time>
      </trkpt>
      <trkpt lat="44.32003" lon="4.03834">
        <ele>299</ele>
        <time>2013-04-03T10:40:44Z</time>
      </trkpt>
      <trkpt lat="44.32003" lon="4.0383">
        <ele>299</ele>
        <time>2013-04-03T10:40:46Z</time>
      </trkpt>
      <trkpt lat="44.32003" lon="4.03827">
        <ele>299</ele>
        <time>2013-04-03T10:40:48Z</time>
      </trkpt>
      <trkpt lat="44.32004" lon="4.03823">
        <ele>299</ele>
        <time>2013-04-03T10:40:50Z</time>
      </trkpt>
      <trkpt lat="44.32004" lon="4.0382">
        <ele>299</ele>
        <time>2013-04-03T10:40:52Z</time>
      </trkpt>
      <trkpt lat="44.32004" lon="4.03816">
        <ele>299</ele>
        <time>2013-04-03T10:40:54Z</time>
      </trkpt>
      <trkpt lat="44.32004" lon="4.03812">
        <ele>298</ele>
        <time>2013-04-03T10:40:56Z</time>
      </trkpt>
      <trkpt lat="44.32004" lon="4.03809">
        <ele>299</ele>
        <time>2013-04-03T10:40:58Z</time>
      </trkpt>
      <trkpt lat="44.32004" lon="4.03808">
        <ele>299</ele>
        <time>2013-04-03T10:40:59Z</time>
      </trkpt>
      <trkpt lat="44.32003" lon="4.03806">
        <ele>299</ele>
        <time>2013-04-03T10:41:00Z</time>
      </trkpt>
      <trkpt lat="44.32003" lon="4.03803">
        <ele>298</ele>
        <time>2013-04-03T10:41:02Z</time>
      </trkpt>
      <trkpt lat="44.32003" lon="4.038">
        <ele>298</ele>
        <time>2013-04-03T10:41:04Z</time>
      </trkpt>
      <trkpt lat="44.32003" lon="4.03797">
        <ele>298</ele>
        <time>2013-04-03T10:41:06Z</time>
      </trkpt>
      <trkpt lat="44.32003" lon="4.03795">
        <ele>298</ele>
        <time>2013-04-03T10:41:07Z</time>
      </trkpt>
      <trkpt lat="44.32004" lon="4.03791">
        <ele>297</ele>
        <time>2013-04-03T10:41:10Z</time>
      </trkpt>
      <trkpt lat="44.32003" lon="4.03788">
        <ele>298</ele>
        <time>2013-04-03T10:41:12Z</time>
      </trkpt>
      <trkpt lat="44.32002" lon="4.03786">
        <ele>298</ele>
        <time>2013-04-03T10:41:14Z</time>
      </trkpt>
      <trkpt lat="44.32001" lon="4.03785">
        <ele>298</ele>
        <time>2013-04-03T10:41:15Z</time>
      </trkpt>
      <trkpt lat="44.32001" lon="4.03785">
        <ele>298</ele>
        <time>2013-04-03T10:41:16Z</time>
      </trkpt>
      <trkpt lat="44.31999" lon="4.03782">
        <ele>299</ele>
        <time>2013-04-03T10:41:18Z</time>
      </trkpt>
      <trkpt lat="44.31997" lon="4.0378">
        <ele>299</ele>
        <time>2013-04-03T10:41:20Z</time>
      </trkpt>
      <trkpt lat="44.31996" lon="4.03777">
        <ele>299</ele>
        <time>2013-04-03T10:41:22Z</time>
      </trkpt>
      <trkpt lat="44.31995" lon="4.03774">
        <ele>299</ele>
        <time>2013-04-03T10:41:24Z</time>
      </trkpt>
      <trkpt lat="44.31993" lon="4.03772">
        <ele>298</ele>
        <time>2013-04-03T10:41:26Z</time>
      </trkpt>
      <trkpt lat="44.31991" lon="4.03772">
        <ele>299</ele>
        <time>2013-04-03T10:41:28Z</time>
      </trkpt>
      <trkpt lat="44.31989" lon="4.0377">
        <ele>299</ele>
        <time>2013-04-03T10:41:30Z</time>
      </trkpt>
      <trkpt lat="44.31987" lon="4.03766">
        <ele>298</ele>
        <time>2013-04-03T10:41:32Z</time>
      </trkpt>
      <trkpt lat="44.31985" lon="4.03765">
        <ele>300</ele>
        <time>2013-04-03T10:41:34Z</time>
      </trkpt>
      <trkpt lat="44.31985" lon="4.03765">
        <ele>300</ele>
        <time>2013-04-03T10:41:36Z</time>
      </trkpt>
      <trkpt lat="44.31985" lon="4.03765">
        <ele>299</ele>
        <time>2013-04-03T10:41:38Z</time>
      </trkpt>
      <trkpt lat="44.31983" lon="4.03765">
        <ele>299</ele>
        <time>2013-04-03T10:41:40Z</time>
      </trkpt>
      <trkpt lat="44.31981" lon="4.03764">
        <ele>298</ele>
        <time>2013-04-03T10:41:42Z</time>
      </trkpt>
      <trkpt lat="44.31982" lon="4.03763">
        <ele>297</ele>
        <time>2013-04-03T10:41:44Z</time>
      </trkpt>
      <trkpt lat="44.31981" lon="4.03763">
        <ele>296</ele>
        <time>2013-04-03T10:41:46Z</time>
      </trkpt>
      <trkpt lat="44.31978" lon="4.03763">
        <ele>296</ele>
        <time>2013-04-03T10:41:48Z</time>
      </trkpt>
      <trkpt lat="44.31976" lon="4.03763">
        <ele>294</ele>
        <time>2013-04-03T10:41:50Z</time>
      </trkpt>
      <trkpt lat="44.31974" lon="4.03763">
        <ele>294</ele>
        <time>2013-04-03T10:41:52Z</time>
      </trkpt>
      <trkpt lat="44.31972" lon="4.03764">
        <ele>294</ele>
        <time>2013-04-03T10:41:54Z</time>
      </trkpt>
      <trkpt lat="44.31969" lon="4.03765">
        <ele>295</ele>
        <time>2013-04-03T10:41:56Z</time>
      </trkpt>
      <trkpt lat="44.31967" lon="4.03765">
        <ele>294</ele>
        <time>2013-04-03T10:41:58Z</time>
      </trkpt>
      <trkpt lat="44.31966" lon="4.03765">
        <ele>293</ele>
        <time>2013-04-03T10:41:59Z</time>
      </trkpt>
      <trkpt lat="44.31964" lon="4.03765">
        <ele>293</ele>
        <time>2013-04-03T10:42:00Z</time>
      </trkpt>
      <trkpt lat="44.31961" lon="4.03766">
        <ele>294</ele>
        <time>2013-04-03T10:42:02Z</time>
      </trkpt>
      <trkpt lat="44.31959" lon="4.03767">
        <ele>293</ele>
        <time>2013-04-03T10:42:04Z</time>
      </trkpt>
      <trkpt lat="44.31956" lon="4.03767">
        <ele>291</ele>
        <time>2013-04-03T10:42:06Z</time>
      </trkpt>
      <trkpt lat="44.31955" lon="4.03767">
        <ele>291</ele>
        <time>2013-04-03T10:42:08Z</time>
      </trkpt>
      <trkpt lat="44.31953" lon="4.03768">
        <ele>291</ele>
        <time>2013-04-03T10:42:09Z</time>
      </trkpt>
      <trkpt lat="44.3195" lon="4.03767">
        <ele>291</ele>
        <time>2013-04-03T10:42:12Z</time>
      </trkpt>
      <trkpt lat="44.3195" lon="4.03767">
        <ele>290</ele>
        <time>2013-04-03T10:42:14Z</time>
      </trkpt>
      <trkpt lat="44.31949" lon="4.03768">
        <ele>290</ele>
        <time>2013-04-03T10:42:15Z</time>
      </trkpt>
      <trkpt lat="44.31948" lon="4.03768">
        <ele>290</ele>
        <time>2013-04-03T10:42:16Z</time>
      </trkpt>
      <trkpt lat="44.31945" lon="4.03768">
        <ele>290</ele>
        <time>2013-04-03T10:42:18Z</time>
      </trkpt>
      <trkpt lat="44.31943" lon="4.03768">
        <ele>290</ele>
        <time>2013-04-03T10:42:20Z</time>
      </trkpt>
      <trkpt lat="44.31941" lon="4.03769">
        <ele>290</ele>
        <time>2013-04-03T10:42:22Z</time>
      </trkpt>
      <trkpt lat="44.31938" lon="4.03769">
        <ele>290</ele>
        <time>2013-04-03T10:42:24Z</time>
      </trkpt>
      <trkpt lat="44.31935" lon="4.03768">
        <ele>290</ele>
        <time>2013-04-03T10:42:26Z</time>
      </trkpt>
      <trkpt lat="44.31932" lon="4.03767">
        <ele>290</ele>
        <time>2013-04-03T10:42:28Z</time>
      </trkpt>
      <trkpt lat="44.31929" lon="4.03768">
        <ele>289</ele>
        <time>2013-04-03T10:42:30Z</time>
      </trkpt>
      <trkpt lat="44.31926" lon="4.03768">
        <ele>288</ele>
        <time>2013-04-03T10:42:32Z</time>
      </trkpt>
      <trkpt lat="44.31924" lon="4.03767">
        <ele>288</ele>
        <time>2013-04-03T10:42:34Z</time>
      </trkpt>
      <trkpt lat="44.31924" lon="4.03767">
        <ele>288</ele>
        <time>2013-04-03T10:42:36Z</time>
      </trkpt>
      <trkpt lat="44.31923" lon="4.03769">
        <ele>288</ele>
        <time>2013-04-03T10:42:38Z</time>
      </trkpt>
      <trkpt lat="44.31921" lon="4.0377">
        <ele>288</ele>
        <time>2013-04-03T10:42:40Z</time>
      </trkpt>
      <trkpt lat="44.31919" lon="4.0377">
        <ele>289</ele>
        <time>2013-04-03T10:42:42Z</time>
      </trkpt>
      <trkpt lat="44.31916" lon="4.03772">
        <ele>288</ele>
        <time>2013-04-03T10:42:44Z</time>
      </trkpt>
      <trkpt lat="44.31914" lon="4.03772">
        <ele>288</ele>
        <time>2013-04-03T10:42:46Z</time>
      </trkpt>
      <trkpt lat="44.31911" lon="4.03773">
        <ele>287</ele>
        <time>2013-04-03T10:42:48Z</time>
      </trkpt>
      <trkpt lat="44.31908" lon="4.03775">
        <ele>287</ele>
        <time>2013-04-03T10:42:50Z</time>
      </trkpt>
      <trkpt lat="44.31906" lon="4.03776">
        <ele>287</ele>
        <time>2013-04-03T10:42:52Z</time>
      </trkpt>
      <trkpt lat="44.31904" lon="4.03778">
        <ele>288</ele>
        <time>2013-04-03T10:42:54Z</time>
      </trkpt>
      <trkpt lat="44.31902" lon="4.03779">
        <ele>287</ele>
        <time>2013-04-03T10:42:56Z</time>
      </trkpt>
      <trkpt lat="44.319" lon="4.0378">
        <ele>287</ele>
        <time>2013-04-03T10:42:58Z</time>
      </trkpt>
      <trkpt lat="44.319" lon="4.0378">
        <ele>287</ele>
        <time>2013-04-03T10:42:59Z</time>
      </trkpt>
      <trkpt lat="44.31899" lon="4.0378">
        <ele>287</ele>
        <time>2013-04-03T10:43:00Z</time>
      </trkpt>
      <trkpt lat="44.31896" lon="4.03781">
        <ele>287</ele>
        <time>2013-04-03T10:43:02Z</time>
      </trkpt>
      <trkpt lat="44.31894" lon="4.03782">
        <ele>286</ele>
        <time>2013-04-03T10:43:04Z</time>
      </trkpt>
      <trkpt lat="44.31893" lon="4.03783">
        <ele>286</ele>
        <time>2013-04-03T10:43:06Z</time>
      </trkpt>
      <trkpt lat="44.31891" lon="4.03785">
        <ele>286</ele>
        <time>2013-04-03T10:43:08Z</time>
      </trkpt>
      <trkpt lat="44.3189" lon="4.03786">
        <ele>286</ele>
        <time>2013-04-03T10:43:10Z</time>
      </trkpt>
      <trkpt lat="44.31889" lon="4.03786">
        <ele>286</ele>
        <time>2013-04-03T10:43:11Z</time>
      </trkpt>
      <trkpt lat="44.31886" lon="4.03787">
        <ele>286</ele>
        <time>2013-04-03T10:43:14Z</time>
      </trkpt>
      <trkpt lat="44.31885" lon="4.03788">
        <ele>286</ele>
        <time>2013-04-03T10:43:15Z</time>
      </trkpt>
      <trkpt lat="44.31884" lon="4.03788">
        <ele>286</ele>
        <time>2013-04-03T10:43:16Z</time>
      </trkpt>
      <trkpt lat="44.31881" lon="4.03789">
        <ele>285</ele>
        <time>2013-04-03T10:43:18Z</time>
      </trkpt>
      <trkpt lat="44.31879" lon="4.03789">
        <ele>284</ele>
        <time>2013-04-03T10:43:20Z</time>
      </trkpt>
      <trkpt lat="44.31878" lon="4.03789">
        <ele>284</ele>
        <time>2013-04-03T10:43:22Z</time>
      </trkpt>
      <trkpt lat="44.31876" lon="4.0379">
        <ele>285</ele>
        <time>2013-04-03T10:43:24Z</time>
      </trkpt>
      <trkpt lat="44.31872" lon="4.03791">
        <ele>286</ele>
        <time>2013-04-03T10:43:26Z</time>
      </trkpt>
      <trkpt lat="44.3187" lon="4.03792">
        <ele>286</ele>
        <time>2013-04-03T10:43:28Z</time>
      </trkpt>
      <trkpt lat="44.31867" lon="4.03793">
        <ele>287</ele>
        <time>2013-04-03T10:43:30Z</time>
      </trkpt>
      <trkpt lat="44.31865" lon="4.03794">
        <ele>287</ele>
        <time>2013-04-03T10:43:32Z</time>
      </trkpt>
      <trkpt lat="44.31862" lon="4.03795">
        <ele>287</ele>
        <time>2013-04-03T10:43:34Z</time>
      </trkpt>
      <trkpt lat="44.31861" lon="4.03795">
        <ele>287</ele>
        <time>2013-04-03T10:43:36Z</time>
      </trkpt>
      <trkpt lat="44.3186" lon="4.03796">
        <ele>287</ele>
        <time>2013-04-03T10:43:38Z</time>
      </trkpt>
      <trkpt lat="44.31857" lon="4.03797">
        <ele>288</ele>
        <time>2013-04-03T10:43:40Z</time>
      </trkpt>
      <trkpt lat="44.31855" lon="4.03798">
        <ele>288</ele>
        <time>2013-04-03T10:43:42Z</time>
      </trkpt>
      <trkpt lat="44.31853" lon="4.03799">
        <ele>288</ele>
        <time>2013-04-03T10:43:44Z</time>
      </trkpt>
      <trkpt lat="44.31851" lon="4.03799">
        <ele>288</ele>
        <time>2013-04-03T10:43:46Z</time>
      </trkpt>
      <trkpt lat="44.31848" lon="4.038">
        <ele>287</ele>
        <time>2013-04-03T10:43:48Z</time>
      </trkpt>
      <trkpt lat="44.31846" lon="4.03801">
        <ele>287</ele>
        <time>2013-04-03T10:43:50Z</time>
      </trkpt>
      <trkpt lat="44.31843" lon="4.03802">
        <ele>288</ele>
        <time>2013-04-03T10:43:52Z</time>
      </trkpt>
      <trkpt lat="44.31841" lon="4.03804">
        <ele>288</ele>
        <time>2013-04-03T10:43:54Z</time>
      </trkpt>
      <trkpt lat="44.3184" lon="4.03804">
        <ele>288</ele>
        <time>2013-04-03T10:43:56Z</time>
      </trkpt>
      <trkpt lat="44.31838" lon="4.03805">
        <ele>288</ele>
        <time>2013-04-03T10:43:58Z</time>
      </trkpt>
      <trkpt lat="44.31837" lon="4.03806">
        <ele>288</ele>
        <time>2013-04-03T10:43:59Z</time>
      </trkpt>
      <trkpt lat="44.31836" lon="4.03806">
        <ele>288</ele>
        <time>2013-04-03T10:44:00Z</time>
      </trkpt>
      <trkpt lat="44.31834" lon="4.03807">
        <ele>287</ele>
        <time>2013-04-03T10:44:02Z</time>
      </trkpt>
      <trkpt lat="44.31832" lon="4.03808">
        <ele>287</ele>
        <time>2013-04-03T10:44:04Z</time>
      </trkpt>
      <trkpt lat="44.31831" lon="4.03808">
        <ele>286</ele>
        <time>2013-04-03T10:44:06Z</time>
      </trkpt>
      <trkpt lat="44.31829" lon="4.03808">
        <ele>286</ele>
        <time>2013-04-03T10:44:08Z</time>
      </trkpt>
      <trkpt lat="44.31828" lon="4.03808">
        <ele>286</ele>
        <time>2013-04-03T10:44:10Z</time>
      </trkpt>
      <trkpt lat="44.31827" lon="4.03808">
        <ele>286</ele>
        <time>2013-04-03T10:44:12Z</time>
      </trkpt>
      <trkpt lat="44.31827" lon="4.03809">
        <ele>287</ele>
        <time>2013-04-03T10:44:13Z</time>
      </trkpt>
      <trkpt lat="44.31825" lon="4.0381">
        <ele>288</ele>
        <time>2013-04-03T10:44:15Z</time>
      </trkpt>
      <trkpt lat="44.31824" lon="4.03811">
        <ele>288</ele>
        <time>2013-04-03T10:44:16Z</time>
      </trkpt>
      <trkpt lat="44.31821" lon="4.03812">
        <ele>288</ele>
        <time>2013-04-03T10:44:18Z</time>
      </trkpt>
      <trkpt lat="44.31819" lon="4.03814">
        <ele>288</ele>
        <time>2013-04-03T10:44:20Z</time>
      </trkpt>
      <trkpt lat="44.31818" lon="4.03814">
        <ele>288</ele>
        <time>2013-04-03T10:44:22Z</time>
      </trkpt>
      <trkpt lat="44.31816" lon="4.03816">
        <ele>288</ele>
        <time>2013-04-03T10:44:24Z</time>
      </trkpt>
      <trkpt lat="44.31813" lon="4.03817">
        <ele>288</ele>
        <time>2013-04-03T10:44:26Z</time>
      </trkpt>
      <trkpt lat="44.31811" lon="4.03818">
        <ele>288</ele>
        <time>2013-04-03T10:44:28Z</time>
      </trkpt>
      <trkpt lat="44.31809" lon="4.03821">
        <ele>289</ele>
        <time>2013-04-03T10:44:30Z</time>
      </trkpt>
      <trkpt lat="44.31807" lon="4.03823">
        <ele>288</ele>
        <time>2013-04-03T10:44:32Z</time>
      </trkpt>
      <trkpt lat="44.31804" lon="4.03825">
        <ele>288</ele>
        <time>2013-04-03T10:44:34Z</time>
      </trkpt>
      <trkpt lat="44.31803" lon="4.03825">
        <ele>288</ele>
        <time>2013-04-03T10:44:36Z</time>
      </trkpt>
      <trkpt lat="44.31803" lon="4.03826">
        <ele>289</ele>
        <time>2013-04-03T10:44:38Z</time>
      </trkpt>
      <trkpt lat="44.31801" lon="4.03828">
        <ele>289</ele>
        <time>2013-04-03T10:44:40Z</time>
      </trkpt>
      <trkpt lat="44.31799" lon="4.0383">
        <ele>289</ele>
        <time>2013-04-03T10:44:42Z</time>
      </trkpt>
      <trkpt lat="44.31797" lon="4.03833">
        <ele>289</ele>
        <time>2013-04-03T10:44:44Z</time>
      </trkpt>
      <trkpt lat="44.31794" lon="4.03835">
        <ele>289</ele>
        <time>2013-04-03T10:44:46Z</time>
      </trkpt>
      <trkpt lat="44.31791" lon="4.03838">
        <ele>290</ele>
        <time>2013-04-03T10:44:48Z</time>
      </trkpt>
      <trkpt lat="44.31789" lon="4.03841">
        <ele>290</ele>
        <time>2013-04-03T10:44:50Z</time>
      </trkpt>
      <trkpt lat="44.31787" lon="4.03843">
        <ele>290</ele>
        <time>2013-04-03T10:44:52Z</time>
      </trkpt>
      <trkpt lat="44.31786" lon="4.03846">
        <ele>291</ele>
        <time>2013-04-03T10:44:54Z</time>
      </trkpt>
      <trkpt lat="44.31784" lon="4.03849">
        <ele>291</ele>
        <time>2013-04-03T10:44:56Z</time>
      </trkpt>
      <trkpt lat="44.31783" lon="4.03852">
        <ele>291</ele>
        <time>2013-04-03T10:44:58Z</time>
      </trkpt>
      <trkpt lat="44.31782" lon="4.03853">
        <ele>291</ele>
        <time>2013-04-03T10:44:59Z</time>
      </trkpt>
      <trkpt lat="44.31782" lon="4.03854">
        <ele>291</ele>
        <time>2013-04-03T10:45:00Z</time>
      </trkpt>
      <trkpt lat="44.31781" lon="4.03857">
        <ele>291</ele>
        <time>2013-04-03T10:45:02Z</time>
      </trkpt>
      <trkpt lat="44.3178" lon="4.0386">
        <ele>292</ele>
        <time>2013-04-03T10:45:04Z</time>
      </trkpt>
      <trkpt lat="44.3178" lon="4.03863">
        <ele>292</ele>
        <time>2013-04-03T10:45:06Z</time>
      </trkpt>
      <trkpt lat="44.31779" lon="4.03865">
        <ele>291</ele>
        <time>2013-04-03T10:45:08Z</time>
      </trkpt>
      <trkpt lat="44.31779" lon="4.03867">
        <ele>292</ele>
        <time>2013-04-03T10:45:10Z</time>
      </trkpt>
      <trkpt lat="44.31778" lon="4.0387">
        <ele>293</ele>
        <time>2013-04-03T10:45:12Z</time>
      </trkpt>
      <trkpt lat="44.31778" lon="4.03872">
        <ele>293</ele>
        <time>2013-04-03T10:45:14Z</time>
      </trkpt>
      <trkpt lat="44.31778" lon="4.03874">
        <ele>294</ele>
        <time>2013-04-03T10:45:15Z</time>
      </trkpt>
      <trkpt lat="44.31778" lon="4.03875">
        <ele>293</ele>
        <time>2013-04-03T10:45:16Z</time>
      </trkpt>
      <trkpt lat="44.31777" lon="4.03878">
        <ele>294</ele>
        <time>2013-04-03T10:45:18Z</time>
      </trkpt>
      <trkpt lat="44.31776" lon="4.03881">
        <ele>293</ele>
        <time>2013-04-03T10:45:20Z</time>
      </trkpt>
      <trkpt lat="44.31776" lon="4.03884">
        <ele>294</ele>
        <time>2013-04-03T10:45:22Z</time>
      </trkpt>
      <trkpt lat="44.31776" lon="4.03888">
        <ele>295</ele>
        <time>2013-04-03T10:45:24Z</time>
      </trkpt>
      <trkpt lat="44.31775" lon="4.03891">
        <ele>295</ele>
        <time>2013-04-03T10:45:26Z</time>
      </trkpt>
      <trkpt lat="44.31775" lon="4.03893">
        <ele>295</ele>
        <time>2013-04-03T10:45:28Z</time>
      </trkpt>
      <trkpt lat="44.31775" lon="4.03897">
        <ele>296</ele>
        <time>2013-04-03T10:45:30Z</time>
      </trkpt>
      <trkpt lat="44.31775" lon="4.03899">
        <ele>296</ele>
        <time>2013-04-03T10:45:32Z</time>
      </trkpt>
      <trkpt lat="44.31774" lon="4.03901">
        <ele>295</ele>
        <time>2013-04-03T10:45:34Z</time>
      </trkpt>
      <trkpt lat="44.31774" lon="4.03904">
        <ele>295</ele>
        <time>2013-04-03T10:45:36Z</time>
      </trkpt>
      <trkpt lat="44.31773" lon="4.03907">
        <ele>296</ele>
        <time>2013-04-03T10:45:38Z</time>
      </trkpt>
      <trkpt lat="44.31773" lon="4.03909">
        <ele>296</ele>
        <time>2013-04-03T10:45:40Z</time>
      </trkpt>
      <trkpt lat="44.31772" lon="4.03911">
        <ele>296</ele>
        <time>2013-04-03T10:45:42Z</time>
      </trkpt>
      <trkpt lat="44.31772" lon="4.03914">
        <ele>296</ele>
        <time>2013-04-03T10:45:44Z</time>
      </trkpt>
      <trkpt lat="44.31772" lon="4.03916">
        <ele>297</ele>
        <time>2013-04-03T10:45:46Z</time>
      </trkpt>
      <trkpt lat="44.31771" lon="4.03919">
        <ele>298</ele>
        <time>2013-04-03T10:45:48Z</time>
      </trkpt>
      <trkpt lat="44.31772" lon="4.03922">
        <ele>298</ele>
        <time>2013-04-03T10:45:50Z</time>
      </trkpt>
      <trkpt lat="44.31772" lon="4.03925">
        <ele>298</ele>
        <time>2013-04-03T10:45:52Z</time>
      </trkpt>
      <trkpt lat="44.31771" lon="4.03928">
        <ele>299</ele>
        <time>2013-04-03T10:45:54Z</time>
      </trkpt>
      <trkpt lat="44.31771" lon="4.03929">
        <ele>299</ele>
        <time>2013-04-03T10:45:56Z</time>
      </trkpt>
      <trkpt lat="44.31771" lon="4.03929">
        <ele>299</ele>
        <time>2013-04-03T10:45:58Z</time>
      </trkpt>
      <trkpt lat="44.31771" lon="4.03929">
        <ele>299</ele>
        <time>2013-04-03T10:45:59Z</time>
      </trkpt>
      <trkpt lat="44.31771" lon="4.03929">
        <ele>299</ele>
        <time>2013-04-03T10:46:00Z</time>
      </trkpt>
      <trkpt lat="44.31771" lon="4.03929">
        <ele>299</ele>
        <time>2013-04-03T10:46:02Z</time>
      </trkpt>
      <trkpt lat="44.31771" lon="4.03929">
        <ele>299</ele>
        <time>2013-04-03T10:46:04Z</time>
      </trkpt>
      <trkpt lat="44.31771" lon="4.03929">
        <ele>299</ele>
        <time>2013-04-03T10:46:06Z</time>
      </trkpt>
      <trkpt lat="44.3177" lon="4.0393">
        <ele>299</ele>
        <time>2013-04-03T10:46:08Z</time>
      </trkpt>
      <trkpt lat="44.31769" lon="4.03932">
        <ele>300</ele>
        <time>2013-04-03T10:46:10Z</time>
      </trkpt>
      <trkpt lat="44.31768" lon="4.03936">
        <ele>301</ele>
        <time>2013-04-03T10:46:12Z</time>
      </trkpt>
      <trkpt lat="44.31767" lon="4.03939">
        <ele>301</ele>
        <time>2013-04-03T10:46:14Z</time>
      </trkpt>
      <trkpt lat="44.31766" lon="4.0394">
        <ele>301</ele>
        <time>2013-04-03T10:46:15Z</time>
      </trkpt>
      <trkpt lat="44.31765" lon="4.03942">
        <ele>300</ele>
        <time>2013-04-03T10:46:16Z</time>
      </trkpt>
      <trkpt lat="44.31764" lon="4.03946">
        <ele>301</ele>
        <time>2013-04-03T10:46:18Z</time>
      </trkpt>
      <trkpt lat="44.31763" lon="4.03949">
        <ele>300</ele>
        <time>2013-04-03T10:46:20Z</time>
      </trkpt>
      <trkpt lat="44.31762" lon="4.03953">
        <ele>300</ele>
        <time>2013-04-03T10:46:22Z</time>
      </trkpt>
      <trkpt lat="44.31761" lon="4.03957">
        <ele>300</ele>
        <time>2013-04-03T10:46:24Z</time>
      </trkpt>
      <trkpt lat="44.31761" lon="4.03959">
        <ele>300</ele>
        <time>2013-04-03T10:46:26Z</time>
      </trkpt>
      <trkpt lat="44.31761" lon="4.03962">
        <ele>301</ele>
        <time>2013-04-03T10:46:28Z</time>
      </trkpt>
      <trkpt lat="44.3176" lon="4.03965">
        <ele>301</ele>
        <time>2013-04-03T10:46:30Z</time>
      </trkpt>
      <trkpt lat="44.3176" lon="4.03969">
        <ele>301</ele>
        <time>2013-04-03T10:46:32Z</time>
      </trkpt>
      <trkpt lat="44.31759" lon="4.03971">
        <ele>301</ele>
        <time>2013-04-03T10:46:34Z</time>
      </trkpt>
      <trkpt lat="44.3176" lon="4.03974">
        <ele>302</ele>
        <time>2013-04-03T10:46:36Z</time>
      </trkpt>
      <trkpt lat="44.3176" lon="4.03977">
        <ele>302</ele>
        <time>2013-04-03T10:46:38Z</time>
      </trkpt>
      <trkpt lat="44.31759" lon="4.0398">
        <ele>302</ele>
        <time>2013-04-03T10:46:40Z</time>
      </trkpt>
      <trkpt lat="44.31758" lon="4.03983">
        <ele>301</ele>
        <time>2013-04-03T10:46:42Z</time>
      </trkpt>
      <trkpt lat="44.31759" lon="4.03985">
        <ele>302</ele>
        <time>2013-04-03T10:46:44Z</time>
      </trkpt>
      <trkpt lat="44.31759" lon="4.03987">
        <ele>302</ele>
        <time>2013-04-03T10:46:46Z</time>
      </trkpt>
      <trkpt lat="44.31758" lon="4.0399">
        <ele>302</ele>
        <time>2013-04-03T10:46:48Z</time>
      </trkpt>
      <trkpt lat="44.31758" lon="4.03992">
        <ele>302</ele>
        <time>2013-04-03T10:46:50Z</time>
      </trkpt>
      <trkpt lat="44.31758" lon="4.03995">
        <ele>302</ele>
        <time>2013-04-03T10:46:52Z</time>
      </trkpt>
      <trkpt lat="44.31758" lon="4.03997">
        <ele>302</ele>
        <time>2013-04-03T10:46:54Z</time>
      </trkpt>
      <trkpt lat="44.31758" lon="4.04">
        <ele>302</ele>
        <time>2013-04-03T10:46:56Z</time>
      </trkpt>
      <trkpt lat="44.31757" lon="4.04003">
        <ele>302</ele>
        <time>2013-04-03T10:46:58Z</time>
      </trkpt>
      <trkpt lat="44.31757" lon="4.04005">
        <ele>302</ele>
        <time>2013-04-03T10:46:59Z</time>
      </trkpt>
      <trkpt lat="44.31756" lon="4.04006">
        <ele>302</ele>
        <time>2013-04-03T10:47:00Z</time>
      </trkpt>
      <trkpt lat="44.31756" lon="4.04009">
        <ele>302</ele>
        <time>2013-04-03T10:47:02Z</time>
      </trkpt>
      <trkpt lat="44.31755" lon="4.04013">
        <ele>302</ele>
        <time>2013-04-03T10:47:04Z</time>
      </trkpt>
      <trkpt lat="44.31755" lon="4.04015">
        <ele>303</ele>
        <time>2013-04-03T10:47:06Z</time>
      </trkpt>
      <trkpt lat="44.31754" lon="4.04019">
        <ele>303</ele>
        <time>2013-04-03T10:47:08Z</time>
      </trkpt>
      <trkpt lat="44.31753" lon="4.04022">
        <ele>303</ele>
        <time>2013-04-03T10:47:10Z</time>
      </trkpt>
      <trkpt lat="44.31752" lon="4.04024">
        <ele>304</ele>
        <time>2013-04-03T10:47:12Z</time>
      </trkpt>
      <trkpt lat="44.31752" lon="4.04027">
        <ele>304</ele>
        <time>2013-04-03T10:47:14Z</time>
      </trkpt>
      <trkpt lat="44.31751" lon="4.04028">
        <ele>304</ele>
        <time>2013-04-03T10:47:15Z</time>
      </trkpt>
      <trkpt lat="44.31751" lon="4.0403">
        <ele>304</ele>
        <time>2013-04-03T10:47:16Z</time>
      </trkpt>
      <trkpt lat="44.31751" lon="4.04031">
        <ele>305</ele>
        <time>2013-04-03T10:47:17Z</time>
      </trkpt>
      <trkpt lat="44.31751" lon="4.04035">
        <ele>305</ele>
        <time>2013-04-03T10:47:20Z</time>
      </trkpt>
      <trkpt lat="44.3175" lon="4.04037">
        <ele>305</ele>
        <time>2013-04-03T10:47:22Z</time>
      </trkpt>
      <trkpt lat="44.3175" lon="4.04039">
        <ele>304</ele>
        <time>2013-04-03T10:47:24Z</time>
      </trkpt>
      <trkpt lat="44.31749" lon="4.04042">
        <ele>305</ele>
        <time>2013-04-03T10:47:26Z</time>
      </trkpt>
      <trkpt lat="44.31748" lon="4.04045">
        <ele>305</ele>
        <time>2013-04-03T10:47:28Z</time>
      </trkpt>
      <trkpt lat="44.31747" lon="4.04048">
        <ele>305</ele>
        <time>2013-04-03T10:47:30Z</time>
      </trkpt>
      <trkpt lat="44.31747" lon="4.04051">
        <ele>305</ele>
        <time>2013-04-03T10:47:32Z</time>
      </trkpt>
      <trkpt lat="44.31745" lon="4.04054">
        <ele>306</ele>
        <time>2013-04-03T10:47:34Z</time>
      </trkpt>
      <trkpt lat="44.31744" lon="4.04057">
        <ele>306</ele>
        <time>2013-04-03T10:47:36Z</time>
      </trkpt>
      <trkpt lat="44.31744" lon="4.0406">
        <ele>306</ele>
        <time>2013-04-03T10:47:38Z</time>
      </trkpt>
      <trkpt lat="44.31743" lon="4.04062">
        <ele>307</ele>
        <time>2013-04-03T10:47:40Z</time>
      </trkpt>
      <trkpt lat="44.31741" lon="4.04065">
        <ele>307</ele>
        <time>2013-04-03T10:47:42Z</time>
      </trkpt>
      <trkpt lat="44.3174" lon="4.04068">
        <ele>307</ele>
        <time>2013-04-03T10:47:44Z</time>
      </trkpt>
      <trkpt lat="44.31739" lon="4.0407">
        <ele>306</ele>
        <time>2013-04-03T10:47:46Z</time>
      </trkpt>
      <trkpt lat="44.31737" lon="4.04073">
        <ele>307</ele>
        <time>2013-04-03T10:47:48Z</time>
      </trkpt>
      <trkpt lat="44.31736" lon="4.04075">
        <ele>306</ele>
        <time>2013-04-03T10:47:50Z</time>
      </trkpt>
      <trkpt lat="44.31735" lon="4.04077">
        <ele>306</ele>
        <time>2013-04-03T10:47:52Z</time>
      </trkpt>
      <trkpt lat="44.31734" lon="4.04079">
        <ele>307</ele>
        <time>2013-04-03T10:47:54Z</time>
      </trkpt>
      <trkpt lat="44.31733" lon="4.04081">
        <ele>306</ele>
        <time>2013-04-03T10:47:56Z</time>
      </trkpt>
      <trkpt lat="44.31731" lon="4.04084">
        <ele>306</ele>
        <time>2013-04-03T10:47:58Z</time>
      </trkpt>
      <trkpt lat="44.3173" lon="4.04085">
        <ele>306</ele>
        <time>2013-04-03T10:47:59Z</time>
      </trkpt>
      <trkpt lat="44.3173" lon="4.04086">
        <ele>306</ele>
        <time>2013-04-03T10:48:00Z</time>
      </trkpt>
      <trkpt lat="44.31729" lon="4.04089">
        <ele>307</ele>
        <time>2013-04-03T10:48:02Z</time>
      </trkpt>
      <trkpt lat="44.31728" lon="4.04092">
        <ele>307</ele>
        <time>2013-04-03T10:48:04Z</time>
      </trkpt>
      <trkpt lat="44.31727" lon="4.04094">
        <ele>307</ele>
        <time>2013-04-03T10:48:06Z</time>
      </trkpt>
      <trkpt lat="44.31727" lon="4.04095">
        <ele>306</ele>
        <time>2013-04-03T10:48:08Z</time>
      </trkpt>
      <trkpt lat="44.31726" lon="4.04097">
        <ele>307</ele>
        <time>2013-04-03T10:48:10Z</time>
      </trkpt>
      <trkpt lat="44.31725" lon="4.04099">
        <ele>307</ele>
        <time>2013-04-03T10:48:12Z</time>
      </trkpt>
      <trkpt lat="44.31725" lon="4.04099">
        <ele>307</ele>
        <time>2013-04-03T10:48:14Z</time>
      </trkpt>
      <trkpt lat="44.31725" lon="4.04099">
        <ele>307</ele>
        <time>2013-04-03T10:48:15Z</time>
      </trkpt>
      <trkpt lat="44.31724" lon="4.041">
        <ele>307</ele>
        <time>2013-04-03T10:48:16Z</time>
      </trkpt>
      <trkpt lat="44.31723" lon="4.04102">
        <ele>307</ele>
        <time>2013-04-03T10:48:18Z</time>
      </trkpt>
      <trkpt lat="44.31722" lon="4.04104">
        <ele>307</ele>
        <time>2013-04-03T10:48:19Z</time>
      </trkpt>
      <trkpt lat="44.31722" lon="4.04106">
        <ele>306</ele>
        <time>2013-04-03T10:48:22Z</time>
      </trkpt>
      <trkpt lat="44.31721" lon="4.04108">
        <ele>306</ele>
        <time>2013-04-03T10:48:24Z</time>
      </trkpt>
      <trkpt lat="44.3172" lon="4.0411">
        <ele>305</ele>
        <time>2013-04-03T10:48:26Z</time>
      </trkpt>
      <trkpt lat="44.31719" lon="4.04113">
        <ele>306</ele>
        <time>2013-04-03T10:48:28Z</time>
      </trkpt>
      <trkpt lat="44.31719" lon="4.04116">
        <ele>307</ele>
        <time>2013-04-03T10:48:30Z</time>
      </trkpt>
      <trkpt lat="44.31718" lon="4.04119">
        <ele>308</ele>
        <time>2013-04-03T10:48:32Z</time>
      </trkpt>
      <trkpt lat="44.31717" lon="4.04121">
        <ele>308</ele>
        <time>2013-04-03T10:48:34Z</time>
      </trkpt>
      <trkpt lat="44.31716" lon="4.04123">
        <ele>308</ele>
        <time>2013-04-03T10:48:36Z</time>
      </trkpt>
      <trkpt lat="44.31715" lon="4.04126">
        <ele>309</ele>
        <time>2013-04-03T10:48:38Z</time>
      </trkpt>
      <trkpt lat="44.31714" lon="4.04128">
        <ele>310</ele>
        <time>2013-04-03T10:48:40Z</time>
      </trkpt>
      <trkpt lat="44.31713" lon="4.0413">
        <ele>311</ele>
        <time>2013-04-03T10:48:42Z</time>
      </trkpt>
      <trkpt lat="44.31711" lon="4.04132">
        <ele>311</ele>
        <time>2013-04-03T10:48:44Z</time>
      </trkpt>
      <trkpt lat="44.3171" lon="4.04136">
        <ele>312</ele>
        <time>2013-04-03T10:48:46Z</time>
      </trkpt>
      <trkpt lat="44.31709" lon="4.04138">
        <ele>311</ele>
        <time>2013-04-03T10:48:48Z</time>
      </trkpt>
      <trkpt lat="44.31708" lon="4.04141">
        <ele>312</ele>
        <time>2013-04-03T10:48:50Z</time>
      </trkpt>
      <trkpt lat="44.31707" lon="4.04144">
        <ele>312</ele>
        <time>2013-04-03T10:48:52Z</time>
      </trkpt>
      <trkpt lat="44.31705" lon="4.04145">
        <ele>312</ele>
        <time>2013-04-03T10:48:54Z</time>
      </trkpt>
      <trkpt lat="44.31704" lon="4.04148">
        <ele>312</ele>
        <time>2013-04-03T10:48:56Z</time>
      </trkpt>
      <trkpt lat="44.31703" lon="4.04151">
        <ele>312</ele>
        <time>2013-04-03T10:48:58Z</time>
      </trkpt>
      <trkpt lat="44.31702" lon="4.04152">
        <ele>312</ele>
        <time>2013-04-03T10:48:59Z</time>
      </trkpt>
      <trkpt lat="44.31701" lon="4.04154">
        <ele>312</ele>
        <time>2013-04-03T10:49:00Z</time>
      </trkpt>
      <trkpt lat="44.317" lon="4.04156">
        <ele>311</ele>
        <time>2013-04-03T10:49:02Z</time>
      </trkpt>
      <trkpt lat="44.31699" lon="4.04158">
        <ele>311</ele>
        <time>2013-04-03T10:49:04Z</time>
      </trkpt>
      <trkpt lat="44.31697" lon="4.0416">
        <ele>311</ele>
        <time>2013-04-03T10:49:06Z</time>
      </trkpt>
      <trkpt lat="44.31697" lon="4.04163">
        <ele>312</ele>
        <time>2013-04-03T10:49:08Z</time>
      </trkpt>
      <trkpt lat="44.31696" lon="4.04166">
        <ele>312</ele>
        <time>2013-04-03T10:49:10Z</time>
      </trkpt>
      <trkpt lat="44.31696" lon="4.04168">
        <ele>313</ele>
        <time>2013-04-03T10:49:12Z</time>
      </trkpt>
      <trkpt lat="44.31695" lon="4.04171">
        <ele>313</ele>
        <time>2013-04-03T10:49:14Z</time>
      </trkpt>
      <trkpt lat="44.31694" lon="4.04172">
        <ele>312</ele>
        <time>2013-04-03T10:49:15Z</time>
      </trkpt>
      <trkpt lat="44.31694" lon="4.04173">
        <ele>312</ele>
        <time>2013-04-03T10:49:16Z</time>
      </trkpt>
      <trkpt lat="44.31692" lon="4.04176">
        <ele>312</ele>
        <time>2013-04-03T10:49:18Z</time>
      </trkpt>
      <trkpt lat="44.31691" lon="4.04179">
        <ele>312</ele>
        <time>2013-04-03T10:49:20Z</time>
      </trkpt>
      <trkpt lat="44.3169" lon="4.0418">
        <ele>312</ele>
        <time>2013-04-03T10:49:21Z</time>
      </trkpt>
      <trkpt lat="44.31689" lon="4.04183">
        <ele>312</ele>
        <time>2013-04-03T10:49:24Z</time>
      </trkpt>
      <trkpt lat="44.31689" lon="4.04186">
        <ele>313</ele>
        <time>2013-04-03T10:49:26Z</time>
      </trkpt>
      <trkpt lat="44.31688" lon="4.04188">
        <ele>314</ele>
        <time>2013-04-03T10:49:28Z</time>
      </trkpt>
      <trkpt lat="44.31686" lon="4.04191">
        <ele>314</ele>
        <time>2013-04-03T10:49:30Z</time>
      </trkpt>
      <trkpt lat="44.31685" lon="4.04194">
        <ele>314</ele>
        <time>2013-04-03T10:49:32Z</time>
      </trkpt>
      <trkpt lat="44.31683" lon="4.04196">
        <ele>313</ele>
        <time>2013-04-03T10:49:34Z</time>
      </trkpt>
      <trkpt lat="44.31683" lon="4.04198">
        <ele>314</ele>
        <time>2013-04-03T10:49:36Z</time>
      </trkpt>
      <trkpt lat="44.31682" lon="4.042">
        <ele>314</ele>
        <time>2013-04-03T10:49:38Z</time>
      </trkpt>
      <trkpt lat="44.3168" lon="4.04202">
        <ele>315</ele>
        <time>2013-04-03T10:49:40Z</time>
      </trkpt>
      <trkpt lat="44.31679" lon="4.04204">
        <ele>314</ele>
        <time>2013-04-03T10:49:42Z</time>
      </trkpt>
      <trkpt lat="44.31678" lon="4.04207">
        <ele>315</ele>
        <time>2013-04-03T10:49:44Z</time>
      </trkpt>
      <trkpt lat="44.31677" lon="4.04209">
        <ele>315</ele>
        <time>2013-04-03T10:49:46Z</time>
      </trkpt>
      <trkpt lat="44.31675" lon="4.04211">
        <ele>315</ele>
        <time>2013-04-03T10:49:48Z</time>
      </trkpt>
      <trkpt lat="44.31673" lon="4.04214">
        <ele>315</ele>
        <time>2013-04-03T10:49:50Z</time>
      </trkpt>
      <trkpt lat="44.31673" lon="4.04216">
        <ele>315</ele>
        <time>2013-04-03T10:49:52Z</time>
      </trkpt>
      <trkpt lat="44.31672" lon="4.04218">
        <ele>315</ele>
        <time>2013-04-03T10:49:54Z</time>
      </trkpt>
      <trkpt lat="44.3167" lon="4.0422">
        <ele>315</ele>
        <time>2013-04-03T10:49:56Z</time>
      </trkpt>
      <trkpt lat="44.31668" lon="4.04222">
        <ele>315</ele>
        <time>2013-04-03T10:49:58Z</time>
      </trkpt>
      <trkpt lat="44.31667" lon="4.04223">
        <ele>314</ele>
        <time>2013-04-03T10:49:59Z</time>
      </trkpt>
      <trkpt lat="44.31666" lon="4.04224">
        <ele>314</ele>
        <time>2013-04-03T10:50:00Z</time>
      </trkpt>
      <trkpt lat="44.31664" lon="4.04226">
        <ele>314</ele>
        <time>2013-04-03T10:50:02Z</time>
      </trkpt>
      <trkpt lat="44.31663" lon="4.04228">
        <ele>314</ele>
        <time>2013-04-03T10:50:04Z</time>
      </trkpt>
      <trkpt lat="44.31663" lon="4.04228">
        <ele>314</ele>
        <time>2013-04-03T10:50:06Z</time>
      </trkpt>
      <trkpt lat="44.31663" lon="4.04228">
        <ele>314</ele>
        <time>2013-04-03T10:50:08Z</time>
      </trkpt>
      <trkpt lat="44.31663" lon="4.04228">
        <ele>314</ele>
        <time>2013-04-03T10:50:10Z</time>
      </trkpt>
      <trkpt lat="44.31663" lon="4.04228">
        <ele>314</ele>
        <time>2013-04-03T10:50:12Z</time>
      </trkpt>
      <trkpt lat="44.31663" lon="4.04228">
        <ele>314</ele>
        <time>2013-04-03T10:50:14Z</time>
      </trkpt>
      <trkpt lat="44.31663" lon="4.04228">
        <ele>314</ele>
        <time>2013-04-03T10:50:15Z</time>
      </trkpt>
      <trkpt lat="44.31663" lon="4.04228">
        <ele>314</ele>
        <time>2013-04-03T10:50:16Z</time>
      </trkpt>
      <trkpt lat="44.31663" lon="4.04228">
        <ele>314</ele>
        <time>2013-04-03T10:50:18Z</time>
      </trkpt>
      <trkpt lat="44.31663" lon="4.04228">
        <ele>314</ele>
        <time>2013-04-03T10:50:20Z</time>
      </trkpt>
      <trkpt lat="44.31663" lon="4.04228">
        <ele>314</ele>
        <time>2013-04-03T10:50:22Z</time>
      </trkpt>
      <trkpt lat="44.31663" lon="4.04228">
        <ele>314</ele>
        <time>2013-04-03T10:50:23Z</time>
      </trkpt>
      <trkpt lat="44.31663" lon="4.04228">
        <ele>314</ele>
        <time>2013-04-03T10:50:26Z</time>
      </trkpt>
      <trkpt lat="44.31663" lon="4.04228">
        <ele>314</ele>
        <time>2013-04-03T10:50:28Z</time>
      </trkpt>
      <trkpt lat="44.31663" lon="4.04228">
        <ele>314</ele>
        <time>2013-04-03T10:50:30Z</time>
      </trkpt>
      <trkpt lat="44.31663" lon="4.04228">
        <ele>314</ele>
        <time>2013-04-03T10:50:32Z</time>
      </trkpt>
      <trkpt lat="44.31663" lon="4.04228">
        <ele>314</ele>
        <time>2013-04-03T10:50:34Z</time>
      </trkpt>
      <trkpt lat="44.31663" lon="4.04228">
        <ele>314</ele>
        <time>2013-04-03T10:50:36Z</time>
      </trkpt>
      <trkpt lat="44.31663" lon="4.04228">
        <ele>314</ele>
        <time>2013-04-03T10:50:38Z</time>
      </trkpt>
      <trkpt lat="44.31663" lon="4.04228">
        <ele>314</ele>
        <time>2013-04-03T10:50:40Z</time>
      </trkpt>
      <trkpt lat="44.31663" lon="4.04228">
        <ele>314</ele>
        <time>2013-04-03T10:50:42Z</time>
      </trkpt>
      <trkpt lat="44.31661" lon="4.0423">
        <ele>315</ele>
        <time>2013-04-03T10:50:44Z</time>
      </trkpt>
      <trkpt lat="44.31659" lon="4.04232">
        <ele>315</ele>
        <time>2013-04-03T10:50:46Z</time>
      </trkpt>
      <trkpt lat="44.31657" lon="4.04234">
        <ele>316</ele>
        <time>2013-04-03T10:50:48Z</time>
      </trkpt>
      <trkpt lat="44.31655" lon="4.04235">
        <ele>316</ele>
        <time>2013-04-03T10:50:50Z</time>
      </trkpt>
      <trkpt lat="44.31653" lon="4.04236">
        <ele>316</ele>
        <time>2013-04-03T10:50:52Z</time>
      </trkpt>
      <trkpt lat="44.31651" lon="4.04237">
        <ele>316</ele>
        <time>2013-04-03T10:50:54Z</time>
      </trkpt>
      <trkpt lat="44.31649" lon="4.04238">
        <ele>316</ele>
        <time>2013-04-03T10:50:56Z</time>
      </trkpt>
      <trkpt lat="44.31647" lon="4.04239">
        <ele>316</ele>
        <time>2013-04-03T10:50:58Z</time>
      </trkpt>
      <trkpt lat="44.31645" lon="4.04239">
        <ele>316</ele>
        <time>2013-04-03T10:50:59Z</time>
      </trkpt>
      <trkpt lat="44.31644" lon="4.0424">
        <ele>317</ele>
        <time>2013-04-03T10:51:00Z</time>
      </trkpt>
      <trkpt lat="44.31642" lon="4.04241">
        <ele>317</ele>
        <time>2013-04-03T10:51:02Z</time>
      </trkpt>
      <trkpt lat="44.3164" lon="4.04243">
        <ele>317</ele>
        <time>2013-04-03T10:51:04Z</time>
      </trkpt>
      <trkpt lat="44.31637" lon="4.04244">
        <ele>318</ele>
        <time>2013-04-03T10:51:06Z</time>
      </trkpt>
      <trkpt lat="44.31636" lon="4.04245">
        <ele>318</ele>
        <time>2013-04-03T10:51:08Z</time>
      </trkpt>
      <trkpt lat="44.31634" lon="4.04246">
        <ele>318</ele>
        <time>2013-04-03T10:51:10Z</time>
      </trkpt>
      <trkpt lat="44.31632" lon="4.04248">
        <ele>319</ele>
        <time>2013-04-03T10:51:12Z</time>
      </trkpt>
      <trkpt lat="44.3163" lon="4.04249">
        <ele>319</ele>
        <time>2013-04-03T10:51:14Z</time>
      </trkpt>
      <trkpt lat="44.3163" lon="4.0425">
        <ele>320</ele>
        <time>2013-04-03T10:51:15Z</time>
      </trkpt>
      <trkpt lat="44.31629" lon="4.04251">
        <ele>320</ele>
        <time>2013-04-03T10:51:16Z</time>
      </trkpt>
      <trkpt lat="44.31626" lon="4.04253">
        <ele>320</ele>
        <time>2013-04-03T10:51:18Z</time>
      </trkpt>
      <trkpt lat="44.31624" lon="4.04254">
        <ele>321</ele>
        <time>2013-04-03T10:51:20Z</time>
      </trkpt>
      <trkpt lat="44.31622" lon="4.04256">
        <ele>322</ele>
        <time>2013-04-03T10:51:22Z</time>
      </trkpt>
      <trkpt lat="44.3162" lon="4.04258">
        <ele>322</ele>
        <time>2013-04-03T10:51:24Z</time>
      </trkpt>
      <trkpt lat="44.31619" lon="4.04259">
        <ele>322</ele>
        <time>2013-04-03T10:51:25Z</time>
      </trkpt>
      <trkpt lat="44.31616" lon="4.04262">
        <ele>322</ele>
        <time>2013-04-03T10:51:28Z</time>
      </trkpt>
      <trkpt lat="44.31615" lon="4.04265">
        <ele>323</ele>
        <time>2013-04-03T10:51:30Z</time>
      </trkpt>
      <trkpt lat="44.31613" lon="4.04267">
        <ele>323</ele>
        <time>2013-04-03T10:51:32Z</time>
      </trkpt>
      <trkpt lat="44.31611" lon="4.04268">
        <ele>323</ele>
        <time>2013-04-03T10:51:34Z</time>
      </trkpt>
      <trkpt lat="44.31609" lon="4.0427">
        <ele>323</ele>
        <time>2013-04-03T10:51:36Z</time>
      </trkpt>
      <trkpt lat="44.31607" lon="4.04272">
        <ele>323</ele>
        <time>2013-04-03T10:51:38Z</time>
      </trkpt>
      <trkpt lat="44.31605" lon="4.04272">
        <ele>324</ele>
        <time>2013-04-03T10:51:40Z</time>
      </trkpt>
      <trkpt lat="44.31603" lon="4.04273">
        <ele>323</ele>
        <time>2013-04-03T10:51:42Z</time>
      </trkpt>
      <trkpt lat="44.31601" lon="4.04275">
        <ele>324</ele>
        <time>2013-04-03T10:51:44Z</time>
      </trkpt>
      <trkpt lat="44.31599" lon="4.04277">
        <ele>324</ele>
        <time>2013-04-03T10:51:46Z</time>
      </trkpt>
      <trkpt lat="44.31598" lon="4.04279">
        <ele>324</ele>
        <time>2013-04-03T10:51:48Z</time>
      </trkpt>
      <trkpt lat="44.31596" lon="4.04281">
        <ele>324</ele>
        <time>2013-04-03T10:51:50Z</time>
      </trkpt>
      <trkpt lat="44.31594" lon="4.04282">
        <ele>325</ele>
        <time>2013-04-03T10:51:52Z</time>
      </trkpt>
      <trkpt lat="44.31592" lon="4.04285">
        <ele>324</ele>
        <time>2013-04-03T10:51:54Z</time>
      </trkpt>
      <trkpt lat="44.3159" lon="4.04287">
        <ele>324</ele>
        <time>2013-04-03T10:51:56Z</time>
      </trkpt>
      <trkpt lat="44.31588" lon="4.04288">
        <ele>325</ele>
        <time>2013-04-03T10:51:58Z</time>
      </trkpt>
      <trkpt lat="44.31587" lon="4.04289">
        <ele>325</ele>
        <time>2013-04-03T10:51:59Z</time>
      </trkpt>
      <trkpt lat="44.31586" lon="4.04289">
        <ele>326</ele>
        <time>2013-04-03T10:52:00Z</time>
      </trkpt>
      <trkpt lat="44.31584" lon="4.04292">
        <ele>326</ele>
        <time>2013-04-03T10:52:02Z</time>
      </trkpt>
      <trkpt lat="44.31583" lon="4.04293">
        <ele>326</ele>
        <time>2013-04-03T10:52:04Z</time>
      </trkpt>
      <trkpt lat="44.31582" lon="4.04294">
        <ele>327</ele>
        <time>2013-04-03T10:52:06Z</time>
      </trkpt>
      <trkpt lat="44.3158" lon="4.04296">
        <ele>327</ele>
        <time>2013-04-03T10:52:08Z</time>
      </trkpt>
      <trkpt lat="44.31578" lon="4.04298">
        <ele>328</ele>
        <time>2013-04-03T10:52:10Z</time>
      </trkpt>
      <trkpt lat="44.31576" lon="4.043">
        <ele>328</ele>
        <time>2013-04-03T10:52:12Z</time>
      </trkpt>
      <trkpt lat="44.31575" lon="4.043">
        <ele>329</ele>
        <time>2013-04-03T10:52:14Z</time>
      </trkpt>
      <trkpt lat="44.31575" lon="4.04301">
        <ele>329</ele>
        <time>2013-04-03T10:52:15Z</time>
      </trkpt>
      <trkpt lat="44.31574" lon="4.04302">
        <ele>329</ele>
        <time>2013-04-03T10:52:16Z</time>
      </trkpt>
      <trkpt lat="44.31573" lon="4.04305">
        <ele>330</ele>
        <time>2013-04-03T10:52:18Z</time>
      </trkpt>
      <trkpt lat="44.31571" lon="4.04307">
        <ele>331</ele>
        <time>2013-04-03T10:52:20Z</time>
      </trkpt>
      <trkpt lat="44.31569" lon="4.04307">
        <ele>331</ele>
        <time>2013-04-03T10:52:22Z</time>
      </trkpt>
      <trkpt lat="44.31567" lon="4.04309">
        <ele>332</ele>
        <time>2013-04-03T10:52:24Z</time>
      </trkpt>
      <trkpt lat="44.31566" lon="4.04311">
        <ele>332</ele>
        <time>2013-04-03T10:52:26Z</time>
      </trkpt>
      <trkpt lat="44.31565" lon="4.04312">
        <ele>332</ele>
        <time>2013-04-03T10:52:27Z</time>
      </trkpt>
      <trkpt lat="44.31563" lon="4.04315">
        <ele>332</ele>
        <time>2013-04-03T10:52:30Z</time>
      </trkpt>
      <trkpt lat="44.31561" lon="4.04318">
        <ele>333</ele>
        <time>2013-04-03T10:52:32Z</time>
      </trkpt>
      <trkpt lat="44.31559" lon="4.0432">
        <ele>333</ele>
        <time>2013-04-03T10:52:34Z</time>
      </trkpt>
      <trkpt lat="44.31557" lon="4.04322">
        <ele>333</ele>
        <time>2013-04-03T10:52:36Z</time>
      </trkpt>
      <trkpt lat="44.31554" lon="4.04324">
        <ele>332</ele>
        <time>2013-04-03T10:52:38Z</time>
      </trkpt>
      <trkpt lat="44.31552" lon="4.04327">
        <ele>333</ele>
        <time>2013-04-03T10:52:40Z</time>
      </trkpt>
      <trkpt lat="44.31551" lon="4.0433">
        <ele>332</ele>
        <time>2013-04-03T10:52:42Z</time>
      </trkpt>
      <trkpt lat="44.31551" lon="4.04331">
        <ele>332</ele>
        <time>2013-04-03T10:52:44Z</time>
      </trkpt>
      <trkpt lat="44.31549" lon="4.04333">
        <ele>333</ele>
        <time>2013-04-03T10:52:46Z</time>
      </trkpt>
      <trkpt lat="44.31547" lon="4.04337">
        <ele>334</ele>
        <time>2013-04-03T10:52:48Z</time>
      </trkpt>
      <trkpt lat="44.31546" lon="4.04341">
        <ele>334</ele>
        <time>2013-04-03T10:52:50Z</time>
      </trkpt>
      <trkpt lat="44.31545" lon="4.04344">
        <ele>334</ele>
        <time>2013-04-03T10:52:52Z</time>
      </trkpt>
      <trkpt lat="44.31544" lon="4.04347">
        <ele>335</ele>
        <time>2013-04-03T10:52:54Z</time>
      </trkpt>
      <trkpt lat="44.31543" lon="4.0435">
        <ele>336</ele>
        <time>2013-04-03T10:52:56Z</time>
      </trkpt>
      <trkpt lat="44.31542" lon="4.04353">
        <ele>337</ele>
        <time>2013-04-03T10:52:58Z</time>
      </trkpt>
      <trkpt lat="44.31541" lon="4.04355">
        <ele>337</ele>
        <time>2013-04-03T10:52:59Z</time>
      </trkpt>
      <trkpt lat="44.31541" lon="4.04356">
        <ele>336</ele>
        <time>2013-04-03T10:53:00Z</time>
      </trkpt>
      <trkpt lat="44.31539" lon="4.04359">
        <ele>337</ele>
        <time>2013-04-03T10:53:02Z</time>
      </trkpt>
      <trkpt lat="44.31539" lon="4.04362">
        <ele>336</ele>
        <time>2013-04-03T10:53:04Z</time>
      </trkpt>
      <trkpt lat="44.31538" lon="4.04363">
        <ele>337</ele>
        <time>2013-04-03T10:53:06Z</time>
      </trkpt>
      <trkpt lat="44.31537" lon="4.04365">
        <ele>337</ele>
        <time>2013-04-03T10:53:08Z</time>
      </trkpt>
      <trkpt lat="44.31536" lon="4.04368">
        <ele>337</ele>
        <time>2013-04-03T10:53:10Z</time>
      </trkpt>
      <trkpt lat="44.31535" lon="4.0437">
        <ele>336</ele>
        <time>2013-04-03T10:53:12Z</time>
      </trkpt>
      <trkpt lat="44.31534" lon="4.04374">
        <ele>336</ele>
        <time>2013-04-03T10:53:14Z</time>
      </trkpt>
      <trkpt lat="44.31534" lon="4.04376">
        <ele>336</ele>
        <time>2013-04-03T10:53:15Z</time>
      </trkpt>
      <trkpt lat="44.31534" lon="4.04378">
        <ele>336</ele>
        <time>2013-04-03T10:53:16Z</time>
      </trkpt>
      <trkpt lat="44.31534" lon="4.04382">
        <ele>337</ele>
        <time>2013-04-03T10:53:18Z</time>
      </trkpt>
      <trkpt lat="44.31533" lon="4.04385">
        <ele>337</ele>
        <time>2013-04-03T10:53:20Z</time>
      </trkpt>
      <trkpt lat="44.31533" lon="4.04389">
        <ele>338</ele>
        <time>2013-04-03T10:53:22Z</time>
      </trkpt>
      <trkpt lat="44.31532" lon="4.04392">
        <ele>339</ele>
        <time>2013-04-03T10:53:24Z</time>
      </trkpt>
      <trkpt lat="44.31532" lon="4.04396">
        <ele>339</ele>
        <time>2013-04-03T10:53:26Z</time>
      </trkpt>
      <trkpt lat="44.31532" lon="4.04399">
        <ele>340</ele>
        <time>2013-04-03T10:53:28Z</time>
      </trkpt>
      <trkpt lat="44.31532" lon="4.04401">
        <ele>339</ele>
        <time>2013-04-03T10:53:29Z</time>
      </trkpt>
      <trkpt lat="44.31532" lon="4.04406">
        <ele>339</ele>
        <time>2013-04-03T10:53:32Z</time>
      </trkpt>
      <trkpt lat="44.31531" lon="4.0441">
        <ele>339</ele>
        <time>2013-04-03T10:53:34Z</time>
      </trkpt>
      <trkpt lat="44.31532" lon="4.04413">
        <ele>340</ele>
        <time>2013-04-03T10:53:36Z</time>
      </trkpt>
      <trkpt lat="44.31531" lon="4.04417">
        <ele>341</ele>
        <time>2013-04-03T10:53:38Z</time>
      </trkpt>
      <trkpt lat="44.31531" lon="4.0442">
        <ele>342</ele>
        <time>2013-04-03T10:53:40Z</time>
      </trkpt>
      <trkpt lat="44.3153" lon="4.04423">
        <ele>342</ele>
        <time>2013-04-03T10:53:42Z</time>
      </trkpt>
      <trkpt lat="44.31529" lon="4.04426">
        <ele>342</ele>
        <time>2013-04-03T10:53:44Z</time>
      </trkpt>
      <trkpt lat="44.31528" lon="4.04429">
        <ele>342</ele>
        <time>2013-04-03T10:53:46Z</time>
      </trkpt>
      <trkpt lat="44.31528" lon="4.04433">
        <ele>342</ele>
        <time>2013-04-03T10:53:48Z</time>
      </trkpt>
      <trkpt lat="44.31528" lon="4.04436">
        <ele>342</ele>
        <time>2013-04-03T10:53:50Z</time>
      </trkpt>
      <trkpt lat="44.31527" lon="4.04439">
        <ele>342</ele>
        <time>2013-04-03T10:53:52Z</time>
      </trkpt>
      <trkpt lat="44.31527" lon="4.04442">
        <ele>342</ele>
        <time>2013-04-03T10:53:54Z</time>
      </trkpt>
      <trkpt lat="44.31527" lon="4.04446">
        <ele>342</ele>
        <time>2013-04-03T10:53:56Z</time>
      </trkpt>
      <trkpt lat="44.31526" lon="4.04449">
        <ele>342</ele>
        <time>2013-04-03T10:53:58Z</time>
      </trkpt>
      <trkpt lat="44.31525" lon="4.0445">
        <ele>342</ele>
        <time>2013-04-03T10:53:59Z</time>
      </trkpt>
      <trkpt lat="44.31525" lon="4.04452">
        <ele>342</ele>
        <time>2013-04-03T10:54:00Z</time>
      </trkpt>
      <trkpt lat="44.31524" lon="4.04455">
        <ele>341</ele>
        <time>2013-04-03T10:54:02Z</time>
      </trkpt>
      <trkpt lat="44.31523" lon="4.04458">
        <ele>340</ele>
        <time>2013-04-03T10:54:04Z</time>
      </trkpt>
      <trkpt lat="44.31522" lon="4.04461">
        <ele>340</ele>
        <time>2013-04-03T10:54:06Z</time>
      </trkpt>
      <trkpt lat="44.31522" lon="4.04463">
        <ele>340</ele>
        <time>2013-04-03T10:54:08Z</time>
      </trkpt>
      <trkpt lat="44.31522" lon="4.04466">
        <ele>340</ele>
        <time>2013-04-03T10:54:10Z</time>
      </trkpt>
      <trkpt lat="44.31521" lon="4.04469">
        <ele>340</ele>
        <time>2013-04-03T10:54:12Z</time>
      </trkpt>
      <trkpt lat="44.3152" lon="4.04472">
        <ele>340</ele>
        <time>2013-04-03T10:54:14Z</time>
      </trkpt>
      <trkpt lat="44.3152" lon="4.04474">
        <ele>340</ele>
        <time>2013-04-03T10:54:15Z</time>
      </trkpt>
      <trkpt lat="44.3152" lon="4.04475">
        <ele>340</ele>
        <time>2013-04-03T10:54:16Z</time>
      </trkpt>
      <trkpt lat="44.31519" lon="4.04479">
        <ele>340</ele>
        <time>2013-04-03T10:54:18Z</time>
      </trkpt>
      <trkpt lat="44.31519" lon="4.04482">
        <ele>341</ele>
        <time>2013-04-03T10:54:20Z</time>
      </trkpt>
      <trkpt lat="44.31519" lon="4.04485">
        <ele>342</ele>
        <time>2013-04-03T10:54:22Z</time>
      </trkpt>
      <trkpt lat="44.31518" lon="4.04488">
        <ele>342</ele>
        <time>2013-04-03T10:54:24Z</time>
      </trkpt>
      <trkpt lat="44.31518" lon="4.04491">
        <ele>342</ele>
        <time>2013-04-03T10:54:26Z</time>
      </trkpt>
      <trkpt lat="44.31518" lon="4.04493">
        <ele>343</ele>
        <time>2013-04-03T10:54:28Z</time>
      </trkpt>
      <trkpt lat="44.31518" lon="4.04496">
        <ele>343</ele>
        <time>2013-04-03T10:54:30Z</time>
      </trkpt>
      <trkpt lat="44.31517" lon="4.04497">
        <ele>344</ele>
        <time>2013-04-03T10:54:31Z</time>
      </trkpt>
      <trkpt lat="44.31516" lon="4.04502">
        <ele>344</ele>
        <time>2013-04-03T10:54:34Z</time>
      </trkpt>
      <trkpt lat="44.31516" lon="4.04504">
        <ele>344</ele>
        <time>2013-04-03T10:54:36Z</time>
      </trkpt>
      <trkpt lat="44.31515" lon="4.04506">
        <ele>345</ele>
        <time>2013-04-03T10:54:38Z</time>
      </trkpt>
      <trkpt lat="44.31515" lon="4.04509">
        <ele>344</ele>
        <time>2013-04-03T10:54:40Z</time>
      </trkpt>
      <trkpt lat="44.31515" lon="4.04512">
        <ele>345</ele>
        <time>2013-04-03T10:54:42Z</time>
      </trkpt>
      <trkpt lat="44.31514" lon="4.04516">
        <ele>345</ele>
        <time>2013-04-03T10:54:44Z</time>
      </trkpt>
      <trkpt lat="44.31514" lon="4.0452">
        <ele>346</ele>
        <time>2013-04-03T10:54:46Z</time>
      </trkpt>
      <trkpt lat="44.31514" lon="4.04524">
        <ele>346</ele>
        <time>2013-04-03T10:54:48Z</time>
      </trkpt>
      <trkpt lat="44.31514" lon="4.04527">
        <ele>347</ele>
        <time>2013-04-03T10:54:50Z</time>
      </trkpt>
      <trkpt lat="44.31514" lon="4.0453">
        <ele>347</ele>
        <time>2013-04-03T10:54:52Z</time>
      </trkpt>
      <trkpt lat="44.31513" lon="4.04533">
        <ele>347</ele>
        <time>2013-04-03T10:54:54Z</time>
      </trkpt>
      <trkpt lat="44.31513" lon="4.04537">
        <ele>347</ele>
        <time>2013-04-03T10:54:56Z</time>
      </trkpt>
      <trkpt lat="44.31512" lon="4.0454">
        <ele>348</ele>
        <time>2013-04-03T10:54:58Z</time>
      </trkpt>
      <trkpt lat="44.31511" lon="4.04542">
        <ele>347</ele>
        <time>2013-04-03T10:54:59Z</time>
      </trkpt>
      <trkpt lat="44.31511" lon="4.04544">
        <ele>347</ele>
        <time>2013-04-03T10:55:00Z</time>
      </trkpt>
      <trkpt lat="44.31509" lon="4.04547">
        <ele>348</ele>
        <time>2013-04-03T10:55:02Z</time>
      </trkpt>
      <trkpt lat="44.31508" lon="4.0455">
        <ele>349</ele>
        <time>2013-04-03T10:55:04Z</time>
      </trkpt>
      <trkpt lat="44.31507" lon="4.04553">
        <ele>349</ele>
        <time>2013-04-03T10:55:06Z</time>
      </trkpt>
      <trkpt lat="44.31506" lon="4.04556">
        <ele>349</ele>
        <time>2013-04-03T10:55:08Z</time>
      </trkpt>
      <trkpt lat="44.31505" lon="4.04559">
        <ele>350</ele>
        <time>2013-04-03T10:55:10Z</time>
      </trkpt>
      <trkpt lat="44.31504" lon="4.04562">
        <ele>350</ele>
        <time>2013-04-03T10:55:12Z</time>
      </trkpt>
      <trkpt lat="44.31503" lon="4.04565">
        <ele>350</ele>
        <time>2013-04-03T10:55:14Z</time>
      </trkpt>
      <trkpt lat="44.31502" lon="4.04566">
        <ele>351</ele>
        <time>2013-04-03T10:55:15Z</time>
      </trkpt>
      <trkpt lat="44.31501" lon="4.04567">
        <ele>351</ele>
        <time>2013-04-03T10:55:16Z</time>
      </trkpt>
      <trkpt lat="44.31499" lon="4.0457">
        <ele>351</ele>
        <time>2013-04-03T10:55:18Z</time>
      </trkpt>
      <trkpt lat="44.31498" lon="4.04573">
        <ele>351</ele>
        <time>2013-04-03T10:55:20Z</time>
      </trkpt>
      <trkpt lat="44.31496" lon="4.04576">
        <ele>351</ele>
        <time>2013-04-03T10:55:22Z</time>
      </trkpt>
      <trkpt lat="44.31495" lon="4.04578">
        <ele>351</ele>
        <time>2013-04-03T10:55:24Z</time>
      </trkpt>
      <trkpt lat="44.31493" lon="4.04581">
        <ele>351</ele>
        <time>2013-04-03T10:55:26Z</time>
      </trkpt>
      <trkpt lat="44.31492" lon="4.04584">
        <ele>351</ele>
        <time>2013-04-03T10:55:28Z</time>
      </trkpt>
      <trkpt lat="44.3149" lon="4.04586">
        <ele>351</ele>
        <time>2013-04-03T10:55:30Z</time>
      </trkpt>
      <trkpt lat="44.31488" lon="4.04588">
        <ele>351</ele>
        <time>2013-04-03T10:55:32Z</time>
      </trkpt>
      <trkpt lat="44.31488" lon="4.04589">
        <ele>352</ele>
        <time>2013-04-03T10:55:33Z</time>
      </trkpt>
      <trkpt lat="44.31485" lon="4.04592">
        <ele>351</ele>
        <time>2013-04-03T10:55:36Z</time>
      </trkpt>
      <trkpt lat="44.31484" lon="4.04594">
        <ele>351</ele>
        <time>2013-04-03T10:55:38Z</time>
      </trkpt>
      <trkpt lat="44.31483" lon="4.04596">
        <ele>352</ele>
        <time>2013-04-03T10:55:40Z</time>
      </trkpt>
      <trkpt lat="44.31483" lon="4.04597">
        <ele>352</ele>
        <time>2013-04-03T10:55:42Z</time>
      </trkpt>
      <trkpt lat="44.31483" lon="4.04597">
        <ele>352</ele>
        <time>2013-04-03T10:55:44Z</time>
      </trkpt>
      <trkpt lat="44.31483" lon="4.04597">
        <ele>352</ele>
        <time>2013-04-03T10:55:46Z</time>
      </trkpt>
      <trkpt lat="44.31484" lon="4.04598">
        <ele>352</ele>
        <time>2013-04-03T10:55:48Z</time>
      </trkpt>
      <trkpt lat="44.31484" lon="4.04598">
        <ele>352</ele>
        <time>2013-04-03T10:55:50Z</time>
      </trkpt>
      <trkpt lat="44.31485" lon="4.04599">
        <ele>352</ele>
        <time>2013-04-03T10:55:52Z</time>
      </trkpt>
      <trkpt lat="44.31485" lon="4.04599">
        <ele>352</ele>
        <time>2013-04-03T10:55:54Z</time>
      </trkpt>
      <trkpt lat="44.31485" lon="4.04599">
        <ele>352</ele>
        <time>2013-04-03T10:55:56Z</time>
      </trkpt>
      <trkpt lat="44.31485" lon="4.04599">
        <ele>352</ele>
        <time>2013-04-03T10:55:58Z</time>
      </trkpt>
      <trkpt lat="44.31485" lon="4.04599">
        <ele>352</ele>
        <time>2013-04-03T10:55:59Z</time>
      </trkpt>
      <trkpt lat="44.31485" lon="4.04599">
        <ele>352</ele>
        <time>2013-04-03T10:56:00Z</time>
      </trkpt>
      <trkpt lat="44.31485" lon="4.046">
        <ele>352</ele>
        <time>2013-04-03T10:56:02Z</time>
      </trkpt>
      <trkpt lat="44.31485" lon="4.046">
        <ele>352</ele>
        <time>2013-04-03T10:56:04Z</time>
      </trkpt>
      <trkpt lat="44.31485" lon="4.046">
        <ele>352</ele>
        <time>2013-04-03T10:56:06Z</time>
      </trkpt>
      <trkpt lat="44.31485" lon="4.046">
        <ele>352</ele>
        <time>2013-04-03T10:56:08Z</time>
      </trkpt>
      <trkpt lat="44.31485" lon="4.046">
        <ele>352</ele>
        <time>2013-04-03T10:56:10Z</time>
      </trkpt>
      <trkpt lat="44.31485" lon="4.046">
        <ele>352</ele>
        <time>2013-04-03T10:56:12Z</time>
      </trkpt>
      <trkpt lat="44.31485" lon="4.046">
        <ele>352</ele>
        <time>2013-04-03T10:56:14Z</time>
      </trkpt>
      <trkpt lat="44.31485" lon="4.046">
        <ele>352</ele>
        <time>2013-04-03T10:56:15Z</time>
      </trkpt>
      <trkpt lat="44.31485" lon="4.046">
        <ele>352</ele>
        <time>2013-04-03T10:56:16Z</time>
      </trkpt>
      <trkpt lat="44.31485" lon="4.046">
        <ele>352</ele>
        <time>2013-04-03T10:56:18Z</time>
      </trkpt>
      <trkpt lat="44.31485" lon="4.046">
        <ele>352</ele>
        <time>2013-04-03T10:56:20Z</time>
      </trkpt>
      <trkpt lat="44.31485" lon="4.046">
        <ele>352</ele>
        <time>2013-04-03T10:56:22Z</time>
      </trkpt>
      <trkpt lat="44.31485" lon="4.046">
        <ele>352</ele>
        <time>2013-04-03T10:56:24Z</time>
      </trkpt>
      <trkpt lat="44.31485" lon="4.046">
        <ele>352</ele>
        <time>2013-04-03T10:56:26Z</time>
      </trkpt>
      <trkpt lat="44.31485" lon="4.046">
        <ele>352</ele>
        <time>2013-04-03T10:56:28Z</time>
      </trkpt>
      <trkpt lat="44.31485" lon="4.046">
        <ele>352</ele>
        <time>2013-04-03T10:56:30Z</time>
      </trkpt>
      <trkpt lat="44.31485" lon="4.046">
        <ele>352</ele>
        <time>2013-04-03T10:56:32Z</time>
      </trkpt>
      <trkpt lat="44.31485" lon="4.046">
        <ele>352</ele>
        <time>2013-04-03T10:56:34Z</time>
      </trkpt>
      <trkpt lat="44.31485" lon="4.046">
        <ele>352</ele>
        <time>2013-04-03T10:56:35Z</time>
      </trkpt>
      <trkpt lat="44.31485" lon="4.046">
        <ele>352</ele>
        <time>2013-04-03T10:56:38Z</time>
      </trkpt>
      <trkpt lat="44.31485" lon="4.046">
        <ele>352</ele>
        <time>2013-04-03T10:56:40Z</time>
      </trkpt>
      <trkpt lat="44.31485" lon="4.046">
        <ele>352</ele>
        <time>2013-04-03T10:56:42Z</time>
      </trkpt>
      <trkpt lat="44.31485" lon="4.046">
        <ele>352</ele>
        <time>2013-04-03T10:56:44Z</time>
      </trkpt>
      <trkpt lat="44.31485" lon="4.046">
        <ele>352</ele>
        <time>2013-04-03T10:56:46Z</time>
      </trkpt>
      <trkpt lat="44.31485" lon="4.046">
        <ele>352</ele>
        <time>2013-04-03T10:56:48Z</time>
      </trkpt>
      <trkpt lat="44.31485" lon="4.046">
        <ele>352</ele>
        <time>2013-04-03T10:56:50Z</time>
      </trkpt>
      <trkpt lat="44.31485" lon="4.046">
        <ele>352</ele>
        <time>2013-04-03T10:56:52Z</time>
      </trkpt>
      <trkpt lat="44.31485" lon="4.046">
        <ele>352</ele>
        <time>2013-04-03T10:56:54Z</time>
      </trkpt>
      <trkpt lat="44.31485" lon="4.046">
        <ele>352</ele>
        <time>2013-04-03T10:56:56Z</time>
      </trkpt>
      <trkpt lat="44.31485" lon="4.046">
        <ele>352</ele>
        <time>2013-04-03T10:56:58Z</time>
      </trkpt>
      <trkpt lat="44.31485" lon="4.046">
        <ele>352</ele>
        <time>2013-04-03T10:56:59Z</time>
      </trkpt>
      <trkpt lat="44.31485" lon="4.046">
        <ele>352</ele>
        <time>2013-04-03T10:57:00Z</time>
      </trkpt>
      <trkpt lat="44.31485" lon="4.046">
        <ele>352</ele>
        <time>2013-04-03T10:57:02Z</time>
      </trkpt>
      <trkpt lat="44.31485" lon="4.046">
        <ele>352</ele>
        <time>2013-04-03T10:57:04Z</time>
      </trkpt>
      <trkpt lat="44.31485" lon="4.046">
        <ele>352</ele>
        <time>2013-04-03T10:57:06Z</time>
      </trkpt>
      <trkpt lat="44.31485" lon="4.046">
        <ele>352</ele>
        <time>2013-04-03T10:57:08Z</time>
      </trkpt>
      <trkpt lat="44.31485" lon="4.046">
        <ele>352</ele>
        <time>2013-04-03T10:57:10Z</time>
      </trkpt>
      <trkpt lat="44.31485" lon="4.046">
        <ele>352</ele>
        <time>2013-04-03T10:57:12Z</time>
      </trkpt>
      <trkpt lat="44.31485" lon="4.046">
        <ele>352</ele>
        <time>2013-04-03T10:57:14Z</time>
      </trkpt>
      <trkpt lat="44.31485" lon="4.046">
        <ele>352</ele>
        <time>2013-04-03T10:57:15Z</time>
      </trkpt>
      <trkpt lat="44.31485" lon="4.046">
        <ele>352</ele>
        <time>2013-04-03T10:57:16Z</time>
      </trkpt>
      <trkpt lat="44.31485" lon="4.046">
        <ele>352</ele>
        <time>2013-04-03T10:57:18Z</time>
      </trkpt>
      <trkpt lat="44.31485" lon="4.046">
        <ele>352</ele>
        <time>2013-04-03T10:57:20Z</time>
      </trkpt>
      <trkpt lat="44.31485" lon="4.046">
        <ele>352</ele>
        <time>2013-04-03T10:57:22Z</time>
      </trkpt>
      <trkpt lat="44.31485" lon="4.046">
        <ele>352</ele>
        <time>2013-04-03T10:57:24Z</time>
      </trkpt>
      <trkpt lat="44.31485" lon="4.046">
        <ele>352</ele>
        <time>2013-04-03T10:57:26Z</time>
      </trkpt>
      <trkpt lat="44.31485" lon="4.046">
        <ele>352</ele>
        <time>2013-04-03T10:57:28Z</time>
      </trkpt>
      <trkpt lat="44.31485" lon="4.046">
        <ele>352</ele>
        <time>2013-04-03T10:57:30Z</time>
      </trkpt>
      <trkpt lat="44.31485" lon="4.046">
        <ele>352</ele>
        <time>2013-04-03T10:57:32Z</time>
      </trkpt>
      <trkpt lat="44.31485" lon="4.046">
        <ele>352</ele>
        <time>2013-04-03T10:57:34Z</time>
      </trkpt>
      <trkpt lat="44.31485" lon="4.046">
        <ele>352</ele>
        <time>2013-04-03T10:57:36Z</time>
      </trkpt>
      <trkpt lat="44.31485" lon="4.046">
        <ele>352</ele>
        <time>2013-04-03T10:57:37Z</time>
      </trkpt>
      <trkpt lat="44.31485" lon="4.046">
        <ele>352</ele>
        <time>2013-04-03T10:57:40Z</time>
      </trkpt>
      <trkpt lat="44.31485" lon="4.046">
        <ele>352</ele>
        <time>2013-04-03T10:57:42Z</time>
      </trkpt>
      <trkpt lat="44.31485" lon="4.046">
        <ele>352</ele>
        <time>2013-04-03T10:57:44Z</time>
      </trkpt>
      <trkpt lat="44.31485" lon="4.046">
        <ele>352</ele>
        <time>2013-04-03T10:57:46Z</time>
      </trkpt>
      <trkpt lat="44.31485" lon="4.046">
        <ele>352</ele>
        <time>2013-04-03T10:57:48Z</time>
      </trkpt>
      <trkpt lat="44.31485" lon="4.046">
        <ele>352</ele>
        <time>2013-04-03T10:57:50Z</time>
      </trkpt>
      <trkpt lat="44.31485" lon="4.046">
        <ele>352</ele>
        <time>2013-04-03T10:57:52Z</time>
      </trkpt>
      <trkpt lat="44.31485" lon="4.046">
        <ele>352</ele>
        <time>2013-04-03T10:57:54Z</time>
      </trkpt>
      <trkpt lat="44.31485" lon="4.046">
        <ele>352</ele>
        <time>2013-04-03T10:57:56Z</time>
      </trkpt>
      <trkpt lat="44.31485" lon="4.046">
        <ele>352</ele>
        <time>2013-04-03T10:57:58Z</time>
      </trkpt>
      <trkpt lat="44.31485" lon="4.046">
        <ele>352</ele>
        <time>2013-04-03T10:57:59Z</time>
      </trkpt>
      <trkpt lat="44.31485" lon="4.046">
        <ele>352</ele>
        <time>2013-04-03T10:58:00Z</time>
      </trkpt>
      <trkpt lat="44.31485" lon="4.046">
        <ele>352</ele>
        <time>2013-04-03T10:58:02Z</time>
      </trkpt>
      <trkpt lat="44.31485" lon="4.046">
        <ele>352</ele>
        <time>2013-04-03T10:58:04Z</time>
      </trkpt>
      <trkpt lat="44.31485" lon="4.046">
        <ele>352</ele>
        <time>2013-04-03T10:58:06Z</time>
      </trkpt>
      <trkpt lat="44.31485" lon="4.046">
        <ele>352</ele>
        <time>2013-04-03T10:58:08Z</time>
      </trkpt>
      <trkpt lat="44.31485" lon="4.046">
        <ele>352</ele>
        <time>2013-04-03T10:58:10Z</time>
      </trkpt>
      <trkpt lat="44.31485" lon="4.046">
        <ele>352</ele>
        <time>2013-04-03T10:58:12Z</time>
      </trkpt>
      <trkpt lat="44.31485" lon="4.046">
        <ele>352</ele>
        <time>2013-04-03T10:58:14Z</time>
      </trkpt>
      <trkpt lat="44.31485" lon="4.046">
        <ele>352</ele>
        <time>2013-04-03T10:58:15Z</time>
      </trkpt>
      <trkpt lat="44.31485" lon="4.046">
        <ele>352</ele>
        <time>2013-04-03T10:58:16Z</time>
      </trkpt>
      <trkpt lat="44.31485" lon="4.046">
        <ele>352</ele>
        <time>2013-04-03T10:58:18Z</time>
      </trkpt>
      <trkpt lat="44.31485" lon="4.046">
        <ele>352</ele>
        <time>2013-04-03T10:58:20Z</time>
      </trkpt>
      <trkpt lat="44.31485" lon="4.046">
        <ele>352</ele>
        <time>2013-04-03T10:58:22Z</time>
      </trkpt>
      <trkpt lat="44.31485" lon="4.046">
        <ele>352</ele>
        <time>2013-04-03T10:58:24Z</time>
      </trkpt>
      <trkpt lat="44.31485" lon="4.046">
        <ele>352</ele>
        <time>2013-04-03T10:58:26Z</time>
      </trkpt>
      <trkpt lat="44.31485" lon="4.046">
        <ele>352</ele>
        <time>2013-04-03T10:58:28Z</time>
      </trkpt>
      <trkpt lat="44.31485" lon="4.046">
        <ele>352</ele>
        <time>2013-04-03T10:58:30Z</time>
      </trkpt>
      <trkpt lat="44.31485" lon="4.046">
        <ele>352</ele>
        <time>2013-04-03T10:58:32Z</time>
      </trkpt>
      <trkpt lat="44.31485" lon="4.046">
        <ele>352</ele>
        <time>2013-04-03T10:58:34Z</time>
      </trkpt>
      <trkpt lat="44.31485" lon="4.046">
        <ele>352</ele>
        <time>2013-04-03T10:58:36Z</time>
      </trkpt>
      <trkpt lat="44.31485" lon="4.046">
        <ele>352</ele>
        <time>2013-04-03T10:58:38Z</time>
      </trkpt>
      <trkpt lat="44.31485" lon="4.046">
        <ele>352</ele>
        <time>2013-04-03T10:58:39Z</time>
      </trkpt>
      <trkpt lat="44.31485" lon="4.046">
        <ele>352</ele>
        <time>2013-04-03T10:58:42Z</time>
      </trkpt>
      <trkpt lat="44.31485" lon="4.046">
        <ele>352</ele>
        <time>2013-04-03T10:58:44Z</time>
      </trkpt>
      <trkpt lat="44.31485" lon="4.046">
        <ele>352</ele>
        <time>2013-04-03T10:58:46Z</time>
      </trkpt>
      <trkpt lat="44.31485" lon="4.046">
        <ele>352</ele>
        <time>2013-04-03T10:58:48Z</time>
      </trkpt>
      <trkpt lat="44.31485" lon="4.046">
        <ele>352</ele>
        <time>2013-04-03T10:58:50Z</time>
      </trkpt>
      <trkpt lat="44.31485" lon="4.046">
        <ele>352</ele>
        <time>2013-04-03T10:58:52Z</time>
      </trkpt>
      <trkpt lat="44.31485" lon="4.046">
        <ele>352</ele>
        <time>2013-04-03T10:58:54Z</time>
      </trkpt>
      <trkpt lat="44.31485" lon="4.046">
        <ele>352</ele>
        <time>2013-04-03T10:58:56Z</time>
      </trkpt>
      <trkpt lat="44.31485" lon="4.046">
        <ele>352</ele>
        <time>2013-04-03T10:58:58Z</time>
      </trkpt>
      <trkpt lat="44.31485" lon="4.046">
        <ele>352</ele>
        <time>2013-04-03T10:58:59Z</time>
      </trkpt>
      <trkpt lat="44.31485" lon="4.046">
        <ele>352</ele>
        <time>2013-04-03T10:59:00Z</time>
      </trkpt>
      <trkpt lat="44.31485" lon="4.046">
        <ele>352</ele>
        <time>2013-04-03T10:59:02Z</time>
      </trkpt>
      <trkpt lat="44.31485" lon="4.046">
        <ele>352</ele>
        <time>2013-04-03T10:59:04Z</time>
      </trkpt>
      <trkpt lat="44.31485" lon="4.046">
        <ele>352</ele>
        <time>2013-04-03T10:59:06Z</time>
      </trkpt>
      <trkpt lat="44.31485" lon="4.046">
        <ele>352</ele>
        <time>2013-04-03T10:59:08Z</time>
      </trkpt>
      <trkpt lat="44.31485" lon="4.046">
        <ele>352</ele>
        <time>2013-04-03T10:59:10Z</time>
      </trkpt>
      <trkpt lat="44.31485" lon="4.046">
        <ele>352</ele>
        <time>2013-04-03T10:59:12Z</time>
      </trkpt>
      <trkpt lat="44.31485" lon="4.046">
        <ele>352</ele>
        <time>2013-04-03T10:59:14Z</time>
      </trkpt>
      <trkpt lat="44.31485" lon="4.046">
        <ele>352</ele>
        <time>2013-04-03T10:59:15Z</time>
      </trkpt>
      <trkpt lat="44.31485" lon="4.046">
        <ele>352</ele>
        <time>2013-04-03T10:59:16Z</time>
      </trkpt>
      <trkpt lat="44.31485" lon="4.046">
        <ele>352</ele>
        <time>2013-04-03T10:59:18Z</time>
      </trkpt>
      <trkpt lat="44.31485" lon="4.046">
        <ele>352</ele>
        <time>2013-04-03T10:59:20Z</time>
      </trkpt>
      <trkpt lat="44.31485" lon="4.046">
        <ele>352</ele>
        <time>2013-04-03T10:59:22Z</time>
      </trkpt>
      <trkpt lat="44.31485" lon="4.046">
        <ele>352</ele>
        <time>2013-04-03T10:59:24Z</time>
      </trkpt>
      <trkpt lat="44.31485" lon="4.046">
        <ele>352</ele>
        <time>2013-04-03T10:59:26Z</time>
      </trkpt>
      <trkpt lat="44.31485" lon="4.046">
        <ele>352</ele>
        <time>2013-04-03T10:59:28Z</time>
      </trkpt>
      <trkpt lat="44.31485" lon="4.046">
        <ele>352</ele>
        <time>2013-04-03T10:59:30Z</time>
      </trkpt>
      <trkpt lat="44.31485" lon="4.046">
        <ele>352</ele>
        <time>2013-04-03T10:59:32Z</time>
      </trkpt>
      <trkpt lat="44.31485" lon="4.046">
        <ele>352</ele>
        <time>2013-04-03T10:59:34Z</time>
      </trkpt>
      <trkpt lat="44.31485" lon="4.046">
        <ele>352</ele>
        <time>2013-04-03T10:59:36Z</time>
      </trkpt>
      <trkpt lat="44.31485" lon="4.046">
        <ele>352</ele>
        <time>2013-04-03T10:59:38Z</time>
      </trkpt>
      <trkpt lat="44.31485" lon="4.046">
        <ele>352</ele>
        <time>2013-04-03T10:59:40Z</time>
      </trkpt>
      <trkpt lat="44.31485" lon="4.046">
        <ele>352</ele>
        <time>2013-04-03T10:59:41Z</time>
      </trkpt>
      <trkpt lat="44.31485" lon="4.046">
        <ele>352</ele>
        <time>2013-04-03T10:59:44Z</time>
      </trkpt>
      <trkpt lat="44.31485" lon="4.046">
        <ele>352</ele>
        <time>2013-04-03T10:59:46Z</time>
      </trkpt>
      <trkpt lat="44.31485" lon="4.046">
        <ele>352</ele>
        <time>2013-04-03T10:59:48Z</time>
      </trkpt>
      <trkpt lat="44.31485" lon="4.046">
        <ele>352</ele>
        <time>2013-04-03T10:59:50Z</time>
      </trkpt>
      <trkpt lat="44.31485" lon="4.046">
        <ele>352</ele>
        <time>2013-04-03T10:59:52Z</time>
      </trkpt>
      <trkpt lat="44.31485" lon="4.046">
        <ele>352</ele>
        <time>2013-04-03T10:59:54Z</time>
      </trkpt>
      <trkpt lat="44.31485" lon="4.046">
        <ele>352</ele>
        <time>2013-04-03T10:59:56Z</time>
      </trkpt>
      <trkpt lat="44.31485" lon="4.04602">
        <ele>352</ele>
        <time>2013-04-03T10:59:58Z</time>
      </trkpt>
      <trkpt lat="44.31486" lon="4.04602">
        <ele>352</ele>
        <time>2013-04-03T10:59:59Z</time>
      </trkpt>
      <trkpt lat="44.31486" lon="4.04602">
        <ele>352</ele>
        <time>2013-04-03T11:00:00Z</time>
      </trkpt>
      <trkpt lat="44.31486" lon="4.04603">
        <ele>353</ele>
        <time>2013-04-03T11:00:02Z</time>
      </trkpt>
      <trkpt lat="44.31486" lon="4.04604">
        <ele>353</ele>
        <time>2013-04-03T11:00:04Z</time>
      </trkpt>
      <trkpt lat="44.31487" lon="4.04606">
        <ele>353</ele>
        <time>2013-04-03T11:00:06Z</time>
      </trkpt>
      <trkpt lat="44.31488" lon="4.04608">
        <ele>354</ele>
        <time>2013-04-03T11:00:08Z</time>
      </trkpt>
      <trkpt lat="44.31489" lon="4.04611">
        <ele>354</ele>
        <time>2013-04-03T11:00:10Z</time>
      </trkpt>
      <trkpt lat="44.31489" lon="4.04613">
        <ele>355</ele>
        <time>2013-04-03T11:00:12Z</time>
      </trkpt>
      <trkpt lat="44.31489" lon="4.04614">
        <ele>355</ele>
        <time>2013-04-03T11:00:14Z</time>
      </trkpt>
      <trkpt lat="44.31489" lon="4.04614">
        <ele>355</ele>
        <time>2013-04-03T11:00:15Z</time>
      </trkpt>
      <trkpt lat="44.31489" lon="4.04614">
        <ele>355</ele>
        <time>2013-04-03T11:00:16Z</time>
      </trkpt>
      <trkpt lat="44.31489" lon="4.04615">
        <ele>355</ele>
        <time>2013-04-03T11:00:18Z</time>
      </trkpt>
      <trkpt lat="44.3149" lon="4.04618">
        <ele>355</ele>
        <time>2013-04-03T11:00:20Z</time>
      </trkpt>
      <trkpt lat="44.3149" lon="4.04619">
        <ele>355</ele>
        <time>2013-04-03T11:00:22Z</time>
      </trkpt>
      <trkpt lat="44.3149" lon="4.0462">
        <ele>355</ele>
        <time>2013-04-03T11:00:24Z</time>
      </trkpt>
      <trkpt lat="44.3149" lon="4.0462">
        <ele>355</ele>
        <time>2013-04-03T11:00:26Z</time>
      </trkpt>
      <trkpt lat="44.3149" lon="4.0462">
        <ele>355</ele>
        <time>2013-04-03T11:00:28Z</time>
      </trkpt>
      <trkpt lat="44.3149" lon="4.0462">
        <ele>355</ele>
        <time>2013-04-03T11:00:30Z</time>
      </trkpt>
      <trkpt lat="44.3149" lon="4.04621">
        <ele>355</ele>
        <time>2013-04-03T11:00:32Z</time>
      </trkpt>
      <trkpt lat="44.31491" lon="4.04623">
        <ele>355</ele>
        <time>2013-04-03T11:00:34Z</time>
      </trkpt>
      <trkpt lat="44.31492" lon="4.04626">
        <ele>356</ele>
        <time>2013-04-03T11:00:36Z</time>
      </trkpt>
      <trkpt lat="44.31493" lon="4.04629">
        <ele>356</ele>
        <time>2013-04-03T11:00:38Z</time>
      </trkpt>
      <trkpt lat="44.31493" lon="4.04632">
        <ele>357</ele>
        <time>2013-04-03T11:00:40Z</time>
      </trkpt>
      <trkpt lat="44.31494" lon="4.04635">
        <ele>357</ele>
        <time>2013-04-03T11:00:42Z</time>
      </trkpt>
      <trkpt lat="44.31495" lon="4.04636">
        <ele>357</ele>
        <time>2013-04-03T11:00:43Z</time>
      </trkpt>
      <trkpt lat="44.31496" lon="4.0464">
        <ele>357</ele>
        <time>2013-04-03T11:00:46Z</time>
      </trkpt>
      <trkpt lat="44.31497" lon="4.04643">
        <ele>357</ele>
        <time>2013-04-03T11:00:48Z</time>
      </trkpt>
      <trkpt lat="44.31498" lon="4.04645">
        <ele>358</ele>
        <time>2013-04-03T11:00:50Z</time>
      </trkpt>
      <trkpt lat="44.31499" lon="4.04647">
        <ele>358</ele>
        <time>2013-04-03T11:00:52Z</time>
      </trkpt>
      <trkpt lat="44.31499" lon="4.0465">
        <ele>358</ele>
        <time>2013-04-03T11:00:54Z</time>
      </trkpt>
      <trkpt lat="44.315" lon="4.04654">
        <ele>358</ele>
        <time>2013-04-03T11:00:56Z</time>
      </trkpt>
      <trkpt lat="44.31501" lon="4.04656">
        <ele>358</ele>
        <time>2013-04-03T11:00:58Z</time>
      </trkpt>
      <trkpt lat="44.31501" lon="4.04656">
        <ele>358</ele>
        <time>2013-04-03T11:00:59Z</time>
      </trkpt>
      <trkpt lat="44.31502" lon="4.04657">
        <ele>358</ele>
        <time>2013-04-03T11:01:00Z</time>
      </trkpt>
      <trkpt lat="44.31502" lon="4.04659">
        <ele>358</ele>
        <time>2013-04-03T11:01:02Z</time>
      </trkpt>
      <trkpt lat="44.31503" lon="4.04662">
        <ele>358</ele>
        <time>2013-04-03T11:01:04Z</time>
      </trkpt>
      <trkpt lat="44.31504" lon="4.04665">
        <ele>358</ele>
        <time>2013-04-03T11:01:06Z</time>
      </trkpt>
      <trkpt lat="44.31504" lon="4.04669">
        <ele>358</ele>
        <time>2013-04-03T11:01:08Z</time>
      </trkpt>
      <trkpt lat="44.31505" lon="4.04672">
        <ele>359</ele>
        <time>2013-04-03T11:01:10Z</time>
      </trkpt>
      <trkpt lat="44.31506" lon="4.04676">
        <ele>358</ele>
        <time>2013-04-03T11:01:12Z</time>
      </trkpt>
      <trkpt lat="44.31507" lon="4.04679">
        <ele>358</ele>
        <time>2013-04-03T11:01:14Z</time>
      </trkpt>
      <trkpt lat="44.31507" lon="4.04681">
        <ele>358</ele>
        <time>2013-04-03T11:01:15Z</time>
      </trkpt>
      <trkpt lat="44.31508" lon="4.04682">
        <ele>358</ele>
        <time>2013-04-03T11:01:16Z</time>
      </trkpt>
      <trkpt lat="44.31508" lon="4.04684">
        <ele>357</ele>
        <time>2013-04-03T11:01:18Z</time>
      </trkpt>
      <trkpt lat="44.31509" lon="4.04687">
        <ele>358</ele>
        <time>2013-04-03T11:01:20Z</time>
      </trkpt>
      <trkpt lat="44.31509" lon="4.04689">
        <ele>358</ele>
        <time>2013-04-03T11:01:22Z</time>
      </trkpt>
      <trkpt lat="44.3151" lon="4.04691">
        <ele>358</ele>
        <time>2013-04-03T11:01:24Z</time>
      </trkpt>
      <trkpt lat="44.3151" lon="4.04693">
        <ele>359</ele>
        <time>2013-04-03T11:01:26Z</time>
      </trkpt>
      <trkpt lat="44.31511" lon="4.04695">
        <ele>359</ele>
        <time>2013-04-03T11:01:28Z</time>
      </trkpt>
      <trkpt lat="44.31511" lon="4.04698">
        <ele>359</ele>
        <time>2013-04-03T11:01:30Z</time>
      </trkpt>
      <trkpt lat="44.3151" lon="4.04701">
        <ele>359</ele>
        <time>2013-04-03T11:01:32Z</time>
      </trkpt>
      <trkpt lat="44.3151" lon="4.04704">
        <ele>357</ele>
        <time>2013-04-03T11:01:34Z</time>
      </trkpt>
      <trkpt lat="44.31511" lon="4.04707">
        <ele>357</ele>
        <time>2013-04-03T11:01:36Z</time>
      </trkpt>
      <trkpt lat="44.31512" lon="4.04709">
        <ele>357</ele>
        <time>2013-04-03T11:01:38Z</time>
      </trkpt>
      <trkpt lat="44.31512" lon="4.0471">
        <ele>357</ele>
        <time>2013-04-03T11:01:40Z</time>
      </trkpt>
      <trkpt lat="44.31512" lon="4.0471">
        <ele>358</ele>
        <time>2013-04-03T11:01:42Z</time>
      </trkpt>
      <trkpt lat="44.31512" lon="4.04713">
        <ele>358</ele>
        <time>2013-04-03T11:01:44Z</time>
      </trkpt>
      <trkpt lat="44.31512" lon="4.04715">
        <ele>358</ele>
        <time>2013-04-03T11:01:45Z</time>
      </trkpt>
      <trkpt lat="44.31514" lon="4.04719">
        <ele>358</ele>
        <time>2013-04-03T11:01:48Z</time>
      </trkpt>
      <trkpt lat="44.31514" lon="4.04722">
        <ele>358</ele>
        <time>2013-04-03T11:01:50Z</time>
      </trkpt>
      <trkpt lat="44.31515" lon="4.04724">
        <ele>358</ele>
        <time>2013-04-03T11:01:52Z</time>
      </trkpt>
      <trkpt lat="44.31516" lon="4.04727">
        <ele>357</ele>
        <time>2013-04-03T11:01:54Z</time>
      </trkpt>
      <trkpt lat="44.31516" lon="4.04728">
        <ele>357</ele>
        <time>2013-04-03T11:01:56Z</time>
      </trkpt>
      <trkpt lat="44.31515" lon="4.0473">
        <ele>357</ele>
        <time>2013-04-03T11:01:58Z</time>
      </trkpt>
      <trkpt lat="44.31515" lon="4.04731">
        <ele>357</ele>
        <time>2013-04-03T11:01:59Z</time>
      </trkpt>
      <trkpt lat="44.31515" lon="4.04733">
        <ele>357</ele>
        <time>2013-04-03T11:02:00Z</time>
      </trkpt>
      <trkpt lat="44.31515" lon="4.04737">
        <ele>358</ele>
        <time>2013-04-03T11:02:02Z</time>
      </trkpt>
      <trkpt lat="44.31515" lon="4.0474">
        <ele>358</ele>
        <time>2013-04-03T11:02:04Z</time>
      </trkpt>
      <trkpt lat="44.31515" lon="4.0474">
        <ele>358</ele>
        <time>2013-04-03T11:02:06Z</time>
      </trkpt>
      <trkpt lat="44.31515" lon="4.04743">
        <ele>358</ele>
        <time>2013-04-03T11:02:08Z</time>
      </trkpt>
      <trkpt lat="44.31515" lon="4.04746">
        <ele>358</ele>
        <time>2013-04-03T11:02:10Z</time>
      </trkpt>
      <trkpt lat="44.31516" lon="4.04749">
        <ele>358</ele>
        <time>2013-04-03T11:02:12Z</time>
      </trkpt>
      <trkpt lat="44.31516" lon="4.04752">
        <ele>358</ele>
        <time>2013-04-03T11:02:14Z</time>
      </trkpt>
      <trkpt lat="44.31517" lon="4.04754">
        <ele>359</ele>
        <time>2013-04-03T11:02:15Z</time>
      </trkpt>
      <trkpt lat="44.31517" lon="4.04755">
        <ele>359</ele>
        <time>2013-04-03T11:02:16Z</time>
      </trkpt>
      <trkpt lat="44.31517" lon="4.04758">
        <ele>359</ele>
        <time>2013-04-03T11:02:18Z</time>
      </trkpt>
      <trkpt lat="44.31517" lon="4.0476">
        <ele>360</ele>
        <time>2013-04-03T11:02:20Z</time>
      </trkpt>
      <trkpt lat="44.31517" lon="4.04763">
        <ele>360</ele>
        <time>2013-04-03T11:02:22Z</time>
      </trkpt>
      <trkpt lat="44.31517" lon="4.04767">
        <ele>360</ele>
        <time>2013-04-03T11:02:24Z</time>
      </trkpt>
      <trkpt lat="44.31518" lon="4.04771">
        <ele>360</ele>
        <time>2013-04-03T11:02:26Z</time>
      </trkpt>
      <trkpt lat="44.31518" lon="4.04772">
        <ele>360</ele>
        <time>2013-04-03T11:02:28Z</time>
      </trkpt>
      <trkpt lat="44.31519" lon="4.04776">
        <ele>360</ele>
        <time>2013-04-03T11:02:30Z</time>
      </trkpt>
      <trkpt lat="44.31519" lon="4.0478">
        <ele>360</ele>
        <time>2013-04-03T11:02:32Z</time>
      </trkpt>
      <trkpt lat="44.3152" lon="4.04782">
        <ele>359</ele>
        <time>2013-04-03T11:02:34Z</time>
      </trkpt>
      <trkpt lat="44.3152" lon="4.04785">
        <ele>359</ele>
        <time>2013-04-03T11:02:36Z</time>
      </trkpt>
      <trkpt lat="44.31521" lon="4.04789">
        <ele>360</ele>
        <time>2013-04-03T11:02:38Z</time>
      </trkpt>
      <trkpt lat="44.31521" lon="4.04793">
        <ele>360</ele>
        <time>2013-04-03T11:02:40Z</time>
      </trkpt>
      <trkpt lat="44.31521" lon="4.04797">
        <ele>360</ele>
        <time>2013-04-03T11:02:42Z</time>
      </trkpt>
      <trkpt lat="44.31522" lon="4.048">
        <ele>360</ele>
        <time>2013-04-03T11:02:44Z</time>
      </trkpt>
      <trkpt lat="44.31521" lon="4.04801">
        <ele>360</ele>
        <time>2013-04-03T11:02:46Z</time>
      </trkpt>
      <trkpt lat="44.31522" lon="4.04803">
        <ele>359</ele>
        <time>2013-04-03T11:02:47Z</time>
      </trkpt>
      <trkpt lat="44.31522" lon="4.04808">
        <ele>360</ele>
        <time>2013-04-03T11:02:50Z</time>
      </trkpt>
      <trkpt lat="44.31522" lon="4.04812">
        <ele>359</ele>
        <time>2013-04-03T11:02:52Z</time>
      </trkpt>
      <trkpt lat="44.31522" lon="4.04813">
        <ele>359</ele>
        <time>2013-04-03T11:02:54Z</time>
      </trkpt>
      <trkpt lat="44.31523" lon="4.04816">
        <ele>359</ele>
        <time>2013-04-03T11:02:56Z</time>
      </trkpt>
      <trkpt lat="44.31523" lon="4.04818">
        <ele>360</ele>
        <time>2013-04-03T11:02:58Z</time>
      </trkpt>
      <trkpt lat="44.31523" lon="4.0482">
        <ele>360</ele>
        <time>2013-04-03T11:02:59Z</time>
      </trkpt>
      <trkpt lat="44.31523" lon="4.04821">
        <ele>360</ele>
        <time>2013-04-03T11:03:00Z</time>
      </trkpt>
      <trkpt lat="44.31524" lon="4.04825">
        <ele>360</ele>
        <time>2013-04-03T11:03:02Z</time>
      </trkpt>
      <trkpt lat="44.31523" lon="4.04828">
        <ele>360</ele>
        <time>2013-04-03T11:03:04Z</time>
      </trkpt>
      <trkpt lat="44.31523" lon="4.0483">
        <ele>360</ele>
        <time>2013-04-03T11:03:06Z</time>
      </trkpt>
      <trkpt lat="44.31523" lon="4.04834">
        <ele>360</ele>
        <time>2013-04-03T11:03:08Z</time>
      </trkpt>
      <trkpt lat="44.31523" lon="4.04837">
        <ele>360</ele>
        <time>2013-04-03T11:03:10Z</time>
      </trkpt>
      <trkpt lat="44.31524" lon="4.04839">
        <ele>359</ele>
        <time>2013-04-03T11:03:12Z</time>
      </trkpt>
      <trkpt lat="44.31525" lon="4.04841">
        <ele>359</ele>
        <time>2013-04-03T11:03:14Z</time>
      </trkpt>
      <trkpt lat="44.31525" lon="4.04843">
        <ele>358</ele>
        <time>2013-04-03T11:03:15Z</time>
      </trkpt>
      <trkpt lat="44.31526" lon="4.04845">
        <ele>358</ele>
        <time>2013-04-03T11:03:16Z</time>
      </trkpt>
      <trkpt lat="44.31526" lon="4.04848">
        <ele>359</ele>
        <time>2013-04-03T11:03:18Z</time>
      </trkpt>
      <trkpt lat="44.31526" lon="4.0485">
        <ele>358</ele>
        <time>2013-04-03T11:03:20Z</time>
      </trkpt>
      <trkpt lat="44.31526" lon="4.04853">
        <ele>357</ele>
        <time>2013-04-03T11:03:22Z</time>
      </trkpt>
      <trkpt lat="44.31527" lon="4.04856">
        <ele>356</ele>
        <time>2013-04-03T11:03:24Z</time>
      </trkpt>
      <trkpt lat="44.31528" lon="4.04859">
        <ele>356</ele>
        <time>2013-04-03T11:03:26Z</time>
      </trkpt>
      <trkpt lat="44.31529" lon="4.04861">
        <ele>355</ele>
        <time>2013-04-03T11:03:28Z</time>
      </trkpt>
      <trkpt lat="44.3153" lon="4.04864">
        <ele>355</ele>
        <time>2013-04-03T11:03:30Z</time>
      </trkpt>
      <trkpt lat="44.3153" lon="4.04865">
        <ele>355</ele>
        <time>2013-04-03T11:03:32Z</time>
      </trkpt>
      <trkpt lat="44.31531" lon="4.04868">
        <ele>356</ele>
        <time>2013-04-03T11:03:34Z</time>
      </trkpt>
      <trkpt lat="44.31531" lon="4.0487">
        <ele>354</ele>
        <time>2013-04-03T11:03:36Z</time>
      </trkpt>
      <trkpt lat="44.31532" lon="4.04871">
        <ele>354</ele>
        <time>2013-04-03T11:03:38Z</time>
      </trkpt>
      <trkpt lat="44.31533" lon="4.04874">
        <ele>354</ele>
        <time>2013-04-03T11:03:40Z</time>
      </trkpt>
      <trkpt lat="44.31534" lon="4.04877">
        <ele>353</ele>
        <time>2013-04-03T11:03:42Z</time>
      </trkpt>
      <trkpt lat="44.31534" lon="4.04878">
        <ele>353</ele>
        <time>2013-04-03T11:03:44Z</time>
      </trkpt>
      <trkpt lat="44.31535" lon="4.04881">
        <ele>353</ele>
        <time>2013-04-03T11:03:46Z</time>
      </trkpt>
      <trkpt lat="44.31536" lon="4.04884">
        <ele>353</ele>
        <time>2013-04-03T11:03:48Z</time>
      </trkpt>
      <trkpt lat="44.31538" lon="4.04886">
        <ele>353</ele>
        <time>2013-04-03T11:03:49Z</time>
      </trkpt>
      <trkpt lat="44.3154" lon="4.04889">
        <ele>352</ele>
        <time>2013-04-03T11:03:52Z</time>
      </trkpt>
      <trkpt lat="44.31542" lon="4.04892">
        <ele>351</ele>
        <time>2013-04-03T11:03:54Z</time>
      </trkpt>
      <trkpt lat="44.31544" lon="4.04895">
        <ele>351</ele>
        <time>2013-04-03T11:03:56Z</time>
      </trkpt>
      <trkpt lat="44.31546" lon="4.04898">
        <ele>351</ele>
        <time>2013-04-03T11:03:58Z</time>
      </trkpt>
      <trkpt lat="44.31546" lon="4.04898">
        <ele>351</ele>
        <time>2013-04-03T11:03:59Z</time>
      </trkpt>
      <trkpt lat="44.31547" lon="4.04899">
        <ele>351</ele>
        <time>2013-04-03T11:04:00Z</time>
      </trkpt>
      <trkpt lat="44.31548" lon="4.04902">
        <ele>350</ele>
        <time>2013-04-03T11:04:02Z</time>
      </trkpt>
      <trkpt lat="44.31549" lon="4.04903">
        <ele>350</ele>
        <time>2013-04-03T11:04:04Z</time>
      </trkpt>
      <trkpt lat="44.31552" lon="4.04906">
        <ele>349</ele>
        <time>2013-04-03T11:04:06Z</time>
      </trkpt>
      <trkpt lat="44.31554" lon="4.0491">
        <ele>348</ele>
        <time>2013-04-03T11:04:08Z</time>
      </trkpt>
      <trkpt lat="44.31555" lon="4.04911">
        <ele>347</ele>
        <time>2013-04-03T11:04:10Z</time>
      </trkpt>
      <trkpt lat="44.31555" lon="4.04913">
        <ele>347</ele>
        <time>2013-04-03T11:04:12Z</time>
      </trkpt>
      <trkpt lat="44.31556" lon="4.04914">
        <ele>347</ele>
        <time>2013-04-03T11:04:14Z</time>
      </trkpt>
      <trkpt lat="44.31557" lon="4.04915">
        <ele>348</ele>
        <time>2013-04-03T11:04:15Z</time>
      </trkpt>
      <trkpt lat="44.31559" lon="4.04916">
        <ele>348</ele>
        <time>2013-04-03T11:04:16Z</time>
      </trkpt>
      <trkpt lat="44.3156" lon="4.04919">
        <ele>349</ele>
        <time>2013-04-03T11:04:18Z</time>
      </trkpt>
      <trkpt lat="44.31561" lon="4.04922">
        <ele>349</ele>
        <time>2013-04-03T11:04:20Z</time>
      </trkpt>
      <trkpt lat="44.31563" lon="4.04925">
        <ele>348</ele>
        <time>2013-04-03T11:04:22Z</time>
      </trkpt>
      <trkpt lat="44.31564" lon="4.04926">
        <ele>349</ele>
        <time>2013-04-03T11:04:24Z</time>
      </trkpt>
      <trkpt lat="44.31565" lon="4.04927">
        <ele>348</ele>
        <time>2013-04-03T11:04:26Z</time>
      </trkpt>
      <trkpt lat="44.31567" lon="4.0493">
        <ele>348</ele>
        <time>2013-04-03T11:04:28Z</time>
      </trkpt>
      <trkpt lat="44.31567" lon="4.0493">
        <ele>348</ele>
        <time>2013-04-03T11:04:30Z</time>
      </trkpt>
      <trkpt lat="44.31567" lon="4.04931">
        <ele>348</ele>
        <time>2013-04-03T11:04:32Z</time>
      </trkpt>
      <trkpt lat="44.31569" lon="4.04933">
        <ele>349</ele>
        <time>2013-04-03T11:04:34Z</time>
      </trkpt>
      <trkpt lat="44.3157" lon="4.04934">
        <ele>348</ele>
        <time>2013-04-03T11:04:36Z</time>
      </trkpt>
      <trkpt lat="44.3157" lon="4.04935">
        <ele>348</ele>
        <time>2013-04-03T11:04:38Z</time>
      </trkpt>
      <trkpt lat="44.3157" lon="4.04935">
        <ele>348</ele>
        <time>2013-04-03T11:04:40Z</time>
      </trkpt>
      <trkpt lat="44.31572" lon="4.04936">
        <ele>348</ele>
        <time>2013-04-03T11:04:42Z</time>
      </trkpt>
      <trkpt lat="44.31572" lon="4.04936">
        <ele>348</ele>
        <time>2013-04-03T11:04:44Z</time>
      </trkpt>
      <trkpt lat="44.31572" lon="4.04937">
        <ele>349</ele>
        <time>2013-04-03T11:04:46Z</time>
      </trkpt>
      <trkpt lat="44.31574" lon="4.04938">
        <ele>348</ele>
        <time>2013-04-03T11:04:48Z</time>
      </trkpt>
      <trkpt lat="44.31574" lon="4.04938">
        <ele>348</ele>
        <time>2013-04-03T11:04:50Z</time>
      </trkpt>
      <trkpt lat="44.31575" lon="4.04939">
        <ele>348</ele>
        <time>2013-04-03T11:04:51Z</time>
      </trkpt>
      <trkpt lat="44.31576" lon="4.04939">
        <ele>347</ele>
        <time>2013-04-03T11:04:54Z</time>
      </trkpt>
      <trkpt lat="44.31577" lon="4.04941">
        <ele>347</ele>
        <time>2013-04-03T11:04:56Z</time>
      </trkpt>
      <trkpt lat="44.31578" lon="4.04941">
        <ele>346</ele>
        <time>2013-04-03T11:04:58Z</time>
      </trkpt>
      <trkpt lat="44.31578" lon="4.04942">
        <ele>346</ele>
        <time>2013-04-03T11:04:59Z</time>
      </trkpt>
      <trkpt lat="44.3158" lon="4.04943">
        <ele>345</ele>
        <time>2013-04-03T11:05:00Z</time>
      </trkpt>
      <trkpt lat="44.31582" lon="4.04944">
        <ele>344</ele>
        <time>2013-04-03T11:05:02Z</time>
      </trkpt>
      <trkpt lat="44.31585" lon="4.04945">
        <ele>343</ele>
        <time>2013-04-03T11:05:04Z</time>
      </trkpt>
      <trkpt lat="44.31587" lon="4.04945">
        <ele>342</ele>
        <time>2013-04-03T11:05:06Z</time>
      </trkpt>
      <trkpt lat="44.31588" lon="4.04946">
        <ele>341</ele>
        <time>2013-04-03T11:05:08Z</time>
      </trkpt>
      <trkpt lat="44.31589" lon="4.04946">
        <ele>342</ele>
        <time>2013-04-03T11:05:10Z</time>
      </trkpt>
      <trkpt lat="44.31592" lon="4.04946">
        <ele>341</ele>
        <time>2013-04-03T11:05:12Z</time>
      </trkpt>
      <trkpt lat="44.31594" lon="4.04946">
        <ele>341</ele>
        <time>2013-04-03T11:05:14Z</time>
      </trkpt>
      <trkpt lat="44.31595" lon="4.04946">
        <ele>341</ele>
        <time>2013-04-03T11:05:15Z</time>
      </trkpt>
      <trkpt lat="44.31597" lon="4.04946">
        <ele>341</ele>
        <time>2013-04-03T11:05:16Z</time>
      </trkpt>
      <trkpt lat="44.31598" lon="4.04947">
        <ele>341</ele>
        <time>2013-04-03T11:05:18Z</time>
      </trkpt>
      <trkpt lat="44.316" lon="4.04947">
        <ele>342</ele>
        <time>2013-04-03T11:05:20Z</time>
      </trkpt>
      <trkpt lat="44.31602" lon="4.04948">
        <ele>341</ele>
        <time>2013-04-03T11:05:22Z</time>
      </trkpt>
      <trkpt lat="44.31603" lon="4.04948">
        <ele>341</ele>
        <time>2013-04-03T11:05:24Z</time>
      </trkpt>
      <trkpt lat="44.31605" lon="4.04947">
        <ele>339</ele>
        <time>2013-04-03T11:05:26Z</time>
      </trkpt>
      <trkpt lat="44.31606" lon="4.04945">
        <ele>338</ele>
        <time>2013-04-03T11:05:28Z</time>
      </trkpt>
      <trkpt lat="44.31608" lon="4.04944">
        <ele>338</ele>
        <time>2013-04-03T11:05:30Z</time>
      </trkpt>
      <trkpt lat="44.3161" lon="4.04943">
        <ele>337</ele>
        <time>2013-04-03T11:05:32Z</time>
      </trkpt>
      <trkpt lat="44.31611" lon="4.04943">
        <ele>337</ele>
        <time>2013-04-03T11:05:34Z</time>
      </trkpt>
      <trkpt lat="44.31613" lon="4.04942">
        <ele>336</ele>
        <time>2013-04-03T11:05:36Z</time>
      </trkpt>
      <trkpt lat="44.31614" lon="4.04942">
        <ele>335</ele>
        <time>2013-04-03T11:05:38Z</time>
      </trkpt>
      <trkpt lat="44.31615" lon="4.04941">
        <ele>334</ele>
        <time>2013-04-03T11:05:40Z</time>
      </trkpt>
      <trkpt lat="44.31617" lon="4.04941">
        <ele>334</ele>
        <time>2013-04-03T11:05:42Z</time>
      </trkpt>
      <trkpt lat="44.31617" lon="4.0494">
        <ele>334</ele>
        <time>2013-04-03T11:05:44Z</time>
      </trkpt>
      <trkpt lat="44.31619" lon="4.04939">
        <ele>333</ele>
        <time>2013-04-03T11:05:46Z</time>
      </trkpt>
      <trkpt lat="44.31619" lon="4.04939">
        <ele>333</ele>
        <time>2013-04-03T11:05:48Z</time>
      </trkpt>
      <trkpt lat="44.3162" lon="4.04937">
        <ele>332</ele>
        <time>2013-04-03T11:05:50Z</time>
      </trkpt>
      <trkpt lat="44.31622" lon="4.04935">
        <ele>331</ele>
        <time>2013-04-03T11:05:52Z</time>
      </trkpt>
      <trkpt lat="44.31623" lon="4.04934">
        <ele>331</ele>
        <time>2013-04-03T11:05:53Z</time>
      </trkpt>
      <trkpt lat="44.31624" lon="4.04932">
        <ele>330</ele>
        <time>2013-04-03T11:05:56Z</time>
      </trkpt>
      <trkpt lat="44.31626" lon="4.0493">
        <ele>330</ele>
        <time>2013-04-03T11:05:58Z</time>
      </trkpt>
      <trkpt lat="44.31626" lon="4.04929">
        <ele>329</ele>
        <time>2013-04-03T11:05:59Z</time>
      </trkpt>
      <trkpt lat="44.31626" lon="4.04929">
        <ele>329</ele>
        <time>2013-04-03T11:06:00Z</time>
      </trkpt>
      <trkpt lat="44.31627" lon="4.04929">
        <ele>329</ele>
        <time>2013-04-03T11:06:02Z</time>
      </trkpt>
      <trkpt lat="44.31627" lon="4.04929">
        <ele>329</ele>
        <time>2013-04-03T11:06:04Z</time>
      </trkpt>
      <trkpt lat="44.31627" lon="4.04929">
        <ele>329</ele>
        <time>2013-04-03T11:06:06Z</time>
      </trkpt>
      <trkpt lat="44.31628" lon="4.04928">
        <ele>329</ele>
        <time>2013-04-03T11:06:08Z</time>
      </trkpt>
      <trkpt lat="44.31629" lon="4.04927">
        <ele>328</ele>
        <time>2013-04-03T11:06:10Z</time>
      </trkpt>
      <trkpt lat="44.31629" lon="4.04927">
        <ele>329</ele>
        <time>2013-04-03T11:06:12Z</time>
      </trkpt>
      <trkpt lat="44.3163" lon="4.04926">
        <ele>329</ele>
        <time>2013-04-03T11:06:14Z</time>
      </trkpt>
      <trkpt lat="44.3163" lon="4.04925">
        <ele>328</ele>
        <time>2013-04-03T11:06:15Z</time>
      </trkpt>
      <trkpt lat="44.3163" lon="4.04924">
        <ele>328</ele>
        <time>2013-04-03T11:06:16Z</time>
      </trkpt>
      <trkpt lat="44.31631" lon="4.04923">
        <ele>327</ele>
        <time>2013-04-03T11:06:18Z</time>
      </trkpt>
      <trkpt lat="44.31633" lon="4.04921">
        <ele>327</ele>
        <time>2013-04-03T11:06:20Z</time>
      </trkpt>
      <trkpt lat="44.31634" lon="4.0492">
        <ele>327</ele>
        <time>2013-04-03T11:06:22Z</time>
      </trkpt>
      <trkpt lat="44.31635" lon="4.04919">
        <ele>327</ele>
        <time>2013-04-03T11:06:24Z</time>
      </trkpt>
      <trkpt lat="44.31637" lon="4.04917">
        <ele>326</ele>
        <time>2013-04-03T11:06:26Z</time>
      </trkpt>
      <trkpt lat="44.31639" lon="4.04915">
        <ele>325</ele>
        <time>2013-04-03T11:06:28Z</time>
      </trkpt>
      <trkpt lat="44.3164" lon="4.04912">
        <ele>324</ele>
        <time>2013-04-03T11:06:30Z</time>
      </trkpt>
      <trkpt lat="44.31641" lon="4.04909">
        <ele>323</ele>
        <time>2013-04-03T11:06:32Z</time>
      </trkpt>
      <trkpt lat="44.31642" lon="4.04909">
        <ele>323</ele>
        <time>2013-04-03T11:06:34Z</time>
      </trkpt>
      <trkpt lat="44.31643" lon="4.04908">
        <ele>323</ele>
        <time>2013-04-03T11:06:36Z</time>
      </trkpt>
      <trkpt lat="44.31645" lon="4.04906">
        <ele>322</ele>
        <time>2013-04-03T11:06:38Z</time>
      </trkpt>
      <trkpt lat="44.31646" lon="4.04904">
        <ele>321</ele>
        <time>2013-04-03T11:06:40Z</time>
      </trkpt>
      <trkpt lat="44.31647" lon="4.04903">
        <ele>321</ele>
        <time>2013-04-03T11:06:42Z</time>
      </trkpt>
      <trkpt lat="44.31647" lon="4.04903">
        <ele>320</ele>
        <time>2013-04-03T11:06:44Z</time>
      </trkpt>
      <trkpt lat="44.31647" lon="4.04903">
        <ele>320</ele>
        <time>2013-04-03T11:06:46Z</time>
      </trkpt>
      <trkpt lat="44.31649" lon="4.04902">
        <ele>320</ele>
        <time>2013-04-03T11:06:48Z</time>
      </trkpt>
      <trkpt lat="44.31651" lon="4.049">
        <ele>320</ele>
        <time>2013-04-03T11:06:50Z</time>
      </trkpt>
      <trkpt lat="44.31652" lon="4.04899">
        <ele>320</ele>
        <time>2013-04-03T11:06:52Z</time>
      </trkpt>
      <trkpt lat="44.31654" lon="4.04898">
        <ele>320</ele>
        <time>2013-04-03T11:06:54Z</time>
      </trkpt>
      <trkpt lat="44.31655" lon="4.04897">
        <ele>320</ele>
        <time>2013-04-03T11:06:55Z</time>
      </trkpt>
      <trkpt lat="44.31658" lon="4.04895">
        <ele>320</ele>
        <time>2013-04-03T11:06:58Z</time>
      </trkpt>
      <trkpt lat="44.3166" lon="4.04894">
        <ele>319</ele>
        <time>2013-04-03T11:06:59Z</time>
      </trkpt>
      <trkpt lat="44.31661" lon="4.04893">
        <ele>319</ele>
        <time>2013-04-03T11:07:00Z</time>
      </trkpt>
      <trkpt lat="44.31662" lon="4.04893">
        <ele>319</ele>
        <time>2013-04-03T11:07:02Z</time>
      </trkpt>
      <trkpt lat="44.31663" lon="4.04893">
        <ele>320</ele>
        <time>2013-04-03T11:07:04Z</time>
      </trkpt>
      <trkpt lat="44.31665" lon="4.04892">
        <ele>320</ele>
        <time>2013-04-03T11:07:06Z</time>
      </trkpt>
      <trkpt lat="44.31666" lon="4.04892">
        <ele>320</ele>
        <time>2013-04-03T11:07:08Z</time>
      </trkpt>
      <trkpt lat="44.31669" lon="4.0489">
        <ele>319</ele>
        <time>2013-04-03T11:07:10Z</time>
      </trkpt>
      <trkpt lat="44.31671" lon="4.04888">
        <ele>318</ele>
        <time>2013-04-03T11:07:12Z</time>
      </trkpt>
      <trkpt lat="44.31673" lon="4.04886">
        <ele>319</ele>
        <time>2013-04-03T11:07:14Z</time>
      </trkpt>
      <trkpt lat="44.31673" lon="4.04886">
        <ele>319</ele>
        <time>2013-04-03T11:07:15Z</time>
      </trkpt>
      <trkpt lat="44.31674" lon="4.04886">
        <ele>319</ele>
        <time>2013-04-03T11:07:16Z</time>
      </trkpt>
      <trkpt lat="44.31675" lon="4.04883">
        <ele>319</ele>
        <time>2013-04-03T11:07:18Z</time>
      </trkpt>
      <trkpt lat="44.31678" lon="4.04881">
        <ele>319</ele>
        <time>2013-04-03T11:07:20Z</time>
      </trkpt>
      <trkpt lat="44.3168" lon="4.04879">
        <ele>318</ele>
        <time>2013-04-03T11:07:22Z</time>
      </trkpt>
      <trkpt lat="44.31682" lon="4.04879">
        <ele>319</ele>
        <time>2013-04-03T11:07:24Z</time>
      </trkpt>
      <trkpt lat="44.31683" lon="4.04877">
        <ele>319</ele>
        <time>2013-04-03T11:07:26Z</time>
      </trkpt>
      <trkpt lat="44.31685" lon="4.04876">
        <ele>319</ele>
        <time>2013-04-03T11:07:28Z</time>
      </trkpt>
      <trkpt lat="44.31686" lon="4.04878">
        <ele>319</ele>
        <time>2013-04-03T11:07:30Z</time>
      </trkpt>
      <trkpt lat="44.31687" lon="4.04879">
        <ele>320</ele>
        <time>2013-04-03T11:07:32Z</time>
      </trkpt>
      <trkpt lat="44.31687" lon="4.0488">
        <ele>319</ele>
        <time>2013-04-03T11:07:34Z</time>
      </trkpt>
      <trkpt lat="44.31686" lon="4.04881">
        <ele>317</ele>
        <time>2013-04-03T11:07:36Z</time>
      </trkpt>
      <trkpt lat="44.31686" lon="4.04882">
        <ele>316</ele>
        <time>2013-04-03T11:07:38Z</time>
      </trkpt>
      <trkpt lat="44.31686" lon="4.04883">
        <ele>315</ele>
        <time>2013-04-03T11:07:40Z</time>
      </trkpt>
      <trkpt lat="44.31686" lon="4.04884">
        <ele>314</ele>
        <time>2013-04-03T11:07:42Z</time>
      </trkpt>
      <trkpt lat="44.31686" lon="4.04885">
        <ele>314</ele>
        <time>2013-04-03T11:07:44Z</time>
      </trkpt>
      <trkpt lat="44.31686" lon="4.04886">
        <ele>313</ele>
        <time>2013-04-03T11:07:46Z</time>
      </trkpt>
      <trkpt lat="44.31685" lon="4.04887">
        <ele>312</ele>
        <time>2013-04-03T11:07:48Z</time>
      </trkpt>
      <trkpt lat="44.31685" lon="4.04889">
        <ele>312</ele>
        <time>2013-04-03T11:07:50Z</time>
      </trkpt>
      <trkpt lat="44.31684" lon="4.04889">
        <ele>312</ele>
        <time>2013-04-03T11:07:52Z</time>
      </trkpt>
      <trkpt lat="44.31684" lon="4.0489">
        <ele>311</ele>
        <time>2013-04-03T11:07:54Z</time>
      </trkpt>
      <trkpt lat="44.31684" lon="4.04891">
        <ele>311</ele>
        <time>2013-04-03T11:07:56Z</time>
      </trkpt>
      <trkpt lat="44.31684" lon="4.04892">
        <ele>311</ele>
        <time>2013-04-03T11:07:57Z</time>
      </trkpt>
      <trkpt lat="44.31684" lon="4.04893">
        <ele>310</ele>
        <time>2013-04-03T11:07:59Z</time>
      </trkpt>
      <trkpt lat="44.31683" lon="4.04894">
        <ele>310</ele>
        <time>2013-04-03T11:08:00Z</time>
      </trkpt>
      <trkpt lat="44.31683" lon="4.04895">
        <ele>309</ele>
        <time>2013-04-03T11:08:02Z</time>
      </trkpt>
      <trkpt lat="44.31682" lon="4.04897">
        <ele>308</ele>
        <time>2013-04-03T11:08:04Z</time>
      </trkpt>
      <trkpt lat="44.31681" lon="4.04898">
        <ele>307</ele>
        <time>2013-04-03T11:08:06Z</time>
      </trkpt>
      <trkpt lat="44.3168" lon="4.049">
        <ele>306</ele>
        <time>2013-04-03T11:08:08Z</time>
      </trkpt>
      <trkpt lat="44.3168" lon="4.04901">
        <ele>306</ele>
        <time>2013-04-03T11:08:10Z</time>
      </trkpt>
      <trkpt lat="44.31679" lon="4.04902">
        <ele>306</ele>
        <time>2013-04-03T11:08:12Z</time>
      </trkpt>
      <trkpt lat="44.31679" lon="4.04904">
        <ele>305</ele>
        <time>2013-04-03T11:08:14Z</time>
      </trkpt>
      <trkpt lat="44.31678" lon="4.04904">
        <ele>304</ele>
        <time>2013-04-03T11:08:15Z</time>
      </trkpt>
      <trkpt lat="44.31678" lon="4.04905">
        <ele>304</ele>
        <time>2013-04-03T11:08:16Z</time>
      </trkpt>
      <trkpt lat="44.31677" lon="4.04906">
        <ele>303</ele>
        <time>2013-04-03T11:08:18Z</time>
      </trkpt>
      <trkpt lat="44.31676" lon="4.04909">
        <ele>303</ele>
        <time>2013-04-03T11:08:20Z</time>
      </trkpt>
      <trkpt lat="44.31676" lon="4.04911">
        <ele>303</ele>
        <time>2013-04-03T11:08:22Z</time>
      </trkpt>
      <trkpt lat="44.31676" lon="4.04914">
        <ele>302</ele>
        <time>2013-04-03T11:08:24Z</time>
      </trkpt>
      <trkpt lat="44.31676" lon="4.04916">
        <ele>302</ele>
        <time>2013-04-03T11:08:26Z</time>
      </trkpt>
      <trkpt lat="44.31675" lon="4.04918">
        <ele>301</ele>
        <time>2013-04-03T11:08:28Z</time>
      </trkpt>
      <trkpt lat="44.31675" lon="4.04921">
        <ele>300</ele>
        <time>2013-04-03T11:08:30Z</time>
      </trkpt>
      <trkpt lat="44.31674" lon="4.04923">
        <ele>300</ele>
        <time>2013-04-03T11:08:32Z</time>
      </trkpt>
      <trkpt lat="44.31673" lon="4.04926">
        <ele>298</ele>
        <time>2013-04-03T11:08:34Z</time>
      </trkpt>
      <trkpt lat="44.31672" lon="4.04929">
        <ele>298</ele>
        <time>2013-04-03T11:08:36Z</time>
      </trkpt>
      <trkpt lat="44.31672" lon="4.04931">
        <ele>298</ele>
        <time>2013-04-03T11:08:38Z</time>
      </trkpt>
      <trkpt lat="44.31671" lon="4.04933">
        <ele>298</ele>
        <time>2013-04-03T11:08:40Z</time>
      </trkpt>
      <trkpt lat="44.31669" lon="4.04935">
        <ele>297</ele>
        <time>2013-04-03T11:08:42Z</time>
      </trkpt>
      <trkpt lat="44.31668" lon="4.04937">
        <ele>297</ele>
        <time>2013-04-03T11:08:44Z</time>
      </trkpt>
      <trkpt lat="44.31668" lon="4.04939">
        <ele>297</ele>
        <time>2013-04-03T11:08:46Z</time>
      </trkpt>
      <trkpt lat="44.31667" lon="4.04941">
        <ele>296</ele>
        <time>2013-04-03T11:08:48Z</time>
      </trkpt>
      <trkpt lat="44.31667" lon="4.04943">
        <ele>296</ele>
        <time>2013-04-03T11:08:50Z</time>
      </trkpt>
      <trkpt lat="44.31667" lon="4.04945">
        <ele>296</ele>
        <time>2013-04-03T11:08:52Z</time>
      </trkpt>
      <trkpt lat="44.31667" lon="4.04947">
        <ele>296</ele>
        <time>2013-04-03T11:08:54Z</time>
      </trkpt>
      <trkpt lat="44.31667" lon="4.04949">
        <ele>295</ele>
        <time>2013-04-03T11:08:56Z</time>
      </trkpt>
      <trkpt lat="44.31667" lon="4.04951">
        <ele>295</ele>
        <time>2013-04-03T11:08:58Z</time>
      </trkpt>
      <trkpt lat="44.31667" lon="4.04951">
        <ele>295</ele>
        <time>2013-04-03T11:08:59Z</time>
      </trkpt>
      <trkpt lat="44.31668" lon="4.04951">
        <ele>295</ele>
        <time>2013-04-03T11:09:00Z</time>
      </trkpt>
      <trkpt lat="44.31669" lon="4.04952">
        <ele>295</ele>
        <time>2013-04-03T11:09:02Z</time>
      </trkpt>
      <trkpt lat="44.3167" lon="4.04951">
        <ele>294</ele>
        <time>2013-04-03T11:09:04Z</time>
      </trkpt>
      <trkpt lat="44.31671" lon="4.04951">
        <ele>294</ele>
        <time>2013-04-03T11:09:06Z</time>
      </trkpt>
      <trkpt lat="44.31671" lon="4.0495">
        <ele>294</ele>
        <time>2013-04-03T11:09:08Z</time>
      </trkpt>
      <trkpt lat="44.31673" lon="4.04948">
        <ele>294</ele>
        <time>2013-04-03T11:09:10Z</time>
      </trkpt>
      <trkpt lat="44.31673" lon="4.04947">
        <ele>294</ele>
        <time>2013-04-03T11:09:12Z</time>
      </trkpt>
      <trkpt lat="44.31674" lon="4.04946">
        <ele>294</ele>
        <time>2013-04-03T11:09:14Z</time>
      </trkpt>
      <trkpt lat="44.31675" lon="4.04946">
        <ele>294</ele>
        <time>2013-04-03T11:09:15Z</time>
      </trkpt>
      <trkpt lat="44.31676" lon="4.04944">
        <ele>293</ele>
        <time>2013-04-03T11:09:16Z</time>
      </trkpt>
      <trkpt lat="44.31676" lon="4.04944">
        <ele>293</ele>
        <time>2013-04-03T11:09:18Z</time>
      </trkpt>
      <trkpt lat="44.31677" lon="4.04943">
        <ele>294</ele>
        <time>2013-04-03T11:09:20Z</time>
      </trkpt>
      <trkpt lat="44.31677" lon="4.04942">
        <ele>294</ele>
        <time>2013-04-03T11:09:22Z</time>
      </trkpt>
      <trkpt lat="44.31677" lon="4.04941">
        <ele>293</ele>
        <time>2013-04-03T11:09:24Z</time>
      </trkpt>
      <trkpt lat="44.31677" lon="4.0494">
        <ele>293</ele>
        <time>2013-04-03T11:09:26Z</time>
      </trkpt>
      <trkpt lat="44.31678" lon="4.04939">
        <ele>293</ele>
        <time>2013-04-03T11:09:28Z</time>
      </trkpt>
      <trkpt lat="44.31678" lon="4.04938">
        <ele>293</ele>
        <time>2013-04-03T11:09:30Z</time>
      </trkpt>
      <trkpt lat="44.31679" lon="4.04938">
        <ele>293</ele>
        <time>2013-04-03T11:09:32Z</time>
      </trkpt>
      <trkpt lat="44.31679" lon="4.04938">
        <ele>293</ele>
        <time>2013-04-03T11:09:34Z</time>
      </trkpt>
      <trkpt lat="44.3168" lon="4.04936">
        <ele>292</ele>
        <time>2013-04-03T11:09:36Z</time>
      </trkpt>
      <trkpt lat="44.3168" lon="4.04935">
        <ele>291</ele>
        <time>2013-04-03T11:09:38Z</time>
      </trkpt>
      <trkpt lat="44.31681" lon="4.04933">
        <ele>291</ele>
        <time>2013-04-03T11:09:40Z</time>
      </trkpt>
      <trkpt lat="44.31681" lon="4.04933">
        <ele>290</ele>
        <time>2013-04-03T11:09:42Z</time>
      </trkpt>
      <trkpt lat="44.31681" lon="4.04933">
        <ele>290</ele>
        <time>2013-04-03T11:09:44Z</time>
      </trkpt>
      <trkpt lat="44.31681" lon="4.04933">
        <ele>290</ele>
        <time>2013-04-03T11:09:46Z</time>
      </trkpt>
      <trkpt lat="44.31681" lon="4.04933">
        <ele>290</ele>
        <time>2013-04-03T11:09:48Z</time>
      </trkpt>
      <trkpt lat="44.31681" lon="4.04933">
        <ele>290</ele>
        <time>2013-04-03T11:09:50Z</time>
      </trkpt>
      <trkpt lat="44.31681" lon="4.04933">
        <ele>290</ele>
        <time>2013-04-03T11:09:52Z</time>
      </trkpt>
      <trkpt lat="44.31681" lon="4.04933">
        <ele>290</ele>
        <time>2013-04-03T11:09:54Z</time>
      </trkpt>
      <trkpt lat="44.31681" lon="4.04933">
        <ele>290</ele>
        <time>2013-04-03T11:09:56Z</time>
      </trkpt>
      <trkpt lat="44.31681" lon="4.04933">
        <ele>290</ele>
        <time>2013-04-03T11:09:58Z</time>
      </trkpt>
      <trkpt lat="44.31681" lon="4.04933">
        <ele>290</ele>
        <time>2013-04-03T11:09:59Z</time>
      </trkpt>
      <trkpt lat="44.31681" lon="4.04933">
        <ele>290</ele>
        <time>2013-04-03T11:10:00Z</time>
      </trkpt>
      <trkpt lat="44.31681" lon="4.04934">
        <ele>290</ele>
        <time>2013-04-03T11:10:02Z</time>
      </trkpt>
      <trkpt lat="44.31681" lon="4.04935">
        <ele>289</ele>
        <time>2013-04-03T11:10:04Z</time>
      </trkpt>
      <trkpt lat="44.3168" lon="4.04937">
        <ele>289</ele>
        <time>2013-04-03T11:10:06Z</time>
      </trkpt>
      <trkpt lat="44.3168" lon="4.04938">
        <ele>288</ele>
        <time>2013-04-03T11:10:08Z</time>
      </trkpt>
      <trkpt lat="44.31679" lon="4.04941">
        <ele>288</ele>
        <time>2013-04-03T11:10:10Z</time>
      </trkpt>
      <trkpt lat="44.31678" lon="4.04942">
        <ele>288</ele>
        <time>2013-04-03T11:10:12Z</time>
      </trkpt>
      <trkpt lat="44.31677" lon="4.04944">
        <ele>287</ele>
        <time>2013-04-03T11:10:14Z</time>
      </trkpt>
      <trkpt lat="44.31677" lon="4.04945">
        <ele>287</ele>
        <time>2013-04-03T11:10:15Z</time>
      </trkpt>
      <trkpt lat="44.31677" lon="4.04945">
        <ele>287</ele>
        <time>2013-04-03T11:10:16Z</time>
      </trkpt>
      <trkpt lat="44.31677" lon="4.04947">
        <ele>287</ele>
        <time>2013-04-03T11:10:18Z</time>
      </trkpt>
      <trkpt lat="44.31677" lon="4.04948">
        <ele>287</ele>
        <time>2013-04-03T11:10:20Z</time>
      </trkpt>
      <trkpt lat="44.31676" lon="4.0495">
        <ele>287</ele>
        <time>2013-04-03T11:10:22Z</time>
      </trkpt>
      <trkpt lat="44.31676" lon="4.04952">
        <ele>286</ele>
        <time>2013-04-03T11:10:24Z</time>
      </trkpt>
      <trkpt lat="44.31675" lon="4.04954">
        <ele>286</ele>
        <time>2013-04-03T11:10:26Z</time>
      </trkpt>
      <trkpt lat="44.31675" lon="4.04954">
        <ele>286</ele>
        <time>2013-04-03T11:10:28Z</time>
      </trkpt>
      <trkpt lat="44.31675" lon="4.04954">
        <ele>286</ele>
        <time>2013-04-03T11:10:30Z</time>
      </trkpt>
      <trkpt lat="44.31675" lon="4.04954">
        <ele>286</ele>
        <time>2013-04-03T11:10:32Z</time>
      </trkpt>
      <trkpt lat="44.31675" lon="4.04954">
        <ele>286</ele>
        <time>2013-04-03T11:10:34Z</time>
      </trkpt>
      <trkpt lat="44.31675" lon="4.04954">
        <ele>286</ele>
        <time>2013-04-03T11:10:36Z</time>
      </trkpt>
      <trkpt lat="44.31675" lon="4.04954">
        <ele>286</ele>
        <time>2013-04-03T11:10:38Z</time>
      </trkpt>
      <trkpt lat="44.31675" lon="4.04954">
        <ele>286</ele>
        <time>2013-04-03T11:10:40Z</time>
      </trkpt>
      <trkpt lat="44.31675" lon="4.04954">
        <ele>286</ele>
        <time>2013-04-03T11:10:42Z</time>
      </trkpt>
      <trkpt lat="44.31675" lon="4.04954">
        <ele>286</ele>
        <time>2013-04-03T11:10:44Z</time>
      </trkpt>
      <trkpt lat="44.31675" lon="4.04955">
        <ele>285</ele>
        <time>2013-04-03T11:10:46Z</time>
      </trkpt>
      <trkpt lat="44.31675" lon="4.04956">
        <ele>285</ele>
        <time>2013-04-03T11:10:48Z</time>
      </trkpt>
      <trkpt lat="44.31675" lon="4.04956">
        <ele>285</ele>
        <time>2013-04-03T11:10:50Z</time>
      </trkpt>
      <trkpt lat="44.31675" lon="4.04956">
        <ele>285</ele>
        <time>2013-04-03T11:10:52Z</time>
      </trkpt>
      <trkpt lat="44.31675" lon="4.04956">
        <ele>285</ele>
        <time>2013-04-03T11:10:54Z</time>
      </trkpt>
      <trkpt lat="44.31675" lon="4.04956">
        <ele>285</ele>
        <time>2013-04-03T11:10:56Z</time>
      </trkpt>
      <trkpt lat="44.31676" lon="4.04956">
        <ele>285</ele>
        <time>2013-04-03T11:10:58Z</time>
      </trkpt>
      <trkpt lat="44.31676" lon="4.04956">
        <ele>284</ele>
        <time>2013-04-03T11:10:59Z</time>
      </trkpt>
      <trkpt lat="44.31676" lon="4.04955">
        <ele>284</ele>
        <time>2013-04-03T11:11:00Z</time>
      </trkpt>
      <trkpt lat="44.31676" lon="4.04954">
        <ele>284</ele>
        <time>2013-04-03T11:11:01Z</time>
      </trkpt>
      <trkpt lat="44.31676" lon="4.04953">
        <ele>284</ele>
        <time>2013-04-03T11:11:04Z</time>
      </trkpt>
      <trkpt lat="44.31677" lon="4.04952">
        <ele>284</ele>
        <time>2013-04-03T11:11:06Z</time>
      </trkpt>
      <trkpt lat="44.31678" lon="4.0495">
        <ele>284</ele>
        <time>2013-04-03T11:11:08Z</time>
      </trkpt>
      <trkpt lat="44.31678" lon="4.0495">
        <ele>284</ele>
        <time>2013-04-03T11:11:10Z</time>
      </trkpt>
      <trkpt lat="44.31679" lon="4.04948">
        <ele>284</ele>
        <time>2013-04-03T11:11:12Z</time>
      </trkpt>
      <trkpt lat="44.3168" lon="4.04948">
        <ele>284</ele>
        <time>2013-04-03T11:11:14Z</time>
      </trkpt>
      <trkpt lat="44.3168" lon="4.04948">
        <ele>284</ele>
        <time>2013-04-03T11:11:15Z</time>
      </trkpt>
      <trkpt lat="44.3168" lon="4.04948">
        <ele>284</ele>
        <time>2013-04-03T11:11:16Z</time>
      </trkpt>
      <trkpt lat="44.31682" lon="4.04946">
        <ele>284</ele>
        <time>2013-04-03T11:11:18Z</time>
      </trkpt>
      <trkpt lat="44.31683" lon="4.04945">
        <ele>285</ele>
        <time>2013-04-03T11:11:20Z</time>
      </trkpt>
      <trkpt lat="44.31684" lon="4.04945">
        <ele>286</ele>
        <time>2013-04-03T11:11:22Z</time>
      </trkpt>
      <trkpt lat="44.31686" lon="4.04943">
        <ele>286</ele>
        <time>2013-04-03T11:11:24Z</time>
      </trkpt>
      <trkpt lat="44.31688" lon="4.04942">
        <ele>286</ele>
        <time>2013-04-03T11:11:26Z</time>
      </trkpt>
      <trkpt lat="44.31689" lon="4.0494">
        <ele>287</ele>
        <time>2013-04-03T11:11:28Z</time>
      </trkpt>
      <trkpt lat="44.31691" lon="4.04939">
        <ele>288</ele>
        <time>2013-04-03T11:11:30Z</time>
      </trkpt>
      <trkpt lat="44.31693" lon="4.04937">
        <ele>289</ele>
        <time>2013-04-03T11:11:32Z</time>
      </trkpt>
      <trkpt lat="44.31694" lon="4.04935">
        <ele>289</ele>
        <time>2013-04-03T11:11:34Z</time>
      </trkpt>
      <trkpt lat="44.31695" lon="4.04934">
        <ele>289</ele>
        <time>2013-04-03T11:11:36Z</time>
      </trkpt>
      <trkpt lat="44.31696" lon="4.04933">
        <ele>289</ele>
        <time>2013-04-03T11:11:38Z</time>
      </trkpt>
      <trkpt lat="44.31697" lon="4.04931">
        <ele>289</ele>
        <time>2013-04-03T11:11:40Z</time>
      </trkpt>
      <trkpt lat="44.31697" lon="4.04931">
        <ele>289</ele>
        <time>2013-04-03T11:11:42Z</time>
      </trkpt>
      <trkpt lat="44.31697" lon="4.0493">
        <ele>289</ele>
        <time>2013-04-03T11:11:44Z</time>
      </trkpt>
      <trkpt lat="44.31699" lon="4.04928">
        <ele>288</ele>
        <time>2013-04-03T11:11:46Z</time>
      </trkpt>
      <trkpt lat="44.317" lon="4.04925">
        <ele>288</ele>
        <time>2013-04-03T11:11:48Z</time>
      </trkpt>
      <trkpt lat="44.31702" lon="4.04924">
        <ele>288</ele>
        <time>2013-04-03T11:11:50Z</time>
      </trkpt>
      <trkpt lat="44.31703" lon="4.04922">
        <ele>288</ele>
        <time>2013-04-03T11:11:52Z</time>
      </trkpt>
      <trkpt lat="44.31705" lon="4.0492">
        <ele>288</ele>
        <time>2013-04-03T11:11:54Z</time>
      </trkpt>
      <trkpt lat="44.31706" lon="4.04918">
        <ele>288</ele>
        <time>2013-04-03T11:11:56Z</time>
      </trkpt>
      <trkpt lat="44.31707" lon="4.04917">
        <ele>289</ele>
        <time>2013-04-03T11:11:58Z</time>
      </trkpt>
      <trkpt lat="44.31708" lon="4.04916">
        <ele>289</ele>
        <time>2013-04-03T11:11:59Z</time>
      </trkpt>
      <trkpt lat="44.31709" lon="4.04916">
        <ele>289</ele>
        <time>2013-04-03T11:12:00Z</time>
      </trkpt>
      <trkpt lat="44.3171" lon="4.04914">
        <ele>290</ele>
        <time>2013-04-03T11:12:02Z</time>
      </trkpt>
      <trkpt lat="44.3171" lon="4.04914">
        <ele>290</ele>
        <time>2013-04-03T11:12:03Z</time>
      </trkpt>
      <trkpt lat="44.31712" lon="4.04912">
        <ele>290</ele>
        <time>2013-04-03T11:12:06Z</time>
      </trkpt>
      <trkpt lat="44.31713" lon="4.0491">
        <ele>290</ele>
        <time>2013-04-03T11:12:08Z</time>
      </trkpt>
      <trkpt lat="44.31715" lon="4.04908">
        <ele>289</ele>
        <time>2013-04-03T11:12:10Z</time>
      </trkpt>
      <trkpt lat="44.31715" lon="4.04908">
        <ele>289</ele>
        <time>2013-04-03T11:12:12Z</time>
      </trkpt>
      <trkpt lat="44.31716" lon="4.04907">
        <ele>290</ele>
        <time>2013-04-03T11:12:14Z</time>
      </trkpt>
      <trkpt lat="44.31717" lon="4.04906">
        <ele>290</ele>
        <time>2013-04-03T11:12:15Z</time>
      </trkpt>
      <trkpt lat="44.31718" lon="4.04906">
        <ele>291</ele>
        <time>2013-04-03T11:12:16Z</time>
      </trkpt>
      <trkpt lat="44.31719" lon="4.04904">
        <ele>291</ele>
        <time>2013-04-03T11:12:18Z</time>
      </trkpt>
      <trkpt lat="44.3172" lon="4.04904">
        <ele>291</ele>
        <time>2013-04-03T11:12:20Z</time>
      </trkpt>
      <trkpt lat="44.31721" lon="4.04902">
        <ele>290</ele>
        <time>2013-04-03T11:12:22Z</time>
      </trkpt>
      <trkpt lat="44.31724" lon="4.04901">
        <ele>290</ele>
        <time>2013-04-03T11:12:24Z</time>
      </trkpt>
      <trkpt lat="44.31726" lon="4.049">
        <ele>289</ele>
        <time>2013-04-03T11:12:26Z</time>
      </trkpt>
      <trkpt lat="44.31728" lon="4.04898">
        <ele>288</ele>
        <time>2013-04-03T11:12:28Z</time>
      </trkpt>
      <trkpt lat="44.3173" lon="4.04897">
        <ele>288</ele>
        <time>2013-04-03T11:12:30Z</time>
      </trkpt>
      <trkpt lat="44.31732" lon="4.04895">
        <ele>287</ele>
        <time>2013-04-03T11:12:32Z</time>
      </trkpt>
      <trkpt lat="44.31734" lon="4.04894">
        <ele>287</ele>
        <time>2013-04-03T11:12:34Z</time>
      </trkpt>
      <trkpt lat="44.31735" lon="4.04892">
        <ele>287</ele>
        <time>2013-04-03T11:12:36Z</time>
      </trkpt>
      <trkpt lat="44.31736" lon="4.04892">
        <ele>288</ele>
        <time>2013-04-03T11:12:38Z</time>
      </trkpt>
      <trkpt lat="44.31737" lon="4.0489">
        <ele>287</ele>
        <time>2013-04-03T11:12:40Z</time>
      </trkpt>
      <trkpt lat="44.31739" lon="4.04888">
        <ele>287</ele>
        <time>2013-04-03T11:12:42Z</time>
      </trkpt>
      <trkpt lat="44.3174" lon="4.04885">
        <ele>287</ele>
        <time>2013-04-03T11:12:44Z</time>
      </trkpt>
      <trkpt lat="44.31742" lon="4.04883">
        <ele>286</ele>
        <time>2013-04-03T11:12:46Z</time>
      </trkpt>
      <trkpt lat="44.31743" lon="4.04881">
        <ele>285</ele>
        <time>2013-04-03T11:12:48Z</time>
      </trkpt>
      <trkpt lat="44.31744" lon="4.04879">
        <ele>285</ele>
        <time>2013-04-03T11:12:50Z</time>
      </trkpt>
      <trkpt lat="44.31746" lon="4.04878">
        <ele>286</ele>
        <time>2013-04-03T11:12:52Z</time>
      </trkpt>
      <trkpt lat="44.31748" lon="4.04876">
        <ele>286</ele>
        <time>2013-04-03T11:12:54Z</time>
      </trkpt>
      <trkpt lat="44.31749" lon="4.04874">
        <ele>285</ele>
        <time>2013-04-03T11:12:56Z</time>
      </trkpt>
      <trkpt lat="44.31751" lon="4.04872">
        <ele>286</ele>
        <time>2013-04-03T11:12:58Z</time>
      </trkpt>
      <trkpt lat="44.31752" lon="4.04872">
        <ele>285</ele>
        <time>2013-04-03T11:12:59Z</time>
      </trkpt>
      <trkpt lat="44.31752" lon="4.04871">
        <ele>286</ele>
        <time>2013-04-03T11:13:00Z</time>
      </trkpt>
      <trkpt lat="44.31754" lon="4.0487">
        <ele>285</ele>
        <time>2013-04-03T11:13:02Z</time>
      </trkpt>
      <trkpt lat="44.31755" lon="4.04869">
        <ele>285</ele>
        <time>2013-04-03T11:13:04Z</time>
      </trkpt>
      <trkpt lat="44.31755" lon="4.04868">
        <ele>285</ele>
        <time>2013-04-03T11:13:05Z</time>
      </trkpt>
      <trkpt lat="44.31757" lon="4.04866">
        <ele>285</ele>
        <time>2013-04-03T11:13:08Z</time>
      </trkpt>
      <trkpt lat="44.31758" lon="4.04865">
        <ele>285</ele>
        <time>2013-04-03T11:13:10Z</time>
      </trkpt>
      <trkpt lat="44.31758" lon="4.04864">
        <ele>285</ele>
        <time>2013-04-03T11:13:12Z</time>
      </trkpt>
      <trkpt lat="44.31759" lon="4.04864">
        <ele>285</ele>
        <time>2013-04-03T11:13:14Z</time>
      </trkpt>
      <trkpt lat="44.31759" lon="4.04864">
        <ele>285</ele>
        <time>2013-04-03T11:13:15Z</time>
      </trkpt>
      <trkpt lat="44.31759" lon="4.04864">
        <ele>285</ele>
        <time>2013-04-03T11:13:16Z</time>
      </trkpt>
      <trkpt lat="44.31759" lon="4.04864">
        <ele>285</ele>
        <time>2013-04-03T11:13:18Z</time>
      </trkpt>
      <trkpt lat="44.31759" lon="4.04864">
        <ele>285</ele>
        <time>2013-04-03T11:13:20Z</time>
      </trkpt>
      <trkpt lat="44.31759" lon="4.04864">
        <ele>285</ele>
        <time>2013-04-03T11:13:22Z</time>
      </trkpt>
      <trkpt lat="44.31759" lon="4.04863">
        <ele>284</ele>
        <time>2013-04-03T11:13:24Z</time>
      </trkpt>
      <trkpt lat="44.31759" lon="4.04861">
        <ele>284</ele>
        <time>2013-04-03T11:13:26Z</time>
      </trkpt>
      <trkpt lat="44.31759" lon="4.04859">
        <ele>284</ele>
        <time>2013-04-03T11:13:28Z</time>
      </trkpt>
      <trkpt lat="44.31761" lon="4.04856">
        <ele>284</ele>
        <time>2013-04-03T11:13:30Z</time>
      </trkpt>
      <trkpt lat="44.31763" lon="4.04854">
        <ele>284</ele>
        <time>2013-04-03T11:13:32Z</time>
      </trkpt>
      <trkpt lat="44.31765" lon="4.04852">
        <ele>284</ele>
        <time>2013-04-03T11:13:34Z</time>
      </trkpt>
      <trkpt lat="44.31767" lon="4.04851">
        <ele>284</ele>
        <time>2013-04-03T11:13:36Z</time>
      </trkpt>
      <trkpt lat="44.31768" lon="4.04848">
        <ele>284</ele>
        <time>2013-04-03T11:13:38Z</time>
      </trkpt>
      <trkpt lat="44.3177" lon="4.04846">
        <ele>284</ele>
        <time>2013-04-03T11:13:40Z</time>
      </trkpt>
      <trkpt lat="44.31772" lon="4.04844">
        <ele>283</ele>
        <time>2013-04-03T11:13:42Z</time>
      </trkpt>
      <trkpt lat="44.31773" lon="4.04842">
        <ele>283</ele>
        <time>2013-04-03T11:13:44Z</time>
      </trkpt>
      <trkpt lat="44.31775" lon="4.0484">
        <ele>283</ele>
        <time>2013-04-03T11:13:46Z</time>
      </trkpt>
      <trkpt lat="44.31776" lon="4.04838">
        <ele>283</ele>
        <time>2013-04-03T11:13:48Z</time>
      </trkpt>
      <trkpt lat="44.31778" lon="4.04835">
        <ele>283</ele>
        <time>2013-04-03T11:13:50Z</time>
      </trkpt>
      <trkpt lat="44.31779" lon="4.04833">
        <ele>283</ele>
        <time>2013-04-03T11:13:52Z</time>
      </trkpt>
      <trkpt lat="44.31781" lon="4.04831">
        <ele>283</ele>
        <time>2013-04-03T11:13:54Z</time>
      </trkpt>
      <trkpt lat="44.31782" lon="4.04829">
        <ele>283</ele>
        <time>2013-04-03T11:13:56Z</time>
      </trkpt>
      <trkpt lat="44.31783" lon="4.04826">
        <ele>283</ele>
        <time>2013-04-03T11:13:58Z</time>
      </trkpt>
      <trkpt lat="44.31784" lon="4.04825">
        <ele>282</ele>
        <time>2013-04-03T11:13:59Z</time>
      </trkpt>
      <trkpt lat="44.31785" lon="4.04824">
        <ele>282</ele>
        <time>2013-04-03T11:14:00Z</time>
      </trkpt>
      <trkpt lat="44.31787" lon="4.04822">
        <ele>282</ele>
        <time>2013-04-03T11:14:02Z</time>
      </trkpt>
      <trkpt lat="44.31788" lon="4.04819">
        <ele>282</ele>
        <time>2013-04-03T11:14:04Z</time>
      </trkpt>
      <trkpt lat="44.3179" lon="4.04817">
        <ele>282</ele>
        <time>2013-04-03T11:14:06Z</time>
      </trkpt>
      <trkpt lat="44.31791" lon="4.04817">
        <ele>282</ele>
        <time>2013-04-03T11:14:07Z</time>
      </trkpt>
      <trkpt lat="44.31793" lon="4.04815">
        <ele>282</ele>
        <time>2013-04-03T11:14:10Z</time>
      </trkpt>
      <trkpt lat="44.31795" lon="4.04815">
        <ele>282</ele>
        <time>2013-04-03T11:14:12Z</time>
      </trkpt>
      <trkpt lat="44.31796" lon="4.04815">
        <ele>282</ele>
        <time>2013-04-03T11:14:14Z</time>
      </trkpt>
      <trkpt lat="44.31796" lon="4.04814">
        <ele>282</ele>
        <time>2013-04-03T11:14:15Z</time>
      </trkpt>
      <trkpt lat="44.31796" lon="4.04814">
        <ele>282</ele>
        <time>2013-04-03T11:14:16Z</time>
      </trkpt>
      <trkpt lat="44.31796" lon="4.04814">
        <ele>282</ele>
        <time>2013-04-03T11:14:18Z</time>
      </trkpt>
      <trkpt lat="44.31796" lon="4.04814">
        <ele>282</ele>
        <time>2013-04-03T11:14:20Z</time>
      </trkpt>
      <trkpt lat="44.31796" lon="4.04814">
        <ele>282</ele>
        <time>2013-04-03T11:14:22Z</time>
      </trkpt>
      <trkpt lat="44.31796" lon="4.04814">
        <ele>282</ele>
        <time>2013-04-03T11:14:24Z</time>
      </trkpt>
      <trkpt lat="44.31796" lon="4.04814">
        <ele>282</ele>
        <time>2013-04-03T11:14:26Z</time>
      </trkpt>
      <trkpt lat="44.31796" lon="4.04814">
        <ele>282</ele>
        <time>2013-04-03T11:14:28Z</time>
      </trkpt>
      <trkpt lat="44.31796" lon="4.04814">
        <ele>282</ele>
        <time>2013-04-03T11:14:30Z</time>
      </trkpt>
      <trkpt lat="44.31796" lon="4.04814">
        <ele>281</ele>
        <time>2013-04-03T11:14:32Z</time>
      </trkpt>
      <trkpt lat="44.31796" lon="4.04814">
        <ele>281</ele>
        <time>2013-04-03T11:14:34Z</time>
      </trkpt>
      <trkpt lat="44.31796" lon="4.04814">
        <ele>281</ele>
        <time>2013-04-03T11:14:36Z</time>
      </trkpt>
      <trkpt lat="44.31796" lon="4.04814">
        <ele>281</ele>
        <time>2013-04-03T11:14:38Z</time>
      </trkpt>
      <trkpt lat="44.31796" lon="4.04814">
        <ele>281</ele>
        <time>2013-04-03T11:14:40Z</time>
      </trkpt>
      <trkpt lat="44.31796" lon="4.04814">
        <ele>281</ele>
        <time>2013-04-03T11:14:42Z</time>
      </trkpt>
      <trkpt lat="44.31795" lon="4.04813">
        <ele>281</ele>
        <time>2013-04-03T11:14:44Z</time>
      </trkpt>
      <trkpt lat="44.31796" lon="4.04813">
        <ele>281</ele>
        <time>2013-04-03T11:14:46Z</time>
      </trkpt>
      <trkpt lat="44.31797" lon="4.04812">
        <ele>281</ele>
        <time>2013-04-03T11:14:48Z</time>
      </trkpt>
      <trkpt lat="44.31797" lon="4.04812">
        <ele>281</ele>
        <time>2013-04-03T11:14:50Z</time>
      </trkpt>
      <trkpt lat="44.31797" lon="4.04812">
        <ele>281</ele>
        <time>2013-04-03T11:14:52Z</time>
      </trkpt>
      <trkpt lat="44.31797" lon="4.04812">
        <ele>281</ele>
        <time>2013-04-03T11:14:54Z</time>
      </trkpt>
      <trkpt lat="44.31797" lon="4.04811">
        <ele>281</ele>
        <time>2013-04-03T11:14:56Z</time>
      </trkpt>
      <trkpt lat="44.31799" lon="4.0481">
        <ele>280</ele>
        <time>2013-04-03T11:14:58Z</time>
      </trkpt>
      <trkpt lat="44.31799" lon="4.0481">
        <ele>281</ele>
        <time>2013-04-03T11:14:59Z</time>
      </trkpt>
      <trkpt lat="44.318" lon="4.0481">
        <ele>281</ele>
        <time>2013-04-03T11:15:00Z</time>
      </trkpt>
      <trkpt lat="44.318" lon="4.0481">
        <ele>281</ele>
        <time>2013-04-03T11:15:02Z</time>
      </trkpt>
      <trkpt lat="44.31801" lon="4.0481">
        <ele>280</ele>
        <time>2013-04-03T11:15:04Z</time>
      </trkpt>
      <trkpt lat="44.31804" lon="4.04809">
        <ele>280</ele>
        <time>2013-04-03T11:15:06Z</time>
      </trkpt>
      <trkpt lat="44.31807" lon="4.04809">
        <ele>280</ele>
        <time>2013-04-03T11:15:08Z</time>
      </trkpt>
      <trkpt lat="44.31808" lon="4.04808">
        <ele>280</ele>
        <time>2013-04-03T11:15:09Z</time>
      </trkpt>
      <trkpt lat="44.31811" lon="4.04808">
        <ele>280</ele>
        <time>2013-04-03T11:15:12Z</time>
      </trkpt>
      <trkpt lat="44.31813" lon="4.04808">
        <ele>280</ele>
        <time>2013-04-03T11:15:14Z</time>
      </trkpt>
      <trkpt lat="44.31813" lon="4.04807">
        <ele>280</ele>
        <time>2013-04-03T11:15:15Z</time>
      </trkpt>
      <trkpt lat="44.31815" lon="4.04807">
        <ele>280</ele>
        <time>2013-04-03T11:15:16Z</time>
      </trkpt>
      <trkpt lat="44.31817" lon="4.04806">
        <ele>279</ele>
        <time>2013-04-03T11:15:18Z</time>
      </trkpt>
      <trkpt lat="44.3182" lon="4.04805">
        <ele>279</ele>
        <time>2013-04-03T11:15:20Z</time>
      </trkpt>
      <trkpt lat="44.31822" lon="4.04805">
        <ele>279</ele>
        <time>2013-04-03T11:15:22Z</time>
      </trkpt>
      <trkpt lat="44.31825" lon="4.04805">
        <ele>278</ele>
        <time>2013-04-03T11:15:24Z</time>
      </trkpt>
      <trkpt lat="44.31825" lon="4.04804">
        <ele>278</ele>
        <time>2013-04-03T11:15:26Z</time>
      </trkpt>
      <trkpt lat="44.31828" lon="4.04804">
        <ele>278</ele>
        <time>2013-04-03T11:15:28Z</time>
      </trkpt>
      <trkpt lat="44.3183" lon="4.04803">
        <ele>277</ele>
        <time>2013-04-03T11:15:30Z</time>
      </trkpt>
      <trkpt lat="44.31832" lon="4.04803">
        <ele>277</ele>
        <time>2013-04-03T11:15:32Z</time>
      </trkpt>
      <trkpt lat="44.31834" lon="4.04803">
        <ele>276</ele>
        <time>2013-04-03T11:15:34Z</time>
      </trkpt>
      <trkpt lat="44.31835" lon="4.04803">
        <ele>276</ele>
        <time>2013-04-03T11:15:36Z</time>
      </trkpt>
      <trkpt lat="44.31836" lon="4.04803">
        <ele>276</ele>
        <time>2013-04-03T11:15:38Z</time>
      </trkpt>
      <trkpt lat="44.31838" lon="4.04802">
        <ele>276</ele>
        <time>2013-04-03T11:15:40Z</time>
      </trkpt>
      <trkpt lat="44.31841" lon="4.04802">
        <ele>276</ele>
        <time>2013-04-03T11:15:42Z</time>
      </trkpt>
      <trkpt lat="44.31843" lon="4.04803">
        <ele>275</ele>
        <time>2013-04-03T11:15:44Z</time>
      </trkpt>
      <trkpt lat="44.31845" lon="4.04803">
        <ele>275</ele>
        <time>2013-04-03T11:15:46Z</time>
      </trkpt>
      <trkpt lat="44.31847" lon="4.04803">
        <ele>275</ele>
        <time>2013-04-03T11:15:48Z</time>
      </trkpt>
      <trkpt lat="44.31849" lon="4.04804">
        <ele>275</ele>
        <time>2013-04-03T11:15:50Z</time>
      </trkpt>
      <trkpt lat="44.31852" lon="4.04805">
        <ele>275</ele>
        <time>2013-04-03T11:15:52Z</time>
      </trkpt>
      <trkpt lat="44.31854" lon="4.04805">
        <ele>275</ele>
        <time>2013-04-03T11:15:54Z</time>
      </trkpt>
      <trkpt lat="44.31856" lon="4.04806">
        <ele>274</ele>
        <time>2013-04-03T11:15:56Z</time>
      </trkpt>
      <trkpt lat="44.31858" lon="4.04808">
        <ele>274</ele>
        <time>2013-04-03T11:15:58Z</time>
      </trkpt>
      <trkpt lat="44.31859" lon="4.04808">
        <ele>274</ele>
        <time>2013-04-03T11:15:59Z</time>
      </trkpt>
      <trkpt lat="44.31861" lon="4.04808">
        <ele>274</ele>
        <time>2013-04-03T11:16:00Z</time>
      </trkpt>
      <trkpt lat="44.31863" lon="4.04807">
        <ele>274</ele>
        <time>2013-04-03T11:16:02Z</time>
      </trkpt>
      <trkpt lat="44.31865" lon="4.04806">
        <ele>273</ele>
        <time>2013-04-03T11:16:04Z</time>
      </trkpt>
      <trkpt lat="44.31867" lon="4.04807">
        <ele>274</ele>
        <time>2013-04-03T11:16:06Z</time>
      </trkpt>
      <trkpt lat="44.31867" lon="4.04807">
        <ele>274</ele>
        <time>2013-04-03T11:16:08Z</time>
      </trkpt>
      <trkpt lat="44.31867" lon="4.04807">
        <ele>274</ele>
        <time>2013-04-03T11:16:10Z</time>
      </trkpt>
      <trkpt lat="44.31868" lon="4.04807">
        <ele>274</ele>
        <time>2013-04-03T11:16:11Z</time>
      </trkpt>
      <trkpt lat="44.31869" lon="4.04807">
        <ele>274</ele>
        <time>2013-04-03T11:16:14Z</time>
      </trkpt>
      <trkpt lat="44.3187" lon="4.04808">
        <ele>274</ele>
        <time>2013-04-03T11:16:15Z</time>
      </trkpt>
      <trkpt lat="44.31871" lon="4.04809">
        <ele>273</ele>
        <time>2013-04-03T11:16:16Z</time>
      </trkpt>
      <trkpt lat="44.31873" lon="4.04811">
        <ele>274</ele>
        <time>2013-04-03T11:16:18Z</time>
      </trkpt>
      <trkpt lat="44.31875" lon="4.04812">
        <ele>273</ele>
        <time>2013-04-03T11:16:20Z</time>
      </trkpt>
      <trkpt lat="44.31877" lon="4.04813">
        <ele>274</ele>
        <time>2013-04-03T11:16:22Z</time>
      </trkpt>
      <trkpt lat="44.31879" lon="4.04814">
        <ele>274</ele>
        <time>2013-04-03T11:16:24Z</time>
      </trkpt>
      <trkpt lat="44.31881" lon="4.04815">
        <ele>273</ele>
        <time>2013-04-03T11:16:26Z</time>
      </trkpt>
      <trkpt lat="44.31883" lon="4.04817">
        <ele>273</ele>
        <time>2013-04-03T11:16:28Z</time>
      </trkpt>
      <trkpt lat="44.31884" lon="4.04819">
        <ele>273</ele>
        <time>2013-04-03T11:16:30Z</time>
      </trkpt>
      <trkpt lat="44.31886" lon="4.04821">
        <ele>273</ele>
        <time>2013-04-03T11:16:32Z</time>
      </trkpt>
      <trkpt lat="44.31888" lon="4.04823">
        <ele>273</ele>
        <time>2013-04-03T11:16:34Z</time>
      </trkpt>
      <trkpt lat="44.3189" lon="4.04824">
        <ele>273</ele>
        <time>2013-04-03T11:16:36Z</time>
      </trkpt>
      <trkpt lat="44.31891" lon="4.04826">
        <ele>273</ele>
        <time>2013-04-03T11:16:38Z</time>
      </trkpt>
      <trkpt lat="44.31894" lon="4.04828">
        <ele>273</ele>
        <time>2013-04-03T11:16:40Z</time>
      </trkpt>
      <trkpt lat="44.31896" lon="4.0483">
        <ele>273</ele>
        <time>2013-04-03T11:16:42Z</time>
      </trkpt>
      <trkpt lat="44.31898" lon="4.04832">
        <ele>273</ele>
        <time>2013-04-03T11:16:44Z</time>
      </trkpt>
      <trkpt lat="44.31899" lon="4.04835">
        <ele>273</ele>
        <time>2013-04-03T11:16:46Z</time>
      </trkpt>
      <trkpt lat="44.31901" lon="4.04837">
        <ele>273</ele>
        <time>2013-04-03T11:16:48Z</time>
      </trkpt>
      <trkpt lat="44.31903" lon="4.0484">
        <ele>273</ele>
        <time>2013-04-03T11:16:50Z</time>
      </trkpt>
      <trkpt lat="44.31905" lon="4.04842">
        <ele>272</ele>
        <time>2013-04-03T11:16:52Z</time>
      </trkpt>
      <trkpt lat="44.31906" lon="4.04845">
        <ele>272</ele>
        <time>2013-04-03T11:16:54Z</time>
      </trkpt>
      <trkpt lat="44.31908" lon="4.04848">
        <ele>272</ele>
        <time>2013-04-03T11:16:56Z</time>
      </trkpt>
      <trkpt lat="44.31909" lon="4.0485">
        <ele>272</ele>
        <time>2013-04-03T11:16:58Z</time>
      </trkpt>
      <trkpt lat="44.3191" lon="4.04851">
        <ele>272</ele>
        <time>2013-04-03T11:16:59Z</time>
      </trkpt>
      <trkpt lat="44.31911" lon="4.04852">
        <ele>272</ele>
        <time>2013-04-03T11:17:00Z</time>
      </trkpt>
      <trkpt lat="44.31912" lon="4.04855">
        <ele>271</ele>
        <time>2013-04-03T11:17:02Z</time>
      </trkpt>
      <trkpt lat="44.31913" lon="4.04858">
        <ele>271</ele>
        <time>2013-04-03T11:17:04Z</time>
      </trkpt>
      <trkpt lat="44.31914" lon="4.0486">
        <ele>271</ele>
        <time>2013-04-03T11:17:06Z</time>
      </trkpt>
      <trkpt lat="44.31916" lon="4.04862">
        <ele>272</ele>
        <time>2013-04-03T11:17:08Z</time>
      </trkpt>
      <trkpt lat="44.31917" lon="4.04865">
        <ele>272</ele>
        <time>2013-04-03T11:17:10Z</time>
      </trkpt>
      <trkpt lat="44.31919" lon="4.04868">
        <ele>271</ele>
        <time>2013-04-03T11:17:12Z</time>
      </trkpt>
      <trkpt lat="44.31919" lon="4.04869">
        <ele>271</ele>
        <time>2013-04-03T11:17:13Z</time>
      </trkpt>
      <trkpt lat="44.3192" lon="4.04871">
        <ele>271</ele>
        <time>2013-04-03T11:17:15Z</time>
      </trkpt>
      <trkpt lat="44.31921" lon="4.04873">
        <ele>271</ele>
        <time>2013-04-03T11:17:16Z</time>
      </trkpt>
      <trkpt lat="44.31922" lon="4.04876">
        <ele>271</ele>
        <time>2013-04-03T11:17:18Z</time>
      </trkpt>
      <trkpt lat="44.31924" lon="4.04879">
        <ele>271</ele>
        <time>2013-04-03T11:17:20Z</time>
      </trkpt>
      <trkpt lat="44.31925" lon="4.04882">
        <ele>270</ele>
        <time>2013-04-03T11:17:22Z</time>
      </trkpt>
      <trkpt lat="44.31926" lon="4.04885">
        <ele>270</ele>
        <time>2013-04-03T11:17:24Z</time>
      </trkpt>
      <trkpt lat="44.31927" lon="4.04888">
        <ele>271</ele>
        <time>2013-04-03T11:17:26Z</time>
      </trkpt>
      <trkpt lat="44.31928" lon="4.04891">
        <ele>270</ele>
        <time>2013-04-03T11:17:28Z</time>
      </trkpt>
      <trkpt lat="44.31929" lon="4.04895">
        <ele>270</ele>
        <time>2013-04-03T11:17:30Z</time>
      </trkpt>
      <trkpt lat="44.3193" lon="4.04898">
        <ele>270</ele>
        <time>2013-04-03T11:17:32Z</time>
      </trkpt>
      <trkpt lat="44.31931" lon="4.04901">
        <ele>270</ele>
        <time>2013-04-03T11:17:34Z</time>
      </trkpt>
      <trkpt lat="44.31932" lon="4.04905">
        <ele>270</ele>
        <time>2013-04-03T11:17:36Z</time>
      </trkpt>
      <trkpt lat="44.31933" lon="4.04908">
        <ele>269</ele>
        <time>2013-04-03T11:17:38Z</time>
      </trkpt>
      <trkpt lat="44.31934" lon="4.0491">
        <ele>270</ele>
        <time>2013-04-03T11:17:40Z</time>
      </trkpt>
      <trkpt lat="44.31934" lon="4.04913">
        <ele>270</ele>
        <time>2013-04-03T11:17:42Z</time>
      </trkpt>
      <trkpt lat="44.31935" lon="4.04916">
        <ele>270</ele>
        <time>2013-04-03T11:17:44Z</time>
      </trkpt>
      <trkpt lat="44.31935" lon="4.04918">
        <ele>271</ele>
        <time>2013-04-03T11:17:46Z</time>
      </trkpt>
      <trkpt lat="44.31936" lon="4.04921">
        <ele>271</ele>
        <time>2013-04-03T11:17:48Z</time>
      </trkpt>
      <trkpt lat="44.31936" lon="4.04922">
        <ele>271</ele>
        <time>2013-04-03T11:17:50Z</time>
      </trkpt>
      <trkpt lat="44.31936" lon="4.04923">
        <ele>271</ele>
        <time>2013-04-03T11:17:52Z</time>
      </trkpt>
      <trkpt lat="44.31937" lon="4.04926">
        <ele>271</ele>
        <time>2013-04-03T11:17:54Z</time>
      </trkpt>
      <trkpt lat="44.31937" lon="4.04929">
        <ele>271</ele>
        <time>2013-04-03T11:17:56Z</time>
      </trkpt>
      <trkpt lat="44.31937" lon="4.04933">
        <ele>271</ele>
        <time>2013-04-03T11:17:58Z</time>
      </trkpt>
      <trkpt lat="44.31937" lon="4.04933">
        <ele>271</ele>
        <time>2013-04-03T11:17:59Z</time>
      </trkpt>
      <trkpt lat="44.31937" lon="4.04934">
        <ele>271</ele>
        <time>2013-04-03T11:18:00Z</time>
      </trkpt>
      <trkpt lat="44.31937" lon="4.04935">
        <ele>271</ele>
        <time>2013-04-03T11:18:02Z</time>
      </trkpt>
      <trkpt lat="44.31937" lon="4.04935">
        <ele>271</ele>
        <time>2013-04-03T11:18:04Z</time>
      </trkpt>
      <trkpt lat="44.31937" lon="4.04936">
        <ele>271</ele>
        <time>2013-04-03T11:18:06Z</time>
      </trkpt>
      <trkpt lat="44.31937" lon="4.04936">
        <ele>271</ele>
        <time>2013-04-03T11:18:08Z</time>
      </trkpt>
      <trkpt lat="44.31937" lon="4.04936">
        <ele>271</ele>
        <time>2013-04-03T11:18:10Z</time>
      </trkpt>
      <trkpt lat="44.31937" lon="4.04936">
        <ele>271</ele>
        <time>2013-04-03T11:18:12Z</time>
      </trkpt>
      <trkpt lat="44.31937" lon="4.04936">
        <ele>271</ele>
        <time>2013-04-03T11:18:14Z</time>
      </trkpt>
      <trkpt lat="44.31938" lon="4.04937">
        <ele>271</ele>
        <time>2013-04-03T11:18:15Z</time>
      </trkpt>
      <trkpt lat="44.31938" lon="4.04938">
        <ele>271</ele>
        <time>2013-04-03T11:18:16Z</time>
      </trkpt>
      <trkpt lat="44.31938" lon="4.04938">
        <ele>271</ele>
        <time>2013-04-03T11:18:18Z</time>
      </trkpt>
      <trkpt lat="44.31938" lon="4.04938">
        <ele>271</ele>
        <time>2013-04-03T11:18:20Z</time>
      </trkpt>
      <trkpt lat="44.31938" lon="4.04938">
        <ele>271</ele>
        <time>2013-04-03T11:18:22Z</time>
      </trkpt>
      <trkpt lat="44.31938" lon="4.04938">
        <ele>271</ele>
        <time>2013-04-03T11:18:24Z</time>
      </trkpt>
      <trkpt lat="44.31938" lon="4.04938">
        <ele>272</ele>
        <time>2013-04-03T11:18:26Z</time>
      </trkpt>
      <trkpt lat="44.31938" lon="4.04938">
        <ele>272</ele>
        <time>2013-04-03T11:18:28Z</time>
      </trkpt>
      <trkpt lat="44.31938" lon="4.04938">
        <ele>272</ele>
        <time>2013-04-03T11:18:30Z</time>
      </trkpt>
      <trkpt lat="44.31938" lon="4.04938">
        <ele>272</ele>
        <time>2013-04-03T11:18:32Z</time>
      </trkpt>
      <trkpt lat="44.31938" lon="4.04938">
        <ele>272</ele>
        <time>2013-04-03T11:18:34Z</time>
      </trkpt>
      <trkpt lat="44.31938" lon="4.04938">
        <ele>272</ele>
        <time>2013-04-03T11:18:36Z</time>
      </trkpt>
      <trkpt lat="44.31938" lon="4.04938">
        <ele>272</ele>
        <time>2013-04-03T11:18:38Z</time>
      </trkpt>
      <trkpt lat="44.31938" lon="4.04938">
        <ele>272</ele>
        <time>2013-04-03T11:18:40Z</time>
      </trkpt>
      <trkpt lat="44.31938" lon="4.04938">
        <ele>272</ele>
        <time>2013-04-03T11:18:42Z</time>
      </trkpt>
      <trkpt lat="44.31938" lon="4.04938">
        <ele>272</ele>
        <time>2013-04-03T11:18:44Z</time>
      </trkpt>
      <trkpt lat="44.31938" lon="4.04938">
        <ele>272</ele>
        <time>2013-04-03T11:18:46Z</time>
      </trkpt>
      <trkpt lat="44.31938" lon="4.04938">
        <ele>272</ele>
        <time>2013-04-03T11:18:48Z</time>
      </trkpt>
      <trkpt lat="44.31938" lon="4.04938">
        <ele>272</ele>
        <time>2013-04-03T11:18:50Z</time>
      </trkpt>
      <trkpt lat="44.31938" lon="4.04938">
        <ele>272</ele>
        <time>2013-04-03T11:18:52Z</time>
      </trkpt>
      <trkpt lat="44.31938" lon="4.04938">
        <ele>272</ele>
        <time>2013-04-03T11:18:54Z</time>
      </trkpt>
      <trkpt lat="44.31938" lon="4.04938">
        <ele>272</ele>
        <time>2013-04-03T11:18:56Z</time>
      </trkpt>
      <trkpt lat="44.31938" lon="4.04938">
        <ele>272</ele>
        <time>2013-04-03T11:18:58Z</time>
      </trkpt>
      <trkpt lat="44.31938" lon="4.04938">
        <ele>272</ele>
        <time>2013-04-03T11:18:59Z</time>
      </trkpt>
      <trkpt lat="44.31938" lon="4.04938">
        <ele>272</ele>
        <time>2013-04-03T11:19:00Z</time>
      </trkpt>
      <trkpt lat="44.31938" lon="4.04938">
        <ele>272</ele>
        <time>2013-04-03T11:19:02Z</time>
      </trkpt>
      <trkpt lat="44.31938" lon="4.04938">
        <ele>272</ele>
        <time>2013-04-03T11:19:04Z</time>
      </trkpt>
      <trkpt lat="44.31938" lon="4.04938">
        <ele>272</ele>
        <time>2013-04-03T11:19:06Z</time>
      </trkpt>
      <trkpt lat="44.31938" lon="4.04939">
        <ele>271</ele>
        <time>2013-04-03T11:19:08Z</time>
      </trkpt>
      <trkpt lat="44.31938" lon="4.04939">
        <ele>271</ele>
        <time>2013-04-03T11:19:10Z</time>
      </trkpt>
      <trkpt lat="44.31938" lon="4.04939">
        <ele>271</ele>
        <time>2013-04-03T11:19:12Z</time>
      </trkpt>
      <trkpt lat="44.31938" lon="4.04939">
        <ele>271</ele>
        <time>2013-04-03T11:19:14Z</time>
      </trkpt>
      <trkpt lat="44.31938" lon="4.04939">
        <ele>271</ele>
        <time>2013-04-03T11:19:15Z</time>
      </trkpt>
      <trkpt lat="44.31938" lon="4.04939">
        <ele>271</ele>
        <time>2013-04-03T11:19:16Z</time>
      </trkpt>
      <trkpt lat="44.31938" lon="4.04939">
        <ele>271</ele>
        <time>2013-04-03T11:19:18Z</time>
      </trkpt>
      <trkpt lat="44.31938" lon="4.04939">
        <ele>271</ele>
        <time>2013-04-03T11:19:20Z</time>
      </trkpt>
      <trkpt lat="44.31938" lon="4.04939">
        <ele>271</ele>
        <time>2013-04-03T11:19:22Z</time>
      </trkpt>
      <trkpt lat="44.31938" lon="4.04939">
        <ele>271</ele>
        <time>2013-04-03T11:19:24Z</time>
      </trkpt>
      <trkpt lat="44.31938" lon="4.04939">
        <ele>271</ele>
        <time>2013-04-03T11:19:26Z</time>
      </trkpt>
      <trkpt lat="44.31938" lon="4.04939">
        <ele>271</ele>
        <time>2013-04-03T11:19:28Z</time>
      </trkpt>
      <trkpt lat="44.31938" lon="4.04939">
        <ele>271</ele>
        <time>2013-04-03T11:19:30Z</time>
      </trkpt>
      <trkpt lat="44.31938" lon="4.04939">
        <ele>271</ele>
        <time>2013-04-03T11:19:32Z</time>
      </trkpt>
      <trkpt lat="44.31938" lon="4.04938">
        <ele>271</ele>
        <time>2013-04-03T11:19:34Z</time>
      </trkpt>
      <trkpt lat="44.31939" lon="4.04938">
        <ele>271</ele>
        <time>2013-04-03T11:19:36Z</time>
      </trkpt>
      <trkpt lat="44.31939" lon="4.04938">
        <ele>271</ele>
        <time>2013-04-03T11:19:38Z</time>
      </trkpt>
      <trkpt lat="44.31939" lon="4.04938">
        <ele>271</ele>
        <time>2013-04-03T11:19:40Z</time>
      </trkpt>
      <trkpt lat="44.31939" lon="4.04938">
        <ele>271</ele>
        <time>2013-04-03T11:19:42Z</time>
      </trkpt>
      <trkpt lat="44.31939" lon="4.04938">
        <ele>271</ele>
        <time>2013-04-03T11:19:44Z</time>
      </trkpt>
      <trkpt lat="44.31939" lon="4.04938">
        <ele>271</ele>
        <time>2013-04-03T11:19:46Z</time>
      </trkpt>
      <trkpt lat="44.31939" lon="4.04938">
        <ele>271</ele>
        <time>2013-04-03T11:19:48Z</time>
      </trkpt>
      <trkpt lat="44.31939" lon="4.04938">
        <ele>271</ele>
        <time>2013-04-03T11:19:50Z</time>
      </trkpt>
      <trkpt lat="44.31939" lon="4.04938">
        <ele>271</ele>
        <time>2013-04-03T11:19:52Z</time>
      </trkpt>
      <trkpt lat="44.31939" lon="4.04938">
        <ele>271</ele>
        <time>2013-04-03T11:19:54Z</time>
      </trkpt>
      <trkpt lat="44.31939" lon="4.04938">
        <ele>271</ele>
        <time>2013-04-03T11:19:56Z</time>
      </trkpt>
      <trkpt lat="44.31939" lon="4.04938">
        <ele>271</ele>
        <time>2013-04-03T11:19:58Z</time>
      </trkpt>
      <trkpt lat="44.31939" lon="4.04938">
        <ele>271</ele>
        <time>2013-04-03T11:19:59Z</time>
      </trkpt>
      <trkpt lat="44.31939" lon="4.04938">
        <ele>271</ele>
        <time>2013-04-03T11:20:00Z</time>
      </trkpt>
      <trkpt lat="44.31939" lon="4.04938">
        <ele>271</ele>
        <time>2013-04-03T11:20:02Z</time>
      </trkpt>
      <trkpt lat="44.31939" lon="4.04938">
        <ele>271</ele>
        <time>2013-04-03T11:20:04Z</time>
      </trkpt>
      <trkpt lat="44.31939" lon="4.04938">
        <ele>271</ele>
        <time>2013-04-03T11:20:06Z</time>
      </trkpt>
      <trkpt lat="44.31939" lon="4.04938">
        <ele>271</ele>
        <time>2013-04-03T11:20:08Z</time>
      </trkpt>
      <trkpt lat="44.31939" lon="4.04938">
        <ele>271</ele>
        <time>2013-04-03T11:20:10Z</time>
      </trkpt>
      <trkpt lat="44.31939" lon="4.04938">
        <ele>271</ele>
        <time>2013-04-03T11:20:12Z</time>
      </trkpt>
      <trkpt lat="44.31939" lon="4.04938">
        <ele>271</ele>
        <time>2013-04-03T11:20:14Z</time>
      </trkpt>
      <trkpt lat="44.31939" lon="4.04938">
        <ele>271</ele>
        <time>2013-04-03T11:20:15Z</time>
      </trkpt>
      <trkpt lat="44.31939" lon="4.04938">
        <ele>271</ele>
        <time>2013-04-03T11:20:16Z</time>
      </trkpt>
      <trkpt lat="44.31939" lon="4.04938">
        <ele>271</ele>
        <time>2013-04-03T11:20:17Z</time>
      </trkpt>
      <trkpt lat="44.31939" lon="4.04938">
        <ele>271</ele>
        <time>2013-04-03T11:20:20Z</time>
      </trkpt>
      <trkpt lat="44.31939" lon="4.04938">
        <ele>271</ele>
        <time>2013-04-03T11:20:22Z</time>
      </trkpt>
      <trkpt lat="44.31939" lon="4.04938">
        <ele>271</ele>
        <time>2013-04-03T11:20:24Z</time>
      </trkpt>
      <trkpt lat="44.31939" lon="4.04939">
        <ele>271</ele>
        <time>2013-04-03T11:20:26Z</time>
      </trkpt>
      <trkpt lat="44.31939" lon="4.0494">
        <ele>271</ele>
        <time>2013-04-03T11:20:28Z</time>
      </trkpt>
      <trkpt lat="44.31938" lon="4.04941">
        <ele>270</ele>
        <time>2013-04-03T11:20:30Z</time>
      </trkpt>
      <trkpt lat="44.31938" lon="4.04943">
        <ele>270</ele>
        <time>2013-04-03T11:20:32Z</time>
      </trkpt>
      <trkpt lat="44.31937" lon="4.04946">
        <ele>269</ele>
        <time>2013-04-03T11:20:34Z</time>
      </trkpt>
      <trkpt lat="44.31936" lon="4.04949">
        <ele>269</ele>
        <time>2013-04-03T11:20:36Z</time>
      </trkpt>
      <trkpt lat="44.31935" lon="4.04952">
        <ele>270</ele>
        <time>2013-04-03T11:20:38Z</time>
      </trkpt>
      <trkpt lat="44.31934" lon="4.04954">
        <ele>270</ele>
        <time>2013-04-03T11:20:40Z</time>
      </trkpt>
      <trkpt lat="44.31933" lon="4.04956">
        <ele>270</ele>
        <time>2013-04-03T11:20:42Z</time>
      </trkpt>
      <trkpt lat="44.31933" lon="4.04959">
        <ele>270</ele>
        <time>2013-04-03T11:20:44Z</time>
      </trkpt>
      <trkpt lat="44.31932" lon="4.04963">
        <ele>270</ele>
        <time>2013-04-03T11:20:46Z</time>
      </trkpt>
      <trkpt lat="44.31931" lon="4.04967">
        <ele>270</ele>
        <time>2013-04-03T11:20:48Z</time>
      </trkpt>
      <trkpt lat="44.3193" lon="4.04969">
        <ele>270</ele>
        <time>2013-04-03T11:20:50Z</time>
      </trkpt>
      <trkpt lat="44.31929" lon="4.04971">
        <ele>270</ele>
        <time>2013-04-03T11:20:52Z</time>
      </trkpt>
      <trkpt lat="44.31928" lon="4.04974">
        <ele>270</ele>
        <time>2013-04-03T11:20:54Z</time>
      </trkpt>
      <trkpt lat="44.31927" lon="4.04977">
        <ele>270</ele>
        <time>2013-04-03T11:20:56Z</time>
      </trkpt>
      <trkpt lat="44.31925" lon="4.04979">
        <ele>270</ele>
        <time>2013-04-03T11:20:58Z</time>
      </trkpt>
      <trkpt lat="44.31925" lon="4.04981">
        <ele>270</ele>
        <time>2013-04-03T11:20:59Z</time>
      </trkpt>
      <trkpt lat="44.31924" lon="4.04982">
        <ele>270</ele>
        <time>2013-04-03T11:21:00Z</time>
      </trkpt>
      <trkpt lat="44.31923" lon="4.04985">
        <ele>269</ele>
        <time>2013-04-03T11:21:02Z</time>
      </trkpt>
      <trkpt lat="44.31922" lon="4.04989">
        <ele>269</ele>
        <time>2013-04-03T11:21:04Z</time>
      </trkpt>
      <trkpt lat="44.31921" lon="4.04991">
        <ele>269</ele>
        <time>2013-04-03T11:21:06Z</time>
      </trkpt>
      <trkpt lat="44.3192" lon="4.04994">
        <ele>269</ele>
        <time>2013-04-03T11:21:08Z</time>
      </trkpt>
      <trkpt lat="44.31919" lon="4.04997">
        <ele>269</ele>
        <time>2013-04-03T11:21:10Z</time>
      </trkpt>
      <trkpt lat="44.31918" lon="4.05">
        <ele>269</ele>
        <time>2013-04-03T11:21:12Z</time>
      </trkpt>
      <trkpt lat="44.31917" lon="4.05004">
        <ele>268</ele>
        <time>2013-04-03T11:21:14Z</time>
      </trkpt>
      <trkpt lat="44.31917" lon="4.05005">
        <ele>268</ele>
        <time>2013-04-03T11:21:15Z</time>
      </trkpt>
      <trkpt lat="44.31916" lon="4.05007">
        <ele>268</ele>
        <time>2013-04-03T11:21:16Z</time>
      </trkpt>
      <trkpt lat="44.31916" lon="4.05011">
        <ele>268</ele>
        <time>2013-04-03T11:21:18Z</time>
      </trkpt>
      <trkpt lat="44.31915" lon="4.05012">
        <ele>268</ele>
        <time>2013-04-03T11:21:19Z</time>
      </trkpt>
      <trkpt lat="44.31913" lon="4.05017">
        <ele>268</ele>
        <time>2013-04-03T11:21:22Z</time>
      </trkpt>
      <trkpt lat="44.31912" lon="4.05019">
        <ele>268</ele>
        <time>2013-04-03T11:21:24Z</time>
      </trkpt>
      <trkpt lat="44.31911" lon="4.05022">
        <ele>267</ele>
        <time>2013-04-03T11:21:26Z</time>
      </trkpt>
      <trkpt lat="44.3191" lon="4.05024">
        <ele>267</ele>
        <time>2013-04-03T11:21:28Z</time>
      </trkpt>
      <trkpt lat="44.31909" lon="4.05027">
        <ele>267</ele>
        <time>2013-04-03T11:21:30Z</time>
      </trkpt>
      <trkpt lat="44.31907" lon="4.05029">
        <ele>267</ele>
        <time>2013-04-03T11:21:32Z</time>
      </trkpt>
      <trkpt lat="44.31906" lon="4.05031">
        <ele>267</ele>
        <time>2013-04-03T11:21:34Z</time>
      </trkpt>
      <trkpt lat="44.31905" lon="4.05034">
        <ele>267</ele>
        <time>2013-04-03T11:21:36Z</time>
      </trkpt>
      <trkpt lat="44.31904" lon="4.05036">
        <ele>268</ele>
        <time>2013-04-03T11:21:38Z</time>
      </trkpt>
      <trkpt lat="44.31903" lon="4.05038">
        <ele>268</ele>
        <time>2013-04-03T11:21:40Z</time>
      </trkpt>
      <trkpt lat="44.31902" lon="4.05038">
        <ele>268</ele>
        <time>2013-04-03T11:21:42Z</time>
      </trkpt>
      <trkpt lat="44.31901" lon="4.0504">
        <ele>268</ele>
        <time>2013-04-03T11:21:44Z</time>
      </trkpt>
      <trkpt lat="44.31901" lon="4.05041">
        <ele>268</ele>
        <time>2013-04-03T11:21:46Z</time>
      </trkpt>
      <trkpt lat="44.31901" lon="4.05041">
        <ele>268</ele>
        <time>2013-04-03T11:21:48Z</time>
      </trkpt>
      <trkpt lat="44.31901" lon="4.05041">
        <ele>268</ele>
        <time>2013-04-03T11:21:50Z</time>
      </trkpt>
      <trkpt lat="44.31901" lon="4.05041">
        <ele>268</ele>
        <time>2013-04-03T11:21:52Z</time>
      </trkpt>
      <trkpt lat="44.31901" lon="4.05041">
        <ele>268</ele>
        <time>2013-04-03T11:21:54Z</time>
      </trkpt>
      <trkpt lat="44.31901" lon="4.05041">
        <ele>268</ele>
        <time>2013-04-03T11:21:56Z</time>
      </trkpt>
      <trkpt lat="44.31901" lon="4.05041">
        <ele>268</ele>
        <time>2013-04-03T11:21:58Z</time>
      </trkpt>
      <trkpt lat="44.319" lon="4.05042">
        <ele>268</ele>
        <time>2013-04-03T11:21:59Z</time>
      </trkpt>
      <trkpt lat="44.319" lon="4.05043">
        <ele>268</ele>
        <time>2013-04-03T11:22:00Z</time>
      </trkpt>
      <trkpt lat="44.319" lon="4.05044">
        <ele>268</ele>
        <time>2013-04-03T11:22:02Z</time>
      </trkpt>
      <trkpt lat="44.319" lon="4.05044">
        <ele>267</ele>
        <time>2013-04-03T11:22:04Z</time>
      </trkpt>
      <trkpt lat="44.31898" lon="4.05047">
        <ele>268</ele>
        <time>2013-04-03T11:22:06Z</time>
      </trkpt>
      <trkpt lat="44.31897" lon="4.0505">
        <ele>268</ele>
        <time>2013-04-03T11:22:08Z</time>
      </trkpt>
      <trkpt lat="44.31896" lon="4.05051">
        <ele>268</ele>
        <time>2013-04-03T11:22:10Z</time>
      </trkpt>
      <trkpt lat="44.31894" lon="4.05052">
        <ele>269</ele>
        <time>2013-04-03T11:22:12Z</time>
      </trkpt>
      <trkpt lat="44.31893" lon="4.05054">
        <ele>268</ele>
        <time>2013-04-03T11:22:14Z</time>
      </trkpt>
      <trkpt lat="44.31893" lon="4.05056">
        <ele>268</ele>
        <time>2013-04-03T11:22:15Z</time>
      </trkpt>
      <trkpt lat="44.31892" lon="4.05057">
        <ele>268</ele>
        <time>2013-04-03T11:22:16Z</time>
      </trkpt>
      <trkpt lat="44.31891" lon="4.0506">
        <ele>268</ele>
        <time>2013-04-03T11:22:18Z</time>
      </trkpt>
      <trkpt lat="44.3189" lon="4.05063">
        <ele>268</ele>
        <time>2013-04-03T11:22:20Z</time>
      </trkpt>
      <trkpt lat="44.31889" lon="4.05065">
        <ele>268</ele>
        <time>2013-04-03T11:22:21Z</time>
      </trkpt>
      <trkpt lat="44.31889" lon="4.05067">
        <ele>268</ele>
        <time>2013-04-03T11:22:24Z</time>
      </trkpt>
      <trkpt lat="44.31887" lon="4.05069">
        <ele>268</ele>
        <time>2013-04-03T11:22:26Z</time>
      </trkpt>
      <trkpt lat="44.31886" lon="4.05071">
        <ele>269</ele>
        <time>2013-04-03T11:22:28Z</time>
      </trkpt>
      <trkpt lat="44.31885" lon="4.05073">
        <ele>269</ele>
        <time>2013-04-03T11:22:30Z</time>
      </trkpt>
      <trkpt lat="44.31884" lon="4.05075">
        <ele>269</ele>
        <time>2013-04-03T11:22:32Z</time>
      </trkpt>
      <trkpt lat="44.31883" lon="4.05077">
        <ele>269</ele>
        <time>2013-04-03T11:22:34Z</time>
      </trkpt>
      <trkpt lat="44.31881" lon="4.05079">
        <ele>269</ele>
        <time>2013-04-03T11:22:36Z</time>
      </trkpt>
      <trkpt lat="44.3188" lon="4.05082">
        <ele>270</ele>
        <time>2013-04-03T11:22:38Z</time>
      </trkpt>
      <trkpt lat="44.31879" lon="4.05084">
        <ele>270</ele>
        <time>2013-04-03T11:22:40Z</time>
      </trkpt>
      <trkpt lat="44.31879" lon="4.05086">
        <ele>270</ele>
        <time>2013-04-03T11:22:42Z</time>
      </trkpt>
      <trkpt lat="44.31878" lon="4.05089">
        <ele>270</ele>
        <time>2013-04-03T11:22:44Z</time>
      </trkpt>
      <trkpt lat="44.31877" lon="4.05091">
        <ele>270</ele>
        <time>2013-04-03T11:22:46Z</time>
      </trkpt>
      <trkpt lat="44.31876" lon="4.05094">
        <ele>271</ele>
        <time>2013-04-03T11:22:48Z</time>
      </trkpt>
      <trkpt lat="44.31874" lon="4.05096">
        <ele>271</ele>
        <time>2013-04-03T11:22:50Z</time>
      </trkpt>
      <trkpt lat="44.31873" lon="4.05098">
        <ele>272</ele>
        <time>2013-04-03T11:22:52Z</time>
      </trkpt>
      <trkpt lat="44.31872" lon="4.05101">
        <ele>272</ele>
        <time>2013-04-03T11:22:54Z</time>
      </trkpt>
      <trkpt lat="44.31872" lon="4.05103">
        <ele>272</ele>
        <time>2013-04-03T11:22:56Z</time>
      </trkpt>
      <trkpt lat="44.31871" lon="4.05105">
        <ele>271</ele>
        <time>2013-04-03T11:22:58Z</time>
      </trkpt>
      <trkpt lat="44.3187" lon="4.05107">
        <ele>271</ele>
        <time>2013-04-03T11:22:59Z</time>
      </trkpt>
      <trkpt lat="44.31869" lon="4.05108">
        <ele>270</ele>
        <time>2013-04-03T11:23:00Z</time>
      </trkpt>
      <trkpt lat="44.31869" lon="4.0511">
        <ele>270</ele>
        <time>2013-04-03T11:23:02Z</time>
      </trkpt>
      <trkpt lat="44.31868" lon="4.05113">
        <ele>270</ele>
        <time>2013-04-03T11:23:04Z</time>
      </trkpt>
      <trkpt lat="44.31867" lon="4.05115">
        <ele>270</ele>
        <time>2013-04-03T11:23:06Z</time>
      </trkpt>
      <trkpt lat="44.31866" lon="4.05117">
        <ele>271</ele>
        <time>2013-04-03T11:23:08Z</time>
      </trkpt>
      <trkpt lat="44.31866" lon="4.05119">
        <ele>271</ele>
        <time>2013-04-03T11:23:10Z</time>
      </trkpt>
      <trkpt lat="44.31864" lon="4.0512">
        <ele>273</ele>
        <time>2013-04-03T11:23:12Z</time>
      </trkpt>
      <trkpt lat="44.31863" lon="4.05123">
        <ele>272</ele>
        <time>2013-04-03T11:23:14Z</time>
      </trkpt>
      <trkpt lat="44.31863" lon="4.05124">
        <ele>273</ele>
        <time>2013-04-03T11:23:15Z</time>
      </trkpt>
      <trkpt lat="44.31862" lon="4.05126">
        <ele>273</ele>
        <time>2013-04-03T11:23:16Z</time>
      </trkpt>
      <trkpt lat="44.31861" lon="4.05128">
        <ele>273</ele>
        <time>2013-04-03T11:23:18Z</time>
      </trkpt>
      <trkpt lat="44.31861" lon="4.05129">
        <ele>273</ele>
        <time>2013-04-03T11:23:20Z</time>
      </trkpt>
      <trkpt lat="44.3186" lon="4.05131">
        <ele>274</ele>
        <time>2013-04-03T11:23:22Z</time>
      </trkpt>
      <trkpt lat="44.31859" lon="4.05132">
        <ele>274</ele>
        <time>2013-04-03T11:23:23Z</time>
      </trkpt>
      <trkpt lat="44.31857" lon="4.05136">
        <ele>274</ele>
        <time>2013-04-03T11:23:26Z</time>
      </trkpt>
      <trkpt lat="44.31857" lon="4.05138">
        <ele>274</ele>
        <time>2013-04-03T11:23:28Z</time>
      </trkpt>
      <trkpt lat="44.31856" lon="4.05141">
        <ele>273</ele>
        <time>2013-04-03T11:23:30Z</time>
      </trkpt>
      <trkpt lat="44.31855" lon="4.05143">
        <ele>273</ele>
        <time>2013-04-03T11:23:32Z</time>
      </trkpt>
      <trkpt lat="44.31854" lon="4.05146">
        <ele>272</ele>
        <time>2013-04-03T11:23:34Z</time>
      </trkpt>
      <trkpt lat="44.31854" lon="4.05149">
        <ele>273</ele>
        <time>2013-04-03T11:23:36Z</time>
      </trkpt>
      <trkpt lat="44.31854" lon="4.05151">
        <ele>272</ele>
        <time>2013-04-03T11:23:38Z</time>
      </trkpt>
      <trkpt lat="44.31854" lon="4.05155">
        <ele>272</ele>
        <time>2013-04-03T11:23:40Z</time>
      </trkpt>
      <trkpt lat="44.31854" lon="4.05157">
        <ele>273</ele>
        <time>2013-04-03T11:23:42Z</time>
      </trkpt>
      <trkpt lat="44.31854" lon="4.0516">
        <ele>273</ele>
        <time>2013-04-03T11:23:44Z</time>
      </trkpt>
      <trkpt lat="44.31854" lon="4.05162">
        <ele>273</ele>
        <time>2013-04-03T11:23:46Z</time>
      </trkpt>
      <trkpt lat="44.31854" lon="4.05165">
        <ele>273</ele>
        <time>2013-04-03T11:23:48Z</time>
      </trkpt>
      <trkpt lat="44.31854" lon="4.05166">
        <ele>274</ele>
        <time>2013-04-03T11:23:50Z</time>
      </trkpt>
      <trkpt lat="44.31854" lon="4.05168">
        <ele>275</ele>
        <time>2013-04-03T11:23:52Z</time>
      </trkpt>
      <trkpt lat="44.31855" lon="4.05171">
        <ele>275</ele>
        <time>2013-04-03T11:23:54Z</time>
      </trkpt>
      <trkpt lat="44.31855" lon="4.05173">
        <ele>275</ele>
        <time>2013-04-03T11:23:56Z</time>
      </trkpt>
      <trkpt lat="44.31855" lon="4.05175">
        <ele>276</ele>
        <time>2013-04-03T11:23:58Z</time>
      </trkpt>
      <trkpt lat="44.31855" lon="4.05177">
        <ele>276</ele>
        <time>2013-04-03T11:23:59Z</time>
      </trkpt>
      <trkpt lat="44.31856" lon="4.05178">
        <ele>276</ele>
        <time>2013-04-03T11:24:00Z</time>
      </trkpt>
      <trkpt lat="44.31856" lon="4.0518">
        <ele>277</ele>
        <time>2013-04-03T11:24:02Z</time>
      </trkpt>
      <trkpt lat="44.31857" lon="4.05183">
        <ele>278</ele>
        <time>2013-04-03T11:24:04Z</time>
      </trkpt>
      <trkpt lat="44.31857" lon="4.05185">
        <ele>278</ele>
        <time>2013-04-03T11:24:06Z</time>
      </trkpt>
      <trkpt lat="44.31858" lon="4.05188">
        <ele>279</ele>
        <time>2013-04-03T11:24:08Z</time>
      </trkpt>
      <trkpt lat="44.31859" lon="4.0519">
        <ele>280</ele>
        <time>2013-04-03T11:24:10Z</time>
      </trkpt>
      <trkpt lat="44.3186" lon="4.05191">
        <ele>280</ele>
        <time>2013-04-03T11:24:12Z</time>
      </trkpt>
      <trkpt lat="44.3186" lon="4.05192">
        <ele>280</ele>
        <time>2013-04-03T11:24:14Z</time>
      </trkpt>
      <trkpt lat="44.31861" lon="4.05193">
        <ele>280</ele>
        <time>2013-04-03T11:24:15Z</time>
      </trkpt>
      <trkpt lat="44.31861" lon="4.05194">
        <ele>280</ele>
        <time>2013-04-03T11:24:16Z</time>
      </trkpt>
      <trkpt lat="44.31862" lon="4.05196">
        <ele>280</ele>
        <time>2013-04-03T11:24:18Z</time>
      </trkpt>
      <trkpt lat="44.31862" lon="4.05198">
        <ele>280</ele>
        <time>2013-04-03T11:24:20Z</time>
      </trkpt>
      <trkpt lat="44.31864" lon="4.052">
        <ele>281</ele>
        <time>2013-04-03T11:24:22Z</time>
      </trkpt>
      <trkpt lat="44.31865" lon="4.05202">
        <ele>281</ele>
        <time>2013-04-03T11:24:24Z</time>
      </trkpt>
      <trkpt lat="44.31866" lon="4.05203">
        <ele>281</ele>
        <time>2013-04-03T11:24:25Z</time>
      </trkpt>
      <trkpt lat="44.31868" lon="4.05206">
        <ele>282</ele>
        <time>2013-04-03T11:24:28Z</time>
      </trkpt>
      <trkpt lat="44.3187" lon="4.05208">
        <ele>283</ele>
        <time>2013-04-03T11:24:30Z</time>
      </trkpt>
      <trkpt lat="44.31871" lon="4.0521">
        <ele>283</ele>
        <time>2013-04-03T11:24:32Z</time>
      </trkpt>
      <trkpt lat="44.31873" lon="4.05211">
        <ele>283</ele>
        <time>2013-04-03T11:24:34Z</time>
      </trkpt>
      <trkpt lat="44.31874" lon="4.05213">
        <ele>284</ele>
        <time>2013-04-03T11:24:36Z</time>
      </trkpt>
      <trkpt lat="44.31875" lon="4.05214">
        <ele>284</ele>
        <time>2013-04-03T11:24:38Z</time>
      </trkpt>
      <trkpt lat="44.31875" lon="4.05213">
        <ele>284</ele>
        <time>2013-04-03T11:24:40Z</time>
      </trkpt>
      <trkpt lat="44.31876" lon="4.05215">
        <ele>284</ele>
        <time>2013-04-03T11:24:42Z</time>
      </trkpt>
      <trkpt lat="44.31878" lon="4.05215">
        <ele>286</ele>
        <time>2013-04-03T11:24:44Z</time>
      </trkpt>
      <trkpt lat="44.3188" lon="4.05216">
        <ele>286</ele>
        <time>2013-04-03T11:24:46Z</time>
      </trkpt>
      <trkpt lat="44.3188" lon="4.05217">
        <ele>286</ele>
        <time>2013-04-03T11:24:48Z</time>
      </trkpt>
      <trkpt lat="44.31882" lon="4.05218">
        <ele>286</ele>
        <time>2013-04-03T11:24:50Z</time>
      </trkpt>
      <trkpt lat="44.31885" lon="4.0522">
        <ele>287</ele>
        <time>2013-04-03T11:24:52Z</time>
      </trkpt>
      <trkpt lat="44.31887" lon="4.05221">
        <ele>287</ele>
        <time>2013-04-03T11:24:54Z</time>
      </trkpt>
      <trkpt lat="44.31889" lon="4.05222">
        <ele>287</ele>
        <time>2013-04-03T11:24:56Z</time>
      </trkpt>
      <trkpt lat="44.3189" lon="4.05224">
        <ele>287</ele>
        <time>2013-04-03T11:24:58Z</time>
      </trkpt>
      <trkpt lat="44.31891" lon="4.05224">
        <ele>287</ele>
        <time>2013-04-03T11:24:59Z</time>
      </trkpt>
      <trkpt lat="44.31892" lon="4.05225">
        <ele>287</ele>
        <time>2013-04-03T11:25:00Z</time>
      </trkpt>
      <trkpt lat="44.31893" lon="4.05226">
        <ele>288</ele>
        <time>2013-04-03T11:25:02Z</time>
      </trkpt>
      <trkpt lat="44.31894" lon="4.05227">
        <ele>287</ele>
        <time>2013-04-03T11:25:04Z</time>
      </trkpt>
      <trkpt lat="44.31895" lon="4.05228">
        <ele>288</ele>
        <time>2013-04-03T11:25:06Z</time>
      </trkpt>
      <trkpt lat="44.31896" lon="4.05229">
        <ele>288</ele>
        <time>2013-04-03T11:25:08Z</time>
      </trkpt>
      <trkpt lat="44.31897" lon="4.0523">
        <ele>288</ele>
        <time>2013-04-03T11:25:10Z</time>
      </trkpt>
      <trkpt lat="44.31898" lon="4.05231">
        <ele>288</ele>
        <time>2013-04-03T11:25:12Z</time>
      </trkpt>
      <trkpt lat="44.31899" lon="4.05233">
        <ele>288</ele>
        <time>2013-04-03T11:25:14Z</time>
      </trkpt>
      <trkpt lat="44.319" lon="4.05233">
        <ele>289</ele>
        <time>2013-04-03T11:25:15Z</time>
      </trkpt>
      <trkpt lat="44.31901" lon="4.05234">
        <ele>289</ele>
        <time>2013-04-03T11:25:16Z</time>
      </trkpt>
      <trkpt lat="44.31903" lon="4.05236">
        <ele>289</ele>
        <time>2013-04-03T11:25:18Z</time>
      </trkpt>
      <trkpt lat="44.31905" lon="4.05237">
        <ele>290</ele>
        <time>2013-04-03T11:25:20Z</time>
      </trkpt>
      <trkpt lat="44.31906" lon="4.05239">
        <ele>290</ele>
        <time>2013-04-03T11:25:22Z</time>
      </trkpt>
      <trkpt lat="44.31908" lon="4.0524">
        <ele>291</ele>
        <time>2013-04-03T11:25:24Z</time>
      </trkpt>
      <trkpt lat="44.31909" lon="4.05241">
        <ele>292</ele>
        <time>2013-04-03T11:25:26Z</time>
      </trkpt>
      <trkpt lat="44.31909" lon="4.05242">
        <ele>292</ele>
        <time>2013-04-03T11:25:27Z</time>
      </trkpt>
      <trkpt lat="44.31911" lon="4.05245">
        <ele>292</ele>
        <time>2013-04-03T11:25:30Z</time>
      </trkpt>
      <trkpt lat="44.31912" lon="4.05246">
        <ele>294</ele>
        <time>2013-04-03T11:25:32Z</time>
      </trkpt>
      <trkpt lat="44.31913" lon="4.05248">
        <ele>295</ele>
        <time>2013-04-03T11:25:34Z</time>
      </trkpt>
      <trkpt lat="44.31914" lon="4.0525">
        <ele>296</ele>
        <time>2013-04-03T11:25:36Z</time>
      </trkpt>
      <trkpt lat="44.31914" lon="4.05252">
        <ele>297</ele>
        <time>2013-04-03T11:25:38Z</time>
      </trkpt>
      <trkpt lat="44.31916" lon="4.05253">
        <ele>297</ele>
        <time>2013-04-03T11:25:40Z</time>
      </trkpt>
      <trkpt lat="44.31917" lon="4.05256">
        <ele>297</ele>
        <time>2013-04-03T11:25:42Z</time>
      </trkpt>
      <trkpt lat="44.31918" lon="4.05258">
        <ele>298</ele>
        <time>2013-04-03T11:25:44Z</time>
      </trkpt>
      <trkpt lat="44.31919" lon="4.0526">
        <ele>299</ele>
        <time>2013-04-03T11:25:46Z</time>
      </trkpt>
      <trkpt lat="44.3192" lon="4.05262">
        <ele>300</ele>
        <time>2013-04-03T11:25:48Z</time>
      </trkpt>
      <trkpt lat="44.3192" lon="4.05263">
        <ele>300</ele>
        <time>2013-04-03T11:25:50Z</time>
      </trkpt>
      <trkpt lat="44.31921" lon="4.05265">
        <ele>300</ele>
        <time>2013-04-03T11:25:52Z</time>
      </trkpt>
      <trkpt lat="44.31922" lon="4.05267">
        <ele>301</ele>
        <time>2013-04-03T11:25:54Z</time>
      </trkpt>
      <trkpt lat="44.31923" lon="4.05269">
        <ele>301</ele>
        <time>2013-04-03T11:25:56Z</time>
      </trkpt>
      <trkpt lat="44.31924" lon="4.0527">
        <ele>301</ele>
        <time>2013-04-03T11:25:58Z</time>
      </trkpt>
      <trkpt lat="44.31925" lon="4.05271">
        <ele>301</ele>
        <time>2013-04-03T11:25:59Z</time>
      </trkpt>
      <trkpt lat="44.31926" lon="4.05273">
        <ele>302</ele>
        <time>2013-04-03T11:26:00Z</time>
      </trkpt>
      <trkpt lat="44.31927" lon="4.05274">
        <ele>302</ele>
        <time>2013-04-03T11:26:02Z</time>
      </trkpt>
      <trkpt lat="44.31928" lon="4.05276">
        <ele>302</ele>
        <time>2013-04-03T11:26:04Z</time>
      </trkpt>
      <trkpt lat="44.31929" lon="4.05278">
        <ele>303</ele>
        <time>2013-04-03T11:26:06Z</time>
      </trkpt>
      <trkpt lat="44.3193" lon="4.0528">
        <ele>303</ele>
        <time>2013-04-03T11:26:08Z</time>
      </trkpt>
      <trkpt lat="44.31931" lon="4.05282">
        <ele>304</ele>
        <time>2013-04-03T11:26:10Z</time>
      </trkpt>
      <trkpt lat="44.31932" lon="4.05285">
        <ele>305</ele>
        <time>2013-04-03T11:26:12Z</time>
      </trkpt>
      <trkpt lat="44.31933" lon="4.05287">
        <ele>305</ele>
        <time>2013-04-03T11:26:14Z</time>
      </trkpt>
      <trkpt lat="44.31933" lon="4.05288">
        <ele>305</ele>
        <time>2013-04-03T11:26:15Z</time>
      </trkpt>
      <trkpt lat="44.31934" lon="4.05289">
        <ele>305</ele>
        <time>2013-04-03T11:26:16Z</time>
      </trkpt>
      <trkpt lat="44.31934" lon="4.0529">
        <ele>306</ele>
        <time>2013-04-03T11:26:18Z</time>
      </trkpt>
      <trkpt lat="44.31935" lon="4.05291">
        <ele>307</ele>
        <time>2013-04-03T11:26:20Z</time>
      </trkpt>
      <trkpt lat="44.31935" lon="4.05292">
        <ele>307</ele>
        <time>2013-04-03T11:26:22Z</time>
      </trkpt>
      <trkpt lat="44.31936" lon="4.05295">
        <ele>307</ele>
        <time>2013-04-03T11:26:24Z</time>
      </trkpt>
      <trkpt lat="44.31937" lon="4.05296">
        <ele>306</ele>
        <time>2013-04-03T11:26:26Z</time>
      </trkpt>
      <trkpt lat="44.31938" lon="4.05298">
        <ele>307</ele>
        <time>2013-04-03T11:26:28Z</time>
      </trkpt>
      <trkpt lat="44.31938" lon="4.05299">
        <ele>308</ele>
        <time>2013-04-03T11:26:29Z</time>
      </trkpt>
      <trkpt lat="44.3194" lon="4.053">
        <ele>309</ele>
        <time>2013-04-03T11:26:32Z</time>
      </trkpt>
      <trkpt lat="44.31941" lon="4.05302">
        <ele>309</ele>
        <time>2013-04-03T11:26:34Z</time>
      </trkpt>
      <trkpt lat="44.31941" lon="4.05303">
        <ele>310</ele>
        <time>2013-04-03T11:26:36Z</time>
      </trkpt>
      <trkpt lat="44.31941" lon="4.05303">
        <ele>310</ele>
        <time>2013-04-03T11:26:38Z</time>
      </trkpt>
      <trkpt lat="44.31941" lon="4.05303">
        <ele>310</ele>
        <time>2013-04-03T11:26:40Z</time>
      </trkpt>
      <trkpt lat="44.31941" lon="4.05303">
        <ele>310</ele>
        <time>2013-04-03T11:26:42Z</time>
      </trkpt>
      <trkpt lat="44.31941" lon="4.05303">
        <ele>310</ele>
        <time>2013-04-03T11:26:44Z</time>
      </trkpt>
      <trkpt lat="44.31941" lon="4.05303">
        <ele>310</ele>
        <time>2013-04-03T11:26:46Z</time>
      </trkpt>
      <trkpt lat="44.31941" lon="4.05303">
        <ele>310</ele>
        <time>2013-04-03T11:26:48Z</time>
      </trkpt>
      <trkpt lat="44.31941" lon="4.05303">
        <ele>310</ele>
        <time>2013-04-03T11:26:50Z</time>
      </trkpt>
      <trkpt lat="44.31941" lon="4.05303">
        <ele>310</ele>
        <time>2013-04-03T11:26:52Z</time>
      </trkpt>
      <trkpt lat="44.31941" lon="4.05303">
        <ele>310</ele>
        <time>2013-04-03T11:26:54Z</time>
      </trkpt>
      <trkpt lat="44.31941" lon="4.05303">
        <ele>310</ele>
        <time>2013-04-03T11:26:56Z</time>
      </trkpt>
      <trkpt lat="44.31941" lon="4.05303">
        <ele>310</ele>
        <time>2013-04-03T11:26:58Z</time>
      </trkpt>
      <trkpt lat="44.31941" lon="4.05303">
        <ele>310</ele>
        <time>2013-04-03T11:26:59Z</time>
      </trkpt>
      <trkpt lat="44.31941" lon="4.05303">
        <ele>310</ele>
        <time>2013-04-03T11:27:00Z</time>
      </trkpt>
      <trkpt lat="44.31941" lon="4.05303">
        <ele>310</ele>
        <time>2013-04-03T11:27:02Z</time>
      </trkpt>
      <trkpt lat="44.31941" lon="4.05303">
        <ele>310</ele>
        <time>2013-04-03T11:27:04Z</time>
      </trkpt>
      <trkpt lat="44.31941" lon="4.05303">
        <ele>310</ele>
        <time>2013-04-03T11:27:06Z</time>
      </trkpt>
      <trkpt lat="44.31941" lon="4.05303">
        <ele>310</ele>
        <time>2013-04-03T11:27:08Z</time>
      </trkpt>
      <trkpt lat="44.31941" lon="4.05303">
        <ele>310</ele>
        <time>2013-04-03T11:27:10Z</time>
      </trkpt>
      <trkpt lat="44.31942" lon="4.05303">
        <ele>310</ele>
        <time>2013-04-03T11:27:12Z</time>
      </trkpt>
      <trkpt lat="44.31942" lon="4.05304">
        <ele>311</ele>
        <time>2013-04-03T11:27:14Z</time>
      </trkpt>
      <trkpt lat="44.31943" lon="4.05304">
        <ele>312</ele>
        <time>2013-04-03T11:27:15Z</time>
      </trkpt>
      <trkpt lat="44.31943" lon="4.05305">
        <ele>312</ele>
        <time>2013-04-03T11:27:16Z</time>
      </trkpt>
      <trkpt lat="44.31943" lon="4.05305">
        <ele>313</ele>
        <time>2013-04-03T11:27:18Z</time>
      </trkpt>
      <trkpt lat="44.31944" lon="4.05307">
        <ele>314</ele>
        <time>2013-04-03T11:27:20Z</time>
      </trkpt>
      <trkpt lat="44.31945" lon="4.05308">
        <ele>314</ele>
        <time>2013-04-03T11:27:22Z</time>
      </trkpt>
      <trkpt lat="44.31946" lon="4.05309">
        <ele>314</ele>
        <time>2013-04-03T11:27:24Z</time>
      </trkpt>
      <trkpt lat="44.31946" lon="4.0531">
        <ele>315</ele>
        <time>2013-04-03T11:27:26Z</time>
      </trkpt>
      <trkpt lat="44.31948" lon="4.05312">
        <ele>315</ele>
        <time>2013-04-03T11:27:28Z</time>
      </trkpt>
      <trkpt lat="44.31949" lon="4.05314">
        <ele>316</ele>
        <time>2013-04-03T11:27:30Z</time>
      </trkpt>
      <trkpt lat="44.31949" lon="4.05314">
        <ele>316</ele>
        <time>2013-04-03T11:27:31Z</time>
      </trkpt>
      <trkpt lat="44.31951" lon="4.05317">
        <ele>316</ele>
        <time>2013-04-03T11:27:34Z</time>
      </trkpt>
      <trkpt lat="44.31953" lon="4.0532">
        <ele>316</ele>
        <time>2013-04-03T11:27:36Z</time>
      </trkpt>
      <trkpt lat="44.31954" lon="4.05321">
        <ele>315</ele>
        <time>2013-04-03T11:27:38Z</time>
      </trkpt>
      <trkpt lat="44.31955" lon="4.05322">
        <ele>316</ele>
        <time>2013-04-03T11:27:40Z</time>
      </trkpt>
      <trkpt lat="44.31956" lon="4.05324">
        <ele>317</ele>
        <time>2013-04-03T11:27:42Z</time>
      </trkpt>
      <trkpt lat="44.31956" lon="4.05325">
        <ele>317</ele>
        <time>2013-04-03T11:27:44Z</time>
      </trkpt>
      <trkpt lat="44.31957" lon="4.05326">
        <ele>319</ele>
        <time>2013-04-03T11:27:46Z</time>
      </trkpt>
      <trkpt lat="44.31958" lon="4.05328">
        <ele>320</ele>
        <time>2013-04-03T11:27:48Z</time>
      </trkpt>
      <trkpt lat="44.31959" lon="4.05329">
        <ele>320</ele>
        <time>2013-04-03T11:27:50Z</time>
      </trkpt>
      <trkpt lat="44.31959" lon="4.0533">
        <ele>320</ele>
        <time>2013-04-03T11:27:52Z</time>
      </trkpt>
      <trkpt lat="44.3196" lon="4.05332">
        <ele>320</ele>
        <time>2013-04-03T11:27:54Z</time>
      </trkpt>
      <trkpt lat="44.31962" lon="4.05334">
        <ele>320</ele>
        <time>2013-04-03T11:27:56Z</time>
      </trkpt>
      <trkpt lat="44.31963" lon="4.05337">
        <ele>320</ele>
        <time>2013-04-03T11:27:58Z</time>
      </trkpt>
      <trkpt lat="44.31963" lon="4.05338">
        <ele>320</ele>
        <time>2013-04-03T11:27:59Z</time>
      </trkpt>
      <trkpt lat="44.31964" lon="4.05339">
        <ele>321</ele>
        <time>2013-04-03T11:28:00Z</time>
      </trkpt>
      <trkpt lat="44.31964" lon="4.0534">
        <ele>321</ele>
        <time>2013-04-03T11:28:02Z</time>
      </trkpt>
      <trkpt lat="44.31964" lon="4.0534">
        <ele>321</ele>
        <time>2013-04-03T11:28:04Z</time>
      </trkpt>
      <trkpt lat="44.31964" lon="4.0534">
        <ele>321</ele>
        <time>2013-04-03T11:28:06Z</time>
      </trkpt>
      <trkpt lat="44.31965" lon="4.0534">
        <ele>321</ele>
        <time>2013-04-03T11:28:08Z</time>
      </trkpt>
      <trkpt lat="44.31966" lon="4.05341">
        <ele>321</ele>
        <time>2013-04-03T11:28:10Z</time>
      </trkpt>
      <trkpt lat="44.31968" lon="4.05344">
        <ele>322</ele>
        <time>2013-04-03T11:28:12Z</time>
      </trkpt>
      <trkpt lat="44.31969" lon="4.05345">
        <ele>321</ele>
        <time>2013-04-03T11:28:14Z</time>
      </trkpt>
      <trkpt lat="44.3197" lon="4.05346">
        <ele>321</ele>
        <time>2013-04-03T11:28:15Z</time>
      </trkpt>
      <trkpt lat="44.31971" lon="4.05346">
        <ele>321</ele>
        <time>2013-04-03T11:28:16Z</time>
      </trkpt>
      <trkpt lat="44.31973" lon="4.05347">
        <ele>322</ele>
        <time>2013-04-03T11:28:18Z</time>
      </trkpt>
      <trkpt lat="44.31975" lon="4.05349">
        <ele>321</ele>
        <time>2013-04-03T11:28:20Z</time>
      </trkpt>
      <trkpt lat="44.31978" lon="4.0535">
        <ele>321</ele>
        <time>2013-04-03T11:28:22Z</time>
      </trkpt>
      <trkpt lat="44.31979" lon="4.05351">
        <ele>323</ele>
        <time>2013-04-03T11:28:24Z</time>
      </trkpt>
      <trkpt lat="44.31981" lon="4.05353">
        <ele>323</ele>
        <time>2013-04-03T11:28:26Z</time>
      </trkpt>
      <trkpt lat="44.31983" lon="4.05354">
        <ele>323</ele>
        <time>2013-04-03T11:28:28Z</time>
      </trkpt>
      <trkpt lat="44.31985" lon="4.05355">
        <ele>324</ele>
        <time>2013-04-03T11:28:30Z</time>
      </trkpt>
      <trkpt lat="44.31988" lon="4.05356">
        <ele>325</ele>
        <time>2013-04-03T11:28:32Z</time>
      </trkpt>
      <trkpt lat="44.31989" lon="4.05356">
        <ele>325</ele>
        <time>2013-04-03T11:28:33Z</time>
      </trkpt>
      <trkpt lat="44.31991" lon="4.05357">
        <ele>326</ele>
        <time>2013-04-03T11:28:36Z</time>
      </trkpt>
      <trkpt lat="44.31993" lon="4.05357">
        <ele>326</ele>
        <time>2013-04-03T11:28:38Z</time>
      </trkpt>
      <trkpt lat="44.31995" lon="4.05358">
        <ele>326</ele>
        <time>2013-04-03T11:28:40Z</time>
      </trkpt>
      <trkpt lat="44.31997" lon="4.05358">
        <ele>327</ele>
        <time>2013-04-03T11:28:42Z</time>
      </trkpt>
      <trkpt lat="44.31999" lon="4.05358">
        <ele>328</ele>
        <time>2013-04-03T11:28:44Z</time>
      </trkpt>
      <trkpt lat="44.32001" lon="4.05358">
        <ele>329</ele>
        <time>2013-04-03T11:28:46Z</time>
      </trkpt>
      <trkpt lat="44.32003" lon="4.05358">
        <ele>330</ele>
        <time>2013-04-03T11:28:48Z</time>
      </trkpt>
      <trkpt lat="44.32005" lon="4.05358">
        <ele>330</ele>
        <time>2013-04-03T11:28:50Z</time>
      </trkpt>
      <trkpt lat="44.32007" lon="4.05359">
        <ele>331</ele>
        <time>2013-04-03T11:28:52Z</time>
      </trkpt>
      <trkpt lat="44.32009" lon="4.05358">
        <ele>332</ele>
        <time>2013-04-03T11:28:54Z</time>
      </trkpt>
      <trkpt lat="44.32011" lon="4.05357">
        <ele>333</ele>
        <time>2013-04-03T11:28:56Z</time>
      </trkpt>
      <trkpt lat="44.32013" lon="4.05358">
        <ele>334</ele>
        <time>2013-04-03T11:28:58Z</time>
      </trkpt>
      <trkpt lat="44.32014" lon="4.05358">
        <ele>334</ele>
        <time>2013-04-03T11:28:59Z</time>
      </trkpt>
      <trkpt lat="44.32014" lon="4.05359">
        <ele>335</ele>
        <time>2013-04-03T11:29:00Z</time>
      </trkpt>
      <trkpt lat="44.32016" lon="4.0536">
        <ele>336</ele>
        <time>2013-04-03T11:29:02Z</time>
      </trkpt>
      <trkpt lat="44.32018" lon="4.0536">
        <ele>337</ele>
        <time>2013-04-03T11:29:04Z</time>
      </trkpt>
      <trkpt lat="44.32019" lon="4.0536">
        <ele>337</ele>
        <time>2013-04-03T11:29:06Z</time>
      </trkpt>
      <trkpt lat="44.3202" lon="4.05359">
        <ele>338</ele>
        <time>2013-04-03T11:29:08Z</time>
      </trkpt>
      <trkpt lat="44.3202" lon="4.05358">
        <ele>339</ele>
        <time>2013-04-03T11:29:10Z</time>
      </trkpt>
      <trkpt lat="44.32022" lon="4.05359">
        <ele>340</ele>
        <time>2013-04-03T11:29:12Z</time>
      </trkpt>
      <trkpt lat="44.32023" lon="4.0536">
        <ele>340</ele>
        <time>2013-04-03T11:29:14Z</time>
      </trkpt>
      <trkpt lat="44.32024" lon="4.05361">
        <ele>340</ele>
        <time>2013-04-03T11:29:15Z</time>
      </trkpt>
      <trkpt lat="44.32024" lon="4.05361">
        <ele>340</ele>
        <time>2013-04-03T11:29:16Z</time>
      </trkpt>
      <trkpt lat="44.32025" lon="4.05362">
        <ele>341</ele>
        <time>2013-04-03T11:29:18Z</time>
      </trkpt>
      <trkpt lat="44.32026" lon="4.05363">
        <ele>342</ele>
        <time>2013-04-03T11:29:20Z</time>
      </trkpt>
      <trkpt lat="44.32027" lon="4.05365">
        <ele>341</ele>
        <time>2013-04-03T11:29:22Z</time>
      </trkpt>
      <trkpt lat="44.32028" lon="4.05366">
        <ele>341</ele>
        <time>2013-04-03T11:29:24Z</time>
      </trkpt>
      <trkpt lat="44.32029" lon="4.05367">
        <ele>341</ele>
        <time>2013-04-03T11:29:26Z</time>
      </trkpt>
      <trkpt lat="44.32029" lon="4.05367">
        <ele>342</ele>
        <time>2013-04-03T11:29:28Z</time>
      </trkpt>
      <trkpt lat="44.3203" lon="4.05368">
        <ele>342</ele>
        <time>2013-04-03T11:29:30Z</time>
      </trkpt>
      <trkpt lat="44.32031" lon="4.05369">
        <ele>342</ele>
        <time>2013-04-03T11:29:32Z</time>
      </trkpt>
      <trkpt lat="44.32031" lon="4.05372">
        <ele>342</ele>
        <time>2013-04-03T11:29:34Z</time>
      </trkpt>
      <trkpt lat="44.32032" lon="4.05373">
        <ele>341</ele>
        <time>2013-04-03T11:29:35Z</time>
      </trkpt>
      <trkpt lat="44.32034" lon="4.05375">
        <ele>340</ele>
        <time>2013-04-03T11:29:38Z</time>
      </trkpt>
      <trkpt lat="44.32034" lon="4.05375">
        <ele>340</ele>
        <time>2013-04-03T11:29:40Z</time>
      </trkpt>
      <trkpt lat="44.32035" lon="4.05375">
        <ele>340</ele>
        <time>2013-04-03T11:29:42Z</time>
      </trkpt>
      <trkpt lat="44.32035" lon="4.05378">
        <ele>341</ele>
        <time>2013-04-03T11:29:44Z</time>
      </trkpt>
      <trkpt lat="44.32035" lon="4.05379">
        <ele>341</ele>
        <time>2013-04-03T11:29:46Z</time>
      </trkpt>
      <trkpt lat="44.32034" lon="4.05381">
        <ele>341</ele>
        <time>2013-04-03T11:29:48Z</time>
      </trkpt>
      <trkpt lat="44.32034" lon="4.05385">
        <ele>342</ele>
        <time>2013-04-03T11:29:50Z</time>
      </trkpt>
      <trkpt lat="44.32035" lon="4.05387">
        <ele>342</ele>
        <time>2013-04-03T11:29:52Z</time>
      </trkpt>
      <trkpt lat="44.32035" lon="4.05389">
        <ele>342</ele>
        <time>2013-04-03T11:29:54Z</time>
      </trkpt>
      <trkpt lat="44.32035" lon="4.05393">
        <ele>342</ele>
        <time>2013-04-03T11:29:56Z</time>
      </trkpt>
      <trkpt lat="44.32035" lon="4.05396">
        <ele>342</ele>
        <time>2013-04-03T11:29:58Z</time>
      </trkpt>
      <trkpt lat="44.32036" lon="4.05397">
        <ele>342</ele>
        <time>2013-04-03T11:29:59Z</time>
      </trkpt>
      <trkpt lat="44.32036" lon="4.05398">
        <ele>341</ele>
        <time>2013-04-03T11:30:00Z</time>
      </trkpt>
      <trkpt lat="44.32036" lon="4.05402">
        <ele>340</ele>
        <time>2013-04-03T11:30:02Z</time>
      </trkpt>
      <trkpt lat="44.32036" lon="4.05406">
        <ele>340</ele>
        <time>2013-04-03T11:30:04Z</time>
      </trkpt>
      <trkpt lat="44.32036" lon="4.05409">
        <ele>340</ele>
        <time>2013-04-03T11:30:06Z</time>
      </trkpt>
      <trkpt lat="44.32037" lon="4.05413">
        <ele>339</ele>
        <time>2013-04-03T11:30:08Z</time>
      </trkpt>
      <trkpt lat="44.32037" lon="4.05414">
        <ele>339</ele>
        <time>2013-04-03T11:30:10Z</time>
      </trkpt>
      <trkpt lat="44.32037" lon="4.05417">
        <ele>338</ele>
        <time>2013-04-03T11:30:12Z</time>
      </trkpt>
      <trkpt lat="44.32037" lon="4.0542">
        <ele>338</ele>
        <time>2013-04-03T11:30:14Z</time>
      </trkpt>
      <trkpt lat="44.32038" lon="4.05422">
        <ele>338</ele>
        <time>2013-04-03T11:30:15Z</time>
      </trkpt>
      <trkpt lat="44.32038" lon="4.05424">
        <ele>338</ele>
        <time>2013-04-03T11:30:16Z</time>
      </trkpt>
      <trkpt lat="44.32038" lon="4.05428">
        <ele>338</ele>
        <time>2013-04-03T11:30:18Z</time>
      </trkpt>
      <trkpt lat="44.32038" lon="4.05431">
        <ele>338</ele>
        <time>2013-04-03T11:30:20Z</time>
      </trkpt>
      <trkpt lat="44.32038" lon="4.05431">
        <ele>338</ele>
        <time>2013-04-03T11:30:22Z</time>
      </trkpt>
      <trkpt lat="44.32038" lon="4.05434">
        <ele>338</ele>
        <time>2013-04-03T11:30:24Z</time>
      </trkpt>
      <trkpt lat="44.32038" lon="4.05436">
        <ele>338</ele>
        <time>2013-04-03T11:30:26Z</time>
      </trkpt>
      <trkpt lat="44.32039" lon="4.05439">
        <ele>339</ele>
        <time>2013-04-03T11:30:28Z</time>
      </trkpt>
      <trkpt lat="44.32039" lon="4.05442">
        <ele>340</ele>
        <time>2013-04-03T11:30:30Z</time>
      </trkpt>
      <trkpt lat="44.32039" lon="4.05444">
        <ele>340</ele>
        <time>2013-04-03T11:30:32Z</time>
      </trkpt>
      <trkpt lat="44.3204" lon="4.05446">
        <ele>340</ele>
        <time>2013-04-03T11:30:34Z</time>
      </trkpt>
      <trkpt lat="44.3204" lon="4.05449">
        <ele>339</ele>
        <time>2013-04-03T11:30:36Z</time>
      </trkpt>
      <trkpt lat="44.3204" lon="4.05451">
        <ele>340</ele>
        <time>2013-04-03T11:30:37Z</time>
      </trkpt>
      <trkpt lat="44.3204" lon="4.05454">
        <ele>339</ele>
        <time>2013-04-03T11:30:40Z</time>
      </trkpt>
      <trkpt lat="44.32041" lon="4.05456">
        <ele>339</ele>
        <time>2013-04-03T11:30:42Z</time>
      </trkpt>
      <trkpt lat="44.32042" lon="4.05459">
        <ele>339</ele>
        <time>2013-04-03T11:30:44Z</time>
      </trkpt>
      <trkpt lat="44.32042" lon="4.05462">
        <ele>339</ele>
        <time>2013-04-03T11:30:46Z</time>
      </trkpt>
      <trkpt lat="44.32043" lon="4.05465">
        <ele>338</ele>
        <time>2013-04-03T11:30:48Z</time>
      </trkpt>
      <trkpt lat="44.32044" lon="4.05468">
        <ele>339</ele>
        <time>2013-04-03T11:30:50Z</time>
      </trkpt>
      <trkpt lat="44.32045" lon="4.0547">
        <ele>339</ele>
        <time>2013-04-03T11:30:52Z</time>
      </trkpt>
      <trkpt lat="44.32047" lon="4.05472">
        <ele>339</ele>
        <time>2013-04-03T11:30:54Z</time>
      </trkpt>
      <trkpt lat="44.32048" lon="4.05475">
        <ele>340</ele>
        <time>2013-04-03T11:30:56Z</time>
      </trkpt>
      <trkpt lat="44.32049" lon="4.05477">
        <ele>340</ele>
        <time>2013-04-03T11:30:58Z</time>
      </trkpt>
      <trkpt lat="44.3205" lon="4.05478">
        <ele>340</ele>
        <time>2013-04-03T11:30:59Z</time>
      </trkpt>
      <trkpt lat="44.3205" lon="4.05479">
        <ele>340</ele>
        <time>2013-04-03T11:31:00Z</time>
      </trkpt>
      <trkpt lat="44.32052" lon="4.05481">
        <ele>340</ele>
        <time>2013-04-03T11:31:02Z</time>
      </trkpt>
      <trkpt lat="44.32053" lon="4.05482">
        <ele>341</ele>
        <time>2013-04-03T11:31:04Z</time>
      </trkpt>
      <trkpt lat="44.32055" lon="4.05484">
        <ele>342</ele>
        <time>2013-04-03T11:31:06Z</time>
      </trkpt>
      <trkpt lat="44.32056" lon="4.05486">
        <ele>342</ele>
        <time>2013-04-03T11:31:08Z</time>
      </trkpt>
      <trkpt lat="44.32058" lon="4.05488">
        <ele>342</ele>
        <time>2013-04-03T11:31:10Z</time>
      </trkpt>
      <trkpt lat="44.32059" lon="4.05488">
        <ele>343</ele>
        <time>2013-04-03T11:31:12Z</time>
      </trkpt>
      <trkpt lat="44.32061" lon="4.05489">
        <ele>343</ele>
        <time>2013-04-03T11:31:14Z</time>
      </trkpt>
      <trkpt lat="44.32062" lon="4.0549">
        <ele>343</ele>
        <time>2013-04-03T11:31:15Z</time>
      </trkpt>
      <trkpt lat="44.32062" lon="4.05491">
        <ele>343</ele>
        <time>2013-04-03T11:31:16Z</time>
      </trkpt>
      <trkpt lat="44.32064" lon="4.05492">
        <ele>343</ele>
        <time>2013-04-03T11:31:18Z</time>
      </trkpt>
      <trkpt lat="44.32066" lon="4.05495">
        <ele>343</ele>
        <time>2013-04-03T11:31:20Z</time>
      </trkpt>
      <trkpt lat="44.32067" lon="4.05497">
        <ele>344</ele>
        <time>2013-04-03T11:31:22Z</time>
      </trkpt>
      <trkpt lat="44.32068" lon="4.05499">
        <ele>344</ele>
        <time>2013-04-03T11:31:24Z</time>
      </trkpt>
      <trkpt lat="44.3207" lon="4.05501">
        <ele>344</ele>
        <time>2013-04-03T11:31:26Z</time>
      </trkpt>
      <trkpt lat="44.32072" lon="4.05502">
        <ele>345</ele>
        <time>2013-04-03T11:31:28Z</time>
      </trkpt>
      <trkpt lat="44.32073" lon="4.05504">
        <ele>345</ele>
        <time>2013-04-03T11:31:30Z</time>
      </trkpt>
      <trkpt lat="44.32075" lon="4.05506">
        <ele>346</ele>
        <time>2013-04-03T11:31:32Z</time>
      </trkpt>
      <trkpt lat="44.32076" lon="4.05508">
        <ele>346</ele>
        <time>2013-04-03T11:31:34Z</time>
      </trkpt>
      <trkpt lat="44.32077" lon="4.05511">
        <ele>346</ele>
        <time>2013-04-03T11:31:36Z</time>
      </trkpt>
      <trkpt lat="44.32078" lon="4.05513">
        <ele>347</ele>
        <time>2013-04-03T11:31:38Z</time>
      </trkpt>
      <trkpt lat="44.32079" lon="4.05514">
        <ele>347</ele>
        <time>2013-04-03T11:31:39Z</time>
      </trkpt>
      <trkpt lat="44.32081" lon="4.05516">
        <ele>347</ele>
        <time>2013-04-03T11:31:42Z</time>
      </trkpt>
      <trkpt lat="44.32082" lon="4.05517">
        <ele>348</ele>
        <time>2013-04-03T11:31:44Z</time>
      </trkpt>
      <trkpt lat="44.32083" lon="4.0552">
        <ele>347</ele>
        <time>2013-04-03T11:31:46Z</time>
      </trkpt>
      <trkpt lat="44.32085" lon="4.05522">
        <ele>346</ele>
        <time>2013-04-03T11:31:48Z</time>
      </trkpt>
      <trkpt lat="44.32087" lon="4.05524">
        <ele>346</ele>
        <time>2013-04-03T11:31:50Z</time>
      </trkpt>
      <trkpt lat="44.3209" lon="4.05526">
        <ele>346</ele>
        <time>2013-04-03T11:31:52Z</time>
      </trkpt>
      <trkpt lat="44.32092" lon="4.05528">
        <ele>346</ele>
        <time>2013-04-03T11:31:54Z</time>
      </trkpt>
      <trkpt lat="44.32093" lon="4.0553">
        <ele>346</ele>
        <time>2013-04-03T11:31:56Z</time>
      </trkpt>
      <trkpt lat="44.32095" lon="4.05532">
        <ele>347</ele>
        <time>2013-04-03T11:31:58Z</time>
      </trkpt>
      <trkpt lat="44.32096" lon="4.05533">
        <ele>347</ele>
        <time>2013-04-03T11:31:59Z</time>
      </trkpt>
      <trkpt lat="44.32097" lon="4.05534">
        <ele>347</ele>
        <time>2013-04-03T11:32:00Z</time>
      </trkpt>
      <trkpt lat="44.32098" lon="4.05536">
        <ele>348</ele>
        <time>2013-04-03T11:32:02Z</time>
      </trkpt>
      <trkpt lat="44.321" lon="4.05538">
        <ele>348</ele>
        <time>2013-04-03T11:32:04Z</time>
      </trkpt>
      <trkpt lat="44.32103" lon="4.0554">
        <ele>348</ele>
        <time>2013-04-03T11:32:06Z</time>
      </trkpt>
      <trkpt lat="44.32104" lon="4.05541">
        <ele>349</ele>
        <time>2013-04-03T11:32:08Z</time>
      </trkpt>
      <trkpt lat="44.32105" lon="4.05541">
        <ele>350</ele>
        <time>2013-04-03T11:32:10Z</time>
      </trkpt>
      <trkpt lat="44.32107" lon="4.05542">
        <ele>350</ele>
        <time>2013-04-03T11:32:12Z</time>
      </trkpt>
      <trkpt lat="44.32109" lon="4.05543">
        <ele>350</ele>
        <time>2013-04-03T11:32:14Z</time>
      </trkpt>
      <trkpt lat="44.3211" lon="4.05544">
        <ele>350</ele>
        <time>2013-04-03T11:32:15Z</time>
      </trkpt>
      <trkpt lat="44.32111" lon="4.05545">
        <ele>350</ele>
        <time>2013-04-03T11:32:16Z</time>
      </trkpt>
      <trkpt lat="44.32113" lon="4.05547">
        <ele>350</ele>
        <time>2013-04-03T11:32:18Z</time>
      </trkpt>
      <trkpt lat="44.32115" lon="4.05548">
        <ele>350</ele>
        <time>2013-04-03T11:32:20Z</time>
      </trkpt>
      <trkpt lat="44.32118" lon="4.05548">
        <ele>350</ele>
        <time>2013-04-03T11:32:22Z</time>
      </trkpt>
      <trkpt lat="44.32119" lon="4.05548">
        <ele>349</ele>
        <time>2013-04-03T11:32:24Z</time>
      </trkpt>
      <trkpt lat="44.32122" lon="4.05548">
        <ele>349</ele>
        <time>2013-04-03T11:32:26Z</time>
      </trkpt>
      <trkpt lat="44.32124" lon="4.05548">
        <ele>348</ele>
        <time>2013-04-03T11:32:28Z</time>
      </trkpt>
      <trkpt lat="44.32125" lon="4.05547">
        <ele>349</ele>
        <time>2013-04-03T11:32:30Z</time>
      </trkpt>
      <trkpt lat="44.32127" lon="4.05546">
        <ele>349</ele>
        <time>2013-04-03T11:32:32Z</time>
      </trkpt>
      <trkpt lat="44.32129" lon="4.05547">
        <ele>350</ele>
        <time>2013-04-03T11:32:34Z</time>
      </trkpt>
      <trkpt lat="44.32131" lon="4.05547">
        <ele>350</ele>
        <time>2013-04-03T11:32:36Z</time>
      </trkpt>
      <trkpt lat="44.32132" lon="4.05547">
        <ele>350</ele>
        <time>2013-04-03T11:32:38Z</time>
      </trkpt>
      <trkpt lat="44.32135" lon="4.05547">
        <ele>351</ele>
        <time>2013-04-03T11:32:40Z</time>
      </trkpt>
      <trkpt lat="44.32135" lon="4.05546">
        <ele>351</ele>
        <time>2013-04-03T11:32:41Z</time>
      </trkpt>
      <trkpt lat="44.32137" lon="4.05546">
        <ele>352</ele>
        <time>2013-04-03T11:32:44Z</time>
      </trkpt>
      <trkpt lat="44.32138" lon="4.05547">
        <ele>352</ele>
        <time>2013-04-03T11:32:46Z</time>
      </trkpt>
      <trkpt lat="44.32141" lon="4.05548">
        <ele>352</ele>
        <time>2013-04-03T11:32:48Z</time>
      </trkpt>
      <trkpt lat="44.32143" lon="4.05548">
        <ele>352</ele>
        <time>2013-04-03T11:32:50Z</time>
      </trkpt>
      <trkpt lat="44.32146" lon="4.05547">
        <ele>352</ele>
        <time>2013-04-03T11:32:52Z</time>
      </trkpt>
      <trkpt lat="44.32148" lon="4.05546">
        <ele>352</ele>
        <time>2013-04-03T11:32:54Z</time>
      </trkpt>
      <trkpt lat="44.32151" lon="4.05546">
        <ele>352</ele>
        <time>2013-04-03T11:32:56Z</time>
      </trkpt>
      <trkpt lat="44.32153" lon="4.05547">
        <ele>352</ele>
        <time>2013-04-03T11:32:58Z</time>
      </trkpt>
      <trkpt lat="44.32154" lon="4.05546">
        <ele>352</ele>
        <time>2013-04-03T11:32:59Z</time>
      </trkpt>
      <trkpt lat="44.32156" lon="4.05546">
        <ele>353</ele>
        <time>2013-04-03T11:33:00Z</time>
      </trkpt>
      <trkpt lat="44.32158" lon="4.05547">
        <ele>353</ele>
        <time>2013-04-03T11:33:02Z</time>
      </trkpt>
      <trkpt lat="44.32159" lon="4.05547">
        <ele>353</ele>
        <time>2013-04-03T11:33:04Z</time>
      </trkpt>
      <trkpt lat="44.32161" lon="4.05547">
        <ele>354</ele>
        <time>2013-04-03T11:33:06Z</time>
      </trkpt>
      <trkpt lat="44.32163" lon="4.05547">
        <ele>354</ele>
        <time>2013-04-03T11:33:08Z</time>
      </trkpt>
      <trkpt lat="44.32165" lon="4.05548">
        <ele>355</ele>
        <time>2013-04-03T11:33:10Z</time>
      </trkpt>
      <trkpt lat="44.32165" lon="4.05548">
        <ele>355</ele>
        <time>2013-04-03T11:33:12Z</time>
      </trkpt>
      <trkpt lat="44.32167" lon="4.05548">
        <ele>355</ele>
        <time>2013-04-03T11:33:14Z</time>
      </trkpt>
      <trkpt lat="44.32168" lon="4.05548">
        <ele>355</ele>
        <time>2013-04-03T11:33:15Z</time>
      </trkpt>
      <trkpt lat="44.32168" lon="4.05548">
        <ele>355</ele>
        <time>2013-04-03T11:33:16Z</time>
      </trkpt>
      <trkpt lat="44.32171" lon="4.05546">
        <ele>355</ele>
        <time>2013-04-03T11:33:18Z</time>
      </trkpt>
      <trkpt lat="44.32173" lon="4.05546">
        <ele>355</ele>
        <time>2013-04-03T11:33:20Z</time>
      </trkpt>
      <trkpt lat="44.32176" lon="4.05545">
        <ele>355</ele>
        <time>2013-04-03T11:33:22Z</time>
      </trkpt>
      <trkpt lat="44.32178" lon="4.05543">
        <ele>354</ele>
        <time>2013-04-03T11:33:24Z</time>
      </trkpt>
      <trkpt lat="44.3218" lon="4.05541">
        <ele>354</ele>
        <time>2013-04-03T11:33:26Z</time>
      </trkpt>
      <trkpt lat="44.32182" lon="4.0554">
        <ele>353</ele>
        <time>2013-04-03T11:33:28Z</time>
      </trkpt>
      <trkpt lat="44.32183" lon="4.05538">
        <ele>354</ele>
        <time>2013-04-03T11:33:30Z</time>
      </trkpt>
      <trkpt lat="44.32185" lon="4.05536">
        <ele>353</ele>
        <time>2013-04-03T11:33:32Z</time>
      </trkpt>
      <trkpt lat="44.32187" lon="4.05535">
        <ele>353</ele>
        <time>2013-04-03T11:33:34Z</time>
      </trkpt>
      <trkpt lat="44.32187" lon="4.05535">
        <ele>353</ele>
        <time>2013-04-03T11:33:36Z</time>
      </trkpt>
      <trkpt lat="44.32189" lon="4.05533">
        <ele>353</ele>
        <time>2013-04-03T11:33:38Z</time>
      </trkpt>
      <trkpt lat="44.3219" lon="4.05531">
        <ele>352</ele>
        <time>2013-04-03T11:33:40Z</time>
      </trkpt>
      <trkpt lat="44.32192" lon="4.0553">
        <ele>353</ele>
        <time>2013-04-03T11:33:42Z</time>
      </trkpt>
      <trkpt lat="44.32193" lon="4.0553">
        <ele>353</ele>
        <time>2013-04-03T11:33:43Z</time>
      </trkpt>
      <trkpt lat="44.32194" lon="4.05528">
        <ele>354</ele>
        <time>2013-04-03T11:33:46Z</time>
      </trkpt>
      <trkpt lat="44.32195" lon="4.05526">
        <ele>354</ele>
        <time>2013-04-03T11:33:48Z</time>
      </trkpt>
      <trkpt lat="44.32197" lon="4.05523">
        <ele>355</ele>
        <time>2013-04-03T11:33:50Z</time>
      </trkpt>
      <trkpt lat="44.32198" lon="4.05521">
        <ele>356</ele>
        <time>2013-04-03T11:33:52Z</time>
      </trkpt>
      <trkpt lat="44.32199" lon="4.05518">
        <ele>357</ele>
        <time>2013-04-03T11:33:54Z</time>
      </trkpt>
      <trkpt lat="44.32201" lon="4.05514">
        <ele>356</ele>
        <time>2013-04-03T11:33:56Z</time>
      </trkpt>
      <trkpt lat="44.32202" lon="4.05511">
        <ele>356</ele>
        <time>2013-04-03T11:33:58Z</time>
      </trkpt>
      <trkpt lat="44.32202" lon="4.0551">
        <ele>356</ele>
        <time>2013-04-03T11:33:59Z</time>
      </trkpt>
      <trkpt lat="44.32202" lon="4.05509">
        <ele>356</ele>
        <time>2013-04-03T11:34:00Z</time>
      </trkpt>
      <trkpt lat="44.32203" lon="4.05508">
        <ele>356</ele>
        <time>2013-04-03T11:34:02Z</time>
      </trkpt>
      <trkpt lat="44.32204" lon="4.05505">
        <ele>356</ele>
        <time>2013-04-03T11:34:04Z</time>
      </trkpt>
      <trkpt lat="44.32206" lon="4.05503">
        <ele>357</ele>
        <time>2013-04-03T11:34:06Z</time>
      </trkpt>
      <trkpt lat="44.32207" lon="4.055">
        <ele>358</ele>
        <time>2013-04-03T11:34:08Z</time>
      </trkpt>
      <trkpt lat="44.32209" lon="4.05497">
        <ele>358</ele>
        <time>2013-04-03T11:34:10Z</time>
      </trkpt>
      <trkpt lat="44.3221" lon="4.05495">
        <ele>360</ele>
        <time>2013-04-03T11:34:12Z</time>
      </trkpt>
      <trkpt lat="44.32211" lon="4.05493">
        <ele>360</ele>
        <time>2013-04-03T11:34:14Z</time>
      </trkpt>
      <trkpt lat="44.32211" lon="4.05492">
        <ele>360</ele>
        <time>2013-04-03T11:34:15Z</time>
      </trkpt>
      <trkpt lat="44.32211" lon="4.05491">
        <ele>360</ele>
        <time>2013-04-03T11:34:16Z</time>
      </trkpt>
      <trkpt lat="44.32212" lon="4.05489">
        <ele>361</ele>
        <time>2013-04-03T11:34:18Z</time>
      </trkpt>
      <trkpt lat="44.32214" lon="4.05487">
        <ele>361</ele>
        <time>2013-04-03T11:34:20Z</time>
      </trkpt>
      <trkpt lat="44.32215" lon="4.05485">
        <ele>361</ele>
        <time>2013-04-03T11:34:22Z</time>
      </trkpt>
      <trkpt lat="44.32216" lon="4.05482">
        <ele>361</ele>
        <time>2013-04-03T11:34:24Z</time>
      </trkpt>
      <trkpt lat="44.32217" lon="4.0548">
        <ele>361</ele>
        <time>2013-04-03T11:34:26Z</time>
      </trkpt>
      <trkpt lat="44.32219" lon="4.05478">
        <ele>361</ele>
        <time>2013-04-03T11:34:28Z</time>
      </trkpt>
      <trkpt lat="44.3222" lon="4.05476">
        <ele>362</ele>
        <time>2013-04-03T11:34:30Z</time>
      </trkpt>
      <trkpt lat="44.32222" lon="4.05474">
        <ele>362</ele>
        <time>2013-04-03T11:34:32Z</time>
      </trkpt>
      <trkpt lat="44.32223" lon="4.05471">
        <ele>362</ele>
        <time>2013-04-03T11:34:34Z</time>
      </trkpt>
      <trkpt lat="44.32224" lon="4.05469">
        <ele>362</ele>
        <time>2013-04-03T11:34:36Z</time>
      </trkpt>
      <trkpt lat="44.32226" lon="4.05466">
        <ele>361</ele>
        <time>2013-04-03T11:34:38Z</time>
      </trkpt>
      <trkpt lat="44.32227" lon="4.05464">
        <ele>362</ele>
        <time>2013-04-03T11:34:40Z</time>
      </trkpt>
      <trkpt lat="44.32229" lon="4.05461">
        <ele>362</ele>
        <time>2013-04-03T11:34:42Z</time>
      </trkpt>
      <trkpt lat="44.32231" lon="4.05459">
        <ele>363</ele>
        <time>2013-04-03T11:34:44Z</time>
      </trkpt>
      <trkpt lat="44.32231" lon="4.05459">
        <ele>364</ele>
        <time>2013-04-03T11:34:45Z</time>
      </trkpt>
      <trkpt lat="44.32233" lon="4.05456">
        <ele>364</ele>
        <time>2013-04-03T11:34:48Z</time>
      </trkpt>
      <trkpt lat="44.32234" lon="4.05453">
        <ele>365</ele>
        <time>2013-04-03T11:34:50Z</time>
      </trkpt>
      <trkpt lat="44.32235" lon="4.0545">
        <ele>365</ele>
        <time>2013-04-03T11:34:52Z</time>
      </trkpt>
      <trkpt lat="44.32237" lon="4.05448">
        <ele>365</ele>
        <time>2013-04-03T11:34:54Z</time>
      </trkpt>
      <trkpt lat="44.32237" lon="4.05447">
        <ele>365</ele>
        <time>2013-04-03T11:34:56Z</time>
      </trkpt>
      <trkpt lat="44.32239" lon="4.05445">
        <ele>366</ele>
        <time>2013-04-03T11:34:58Z</time>
      </trkpt>
      <trkpt lat="44.32239" lon="4.05444">
        <ele>366</ele>
        <time>2013-04-03T11:34:59Z</time>
      </trkpt>
      <trkpt lat="44.3224" lon="4.05443">
        <ele>365</ele>
        <time>2013-04-03T11:35:00Z</time>
      </trkpt>
      <trkpt lat="44.32241" lon="4.05441">
        <ele>366</ele>
        <time>2013-04-03T11:35:02Z</time>
      </trkpt>
      <trkpt lat="44.32243" lon="4.05439">
        <ele>367</ele>
        <time>2013-04-03T11:35:04Z</time>
      </trkpt>
      <trkpt lat="44.32244" lon="4.05437">
        <ele>366</ele>
        <time>2013-04-03T11:35:06Z</time>
      </trkpt>
      <trkpt lat="44.32245" lon="4.05434">
        <ele>366</ele>
        <time>2013-04-03T11:35:08Z</time>
      </trkpt>
      <trkpt lat="44.32247" lon="4.05433">
        <ele>366</ele>
        <time>2013-04-03T11:35:10Z</time>
      </trkpt>
      <trkpt lat="44.32248" lon="4.05431">
        <ele>366</ele>
        <time>2013-04-03T11:35:12Z</time>
      </trkpt>
      <trkpt lat="44.3225" lon="4.05428">
        <ele>367</ele>
        <time>2013-04-03T11:35:14Z</time>
      </trkpt>
      <trkpt lat="44.32251" lon="4.05427">
        <ele>366</ele>
        <time>2013-04-03T11:35:15Z</time>
      </trkpt>
      <trkpt lat="44.32251" lon="4.05425">
        <ele>367</ele>
        <time>2013-04-03T11:35:16Z</time>
      </trkpt>
      <trkpt lat="44.32253" lon="4.05423">
        <ele>368</ele>
        <time>2013-04-03T11:35:18Z</time>
      </trkpt>
      <trkpt lat="44.32254" lon="4.0542">
        <ele>368</ele>
        <time>2013-04-03T11:35:20Z</time>
      </trkpt>
      <trkpt lat="44.32254" lon="4.05419">
        <ele>368</ele>
        <time>2013-04-03T11:35:22Z</time>
      </trkpt>
      <trkpt lat="44.32254" lon="4.05419">
        <ele>368</ele>
        <time>2013-04-03T11:35:24Z</time>
      </trkpt>
      <trkpt lat="44.32255" lon="4.05417">
        <ele>368</ele>
        <time>2013-04-03T11:35:26Z</time>
      </trkpt>
      <trkpt lat="44.32255" lon="4.05416">
        <ele>368</ele>
        <time>2013-04-03T11:35:28Z</time>
      </trkpt>
      <trkpt lat="44.32257" lon="4.05414">
        <ele>368</ele>
        <time>2013-04-03T11:35:30Z</time>
      </trkpt>
      <trkpt lat="44.32258" lon="4.05411">
        <ele>368</ele>
        <time>2013-04-03T11:35:32Z</time>
      </trkpt>
      <trkpt lat="44.3226" lon="4.05408">
        <ele>369</ele>
        <time>2013-04-03T11:35:34Z</time>
      </trkpt>
      <trkpt lat="44.32262" lon="4.05404">
        <ele>369</ele>
        <time>2013-04-03T11:35:36Z</time>
      </trkpt>
      <trkpt lat="44.32264" lon="4.05401">
        <ele>369</ele>
        <time>2013-04-03T11:35:38Z</time>
      </trkpt>
      <trkpt lat="44.32266" lon="4.05397">
        <ele>369</ele>
        <time>2013-04-03T11:35:40Z</time>
      </trkpt>
      <trkpt lat="44.32269" lon="4.05394">
        <ele>369</ele>
        <time>2013-04-03T11:35:42Z</time>
      </trkpt>
      <trkpt lat="44.3227" lon="4.05391">
        <ele>370</ele>
        <time>2013-04-03T11:35:44Z</time>
      </trkpt>
      <trkpt lat="44.32271" lon="4.05389">
        <ele>371</ele>
        <time>2013-04-03T11:35:46Z</time>
      </trkpt>
      <trkpt lat="44.32272" lon="4.05387">
        <ele>371</ele>
        <time>2013-04-03T11:35:47Z</time>
      </trkpt>
      <trkpt lat="44.32275" lon="4.05384">
        <ele>372</ele>
        <time>2013-04-03T11:35:50Z</time>
      </trkpt>
      <trkpt lat="44.32275" lon="4.05383">
        <ele>372</ele>
        <time>2013-04-03T11:35:52Z</time>
      </trkpt>
      <trkpt lat="44.32277" lon="4.05381">
        <ele>372</ele>
        <time>2013-04-03T11:35:54Z</time>
      </trkpt>
      <trkpt lat="44.32278" lon="4.05378">
        <ele>373</ele>
        <time>2013-04-03T11:35:56Z</time>
      </trkpt>
      <trkpt lat="44.32278" lon="4.05375">
        <ele>373</ele>
        <time>2013-04-03T11:35:58Z</time>
      </trkpt>
      <trkpt lat="44.32279" lon="4.05374">
        <ele>373</ele>
        <time>2013-04-03T11:35:59Z</time>
      </trkpt>
      <trkpt lat="44.32279" lon="4.05372">
        <ele>374</ele>
        <time>2013-04-03T11:36:00Z</time>
      </trkpt>
      <trkpt lat="44.3228" lon="4.0537">
        <ele>374</ele>
        <time>2013-04-03T11:36:02Z</time>
      </trkpt>
      <trkpt lat="44.32282" lon="4.05368">
        <ele>375</ele>
        <time>2013-04-03T11:36:04Z</time>
      </trkpt>
      <trkpt lat="44.32284" lon="4.05365">
        <ele>375</ele>
        <time>2013-04-03T11:36:06Z</time>
      </trkpt>
      <trkpt lat="44.32286" lon="4.05362">
        <ele>375</ele>
        <time>2013-04-03T11:36:08Z</time>
      </trkpt>
      <trkpt lat="44.32288" lon="4.05358">
        <ele>377</ele>
        <time>2013-04-03T11:36:10Z</time>
      </trkpt>
      <trkpt lat="44.32289" lon="4.05355">
        <ele>377</ele>
        <time>2013-04-03T11:36:12Z</time>
      </trkpt>
      <trkpt lat="44.32291" lon="4.05353">
        <ele>377</ele>
        <time>2013-04-03T11:36:14Z</time>
      </trkpt>
      <trkpt lat="44.32291" lon="4.05352">
        <ele>377</ele>
        <time>2013-04-03T11:36:15Z</time>
      </trkpt>
      <trkpt lat="44.32292" lon="4.05351">
        <ele>377</ele>
        <time>2013-04-03T11:36:16Z</time>
      </trkpt>
      <trkpt lat="44.32294" lon="4.05349">
        <ele>376</ele>
        <time>2013-04-03T11:36:18Z</time>
      </trkpt>
      <trkpt lat="44.32295" lon="4.05346">
        <ele>377</ele>
        <time>2013-04-03T11:36:20Z</time>
      </trkpt>
      <trkpt lat="44.32297" lon="4.05344">
        <ele>376</ele>
        <time>2013-04-03T11:36:22Z</time>
      </trkpt>
      <trkpt lat="44.32299" lon="4.05342">
        <ele>375</ele>
        <time>2013-04-03T11:36:24Z</time>
      </trkpt>
      <trkpt lat="44.323" lon="4.05339">
        <ele>376</ele>
        <time>2013-04-03T11:36:26Z</time>
      </trkpt>
      <trkpt lat="44.32302" lon="4.05337">
        <ele>376</ele>
        <time>2013-04-03T11:36:28Z</time>
      </trkpt>
      <trkpt lat="44.32304" lon="4.05334">
        <ele>376</ele>
        <time>2013-04-03T11:36:30Z</time>
      </trkpt>
      <trkpt lat="44.32305" lon="4.05332">
        <ele>377</ele>
        <time>2013-04-03T11:36:32Z</time>
      </trkpt>
      <trkpt lat="44.32305" lon="4.05329">
        <ele>377</ele>
        <time>2013-04-03T11:36:34Z</time>
      </trkpt>
      <trkpt lat="44.32306" lon="4.05326">
        <ele>377</ele>
        <time>2013-04-03T11:36:36Z</time>
      </trkpt>
      <trkpt lat="44.32308" lon="4.05323">
        <ele>377</ele>
        <time>2013-04-03T11:36:38Z</time>
      </trkpt>
      <trkpt lat="44.3231" lon="4.0532">
        <ele>378</ele>
        <time>2013-04-03T11:36:40Z</time>
      </trkpt>
      <trkpt lat="44.32311" lon="4.05318">
        <ele>378</ele>
        <time>2013-04-03T11:36:42Z</time>
      </trkpt>
      <trkpt lat="44.32313" lon="4.05315">
        <ele>378</ele>
        <time>2013-04-03T11:36:44Z</time>
      </trkpt>
      <trkpt lat="44.32314" lon="4.05313">
        <ele>379</ele>
        <time>2013-04-03T11:36:46Z</time>
      </trkpt>
      <trkpt lat="44.32316" lon="4.0531">
        <ele>379</ele>
        <time>2013-04-03T11:36:48Z</time>
      </trkpt>
      <trkpt lat="44.32317" lon="4.05309">
        <ele>379</ele>
        <time>2013-04-03T11:36:49Z</time>
      </trkpt>
      <trkpt lat="44.32319" lon="4.05306">
        <ele>379</ele>
        <time>2013-04-03T11:36:52Z</time>
      </trkpt>
      <trkpt lat="44.3232" lon="4.05303">
        <ele>380</ele>
        <time>2013-04-03T11:36:54Z</time>
      </trkpt>
      <trkpt lat="44.32322" lon="4.053">
        <ele>380</ele>
        <time>2013-04-03T11:36:56Z</time>
      </trkpt>
      <trkpt lat="44.32323" lon="4.05298">
        <ele>380</ele>
        <time>2013-04-03T11:36:58Z</time>
      </trkpt>
      <trkpt lat="44.32323" lon="4.05297">
        <ele>380</ele>
        <time>2013-04-03T11:36:59Z</time>
      </trkpt>
      <trkpt lat="44.32324" lon="4.05296">
        <ele>381</ele>
        <time>2013-04-03T11:37:00Z</time>
      </trkpt>
      <trkpt lat="44.32326" lon="4.05293">
        <ele>381</ele>
        <time>2013-04-03T11:37:02Z</time>
      </trkpt>
      <trkpt lat="44.32327" lon="4.05291">
        <ele>381</ele>
        <time>2013-04-03T11:37:04Z</time>
      </trkpt>
      <trkpt lat="44.32329" lon="4.05288">
        <ele>381</ele>
        <time>2013-04-03T11:37:06Z</time>
      </trkpt>
      <trkpt lat="44.3233" lon="4.05285">
        <ele>381</ele>
        <time>2013-04-03T11:37:08Z</time>
      </trkpt>
      <trkpt lat="44.32332" lon="4.05283">
        <ele>382</ele>
        <time>2013-04-03T11:37:10Z</time>
      </trkpt>
      <trkpt lat="44.32333" lon="4.05282">
        <ele>382</ele>
        <time>2013-04-03T11:37:12Z</time>
      </trkpt>
      <trkpt lat="44.32333" lon="4.05281">
        <ele>382</ele>
        <time>2013-04-03T11:37:14Z</time>
      </trkpt>
      <trkpt lat="44.32334" lon="4.0528">
        <ele>382</ele>
        <time>2013-04-03T11:37:15Z</time>
      </trkpt>
      <trkpt lat="44.32334" lon="4.0528">
        <ele>382</ele>
        <time>2013-04-03T11:37:16Z</time>
      </trkpt>
      <trkpt lat="44.32336" lon="4.05278">
        <ele>383</ele>
        <time>2013-04-03T11:37:18Z</time>
      </trkpt>
      <trkpt lat="44.32337" lon="4.05277">
        <ele>382</ele>
        <time>2013-04-03T11:37:20Z</time>
      </trkpt>
      <trkpt lat="44.32337" lon="4.05277">
        <ele>382</ele>
        <time>2013-04-03T11:37:22Z</time>
      </trkpt>
      <trkpt lat="44.32337" lon="4.05277">
        <ele>382</ele>
        <time>2013-04-03T11:37:24Z</time>
      </trkpt>
      <trkpt lat="44.32337" lon="4.05277">
        <ele>382</ele>
        <time>2013-04-03T11:37:26Z</time>
      </trkpt>
      <trkpt lat="44.32337" lon="4.05277">
        <ele>382</ele>
        <time>2013-04-03T11:37:28Z</time>
      </trkpt>
      <trkpt lat="44.32337" lon="4.05277">
        <ele>382</ele>
        <time>2013-04-03T11:37:30Z</time>
      </trkpt>
      <trkpt lat="44.32337" lon="4.05277">
        <ele>382</ele>
        <time>2013-04-03T11:37:32Z</time>
      </trkpt>
      <trkpt lat="44.32337" lon="4.05277">
        <ele>382</ele>
        <time>2013-04-03T11:37:34Z</time>
      </trkpt>
      <trkpt lat="44.32337" lon="4.05277">
        <ele>382</ele>
        <time>2013-04-03T11:37:36Z</time>
      </trkpt>
      <trkpt lat="44.32337" lon="4.05277">
        <ele>382</ele>
        <time>2013-04-03T11:37:38Z</time>
      </trkpt>
      <trkpt lat="44.32337" lon="4.05277">
        <ele>382</ele>
        <time>2013-04-03T11:37:40Z</time>
      </trkpt>
      <trkpt lat="44.32337" lon="4.05277">
        <ele>382</ele>
        <time>2013-04-03T11:37:42Z</time>
      </trkpt>
      <trkpt lat="44.32337" lon="4.05277">
        <ele>382</ele>
        <time>2013-04-03T11:37:44Z</time>
      </trkpt>
      <trkpt lat="44.32337" lon="4.05277">
        <ele>382</ele>
        <time>2013-04-03T11:37:46Z</time>
      </trkpt>
      <trkpt lat="44.32337" lon="4.05277">
        <ele>382</ele>
        <time>2013-04-03T11:37:48Z</time>
      </trkpt>
      <trkpt lat="44.32337" lon="4.05277">
        <ele>382</ele>
        <time>2013-04-03T11:37:50Z</time>
      </trkpt>
      <trkpt lat="44.32337" lon="4.05277">
        <ele>382</ele>
        <time>2013-04-03T11:37:51Z</time>
      </trkpt>
      <trkpt lat="44.32337" lon="4.05277">
        <ele>382</ele>
        <time>2013-04-03T11:37:54Z</time>
      </trkpt>
      <trkpt lat="44.32337" lon="4.05277">
        <ele>382</ele>
        <time>2013-04-03T11:37:56Z</time>
      </trkpt>
      <trkpt lat="44.32337" lon="4.05277">
        <ele>382</ele>
        <time>2013-04-03T11:37:58Z</time>
      </trkpt>
      <trkpt lat="44.32337" lon="4.05277">
        <ele>382</ele>
        <time>2013-04-03T11:37:59Z</time>
      </trkpt>
      <trkpt lat="44.32337" lon="4.05277">
        <ele>382</ele>
        <time>2013-04-03T11:38:00Z</time>
      </trkpt>
      <trkpt lat="44.32337" lon="4.05277">
        <ele>382</ele>
        <time>2013-04-03T11:38:02Z</time>
      </trkpt>
      <trkpt lat="44.32337" lon="4.05277">
        <ele>382</ele>
        <time>2013-04-03T11:38:04Z</time>
      </trkpt>
      <trkpt lat="44.32337" lon="4.05277">
        <ele>382</ele>
        <time>2013-04-03T11:38:06Z</time>
      </trkpt>
      <trkpt lat="44.32338" lon="4.05276">
        <ele>382</ele>
        <time>2013-04-03T11:38:08Z</time>
      </trkpt>
      <trkpt lat="44.32338" lon="4.05276">
        <ele>383</ele>
        <time>2013-04-03T11:38:10Z</time>
      </trkpt>
      <trkpt lat="44.32338" lon="4.05277">
        <ele>384</ele>
        <time>2013-04-03T11:38:12Z</time>
      </trkpt>
      <trkpt lat="44.32338" lon="4.05277">
        <ele>384</ele>
        <time>2013-04-03T11:38:14Z</time>
      </trkpt>
      <trkpt lat="44.32338" lon="4.05276">
        <ele>384</ele>
        <time>2013-04-03T11:38:15Z</time>
      </trkpt>
      <trkpt lat="44.32339" lon="4.05275">
        <ele>384</ele>
        <time>2013-04-03T11:38:16Z</time>
      </trkpt>
      <trkpt lat="44.3234" lon="4.05274">
        <ele>384</ele>
        <time>2013-04-03T11:38:18Z</time>
      </trkpt>
      <trkpt lat="44.32341" lon="4.05271">
        <ele>385</ele>
        <time>2013-04-03T11:38:20Z</time>
      </trkpt>
      <trkpt lat="44.32343" lon="4.05269">
        <ele>385</ele>
        <time>2013-04-03T11:38:22Z</time>
      </trkpt>
      <trkpt lat="44.32344" lon="4.05267">
        <ele>385</ele>
        <time>2013-04-03T11:38:24Z</time>
      </trkpt>
      <trkpt lat="44.32346" lon="4.05265">
        <ele>385</ele>
        <time>2013-04-03T11:38:26Z</time>
      </trkpt>
      <trkpt lat="44.32347" lon="4.05263">
        <ele>386</ele>
        <time>2013-04-03T11:38:28Z</time>
      </trkpt>
      <trkpt lat="44.32349" lon="4.05261">
        <ele>386</ele>
        <time>2013-04-03T11:38:30Z</time>
      </trkpt>
      <trkpt lat="44.32351" lon="4.05258">
        <ele>386</ele>
        <time>2013-04-03T11:38:32Z</time>
      </trkpt>
      <trkpt lat="44.32353" lon="4.05255">
        <ele>387</ele>
        <time>2013-04-03T11:38:34Z</time>
      </trkpt>
      <trkpt lat="44.32354" lon="4.05254">
        <ele>387</ele>
        <time>2013-04-03T11:38:36Z</time>
      </trkpt>
      <trkpt lat="44.32356" lon="4.05252">
        <ele>387</ele>
        <time>2013-04-03T11:38:38Z</time>
      </trkpt>
      <trkpt lat="44.32357" lon="4.0525">
        <ele>387</ele>
        <time>2013-04-03T11:38:40Z</time>
      </trkpt>
      <trkpt lat="44.32358" lon="4.05249">
        <ele>388</ele>
        <time>2013-04-03T11:38:42Z</time>
      </trkpt>
      <trkpt lat="44.32359" lon="4.05247">
        <ele>388</ele>
        <time>2013-04-03T11:38:44Z</time>
      </trkpt>
      <trkpt lat="44.32361" lon="4.05245">
        <ele>388</ele>
        <time>2013-04-03T11:38:46Z</time>
      </trkpt>
      <trkpt lat="44.32363" lon="4.05243">
        <ele>388</ele>
        <time>2013-04-03T11:38:48Z</time>
      </trkpt>
      <trkpt lat="44.32364" lon="4.0524">
        <ele>388</ele>
        <time>2013-04-03T11:38:50Z</time>
      </trkpt>
      <trkpt lat="44.32366" lon="4.05237">
        <ele>388</ele>
        <time>2013-04-03T11:38:52Z</time>
      </trkpt>
      <trkpt lat="44.32368" lon="4.05236">
        <ele>388</ele>
        <time>2013-04-03T11:38:53Z</time>
      </trkpt>
      <trkpt lat="44.32371" lon="4.05232">
        <ele>387</ele>
        <time>2013-04-03T11:38:56Z</time>
      </trkpt>
      <trkpt lat="44.32372" lon="4.0523">
        <ele>388</ele>
        <time>2013-04-03T11:38:58Z</time>
      </trkpt>
      <trkpt lat="44.32373" lon="4.05229">
        <ele>387</ele>
        <time>2013-04-03T11:38:59Z</time>
      </trkpt>
      <trkpt lat="44.32374" lon="4.05228">
        <ele>387</ele>
        <time>2013-04-03T11:39:00Z</time>
      </trkpt>
      <trkpt lat="44.32375" lon="4.05226">
        <ele>388</ele>
        <time>2013-04-03T11:39:02Z</time>
      </trkpt>
      <trkpt lat="44.32377" lon="4.05224">
        <ele>389</ele>
        <time>2013-04-03T11:39:04Z</time>
      </trkpt>
      <trkpt lat="44.32379" lon="4.05223">
        <ele>389</ele>
        <time>2013-04-03T11:39:06Z</time>
      </trkpt>
      <trkpt lat="44.3238" lon="4.05221">
        <ele>389</ele>
        <time>2013-04-03T11:39:08Z</time>
      </trkpt>
      <trkpt lat="44.32382" lon="4.0522">
        <ele>390</ele>
        <time>2013-04-03T11:39:10Z</time>
      </trkpt>
      <trkpt lat="44.32383" lon="4.05217">
        <ele>390</ele>
        <time>2013-04-03T11:39:12Z</time>
      </trkpt>
      <trkpt lat="44.32384" lon="4.05216">
        <ele>390</ele>
        <time>2013-04-03T11:39:14Z</time>
      </trkpt>
      <trkpt lat="44.32384" lon="4.05216">
        <ele>390</ele>
        <time>2013-04-03T11:39:15Z</time>
      </trkpt>
      <trkpt lat="44.32384" lon="4.05216">
        <ele>390</ele>
        <time>2013-04-03T11:39:16Z</time>
      </trkpt>
      <trkpt lat="44.32384" lon="4.05216">
        <ele>390</ele>
        <time>2013-04-03T11:39:18Z</time>
      </trkpt>
      <trkpt lat="44.32384" lon="4.05216">
        <ele>390</ele>
        <time>2013-04-03T11:39:20Z</time>
      </trkpt>
      <trkpt lat="44.32384" lon="4.05216">
        <ele>390</ele>
        <time>2013-04-03T11:39:22Z</time>
      </trkpt>
      <trkpt lat="44.32384" lon="4.05216">
        <ele>391</ele>
        <time>2013-04-03T11:39:24Z</time>
      </trkpt>
      <trkpt lat="44.32385" lon="4.05216">
        <ele>391</ele>
        <time>2013-04-03T11:39:26Z</time>
      </trkpt>
      <trkpt lat="44.32385" lon="4.05216">
        <ele>391</ele>
        <time>2013-04-03T11:39:28Z</time>
      </trkpt>
      <trkpt lat="44.32385" lon="4.05216">
        <ele>391</ele>
        <time>2013-04-03T11:39:30Z</time>
      </trkpt>
      <trkpt lat="44.32385" lon="4.05216">
        <ele>391</ele>
        <time>2013-04-03T11:39:32Z</time>
      </trkpt>
      <trkpt lat="44.32385" lon="4.05216">
        <ele>391</ele>
        <time>2013-04-03T11:39:34Z</time>
      </trkpt>
      <trkpt lat="44.32385" lon="4.05216">
        <ele>391</ele>
        <time>2013-04-03T11:39:36Z</time>
      </trkpt>
      <trkpt lat="44.32385" lon="4.05216">
        <ele>391</ele>
        <time>2013-04-03T11:39:38Z</time>
      </trkpt>
      <trkpt lat="44.32385" lon="4.05216">
        <ele>391</ele>
        <time>2013-04-03T11:39:40Z</time>
      </trkpt>
      <trkpt lat="44.32385" lon="4.05216">
        <ele>391</ele>
        <time>2013-04-03T11:39:42Z</time>
      </trkpt>
      <trkpt lat="44.32385" lon="4.05216">
        <ele>391</ele>
        <time>2013-04-03T11:39:44Z</time>
      </trkpt>
      <trkpt lat="44.32385" lon="4.05216">
        <ele>391</ele>
        <time>2013-04-03T11:39:46Z</time>
      </trkpt>
      <trkpt lat="44.32385" lon="4.05216">
        <ele>391</ele>
        <time>2013-04-03T11:39:48Z</time>
      </trkpt>
      <trkpt lat="44.32385" lon="4.05216">
        <ele>391</ele>
        <time>2013-04-03T11:39:50Z</time>
      </trkpt>
      <trkpt lat="44.32385" lon="4.05216">
        <ele>391</ele>
        <time>2013-04-03T11:39:52Z</time>
      </trkpt>
      <trkpt lat="44.32385" lon="4.05216">
        <ele>391</ele>
        <time>2013-04-03T11:39:54Z</time>
      </trkpt>
      <trkpt lat="44.32385" lon="4.05216">
        <ele>391</ele>
        <time>2013-04-03T11:39:55Z</time>
      </trkpt>
      <trkpt lat="44.32385" lon="4.05216">
        <ele>391</ele>
        <time>2013-04-03T11:39:58Z</time>
      </trkpt>
      <trkpt lat="44.32385" lon="4.05216">
        <ele>391</ele>
        <time>2013-04-03T11:39:59Z</time>
      </trkpt>
      <trkpt lat="44.32385" lon="4.05216">
        <ele>391</ele>
        <time>2013-04-03T11:40:00Z</time>
      </trkpt>
      <trkpt lat="44.32385" lon="4.05216">
        <ele>391</ele>
        <time>2013-04-03T11:40:02Z</time>
      </trkpt>
      <trkpt lat="44.32385" lon="4.05216">
        <ele>391</ele>
        <time>2013-04-03T11:40:04Z</time>
      </trkpt>
      <trkpt lat="44.32385" lon="4.05216">
        <ele>391</ele>
        <time>2013-04-03T11:40:06Z</time>
      </trkpt>
      <trkpt lat="44.32385" lon="4.05216">
        <ele>391</ele>
        <time>2013-04-03T11:40:08Z</time>
      </trkpt>
      <trkpt lat="44.32385" lon="4.05216">
        <ele>391</ele>
        <time>2013-04-03T11:40:10Z</time>
      </trkpt>
      <trkpt lat="44.32385" lon="4.05216">
        <ele>391</ele>
        <time>2013-04-03T11:40:12Z</time>
      </trkpt>
      <trkpt lat="44.32385" lon="4.05216">
        <ele>391</ele>
        <time>2013-04-03T11:40:14Z</time>
      </trkpt>
      <trkpt lat="44.32385" lon="4.05216">
        <ele>391</ele>
        <time>2013-04-03T11:40:15Z</time>
      </trkpt>
      <trkpt lat="44.32385" lon="4.05216">
        <ele>391</ele>
        <time>2013-04-03T11:40:16Z</time>
      </trkpt>
      <trkpt lat="44.32385" lon="4.05216">
        <ele>391</ele>
        <time>2013-04-03T11:40:18Z</time>
      </trkpt>
      <trkpt lat="44.32385" lon="4.05216">
        <ele>391</ele>
        <time>2013-04-03T11:40:20Z</time>
      </trkpt>
      <trkpt lat="44.32385" lon="4.05216">
        <ele>391</ele>
        <time>2013-04-03T11:40:22Z</time>
      </trkpt>
      <trkpt lat="44.32385" lon="4.05216">
        <ele>391</ele>
        <time>2013-04-03T11:40:24Z</time>
      </trkpt>
      <trkpt lat="44.32385" lon="4.05216">
        <ele>391</ele>
        <time>2013-04-03T11:40:26Z</time>
      </trkpt>
      <trkpt lat="44.32385" lon="4.05216">
        <ele>391</ele>
        <time>2013-04-03T11:40:28Z</time>
      </trkpt>
      <trkpt lat="44.32385" lon="4.05216">
        <ele>391</ele>
        <time>2013-04-03T11:40:30Z</time>
      </trkpt>
      <trkpt lat="44.32385" lon="4.05216">
        <ele>391</ele>
        <time>2013-04-03T11:40:32Z</time>
      </trkpt>
      <trkpt lat="44.32385" lon="4.05216">
        <ele>391</ele>
        <time>2013-04-03T11:40:34Z</time>
      </trkpt>
      <trkpt lat="44.32385" lon="4.05216">
        <ele>391</ele>
        <time>2013-04-03T11:40:36Z</time>
      </trkpt>
      <trkpt lat="44.32385" lon="4.05216">
        <ele>391</ele>
        <time>2013-04-03T11:40:38Z</time>
      </trkpt>
      <trkpt lat="44.32385" lon="4.05216">
        <ele>391</ele>
        <time>2013-04-03T11:40:40Z</time>
      </trkpt>
      <trkpt lat="44.32385" lon="4.05216">
        <ele>391</ele>
        <time>2013-04-03T11:40:42Z</time>
      </trkpt>
      <trkpt lat="44.32385" lon="4.05216">
        <ele>391</ele>
        <time>2013-04-03T11:40:44Z</time>
      </trkpt>
      <trkpt lat="44.32385" lon="4.05216">
        <ele>391</ele>
        <time>2013-04-03T11:40:46Z</time>
      </trkpt>
      <trkpt lat="44.32385" lon="4.05216">
        <ele>391</ele>
        <time>2013-04-03T11:40:48Z</time>
      </trkpt>
      <trkpt lat="44.32385" lon="4.05216">
        <ele>391</ele>
        <time>2013-04-03T11:40:50Z</time>
      </trkpt>
      <trkpt lat="44.32385" lon="4.05216">
        <ele>391</ele>
        <time>2013-04-03T11:40:52Z</time>
      </trkpt>
      <trkpt lat="44.32385" lon="4.05216">
        <ele>391</ele>
        <time>2013-04-03T11:40:54Z</time>
      </trkpt>
      <trkpt lat="44.32385" lon="4.05216">
        <ele>391</ele>
        <time>2013-04-03T11:40:56Z</time>
      </trkpt>
      <trkpt lat="44.32385" lon="4.05215">
        <ele>391</ele>
        <time>2013-04-03T11:40:57Z</time>
      </trkpt>
      <trkpt lat="44.32385" lon="4.05215">
        <ele>391</ele>
        <time>2013-04-03T11:40:59Z</time>
      </trkpt>
      <trkpt lat="44.32385" lon="4.05215">
        <ele>391</ele>
        <time>2013-04-03T11:41:00Z</time>
      </trkpt>
      <trkpt lat="44.32385" lon="4.05215">
        <ele>391</ele>
        <time>2013-04-03T11:41:02Z</time>
      </trkpt>
      <trkpt lat="44.32385" lon="4.05215">
        <ele>391</ele>
        <time>2013-04-03T11:41:04Z</time>
      </trkpt>
      <trkpt lat="44.32385" lon="4.05215">
        <ele>391</ele>
        <time>2013-04-03T11:41:06Z</time>
      </trkpt>
      <trkpt lat="44.32385" lon="4.05214">
        <ele>391</ele>
        <time>2013-04-03T11:41:08Z</time>
      </trkpt>
      <trkpt lat="44.32385" lon="4.05214">
        <ele>391</ele>
        <time>2013-04-03T11:41:10Z</time>
      </trkpt>
      <trkpt lat="44.32385" lon="4.05214">
        <ele>391</ele>
        <time>2013-04-03T11:41:12Z</time>
      </trkpt>
      <trkpt lat="44.32385" lon="4.05214">
        <ele>391</ele>
        <time>2013-04-03T11:41:14Z</time>
      </trkpt>
      <trkpt lat="44.32385" lon="4.05214">
        <ele>391</ele>
        <time>2013-04-03T11:41:15Z</time>
      </trkpt>
      <trkpt lat="44.32385" lon="4.05214">
        <ele>391</ele>
        <time>2013-04-03T11:41:16Z</time>
      </trkpt>
      <trkpt lat="44.32385" lon="4.05214">
        <ele>391</ele>
        <time>2013-04-03T11:41:18Z</time>
      </trkpt>
      <trkpt lat="44.32385" lon="4.05214">
        <ele>391</ele>
        <time>2013-04-03T11:41:20Z</time>
      </trkpt>
      <trkpt lat="44.32385" lon="4.05214">
        <ele>391</ele>
        <time>2013-04-03T11:41:22Z</time>
      </trkpt>
      <trkpt lat="44.32385" lon="4.05214">
        <ele>391</ele>
        <time>2013-04-03T11:41:24Z</time>
      </trkpt>
      <trkpt lat="44.32385" lon="4.05214">
        <ele>391</ele>
        <time>2013-04-03T11:41:26Z</time>
      </trkpt>
      <trkpt lat="44.32385" lon="4.05214">
        <ele>391</ele>
        <time>2013-04-03T11:41:28Z</time>
      </trkpt>
      <trkpt lat="44.32385" lon="4.05214">
        <ele>391</ele>
        <time>2013-04-03T11:41:30Z</time>
      </trkpt>
      <trkpt lat="44.32385" lon="4.05213">
        <ele>391</ele>
        <time>2013-04-03T11:41:32Z</time>
      </trkpt>
      <trkpt lat="44.32386" lon="4.05212">
        <ele>392</ele>
        <time>2013-04-03T11:41:34Z</time>
      </trkpt>
      <trkpt lat="44.32387" lon="4.05209">
        <ele>392</ele>
        <time>2013-04-03T11:41:36Z</time>
      </trkpt>
      <trkpt lat="44.32387" lon="4.05208">
        <ele>392</ele>
        <time>2013-04-03T11:41:38Z</time>
      </trkpt>
      <trkpt lat="44.32387" lon="4.05208">
        <ele>392</ele>
        <time>2013-04-03T11:41:40Z</time>
      </trkpt>
      <trkpt lat="44.32387" lon="4.05208">
        <ele>392</ele>
        <time>2013-04-03T11:41:42Z</time>
      </trkpt>
      <trkpt lat="44.32386" lon="4.05208">
        <ele>392</ele>
        <time>2013-04-03T11:41:44Z</time>
      </trkpt>
      <trkpt lat="44.32386" lon="4.05208">
        <ele>392</ele>
        <time>2013-04-03T11:41:46Z</time>
      </trkpt>
      <trkpt lat="44.32387" lon="4.05207">
        <ele>393</ele>
        <time>2013-04-03T11:41:48Z</time>
      </trkpt>
      <trkpt lat="44.32388" lon="4.05204">
        <ele>392</ele>
        <time>2013-04-03T11:41:50Z</time>
      </trkpt>
      <trkpt lat="44.32389" lon="4.05201">
        <ele>392</ele>
        <time>2013-04-03T11:41:52Z</time>
      </trkpt>
      <trkpt lat="44.32389" lon="4.05201">
        <ele>392</ele>
        <time>2013-04-03T11:41:54Z</time>
      </trkpt>
      <trkpt lat="44.32389" lon="4.05201">
        <ele>392</ele>
        <time>2013-04-03T11:41:56Z</time>
      </trkpt>
      <trkpt lat="44.3239" lon="4.05198">
        <ele>391</ele>
        <time>2013-04-03T11:41:58Z</time>
      </trkpt>
      <trkpt lat="44.32391" lon="4.05196">
        <ele>391</ele>
        <time>2013-04-03T11:41:59Z</time>
      </trkpt>
      <trkpt lat="44.32392" lon="4.05195">
        <ele>390</ele>
        <time>2013-04-03T11:42:00Z</time>
      </trkpt>
      <trkpt lat="44.32392" lon="4.05193">
        <ele>391</ele>
        <time>2013-04-03T11:42:02Z</time>
      </trkpt>
      <trkpt lat="44.32392" lon="4.05193">
        <ele>391</ele>
        <time>2013-04-03T11:42:04Z</time>
      </trkpt>
      <trkpt lat="44.32393" lon="4.05191">
        <ele>390</ele>
        <time>2013-04-03T11:42:06Z</time>
      </trkpt>
      <trkpt lat="44.32393" lon="4.05191">
        <ele>391</ele>
        <time>2013-04-03T11:42:08Z</time>
      </trkpt>
      <trkpt lat="44.32394" lon="4.05189">
        <ele>391</ele>
        <time>2013-04-03T11:42:10Z</time>
      </trkpt>
      <trkpt lat="44.32395" lon="4.05186">
        <ele>391</ele>
        <time>2013-04-03T11:42:12Z</time>
      </trkpt>
      <trkpt lat="44.32398" lon="4.05182">
        <ele>392</ele>
        <time>2013-04-03T11:42:14Z</time>
      </trkpt>
      <trkpt lat="44.32399" lon="4.0518">
        <ele>392</ele>
        <time>2013-04-03T11:42:15Z</time>
      </trkpt>
      <trkpt lat="44.324" lon="4.05178">
        <ele>392</ele>
        <time>2013-04-03T11:42:16Z</time>
      </trkpt>
      <trkpt lat="44.32401" lon="4.05176">
        <ele>392</ele>
        <time>2013-04-03T11:42:18Z</time>
      </trkpt>
      <trkpt lat="44.32402" lon="4.05173">
        <ele>392</ele>
        <time>2013-04-03T11:42:20Z</time>
      </trkpt>
      <trkpt lat="44.32403" lon="4.0517">
        <ele>391</ele>
        <time>2013-04-03T11:42:22Z</time>
      </trkpt>
      <trkpt lat="44.32405" lon="4.05167">
        <ele>391</ele>
        <time>2013-04-03T11:42:24Z</time>
      </trkpt>
      <trkpt lat="44.32407" lon="4.05163">
        <ele>391</ele>
        <time>2013-04-03T11:42:26Z</time>
      </trkpt>
      <trkpt lat="44.32408" lon="4.0516">
        <ele>391</ele>
        <time>2013-04-03T11:42:28Z</time>
      </trkpt>
      <trkpt lat="44.32409" lon="4.0516">
        <ele>390</ele>
        <time>2013-04-03T11:42:30Z</time>
      </trkpt>
      <trkpt lat="44.3241" lon="4.05157">
        <ele>391</ele>
        <time>2013-04-03T11:42:32Z</time>
      </trkpt>
      <trkpt lat="44.32412" lon="4.05154">
        <ele>391</ele>
        <time>2013-04-03T11:42:34Z</time>
      </trkpt>
      <trkpt lat="44.32412" lon="4.05153">
        <ele>390</ele>
        <time>2013-04-03T11:42:36Z</time>
      </trkpt>
      <trkpt lat="44.32414" lon="4.0515">
        <ele>389</ele>
        <time>2013-04-03T11:42:38Z</time>
      </trkpt>
      <trkpt lat="44.32416" lon="4.05147">
        <ele>389</ele>
        <time>2013-04-03T11:42:40Z</time>
      </trkpt>
      <trkpt lat="44.32417" lon="4.05144">
        <ele>388</ele>
        <time>2013-04-03T11:42:42Z</time>
      </trkpt>
      <trkpt lat="44.32419" lon="4.05143">
        <ele>389</ele>
        <time>2013-04-03T11:42:44Z</time>
      </trkpt>
      <trkpt lat="44.3242" lon="4.0514">
        <ele>389</ele>
        <time>2013-04-03T11:42:46Z</time>
      </trkpt>
      <trkpt lat="44.32423" lon="4.05138">
        <ele>390</ele>
        <time>2013-04-03T11:42:48Z</time>
      </trkpt>
      <trkpt lat="44.32424" lon="4.05136">
        <ele>390</ele>
        <time>2013-04-03T11:42:50Z</time>
      </trkpt>
      <trkpt lat="44.32424" lon="4.05133">
        <ele>391</ele>
        <time>2013-04-03T11:42:52Z</time>
      </trkpt>
      <trkpt lat="44.32426" lon="4.05129">
        <ele>390</ele>
        <time>2013-04-03T11:42:54Z</time>
      </trkpt>
      <trkpt lat="44.32427" lon="4.05125">
        <ele>390</ele>
        <time>2013-04-03T11:42:56Z</time>
      </trkpt>
      <trkpt lat="44.32428" lon="4.05122">
        <ele>390</ele>
        <time>2013-04-03T11:42:58Z</time>
      </trkpt>
      <trkpt lat="44.32429" lon="4.0512">
        <ele>390</ele>
        <time>2013-04-03T11:42:59Z</time>
      </trkpt>
      <trkpt lat="44.32429" lon="4.05119">
        <ele>390</ele>
        <time>2013-04-03T11:43:00Z</time>
      </trkpt>
      <trkpt lat="44.32429" lon="4.05118">
        <ele>390</ele>
        <time>2013-04-03T11:43:02Z</time>
      </trkpt>
      <trkpt lat="44.32429" lon="4.05116">
        <ele>389</ele>
        <time>2013-04-03T11:43:04Z</time>
      </trkpt>
      <trkpt lat="44.3243" lon="4.05114">
        <ele>390</ele>
        <time>2013-04-03T11:43:06Z</time>
      </trkpt>
      <trkpt lat="44.32431" lon="4.05112">
        <ele>390</ele>
        <time>2013-04-03T11:43:08Z</time>
      </trkpt>
      <trkpt lat="44.32432" lon="4.0511">
        <ele>390</ele>
        <time>2013-04-03T11:43:10Z</time>
      </trkpt>
      <trkpt lat="44.32432" lon="4.05109">
        <ele>390</ele>
        <time>2013-04-03T11:43:12Z</time>
      </trkpt>
      <trkpt lat="44.32434" lon="4.05106">
        <ele>389</ele>
        <time>2013-04-03T11:43:14Z</time>
      </trkpt>
      <trkpt lat="44.32435" lon="4.05104">
        <ele>388</ele>
        <time>2013-04-03T11:43:15Z</time>
      </trkpt>
      <trkpt lat="44.32436" lon="4.05101">
        <ele>388</ele>
        <time>2013-04-03T11:43:16Z</time>
      </trkpt>
      <trkpt lat="44.32438" lon="4.05097">
        <ele>387</ele>
        <time>2013-04-03T11:43:18Z</time>
      </trkpt>
      <trkpt lat="44.32438" lon="4.05097">
        <ele>387</ele>
        <time>2013-04-03T11:43:20Z</time>
      </trkpt>
      <trkpt lat="44.32438" lon="4.05096">
        <ele>387</ele>
        <time>2013-04-03T11:43:22Z</time>
      </trkpt>
      <trkpt lat="44.32439" lon="4.05095">
        <ele>387</ele>
        <time>2013-04-03T11:43:24Z</time>
      </trkpt>
      <trkpt lat="44.3244" lon="4.05091">
        <ele>387</ele>
        <time>2013-04-03T11:43:26Z</time>
      </trkpt>
      <trkpt lat="44.32442" lon="4.05088">
        <ele>388</ele>
        <time>2013-04-03T11:43:28Z</time>
      </trkpt>
      <trkpt lat="44.32443" lon="4.05086">
        <ele>388</ele>
        <time>2013-04-03T11:43:30Z</time>
      </trkpt>
      <trkpt lat="44.32444" lon="4.05083">
        <ele>388</ele>
        <time>2013-04-03T11:43:32Z</time>
      </trkpt>
      <trkpt lat="44.32445" lon="4.0508">
        <ele>388</ele>
        <time>2013-04-03T11:43:34Z</time>
      </trkpt>
      <trkpt lat="44.32445" lon="4.05079">
        <ele>388</ele>
        <time>2013-04-03T11:43:36Z</time>
      </trkpt>
      <trkpt lat="44.32446" lon="4.05078">
        <ele>388</ele>
        <time>2013-04-03T11:43:38Z</time>
      </trkpt>
      <trkpt lat="44.32446" lon="4.05078">
        <ele>388</ele>
        <time>2013-04-03T11:43:40Z</time>
      </trkpt>
      <trkpt lat="44.32447" lon="4.05078">
        <ele>387</ele>
        <time>2013-04-03T11:43:42Z</time>
      </trkpt>
      <trkpt lat="44.32447" lon="4.05078">
        <ele>387</ele>
        <time>2013-04-03T11:43:44Z</time>
      </trkpt>
      <trkpt lat="44.32447" lon="4.05077">
        <ele>386</ele>
        <time>2013-04-03T11:43:46Z</time>
      </trkpt>
      <trkpt lat="44.32447" lon="4.05076">
        <ele>386</ele>
        <time>2013-04-03T11:43:48Z</time>
      </trkpt>
      <trkpt lat="44.32447" lon="4.05075">
        <ele>385</ele>
        <time>2013-04-03T11:43:50Z</time>
      </trkpt>
      <trkpt lat="44.32447" lon="4.05075">
        <ele>385</ele>
        <time>2013-04-03T11:43:52Z</time>
      </trkpt>
      <trkpt lat="44.32447" lon="4.05075">
        <ele>385</ele>
        <time>2013-04-03T11:43:54Z</time>
      </trkpt>
      <trkpt lat="44.32447" lon="4.05075">
        <ele>385</ele>
        <time>2013-04-03T11:43:56Z</time>
      </trkpt>
      <trkpt lat="44.32447" lon="4.05075">
        <ele>385</ele>
        <time>2013-04-03T11:43:58Z</time>
      </trkpt>
      <trkpt lat="44.32447" lon="4.05075">
        <ele>385</ele>
        <time>2013-04-03T11:43:59Z</time>
      </trkpt>
      <trkpt lat="44.32447" lon="4.05075">
        <ele>385</ele>
        <time>2013-04-03T11:44:00Z</time>
      </trkpt>
      <trkpt lat="44.32447" lon="4.05075">
        <ele>385</ele>
        <time>2013-04-03T11:44:01Z</time>
      </trkpt>
      <trkpt lat="44.32447" lon="4.05074">
        <ele>384</ele>
        <time>2013-04-03T11:44:04Z</time>
      </trkpt>
      <trkpt lat="44.32447" lon="4.05074">
        <ele>384</ele>
        <time>2013-04-03T11:44:06Z</time>
      </trkpt>
      <trkpt lat="44.32447" lon="4.05074">
        <ele>384</ele>
        <time>2013-04-03T11:44:08Z</time>
      </trkpt>
      <trkpt lat="44.32447" lon="4.05074">
        <ele>384</ele>
        <time>2013-04-03T11:44:10Z</time>
      </trkpt>
      <trkpt lat="44.32447" lon="4.05073">
        <ele>384</ele>
        <time>2013-04-03T11:44:12Z</time>
      </trkpt>
      <trkpt lat="44.32447" lon="4.05072">
        <ele>382</ele>
        <time>2013-04-03T11:44:14Z</time>
      </trkpt>
      <trkpt lat="44.32447" lon="4.05072">
        <ele>382</ele>
        <time>2013-04-03T11:44:15Z</time>
      </trkpt>
      <trkpt lat="44.32447" lon="4.05072">
        <ele>382</ele>
        <time>2013-04-03T11:44:16Z</time>
      </trkpt>
      <trkpt lat="44.32447" lon="4.05072">
        <ele>382</ele>
        <time>2013-04-03T11:44:18Z</time>
      </trkpt>
      <trkpt lat="44.32447" lon="4.05072">
        <ele>382</ele>
        <time>2013-04-03T11:44:20Z</time>
      </trkpt>
      <trkpt lat="44.32447" lon="4.05072">
        <ele>382</ele>
        <time>2013-04-03T11:44:22Z</time>
      </trkpt>
      <trkpt lat="44.32447" lon="4.05072">
        <ele>382</ele>
        <time>2013-04-03T11:44:24Z</time>
      </trkpt>
      <trkpt lat="44.32447" lon="4.05072">
        <ele>382</ele>
        <time>2013-04-03T11:44:26Z</time>
      </trkpt>
      <trkpt lat="44.32447" lon="4.05072">
        <ele>382</ele>
        <time>2013-04-03T11:44:28Z</time>
      </trkpt>
      <trkpt lat="44.32447" lon="4.05072">
        <ele>382</ele>
        <time>2013-04-03T11:44:30Z</time>
      </trkpt>
      <trkpt lat="44.32447" lon="4.05072">
        <ele>382</ele>
        <time>2013-04-03T11:44:32Z</time>
      </trkpt>
      <trkpt lat="44.32447" lon="4.05072">
        <ele>382</ele>
        <time>2013-04-03T11:44:34Z</time>
      </trkpt>
      <trkpt lat="44.32447" lon="4.05072">
        <ele>382</ele>
        <time>2013-04-03T11:44:36Z</time>
      </trkpt>
      <trkpt lat="44.32447" lon="4.05072">
        <ele>381</ele>
        <time>2013-04-03T11:44:38Z</time>
      </trkpt>
      <trkpt lat="44.32447" lon="4.05071">
        <ele>381</ele>
        <time>2013-04-03T11:44:40Z</time>
      </trkpt>
      <trkpt lat="44.32448" lon="4.0507">
        <ele>380</ele>
        <time>2013-04-03T11:44:42Z</time>
      </trkpt>
      <trkpt lat="44.32448" lon="4.0507">
        <ele>380</ele>
        <time>2013-04-03T11:44:44Z</time>
      </trkpt>
      <trkpt lat="44.32448" lon="4.0507">
        <ele>380</ele>
        <time>2013-04-03T11:44:46Z</time>
      </trkpt>
      <trkpt lat="44.32448" lon="4.0507">
        <ele>380</ele>
        <time>2013-04-03T11:44:48Z</time>
      </trkpt>
      <trkpt lat="44.32448" lon="4.0507">
        <ele>380</ele>
        <time>2013-04-03T11:44:50Z</time>
      </trkpt>
      <trkpt lat="44.32448" lon="4.0507">
        <ele>380</ele>
        <time>2013-04-03T11:44:52Z</time>
      </trkpt>
      <trkpt lat="44.32448" lon="4.0507">
        <ele>380</ele>
        <time>2013-04-03T11:44:54Z</time>
      </trkpt>
      <trkpt lat="44.32448" lon="4.0507">
        <ele>380</ele>
        <time>2013-04-03T11:44:56Z</time>
      </trkpt>
      <trkpt lat="44.32448" lon="4.0507">
        <ele>380</ele>
        <time>2013-04-03T11:44:58Z</time>
      </trkpt>
      <trkpt lat="44.32448" lon="4.0507">
        <ele>380</ele>
        <time>2013-04-03T11:44:59Z</time>
      </trkpt>
      <trkpt lat="44.32448" lon="4.0507">
        <ele>380</ele>
        <time>2013-04-03T11:45:00Z</time>
      </trkpt>
      <trkpt lat="44.32448" lon="4.0507">
        <ele>380</ele>
        <time>2013-04-03T11:45:02Z</time>
      </trkpt>
      <trkpt lat="44.32448" lon="4.0507">
        <ele>380</ele>
        <time>2013-04-03T11:45:03Z</time>
      </trkpt>
      <trkpt lat="44.32448" lon="4.0507">
        <ele>380</ele>
        <time>2013-04-03T11:45:06Z</time>
      </trkpt>
      <trkpt lat="44.32448" lon="4.0507">
        <ele>380</ele>
        <time>2013-04-03T11:45:08Z</time>
      </trkpt>
      <trkpt lat="44.32448" lon="4.0507">
        <ele>380</ele>
        <time>2013-04-03T11:45:10Z</time>
      </trkpt>
      <trkpt lat="44.32448" lon="4.0507">
        <ele>380</ele>
        <time>2013-04-03T11:45:12Z</time>
      </trkpt>
      <trkpt lat="44.32448" lon="4.0507">
        <ele>380</ele>
        <time>2013-04-03T11:45:14Z</time>
      </trkpt>
      <trkpt lat="44.32448" lon="4.0507">
        <ele>380</ele>
        <time>2013-04-03T11:45:15Z</time>
      </trkpt>
      <trkpt lat="44.32448" lon="4.0507">
        <ele>380</ele>
        <time>2013-04-03T11:45:16Z</time>
      </trkpt>
      <trkpt lat="44.32448" lon="4.0507">
        <ele>380</ele>
        <time>2013-04-03T11:45:18Z</time>
      </trkpt>
      <trkpt lat="44.32448" lon="4.0507">
        <ele>380</ele>
        <time>2013-04-03T11:45:20Z</time>
      </trkpt>
      <trkpt lat="44.32448" lon="4.0507">
        <ele>380</ele>
        <time>2013-04-03T11:45:22Z</time>
      </trkpt>
      <trkpt lat="44.32448" lon="4.0507">
        <ele>380</ele>
        <time>2013-04-03T11:45:24Z</time>
      </trkpt>
      <trkpt lat="44.32448" lon="4.0507">
        <ele>380</ele>
        <time>2013-04-03T11:45:26Z</time>
      </trkpt>
      <trkpt lat="44.32448" lon="4.0507">
        <ele>380</ele>
        <time>2013-04-03T11:45:28Z</time>
      </trkpt>
      <trkpt lat="44.32448" lon="4.0507">
        <ele>380</ele>
        <time>2013-04-03T11:45:30Z</time>
      </trkpt>
      <trkpt lat="44.32448" lon="4.0507">
        <ele>380</ele>
        <time>2013-04-03T11:45:32Z</time>
      </trkpt>
      <trkpt lat="44.32448" lon="4.0507">
        <ele>380</ele>
        <time>2013-04-03T11:45:34Z</time>
      </trkpt>
      <trkpt lat="44.32448" lon="4.0507">
        <ele>380</ele>
        <time>2013-04-03T11:45:36Z</time>
      </trkpt>
      <trkpt lat="44.32448" lon="4.0507">
        <ele>380</ele>
        <time>2013-04-03T11:45:38Z</time>
      </trkpt>
      <trkpt lat="44.32448" lon="4.0507">
        <ele>380</ele>
        <time>2013-04-03T11:45:40Z</time>
      </trkpt>
      <trkpt lat="44.32448" lon="4.0507">
        <ele>380</ele>
        <time>2013-04-03T11:45:42Z</time>
      </trkpt>
      <trkpt lat="44.32448" lon="4.0507">
        <ele>380</ele>
        <time>2013-04-03T11:45:44Z</time>
      </trkpt>
      <trkpt lat="44.32448" lon="4.0507">
        <ele>380</ele>
        <time>2013-04-03T11:45:46Z</time>
      </trkpt>
      <trkpt lat="44.32448" lon="4.0507">
        <ele>380</ele>
        <time>2013-04-03T11:45:48Z</time>
      </trkpt>
      <trkpt lat="44.32448" lon="4.0507">
        <ele>380</ele>
        <time>2013-04-03T11:45:50Z</time>
      </trkpt>
      <trkpt lat="44.32448" lon="4.0507">
        <ele>380</ele>
        <time>2013-04-03T11:45:52Z</time>
      </trkpt>
      <trkpt lat="44.32448" lon="4.0507">
        <ele>380</ele>
        <time>2013-04-03T11:45:54Z</time>
      </trkpt>
      <trkpt lat="44.32448" lon="4.0507">
        <ele>380</ele>
        <time>2013-04-03T11:45:56Z</time>
      </trkpt>
      <trkpt lat="44.32448" lon="4.0507">
        <ele>380</ele>
        <time>2013-04-03T11:45:58Z</time>
      </trkpt>
      <trkpt lat="44.32448" lon="4.0507">
        <ele>380</ele>
        <time>2013-04-03T11:45:59Z</time>
      </trkpt>
      <trkpt lat="44.32448" lon="4.0507">
        <ele>380</ele>
        <time>2013-04-03T11:46:00Z</time>
      </trkpt>
      <trkpt lat="44.32448" lon="4.0507">
        <ele>380</ele>
        <time>2013-04-03T11:46:02Z</time>
      </trkpt>
      <trkpt lat="44.32448" lon="4.0507">
        <ele>380</ele>
        <time>2013-04-03T11:46:04Z</time>
      </trkpt>
      <trkpt lat="44.32448" lon="4.0507">
        <ele>380</ele>
        <time>2013-04-03T11:46:05Z</time>
      </trkpt>
      <trkpt lat="44.32448" lon="4.0507">
        <ele>380</ele>
        <time>2013-04-03T11:46:08Z</time>
      </trkpt>
      <trkpt lat="44.32448" lon="4.0507">
        <ele>380</ele>
        <time>2013-04-03T11:46:10Z</time>
      </trkpt>
      <trkpt lat="44.32448" lon="4.0507">
        <ele>380</ele>
        <time>2013-04-03T11:46:12Z</time>
      </trkpt>
      <trkpt lat="44.32448" lon="4.0507">
        <ele>380</ele>
        <time>2013-04-03T11:46:14Z</time>
      </trkpt>
      <trkpt lat="44.32448" lon="4.0507">
        <ele>380</ele>
        <time>2013-04-03T11:46:15Z</time>
      </trkpt>
      <trkpt lat="44.32448" lon="4.0507">
        <ele>380</ele>
        <time>2013-04-03T11:46:16Z</time>
      </trkpt>
      <trkpt lat="44.32448" lon="4.0507">
        <ele>380</ele>
        <time>2013-04-03T11:46:18Z</time>
      </trkpt>
      <trkpt lat="44.32448" lon="4.0507">
        <ele>380</ele>
        <time>2013-04-03T11:46:20Z</time>
      </trkpt>
      <trkpt lat="44.32448" lon="4.0507">
        <ele>380</ele>
        <time>2013-04-03T11:46:22Z</time>
      </trkpt>
      <trkpt lat="44.32448" lon="4.0507">
        <ele>380</ele>
        <time>2013-04-03T11:46:24Z</time>
      </trkpt>
      <trkpt lat="44.32448" lon="4.0507">
        <ele>380</ele>
        <time>2013-04-03T11:46:26Z</time>
      </trkpt>
      <trkpt lat="44.32448" lon="4.0507">
        <ele>380</ele>
        <time>2013-04-03T11:46:28Z</time>
      </trkpt>
      <trkpt lat="44.32448" lon="4.0507">
        <ele>380</ele>
        <time>2013-04-03T11:46:30Z</time>
      </trkpt>
      <trkpt lat="44.32448" lon="4.0507">
        <ele>380</ele>
        <time>2013-04-03T11:46:32Z</time>
      </trkpt>
      <trkpt lat="44.32448" lon="4.0507">
        <ele>380</ele>
        <time>2013-04-03T11:46:34Z</time>
      </trkpt>
      <trkpt lat="44.32448" lon="4.0507">
        <ele>380</ele>
        <time>2013-04-03T11:46:36Z</time>
      </trkpt>
      <trkpt lat="44.32448" lon="4.0507">
        <ele>380</ele>
        <time>2013-04-03T11:46:38Z</time>
      </trkpt>
      <trkpt lat="44.32448" lon="4.0507">
        <ele>380</ele>
        <time>2013-04-03T11:46:40Z</time>
      </trkpt>
      <trkpt lat="44.32448" lon="4.0507">
        <ele>380</ele>
        <time>2013-04-03T11:46:42Z</time>
      </trkpt>
      <trkpt lat="44.32448" lon="4.0507">
        <ele>380</ele>
        <time>2013-04-03T11:46:44Z</time>
      </trkpt>
      <trkpt lat="44.32448" lon="4.0507">
        <ele>380</ele>
        <time>2013-04-03T11:46:46Z</time>
      </trkpt>
      <trkpt lat="44.32448" lon="4.0507">
        <ele>380</ele>
        <time>2013-04-03T11:46:48Z</time>
      </trkpt>
      <trkpt lat="44.32448" lon="4.0507">
        <ele>380</ele>
        <time>2013-04-03T11:46:50Z</time>
      </trkpt>
      <trkpt lat="44.32448" lon="4.0507">
        <ele>380</ele>
        <time>2013-04-03T11:46:52Z</time>
      </trkpt>
      <trkpt lat="44.32448" lon="4.0507">
        <ele>380</ele>
        <time>2013-04-03T11:46:54Z</time>
      </trkpt>
      <trkpt lat="44.32448" lon="4.0507">
        <ele>380</ele>
        <time>2013-04-03T11:46:56Z</time>
      </trkpt>
      <trkpt lat="44.32448" lon="4.0507">
        <ele>380</ele>
        <time>2013-04-03T11:46:58Z</time>
      </trkpt>
      <trkpt lat="44.32448" lon="4.0507">
        <ele>380</ele>
        <time>2013-04-03T11:46:59Z</time>
      </trkpt>
      <trkpt lat="44.32448" lon="4.0507">
        <ele>380</ele>
        <time>2013-04-03T11:47:00Z</time>
      </trkpt>
      <trkpt lat="44.32448" lon="4.0507">
        <ele>380</ele>
        <time>2013-04-03T11:47:02Z</time>
      </trkpt>
      <trkpt lat="44.32448" lon="4.0507">
        <ele>380</ele>
        <time>2013-04-03T11:47:04Z</time>
      </trkpt>
      <trkpt lat="44.32448" lon="4.0507">
        <ele>380</ele>
        <time>2013-04-03T11:47:06Z</time>
      </trkpt>
      <trkpt lat="44.32448" lon="4.0507">
        <ele>380</ele>
        <time>2013-04-03T11:47:07Z</time>
      </trkpt>
      <trkpt lat="44.32448" lon="4.0507">
        <ele>380</ele>
        <time>2013-04-03T11:47:10Z</time>
      </trkpt>
      <trkpt lat="44.32448" lon="4.0507">
        <ele>380</ele>
        <time>2013-04-03T11:47:12Z</time>
      </trkpt>
      <trkpt lat="44.32448" lon="4.0507">
        <ele>380</ele>
        <time>2013-04-03T11:47:14Z</time>
      </trkpt>
      <trkpt lat="44.32448" lon="4.0507">
        <ele>380</ele>
        <time>2013-04-03T11:47:15Z</time>
      </trkpt>
      <trkpt lat="44.32448" lon="4.0507">
        <ele>380</ele>
        <time>2013-04-03T11:47:16Z</time>
      </trkpt>
      <trkpt lat="44.32448" lon="4.0507">
        <ele>380</ele>
        <time>2013-04-03T11:47:18Z</time>
      </trkpt>
      <trkpt lat="44.32448" lon="4.0507">
        <ele>380</ele>
        <time>2013-04-03T11:47:20Z</time>
      </trkpt>
      <trkpt lat="44.32448" lon="4.0507">
        <ele>380</ele>
        <time>2013-04-03T11:47:22Z</time>
      </trkpt>
      <trkpt lat="44.32448" lon="4.0507">
        <ele>380</ele>
        <time>2013-04-03T11:47:24Z</time>
      </trkpt>
      <trkpt lat="44.32448" lon="4.0507">
        <ele>380</ele>
        <time>2013-04-03T11:47:26Z</time>
      </trkpt>
      <trkpt lat="44.32448" lon="4.0507">
        <ele>380</ele>
        <time>2013-04-03T11:47:28Z</time>
      </trkpt>
      <trkpt lat="44.32448" lon="4.0507">
        <ele>380</ele>
        <time>2013-04-03T11:47:30Z</time>
      </trkpt>
      <trkpt lat="44.32448" lon="4.0507">
        <ele>380</ele>
        <time>2013-04-03T11:47:32Z</time>
      </trkpt>
      <trkpt lat="44.32448" lon="4.0507">
        <ele>380</ele>
        <time>2013-04-03T11:47:34Z</time>
      </trkpt>
      <trkpt lat="44.32448" lon="4.0507">
        <ele>380</ele>
        <time>2013-04-03T11:47:36Z</time>
      </trkpt>
      <trkpt lat="44.32448" lon="4.0507">
        <ele>380</ele>
        <time>2013-04-03T11:47:38Z</time>
      </trkpt>
      <trkpt lat="44.32448" lon="4.0507">
        <ele>380</ele>
        <time>2013-04-03T11:47:40Z</time>
      </trkpt>
      <trkpt lat="44.32448" lon="4.0507">
        <ele>380</ele>
        <time>2013-04-03T11:47:42Z</time>
      </trkpt>
      <trkpt lat="44.32448" lon="4.0507">
        <ele>380</ele>
        <time>2013-04-03T11:47:44Z</time>
      </trkpt>
      <trkpt lat="44.32448" lon="4.0507">
        <ele>380</ele>
        <time>2013-04-03T11:47:46Z</time>
      </trkpt>
      <trkpt lat="44.32448" lon="4.0507">
        <ele>380</ele>
        <time>2013-04-03T11:47:48Z</time>
      </trkpt>
      <trkpt lat="44.32448" lon="4.0507">
        <ele>380</ele>
        <time>2013-04-03T11:47:50Z</time>
      </trkpt>
      <trkpt lat="44.32448" lon="4.0507">
        <ele>380</ele>
        <time>2013-04-03T11:47:52Z</time>
      </trkpt>
      <trkpt lat="44.32448" lon="4.0507">
        <ele>380</ele>
        <time>2013-04-03T11:47:54Z</time>
      </trkpt>
      <trkpt lat="44.32448" lon="4.0507">
        <ele>380</ele>
        <time>2013-04-03T11:47:56Z</time>
      </trkpt>
      <trkpt lat="44.32448" lon="4.0507">
        <ele>380</ele>
        <time>2013-04-03T11:47:58Z</time>
      </trkpt>
      <trkpt lat="44.32448" lon="4.0507">
        <ele>380</ele>
        <time>2013-04-03T11:47:59Z</time>
      </trkpt>
      <trkpt lat="44.32448" lon="4.0507">
        <ele>380</ele>
        <time>2013-04-03T11:48:00Z</time>
      </trkpt>
      <trkpt lat="44.32448" lon="4.0507">
        <ele>380</ele>
        <time>2013-04-03T11:48:02Z</time>
      </trkpt>
      <trkpt lat="44.32448" lon="4.0507">
        <ele>380</ele>
        <time>2013-04-03T11:48:04Z</time>
      </trkpt>
      <trkpt lat="44.32448" lon="4.0507">
        <ele>380</ele>
        <time>2013-04-03T11:48:06Z</time>
      </trkpt>
      <trkpt lat="44.32448" lon="4.0507">
        <ele>380</ele>
        <time>2013-04-03T11:48:08Z</time>
      </trkpt>
      <trkpt lat="44.32448" lon="4.0507">
        <ele>380</ele>
        <time>2013-04-03T11:48:09Z</time>
      </trkpt>
      <trkpt lat="44.32448" lon="4.0507">
        <ele>380</ele>
        <time>2013-04-03T11:48:12Z</time>
      </trkpt>
      <trkpt lat="44.32448" lon="4.0507">
        <ele>380</ele>
        <time>2013-04-03T11:48:14Z</time>
      </trkpt>
      <trkpt lat="44.32448" lon="4.0507">
        <ele>380</ele>
        <time>2013-04-03T11:48:15Z</time>
      </trkpt>
      <trkpt lat="44.32448" lon="4.0507">
        <ele>380</ele>
        <time>2013-04-03T11:48:16Z</time>
      </trkpt>
      <trkpt lat="44.32448" lon="4.0507">
        <ele>380</ele>
        <time>2013-04-03T11:48:18Z</time>
      </trkpt>
      <trkpt lat="44.32448" lon="4.0507">
        <ele>380</ele>
        <time>2013-04-03T11:48:20Z</time>
      </trkpt>
      <trkpt lat="44.32448" lon="4.0507">
        <ele>380</ele>
        <time>2013-04-03T11:48:22Z</time>
      </trkpt>
      <trkpt lat="44.32448" lon="4.0507">
        <ele>380</ele>
        <time>2013-04-03T11:48:24Z</time>
      </trkpt>
      <trkpt lat="44.32448" lon="4.0507">
        <ele>380</ele>
        <time>2013-04-03T11:48:26Z</time>
      </trkpt>
      <trkpt lat="44.32448" lon="4.0507">
        <ele>380</ele>
        <time>2013-04-03T11:48:28Z</time>
      </trkpt>
      <trkpt lat="44.32448" lon="4.0507">
        <ele>380</ele>
        <time>2013-04-03T11:48:30Z</time>
      </trkpt>
      <trkpt lat="44.32448" lon="4.0507">
        <ele>380</ele>
        <time>2013-04-03T11:48:32Z</time>
      </trkpt>
      <trkpt lat="44.32448" lon="4.0507">
        <ele>380</ele>
        <time>2013-04-03T11:48:34Z</time>
      </trkpt>
      <trkpt lat="44.32448" lon="4.0507">
        <ele>380</ele>
        <time>2013-04-03T11:48:36Z</time>
      </trkpt>
      <trkpt lat="44.32448" lon="4.0507">
        <ele>380</ele>
        <time>2013-04-03T11:48:38Z</time>
      </trkpt>
      <trkpt lat="44.32448" lon="4.0507">
        <ele>380</ele>
        <time>2013-04-03T11:48:40Z</time>
      </trkpt>
      <trkpt lat="44.32448" lon="4.0507">
        <ele>380</ele>
        <time>2013-04-03T11:48:42Z</time>
      </trkpt>
      <trkpt lat="44.32448" lon="4.0507">
        <ele>380</ele>
        <time>2013-04-03T11:48:44Z</time>
      </trkpt>
      <trkpt lat="44.32448" lon="4.0507">
        <ele>380</ele>
        <time>2013-04-03T11:48:46Z</time>
      </trkpt>
      <trkpt lat="44.32448" lon="4.0507">
        <ele>380</ele>
        <time>2013-04-03T11:48:48Z</time>
      </trkpt>
      <trkpt lat="44.32448" lon="4.0507">
        <ele>380</ele>
        <time>2013-04-03T11:48:50Z</time>
      </trkpt>
      <trkpt lat="44.32448" lon="4.0507">
        <ele>380</ele>
        <time>2013-04-03T11:48:52Z</time>
      </trkpt>
      <trkpt lat="44.32448" lon="4.0507">
        <ele>380</ele>
        <time>2013-04-03T11:48:54Z</time>
      </trkpt>
      <trkpt lat="44.32448" lon="4.0507">
        <ele>380</ele>
        <time>2013-04-03T11:48:56Z</time>
      </trkpt>
      <trkpt lat="44.32448" lon="4.0507">
        <ele>380</ele>
        <time>2013-04-03T11:48:58Z</time>
      </trkpt>
      <trkpt lat="44.32448" lon="4.0507">
        <ele>380</ele>
        <time>2013-04-03T11:48:59Z</time>
      </trkpt>
      <trkpt lat="44.32448" lon="4.0507">
        <ele>380</ele>
        <time>2013-04-03T11:49:00Z</time>
      </trkpt>
      <trkpt lat="44.32448" lon="4.0507">
        <ele>380</ele>
        <time>2013-04-03T11:49:02Z</time>
      </trkpt>
      <trkpt lat="44.32448" lon="4.0507">
        <ele>380</ele>
        <time>2013-04-03T11:49:04Z</time>
      </trkpt>
      <trkpt lat="44.32448" lon="4.05069">
        <ele>380</ele>
        <time>2013-04-03T11:49:06Z</time>
      </trkpt>
      <trkpt lat="44.32448" lon="4.05069">
        <ele>380</ele>
        <time>2013-04-03T11:49:08Z</time>
      </trkpt>
      <trkpt lat="44.32448" lon="4.05069">
        <ele>380</ele>
        <time>2013-04-03T11:49:10Z</time>
      </trkpt>
      <trkpt lat="44.32448" lon="4.05069">
        <ele>380</ele>
        <time>2013-04-03T11:49:11Z</time>
      </trkpt>
      <trkpt lat="44.32448" lon="4.05069">
        <ele>380</ele>
        <time>2013-04-03T11:49:14Z</time>
      </trkpt>
      <trkpt lat="44.32448" lon="4.05069">
        <ele>380</ele>
        <time>2013-04-03T11:49:15Z</time>
      </trkpt>
      <trkpt lat="44.32448" lon="4.05069">
        <ele>380</ele>
        <time>2013-04-03T11:49:16Z</time>
      </trkpt>
      <trkpt lat="44.32448" lon="4.05069">
        <ele>380</ele>
        <time>2013-04-03T11:49:18Z</time>
      </trkpt>
      <trkpt lat="44.32448" lon="4.05069">
        <ele>380</ele>
        <time>2013-04-03T11:49:20Z</time>
      </trkpt>
      <trkpt lat="44.32448" lon="4.05069">
        <ele>380</ele>
        <time>2013-04-03T11:49:22Z</time>
      </trkpt>
      <trkpt lat="44.32448" lon="4.05069">
        <ele>380</ele>
        <time>2013-04-03T11:49:24Z</time>
      </trkpt>
      <trkpt lat="44.32448" lon="4.05069">
        <ele>380</ele>
        <time>2013-04-03T11:49:26Z</time>
      </trkpt>
      <trkpt lat="44.32448" lon="4.05069">
        <ele>380</ele>
        <time>2013-04-03T11:49:28Z</time>
      </trkpt>
      <trkpt lat="44.32448" lon="4.05069">
        <ele>380</ele>
        <time>2013-04-03T11:49:30Z</time>
      </trkpt>
      <trkpt lat="44.32448" lon="4.05069">
        <ele>380</ele>
        <time>2013-04-03T11:49:32Z</time>
      </trkpt>
      <trkpt lat="44.32448" lon="4.05069">
        <ele>380</ele>
        <time>2013-04-03T11:49:34Z</time>
      </trkpt>
      <trkpt lat="44.32448" lon="4.05069">
        <ele>380</ele>
        <time>2013-04-03T11:49:36Z</time>
      </trkpt>
      <trkpt lat="44.32448" lon="4.05069">
        <ele>381</ele>
        <time>2013-04-03T11:49:38Z</time>
      </trkpt>
      <trkpt lat="44.32448" lon="4.05069">
        <ele>381</ele>
        <time>2013-04-03T11:49:40Z</time>
      </trkpt>
      <trkpt lat="44.32448" lon="4.05069">
        <ele>381</ele>
        <time>2013-04-03T11:49:42Z</time>
      </trkpt>
      <trkpt lat="44.32448" lon="4.05069">
        <ele>381</ele>
        <time>2013-04-03T11:49:44Z</time>
      </trkpt>
      <trkpt lat="44.32448" lon="4.05069">
        <ele>381</ele>
        <time>2013-04-03T11:49:46Z</time>
      </trkpt>
      <trkpt lat="44.32448" lon="4.05069">
        <ele>381</ele>
        <time>2013-04-03T11:49:48Z</time>
      </trkpt>
      <trkpt lat="44.32448" lon="4.05069">
        <ele>381</ele>
        <time>2013-04-03T11:49:50Z</time>
      </trkpt>
      <trkpt lat="44.32448" lon="4.05069">
        <ele>381</ele>
        <time>2013-04-03T11:49:52Z</time>
      </trkpt>
      <trkpt lat="44.32448" lon="4.05069">
        <ele>381</ele>
        <time>2013-04-03T11:49:54Z</time>
      </trkpt>
      <trkpt lat="44.32448" lon="4.05069">
        <ele>381</ele>
        <time>2013-04-03T11:49:56Z</time>
      </trkpt>
      <trkpt lat="44.32448" lon="4.05069">
        <ele>381</ele>
        <time>2013-04-03T11:49:58Z</time>
      </trkpt>
      <trkpt lat="44.32448" lon="4.05069">
        <ele>381</ele>
        <time>2013-04-03T11:49:59Z</time>
      </trkpt>
      <trkpt lat="44.32448" lon="4.05069">
        <ele>381</ele>
        <time>2013-04-03T11:50:00Z</time>
      </trkpt>
      <trkpt lat="44.32448" lon="4.05069">
        <ele>381</ele>
        <time>2013-04-03T11:50:02Z</time>
      </trkpt>
      <trkpt lat="44.32448" lon="4.05069">
        <ele>381</ele>
        <time>2013-04-03T11:50:04Z</time>
      </trkpt>
      <trkpt lat="44.32448" lon="4.05069">
        <ele>381</ele>
        <time>2013-04-03T11:50:06Z</time>
      </trkpt>
      <trkpt lat="44.32448" lon="4.05069">
        <ele>381</ele>
        <time>2013-04-03T11:50:08Z</time>
      </trkpt>
      <trkpt lat="44.32448" lon="4.05069">
        <ele>381</ele>
        <time>2013-04-03T11:50:10Z</time>
      </trkpt>
      <trkpt lat="44.32448" lon="4.05069">
        <ele>381</ele>
        <time>2013-04-03T11:50:12Z</time>
      </trkpt>
      <trkpt lat="44.32448" lon="4.05069">
        <ele>381</ele>
        <time>2013-04-03T11:50:13Z</time>
      </trkpt>
      <trkpt lat="44.32448" lon="4.05069">
        <ele>381</ele>
        <time>2013-04-03T11:50:15Z</time>
      </trkpt>
      <trkpt lat="44.32448" lon="4.05069">
        <ele>381</ele>
        <time>2013-04-03T11:50:16Z</time>
      </trkpt>
      <trkpt lat="44.32448" lon="4.05069">
        <ele>381</ele>
        <time>2013-04-03T11:50:18Z</time>
      </trkpt>
      <trkpt lat="44.32448" lon="4.05069">
        <ele>381</ele>
        <time>2013-04-03T11:50:20Z</time>
      </trkpt>
      <trkpt lat="44.32448" lon="4.05069">
        <ele>381</ele>
        <time>2013-04-03T11:50:22Z</time>
      </trkpt>
      <trkpt lat="44.32448" lon="4.05069">
        <ele>381</ele>
        <time>2013-04-03T11:50:24Z</time>
      </trkpt>
      <trkpt lat="44.32448" lon="4.05069">
        <ele>381</ele>
        <time>2013-04-03T11:50:26Z</time>
      </trkpt>
      <trkpt lat="44.32448" lon="4.05069">
        <ele>381</ele>
        <time>2013-04-03T11:50:28Z</time>
      </trkpt>
      <trkpt lat="44.32448" lon="4.05069">
        <ele>381</ele>
        <time>2013-04-03T11:50:30Z</time>
      </trkpt>
      <trkpt lat="44.32448" lon="4.05069">
        <ele>381</ele>
        <time>2013-04-03T11:50:32Z</time>
      </trkpt>
      <trkpt lat="44.32448" lon="4.05069">
        <ele>381</ele>
        <time>2013-04-03T11:50:34Z</time>
      </trkpt>
      <trkpt lat="44.32448" lon="4.05069">
        <ele>381</ele>
        <time>2013-04-03T11:50:36Z</time>
      </trkpt>
      <trkpt lat="44.32448" lon="4.05069">
        <ele>381</ele>
        <time>2013-04-03T11:50:38Z</time>
      </trkpt>
      <trkpt lat="44.32448" lon="4.05069">
        <ele>381</ele>
        <time>2013-04-03T11:50:40Z</time>
      </trkpt>
      <trkpt lat="44.32448" lon="4.05069">
        <ele>381</ele>
        <time>2013-04-03T11:50:42Z</time>
      </trkpt>
      <trkpt lat="44.32448" lon="4.05069">
        <ele>381</ele>
        <time>2013-04-03T11:50:44Z</time>
      </trkpt>
      <trkpt lat="44.32448" lon="4.05069">
        <ele>381</ele>
        <time>2013-04-03T11:50:46Z</time>
      </trkpt>
      <trkpt lat="44.32448" lon="4.05069">
        <ele>381</ele>
        <time>2013-04-03T11:50:48Z</time>
      </trkpt>
      <trkpt lat="44.32448" lon="4.05069">
        <ele>381</ele>
        <time>2013-04-03T11:50:50Z</time>
      </trkpt>
      <trkpt lat="44.32448" lon="4.05069">
        <ele>381</ele>
        <time>2013-04-03T11:50:52Z</time>
      </trkpt>
      <trkpt lat="44.32448" lon="4.05069">
        <ele>381</ele>
        <time>2013-04-03T11:50:54Z</time>
      </trkpt>
      <trkpt lat="44.32448" lon="4.05069">
        <ele>381</ele>
        <time>2013-04-03T11:50:56Z</time>
      </trkpt>
      <trkpt lat="44.32448" lon="4.05069">
        <ele>381</ele>
        <time>2013-04-03T11:50:58Z</time>
      </trkpt>
      <trkpt lat="44.32448" lon="4.05069">
        <ele>381</ele>
        <time>2013-04-03T11:50:59Z</time>
      </trkpt>
      <trkpt lat="44.32448" lon="4.05069">
        <ele>381</ele>
        <time>2013-04-03T11:51:00Z</time>
      </trkpt>
      <trkpt lat="44.32448" lon="4.05069">
        <ele>381</ele>
        <time>2013-04-03T11:51:02Z</time>
      </trkpt>
      <trkpt lat="44.32448" lon="4.05069">
        <ele>381</ele>
        <time>2013-04-03T11:51:04Z</time>
      </trkpt>
      <trkpt lat="44.32448" lon="4.05069">
        <ele>381</ele>
        <time>2013-04-03T11:51:06Z</time>
      </trkpt>
      <trkpt lat="44.32448" lon="4.05069">
        <ele>381</ele>
        <time>2013-04-03T11:51:08Z</time>
      </trkpt>
      <trkpt lat="44.32448" lon="4.05069">
        <ele>381</ele>
        <time>2013-04-03T11:51:10Z</time>
      </trkpt>
      <trkpt lat="44.32448" lon="4.05069">
        <ele>381</ele>
        <time>2013-04-03T11:51:12Z</time>
      </trkpt>
      <trkpt lat="44.32448" lon="4.05069">
        <ele>381</ele>
        <time>2013-04-03T11:51:14Z</time>
      </trkpt>
      <trkpt lat="44.32448" lon="4.05069">
        <ele>381</ele>
        <time>2013-04-03T11:51:15Z</time>
      </trkpt>
      <trkpt lat="44.32448" lon="4.05069">
        <ele>381</ele>
        <time>2013-04-03T11:51:16Z</time>
      </trkpt>
      <trkpt lat="44.32448" lon="4.05069">
        <ele>381</ele>
        <time>2013-04-03T11:51:18Z</time>
      </trkpt>
      <trkpt lat="44.32448" lon="4.05069">
        <ele>381</ele>
        <time>2013-04-03T11:51:20Z</time>
      </trkpt>
      <trkpt lat="44.32448" lon="4.05069">
        <ele>381</ele>
        <time>2013-04-03T11:51:22Z</time>
      </trkpt>
      <trkpt lat="44.32448" lon="4.05069">
        <ele>381</ele>
        <time>2013-04-03T11:51:24Z</time>
      </trkpt>
      <trkpt lat="44.32448" lon="4.05069">
        <ele>381</ele>
        <time>2013-04-03T11:51:26Z</time>
      </trkpt>
      <trkpt lat="44.32448" lon="4.05069">
        <ele>381</ele>
        <time>2013-04-03T11:51:28Z</time>
      </trkpt>
      <trkpt lat="44.32448" lon="4.05069">
        <ele>381</ele>
        <time>2013-04-03T11:51:30Z</time>
      </trkpt>
      <trkpt lat="44.32448" lon="4.05069">
        <ele>381</ele>
        <time>2013-04-03T11:51:32Z</time>
      </trkpt>
      <trkpt lat="44.32448" lon="4.05069">
        <ele>381</ele>
        <time>2013-04-03T11:51:34Z</time>
      </trkpt>
      <trkpt lat="44.32448" lon="4.05069">
        <ele>381</ele>
        <time>2013-04-03T11:51:36Z</time>
      </trkpt>
      <trkpt lat="44.32448" lon="4.05069">
        <ele>381</ele>
        <time>2013-04-03T11:51:38Z</time>
      </trkpt>
      <trkpt lat="44.32448" lon="4.05069">
        <ele>381</ele>
        <time>2013-04-03T11:51:40Z</time>
      </trkpt>
      <trkpt lat="44.32448" lon="4.05069">
        <ele>381</ele>
        <time>2013-04-03T11:51:42Z</time>
      </trkpt>
      <trkpt lat="44.32448" lon="4.05069">
        <ele>381</ele>
        <time>2013-04-03T11:51:44Z</time>
      </trkpt>
      <trkpt lat="44.32448" lon="4.05069">
        <ele>381</ele>
        <time>2013-04-03T11:51:46Z</time>
      </trkpt>
      <trkpt lat="44.32448" lon="4.05069">
        <ele>381</ele>
        <time>2013-04-03T11:51:48Z</time>
      </trkpt>
      <trkpt lat="44.32448" lon="4.05069">
        <ele>381</ele>
        <time>2013-04-03T11:51:50Z</time>
      </trkpt>
      <trkpt lat="44.32448" lon="4.05069">
        <ele>381</ele>
        <time>2013-04-03T11:51:52Z</time>
      </trkpt>
      <trkpt lat="44.32448" lon="4.05069">
        <ele>381</ele>
        <time>2013-04-03T11:51:54Z</time>
      </trkpt>
      <trkpt lat="44.32448" lon="4.05069">
        <ele>381</ele>
        <time>2013-04-03T11:51:56Z</time>
      </trkpt>
      <trkpt lat="44.32448" lon="4.05069">
        <ele>381</ele>
        <time>2013-04-03T11:51:58Z</time>
      </trkpt>
      <trkpt lat="44.32448" lon="4.05069">
        <ele>381</ele>
        <time>2013-04-03T11:51:59Z</time>
      </trkpt>
      <trkpt lat="44.32448" lon="4.05069">
        <ele>381</ele>
        <time>2013-04-03T11:52:00Z</time>
      </trkpt>
      <trkpt lat="44.32448" lon="4.05069">
        <ele>381</ele>
        <time>2013-04-03T11:52:02Z</time>
      </trkpt>
      <trkpt lat="44.32448" lon="4.05069">
        <ele>381</ele>
        <time>2013-04-03T11:52:04Z</time>
      </trkpt>
      <trkpt lat="44.32448" lon="4.05069">
        <ele>381</ele>
        <time>2013-04-03T11:52:06Z</time>
      </trkpt>
      <trkpt lat="44.32448" lon="4.05069">
        <ele>381</ele>
        <time>2013-04-03T11:52:08Z</time>
      </trkpt>
      <trkpt lat="44.32448" lon="4.05069">
        <ele>381</ele>
        <time>2013-04-03T11:52:10Z</time>
      </trkpt>
      <trkpt lat="44.32448" lon="4.05069">
        <ele>381</ele>
        <time>2013-04-03T11:52:12Z</time>
      </trkpt>
      <trkpt lat="44.32448" lon="4.05069">
        <ele>381</ele>
        <time>2013-04-03T11:52:14Z</time>
      </trkpt>
      <trkpt lat="44.32448" lon="4.05069">
        <ele>381</ele>
        <time>2013-04-03T11:52:15Z</time>
      </trkpt>
      <trkpt lat="44.32448" lon="4.05069">
        <ele>381</ele>
        <time>2013-04-03T11:52:16Z</time>
      </trkpt>
      <trkpt lat="44.32448" lon="4.05069">
        <ele>381</ele>
        <time>2013-04-03T11:52:18Z</time>
      </trkpt>
      <trkpt lat="44.32448" lon="4.05069">
        <ele>381</ele>
        <time>2013-04-03T11:52:20Z</time>
      </trkpt>
      <trkpt lat="44.32448" lon="4.05069">
        <ele>381</ele>
        <time>2013-04-03T11:52:22Z</time>
      </trkpt>
      <trkpt lat="44.32448" lon="4.05069">
        <ele>381</ele>
        <time>2013-04-03T11:52:24Z</time>
      </trkpt>
      <trkpt lat="44.32448" lon="4.05069">
        <ele>381</ele>
        <time>2013-04-03T11:52:26Z</time>
      </trkpt>
      <trkpt lat="44.32448" lon="4.05069">
        <ele>381</ele>
        <time>2013-04-03T11:52:28Z</time>
      </trkpt>
      <trkpt lat="44.32448" lon="4.05069">
        <ele>381</ele>
        <time>2013-04-03T11:52:30Z</time>
      </trkpt>
      <trkpt lat="44.32448" lon="4.05069">
        <ele>381</ele>
        <time>2013-04-03T11:52:32Z</time>
      </trkpt>
      <trkpt lat="44.32448" lon="4.05069">
        <ele>381</ele>
        <time>2013-04-03T11:52:34Z</time>
      </trkpt>
      <trkpt lat="44.32448" lon="4.05069">
        <ele>381</ele>
        <time>2013-04-03T11:52:36Z</time>
      </trkpt>
      <trkpt lat="44.32448" lon="4.05069">
        <ele>381</ele>
        <time>2013-04-03T11:52:38Z</time>
      </trkpt>
      <trkpt lat="44.32448" lon="4.05069">
        <ele>381</ele>
        <time>2013-04-03T11:52:40Z</time>
      </trkpt>
      <trkpt lat="44.32448" lon="4.05069">
        <ele>381</ele>
        <time>2013-04-03T11:52:42Z</time>
      </trkpt>
      <trkpt lat="44.32448" lon="4.05069">
        <ele>381</ele>
        <time>2013-04-03T11:52:44Z</time>
      </trkpt>
      <trkpt lat="44.32448" lon="4.05069">
        <ele>381</ele>
        <time>2013-04-03T11:52:46Z</time>
      </trkpt>
      <trkpt lat="44.32448" lon="4.05069">
        <ele>381</ele>
        <time>2013-04-03T11:52:48Z</time>
      </trkpt>
      <trkpt lat="44.32448" lon="4.05069">
        <ele>381</ele>
        <time>2013-04-03T11:52:50Z</time>
      </trkpt>
      <trkpt lat="44.32448" lon="4.05069">
        <ele>381</ele>
        <time>2013-04-03T11:52:52Z</time>
      </trkpt>
      <trkpt lat="44.32448" lon="4.05069">
        <ele>381</ele>
        <time>2013-04-03T11:52:54Z</time>
      </trkpt>
      <trkpt lat="44.32448" lon="4.05069">
        <ele>381</ele>
        <time>2013-04-03T11:52:56Z</time>
      </trkpt>
      <trkpt lat="44.32448" lon="4.05069">
        <ele>381</ele>
        <time>2013-04-03T11:52:58Z</time>
      </trkpt>
      <trkpt lat="44.32448" lon="4.05069">
        <ele>381</ele>
        <time>2013-04-03T11:52:59Z</time>
      </trkpt>
      <trkpt lat="44.32448" lon="4.05069">
        <ele>381</ele>
        <time>2013-04-03T11:53:00Z</time>
      </trkpt>
      <trkpt lat="44.32448" lon="4.05069">
        <ele>381</ele>
        <time>2013-04-03T11:53:02Z</time>
      </trkpt>
      <trkpt lat="44.32448" lon="4.05069">
        <ele>381</ele>
        <time>2013-04-03T11:53:04Z</time>
      </trkpt>
      <trkpt lat="44.32448" lon="4.05068">
        <ele>381</ele>
        <time>2013-04-03T11:53:06Z</time>
      </trkpt>
      <trkpt lat="44.32448" lon="4.05068">
        <ele>381</ele>
        <time>2013-04-03T11:53:08Z</time>
      </trkpt>
      <trkpt lat="44.32448" lon="4.05068">
        <ele>381</ele>
        <time>2013-04-03T11:53:10Z</time>
      </trkpt>
      <trkpt lat="44.32448" lon="4.05068">
        <ele>381</ele>
        <time>2013-04-03T11:53:12Z</time>
      </trkpt>
      <trkpt lat="44.32448" lon="4.05068">
        <ele>381</ele>
        <time>2013-04-03T11:53:14Z</time>
      </trkpt>
      <trkpt lat="44.32448" lon="4.05068">
        <ele>381</ele>
        <time>2013-04-03T11:53:15Z</time>
      </trkpt>
      <trkpt lat="44.32448" lon="4.05068">
        <ele>381</ele>
        <time>2013-04-03T11:53:16Z</time>
      </trkpt>
      <trkpt lat="44.32448" lon="4.05068">
        <ele>381</ele>
        <time>2013-04-03T11:53:17Z</time>
      </trkpt>
      <trkpt lat="44.32448" lon="4.05068">
        <ele>381</ele>
        <time>2013-04-03T11:53:20Z</time>
      </trkpt>
      <trkpt lat="44.32448" lon="4.05068">
        <ele>381</ele>
        <time>2013-04-03T11:53:22Z</time>
      </trkpt>
      <trkpt lat="44.32448" lon="4.05068">
        <ele>381</ele>
        <time>2013-04-03T11:53:24Z</time>
      </trkpt>
      <trkpt lat="44.32448" lon="4.05068">
        <ele>381</ele>
        <time>2013-04-03T11:53:26Z</time>
      </trkpt>
      <trkpt lat="44.32448" lon="4.05068">
        <ele>381</ele>
        <time>2013-04-03T11:53:28Z</time>
      </trkpt>
      <trkpt lat="44.32448" lon="4.05068">
        <ele>381</ele>
        <time>2013-04-03T11:53:30Z</time>
      </trkpt>
      <trkpt lat="44.32448" lon="4.05068">
        <ele>381</ele>
        <time>2013-04-03T11:53:32Z</time>
      </trkpt>
      <trkpt lat="44.32448" lon="4.05068">
        <ele>381</ele>
        <time>2013-04-03T11:53:34Z</time>
      </trkpt>
      <trkpt lat="44.32448" lon="4.05068">
        <ele>381</ele>
        <time>2013-04-03T11:53:36Z</time>
      </trkpt>
      <trkpt lat="44.32448" lon="4.05068">
        <ele>381</ele>
        <time>2013-04-03T11:53:38Z</time>
      </trkpt>
      <trkpt lat="44.32448" lon="4.05068">
        <ele>381</ele>
        <time>2013-04-03T11:53:40Z</time>
      </trkpt>
      <trkpt lat="44.32448" lon="4.05068">
        <ele>381</ele>
        <time>2013-04-03T11:53:42Z</time>
      </trkpt>
      <trkpt lat="44.32448" lon="4.05068">
        <ele>381</ele>
        <time>2013-04-03T11:53:44Z</time>
      </trkpt>
      <trkpt lat="44.32448" lon="4.05068">
        <ele>381</ele>
        <time>2013-04-03T11:53:46Z</time>
      </trkpt>
      <trkpt lat="44.32448" lon="4.05068">
        <ele>381</ele>
        <time>2013-04-03T11:53:48Z</time>
      </trkpt>
      <trkpt lat="44.32448" lon="4.05068">
        <ele>381</ele>
        <time>2013-04-03T11:53:50Z</time>
      </trkpt>
      <trkpt lat="44.32448" lon="4.05068">
        <ele>381</ele>
        <time>2013-04-03T11:53:52Z</time>
      </trkpt>
      <trkpt lat="44.32448" lon="4.05068">
        <ele>381</ele>
        <time>2013-04-03T11:53:54Z</time>
      </trkpt>
      <trkpt lat="44.32448" lon="4.05068">
        <ele>381</ele>
        <time>2013-04-03T11:53:56Z</time>
      </trkpt>
      <trkpt lat="44.32448" lon="4.05068">
        <ele>381</ele>
        <time>2013-04-03T11:53:58Z</time>
      </trkpt>
      <trkpt lat="44.32448" lon="4.05068">
        <ele>381</ele>
        <time>2013-04-03T11:53:59Z</time>
      </trkpt>
      <trkpt lat="44.32448" lon="4.05068">
        <ele>381</ele>
        <time>2013-04-03T11:54:00Z</time>
      </trkpt>
      <trkpt lat="44.32448" lon="4.05068">
        <ele>381</ele>
        <time>2013-04-03T11:54:02Z</time>
      </trkpt>
      <trkpt lat="44.32448" lon="4.05068">
        <ele>381</ele>
        <time>2013-04-03T11:54:04Z</time>
      </trkpt>
      <trkpt lat="44.32448" lon="4.05068">
        <ele>381</ele>
        <time>2013-04-03T11:54:06Z</time>
      </trkpt>
      <trkpt lat="44.32448" lon="4.05068">
        <ele>381</ele>
        <time>2013-04-03T11:54:08Z</time>
      </trkpt>
      <trkpt lat="44.32448" lon="4.05068">
        <ele>381</ele>
        <time>2013-04-03T11:54:10Z</time>
      </trkpt>
      <trkpt lat="44.32448" lon="4.05068">
        <ele>381</ele>
        <time>2013-04-03T11:54:12Z</time>
      </trkpt>
      <trkpt lat="44.32448" lon="4.05068">
        <ele>381</ele>
        <time>2013-04-03T11:54:14Z</time>
      </trkpt>
      <trkpt lat="44.32448" lon="4.05068">
        <ele>381</ele>
        <time>2013-04-03T11:54:15Z</time>
      </trkpt>
      <trkpt lat="44.32448" lon="4.05068">
        <ele>381</ele>
        <time>2013-04-03T11:54:16Z</time>
      </trkpt>
      <trkpt lat="44.32448" lon="4.05068">
        <ele>381</ele>
        <time>2013-04-03T11:54:18Z</time>
      </trkpt>
      <trkpt lat="44.32448" lon="4.05068">
        <ele>381</ele>
        <time>2013-04-03T11:54:19Z</time>
      </trkpt>
      <trkpt lat="44.32448" lon="4.05068">
        <ele>381</ele>
        <time>2013-04-03T11:54:22Z</time>
      </trkpt>
      <trkpt lat="44.32448" lon="4.05068">
        <ele>381</ele>
        <time>2013-04-03T11:54:24Z</time>
      </trkpt>
      <trkpt lat="44.32448" lon="4.05068">
        <ele>381</ele>
        <time>2013-04-03T11:54:26Z</time>
      </trkpt>
      <trkpt lat="44.32448" lon="4.05068">
        <ele>381</ele>
        <time>2013-04-03T11:54:28Z</time>
      </trkpt>
      <trkpt lat="44.32448" lon="4.05068">
        <ele>381</ele>
        <time>2013-04-03T11:54:30Z</time>
      </trkpt>
      <trkpt lat="44.32448" lon="4.05068">
        <ele>381</ele>
        <time>2013-04-03T11:54:32Z</time>
      </trkpt>
      <trkpt lat="44.32448" lon="4.05068">
        <ele>381</ele>
        <time>2013-04-03T11:54:34Z</time>
      </trkpt>
      <trkpt lat="44.32448" lon="4.05068">
        <ele>381</ele>
        <time>2013-04-03T11:54:36Z</time>
      </trkpt>
      <trkpt lat="44.32448" lon="4.05068">
        <ele>381</ele>
        <time>2013-04-03T11:54:38Z</time>
      </trkpt>
      <trkpt lat="44.32448" lon="4.05068">
        <ele>381</ele>
        <time>2013-04-03T11:54:40Z</time>
      </trkpt>
      <trkpt lat="44.32448" lon="4.05068">
        <ele>381</ele>
        <time>2013-04-03T11:54:42Z</time>
      </trkpt>
      <trkpt lat="44.32448" lon="4.05068">
        <ele>381</ele>
        <time>2013-04-03T11:54:44Z</time>
      </trkpt>
      <trkpt lat="44.32448" lon="4.05068">
        <ele>381</ele>
        <time>2013-04-03T11:54:46Z</time>
      </trkpt>
      <trkpt lat="44.32448" lon="4.05068">
        <ele>381</ele>
        <time>2013-04-03T11:54:48Z</time>
      </trkpt>
      <trkpt lat="44.32448" lon="4.05068">
        <ele>381</ele>
        <time>2013-04-03T11:54:50Z</time>
      </trkpt>
      <trkpt lat="44.32448" lon="4.05068">
        <ele>381</ele>
        <time>2013-04-03T11:54:52Z</time>
      </trkpt>
      <trkpt lat="44.32448" lon="4.05068">
        <ele>381</ele>
        <time>2013-04-03T11:54:54Z</time>
      </trkpt>
      <trkpt lat="44.32448" lon="4.05068">
        <ele>381</ele>
        <time>2013-04-03T11:54:56Z</time>
      </trkpt>
      <trkpt lat="44.32448" lon="4.05068">
        <ele>381</ele>
        <time>2013-04-03T11:54:58Z</time>
      </trkpt>
      <trkpt lat="44.32448" lon="4.05068">
        <ele>381</ele>
        <time>2013-04-03T11:54:59Z</time>
      </trkpt>
      <trkpt lat="44.32448" lon="4.05068">
        <ele>381</ele>
        <time>2013-04-03T11:55:00Z</time>
      </trkpt>
      <trkpt lat="44.32448" lon="4.05068">
        <ele>381</ele>
        <time>2013-04-03T11:55:02Z</time>
      </trkpt>
      <trkpt lat="44.32448" lon="4.05068">
        <ele>381</ele>
        <time>2013-04-03T11:55:04Z</time>
      </trkpt>
      <trkpt lat="44.32448" lon="4.05068">
        <ele>381</ele>
        <time>2013-04-03T11:55:06Z</time>
      </trkpt>
      <trkpt lat="44.32448" lon="4.05068">
        <ele>381</ele>
        <time>2013-04-03T11:55:08Z</time>
      </trkpt>
      <trkpt lat="44.32448" lon="4.05068">
        <ele>381</ele>
        <time>2013-04-03T11:55:10Z</time>
      </trkpt>
      <trkpt lat="44.32448" lon="4.05068">
        <ele>381</ele>
        <time>2013-04-03T11:55:12Z</time>
      </trkpt>
      <trkpt lat="44.32448" lon="4.05068">
        <ele>381</ele>
        <time>2013-04-03T11:55:14Z</time>
      </trkpt>
      <trkpt lat="44.32448" lon="4.05068">
        <ele>381</ele>
        <time>2013-04-03T11:55:15Z</time>
      </trkpt>
      <trkpt lat="44.32448" lon="4.05068">
        <ele>381</ele>
        <time>2013-04-03T11:55:16Z</time>
      </trkpt>
      <trkpt lat="44.32448" lon="4.05068">
        <ele>381</ele>
        <time>2013-04-03T11:55:18Z</time>
      </trkpt>
      <trkpt lat="44.32448" lon="4.05068">
        <ele>381</ele>
        <time>2013-04-03T11:55:20Z</time>
      </trkpt>
      <trkpt lat="44.32448" lon="4.05068">
        <ele>381</ele>
        <time>2013-04-03T11:55:21Z</time>
      </trkpt>
      <trkpt lat="44.32448" lon="4.05068">
        <ele>381</ele>
        <time>2013-04-03T11:55:24Z</time>
      </trkpt>
      <trkpt lat="44.32448" lon="4.05068">
        <ele>381</ele>
        <time>2013-04-03T11:55:26Z</time>
      </trkpt>
      <trkpt lat="44.32448" lon="4.05068">
        <ele>381</ele>
        <time>2013-04-03T11:55:28Z</time>
      </trkpt>
      <trkpt lat="44.32448" lon="4.05068">
        <ele>381</ele>
        <time>2013-04-03T11:55:30Z</time>
      </trkpt>
      <trkpt lat="44.32448" lon="4.05068">
        <ele>381</ele>
        <time>2013-04-03T11:55:32Z</time>
      </trkpt>
      <trkpt lat="44.32448" lon="4.05067">
        <ele>381</ele>
        <time>2013-04-03T11:55:34Z</time>
      </trkpt>
      <trkpt lat="44.32448" lon="4.05067">
        <ele>381</ele>
        <time>2013-04-03T11:55:36Z</time>
      </trkpt>
      <trkpt lat="44.32448" lon="4.05067">
        <ele>381</ele>
        <time>2013-04-03T11:55:38Z</time>
      </trkpt>
      <trkpt lat="44.32448" lon="4.05067">
        <ele>381</ele>
        <time>2013-04-03T11:55:40Z</time>
      </trkpt>
      <trkpt lat="44.32448" lon="4.05067">
        <ele>381</ele>
        <time>2013-04-03T11:55:42Z</time>
      </trkpt>
      <trkpt lat="44.32448" lon="4.05067">
        <ele>381</ele>
        <time>2013-04-03T11:55:44Z</time>
      </trkpt>
      <trkpt lat="44.32448" lon="4.05067">
        <ele>381</ele>
        <time>2013-04-03T11:55:46Z</time>
      </trkpt>
      <trkpt lat="44.32448" lon="4.05067">
        <ele>381</ele>
        <time>2013-04-03T11:55:48Z</time>
      </trkpt>
      <trkpt lat="44.32448" lon="4.05067">
        <ele>381</ele>
        <time>2013-04-03T11:55:50Z</time>
      </trkpt>
      <trkpt lat="44.32448" lon="4.05067">
        <ele>381</ele>
        <time>2013-04-03T11:55:52Z</time>
      </trkpt>
      <trkpt lat="44.32448" lon="4.05067">
        <ele>381</ele>
        <time>2013-04-03T11:55:54Z</time>
      </trkpt>
      <trkpt lat="44.32448" lon="4.05067">
        <ele>381</ele>
        <time>2013-04-03T11:55:56Z</time>
      </trkpt>
      <trkpt lat="44.32448" lon="4.05067">
        <ele>381</ele>
        <time>2013-04-03T11:55:58Z</time>
      </trkpt>
      <trkpt lat="44.32448" lon="4.05067">
        <ele>381</ele>
        <time>2013-04-03T11:55:59Z</time>
      </trkpt>
      <trkpt lat="44.32448" lon="4.05067">
        <ele>381</ele>
        <time>2013-04-03T11:56:00Z</time>
      </trkpt>
      <trkpt lat="44.32448" lon="4.05067">
        <ele>381</ele>
        <time>2013-04-03T11:56:02Z</time>
      </trkpt>
      <trkpt lat="44.32448" lon="4.05067">
        <ele>381</ele>
        <time>2013-04-03T11:56:04Z</time>
      </trkpt>
      <trkpt lat="44.32448" lon="4.05067">
        <ele>381</ele>
        <time>2013-04-03T11:56:06Z</time>
      </trkpt>
      <trkpt lat="44.32448" lon="4.05067">
        <ele>381</ele>
        <time>2013-04-03T11:56:08Z</time>
      </trkpt>
      <trkpt lat="44.32448" lon="4.05067">
        <ele>381</ele>
        <time>2013-04-03T11:56:10Z</time>
      </trkpt>
      <trkpt lat="44.32448" lon="4.05067">
        <ele>381</ele>
        <time>2013-04-03T11:56:12Z</time>
      </trkpt>
      <trkpt lat="44.32448" lon="4.05067">
        <ele>381</ele>
        <time>2013-04-03T11:56:14Z</time>
      </trkpt>
      <trkpt lat="44.32448" lon="4.05067">
        <ele>381</ele>
        <time>2013-04-03T11:56:15Z</time>
      </trkpt>
      <trkpt lat="44.32448" lon="4.05067">
        <ele>381</ele>
        <time>2013-04-03T11:56:16Z</time>
      </trkpt>
      <trkpt lat="44.32448" lon="4.05067">
        <ele>381</ele>
        <time>2013-04-03T11:56:18Z</time>
      </trkpt>
      <trkpt lat="44.32448" lon="4.05067">
        <ele>381</ele>
        <time>2013-04-03T11:56:20Z</time>
      </trkpt>
      <trkpt lat="44.32448" lon="4.05067">
        <ele>381</ele>
        <time>2013-04-03T11:56:22Z</time>
      </trkpt>
      <trkpt lat="44.32448" lon="4.05067">
        <ele>381</ele>
        <time>2013-04-03T11:56:23Z</time>
      </trkpt>
      <trkpt lat="44.32448" lon="4.05067">
        <ele>381</ele>
        <time>2013-04-03T11:56:26Z</time>
      </trkpt>
      <trkpt lat="44.32448" lon="4.05067">
        <ele>381</ele>
        <time>2013-04-03T11:56:28Z</time>
      </trkpt>
      <trkpt lat="44.32448" lon="4.05067">
        <ele>381</ele>
        <time>2013-04-03T11:56:30Z</time>
      </trkpt>
      <trkpt lat="44.32448" lon="4.05067">
        <ele>381</ele>
        <time>2013-04-03T11:56:32Z</time>
      </trkpt>
      <trkpt lat="44.32448" lon="4.05067">
        <ele>381</ele>
        <time>2013-04-03T11:56:34Z</time>
      </trkpt>
      <trkpt lat="44.32448" lon="4.05067">
        <ele>381</ele>
        <time>2013-04-03T11:56:36Z</time>
      </trkpt>
      <trkpt lat="44.32448" lon="4.05067">
        <ele>381</ele>
        <time>2013-04-03T11:56:38Z</time>
      </trkpt>
      <trkpt lat="44.32448" lon="4.05067">
        <ele>381</ele>
        <time>2013-04-03T11:56:40Z</time>
      </trkpt>
      <trkpt lat="44.32448" lon="4.05067">
        <ele>381</ele>
        <time>2013-04-03T11:56:42Z</time>
      </trkpt>
      <trkpt lat="44.32448" lon="4.05067">
        <ele>381</ele>
        <time>2013-04-03T11:56:44Z</time>
      </trkpt>
      <trkpt lat="44.32448" lon="4.05067">
        <ele>381</ele>
        <time>2013-04-03T11:56:46Z</time>
      </trkpt>
      <trkpt lat="44.32448" lon="4.05067">
        <ele>381</ele>
        <time>2013-04-03T11:56:48Z</time>
      </trkpt>
      <trkpt lat="44.32448" lon="4.05067">
        <ele>381</ele>
        <time>2013-04-03T11:56:50Z</time>
      </trkpt>
      <trkpt lat="44.32448" lon="4.05067">
        <ele>381</ele>
        <time>2013-04-03T11:56:52Z</time>
      </trkpt>
      <trkpt lat="44.32448" lon="4.05067">
        <ele>381</ele>
        <time>2013-04-03T11:56:54Z</time>
      </trkpt>
      <trkpt lat="44.32448" lon="4.05067">
        <ele>381</ele>
        <time>2013-04-03T11:56:56Z</time>
      </trkpt>
      <trkpt lat="44.32448" lon="4.05067">
        <ele>381</ele>
        <time>2013-04-03T11:56:58Z</time>
      </trkpt>
      <trkpt lat="44.32448" lon="4.05067">
        <ele>381</ele>
        <time>2013-04-03T11:56:59Z</time>
      </trkpt>
      <trkpt lat="44.32448" lon="4.05067">
        <ele>381</ele>
        <time>2013-04-03T11:57:00Z</time>
      </trkpt>
      <trkpt lat="44.32448" lon="4.05067">
        <ele>381</ele>
        <time>2013-04-03T11:57:02Z</time>
      </trkpt>
      <trkpt lat="44.32448" lon="4.05067">
        <ele>381</ele>
        <time>2013-04-03T11:57:04Z</time>
      </trkpt>
      <trkpt lat="44.32448" lon="4.05067">
        <ele>381</ele>
        <time>2013-04-03T11:57:06Z</time>
      </trkpt>
      <trkpt lat="44.32448" lon="4.05067">
        <ele>381</ele>
        <time>2013-04-03T11:57:08Z</time>
      </trkpt>
      <trkpt lat="44.32448" lon="4.05067">
        <ele>381</ele>
        <time>2013-04-03T11:57:10Z</time>
      </trkpt>
      <trkpt lat="44.32448" lon="4.05067">
        <ele>381</ele>
        <time>2013-04-03T11:57:12Z</time>
      </trkpt>
      <trkpt lat="44.32448" lon="4.05067">
        <ele>381</ele>
        <time>2013-04-03T11:57:14Z</time>
      </trkpt>
      <trkpt lat="44.32448" lon="4.05067">
        <ele>381</ele>
        <time>2013-04-03T11:57:15Z</time>
      </trkpt>
      <trkpt lat="44.32448" lon="4.05067">
        <ele>381</ele>
        <time>2013-04-03T11:57:16Z</time>
      </trkpt>
      <trkpt lat="44.32448" lon="4.05067">
        <ele>381</ele>
        <time>2013-04-03T11:57:18Z</time>
      </trkpt>
      <trkpt lat="44.32448" lon="4.05067">
        <ele>381</ele>
        <time>2013-04-03T11:57:20Z</time>
      </trkpt>
      <trkpt lat="44.32448" lon="4.05067">
        <ele>381</ele>
        <time>2013-04-03T11:57:22Z</time>
      </trkpt>
      <trkpt lat="44.32448" lon="4.05067">
        <ele>381</ele>
        <time>2013-04-03T11:57:24Z</time>
      </trkpt>
      <trkpt lat="44.32448" lon="4.05067">
        <ele>381</ele>
        <time>2013-04-03T11:57:25Z</time>
      </trkpt>
      <trkpt lat="44.32448" lon="4.05067">
        <ele>381</ele>
        <time>2013-04-03T11:57:28Z</time>
      </trkpt>
      <trkpt lat="44.32448" lon="4.05067">
        <ele>381</ele>
        <time>2013-04-03T11:57:30Z</time>
      </trkpt>
      <trkpt lat="44.32448" lon="4.05067">
        <ele>381</ele>
        <time>2013-04-03T11:57:32Z</time>
      </trkpt>
      <trkpt lat="44.32448" lon="4.05067">
        <ele>381</ele>
        <time>2013-04-03T11:57:34Z</time>
      </trkpt>
      <trkpt lat="44.32448" lon="4.05067">
        <ele>381</ele>
        <time>2013-04-03T11:57:36Z</time>
      </trkpt>
      <trkpt lat="44.32449" lon="4.05067">
        <ele>380</ele>
        <time>2013-04-03T11:57:38Z</time>
      </trkpt>
      <trkpt lat="44.32449" lon="4.05067">
        <ele>380</ele>
        <time>2013-04-03T11:57:40Z</time>
      </trkpt>
      <trkpt lat="44.32449" lon="4.05067">
        <ele>380</ele>
        <time>2013-04-03T11:57:42Z</time>
      </trkpt>
      <trkpt lat="44.32449" lon="4.05067">
        <ele>380</ele>
        <time>2013-04-03T11:57:44Z</time>
      </trkpt>
      <trkpt lat="44.32449" lon="4.05067">
        <ele>380</ele>
        <time>2013-04-03T11:57:46Z</time>
      </trkpt>
      <trkpt lat="44.32449" lon="4.05067">
        <ele>380</ele>
        <time>2013-04-03T11:57:48Z</time>
      </trkpt>
      <trkpt lat="44.32449" lon="4.05067">
        <ele>380</ele>
        <time>2013-04-03T11:57:50Z</time>
      </trkpt>
      <trkpt lat="44.32449" lon="4.05067">
        <ele>380</ele>
        <time>2013-04-03T11:57:52Z</time>
      </trkpt>
      <trkpt lat="44.32449" lon="4.05067">
        <ele>380</ele>
        <time>2013-04-03T11:57:54Z</time>
      </trkpt>
      <trkpt lat="44.32449" lon="4.05067">
        <ele>380</ele>
        <time>2013-04-03T11:57:56Z</time>
      </trkpt>
      <trkpt lat="44.32449" lon="4.05067">
        <ele>380</ele>
        <time>2013-04-03T11:57:58Z</time>
      </trkpt>
      <trkpt lat="44.32449" lon="4.05067">
        <ele>380</ele>
        <time>2013-04-03T11:57:59Z</time>
      </trkpt>
      <trkpt lat="44.32449" lon="4.05067">
        <ele>380</ele>
        <time>2013-04-03T11:58:00Z</time>
      </trkpt>
      <trkpt lat="44.32449" lon="4.05067">
        <ele>380</ele>
        <time>2013-04-03T11:58:02Z</time>
      </trkpt>
      <trkpt lat="44.32449" lon="4.05067">
        <ele>380</ele>
        <time>2013-04-03T11:58:04Z</time>
      </trkpt>
      <trkpt lat="44.32449" lon="4.05067">
        <ele>380</ele>
        <time>2013-04-03T11:58:06Z</time>
      </trkpt>
      <trkpt lat="44.32449" lon="4.05067">
        <ele>380</ele>
        <time>2013-04-03T11:58:08Z</time>
      </trkpt>
      <trkpt lat="44.32449" lon="4.05067">
        <ele>380</ele>
        <time>2013-04-03T11:58:10Z</time>
      </trkpt>
      <trkpt lat="44.32449" lon="4.05067">
        <ele>380</ele>
        <time>2013-04-03T11:58:12Z</time>
      </trkpt>
      <trkpt lat="44.32449" lon="4.05067">
        <ele>380</ele>
        <time>2013-04-03T11:58:14Z</time>
      </trkpt>
      <trkpt lat="44.32449" lon="4.05067">
        <ele>380</ele>
        <time>2013-04-03T11:58:15Z</time>
      </trkpt>
      <trkpt lat="44.32449" lon="4.05067">
        <ele>380</ele>
        <time>2013-04-03T11:58:16Z</time>
      </trkpt>
      <trkpt lat="44.32449" lon="4.05067">
        <ele>380</ele>
        <time>2013-04-03T11:58:18Z</time>
      </trkpt>
      <trkpt lat="44.32449" lon="4.05067">
        <ele>380</ele>
        <time>2013-04-03T11:58:20Z</time>
      </trkpt>
      <trkpt lat="44.32449" lon="4.05067">
        <ele>380</ele>
        <time>2013-04-03T11:58:22Z</time>
      </trkpt>
      <trkpt lat="44.32449" lon="4.05067">
        <ele>380</ele>
        <time>2013-04-03T11:58:24Z</time>
      </trkpt>
      <trkpt lat="44.32449" lon="4.05067">
        <ele>380</ele>
        <time>2013-04-03T11:58:26Z</time>
      </trkpt>
      <trkpt lat="44.32449" lon="4.05067">
        <ele>380</ele>
        <time>2013-04-03T11:58:27Z</time>
      </trkpt>
      <trkpt lat="44.32449" lon="4.05067">
        <ele>380</ele>
        <time>2013-04-03T11:58:30Z</time>
      </trkpt>
      <trkpt lat="44.32449" lon="4.05067">
        <ele>380</ele>
        <time>2013-04-03T11:58:32Z</time>
      </trkpt>
      <trkpt lat="44.32449" lon="4.05067">
        <ele>380</ele>
        <time>2013-04-03T11:58:34Z</time>
      </trkpt>
      <trkpt lat="44.32449" lon="4.05067">
        <ele>380</ele>
        <time>2013-04-03T11:58:36Z</time>
      </trkpt>
      <trkpt lat="44.32449" lon="4.05067">
        <ele>380</ele>
        <time>2013-04-03T11:58:38Z</time>
      </trkpt>
      <trkpt lat="44.32449" lon="4.05067">
        <ele>380</ele>
        <time>2013-04-03T11:58:40Z</time>
      </trkpt>
      <trkpt lat="44.32449" lon="4.05067">
        <ele>380</ele>
        <time>2013-04-03T11:58:42Z</time>
      </trkpt>
      <trkpt lat="44.32449" lon="4.05067">
        <ele>380</ele>
        <time>2013-04-03T11:58:44Z</time>
      </trkpt>
      <trkpt lat="44.32449" lon="4.05067">
        <ele>380</ele>
        <time>2013-04-03T11:58:46Z</time>
      </trkpt>
      <trkpt lat="44.32449" lon="4.05067">
        <ele>380</ele>
        <time>2013-04-03T11:58:48Z</time>
      </trkpt>
      <trkpt lat="44.32449" lon="4.05067">
        <ele>380</ele>
        <time>2013-04-03T11:58:50Z</time>
      </trkpt>
      <trkpt lat="44.32449" lon="4.05067">
        <ele>380</ele>
        <time>2013-04-03T11:58:52Z</time>
      </trkpt>
      <trkpt lat="44.32449" lon="4.05067">
        <ele>380</ele>
        <time>2013-04-03T11:58:54Z</time>
      </trkpt>
      <trkpt lat="44.32449" lon="4.05067">
        <ele>380</ele>
        <time>2013-04-03T11:58:56Z</time>
      </trkpt>
      <trkpt lat="44.32449" lon="4.05067">
        <ele>380</ele>
        <time>2013-04-03T11:58:58Z</time>
      </trkpt>
      <trkpt lat="44.32449" lon="4.05067">
        <ele>380</ele>
        <time>2013-04-03T11:58:59Z</time>
      </trkpt>
      <trkpt lat="44.32449" lon="4.05067">
        <ele>380</ele>
        <time>2013-04-03T11:59:00Z</time>
      </trkpt>
      <trkpt lat="44.32449" lon="4.05067">
        <ele>380</ele>
        <time>2013-04-03T11:59:02Z</time>
      </trkpt>
      <trkpt lat="44.32449" lon="4.05067">
        <ele>380</ele>
        <time>2013-04-03T11:59:04Z</time>
      </trkpt>
      <trkpt lat="44.32449" lon="4.05067">
        <ele>380</ele>
        <time>2013-04-03T11:59:06Z</time>
      </trkpt>
      <trkpt lat="44.32449" lon="4.05067">
        <ele>380</ele>
        <time>2013-04-03T11:59:08Z</time>
      </trkpt>
      <trkpt lat="44.32449" lon="4.05067">
        <ele>380</ele>
        <time>2013-04-03T11:59:10Z</time>
      </trkpt>
      <trkpt lat="44.32449" lon="4.05067">
        <ele>380</ele>
        <time>2013-04-03T11:59:12Z</time>
      </trkpt>
      <trkpt lat="44.32449" lon="4.05067">
        <ele>380</ele>
        <time>2013-04-03T11:59:14Z</time>
      </trkpt>
      <trkpt lat="44.32449" lon="4.05067">
        <ele>380</ele>
        <time>2013-04-03T11:59:15Z</time>
      </trkpt>
      <trkpt lat="44.32449" lon="4.05067">
        <ele>380</ele>
        <time>2013-04-03T11:59:16Z</time>
      </trkpt>
      <trkpt lat="44.32449" lon="4.05067">
        <ele>380</ele>
        <time>2013-04-03T11:59:18Z</time>
      </trkpt>
      <trkpt lat="44.32449" lon="4.05067">
        <ele>380</ele>
        <time>2013-04-03T11:59:20Z</time>
      </trkpt>
      <trkpt lat="44.32449" lon="4.05067">
        <ele>380</ele>
        <time>2013-04-03T11:59:22Z</time>
      </trkpt>
      <trkpt lat="44.32449" lon="4.05067">
        <ele>380</ele>
        <time>2013-04-03T11:59:24Z</time>
      </trkpt>
      <trkpt lat="44.32449" lon="4.05067">
        <ele>380</ele>
        <time>2013-04-03T11:59:26Z</time>
      </trkpt>
      <trkpt lat="44.32449" lon="4.05067">
        <ele>380</ele>
        <time>2013-04-03T11:59:28Z</time>
      </trkpt>
      <trkpt lat="44.32449" lon="4.05067">
        <ele>380</ele>
        <time>2013-04-03T11:59:29Z</time>
      </trkpt>
      <trkpt lat="44.32449" lon="4.05066">
        <ele>380</ele>
        <time>2013-04-03T11:59:32Z</time>
      </trkpt>
      <trkpt lat="44.32449" lon="4.05066">
        <ele>380</ele>
        <time>2013-04-03T11:59:34Z</time>
      </trkpt>
      <trkpt lat="44.32449" lon="4.05066">
        <ele>380</ele>
        <time>2013-04-03T11:59:36Z</time>
      </trkpt>
      <trkpt lat="44.32449" lon="4.05066">
        <ele>380</ele>
        <time>2013-04-03T11:59:38Z</time>
      </trkpt>
      <trkpt lat="44.32449" lon="4.05066">
        <ele>380</ele>
        <time>2013-04-03T11:59:40Z</time>
      </trkpt>
      <trkpt lat="44.32449" lon="4.05066">
        <ele>380</ele>
        <time>2013-04-03T11:59:42Z</time>
      </trkpt>
      <trkpt lat="44.32449" lon="4.05066">
        <ele>380</ele>
        <time>2013-04-03T11:59:44Z</time>
      </trkpt>
      <trkpt lat="44.32449" lon="4.05066">
        <ele>380</ele>
        <time>2013-04-03T11:59:46Z</time>
      </trkpt>
      <trkpt lat="44.32449" lon="4.05066">
        <ele>380</ele>
        <time>2013-04-03T11:59:48Z</time>
      </trkpt>
      <trkpt lat="44.32449" lon="4.05066">
        <ele>380</ele>
        <time>2013-04-03T11:59:50Z</time>
      </trkpt>
      <trkpt lat="44.32449" lon="4.05065">
        <ele>381</ele>
        <time>2013-04-03T11:59:52Z</time>
      </trkpt>
      <trkpt lat="44.32449" lon="4.05065">
        <ele>381</ele>
        <time>2013-04-03T11:59:54Z</time>
      </trkpt>
      <trkpt lat="44.32449" lon="4.05065">
        <ele>381</ele>
        <time>2013-04-03T11:59:56Z</time>
      </trkpt>
      <trkpt lat="44.32449" lon="4.05065">
        <ele>381</ele>
        <time>2013-04-03T11:59:58Z</time>
      </trkpt>
      <trkpt lat="44.32449" lon="4.05065">
        <ele>381</ele>
        <time>2013-04-03T11:59:59Z</time>
      </trkpt>
      <trkpt lat="44.32449" lon="4.05065">
        <ele>381</ele>
        <time>2013-04-03T12:00:00Z</time>
      </trkpt>
      <trkpt lat="44.32449" lon="4.05065">
        <ele>381</ele>
        <time>2013-04-03T12:00:02Z</time>
      </trkpt>
      <trkpt lat="44.32449" lon="4.05065">
        <ele>381</ele>
        <time>2013-04-03T12:00:04Z</time>
      </trkpt>
      <trkpt lat="44.32449" lon="4.05065">
        <ele>381</ele>
        <time>2013-04-03T12:00:06Z</time>
      </trkpt>
      <trkpt lat="44.32449" lon="4.05065">
        <ele>381</ele>
        <time>2013-04-03T12:00:08Z</time>
      </trkpt>
      <trkpt lat="44.32449" lon="4.05065">
        <ele>381</ele>
        <time>2013-04-03T12:00:10Z</time>
      </trkpt>
      <trkpt lat="44.32449" lon="4.05065">
        <ele>381</ele>
        <time>2013-04-03T12:00:12Z</time>
      </trkpt>
      <trkpt lat="44.32449" lon="4.05065">
        <ele>381</ele>
        <time>2013-04-03T12:00:14Z</time>
      </trkpt>
      <trkpt lat="44.32449" lon="4.05065">
        <ele>381</ele>
        <time>2013-04-03T12:00:15Z</time>
      </trkpt>
      <trkpt lat="44.32449" lon="4.05065">
        <ele>381</ele>
        <time>2013-04-03T12:00:16Z</time>
      </trkpt>
      <trkpt lat="44.32449" lon="4.05065">
        <ele>381</ele>
        <time>2013-04-03T12:00:18Z</time>
      </trkpt>
      <trkpt lat="44.32449" lon="4.05065">
        <ele>381</ele>
        <time>2013-04-03T12:00:20Z</time>
      </trkpt>
      <trkpt lat="44.32449" lon="4.05065">
        <ele>381</ele>
        <time>2013-04-03T12:00:22Z</time>
      </trkpt>
      <trkpt lat="44.32449" lon="4.05065">
        <ele>381</ele>
        <time>2013-04-03T12:00:24Z</time>
      </trkpt>
      <trkpt lat="44.32449" lon="4.05065">
        <ele>381</ele>
        <time>2013-04-03T12:00:26Z</time>
      </trkpt>
      <trkpt lat="44.32449" lon="4.05065">
        <ele>381</ele>
        <time>2013-04-03T12:00:28Z</time>
      </trkpt>
      <trkpt lat="44.32449" lon="4.05065">
        <ele>381</ele>
        <time>2013-04-03T12:00:30Z</time>
      </trkpt>
      <trkpt lat="44.32449" lon="4.05065">
        <ele>381</ele>
        <time>2013-04-03T12:00:31Z</time>
      </trkpt>
      <trkpt lat="44.32449" lon="4.05065">
        <ele>381</ele>
        <time>2013-04-03T12:00:34Z</time>
      </trkpt>
      <trkpt lat="44.32449" lon="4.05065">
        <ele>380</ele>
        <time>2013-04-03T12:00:36Z</time>
      </trkpt>
      <trkpt lat="44.32449" lon="4.05065">
        <ele>380</ele>
        <time>2013-04-03T12:00:38Z</time>
      </trkpt>
      <trkpt lat="44.32449" lon="4.05065">
        <ele>380</ele>
        <time>2013-04-03T12:00:40Z</time>
      </trkpt>
      <trkpt lat="44.32449" lon="4.05065">
        <ele>380</ele>
        <time>2013-04-03T12:00:42Z</time>
      </trkpt>
      <trkpt lat="44.32449" lon="4.05065">
        <ele>380</ele>
        <time>2013-04-03T12:00:44Z</time>
      </trkpt>
      <trkpt lat="44.32449" lon="4.05065">
        <ele>380</ele>
        <time>2013-04-03T12:00:46Z</time>
      </trkpt>
      <trkpt lat="44.32449" lon="4.05065">
        <ele>380</ele>
        <time>2013-04-03T12:00:48Z</time>
      </trkpt>
      <trkpt lat="44.32449" lon="4.05065">
        <ele>380</ele>
        <time>2013-04-03T12:00:50Z</time>
      </trkpt>
      <trkpt lat="44.32449" lon="4.05065">
        <ele>380</ele>
        <time>2013-04-03T12:00:52Z</time>
      </trkpt>
      <trkpt lat="44.32449" lon="4.05065">
        <ele>380</ele>
        <time>2013-04-03T12:00:54Z</time>
      </trkpt>
      <trkpt lat="44.32449" lon="4.05065">
        <ele>380</ele>
        <time>2013-04-03T12:00:56Z</time>
      </trkpt>
      <trkpt lat="44.32449" lon="4.05065">
        <ele>380</ele>
        <time>2013-04-03T12:00:58Z</time>
      </trkpt>
      <trkpt lat="44.32449" lon="4.05065">
        <ele>380</ele>
        <time>2013-04-03T12:00:59Z</time>
      </trkpt>
      <trkpt lat="44.32449" lon="4.05065">
        <ele>380</ele>
        <time>2013-04-03T12:01:00Z</time>
      </trkpt>
      <trkpt lat="44.32449" lon="4.05065">
        <ele>380</ele>
        <time>2013-04-03T12:01:02Z</time>
      </trkpt>
      <trkpt lat="44.32449" lon="4.05065">
        <ele>380</ele>
        <time>2013-04-03T12:01:04Z</time>
      </trkpt>
      <trkpt lat="44.32449" lon="4.05065">
        <ele>380</ele>
        <time>2013-04-03T12:01:06Z</time>
      </trkpt>
      <trkpt lat="44.32449" lon="4.05065">
        <ele>380</ele>
        <time>2013-04-03T12:01:08Z</time>
      </trkpt>
      <trkpt lat="44.32449" lon="4.05065">
        <ele>380</ele>
        <time>2013-04-03T12:01:10Z</time>
      </trkpt>
      <trkpt lat="44.32449" lon="4.05065">
        <ele>380</ele>
        <time>2013-04-03T12:01:12Z</time>
      </trkpt>
      <trkpt lat="44.32449" lon="4.05065">
        <ele>380</ele>
        <time>2013-04-03T12:01:14Z</time>
      </trkpt>
      <trkpt lat="44.32449" lon="4.05065">
        <ele>380</ele>
        <time>2013-04-03T12:01:15Z</time>
      </trkpt>
      <trkpt lat="44.32449" lon="4.05065">
        <ele>380</ele>
        <time>2013-04-03T12:01:16Z</time>
      </trkpt>
      <trkpt lat="44.32449" lon="4.05065">
        <ele>380</ele>
        <time>2013-04-03T12:01:18Z</time>
      </trkpt>
      <trkpt lat="44.32449" lon="4.05065">
        <ele>380</ele>
        <time>2013-04-03T12:01:20Z</time>
      </trkpt>
      <trkpt lat="44.32449" lon="4.05065">
        <ele>380</ele>
        <time>2013-04-03T12:01:22Z</time>
      </trkpt>
      <trkpt lat="44.32449" lon="4.05065">
        <ele>380</ele>
        <time>2013-04-03T12:01:24Z</time>
      </trkpt>
      <trkpt lat="44.32449" lon="4.05065">
        <ele>380</ele>
        <time>2013-04-03T12:01:26Z</time>
      </trkpt>
      <trkpt lat="44.32449" lon="4.05065">
        <ele>380</ele>
        <time>2013-04-03T12:01:28Z</time>
      </trkpt>
      <trkpt lat="44.32449" lon="4.05065">
        <ele>380</ele>
        <time>2013-04-03T12:01:30Z</time>
      </trkpt>
      <trkpt lat="44.32449" lon="4.05065">
        <ele>380</ele>
        <time>2013-04-03T12:01:32Z</time>
      </trkpt>
      <trkpt lat="44.32449" lon="4.05065">
        <ele>380</ele>
        <time>2013-04-03T12:01:33Z</time>
      </trkpt>
      <trkpt lat="44.32449" lon="4.05065">
        <ele>380</ele>
        <time>2013-04-03T12:01:36Z</time>
      </trkpt>
      <trkpt lat="44.32449" lon="4.05065">
        <ele>380</ele>
        <time>2013-04-03T12:01:38Z</time>
      </trkpt>
      <trkpt lat="44.32449" lon="4.05065">
        <ele>380</ele>
        <time>2013-04-03T12:01:40Z</time>
      </trkpt>
      <trkpt lat="44.32449" lon="4.05065">
        <ele>380</ele>
        <time>2013-04-03T12:01:42Z</time>
      </trkpt>
      <trkpt lat="44.32449" lon="4.05065">
        <ele>380</ele>
        <time>2013-04-03T12:01:44Z</time>
      </trkpt>
      <trkpt lat="44.32449" lon="4.05065">
        <ele>380</ele>
        <time>2013-04-03T12:01:46Z</time>
      </trkpt>
      <trkpt lat="44.32449" lon="4.05065">
        <ele>380</ele>
        <time>2013-04-03T12:01:48Z</time>
      </trkpt>
      <trkpt lat="44.32449" lon="4.05065">
        <ele>380</ele>
        <time>2013-04-03T12:01:50Z</time>
      </trkpt>
      <trkpt lat="44.32449" lon="4.05065">
        <ele>380</ele>
        <time>2013-04-03T12:01:52Z</time>
      </trkpt>
      <trkpt lat="44.32449" lon="4.05065">
        <ele>380</ele>
        <time>2013-04-03T12:01:54Z</time>
      </trkpt>
      <trkpt lat="44.32449" lon="4.05065">
        <ele>380</ele>
        <time>2013-04-03T12:01:56Z</time>
      </trkpt>
      <trkpt lat="44.32449" lon="4.05065">
        <ele>380</ele>
        <time>2013-04-03T12:01:58Z</time>
      </trkpt>
      <trkpt lat="44.32449" lon="4.05065">
        <ele>380</ele>
        <time>2013-04-03T12:01:59Z</time>
      </trkpt>
      <trkpt lat="44.32449" lon="4.05065">
        <ele>380</ele>
        <time>2013-04-03T12:02:00Z</time>
      </trkpt>
      <trkpt lat="44.32449" lon="4.05065">
        <ele>380</ele>
        <time>2013-04-03T12:02:02Z</time>
      </trkpt>
      <trkpt lat="44.32449" lon="4.05065">
        <ele>380</ele>
        <time>2013-04-03T12:02:04Z</time>
      </trkpt>
      <trkpt lat="44.32449" lon="4.05065">
        <ele>380</ele>
        <time>2013-04-03T12:02:06Z</time>
      </trkpt>
      <trkpt lat="44.32449" lon="4.05065">
        <ele>380</ele>
        <time>2013-04-03T12:02:08Z</time>
      </trkpt>
      <trkpt lat="44.32449" lon="4.05065">
        <ele>380</ele>
        <time>2013-04-03T12:02:10Z</time>
      </trkpt>
      <trkpt lat="44.32449" lon="4.05065">
        <ele>380</ele>
        <time>2013-04-03T12:02:12Z</time>
      </trkpt>
      <trkpt lat="44.32449" lon="4.05065">
        <ele>380</ele>
        <time>2013-04-03T12:02:14Z</time>
      </trkpt>
      <trkpt lat="44.32449" lon="4.05065">
        <ele>380</ele>
        <time>2013-04-03T12:02:15Z</time>
      </trkpt>
      <trkpt lat="44.32449" lon="4.05065">
        <ele>380</ele>
        <time>2013-04-03T12:02:16Z</time>
      </trkpt>
      <trkpt lat="44.32449" lon="4.05065">
        <ele>380</ele>
        <time>2013-04-03T12:02:18Z</time>
      </trkpt>
      <trkpt lat="44.32449" lon="4.05065">
        <ele>380</ele>
        <time>2013-04-03T12:02:20Z</time>
      </trkpt>
      <trkpt lat="44.32449" lon="4.05065">
        <ele>380</ele>
        <time>2013-04-03T12:02:22Z</time>
      </trkpt>
      <trkpt lat="44.32449" lon="4.05065">
        <ele>380</ele>
        <time>2013-04-03T12:02:24Z</time>
      </trkpt>
      <trkpt lat="44.32449" lon="4.05065">
        <ele>380</ele>
        <time>2013-04-03T12:02:26Z</time>
      </trkpt>
      <trkpt lat="44.32449" lon="4.05065">
        <ele>380</ele>
        <time>2013-04-03T12:02:28Z</time>
      </trkpt>
      <trkpt lat="44.32449" lon="4.05065">
        <ele>380</ele>
        <time>2013-04-03T12:02:30Z</time>
      </trkpt>
      <trkpt lat="44.32449" lon="4.05065">
        <ele>380</ele>
        <time>2013-04-03T12:02:32Z</time>
      </trkpt>
      <trkpt lat="44.32449" lon="4.05065">
        <ele>380</ele>
        <time>2013-04-03T12:02:34Z</time>
      </trkpt>
      <trkpt lat="44.32449" lon="4.05065">
        <ele>380</ele>
        <time>2013-04-03T12:02:35Z</time>
      </trkpt>
      <trkpt lat="44.32449" lon="4.05065">
        <ele>380</ele>
        <time>2013-04-03T12:02:38Z</time>
      </trkpt>
      <trkpt lat="44.32449" lon="4.05065">
        <ele>380</ele>
        <time>2013-04-03T12:02:40Z</time>
      </trkpt>
      <trkpt lat="44.32449" lon="4.05065">
        <ele>380</ele>
        <time>2013-04-03T12:02:42Z</time>
      </trkpt>
      <trkpt lat="44.32449" lon="4.05065">
        <ele>380</ele>
        <time>2013-04-03T12:02:44Z</time>
      </trkpt>
      <trkpt lat="44.32449" lon="4.05065">
        <ele>380</ele>
        <time>2013-04-03T12:02:46Z</time>
      </trkpt>
      <trkpt lat="44.32449" lon="4.05065">
        <ele>380</ele>
        <time>2013-04-03T12:02:48Z</time>
      </trkpt>
      <trkpt lat="44.32449" lon="4.05065">
        <ele>380</ele>
        <time>2013-04-03T12:02:50Z</time>
      </trkpt>
      <trkpt lat="44.32449" lon="4.05065">
        <ele>380</ele>
        <time>2013-04-03T12:02:52Z</time>
      </trkpt>
      <trkpt lat="44.32449" lon="4.05065">
        <ele>380</ele>
        <time>2013-04-03T12:02:54Z</time>
      </trkpt>
      <trkpt lat="44.32449" lon="4.05065">
        <ele>380</ele>
        <time>2013-04-03T12:02:56Z</time>
      </trkpt>
      <trkpt lat="44.32449" lon="4.05065">
        <ele>380</ele>
        <time>2013-04-03T12:02:58Z</time>
      </trkpt>
      <trkpt lat="44.32449" lon="4.05065">
        <ele>380</ele>
        <time>2013-04-03T12:02:59Z</time>
      </trkpt>
      <trkpt lat="44.32449" lon="4.05065">
        <ele>380</ele>
        <time>2013-04-03T12:03:00Z</time>
      </trkpt>
      <trkpt lat="44.32449" lon="4.05065">
        <ele>380</ele>
        <time>2013-04-03T12:03:02Z</time>
      </trkpt>
      <trkpt lat="44.32449" lon="4.05065">
        <ele>380</ele>
        <time>2013-04-03T12:03:04Z</time>
      </trkpt>
      <trkpt lat="44.32449" lon="4.05065">
        <ele>380</ele>
        <time>2013-04-03T12:03:06Z</time>
      </trkpt>
      <trkpt lat="44.32449" lon="4.05065">
        <ele>380</ele>
        <time>2013-04-03T12:03:08Z</time>
      </trkpt>
      <trkpt lat="44.32449" lon="4.05065">
        <ele>380</ele>
        <time>2013-04-03T12:03:10Z</time>
      </trkpt>
      <trkpt lat="44.32449" lon="4.05065">
        <ele>380</ele>
        <time>2013-04-03T12:03:12Z</time>
      </trkpt>
      <trkpt lat="44.32449" lon="4.05065">
        <ele>380</ele>
        <time>2013-04-03T12:03:14Z</time>
      </trkpt>
      <trkpt lat="44.32449" lon="4.05065">
        <ele>380</ele>
        <time>2013-04-03T12:03:15Z</time>
      </trkpt>
      <trkpt lat="44.32449" lon="4.05065">
        <ele>380</ele>
        <time>2013-04-03T12:03:16Z</time>
      </trkpt>
      <trkpt lat="44.32449" lon="4.05065">
        <ele>380</ele>
        <time>2013-04-03T12:03:18Z</time>
      </trkpt>
      <trkpt lat="44.32449" lon="4.05065">
        <ele>380</ele>
        <time>2013-04-03T12:03:20Z</time>
      </trkpt>
      <trkpt lat="44.32449" lon="4.05065">
        <ele>380</ele>
        <time>2013-04-03T12:03:22Z</time>
      </trkpt>
      <trkpt lat="44.32449" lon="4.05065">
        <ele>380</ele>
        <time>2013-04-03T12:03:24Z</time>
      </trkpt>
      <trkpt lat="44.32449" lon="4.05065">
        <ele>380</ele>
        <time>2013-04-03T12:03:26Z</time>
      </trkpt>
      <trkpt lat="44.32449" lon="4.05065">
        <ele>380</ele>
        <time>2013-04-03T12:03:28Z</time>
      </trkpt>
      <trkpt lat="44.32449" lon="4.05065">
        <ele>380</ele>
        <time>2013-04-03T12:03:30Z</time>
      </trkpt>
      <trkpt lat="44.32449" lon="4.05065">
        <ele>380</ele>
        <time>2013-04-03T12:03:32Z</time>
      </trkpt>
      <trkpt lat="44.32449" lon="4.05065">
        <ele>380</ele>
        <time>2013-04-03T12:03:34Z</time>
      </trkpt>
      <trkpt lat="44.32449" lon="4.05065">
        <ele>380</ele>
        <time>2013-04-03T12:03:36Z</time>
      </trkpt>
      <trkpt lat="44.32449" lon="4.05065">
        <ele>380</ele>
        <time>2013-04-03T12:03:37Z</time>
      </trkpt>
      <trkpt lat="44.32449" lon="4.05065">
        <ele>380</ele>
        <time>2013-04-03T12:03:40Z</time>
      </trkpt>
      <trkpt lat="44.32449" lon="4.05065">
        <ele>380</ele>
        <time>2013-04-03T12:03:42Z</time>
      </trkpt>
      <trkpt lat="44.32449" lon="4.05065">
        <ele>380</ele>
        <time>2013-04-03T12:03:44Z</time>
      </trkpt>
      <trkpt lat="44.32449" lon="4.05065">
        <ele>380</ele>
        <time>2013-04-03T12:03:46Z</time>
      </trkpt>
      <trkpt lat="44.32449" lon="4.05065">
        <ele>380</ele>
        <time>2013-04-03T12:03:48Z</time>
      </trkpt>
      <trkpt lat="44.32449" lon="4.05065">
        <ele>380</ele>
        <time>2013-04-03T12:03:50Z</time>
      </trkpt>
      <trkpt lat="44.32449" lon="4.05065">
        <ele>380</ele>
        <time>2013-04-03T12:03:52Z</time>
      </trkpt>
      <trkpt lat="44.32449" lon="4.05065">
        <ele>380</ele>
        <time>2013-04-03T12:03:54Z</time>
      </trkpt>
      <trkpt lat="44.32449" lon="4.05065">
        <ele>380</ele>
        <time>2013-04-03T12:03:56Z</time>
      </trkpt>
      <trkpt lat="44.32449" lon="4.05065">
        <ele>380</ele>
        <time>2013-04-03T12:03:58Z</time>
      </trkpt>
      <trkpt lat="44.32449" lon="4.05065">
        <ele>380</ele>
        <time>2013-04-03T12:03:59Z</time>
      </trkpt>
      <trkpt lat="44.32449" lon="4.05065">
        <ele>380</ele>
        <time>2013-04-03T12:04:00Z</time>
      </trkpt>
      <trkpt lat="44.32449" lon="4.05065">
        <ele>380</ele>
        <time>2013-04-03T12:04:02Z</time>
      </trkpt>
      <trkpt lat="44.32449" lon="4.05065">
        <ele>380</ele>
        <time>2013-04-03T12:04:04Z</time>
      </trkpt>
      <trkpt lat="44.32449" lon="4.05065">
        <ele>380</ele>
        <time>2013-04-03T12:04:06Z</time>
      </trkpt>
      <trkpt lat="44.32449" lon="4.05065">
        <ele>380</ele>
        <time>2013-04-03T12:04:08Z</time>
      </trkpt>
      <trkpt lat="44.32449" lon="4.05065">
        <ele>380</ele>
        <time>2013-04-03T12:04:10Z</time>
      </trkpt>
      <trkpt lat="44.32449" lon="4.05065">
        <ele>380</ele>
        <time>2013-04-03T12:04:12Z</time>
      </trkpt>
      <trkpt lat="44.32449" lon="4.05065">
        <ele>380</ele>
        <time>2013-04-03T12:04:14Z</time>
      </trkpt>
      <trkpt lat="44.32449" lon="4.05065">
        <ele>380</ele>
        <time>2013-04-03T12:04:15Z</time>
      </trkpt>
      <trkpt lat="44.32449" lon="4.05065">
        <ele>380</ele>
        <time>2013-04-03T12:04:16Z</time>
      </trkpt>
      <trkpt lat="44.32449" lon="4.05065">
        <ele>380</ele>
        <time>2013-04-03T12:04:18Z</time>
      </trkpt>
      <trkpt lat="44.32449" lon="4.05065">
        <ele>380</ele>
        <time>2013-04-03T12:04:20Z</time>
      </trkpt>
      <trkpt lat="44.32449" lon="4.05065">
        <ele>380</ele>
        <time>2013-04-03T12:04:22Z</time>
      </trkpt>
      <trkpt lat="44.32449" lon="4.05065">
        <ele>380</ele>
        <time>2013-04-03T12:04:24Z</time>
      </trkpt>
      <trkpt lat="44.32449" lon="4.05065">
        <ele>380</ele>
        <time>2013-04-03T12:04:26Z</time>
      </trkpt>
      <trkpt lat="44.32449" lon="4.05065">
        <ele>380</ele>
        <time>2013-04-03T12:04:28Z</time>
      </trkpt>
      <trkpt lat="44.32449" lon="4.05065">
        <ele>380</ele>
        <time>2013-04-03T12:04:30Z</time>
      </trkpt>
      <trkpt lat="44.32449" lon="4.05065">
        <ele>380</ele>
        <time>2013-04-03T12:04:32Z</time>
      </trkpt>
      <trkpt lat="44.32449" lon="4.05065">
        <ele>380</ele>
        <time>2013-04-03T12:04:34Z</time>
      </trkpt>
      <trkpt lat="44.32449" lon="4.05065">
        <ele>380</ele>
        <time>2013-04-03T12:04:36Z</time>
      </trkpt>
      <trkpt lat="44.32449" lon="4.05065">
        <ele>380</ele>
        <time>2013-04-03T12:04:38Z</time>
      </trkpt>
      <trkpt lat="44.32449" lon="4.05065">
        <ele>380</ele>
        <time>2013-04-03T12:04:39Z</time>
      </trkpt>
      <trkpt lat="44.32449" lon="4.05065">
        <ele>380</ele>
        <time>2013-04-03T12:04:42Z</time>
      </trkpt>
      <trkpt lat="44.32449" lon="4.05065">
        <ele>380</ele>
        <time>2013-04-03T12:04:44Z</time>
      </trkpt>
      <trkpt lat="44.32449" lon="4.05065">
        <ele>380</ele>
        <time>2013-04-03T12:04:46Z</time>
      </trkpt>
      <trkpt lat="44.32449" lon="4.05065">
        <ele>380</ele>
        <time>2013-04-03T12:04:48Z</time>
      </trkpt>
      <trkpt lat="44.32449" lon="4.05065">
        <ele>380</ele>
        <time>2013-04-03T12:04:50Z</time>
      </trkpt>
      <trkpt lat="44.32449" lon="4.05065">
        <ele>380</ele>
        <time>2013-04-03T12:04:52Z</time>
      </trkpt>
      <trkpt lat="44.32449" lon="4.05065">
        <ele>380</ele>
        <time>2013-04-03T12:04:54Z</time>
      </trkpt>
      <trkpt lat="44.32449" lon="4.05065">
        <ele>380</ele>
        <time>2013-04-03T12:04:56Z</time>
      </trkpt>
      <trkpt lat="44.32449" lon="4.05065">
        <ele>380</ele>
        <time>2013-04-03T12:04:58Z</time>
      </trkpt>
      <trkpt lat="44.32449" lon="4.05065">
        <ele>380</ele>
        <time>2013-04-03T12:04:59Z</time>
      </trkpt>
      <trkpt lat="44.32449" lon="4.05065">
        <ele>380</ele>
        <time>2013-04-03T12:05:00Z</time>
      </trkpt>
      <trkpt lat="44.32449" lon="4.05065">
        <ele>380</ele>
        <time>2013-04-03T12:05:02Z</time>
      </trkpt>
      <trkpt lat="44.32449" lon="4.05065">
        <ele>380</ele>
        <time>2013-04-03T12:05:04Z</time>
      </trkpt>
      <trkpt lat="44.32449" lon="4.05065">
        <ele>380</ele>
        <time>2013-04-03T12:05:06Z</time>
      </trkpt>
      <trkpt lat="44.32449" lon="4.05065">
        <ele>380</ele>
        <time>2013-04-03T12:05:08Z</time>
      </trkpt>
      <trkpt lat="44.32449" lon="4.05065">
        <ele>380</ele>
        <time>2013-04-03T12:05:10Z</time>
      </trkpt>
      <trkpt lat="44.32449" lon="4.05065">
        <ele>380</ele>
        <time>2013-04-03T12:05:12Z</time>
      </trkpt>
      <trkpt lat="44.32449" lon="4.05065">
        <ele>380</ele>
        <time>2013-04-03T12:05:14Z</time>
      </trkpt>
      <trkpt lat="44.32449" lon="4.05065">
        <ele>380</ele>
        <time>2013-04-03T12:05:15Z</time>
      </trkpt>
      <trkpt lat="44.32449" lon="4.05065">
        <ele>380</ele>
        <time>2013-04-03T12:05:16Z</time>
      </trkpt>
      <trkpt lat="44.32449" lon="4.05065">
        <ele>380</ele>
        <time>2013-04-03T12:05:18Z</time>
      </trkpt>
      <trkpt lat="44.32449" lon="4.05065">
        <ele>380</ele>
        <time>2013-04-03T12:05:20Z</time>
      </trkpt>
      <trkpt lat="44.32449" lon="4.05065">
        <ele>380</ele>
        <time>2013-04-03T12:05:22Z</time>
      </trkpt>
      <trkpt lat="44.32449" lon="4.05065">
        <ele>380</ele>
        <time>2013-04-03T12:05:24Z</time>
      </trkpt>
      <trkpt lat="44.32449" lon="4.05065">
        <ele>380</ele>
        <time>2013-04-03T12:05:26Z</time>
      </trkpt>
      <trkpt lat="44.32449" lon="4.05065">
        <ele>380</ele>
        <time>2013-04-03T12:05:28Z</time>
      </trkpt>
      <trkpt lat="44.32449" lon="4.05065">
        <ele>380</ele>
        <time>2013-04-03T12:05:30Z</time>
      </trkpt>
      <trkpt lat="44.32449" lon="4.05065">
        <ele>380</ele>
        <time>2013-04-03T12:05:32Z</time>
      </trkpt>
      <trkpt lat="44.32449" lon="4.05065">
        <ele>380</ele>
        <time>2013-04-03T12:05:34Z</time>
      </trkpt>
      <trkpt lat="44.32449" lon="4.05065">
        <ele>380</ele>
        <time>2013-04-03T12:05:36Z</time>
      </trkpt>
      <trkpt lat="44.32449" lon="4.05065">
        <ele>380</ele>
        <time>2013-04-03T12:05:38Z</time>
      </trkpt>
      <trkpt lat="44.32449" lon="4.05065">
        <ele>380</ele>
        <time>2013-04-03T12:05:40Z</time>
      </trkpt>
      <trkpt lat="44.32449" lon="4.05065">
        <ele>380</ele>
        <time>2013-04-03T12:05:41Z</time>
      </trkpt>
      <trkpt lat="44.32449" lon="4.05065">
        <ele>380</ele>
        <time>2013-04-03T12:05:44Z</time>
      </trkpt>
      <trkpt lat="44.32449" lon="4.05065">
        <ele>380</ele>
        <time>2013-04-03T12:05:46Z</time>
      </trkpt>
      <trkpt lat="44.32449" lon="4.05065">
        <ele>380</ele>
        <time>2013-04-03T12:05:48Z</time>
      </trkpt>
      <trkpt lat="44.32449" lon="4.05065">
        <ele>380</ele>
        <time>2013-04-03T12:05:50Z</time>
      </trkpt>
      <trkpt lat="44.32449" lon="4.05065">
        <ele>380</ele>
        <time>2013-04-03T12:05:52Z</time>
      </trkpt>
      <trkpt lat="44.32449" lon="4.05065">
        <ele>380</ele>
        <time>2013-04-03T12:05:54Z</time>
      </trkpt>
      <trkpt lat="44.32449" lon="4.05065">
        <ele>380</ele>
        <time>2013-04-03T12:05:56Z</time>
      </trkpt>
      <trkpt lat="44.32449" lon="4.05065">
        <ele>380</ele>
        <time>2013-04-03T12:05:58Z</time>
      </trkpt>
      <trkpt lat="44.32449" lon="4.05065">
        <ele>380</ele>
        <time>2013-04-03T12:05:59Z</time>
      </trkpt>
      <trkpt lat="44.32449" lon="4.05065">
        <ele>380</ele>
        <time>2013-04-03T12:06:00Z</time>
      </trkpt>
      <trkpt lat="44.32449" lon="4.05065">
        <ele>380</ele>
        <time>2013-04-03T12:06:02Z</time>
      </trkpt>
      <trkpt lat="44.32449" lon="4.05065">
        <ele>380</ele>
        <time>2013-04-03T12:06:04Z</time>
      </trkpt>
      <trkpt lat="44.32449" lon="4.05065">
        <ele>380</ele>
        <time>2013-04-03T12:06:06Z</time>
      </trkpt>
      <trkpt lat="44.32449" lon="4.05065">
        <ele>380</ele>
        <time>2013-04-03T12:06:08Z</time>
      </trkpt>
      <trkpt lat="44.32449" lon="4.05065">
        <ele>380</ele>
        <time>2013-04-03T12:06:10Z</time>
      </trkpt>
      <trkpt lat="44.32449" lon="4.05065">
        <ele>380</ele>
        <time>2013-04-03T12:06:12Z</time>
      </trkpt>
      <trkpt lat="44.32449" lon="4.05065">
        <ele>380</ele>
        <time>2013-04-03T12:06:14Z</time>
      </trkpt>
      <trkpt lat="44.32449" lon="4.05065">
        <ele>380</ele>
        <time>2013-04-03T12:06:15Z</time>
      </trkpt>
      <trkpt lat="44.32449" lon="4.05065">
        <ele>380</ele>
        <time>2013-04-03T12:06:16Z</time>
      </trkpt>
      <trkpt lat="44.32449" lon="4.05065">
        <ele>380</ele>
        <time>2013-04-03T12:06:18Z</time>
      </trkpt>
      <trkpt lat="44.32449" lon="4.05065">
        <ele>380</ele>
        <time>2013-04-03T12:06:20Z</time>
      </trkpt>
      <trkpt lat="44.32449" lon="4.05065">
        <ele>380</ele>
        <time>2013-04-03T12:06:22Z</time>
      </trkpt>
      <trkpt lat="44.32449" lon="4.05065">
        <ele>380</ele>
        <time>2013-04-03T12:06:24Z</time>
      </trkpt>
      <trkpt lat="44.32449" lon="4.05065">
        <ele>380</ele>
        <time>2013-04-03T12:06:26Z</time>
      </trkpt>
      <trkpt lat="44.32449" lon="4.05065">
        <ele>380</ele>
        <time>2013-04-03T12:06:28Z</time>
      </trkpt>
      <trkpt lat="44.32449" lon="4.05065">
        <ele>380</ele>
        <time>2013-04-03T12:06:30Z</time>
      </trkpt>
      <trkpt lat="44.32449" lon="4.05065">
        <ele>380</ele>
        <time>2013-04-03T12:06:32Z</time>
      </trkpt>
      <trkpt lat="44.32449" lon="4.05065">
        <ele>380</ele>
        <time>2013-04-03T12:06:34Z</time>
      </trkpt>
      <trkpt lat="44.32449" lon="4.05065">
        <ele>380</ele>
        <time>2013-04-03T12:06:36Z</time>
      </trkpt>
      <trkpt lat="44.32449" lon="4.05065">
        <ele>380</ele>
        <time>2013-04-03T12:06:38Z</time>
      </trkpt>
      <trkpt lat="44.32449" lon="4.05065">
        <ele>380</ele>
        <time>2013-04-03T12:06:40Z</time>
      </trkpt>
      <trkpt lat="44.32449" lon="4.05065">
        <ele>380</ele>
        <time>2013-04-03T12:06:42Z</time>
      </trkpt>
      <trkpt lat="44.32449" lon="4.05065">
        <ele>380</ele>
        <time>2013-04-03T12:06:43Z</time>
      </trkpt>
      <trkpt lat="44.32449" lon="4.05065">
        <ele>380</ele>
        <time>2013-04-03T12:06:46Z</time>
      </trkpt>
      <trkpt lat="44.32449" lon="4.05065">
        <ele>380</ele>
        <time>2013-04-03T12:06:48Z</time>
      </trkpt>
      <trkpt lat="44.32449" lon="4.05065">
        <ele>380</ele>
        <time>2013-04-03T12:06:50Z</time>
      </trkpt>
      <trkpt lat="44.32449" lon="4.05065">
        <ele>380</ele>
        <time>2013-04-03T12:06:52Z</time>
      </trkpt>
      <trkpt lat="44.32449" lon="4.05065">
        <ele>380</ele>
        <time>2013-04-03T12:06:54Z</time>
      </trkpt>
      <trkpt lat="44.32449" lon="4.05065">
        <ele>380</ele>
        <time>2013-04-03T12:06:56Z</time>
      </trkpt>
      <trkpt lat="44.32449" lon="4.05065">
        <ele>380</ele>
        <time>2013-04-03T12:06:58Z</time>
      </trkpt>
      <trkpt lat="44.32449" lon="4.05065">
        <ele>380</ele>
        <time>2013-04-03T12:06:59Z</time>
      </trkpt>
      <trkpt lat="44.32449" lon="4.05065">
        <ele>380</ele>
        <time>2013-04-03T12:07:00Z</time>
      </trkpt>
      <trkpt lat="44.32449" lon="4.05065">
        <ele>380</ele>
        <time>2013-04-03T12:07:02Z</time>
      </trkpt>
      <trkpt lat="44.32449" lon="4.05065">
        <ele>380</ele>
        <time>2013-04-03T12:07:04Z</time>
      </trkpt>
      <trkpt lat="44.32449" lon="4.05065">
        <ele>380</ele>
        <time>2013-04-03T12:07:06Z</time>
      </trkpt>
      <trkpt lat="44.32449" lon="4.05065">
        <ele>380</ele>
        <time>2013-04-03T12:07:08Z</time>
      </trkpt>
      <trkpt lat="44.32449" lon="4.05065">
        <ele>380</ele>
        <time>2013-04-03T12:07:10Z</time>
      </trkpt>
      <trkpt lat="44.32449" lon="4.05065">
        <ele>380</ele>
        <time>2013-04-03T12:07:12Z</time>
      </trkpt>
      <trkpt lat="44.32449" lon="4.05065">
        <ele>380</ele>
        <time>2013-04-03T12:07:14Z</time>
      </trkpt>
      <trkpt lat="44.32449" lon="4.05065">
        <ele>380</ele>
        <time>2013-04-03T12:07:15Z</time>
      </trkpt>
      <trkpt lat="44.32449" lon="4.05065">
        <ele>380</ele>
        <time>2013-04-03T12:07:16Z</time>
      </trkpt>
      <trkpt lat="44.32449" lon="4.05065">
        <ele>380</ele>
        <time>2013-04-03T12:07:18Z</time>
      </trkpt>
      <trkpt lat="44.32449" lon="4.05064">
        <ele>381</ele>
        <time>2013-04-03T12:07:20Z</time>
      </trkpt>
      <trkpt lat="44.32449" lon="4.05064">
        <ele>381</ele>
        <time>2013-04-03T12:07:22Z</time>
      </trkpt>
      <trkpt lat="44.32449" lon="4.05064">
        <ele>381</ele>
        <time>2013-04-03T12:07:24Z</time>
      </trkpt>
      <trkpt lat="44.32449" lon="4.05064">
        <ele>381</ele>
        <time>2013-04-03T12:07:26Z</time>
      </trkpt>
      <trkpt lat="44.32449" lon="4.05064">
        <ele>381</ele>
        <time>2013-04-03T12:07:28Z</time>
      </trkpt>
      <trkpt lat="44.32449" lon="4.05064">
        <ele>381</ele>
        <time>2013-04-03T12:07:30Z</time>
      </trkpt>
      <trkpt lat="44.32449" lon="4.05064">
        <ele>381</ele>
        <time>2013-04-03T12:07:32Z</time>
      </trkpt>
      <trkpt lat="44.32449" lon="4.05064">
        <ele>381</ele>
        <time>2013-04-03T12:07:34Z</time>
      </trkpt>
      <trkpt lat="44.32449" lon="4.05064">
        <ele>381</ele>
        <time>2013-04-03T12:07:36Z</time>
      </trkpt>
      <trkpt lat="44.32449" lon="4.05064">
        <ele>381</ele>
        <time>2013-04-03T12:07:38Z</time>
      </trkpt>
      <trkpt lat="44.32449" lon="4.05064">
        <ele>381</ele>
        <time>2013-04-03T12:07:40Z</time>
      </trkpt>
      <trkpt lat="44.32449" lon="4.05064">
        <ele>381</ele>
        <time>2013-04-03T12:07:42Z</time>
      </trkpt>
      <trkpt lat="44.32449" lon="4.05064">
        <ele>381</ele>
        <time>2013-04-03T12:07:44Z</time>
      </trkpt>
      <trkpt lat="44.32449" lon="4.05064">
        <ele>381</ele>
        <time>2013-04-03T12:07:45Z</time>
      </trkpt>
      <trkpt lat="44.32449" lon="4.05064">
        <ele>381</ele>
        <time>2013-04-03T12:07:48Z</time>
      </trkpt>
      <trkpt lat="44.32449" lon="4.05064">
        <ele>381</ele>
        <time>2013-04-03T12:07:50Z</time>
      </trkpt>
      <trkpt lat="44.32449" lon="4.05064">
        <ele>381</ele>
        <time>2013-04-03T12:07:52Z</time>
      </trkpt>
      <trkpt lat="44.32449" lon="4.05064">
        <ele>381</ele>
        <time>2013-04-03T12:07:54Z</time>
      </trkpt>
      <trkpt lat="44.32449" lon="4.05064">
        <ele>381</ele>
        <time>2013-04-03T12:07:56Z</time>
      </trkpt>
      <trkpt lat="44.32449" lon="4.05064">
        <ele>381</ele>
        <time>2013-04-03T12:07:58Z</time>
      </trkpt>
      <trkpt lat="44.32449" lon="4.05064">
        <ele>381</ele>
        <time>2013-04-03T12:07:59Z</time>
      </trkpt>
      <trkpt lat="44.32449" lon="4.05064">
        <ele>381</ele>
        <time>2013-04-03T12:08:00Z</time>
      </trkpt>
      <trkpt lat="44.32449" lon="4.05064">
        <ele>381</ele>
        <time>2013-04-03T12:08:02Z</time>
      </trkpt>
      <trkpt lat="44.32449" lon="4.05064">
        <ele>381</ele>
        <time>2013-04-03T12:08:04Z</time>
      </trkpt>
      <trkpt lat="44.32449" lon="4.05064">
        <ele>381</ele>
        <time>2013-04-03T12:08:06Z</time>
      </trkpt>
      <trkpt lat="44.32449" lon="4.05064">
        <ele>381</ele>
        <time>2013-04-03T12:08:08Z</time>
      </trkpt>
      <trkpt lat="44.32449" lon="4.05064">
        <ele>381</ele>
        <time>2013-04-03T12:08:10Z</time>
      </trkpt>
      <trkpt lat="44.32449" lon="4.05064">
        <ele>381</ele>
        <time>2013-04-03T12:08:12Z</time>
      </trkpt>
      <trkpt lat="44.32449" lon="4.05064">
        <ele>381</ele>
        <time>2013-04-03T12:08:14Z</time>
      </trkpt>
      <trkpt lat="44.32449" lon="4.05064">
        <ele>381</ele>
        <time>2013-04-03T12:08:15Z</time>
      </trkpt>
      <trkpt lat="44.32449" lon="4.05064">
        <ele>381</ele>
        <time>2013-04-03T12:08:16Z</time>
      </trkpt>
      <trkpt lat="44.32449" lon="4.05064">
        <ele>381</ele>
        <time>2013-04-03T12:08:18Z</time>
      </trkpt>
      <trkpt lat="44.32449" lon="4.05064">
        <ele>381</ele>
        <time>2013-04-03T12:08:20Z</time>
      </trkpt>
      <trkpt lat="44.32449" lon="4.05064">
        <ele>381</ele>
        <time>2013-04-03T12:08:22Z</time>
      </trkpt>
      <trkpt lat="44.32449" lon="4.05064">
        <ele>381</ele>
        <time>2013-04-03T12:08:24Z</time>
      </trkpt>
      <trkpt lat="44.32449" lon="4.05064">
        <ele>381</ele>
        <time>2013-04-03T12:08:26Z</time>
      </trkpt>
      <trkpt lat="44.32449" lon="4.05064">
        <ele>381</ele>
        <time>2013-04-03T12:08:28Z</time>
      </trkpt>
      <trkpt lat="44.32449" lon="4.05064">
        <ele>381</ele>
        <time>2013-04-03T12:08:30Z</time>
      </trkpt>
      <trkpt lat="44.32449" lon="4.05064">
        <ele>381</ele>
        <time>2013-04-03T12:08:32Z</time>
      </trkpt>
      <trkpt lat="44.32449" lon="4.05064">
        <ele>381</ele>
        <time>2013-04-03T12:08:34Z</time>
      </trkpt>
      <trkpt lat="44.32449" lon="4.05064">
        <ele>381</ele>
        <time>2013-04-03T12:08:36Z</time>
      </trkpt>
      <trkpt lat="44.32449" lon="4.05064">
        <ele>381</ele>
        <time>2013-04-03T12:08:38Z</time>
      </trkpt>
      <trkpt lat="44.32449" lon="4.05064">
        <ele>381</ele>
        <time>2013-04-03T12:08:40Z</time>
      </trkpt>
      <trkpt lat="44.32449" lon="4.05064">
        <ele>381</ele>
        <time>2013-04-03T12:08:42Z</time>
      </trkpt>
      <trkpt lat="44.32449" lon="4.05064">
        <ele>381</ele>
        <time>2013-04-03T12:08:44Z</time>
      </trkpt>
      <trkpt lat="44.32449" lon="4.05064">
        <ele>381</ele>
        <time>2013-04-03T12:08:46Z</time>
      </trkpt>
      <trkpt lat="44.32449" lon="4.05064">
        <ele>381</ele>
        <time>2013-04-03T12:08:47Z</time>
      </trkpt>
      <trkpt lat="44.32449" lon="4.05064">
        <ele>381</ele>
        <time>2013-04-03T12:08:50Z</time>
      </trkpt>
      <trkpt lat="44.32449" lon="4.05064">
        <ele>381</ele>
        <time>2013-04-03T12:08:52Z</time>
      </trkpt>
      <trkpt lat="44.32449" lon="4.05064">
        <ele>381</ele>
        <time>2013-04-03T12:08:54Z</time>
      </trkpt>
      <trkpt lat="44.32449" lon="4.05064">
        <ele>381</ele>
        <time>2013-04-03T12:08:56Z</time>
      </trkpt>
      <trkpt lat="44.32449" lon="4.05064">
        <ele>381</ele>
        <time>2013-04-03T12:08:58Z</time>
      </trkpt>
      <trkpt lat="44.32449" lon="4.05064">
        <ele>381</ele>
        <time>2013-04-03T12:08:59Z</time>
      </trkpt>
      <trkpt lat="44.32449" lon="4.05064">
        <ele>381</ele>
        <time>2013-04-03T12:09:00Z</time>
      </trkpt>
      <trkpt lat="44.32449" lon="4.05064">
        <ele>381</ele>
        <time>2013-04-03T12:09:02Z</time>
      </trkpt>
      <trkpt lat="44.32449" lon="4.05063">
        <ele>382</ele>
        <time>2013-04-03T12:09:04Z</time>
      </trkpt>
      <trkpt lat="44.32449" lon="4.05063">
        <ele>382</ele>
        <time>2013-04-03T12:09:06Z</time>
      </trkpt>
      <trkpt lat="44.32449" lon="4.05063">
        <ele>382</ele>
        <time>2013-04-03T12:09:08Z</time>
      </trkpt>
      <trkpt lat="44.32449" lon="4.05063">
        <ele>382</ele>
        <time>2013-04-03T12:09:10Z</time>
      </trkpt>
      <trkpt lat="44.32449" lon="4.05063">
        <ele>382</ele>
        <time>2013-04-03T12:09:12Z</time>
      </trkpt>
      <trkpt lat="44.32449" lon="4.05063">
        <ele>382</ele>
        <time>2013-04-03T12:09:14Z</time>
      </trkpt>
      <trkpt lat="44.32449" lon="4.05063">
        <ele>382</ele>
        <time>2013-04-03T12:09:15Z</time>
      </trkpt>
      <trkpt lat="44.32449" lon="4.05063">
        <ele>382</ele>
        <time>2013-04-03T12:09:16Z</time>
      </trkpt>
      <trkpt lat="44.32449" lon="4.05063">
        <ele>382</ele>
        <time>2013-04-03T12:09:18Z</time>
      </trkpt>
      <trkpt lat="44.32449" lon="4.05063">
        <ele>382</ele>
        <time>2013-04-03T12:09:20Z</time>
      </trkpt>
      <trkpt lat="44.32449" lon="4.05063">
        <ele>382</ele>
        <time>2013-04-03T12:09:22Z</time>
      </trkpt>
      <trkpt lat="44.32449" lon="4.05063">
        <ele>382</ele>
        <time>2013-04-03T12:09:24Z</time>
      </trkpt>
      <trkpt lat="44.32449" lon="4.05063">
        <ele>382</ele>
        <time>2013-04-03T12:09:26Z</time>
      </trkpt>
      <trkpt lat="44.32449" lon="4.05063">
        <ele>382</ele>
        <time>2013-04-03T12:09:28Z</time>
      </trkpt>
      <trkpt lat="44.32449" lon="4.05063">
        <ele>382</ele>
        <time>2013-04-03T12:09:30Z</time>
      </trkpt>
      <trkpt lat="44.32449" lon="4.05063">
        <ele>382</ele>
        <time>2013-04-03T12:09:32Z</time>
      </trkpt>
      <trkpt lat="44.32449" lon="4.05063">
        <ele>382</ele>
        <time>2013-04-03T12:09:34Z</time>
      </trkpt>
      <trkpt lat="44.32449" lon="4.05063">
        <ele>382</ele>
        <time>2013-04-03T12:09:36Z</time>
      </trkpt>
      <trkpt lat="44.32449" lon="4.05063">
        <ele>382</ele>
        <time>2013-04-03T12:09:38Z</time>
      </trkpt>
      <trkpt lat="44.32449" lon="4.05063">
        <ele>382</ele>
        <time>2013-04-03T12:09:40Z</time>
      </trkpt>
      <trkpt lat="44.32449" lon="4.05063">
        <ele>382</ele>
        <time>2013-04-03T12:09:42Z</time>
      </trkpt>
      <trkpt lat="44.32449" lon="4.05063">
        <ele>382</ele>
        <time>2013-04-03T12:09:44Z</time>
      </trkpt>
      <trkpt lat="44.32449" lon="4.05063">
        <ele>382</ele>
        <time>2013-04-03T12:09:46Z</time>
      </trkpt>
      <trkpt lat="44.32449" lon="4.05063">
        <ele>382</ele>
        <time>2013-04-03T12:09:48Z</time>
      </trkpt>
      <trkpt lat="44.32449" lon="4.05063">
        <ele>382</ele>
        <time>2013-04-03T12:09:49Z</time>
      </trkpt>
      <trkpt lat="44.32449" lon="4.05063">
        <ele>382</ele>
        <time>2013-04-03T12:09:52Z</time>
      </trkpt>
      <trkpt lat="44.32449" lon="4.05063">
        <ele>382</ele>
        <time>2013-04-03T12:09:54Z</time>
      </trkpt>
      <trkpt lat="44.32449" lon="4.05063">
        <ele>382</ele>
        <time>2013-04-03T12:09:56Z</time>
      </trkpt>
      <trkpt lat="44.32449" lon="4.05063">
        <ele>382</ele>
        <time>2013-04-03T12:09:58Z</time>
      </trkpt>
      <trkpt lat="44.32449" lon="4.05063">
        <ele>382</ele>
        <time>2013-04-03T12:09:59Z</time>
      </trkpt>
      <trkpt lat="44.32449" lon="4.05063">
        <ele>382</ele>
        <time>2013-04-03T12:10:00Z</time>
      </trkpt>
      <trkpt lat="44.32449" lon="4.05063">
        <ele>382</ele>
        <time>2013-04-03T12:10:02Z</time>
      </trkpt>
      <trkpt lat="44.32449" lon="4.05063">
        <ele>382</ele>
        <time>2013-04-03T12:10:04Z</time>
      </trkpt>
      <trkpt lat="44.32449" lon="4.05063">
        <ele>382</ele>
        <time>2013-04-03T12:10:06Z</time>
      </trkpt>
      <trkpt lat="44.32449" lon="4.05063">
        <ele>382</ele>
        <time>2013-04-03T12:10:08Z</time>
      </trkpt>
      <trkpt lat="44.32449" lon="4.05063">
        <ele>382</ele>
        <time>2013-04-03T12:10:10Z</time>
      </trkpt>
      <trkpt lat="44.32449" lon="4.05063">
        <ele>382</ele>
        <time>2013-04-03T12:10:12Z</time>
      </trkpt>
      <trkpt lat="44.32449" lon="4.05063">
        <ele>382</ele>
        <time>2013-04-03T12:10:14Z</time>
      </trkpt>
      <trkpt lat="44.32449" lon="4.05063">
        <ele>382</ele>
        <time>2013-04-03T12:10:15Z</time>
      </trkpt>
      <trkpt lat="44.32449" lon="4.05063">
        <ele>382</ele>
        <time>2013-04-03T12:10:16Z</time>
      </trkpt>
      <trkpt lat="44.32449" lon="4.05063">
        <ele>382</ele>
        <time>2013-04-03T12:10:18Z</time>
      </trkpt>
      <trkpt lat="44.32449" lon="4.05063">
        <ele>382</ele>
        <time>2013-04-03T12:10:20Z</time>
      </trkpt>
      <trkpt lat="44.32449" lon="4.05063">
        <ele>382</ele>
        <time>2013-04-03T12:10:22Z</time>
      </trkpt>
      <trkpt lat="44.32449" lon="4.05063">
        <ele>382</ele>
        <time>2013-04-03T12:10:24Z</time>
      </trkpt>
      <trkpt lat="44.32449" lon="4.05063">
        <ele>382</ele>
        <time>2013-04-03T12:10:26Z</time>
      </trkpt>
      <trkpt lat="44.32449" lon="4.05063">
        <ele>382</ele>
        <time>2013-04-03T12:10:28Z</time>
      </trkpt>
      <trkpt lat="44.32449" lon="4.05063">
        <ele>382</ele>
        <time>2013-04-03T12:10:30Z</time>
      </trkpt>
      <trkpt lat="44.32449" lon="4.05063">
        <ele>382</ele>
        <time>2013-04-03T12:10:32Z</time>
      </trkpt>
      <trkpt lat="44.32449" lon="4.05063">
        <ele>382</ele>
        <time>2013-04-03T12:10:34Z</time>
      </trkpt>
      <trkpt lat="44.32449" lon="4.05063">
        <ele>382</ele>
        <time>2013-04-03T12:10:36Z</time>
      </trkpt>
      <trkpt lat="44.32449" lon="4.05063">
        <ele>382</ele>
        <time>2013-04-03T12:10:38Z</time>
      </trkpt>
      <trkpt lat="44.32449" lon="4.05063">
        <ele>382</ele>
        <time>2013-04-03T12:10:40Z</time>
      </trkpt>
      <trkpt lat="44.32449" lon="4.05063">
        <ele>382</ele>
        <time>2013-04-03T12:10:42Z</time>
      </trkpt>
      <trkpt lat="44.32449" lon="4.05063">
        <ele>382</ele>
        <time>2013-04-03T12:10:44Z</time>
      </trkpt>
      <trkpt lat="44.32449" lon="4.05063">
        <ele>382</ele>
        <time>2013-04-03T12:10:46Z</time>
      </trkpt>
      <trkpt lat="44.32449" lon="4.05063">
        <ele>382</ele>
        <time>2013-04-03T12:10:48Z</time>
      </trkpt>
      <trkpt lat="44.32449" lon="4.05063">
        <ele>382</ele>
        <time>2013-04-03T12:10:50Z</time>
      </trkpt>
      <trkpt lat="44.32449" lon="4.05063">
        <ele>382</ele>
        <time>2013-04-03T12:10:51Z</time>
      </trkpt>
      <trkpt lat="44.32449" lon="4.05063">
        <ele>382</ele>
        <time>2013-04-03T12:10:54Z</time>
      </trkpt>
      <trkpt lat="44.32449" lon="4.05063">
        <ele>382</ele>
        <time>2013-04-03T12:10:56Z</time>
      </trkpt>
      <trkpt lat="44.32449" lon="4.05063">
        <ele>382</ele>
        <time>2013-04-03T12:10:58Z</time>
      </trkpt>
      <trkpt lat="44.32449" lon="4.05063">
        <ele>382</ele>
        <time>2013-04-03T12:10:59Z</time>
      </trkpt>
      <trkpt lat="44.32449" lon="4.05063">
        <ele>382</ele>
        <time>2013-04-03T12:11:00Z</time>
      </trkpt>
      <trkpt lat="44.32449" lon="4.05063">
        <ele>381</ele>
        <time>2013-04-03T12:11:02Z</time>
      </trkpt>
      <trkpt lat="44.32449" lon="4.05063">
        <ele>381</ele>
        <time>2013-04-03T12:11:04Z</time>
      </trkpt>
      <trkpt lat="44.32449" lon="4.05063">
        <ele>381</ele>
        <time>2013-04-03T12:11:06Z</time>
      </trkpt>
      <trkpt lat="44.32449" lon="4.05063">
        <ele>381</ele>
        <time>2013-04-03T12:11:08Z</time>
      </trkpt>
      <trkpt lat="44.32449" lon="4.05063">
        <ele>381</ele>
        <time>2013-04-03T12:11:10Z</time>
      </trkpt>
      <trkpt lat="44.32449" lon="4.05063">
        <ele>381</ele>
        <time>2013-04-03T12:11:12Z</time>
      </trkpt>
      <trkpt lat="44.32449" lon="4.05063">
        <ele>381</ele>
        <time>2013-04-03T12:11:14Z</time>
      </trkpt>
      <trkpt lat="44.32449" lon="4.05063">
        <ele>381</ele>
        <time>2013-04-03T12:11:15Z</time>
      </trkpt>
      <trkpt lat="44.32449" lon="4.05063">
        <ele>381</ele>
        <time>2013-04-03T12:11:16Z</time>
      </trkpt>
      <trkpt lat="44.32449" lon="4.05062">
        <ele>381</ele>
        <time>2013-04-03T12:11:18Z</time>
      </trkpt>
      <trkpt lat="44.32449" lon="4.05062">
        <ele>381</ele>
        <time>2013-04-03T12:11:20Z</time>
      </trkpt>
      <trkpt lat="44.32449" lon="4.05062">
        <ele>381</ele>
        <time>2013-04-03T12:11:22Z</time>
      </trkpt>
      <trkpt lat="44.32449" lon="4.05062">
        <ele>381</ele>
        <time>2013-04-03T12:11:24Z</time>
      </trkpt>
      <trkpt lat="44.32449" lon="4.05062">
        <ele>381</ele>
        <time>2013-04-03T12:11:26Z</time>
      </trkpt>
      <trkpt lat="44.32449" lon="4.05062">
        <ele>381</ele>
        <time>2013-04-03T12:11:28Z</time>
      </trkpt>
      <trkpt lat="44.32449" lon="4.05062">
        <ele>381</ele>
        <time>2013-04-03T12:11:30Z</time>
      </trkpt>
      <trkpt lat="44.32449" lon="4.05062">
        <ele>381</ele>
        <time>2013-04-03T12:11:32Z</time>
      </trkpt>
      <trkpt lat="44.32449" lon="4.05062">
        <ele>381</ele>
        <time>2013-04-03T12:11:34Z</time>
      </trkpt>
      <trkpt lat="44.32449" lon="4.05062">
        <ele>381</ele>
        <time>2013-04-03T12:11:36Z</time>
      </trkpt>
      <trkpt lat="44.32449" lon="4.05062">
        <ele>381</ele>
        <time>2013-04-03T12:11:38Z</time>
      </trkpt>
      <trkpt lat="44.32449" lon="4.05062">
        <ele>381</ele>
        <time>2013-04-03T12:11:40Z</time>
      </trkpt>
      <trkpt lat="44.32449" lon="4.05062">
        <ele>381</ele>
        <time>2013-04-03T12:11:42Z</time>
      </trkpt>
      <trkpt lat="44.32449" lon="4.05062">
        <ele>381</ele>
        <time>2013-04-03T12:11:44Z</time>
      </trkpt>
      <trkpt lat="44.32449" lon="4.05062">
        <ele>381</ele>
        <time>2013-04-03T12:11:46Z</time>
      </trkpt>
      <trkpt lat="44.32449" lon="4.05062">
        <ele>381</ele>
        <time>2013-04-03T12:11:48Z</time>
      </trkpt>
      <trkpt lat="44.32449" lon="4.05062">
        <ele>381</ele>
        <time>2013-04-03T12:11:50Z</time>
      </trkpt>
      <trkpt lat="44.32449" lon="4.05062">
        <ele>381</ele>
        <time>2013-04-03T12:11:52Z</time>
      </trkpt>
      <trkpt lat="44.32449" lon="4.05062">
        <ele>381</ele>
        <time>2013-04-03T12:11:53Z</time>
      </trkpt>
      <trkpt lat="44.32449" lon="4.05062">
        <ele>381</ele>
        <time>2013-04-03T12:11:56Z</time>
      </trkpt>
      <trkpt lat="44.32449" lon="4.05062">
        <ele>381</ele>
        <time>2013-04-03T12:11:58Z</time>
      </trkpt>
      <trkpt lat="44.32449" lon="4.05062">
        <ele>381</ele>
        <time>2013-04-03T12:11:59Z</time>
      </trkpt>
      <trkpt lat="44.32449" lon="4.05062">
        <ele>381</ele>
        <time>2013-04-03T12:12:00Z</time>
      </trkpt>
      <trkpt lat="44.32449" lon="4.05062">
        <ele>381</ele>
        <time>2013-04-03T12:12:02Z</time>
      </trkpt>
      <trkpt lat="44.32449" lon="4.05062">
        <ele>381</ele>
        <time>2013-04-03T12:12:04Z</time>
      </trkpt>
      <trkpt lat="44.32449" lon="4.05062">
        <ele>381</ele>
        <time>2013-04-03T12:12:06Z</time>
      </trkpt>
      <trkpt lat="44.32449" lon="4.05062">
        <ele>382</ele>
        <time>2013-04-03T12:12:08Z</time>
      </trkpt>
      <trkpt lat="44.32449" lon="4.05062">
        <ele>382</ele>
        <time>2013-04-03T12:12:10Z</time>
      </trkpt>
      <trkpt lat="44.32449" lon="4.05062">
        <ele>382</ele>
        <time>2013-04-03T12:12:12Z</time>
      </trkpt>
      <trkpt lat="44.32449" lon="4.05062">
        <ele>382</ele>
        <time>2013-04-03T12:12:14Z</time>
      </trkpt>
      <trkpt lat="44.32449" lon="4.05062">
        <ele>382</ele>
        <time>2013-04-03T12:12:15Z</time>
      </trkpt>
      <trkpt lat="44.32449" lon="4.05062">
        <ele>382</ele>
        <time>2013-04-03T12:12:16Z</time>
      </trkpt>
      <trkpt lat="44.32449" lon="4.05062">
        <ele>382</ele>
        <time>2013-04-03T12:12:18Z</time>
      </trkpt>
      <trkpt lat="44.32449" lon="4.05062">
        <ele>382</ele>
        <time>2013-04-03T12:12:20Z</time>
      </trkpt>
      <trkpt lat="44.32449" lon="4.05062">
        <ele>382</ele>
        <time>2013-04-03T12:12:22Z</time>
      </trkpt>
      <trkpt lat="44.32449" lon="4.05062">
        <ele>382</ele>
        <time>2013-04-03T12:12:24Z</time>
      </trkpt>
      <trkpt lat="44.32449" lon="4.05062">
        <ele>382</ele>
        <time>2013-04-03T12:12:26Z</time>
      </trkpt>
      <trkpt lat="44.32449" lon="4.05062">
        <ele>382</ele>
        <time>2013-04-03T12:12:28Z</time>
      </trkpt>
      <trkpt lat="44.32449" lon="4.05062">
        <ele>382</ele>
        <time>2013-04-03T12:12:30Z</time>
      </trkpt>
      <trkpt lat="44.32449" lon="4.05062">
        <ele>382</ele>
        <time>2013-04-03T12:12:32Z</time>
      </trkpt>
      <trkpt lat="44.32449" lon="4.05062">
        <ele>382</ele>
        <time>2013-04-03T12:12:34Z</time>
      </trkpt>
      <trkpt lat="44.32449" lon="4.05062">
        <ele>382</ele>
        <time>2013-04-03T12:12:36Z</time>
      </trkpt>
      <trkpt lat="44.32449" lon="4.05062">
        <ele>382</ele>
        <time>2013-04-03T12:12:38Z</time>
      </trkpt>
      <trkpt lat="44.32449" lon="4.05062">
        <ele>382</ele>
        <time>2013-04-03T12:12:40Z</time>
      </trkpt>
      <trkpt lat="44.32449" lon="4.05062">
        <ele>382</ele>
        <time>2013-04-03T12:12:42Z</time>
      </trkpt>
      <trkpt lat="44.32449" lon="4.05062">
        <ele>382</ele>
        <time>2013-04-03T12:12:44Z</time>
      </trkpt>
      <trkpt lat="44.32449" lon="4.05062">
        <ele>382</ele>
        <time>2013-04-03T12:12:46Z</time>
      </trkpt>
      <trkpt lat="44.32449" lon="4.05062">
        <ele>382</ele>
        <time>2013-04-03T12:12:48Z</time>
      </trkpt>
      <trkpt lat="44.32449" lon="4.05062">
        <ele>382</ele>
        <time>2013-04-03T12:12:50Z</time>
      </trkpt>
      <trkpt lat="44.32449" lon="4.05062">
        <ele>382</ele>
        <time>2013-04-03T12:12:52Z</time>
      </trkpt>
      <trkpt lat="44.32449" lon="4.05062">
        <ele>382</ele>
        <time>2013-04-03T12:12:54Z</time>
      </trkpt>
      <trkpt lat="44.32449" lon="4.05062">
        <ele>382</ele>
        <time>2013-04-03T12:12:55Z</time>
      </trkpt>
      <trkpt lat="44.32449" lon="4.05062">
        <ele>382</ele>
        <time>2013-04-03T12:12:58Z</time>
      </trkpt>
      <trkpt lat="44.32449" lon="4.05062">
        <ele>382</ele>
        <time>2013-04-03T12:12:59Z</time>
      </trkpt>
      <trkpt lat="44.32449" lon="4.05062">
        <ele>382</ele>
        <time>2013-04-03T12:13:00Z</time>
      </trkpt>
      <trkpt lat="44.32449" lon="4.05062">
        <ele>382</ele>
        <time>2013-04-03T12:13:02Z</time>
      </trkpt>
      <trkpt lat="44.32449" lon="4.05062">
        <ele>382</ele>
        <time>2013-04-03T12:13:04Z</time>
      </trkpt>
      <trkpt lat="44.32449" lon="4.05062">
        <ele>382</ele>
        <time>2013-04-03T12:13:06Z</time>
      </trkpt>
      <trkpt lat="44.32449" lon="4.05062">
        <ele>382</ele>
        <time>2013-04-03T12:13:08Z</time>
      </trkpt>
      <trkpt lat="44.32449" lon="4.05062">
        <ele>382</ele>
        <time>2013-04-03T12:13:10Z</time>
      </trkpt>
      <trkpt lat="44.32449" lon="4.05062">
        <ele>382</ele>
        <time>2013-04-03T12:13:12Z</time>
      </trkpt>
      <trkpt lat="44.32449" lon="4.05062">
        <ele>382</ele>
        <time>2013-04-03T12:13:14Z</time>
      </trkpt>
      <trkpt lat="44.32449" lon="4.05062">
        <ele>382</ele>
        <time>2013-04-03T12:13:15Z</time>
      </trkpt>
      <trkpt lat="44.32449" lon="4.05062">
        <ele>382</ele>
        <time>2013-04-03T12:13:16Z</time>
      </trkpt>
      <trkpt lat="44.32449" lon="4.05062">
        <ele>382</ele>
        <time>2013-04-03T12:13:18Z</time>
      </trkpt>
      <trkpt lat="44.32449" lon="4.05062">
        <ele>382</ele>
        <time>2013-04-03T12:13:20Z</time>
      </trkpt>
      <trkpt lat="44.32449" lon="4.05062">
        <ele>382</ele>
        <time>2013-04-03T12:13:22Z</time>
      </trkpt>
      <trkpt lat="44.32449" lon="4.05062">
        <ele>382</ele>
        <time>2013-04-03T12:13:24Z</time>
      </trkpt>
      <trkpt lat="44.32449" lon="4.05062">
        <ele>382</ele>
        <time>2013-04-03T12:13:26Z</time>
      </trkpt>
      <trkpt lat="44.32449" lon="4.05062">
        <ele>382</ele>
        <time>2013-04-03T12:13:28Z</time>
      </trkpt>
      <trkpt lat="44.32449" lon="4.05062">
        <ele>382</ele>
        <time>2013-04-03T12:13:30Z</time>
      </trkpt>
      <trkpt lat="44.32449" lon="4.05062">
        <ele>382</ele>
        <time>2013-04-03T12:13:32Z</time>
      </trkpt>
      <trkpt lat="44.32449" lon="4.05062">
        <ele>382</ele>
        <time>2013-04-03T12:13:34Z</time>
      </trkpt>
      <trkpt lat="44.32449" lon="4.05062">
        <ele>382</ele>
        <time>2013-04-03T12:13:36Z</time>
      </trkpt>
      <trkpt lat="44.32449" lon="4.05062">
        <ele>382</ele>
        <time>2013-04-03T12:13:38Z</time>
      </trkpt>
      <trkpt lat="44.32449" lon="4.05062">
        <ele>382</ele>
        <time>2013-04-03T12:13:40Z</time>
      </trkpt>
      <trkpt lat="44.32449" lon="4.05062">
        <ele>382</ele>
        <time>2013-04-03T12:13:42Z</time>
      </trkpt>
      <trkpt lat="44.32449" lon="4.05062">
        <ele>382</ele>
        <time>2013-04-03T12:13:44Z</time>
      </trkpt>
      <trkpt lat="44.32449" lon="4.05062">
        <ele>382</ele>
        <time>2013-04-03T12:13:46Z</time>
      </trkpt>
      <trkpt lat="44.32449" lon="4.05062">
        <ele>382</ele>
        <time>2013-04-03T12:13:48Z</time>
      </trkpt>
      <trkpt lat="44.32449" lon="4.05062">
        <ele>382</ele>
        <time>2013-04-03T12:13:50Z</time>
      </trkpt>
      <trkpt lat="44.32449" lon="4.05062">
        <ele>382</ele>
        <time>2013-04-03T12:13:52Z</time>
      </trkpt>
      <trkpt lat="44.32449" lon="4.05062">
        <ele>382</ele>
        <time>2013-04-03T12:13:54Z</time>
      </trkpt>
      <trkpt lat="44.32449" lon="4.05062">
        <ele>382</ele>
        <time>2013-04-03T12:13:56Z</time>
      </trkpt>
      <trkpt lat="44.32449" lon="4.05062">
        <ele>382</ele>
        <time>2013-04-03T12:13:57Z</time>
      </trkpt>
      <trkpt lat="44.32449" lon="4.05062">
        <ele>382</ele>
        <time>2013-04-03T12:13:59Z</time>
      </trkpt>
      <trkpt lat="44.32449" lon="4.05062">
        <ele>382</ele>
        <time>2013-04-03T12:14:00Z</time>
      </trkpt>
      <trkpt lat="44.32449" lon="4.05062">
        <ele>382</ele>
        <time>2013-04-03T12:14:02Z</time>
      </trkpt>
      <trkpt lat="44.32449" lon="4.05062">
        <ele>382</ele>
        <time>2013-04-03T12:14:04Z</time>
      </trkpt>
      <trkpt lat="44.32449" lon="4.05062">
        <ele>382</ele>
        <time>2013-04-03T12:14:06Z</time>
      </trkpt>
      <trkpt lat="44.32449" lon="4.05062">
        <ele>382</ele>
        <time>2013-04-03T12:14:08Z</time>
      </trkpt>
      <trkpt lat="44.32449" lon="4.05062">
        <ele>382</ele>
        <time>2013-04-03T12:14:10Z</time>
      </trkpt>
      <trkpt lat="44.32449" lon="4.05062">
        <ele>382</ele>
        <time>2013-04-03T12:14:12Z</time>
      </trkpt>
      <trkpt lat="44.32449" lon="4.05062">
        <ele>382</ele>
        <time>2013-04-03T12:14:14Z</time>
      </trkpt>
      <trkpt lat="44.32449" lon="4.05062">
        <ele>382</ele>
        <time>2013-04-03T12:14:15Z</time>
      </trkpt>
      <trkpt lat="44.32449" lon="4.05062">
        <ele>382</ele>
        <time>2013-04-03T12:14:16Z</time>
      </trkpt>
      <trkpt lat="44.32449" lon="4.05062">
        <ele>382</ele>
        <time>2013-04-03T12:14:18Z</time>
      </trkpt>
      <trkpt lat="44.32449" lon="4.05062">
        <ele>382</ele>
        <time>2013-04-03T12:14:20Z</time>
      </trkpt>
      <trkpt lat="44.32449" lon="4.05062">
        <ele>382</ele>
        <time>2013-04-03T12:14:22Z</time>
      </trkpt>
      <trkpt lat="44.32449" lon="4.05062">
        <ele>382</ele>
        <time>2013-04-03T12:14:24Z</time>
      </trkpt>
      <trkpt lat="44.32449" lon="4.05062">
        <ele>382</ele>
        <time>2013-04-03T12:14:26Z</time>
      </trkpt>
      <trkpt lat="44.32449" lon="4.05062">
        <ele>382</ele>
        <time>2013-04-03T12:14:28Z</time>
      </trkpt>
      <trkpt lat="44.32449" lon="4.05062">
        <ele>382</ele>
        <time>2013-04-03T12:14:30Z</time>
      </trkpt>
      <trkpt lat="44.32449" lon="4.05062">
        <ele>382</ele>
        <time>2013-04-03T12:14:32Z</time>
      </trkpt>
      <trkpt lat="44.32449" lon="4.05062">
        <ele>382</ele>
        <time>2013-04-03T12:14:34Z</time>
      </trkpt>
      <trkpt lat="44.32449" lon="4.05062">
        <ele>382</ele>
        <time>2013-04-03T12:14:36Z</time>
      </trkpt>
      <trkpt lat="44.32449" lon="4.05062">
        <ele>382</ele>
        <time>2013-04-03T12:14:38Z</time>
      </trkpt>
      <trkpt lat="44.32449" lon="4.05062">
        <ele>382</ele>
        <time>2013-04-03T12:14:40Z</time>
      </trkpt>
      <trkpt lat="44.32449" lon="4.05062">
        <ele>382</ele>
        <time>2013-04-03T12:14:42Z</time>
      </trkpt>
      <trkpt lat="44.32449" lon="4.05062">
        <ele>382</ele>
        <time>2013-04-03T12:14:44Z</time>
      </trkpt>
      <trkpt lat="44.32449" lon="4.05062">
        <ele>382</ele>
        <time>2013-04-03T12:14:46Z</time>
      </trkpt>
      <trkpt lat="44.32449" lon="4.05062">
        <ele>382</ele>
        <time>2013-04-03T12:14:48Z</time>
      </trkpt>
      <trkpt lat="44.32449" lon="4.05062">
        <ele>382</ele>
        <time>2013-04-03T12:14:50Z</time>
      </trkpt>
      <trkpt lat="44.32449" lon="4.05062">
        <ele>382</ele>
        <time>2013-04-03T12:14:52Z</time>
      </trkpt>
      <trkpt lat="44.32449" lon="4.05062">
        <ele>382</ele>
        <time>2013-04-03T12:14:54Z</time>
      </trkpt>
      <trkpt lat="44.32449" lon="4.05062">
        <ele>382</ele>
        <time>2013-04-03T12:14:56Z</time>
      </trkpt>
      <trkpt lat="44.32449" lon="4.05062">
        <ele>382</ele>
        <time>2013-04-03T12:14:58Z</time>
      </trkpt>
      <trkpt lat="44.32449" lon="4.05062">
        <ele>382</ele>
        <time>2013-04-03T12:14:59Z</time>
      </trkpt>
      <trkpt lat="44.32449" lon="4.05062">
        <ele>382</ele>
        <time>2013-04-03T12:15:00Z</time>
      </trkpt>
      <trkpt lat="44.32449" lon="4.05062">
        <ele>382</ele>
        <time>2013-04-03T12:15:02Z</time>
      </trkpt>
      <trkpt lat="44.32449" lon="4.05062">
        <ele>382</ele>
        <time>2013-04-03T12:15:04Z</time>
      </trkpt>
      <trkpt lat="44.32449" lon="4.05062">
        <ele>382</ele>
        <time>2013-04-03T12:15:06Z</time>
      </trkpt>
      <trkpt lat="44.32449" lon="4.05062">
        <ele>382</ele>
        <time>2013-04-03T12:15:08Z</time>
      </trkpt>
      <trkpt lat="44.32449" lon="4.05062">
        <ele>382</ele>
        <time>2013-04-03T12:15:10Z</time>
      </trkpt>
      <trkpt lat="44.32449" lon="4.05062">
        <ele>382</ele>
        <time>2013-04-03T12:15:12Z</time>
      </trkpt>
      <trkpt lat="44.32449" lon="4.05062">
        <ele>382</ele>
        <time>2013-04-03T12:15:14Z</time>
      </trkpt>
      <trkpt lat="44.32449" lon="4.05062">
        <ele>382</ele>
        <time>2013-04-03T12:15:15Z</time>
      </trkpt>
      <trkpt lat="44.32449" lon="4.05062">
        <ele>382</ele>
        <time>2013-04-03T12:15:16Z</time>
      </trkpt>
      <trkpt lat="44.32449" lon="4.05062">
        <ele>382</ele>
        <time>2013-04-03T12:15:18Z</time>
      </trkpt>
      <trkpt lat="44.32449" lon="4.05062">
        <ele>382</ele>
        <time>2013-04-03T12:15:20Z</time>
      </trkpt>
      <trkpt lat="44.32449" lon="4.05062">
        <ele>382</ele>
        <time>2013-04-03T12:15:22Z</time>
      </trkpt>
      <trkpt lat="44.32449" lon="4.05062">
        <ele>382</ele>
        <time>2013-04-03T12:15:24Z</time>
      </trkpt>
      <trkpt lat="44.32449" lon="4.05062">
        <ele>382</ele>
        <time>2013-04-03T12:15:26Z</time>
      </trkpt>
      <trkpt lat="44.32449" lon="4.05062">
        <ele>382</ele>
        <time>2013-04-03T12:15:28Z</time>
      </trkpt>
      <trkpt lat="44.32449" lon="4.05062">
        <ele>382</ele>
        <time>2013-04-03T12:15:30Z</time>
      </trkpt>
      <trkpt lat="44.32449" lon="4.05062">
        <ele>382</ele>
        <time>2013-04-03T12:15:32Z</time>
      </trkpt>
      <trkpt lat="44.32449" lon="4.05062">
        <ele>382</ele>
        <time>2013-04-03T12:15:34Z</time>
      </trkpt>
      <trkpt lat="44.32449" lon="4.05062">
        <ele>382</ele>
        <time>2013-04-03T12:15:36Z</time>
      </trkpt>
      <trkpt lat="44.32449" lon="4.05062">
        <ele>382</ele>
        <time>2013-04-03T12:15:38Z</time>
      </trkpt>
      <trkpt lat="44.32449" lon="4.05062">
        <ele>382</ele>
        <time>2013-04-03T12:15:40Z</time>
      </trkpt>
      <trkpt lat="44.32449" lon="4.05062">
        <ele>382</ele>
        <time>2013-04-03T12:15:42Z</time>
      </trkpt>
      <trkpt lat="44.32449" lon="4.05062">
        <ele>382</ele>
        <time>2013-04-03T12:15:44Z</time>
      </trkpt>
      <trkpt lat="44.32449" lon="4.05062">
        <ele>382</ele>
        <time>2013-04-03T12:15:46Z</time>
      </trkpt>
      <trkpt lat="44.32449" lon="4.05062">
        <ele>382</ele>
        <time>2013-04-03T12:15:48Z</time>
      </trkpt>
      <trkpt lat="44.32449" lon="4.05062">
        <ele>382</ele>
        <time>2013-04-03T12:15:50Z</time>
      </trkpt>
      <trkpt lat="44.32449" lon="4.05062">
        <ele>382</ele>
        <time>2013-04-03T12:15:52Z</time>
      </trkpt>
      <trkpt lat="44.32449" lon="4.05062">
        <ele>382</ele>
        <time>2013-04-03T12:15:54Z</time>
      </trkpt>
      <trkpt lat="44.32449" lon="4.05062">
        <ele>382</ele>
        <time>2013-04-03T12:15:56Z</time>
      </trkpt>
      <trkpt lat="44.32449" lon="4.05062">
        <ele>382</ele>
        <time>2013-04-03T12:15:58Z</time>
      </trkpt>
      <trkpt lat="44.32449" lon="4.05062">
        <ele>382</ele>
        <time>2013-04-03T12:15:59Z</time>
      </trkpt>
      <trkpt lat="44.32449" lon="4.05062">
        <ele>382</ele>
        <time>2013-04-03T12:16:00Z</time>
      </trkpt>
      <trkpt lat="44.32449" lon="4.05062">
        <ele>382</ele>
        <time>2013-04-03T12:16:02Z</time>
      </trkpt>
      <trkpt lat="44.32449" lon="4.05062">
        <ele>382</ele>
        <time>2013-04-03T12:16:04Z</time>
      </trkpt>
      <trkpt lat="44.32449" lon="4.05062">
        <ele>382</ele>
        <time>2013-04-03T12:16:06Z</time>
      </trkpt>
      <trkpt lat="44.32449" lon="4.05062">
        <ele>382</ele>
        <time>2013-04-03T12:16:08Z</time>
      </trkpt>
      <trkpt lat="44.32449" lon="4.05062">
        <ele>382</ele>
        <time>2013-04-03T12:16:10Z</time>
      </trkpt>
      <trkpt lat="44.32449" lon="4.05062">
        <ele>382</ele>
        <time>2013-04-03T12:16:12Z</time>
      </trkpt>
      <trkpt lat="44.32449" lon="4.05062">
        <ele>382</ele>
        <time>2013-04-03T12:16:14Z</time>
      </trkpt>
      <trkpt lat="44.32449" lon="4.05062">
        <ele>382</ele>
        <time>2013-04-03T12:16:15Z</time>
      </trkpt>
      <trkpt lat="44.32449" lon="4.05062">
        <ele>382</ele>
        <time>2013-04-03T12:16:16Z</time>
      </trkpt>
      <trkpt lat="44.32449" lon="4.05062">
        <ele>382</ele>
        <time>2013-04-03T12:16:18Z</time>
      </trkpt>
      <trkpt lat="44.32449" lon="4.05062">
        <ele>382</ele>
        <time>2013-04-03T12:16:20Z</time>
      </trkpt>
      <trkpt lat="44.32449" lon="4.05062">
        <ele>382</ele>
        <time>2013-04-03T12:16:22Z</time>
      </trkpt>
      <trkpt lat="44.32449" lon="4.05062">
        <ele>382</ele>
        <time>2013-04-03T12:16:24Z</time>
      </trkpt>
      <trkpt lat="44.32449" lon="4.05062">
        <ele>382</ele>
        <time>2013-04-03T12:16:26Z</time>
      </trkpt>
      <trkpt lat="44.32449" lon="4.05062">
        <ele>382</ele>
        <time>2013-04-03T12:16:28Z</time>
      </trkpt>
      <trkpt lat="44.32449" lon="4.05062">
        <ele>382</ele>
        <time>2013-04-03T12:16:30Z</time>
      </trkpt>
      <trkpt lat="44.32449" lon="4.05062">
        <ele>382</ele>
        <time>2013-04-03T12:16:32Z</time>
      </trkpt>
      <trkpt lat="44.32449" lon="4.05062">
        <ele>382</ele>
        <time>2013-04-03T12:16:34Z</time>
      </trkpt>
      <trkpt lat="44.32449" lon="4.05062">
        <ele>382</ele>
        <time>2013-04-03T12:16:36Z</time>
      </trkpt>
      <trkpt lat="44.32449" lon="4.05062">
        <ele>382</ele>
        <time>2013-04-03T12:16:38Z</time>
      </trkpt>
      <trkpt lat="44.32449" lon="4.05062">
        <ele>382</ele>
        <time>2013-04-03T12:16:40Z</time>
      </trkpt>
      <trkpt lat="44.32449" lon="4.05062">
        <ele>382</ele>
        <time>2013-04-03T12:16:42Z</time>
      </trkpt>
      <trkpt lat="44.32449" lon="4.05062">
        <ele>382</ele>
        <time>2013-04-03T12:16:44Z</time>
      </trkpt>
      <trkpt lat="44.32449" lon="4.05062">
        <ele>382</ele>
        <time>2013-04-03T12:16:46Z</time>
      </trkpt>
      <trkpt lat="44.32449" lon="4.05062">
        <ele>382</ele>
        <time>2013-04-03T12:16:48Z</time>
      </trkpt>
      <trkpt lat="44.32449" lon="4.05062">
        <ele>382</ele>
        <time>2013-04-03T12:16:50Z</time>
      </trkpt>
      <trkpt lat="44.32449" lon="4.05062">
        <ele>382</ele>
        <time>2013-04-03T12:16:52Z</time>
      </trkpt>
      <trkpt lat="44.32449" lon="4.05062">
        <ele>382</ele>
        <time>2013-04-03T12:16:54Z</time>
      </trkpt>
      <trkpt lat="44.32449" lon="4.05062">
        <ele>382</ele>
        <time>2013-04-03T12:16:56Z</time>
      </trkpt>
      <trkpt lat="44.32449" lon="4.05062">
        <ele>382</ele>
        <time>2013-04-03T12:16:58Z</time>
      </trkpt>
      <trkpt lat="44.32449" lon="4.05062">
        <ele>382</ele>
        <time>2013-04-03T12:16:59Z</time>
      </trkpt>
      <trkpt lat="44.32449" lon="4.05062">
        <ele>382</ele>
        <time>2013-04-03T12:17:00Z</time>
      </trkpt>
      <trkpt lat="44.32449" lon="4.05062">
        <ele>382</ele>
        <time>2013-04-03T12:17:01Z</time>
      </trkpt>
      <trkpt lat="44.32449" lon="4.05062">
        <ele>382</ele>
        <time>2013-04-03T12:17:04Z</time>
      </trkpt>
      <trkpt lat="44.32449" lon="4.05062">
        <ele>382</ele>
        <time>2013-04-03T12:17:06Z</time>
      </trkpt>
      <trkpt lat="44.32449" lon="4.05062">
        <ele>382</ele>
        <time>2013-04-03T12:17:08Z</time>
      </trkpt>
      <trkpt lat="44.32449" lon="4.05062">
        <ele>382</ele>
        <time>2013-04-03T12:17:10Z</time>
      </trkpt>
      <trkpt lat="44.32449" lon="4.05062">
        <ele>382</ele>
        <time>2013-04-03T12:17:12Z</time>
      </trkpt>
      <trkpt lat="44.32449" lon="4.05062">
        <ele>382</ele>
        <time>2013-04-03T12:17:14Z</time>
      </trkpt>
      <trkpt lat="44.32449" lon="4.05062">
        <ele>382</ele>
        <time>2013-04-03T12:17:15Z</time>
      </trkpt>
      <trkpt lat="44.32449" lon="4.05062">
        <ele>382</ele>
        <time>2013-04-03T12:17:16Z</time>
      </trkpt>
      <trkpt lat="44.32449" lon="4.05062">
        <ele>382</ele>
        <time>2013-04-03T12:17:18Z</time>
      </trkpt>
      <trkpt lat="44.32449" lon="4.05062">
        <ele>382</ele>
        <time>2013-04-03T12:17:20Z</time>
      </trkpt>
      <trkpt lat="44.32449" lon="4.05062">
        <ele>382</ele>
        <time>2013-04-03T12:17:22Z</time>
      </trkpt>
      <trkpt lat="44.32449" lon="4.05062">
        <ele>382</ele>
        <time>2013-04-03T12:17:24Z</time>
      </trkpt>
      <trkpt lat="44.32449" lon="4.05062">
        <ele>382</ele>
        <time>2013-04-03T12:17:26Z</time>
      </trkpt>
      <trkpt lat="44.32449" lon="4.05062">
        <ele>382</ele>
        <time>2013-04-03T12:17:28Z</time>
      </trkpt>
      <trkpt lat="44.32449" lon="4.05062">
        <ele>382</ele>
        <time>2013-04-03T12:17:30Z</time>
      </trkpt>
      <trkpt lat="44.32449" lon="4.05062">
        <ele>382</ele>
        <time>2013-04-03T12:17:32Z</time>
      </trkpt>
      <trkpt lat="44.32449" lon="4.05062">
        <ele>382</ele>
        <time>2013-04-03T12:17:34Z</time>
      </trkpt>
      <trkpt lat="44.32449" lon="4.05062">
        <ele>382</ele>
        <time>2013-04-03T12:17:36Z</time>
      </trkpt>
      <trkpt lat="44.32449" lon="4.05062">
        <ele>382</ele>
        <time>2013-04-03T12:17:38Z</time>
      </trkpt>
      <trkpt lat="44.32449" lon="4.05062">
        <ele>382</ele>
        <time>2013-04-03T12:17:40Z</time>
      </trkpt>
      <trkpt lat="44.32449" lon="4.05062">
        <ele>382</ele>
        <time>2013-04-03T12:17:42Z</time>
      </trkpt>
      <trkpt lat="44.32449" lon="4.05062">
        <ele>382</ele>
        <time>2013-04-03T12:17:44Z</time>
      </trkpt>
      <trkpt lat="44.32449" lon="4.05062">
        <ele>382</ele>
        <time>2013-04-03T12:17:46Z</time>
      </trkpt>
      <trkpt lat="44.32449" lon="4.05062">
        <ele>382</ele>
        <time>2013-04-03T12:17:48Z</time>
      </trkpt>
      <trkpt lat="44.32449" lon="4.05062">
        <ele>382</ele>
        <time>2013-04-03T12:17:50Z</time>
      </trkpt>
      <trkpt lat="44.32449" lon="4.05062">
        <ele>382</ele>
        <time>2013-04-03T12:17:52Z</time>
      </trkpt>
      <trkpt lat="44.32449" lon="4.05062">
        <ele>382</ele>
        <time>2013-04-03T12:17:54Z</time>
      </trkpt>
      <trkpt lat="44.32449" lon="4.05062">
        <ele>382</ele>
        <time>2013-04-03T12:17:56Z</time>
      </trkpt>
      <trkpt lat="44.32449" lon="4.05062">
        <ele>382</ele>
        <time>2013-04-03T12:17:58Z</time>
      </trkpt>
      <trkpt lat="44.32449" lon="4.05062">
        <ele>382</ele>
        <time>2013-04-03T12:17:59Z</time>
      </trkpt>
      <trkpt lat="44.32449" lon="4.05062">
        <ele>382</ele>
        <time>2013-04-03T12:18:00Z</time>
      </trkpt>
      <trkpt lat="44.32449" lon="4.05062">
        <ele>382</ele>
        <time>2013-04-03T12:18:02Z</time>
      </trkpt>
      <trkpt lat="44.32449" lon="4.05062">
        <ele>382</ele>
        <time>2013-04-03T12:18:03Z</time>
      </trkpt>
      <trkpt lat="44.32449" lon="4.05062">
        <ele>382</ele>
        <time>2013-04-03T12:18:06Z</time>
      </trkpt>
      <trkpt lat="44.32449" lon="4.05062">
        <ele>382</ele>
        <time>2013-04-03T12:18:08Z</time>
      </trkpt>
      <trkpt lat="44.32449" lon="4.05062">
        <ele>382</ele>
        <time>2013-04-03T12:18:10Z</time>
      </trkpt>
      <trkpt lat="44.32449" lon="4.05062">
        <ele>382</ele>
        <time>2013-04-03T12:18:12Z</time>
      </trkpt>
      <trkpt lat="44.32449" lon="4.05062">
        <ele>382</ele>
        <time>2013-04-03T12:18:14Z</time>
      </trkpt>
      <trkpt lat="44.32449" lon="4.05062">
        <ele>382</ele>
        <time>2013-04-03T12:18:15Z</time>
      </trkpt>
      <trkpt lat="44.32449" lon="4.05062">
        <ele>382</ele>
        <time>2013-04-03T12:18:16Z</time>
      </trkpt>
      <trkpt lat="44.32449" lon="4.05062">
        <ele>382</ele>
        <time>2013-04-03T12:18:18Z</time>
      </trkpt>
      <trkpt lat="44.32449" lon="4.05062">
        <ele>382</ele>
        <time>2013-04-03T12:18:20Z</time>
      </trkpt>
      <trkpt lat="44.32449" lon="4.05062">
        <ele>382</ele>
        <time>2013-04-03T12:18:22Z</time>
      </trkpt>
      <trkpt lat="44.32449" lon="4.05062">
        <ele>382</ele>
        <time>2013-04-03T12:18:24Z</time>
      </trkpt>
      <trkpt lat="44.32449" lon="4.05062">
        <ele>382</ele>
        <time>2013-04-03T12:18:26Z</time>
      </trkpt>
      <trkpt lat="44.32449" lon="4.05062">
        <ele>382</ele>
        <time>2013-04-03T12:18:28Z</time>
      </trkpt>
      <trkpt lat="44.32449" lon="4.05062">
        <ele>382</ele>
        <time>2013-04-03T12:18:30Z</time>
      </trkpt>
      <trkpt lat="44.32449" lon="4.05062">
        <ele>382</ele>
        <time>2013-04-03T12:18:32Z</time>
      </trkpt>
      <trkpt lat="44.32449" lon="4.05062">
        <ele>382</ele>
        <time>2013-04-03T12:18:34Z</time>
      </trkpt>
      <trkpt lat="44.32449" lon="4.05062">
        <ele>382</ele>
        <time>2013-04-03T12:18:36Z</time>
      </trkpt>
      <trkpt lat="44.32449" lon="4.05062">
        <ele>382</ele>
        <time>2013-04-03T12:18:38Z</time>
      </trkpt>
      <trkpt lat="44.32449" lon="4.05062">
        <ele>382</ele>
        <time>2013-04-03T12:18:40Z</time>
      </trkpt>
      <trkpt lat="44.32449" lon="4.05062">
        <ele>382</ele>
        <time>2013-04-03T12:18:42Z</time>
      </trkpt>
      <trkpt lat="44.32449" lon="4.05062">
        <ele>382</ele>
        <time>2013-04-03T12:18:44Z</time>
      </trkpt>
      <trkpt lat="44.32449" lon="4.05062">
        <ele>382</ele>
        <time>2013-04-03T12:18:46Z</time>
      </trkpt>
      <trkpt lat="44.32449" lon="4.05062">
        <ele>382</ele>
        <time>2013-04-03T12:18:48Z</time>
      </trkpt>
      <trkpt lat="44.32449" lon="4.05062">
        <ele>382</ele>
        <time>2013-04-03T12:18:50Z</time>
      </trkpt>
      <trkpt lat="44.32449" lon="4.05062">
        <ele>382</ele>
        <time>2013-04-03T12:18:52Z</time>
      </trkpt>
      <trkpt lat="44.32449" lon="4.05061">
        <ele>382</ele>
        <time>2013-04-03T12:18:54Z</time>
      </trkpt>
      <trkpt lat="44.32449" lon="4.05061">
        <ele>382</ele>
        <time>2013-04-03T12:18:56Z</time>
      </trkpt>
      <trkpt lat="44.32449" lon="4.05061">
        <ele>382</ele>
        <time>2013-04-03T12:18:58Z</time>
      </trkpt>
      <trkpt lat="44.32449" lon="4.05061">
        <ele>382</ele>
        <time>2013-04-03T12:18:59Z</time>
      </trkpt>
      <trkpt lat="44.32449" lon="4.05061">
        <ele>382</ele>
        <time>2013-04-03T12:19:00Z</time>
      </trkpt>
      <trkpt lat="44.32449" lon="4.05061">
        <ele>382</ele>
        <time>2013-04-03T12:19:02Z</time>
      </trkpt>
      <trkpt lat="44.32449" lon="4.05061">
        <ele>382</ele>
        <time>2013-04-03T12:19:04Z</time>
      </trkpt>
      <trkpt lat="44.32449" lon="4.05061">
        <ele>382</ele>
        <time>2013-04-03T12:19:05Z</time>
      </trkpt>
      <trkpt lat="44.32449" lon="4.05061">
        <ele>382</ele>
        <time>2013-04-03T12:19:08Z</time>
      </trkpt>
      <trkpt lat="44.32449" lon="4.05061">
        <ele>382</ele>
        <time>2013-04-03T12:19:10Z</time>
      </trkpt>
      <trkpt lat="44.32449" lon="4.05061">
        <ele>382</ele>
        <time>2013-04-03T12:19:12Z</time>
      </trkpt>
      <trkpt lat="44.32449" lon="4.05061">
        <ele>382</ele>
        <time>2013-04-03T12:19:14Z</time>
      </trkpt>
      <trkpt lat="44.32449" lon="4.05061">
        <ele>382</ele>
        <time>2013-04-03T12:19:15Z</time>
      </trkpt>
      <trkpt lat="44.32449" lon="4.05061">
        <ele>382</ele>
        <time>2013-04-03T12:19:16Z</time>
      </trkpt>
      <trkpt lat="44.32449" lon="4.05061">
        <ele>382</ele>
        <time>2013-04-03T12:19:18Z</time>
      </trkpt>
      <trkpt lat="44.32449" lon="4.05061">
        <ele>382</ele>
        <time>2013-04-03T12:19:20Z</time>
      </trkpt>
      <trkpt lat="44.32449" lon="4.05061">
        <ele>382</ele>
        <time>2013-04-03T12:19:22Z</time>
      </trkpt>
      <trkpt lat="44.32449" lon="4.05061">
        <ele>381</ele>
        <time>2013-04-03T12:19:24Z</time>
      </trkpt>
      <trkpt lat="44.32449" lon="4.05061">
        <ele>381</ele>
        <time>2013-04-03T12:19:26Z</time>
      </trkpt>
      <trkpt lat="44.32449" lon="4.05061">
        <ele>381</ele>
        <time>2013-04-03T12:19:28Z</time>
      </trkpt>
      <trkpt lat="44.32449" lon="4.05061">
        <ele>381</ele>
        <time>2013-04-03T12:19:30Z</time>
      </trkpt>
      <trkpt lat="44.32449" lon="4.05061">
        <ele>381</ele>
        <time>2013-04-03T12:19:32Z</time>
      </trkpt>
      <trkpt lat="44.32449" lon="4.05061">
        <ele>381</ele>
        <time>2013-04-03T12:19:34Z</time>
      </trkpt>
      <trkpt lat="44.32449" lon="4.05061">
        <ele>381</ele>
        <time>2013-04-03T12:19:36Z</time>
      </trkpt>
      <trkpt lat="44.32449" lon="4.05061">
        <ele>381</ele>
        <time>2013-04-03T12:19:38Z</time>
      </trkpt>
      <trkpt lat="44.32449" lon="4.05061">
        <ele>381</ele>
        <time>2013-04-03T12:19:40Z</time>
      </trkpt>
      <trkpt lat="44.32449" lon="4.05061">
        <ele>381</ele>
        <time>2013-04-03T12:19:42Z</time>
      </trkpt>
      <trkpt lat="44.32449" lon="4.05061">
        <ele>381</ele>
        <time>2013-04-03T12:19:44Z</time>
      </trkpt>
      <trkpt lat="44.32449" lon="4.05061">
        <ele>381</ele>
        <time>2013-04-03T12:19:46Z</time>
      </trkpt>
      <trkpt lat="44.32449" lon="4.05061">
        <ele>381</ele>
        <time>2013-04-03T12:19:48Z</time>
      </trkpt>
      <trkpt lat="44.32449" lon="4.05061">
        <ele>381</ele>
        <time>2013-04-03T12:19:50Z</time>
      </trkpt>
      <trkpt lat="44.32449" lon="4.05061">
        <ele>381</ele>
        <time>2013-04-03T12:19:52Z</time>
      </trkpt>
      <trkpt lat="44.32449" lon="4.05061">
        <ele>381</ele>
        <time>2013-04-03T12:19:54Z</time>
      </trkpt>
      <trkpt lat="44.32449" lon="4.05061">
        <ele>381</ele>
        <time>2013-04-03T12:19:56Z</time>
      </trkpt>
      <trkpt lat="44.32449" lon="4.05061">
        <ele>381</ele>
        <time>2013-04-03T12:19:58Z</time>
      </trkpt>
      <trkpt lat="44.32449" lon="4.05061">
        <ele>381</ele>
        <time>2013-04-03T12:19:59Z</time>
      </trkpt>
      <trkpt lat="44.32449" lon="4.05061">
        <ele>381</ele>
        <time>2013-04-03T12:20:00Z</time>
      </trkpt>
      <trkpt lat="44.32449" lon="4.05061">
        <ele>381</ele>
        <time>2013-04-03T12:20:02Z</time>
      </trkpt>
      <trkpt lat="44.32449" lon="4.05061">
        <ele>381</ele>
        <time>2013-04-03T12:20:04Z</time>
      </trkpt>
      <trkpt lat="44.32449" lon="4.05061">
        <ele>381</ele>
        <time>2013-04-03T12:20:06Z</time>
      </trkpt>
      <trkpt lat="44.32449" lon="4.05061">
        <ele>381</ele>
        <time>2013-04-03T12:20:07Z</time>
      </trkpt>
      <trkpt lat="44.32449" lon="4.05061">
        <ele>381</ele>
        <time>2013-04-03T12:20:10Z</time>
      </trkpt>
      <trkpt lat="44.32449" lon="4.05061">
        <ele>381</ele>
        <time>2013-04-03T12:20:12Z</time>
      </trkpt>
      <trkpt lat="44.32449" lon="4.05061">
        <ele>381</ele>
        <time>2013-04-03T12:20:14Z</time>
      </trkpt>
      <trkpt lat="44.32449" lon="4.05061">
        <ele>381</ele>
        <time>2013-04-03T12:20:15Z</time>
      </trkpt>
      <trkpt lat="44.32449" lon="4.05061">
        <ele>381</ele>
        <time>2013-04-03T12:20:16Z</time>
      </trkpt>
      <trkpt lat="44.32449" lon="4.05061">
        <ele>381</ele>
        <time>2013-04-03T12:20:18Z</time>
      </trkpt>
      <trkpt lat="44.32449" lon="4.05061">
        <ele>381</ele>
        <time>2013-04-03T12:20:20Z</time>
      </trkpt>
      <trkpt lat="44.32449" lon="4.05061">
        <ele>381</ele>
        <time>2013-04-03T12:20:22Z</time>
      </trkpt>
      <trkpt lat="44.32449" lon="4.05061">
        <ele>381</ele>
        <time>2013-04-03T12:20:24Z</time>
      </trkpt>
      <trkpt lat="44.32449" lon="4.05061">
        <ele>381</ele>
        <time>2013-04-03T12:20:26Z</time>
      </trkpt>
      <trkpt lat="44.32449" lon="4.05061">
        <ele>381</ele>
        <time>2013-04-03T12:20:28Z</time>
      </trkpt>
      <trkpt lat="44.32449" lon="4.05061">
        <ele>381</ele>
        <time>2013-04-03T12:20:30Z</time>
      </trkpt>
      <trkpt lat="44.32449" lon="4.05061">
        <ele>381</ele>
        <time>2013-04-03T12:20:32Z</time>
      </trkpt>
      <trkpt lat="44.32449" lon="4.05061">
        <ele>381</ele>
        <time>2013-04-03T12:20:34Z</time>
      </trkpt>
      <trkpt lat="44.32449" lon="4.05061">
        <ele>381</ele>
        <time>2013-04-03T12:20:36Z</time>
      </trkpt>
      <trkpt lat="44.32449" lon="4.05061">
        <ele>381</ele>
        <time>2013-04-03T12:20:38Z</time>
      </trkpt>
      <trkpt lat="44.32449" lon="4.05061">
        <ele>381</ele>
        <time>2013-04-03T12:20:40Z</time>
      </trkpt>
      <trkpt lat="44.32449" lon="4.05061">
        <ele>381</ele>
        <time>2013-04-03T12:20:42Z</time>
      </trkpt>
      <trkpt lat="44.32449" lon="4.05061">
        <ele>381</ele>
        <time>2013-04-03T12:20:44Z</time>
      </trkpt>
      <trkpt lat="44.32449" lon="4.05061">
        <ele>381</ele>
        <time>2013-04-03T12:20:46Z</time>
      </trkpt>
      <trkpt lat="44.32449" lon="4.05061">
        <ele>381</ele>
        <time>2013-04-03T12:20:48Z</time>
      </trkpt>
      <trkpt lat="44.32449" lon="4.05061">
        <ele>381</ele>
        <time>2013-04-03T12:20:50Z</time>
      </trkpt>
      <trkpt lat="44.32449" lon="4.05061">
        <ele>381</ele>
        <time>2013-04-03T12:20:52Z</time>
      </trkpt>
      <trkpt lat="44.32449" lon="4.05061">
        <ele>381</ele>
        <time>2013-04-03T12:20:54Z</time>
      </trkpt>
      <trkpt lat="44.32449" lon="4.05061">
        <ele>381</ele>
        <time>2013-04-03T12:20:56Z</time>
      </trkpt>
      <trkpt lat="44.32449" lon="4.05061">
        <ele>381</ele>
        <time>2013-04-03T12:20:58Z</time>
      </trkpt>
      <trkpt lat="44.32449" lon="4.05061">
        <ele>381</ele>
        <time>2013-04-03T12:20:59Z</time>
      </trkpt>
      <trkpt lat="44.32449" lon="4.05061">
        <ele>381</ele>
        <time>2013-04-03T12:21:00Z</time>
      </trkpt>
      <trkpt lat="44.32449" lon="4.05061">
        <ele>381</ele>
        <time>2013-04-03T12:21:02Z</time>
      </trkpt>
      <trkpt lat="44.32449" lon="4.05061">
        <ele>381</ele>
        <time>2013-04-03T12:21:04Z</time>
      </trkpt>
      <trkpt lat="44.32449" lon="4.05061">
        <ele>381</ele>
        <time>2013-04-03T12:21:06Z</time>
      </trkpt>
      <trkpt lat="44.32449" lon="4.05061">
        <ele>381</ele>
        <time>2013-04-03T12:21:08Z</time>
      </trkpt>
      <trkpt lat="44.32449" lon="4.05061">
        <ele>381</ele>
        <time>2013-04-03T12:21:09Z</time>
      </trkpt>
      <trkpt lat="44.32449" lon="4.05061">
        <ele>381</ele>
        <time>2013-04-03T12:21:12Z</time>
      </trkpt>
      <trkpt lat="44.32449" lon="4.05061">
        <ele>381</ele>
        <time>2013-04-03T12:21:14Z</time>
      </trkpt>
      <trkpt lat="44.32449" lon="4.05061">
        <ele>381</ele>
        <time>2013-04-03T12:21:15Z</time>
      </trkpt>
      <trkpt lat="44.32449" lon="4.05061">
        <ele>381</ele>
        <time>2013-04-03T12:21:16Z</time>
      </trkpt>
      <trkpt lat="44.32449" lon="4.05061">
        <ele>381</ele>
        <time>2013-04-03T12:21:18Z</time>
      </trkpt>
      <trkpt lat="44.32449" lon="4.05061">
        <ele>381</ele>
        <time>2013-04-03T12:21:20Z</time>
      </trkpt>
      <trkpt lat="44.32449" lon="4.05061">
        <ele>381</ele>
        <time>2013-04-03T12:21:22Z</time>
      </trkpt>
      <trkpt lat="44.32449" lon="4.05061">
        <ele>381</ele>
        <time>2013-04-03T12:21:24Z</time>
      </trkpt>
      <trkpt lat="44.32449" lon="4.05061">
        <ele>381</ele>
        <time>2013-04-03T12:21:26Z</time>
      </trkpt>
      <trkpt lat="44.32449" lon="4.05061">
        <ele>381</ele>
        <time>2013-04-03T12:21:28Z</time>
      </trkpt>
      <trkpt lat="44.32449" lon="4.05061">
        <ele>381</ele>
        <time>2013-04-03T12:21:30Z</time>
      </trkpt>
      <trkpt lat="44.32449" lon="4.05061">
        <ele>381</ele>
        <time>2013-04-03T12:21:32Z</time>
      </trkpt>
      <trkpt lat="44.32449" lon="4.05061">
        <ele>381</ele>
        <time>2013-04-03T12:21:34Z</time>
      </trkpt>
      <trkpt lat="44.32449" lon="4.05061">
        <ele>381</ele>
        <time>2013-04-03T12:21:36Z</time>
      </trkpt>
      <trkpt lat="44.32449" lon="4.05061">
        <ele>381</ele>
        <time>2013-04-03T12:21:38Z</time>
      </trkpt>
      <trkpt lat="44.32449" lon="4.05061">
        <ele>381</ele>
        <time>2013-04-03T12:21:40Z</time>
      </trkpt>
      <trkpt lat="44.32449" lon="4.05061">
        <ele>381</ele>
        <time>2013-04-03T12:21:42Z</time>
      </trkpt>
      <trkpt lat="44.32449" lon="4.05061">
        <ele>381</ele>
        <time>2013-04-03T12:21:44Z</time>
      </trkpt>
      <trkpt lat="44.32449" lon="4.05061">
        <ele>381</ele>
        <time>2013-04-03T12:21:46Z</time>
      </trkpt>
      <trkpt lat="44.32449" lon="4.05061">
        <ele>381</ele>
        <time>2013-04-03T12:21:48Z</time>
      </trkpt>
      <trkpt lat="44.32449" lon="4.05061">
        <ele>381</ele>
        <time>2013-04-03T12:21:50Z</time>
      </trkpt>
      <trkpt lat="44.32449" lon="4.05061">
        <ele>381</ele>
        <time>2013-04-03T12:21:52Z</time>
      </trkpt>
      <trkpt lat="44.32449" lon="4.05061">
        <ele>381</ele>
        <time>2013-04-03T12:21:54Z</time>
      </trkpt>
      <trkpt lat="44.32449" lon="4.05061">
        <ele>381</ele>
        <time>2013-04-03T12:21:56Z</time>
      </trkpt>
      <trkpt lat="44.32449" lon="4.05061">
        <ele>381</ele>
        <time>2013-04-03T12:21:58Z</time>
      </trkpt>
      <trkpt lat="44.32449" lon="4.05061">
        <ele>381</ele>
        <time>2013-04-03T12:21:59Z</time>
      </trkpt>
      <trkpt lat="44.32449" lon="4.05061">
        <ele>381</ele>
        <time>2013-04-03T12:22:00Z</time>
      </trkpt>
      <trkpt lat="44.32449" lon="4.05061">
        <ele>381</ele>
        <time>2013-04-03T12:22:02Z</time>
      </trkpt>
      <trkpt lat="44.32449" lon="4.05061">
        <ele>381</ele>
        <time>2013-04-03T12:22:04Z</time>
      </trkpt>
      <trkpt lat="44.32449" lon="4.05061">
        <ele>381</ele>
        <time>2013-04-03T12:22:06Z</time>
      </trkpt>
      <trkpt lat="44.32449" lon="4.05061">
        <ele>381</ele>
        <time>2013-04-03T12:22:08Z</time>
      </trkpt>
      <trkpt lat="44.32449" lon="4.05061">
        <ele>381</ele>
        <time>2013-04-03T12:22:10Z</time>
      </trkpt>
      <trkpt lat="44.32449" lon="4.05061">
        <ele>381</ele>
        <time>2013-04-03T12:22:11Z</time>
      </trkpt>
      <trkpt lat="44.32449" lon="4.05061">
        <ele>381</ele>
        <time>2013-04-03T12:22:14Z</time>
      </trkpt>
      <trkpt lat="44.32449" lon="4.05061">
        <ele>381</ele>
        <time>2013-04-03T12:22:15Z</time>
      </trkpt>
      <trkpt lat="44.32449" lon="4.05061">
        <ele>381</ele>
        <time>2013-04-03T12:22:16Z</time>
      </trkpt>
      <trkpt lat="44.32449" lon="4.05061">
        <ele>381</ele>
        <time>2013-04-03T12:22:18Z</time>
      </trkpt>
      <trkpt lat="44.32449" lon="4.05061">
        <ele>381</ele>
        <time>2013-04-03T12:22:20Z</time>
      </trkpt>
      <trkpt lat="44.32449" lon="4.05061">
        <ele>381</ele>
        <time>2013-04-03T12:22:22Z</time>
      </trkpt>
      <trkpt lat="44.32449" lon="4.05061">
        <ele>381</ele>
        <time>2013-04-03T12:22:24Z</time>
      </trkpt>
      <trkpt lat="44.32449" lon="4.05061">
        <ele>381</ele>
        <time>2013-04-03T12:22:26Z</time>
      </trkpt>
      <trkpt lat="44.32449" lon="4.05061">
        <ele>381</ele>
        <time>2013-04-03T12:22:28Z</time>
      </trkpt>
      <trkpt lat="44.32449" lon="4.05061">
        <ele>381</ele>
        <time>2013-04-03T12:22:30Z</time>
      </trkpt>
      <trkpt lat="44.32449" lon="4.05061">
        <ele>381</ele>
        <time>2013-04-03T12:22:32Z</time>
      </trkpt>
      <trkpt lat="44.32449" lon="4.05061">
        <ele>381</ele>
        <time>2013-04-03T12:22:34Z</time>
      </trkpt>
      <trkpt lat="44.32449" lon="4.05061">
        <ele>381</ele>
        <time>2013-04-03T12:22:36Z</time>
      </trkpt>
      <trkpt lat="44.32449" lon="4.05061">
        <ele>381</ele>
        <time>2013-04-03T12:22:38Z</time>
      </trkpt>
      <trkpt lat="44.32449" lon="4.05061">
        <ele>381</ele>
        <time>2013-04-03T12:22:40Z</time>
      </trkpt>
      <trkpt lat="44.32449" lon="4.05061">
        <ele>381</ele>
        <time>2013-04-03T12:22:42Z</time>
      </trkpt>
      <trkpt lat="44.32449" lon="4.05061">
        <ele>381</ele>
        <time>2013-04-03T12:22:44Z</time>
      </trkpt>
      <trkpt lat="44.32449" lon="4.05061">
        <ele>381</ele>
        <time>2013-04-03T12:22:46Z</time>
      </trkpt>
      <trkpt lat="44.32449" lon="4.05061">
        <ele>381</ele>
        <time>2013-04-03T12:22:48Z</time>
      </trkpt>
      <trkpt lat="44.32449" lon="4.05061">
        <ele>381</ele>
        <time>2013-04-03T12:22:50Z</time>
      </trkpt>
      <trkpt lat="44.32449" lon="4.05061">
        <ele>381</ele>
        <time>2013-04-03T12:22:52Z</time>
      </trkpt>
      <trkpt lat="44.32449" lon="4.05061">
        <ele>381</ele>
        <time>2013-04-03T12:22:54Z</time>
      </trkpt>
      <trkpt lat="44.32449" lon="4.05061">
        <ele>381</ele>
        <time>2013-04-03T12:22:56Z</time>
      </trkpt>
      <trkpt lat="44.32449" lon="4.05061">
        <ele>381</ele>
        <time>2013-04-03T12:22:58Z</time>
      </trkpt>
      <trkpt lat="44.32449" lon="4.05061">
        <ele>381</ele>
        <time>2013-04-03T12:22:59Z</time>
      </trkpt>
      <trkpt lat="44.32449" lon="4.05061">
        <ele>381</ele>
        <time>2013-04-03T12:23:00Z</time>
      </trkpt>
      <trkpt lat="44.32449" lon="4.05061">
        <ele>381</ele>
        <time>2013-04-03T12:23:02Z</time>
      </trkpt>
      <trkpt lat="44.32449" lon="4.05061">
        <ele>381</ele>
        <time>2013-04-03T12:23:04Z</time>
      </trkpt>
      <trkpt lat="44.32449" lon="4.05061">
        <ele>381</ele>
        <time>2013-04-03T12:23:06Z</time>
      </trkpt>
      <trkpt lat="44.32449" lon="4.05061">
        <ele>381</ele>
        <time>2013-04-03T12:23:08Z</time>
      </trkpt>
      <trkpt lat="44.32449" lon="4.05061">
        <ele>381</ele>
        <time>2013-04-03T12:23:10Z</time>
      </trkpt>
      <trkpt lat="44.32449" lon="4.05061">
        <ele>381</ele>
        <time>2013-04-03T12:23:12Z</time>
      </trkpt>
      <trkpt lat="44.32449" lon="4.05061">
        <ele>381</ele>
        <time>2013-04-03T12:23:13Z</time>
      </trkpt>
      <trkpt lat="44.32449" lon="4.05061">
        <ele>381</ele>
        <time>2013-04-03T12:23:15Z</time>
      </trkpt>
      <trkpt lat="44.32449" lon="4.05061">
        <ele>381</ele>
        <time>2013-04-03T12:23:16Z</time>
      </trkpt>
      <trkpt lat="44.32449" lon="4.05061">
        <ele>381</ele>
        <time>2013-04-03T12:23:18Z</time>
      </trkpt>
      <trkpt lat="44.32449" lon="4.05061">
        <ele>381</ele>
        <time>2013-04-03T12:23:20Z</time>
      </trkpt>
      <trkpt lat="44.32449" lon="4.05061">
        <ele>381</ele>
        <time>2013-04-03T12:23:22Z</time>
      </trkpt>
      <trkpt lat="44.32449" lon="4.05061">
        <ele>381</ele>
        <time>2013-04-03T12:23:24Z</time>
      </trkpt>
      <trkpt lat="44.32449" lon="4.05061">
        <ele>381</ele>
        <time>2013-04-03T12:23:26Z</time>
      </trkpt>
      <trkpt lat="44.32449" lon="4.05061">
        <ele>381</ele>
        <time>2013-04-03T12:23:28Z</time>
      </trkpt>
      <trkpt lat="44.32449" lon="4.05061">
        <ele>381</ele>
        <time>2013-04-03T12:23:30Z</time>
      </trkpt>
      <trkpt lat="44.32449" lon="4.05061">
        <ele>381</ele>
        <time>2013-04-03T12:23:32Z</time>
      </trkpt>
      <trkpt lat="44.32449" lon="4.05061">
        <ele>381</ele>
        <time>2013-04-03T12:23:34Z</time>
      </trkpt>
      <trkpt lat="44.32449" lon="4.05061">
        <ele>381</ele>
        <time>2013-04-03T12:23:36Z</time>
      </trkpt>
      <trkpt lat="44.32449" lon="4.05061">
        <ele>381</ele>
        <time>2013-04-03T12:23:38Z</time>
      </trkpt>
      <trkpt lat="44.32449" lon="4.05061">
        <ele>381</ele>
        <time>2013-04-03T12:23:40Z</time>
      </trkpt>
      <trkpt lat="44.32449" lon="4.05061">
        <ele>381</ele>
        <time>2013-04-03T12:23:42Z</time>
      </trkpt>
      <trkpt lat="44.32449" lon="4.05061">
        <ele>381</ele>
        <time>2013-04-03T12:23:44Z</time>
      </trkpt>
      <trkpt lat="44.32449" lon="4.05061">
        <ele>381</ele>
        <time>2013-04-03T12:23:46Z</time>
      </trkpt>
      <trkpt lat="44.32449" lon="4.05061">
        <ele>381</ele>
        <time>2013-04-03T12:23:48Z</time>
      </trkpt>
      <trkpt lat="44.32449" lon="4.05061">
        <ele>381</ele>
        <time>2013-04-03T12:23:50Z</time>
      </trkpt>
      <trkpt lat="44.32449" lon="4.05061">
        <ele>381</ele>
        <time>2013-04-03T12:23:52Z</time>
      </trkpt>
      <trkpt lat="44.32449" lon="4.05061">
        <ele>381</ele>
        <time>2013-04-03T12:23:54Z</time>
      </trkpt>
      <trkpt lat="44.32449" lon="4.05061">
        <ele>381</ele>
        <time>2013-04-03T12:23:56Z</time>
      </trkpt>
      <trkpt lat="44.32449" lon="4.05061">
        <ele>381</ele>
        <time>2013-04-03T12:23:58Z</time>
      </trkpt>
      <trkpt lat="44.32449" lon="4.05061">
        <ele>381</ele>
        <time>2013-04-03T12:23:59Z</time>
      </trkpt>
      <trkpt lat="44.32449" lon="4.05061">
        <ele>381</ele>
        <time>2013-04-03T12:24:00Z</time>
      </trkpt>
      <trkpt lat="44.32449" lon="4.05061">
        <ele>381</ele>
        <time>2013-04-03T12:24:02Z</time>
      </trkpt>
      <trkpt lat="44.32449" lon="4.05061">
        <ele>381</ele>
        <time>2013-04-03T12:24:04Z</time>
      </trkpt>
      <trkpt lat="44.32449" lon="4.05061">
        <ele>381</ele>
        <time>2013-04-03T12:24:06Z</time>
      </trkpt>
      <trkpt lat="44.32449" lon="4.05061">
        <ele>381</ele>
        <time>2013-04-03T12:24:08Z</time>
      </trkpt>
      <trkpt lat="44.32449" lon="4.05061">
        <ele>381</ele>
        <time>2013-04-03T12:24:10Z</time>
      </trkpt>
      <trkpt lat="44.32449" lon="4.05061">
        <ele>381</ele>
        <time>2013-04-03T12:24:12Z</time>
      </trkpt>
      <trkpt lat="44.32449" lon="4.05061">
        <ele>381</ele>
        <time>2013-04-03T12:24:14Z</time>
      </trkpt>
      <trkpt lat="44.32449" lon="4.05061">
        <ele>381</ele>
        <time>2013-04-03T12:24:15Z</time>
      </trkpt>
      <trkpt lat="44.32449" lon="4.05061">
        <ele>381</ele>
        <time>2013-04-03T12:24:16Z</time>
      </trkpt>
      <trkpt lat="44.32449" lon="4.05061">
        <ele>381</ele>
        <time>2013-04-03T12:24:18Z</time>
      </trkpt>
      <trkpt lat="44.32449" lon="4.05061">
        <ele>381</ele>
        <time>2013-04-03T12:24:20Z</time>
      </trkpt>
      <trkpt lat="44.32449" lon="4.05061">
        <ele>381</ele>
        <time>2013-04-03T12:24:22Z</time>
      </trkpt>
      <trkpt lat="44.32449" lon="4.05061">
        <ele>381</ele>
        <time>2013-04-03T12:24:24Z</time>
      </trkpt>
      <trkpt lat="44.32449" lon="4.05061">
        <ele>381</ele>
        <time>2013-04-03T12:24:26Z</time>
      </trkpt>
      <trkpt lat="44.32449" lon="4.05061">
        <ele>381</ele>
        <time>2013-04-03T12:24:28Z</time>
      </trkpt>
      <trkpt lat="44.32449" lon="4.05061">
        <ele>381</ele>
        <time>2013-04-03T12:24:30Z</time>
      </trkpt>
      <trkpt lat="44.32449" lon="4.05061">
        <ele>381</ele>
        <time>2013-04-03T12:24:32Z</time>
      </trkpt>
      <trkpt lat="44.32449" lon="4.05061">
        <ele>381</ele>
        <time>2013-04-03T12:24:34Z</time>
      </trkpt>
      <trkpt lat="44.32449" lon="4.05061">
        <ele>381</ele>
        <time>2013-04-03T12:24:36Z</time>
      </trkpt>
      <trkpt lat="44.32449" lon="4.05061">
        <ele>381</ele>
        <time>2013-04-03T12:24:38Z</time>
      </trkpt>
      <trkpt lat="44.32449" lon="4.05061">
        <ele>381</ele>
        <time>2013-04-03T12:24:40Z</time>
      </trkpt>
      <trkpt lat="44.32449" lon="4.05061">
        <ele>381</ele>
        <time>2013-04-03T12:24:42Z</time>
      </trkpt>
      <trkpt lat="44.32449" lon="4.05061">
        <ele>381</ele>
        <time>2013-04-03T12:24:44Z</time>
      </trkpt>
      <trkpt lat="44.32449" lon="4.05061">
        <ele>381</ele>
        <time>2013-04-03T12:24:46Z</time>
      </trkpt>
      <trkpt lat="44.32449" lon="4.05061">
        <ele>381</ele>
        <time>2013-04-03T12:24:48Z</time>
      </trkpt>
      <trkpt lat="44.32449" lon="4.05061">
        <ele>381</ele>
        <time>2013-04-03T12:24:50Z</time>
      </trkpt>
      <trkpt lat="44.32449" lon="4.05061">
        <ele>381</ele>
        <time>2013-04-03T12:24:52Z</time>
      </trkpt>
      <trkpt lat="44.32449" lon="4.05061">
        <ele>381</ele>
        <time>2013-04-03T12:24:54Z</time>
      </trkpt>
      <trkpt lat="44.32449" lon="4.05061">
        <ele>381</ele>
        <time>2013-04-03T12:24:56Z</time>
      </trkpt>
      <trkpt lat="44.32449" lon="4.05061">
        <ele>381</ele>
        <time>2013-04-03T12:24:58Z</time>
      </trkpt>
      <trkpt lat="44.32449" lon="4.05061">
        <ele>381</ele>
        <time>2013-04-03T12:24:59Z</time>
      </trkpt>
      <trkpt lat="44.32449" lon="4.05061">
        <ele>381</ele>
        <time>2013-04-03T12:25:00Z</time>
      </trkpt>
      <trkpt lat="44.32449" lon="4.05061">
        <ele>381</ele>
        <time>2013-04-03T12:25:02Z</time>
      </trkpt>
      <trkpt lat="44.32449" lon="4.05061">
        <ele>381</ele>
        <time>2013-04-03T12:25:04Z</time>
      </trkpt>
      <trkpt lat="44.32449" lon="4.05061">
        <ele>381</ele>
        <time>2013-04-03T12:25:06Z</time>
      </trkpt>
      <trkpt lat="44.32449" lon="4.05061">
        <ele>381</ele>
        <time>2013-04-03T12:25:08Z</time>
      </trkpt>
      <trkpt lat="44.32449" lon="4.05061">
        <ele>381</ele>
        <time>2013-04-03T12:25:10Z</time>
      </trkpt>
      <trkpt lat="44.32449" lon="4.05061">
        <ele>381</ele>
        <time>2013-04-03T12:25:12Z</time>
      </trkpt>
      <trkpt lat="44.32449" lon="4.05061">
        <ele>381</ele>
        <time>2013-04-03T12:25:14Z</time>
      </trkpt>
      <trkpt lat="44.32449" lon="4.05061">
        <ele>381</ele>
        <time>2013-04-03T12:25:15Z</time>
      </trkpt>
      <trkpt lat="44.32449" lon="4.05061">
        <ele>381</ele>
        <time>2013-04-03T12:25:16Z</time>
      </trkpt>
      <trkpt lat="44.32449" lon="4.05061">
        <ele>381</ele>
        <time>2013-04-03T12:25:18Z</time>
      </trkpt>
      <trkpt lat="44.32449" lon="4.05061">
        <ele>381</ele>
        <time>2013-04-03T12:25:20Z</time>
      </trkpt>
      <trkpt lat="44.3245" lon="4.05061">
        <ele>380</ele>
        <time>2013-04-03T12:25:22Z</time>
      </trkpt>
      <trkpt lat="44.3245" lon="4.05061">
        <ele>380</ele>
        <time>2013-04-03T12:25:24Z</time>
      </trkpt>
      <trkpt lat="44.3245" lon="4.05061">
        <ele>380</ele>
        <time>2013-04-03T12:25:26Z</time>
      </trkpt>
      <trkpt lat="44.3245" lon="4.05061">
        <ele>380</ele>
        <time>2013-04-03T12:25:28Z</time>
      </trkpt>
      <trkpt lat="44.3245" lon="4.05061">
        <ele>380</ele>
        <time>2013-04-03T12:25:30Z</time>
      </trkpt>
      <trkpt lat="44.3245" lon="4.05061">
        <ele>380</ele>
        <time>2013-04-03T12:25:32Z</time>
      </trkpt>
      <trkpt lat="44.3245" lon="4.05061">
        <ele>380</ele>
        <time>2013-04-03T12:25:34Z</time>
      </trkpt>
      <trkpt lat="44.3245" lon="4.05061">
        <ele>380</ele>
        <time>2013-04-03T12:25:36Z</time>
      </trkpt>
      <trkpt lat="44.3245" lon="4.05061">
        <ele>380</ele>
        <time>2013-04-03T12:25:38Z</time>
      </trkpt>
      <trkpt lat="44.3245" lon="4.05061">
        <ele>380</ele>
        <time>2013-04-03T12:25:40Z</time>
      </trkpt>
      <trkpt lat="44.32449" lon="4.0506">
        <ele>381</ele>
        <time>2013-04-03T12:25:42Z</time>
      </trkpt>
      <trkpt lat="44.32449" lon="4.0506">
        <ele>381</ele>
        <time>2013-04-03T12:25:44Z</time>
      </trkpt>
      <trkpt lat="44.32449" lon="4.0506">
        <ele>381</ele>
        <time>2013-04-03T12:25:46Z</time>
      </trkpt>
      <trkpt lat="44.32449" lon="4.0506">
        <ele>381</ele>
        <time>2013-04-03T12:25:48Z</time>
      </trkpt>
      <trkpt lat="44.32449" lon="4.0506">
        <ele>381</ele>
        <time>2013-04-03T12:25:50Z</time>
      </trkpt>
      <trkpt lat="44.32449" lon="4.0506">
        <ele>381</ele>
        <time>2013-04-03T12:25:52Z</time>
      </trkpt>
      <trkpt lat="44.32449" lon="4.0506">
        <ele>381</ele>
        <time>2013-04-03T12:25:54Z</time>
      </trkpt>
      <trkpt lat="44.3245" lon="4.0506">
        <ele>381</ele>
        <time>2013-04-03T12:25:56Z</time>
      </trkpt>
      <trkpt lat="44.3245" lon="4.0506">
        <ele>381</ele>
        <time>2013-04-03T12:25:58Z</time>
      </trkpt>
      <trkpt lat="44.3245" lon="4.0506">
        <ele>381</ele>
        <time>2013-04-03T12:25:59Z</time>
      </trkpt>
      <trkpt lat="44.3245" lon="4.0506">
        <ele>381</ele>
        <time>2013-04-03T12:26:00Z</time>
      </trkpt>
      <trkpt lat="44.3245" lon="4.0506">
        <ele>381</ele>
        <time>2013-04-03T12:26:02Z</time>
      </trkpt>
      <trkpt lat="44.3245" lon="4.0506">
        <ele>381</ele>
        <time>2013-04-03T12:26:04Z</time>
      </trkpt>
      <trkpt lat="44.3245" lon="4.0506">
        <ele>381</ele>
        <time>2013-04-03T12:26:06Z</time>
      </trkpt>
      <trkpt lat="44.3245" lon="4.0506">
        <ele>381</ele>
        <time>2013-04-03T12:26:08Z</time>
      </trkpt>
      <trkpt lat="44.3245" lon="4.0506">
        <ele>381</ele>
        <time>2013-04-03T12:26:10Z</time>
      </trkpt>
      <trkpt lat="44.3245" lon="4.0506">
        <ele>381</ele>
        <time>2013-04-03T12:26:12Z</time>
      </trkpt>
      <trkpt lat="44.3245" lon="4.0506">
        <ele>381</ele>
        <time>2013-04-03T12:26:14Z</time>
      </trkpt>
      <trkpt lat="44.3245" lon="4.0506">
        <ele>381</ele>
        <time>2013-04-03T12:26:15Z</time>
      </trkpt>
      <trkpt lat="44.3245" lon="4.0506">
        <ele>381</ele>
        <time>2013-04-03T12:26:16Z</time>
      </trkpt>
      <trkpt lat="44.3245" lon="4.0506">
        <ele>381</ele>
        <time>2013-04-03T12:26:17Z</time>
      </trkpt>
      <trkpt lat="44.3245" lon="4.0506">
        <ele>381</ele>
        <time>2013-04-03T12:26:20Z</time>
      </trkpt>
      <trkpt lat="44.3245" lon="4.0506">
        <ele>381</ele>
        <time>2013-04-03T12:26:22Z</time>
      </trkpt>
      <trkpt lat="44.3245" lon="4.0506">
        <ele>381</ele>
        <time>2013-04-03T12:26:24Z</time>
      </trkpt>
      <trkpt lat="44.3245" lon="4.0506">
        <ele>381</ele>
        <time>2013-04-03T12:26:26Z</time>
      </trkpt>
      <trkpt lat="44.3245" lon="4.0506">
        <ele>381</ele>
        <time>2013-04-03T12:26:28Z</time>
      </trkpt>
      <trkpt lat="44.3245" lon="4.0506">
        <ele>381</ele>
        <time>2013-04-03T12:26:30Z</time>
      </trkpt>
      <trkpt lat="44.3245" lon="4.0506">
        <ele>381</ele>
        <time>2013-04-03T12:26:32Z</time>
      </trkpt>
      <trkpt lat="44.3245" lon="4.0506">
        <ele>381</ele>
        <time>2013-04-03T12:26:34Z</time>
      </trkpt>
      <trkpt lat="44.3245" lon="4.0506">
        <ele>381</ele>
        <time>2013-04-03T12:26:36Z</time>
      </trkpt>
      <trkpt lat="44.3245" lon="4.0506">
        <ele>381</ele>
        <time>2013-04-03T12:26:38Z</time>
      </trkpt>
      <trkpt lat="44.3245" lon="4.0506">
        <ele>381</ele>
        <time>2013-04-03T12:26:40Z</time>
      </trkpt>
      <trkpt lat="44.3245" lon="4.0506">
        <ele>381</ele>
        <time>2013-04-03T12:26:42Z</time>
      </trkpt>
      <trkpt lat="44.3245" lon="4.0506">
        <ele>381</ele>
        <time>2013-04-03T12:26:44Z</time>
      </trkpt>
      <trkpt lat="44.3245" lon="4.05059">
        <ele>381</ele>
        <time>2013-04-03T12:26:46Z</time>
      </trkpt>
      <trkpt lat="44.3245" lon="4.05059">
        <ele>381</ele>
        <time>2013-04-03T12:26:48Z</time>
      </trkpt>
      <trkpt lat="44.3245" lon="4.05059">
        <ele>381</ele>
        <time>2013-04-03T12:26:50Z</time>
      </trkpt>
      <trkpt lat="44.3245" lon="4.05059">
        <ele>381</ele>
        <time>2013-04-03T12:26:52Z</time>
      </trkpt>
      <trkpt lat="44.3245" lon="4.05059">
        <ele>382</ele>
        <time>2013-04-03T12:26:54Z</time>
      </trkpt>
      <trkpt lat="44.3245" lon="4.05059">
        <ele>382</ele>
        <time>2013-04-03T12:26:56Z</time>
      </trkpt>
      <trkpt lat="44.3245" lon="4.05059">
        <ele>382</ele>
        <time>2013-04-03T12:26:58Z</time>
      </trkpt>
      <trkpt lat="44.3245" lon="4.05059">
        <ele>382</ele>
        <time>2013-04-03T12:26:59Z</time>
      </trkpt>
      <trkpt lat="44.3245" lon="4.05059">
        <ele>382</ele>
        <time>2013-04-03T12:27:00Z</time>
      </trkpt>
      <trkpt lat="44.3245" lon="4.05059">
        <ele>382</ele>
        <time>2013-04-03T12:27:02Z</time>
      </trkpt>
      <trkpt lat="44.3245" lon="4.05059">
        <ele>382</ele>
        <time>2013-04-03T12:27:04Z</time>
      </trkpt>
      <trkpt lat="44.3245" lon="4.05059">
        <ele>382</ele>
        <time>2013-04-03T12:27:06Z</time>
      </trkpt>
      <trkpt lat="44.3245" lon="4.05059">
        <ele>382</ele>
        <time>2013-04-03T12:27:08Z</time>
      </trkpt>
      <trkpt lat="44.3245" lon="4.05059">
        <ele>382</ele>
        <time>2013-04-03T12:27:10Z</time>
      </trkpt>
      <trkpt lat="44.3245" lon="4.05059">
        <ele>382</ele>
        <time>2013-04-03T12:27:12Z</time>
      </trkpt>
      <trkpt lat="44.3245" lon="4.05059">
        <ele>382</ele>
        <time>2013-04-03T12:27:14Z</time>
      </trkpt>
      <trkpt lat="44.3245" lon="4.05059">
        <ele>382</ele>
        <time>2013-04-03T12:27:15Z</time>
      </trkpt>
      <trkpt lat="44.3245" lon="4.05059">
        <ele>382</ele>
        <time>2013-04-03T12:27:16Z</time>
      </trkpt>
      <trkpt lat="44.3245" lon="4.05059">
        <ele>382</ele>
        <time>2013-04-03T12:27:18Z</time>
      </trkpt>
      <trkpt lat="44.3245" lon="4.05059">
        <ele>382</ele>
        <time>2013-04-03T12:27:19Z</time>
      </trkpt>
      <trkpt lat="44.3245" lon="4.05059">
        <ele>382</ele>
        <time>2013-04-03T12:27:22Z</time>
      </trkpt>
      <trkpt lat="44.3245" lon="4.05059">
        <ele>382</ele>
        <time>2013-04-03T12:27:24Z</time>
      </trkpt>
      <trkpt lat="44.3245" lon="4.05059">
        <ele>382</ele>
        <time>2013-04-03T12:27:26Z</time>
      </trkpt>
      <trkpt lat="44.3245" lon="4.05059">
        <ele>382</ele>
        <time>2013-04-03T12:27:28Z</time>
      </trkpt>
      <trkpt lat="44.3245" lon="4.05059">
        <ele>382</ele>
        <time>2013-04-03T12:27:30Z</time>
      </trkpt>
      <trkpt lat="44.3245" lon="4.05059">
        <ele>382</ele>
        <time>2013-04-03T12:27:32Z</time>
      </trkpt>
      <trkpt lat="44.3245" lon="4.05059">
        <ele>382</ele>
        <time>2013-04-03T12:27:34Z</time>
      </trkpt>
      <trkpt lat="44.3245" lon="4.05059">
        <ele>382</ele>
        <time>2013-04-03T12:27:36Z</time>
      </trkpt>
      <trkpt lat="44.3245" lon="4.05059">
        <ele>382</ele>
        <time>2013-04-03T12:27:38Z</time>
      </trkpt>
      <trkpt lat="44.3245" lon="4.05058">
        <ele>382</ele>
        <time>2013-04-03T12:27:40Z</time>
      </trkpt>
      <trkpt lat="44.3245" lon="4.05058">
        <ele>382</ele>
        <time>2013-04-03T12:27:42Z</time>
      </trkpt>
      <trkpt lat="44.3245" lon="4.05058">
        <ele>382</ele>
        <time>2013-04-03T12:27:44Z</time>
      </trkpt>
      <trkpt lat="44.3245" lon="4.05058">
        <ele>382</ele>
        <time>2013-04-03T12:27:46Z</time>
      </trkpt>
      <trkpt lat="44.3245" lon="4.05058">
        <ele>382</ele>
        <time>2013-04-03T12:27:48Z</time>
      </trkpt>
      <trkpt lat="44.3245" lon="4.05058">
        <ele>382</ele>
        <time>2013-04-03T12:27:50Z</time>
      </trkpt>
      <trkpt lat="44.3245" lon="4.05058">
        <ele>382</ele>
        <time>2013-04-03T12:27:52Z</time>
      </trkpt>
      <trkpt lat="44.3245" lon="4.05058">
        <ele>382</ele>
        <time>2013-04-03T12:27:54Z</time>
      </trkpt>
      <trkpt lat="44.3245" lon="4.05058">
        <ele>382</ele>
        <time>2013-04-03T12:27:56Z</time>
      </trkpt>
      <trkpt lat="44.3245" lon="4.05058">
        <ele>382</ele>
        <time>2013-04-03T12:27:58Z</time>
      </trkpt>
      <trkpt lat="44.3245" lon="4.05058">
        <ele>382</ele>
        <time>2013-04-03T12:27:59Z</time>
      </trkpt>
      <trkpt lat="44.3245" lon="4.05058">
        <ele>382</ele>
        <time>2013-04-03T12:28:00Z</time>
      </trkpt>
      <trkpt lat="44.3245" lon="4.05058">
        <ele>382</ele>
        <time>2013-04-03T12:28:02Z</time>
      </trkpt>
      <trkpt lat="44.3245" lon="4.05058">
        <ele>382</ele>
        <time>2013-04-03T12:28:04Z</time>
      </trkpt>
      <trkpt lat="44.3245" lon="4.05058">
        <ele>382</ele>
        <time>2013-04-03T12:28:06Z</time>
      </trkpt>
      <trkpt lat="44.3245" lon="4.05058">
        <ele>382</ele>
        <time>2013-04-03T12:28:08Z</time>
      </trkpt>
      <trkpt lat="44.3245" lon="4.05058">
        <ele>382</ele>
        <time>2013-04-03T12:28:10Z</time>
      </trkpt>
      <trkpt lat="44.3245" lon="4.05058">
        <ele>382</ele>
        <time>2013-04-03T12:28:12Z</time>
      </trkpt>
      <trkpt lat="44.3245" lon="4.05058">
        <ele>382</ele>
        <time>2013-04-03T12:28:14Z</time>
      </trkpt>
      <trkpt lat="44.3245" lon="4.05058">
        <ele>382</ele>
        <time>2013-04-03T12:28:15Z</time>
      </trkpt>
      <trkpt lat="44.3245" lon="4.05058">
        <ele>382</ele>
        <time>2013-04-03T12:28:16Z</time>
      </trkpt>
      <trkpt lat="44.3245" lon="4.05058">
        <ele>382</ele>
        <time>2013-04-03T12:28:18Z</time>
      </trkpt>
      <trkpt lat="44.3245" lon="4.05058">
        <ele>382</ele>
        <time>2013-04-03T12:28:20Z</time>
      </trkpt>
      <trkpt lat="44.3245" lon="4.05058">
        <ele>382</ele>
        <time>2013-04-03T12:28:21Z</time>
      </trkpt>
      <trkpt lat="44.3245" lon="4.05058">
        <ele>382</ele>
        <time>2013-04-03T12:28:24Z</time>
      </trkpt>
      <trkpt lat="44.3245" lon="4.05058">
        <ele>382</ele>
        <time>2013-04-03T12:28:26Z</time>
      </trkpt>
      <trkpt lat="44.3245" lon="4.05058">
        <ele>382</ele>
        <time>2013-04-03T12:28:28Z</time>
      </trkpt>
      <trkpt lat="44.3245" lon="4.05058">
        <ele>382</ele>
        <time>2013-04-03T12:28:30Z</time>
      </trkpt>
      <trkpt lat="44.3245" lon="4.05058">
        <ele>382</ele>
        <time>2013-04-03T12:28:32Z</time>
      </trkpt>
      <trkpt lat="44.3245" lon="4.05058">
        <ele>382</ele>
        <time>2013-04-03T12:28:34Z</time>
      </trkpt>
      <trkpt lat="44.3245" lon="4.05058">
        <ele>382</ele>
        <time>2013-04-03T12:28:36Z</time>
      </trkpt>
      <trkpt lat="44.3245" lon="4.05058">
        <ele>382</ele>
        <time>2013-04-03T12:28:38Z</time>
      </trkpt>
      <trkpt lat="44.3245" lon="4.05058">
        <ele>382</ele>
        <time>2013-04-03T12:28:40Z</time>
      </trkpt>
      <trkpt lat="44.3245" lon="4.05058">
        <ele>382</ele>
        <time>2013-04-03T12:28:42Z</time>
      </trkpt>
      <trkpt lat="44.3245" lon="4.05058">
        <ele>382</ele>
        <time>2013-04-03T12:28:44Z</time>
      </trkpt>
      <trkpt lat="44.3245" lon="4.05058">
        <ele>382</ele>
        <time>2013-04-03T12:28:46Z</time>
      </trkpt>
      <trkpt lat="44.3245" lon="4.05058">
        <ele>382</ele>
        <time>2013-04-03T12:28:48Z</time>
      </trkpt>
      <trkpt lat="44.3245" lon="4.05058">
        <ele>382</ele>
        <time>2013-04-03T12:28:50Z</time>
      </trkpt>
      <trkpt lat="44.3245" lon="4.05058">
        <ele>382</ele>
        <time>2013-04-03T12:28:52Z</time>
      </trkpt>
      <trkpt lat="44.3245" lon="4.05058">
        <ele>382</ele>
        <time>2013-04-03T12:28:54Z</time>
      </trkpt>
      <trkpt lat="44.3245" lon="4.05058">
        <ele>382</ele>
        <time>2013-04-03T12:28:56Z</time>
      </trkpt>
      <trkpt lat="44.3245" lon="4.05058">
        <ele>382</ele>
        <time>2013-04-03T12:28:58Z</time>
      </trkpt>
      <trkpt lat="44.3245" lon="4.05058">
        <ele>382</ele>
        <time>2013-04-03T12:28:59Z</time>
      </trkpt>
      <trkpt lat="44.3245" lon="4.05058">
        <ele>382</ele>
        <time>2013-04-03T12:29:00Z</time>
      </trkpt>
      <trkpt lat="44.3245" lon="4.05058">
        <ele>382</ele>
        <time>2013-04-03T12:29:02Z</time>
      </trkpt>
      <trkpt lat="44.3245" lon="4.05058">
        <ele>382</ele>
        <time>2013-04-03T12:29:04Z</time>
      </trkpt>
      <trkpt lat="44.3245" lon="4.05058">
        <ele>382</ele>
        <time>2013-04-03T12:29:06Z</time>
      </trkpt>
      <trkpt lat="44.3245" lon="4.05058">
        <ele>382</ele>
        <time>2013-04-03T12:29:08Z</time>
      </trkpt>
      <trkpt lat="44.3245" lon="4.05058">
        <ele>382</ele>
        <time>2013-04-03T12:29:10Z</time>
      </trkpt>
      <trkpt lat="44.3245" lon="4.05058">
        <ele>382</ele>
        <time>2013-04-03T12:29:12Z</time>
      </trkpt>
      <trkpt lat="44.3245" lon="4.05058">
        <ele>382</ele>
        <time>2013-04-03T12:29:14Z</time>
      </trkpt>
      <trkpt lat="44.3245" lon="4.05058">
        <ele>382</ele>
        <time>2013-04-03T12:29:15Z</time>
      </trkpt>
      <trkpt lat="44.3245" lon="4.05058">
        <ele>382</ele>
        <time>2013-04-03T12:29:16Z</time>
      </trkpt>
      <trkpt lat="44.3245" lon="4.05058">
        <ele>382</ele>
        <time>2013-04-03T12:29:18Z</time>
      </trkpt>
      <trkpt lat="44.3245" lon="4.05058">
        <ele>382</ele>
        <time>2013-04-03T12:29:20Z</time>
      </trkpt>
      <trkpt lat="44.3245" lon="4.05058">
        <ele>382</ele>
        <time>2013-04-03T12:29:22Z</time>
      </trkpt>
      <trkpt lat="44.3245" lon="4.05058">
        <ele>382</ele>
        <time>2013-04-03T12:29:23Z</time>
      </trkpt>
      <trkpt lat="44.3245" lon="4.05058">
        <ele>382</ele>
        <time>2013-04-03T12:29:26Z</time>
      </trkpt>
      <trkpt lat="44.3245" lon="4.05058">
        <ele>382</ele>
        <time>2013-04-03T12:29:28Z</time>
      </trkpt>
      <trkpt lat="44.3245" lon="4.05058">
        <ele>382</ele>
        <time>2013-04-03T12:29:30Z</time>
      </trkpt>
      <trkpt lat="44.32451" lon="4.05057">
        <ele>382</ele>
        <time>2013-04-03T12:29:32Z</time>
      </trkpt>
      <trkpt lat="44.32451" lon="4.05057">
        <ele>382</ele>
        <time>2013-04-03T12:29:34Z</time>
      </trkpt>
      <trkpt lat="44.32451" lon="4.05057">
        <ele>382</ele>
        <time>2013-04-03T12:29:36Z</time>
      </trkpt>
      <trkpt lat="44.32451" lon="4.05057">
        <ele>382</ele>
        <time>2013-04-03T12:29:38Z</time>
      </trkpt>
      <trkpt lat="44.32451" lon="4.05057">
        <ele>382</ele>
        <time>2013-04-03T12:29:40Z</time>
      </trkpt>
      <trkpt lat="44.32451" lon="4.05057">
        <ele>382</ele>
        <time>2013-04-03T12:29:42Z</time>
      </trkpt>
      <trkpt lat="44.32451" lon="4.05057">
        <ele>382</ele>
        <time>2013-04-03T12:29:44Z</time>
      </trkpt>
      <trkpt lat="44.32451" lon="4.05057">
        <ele>382</ele>
        <time>2013-04-03T12:29:46Z</time>
      </trkpt>
      <trkpt lat="44.32451" lon="4.05057">
        <ele>382</ele>
        <time>2013-04-03T12:29:48Z</time>
      </trkpt>
      <trkpt lat="44.32451" lon="4.05057">
        <ele>382</ele>
        <time>2013-04-03T12:29:50Z</time>
      </trkpt>
      <trkpt lat="44.32451" lon="4.05057">
        <ele>382</ele>
        <time>2013-04-03T12:29:52Z</time>
      </trkpt>
      <trkpt lat="44.32451" lon="4.05057">
        <ele>382</ele>
        <time>2013-04-03T12:29:54Z</time>
      </trkpt>
      <trkpt lat="44.32451" lon="4.05057">
        <ele>382</ele>
        <time>2013-04-03T12:29:56Z</time>
      </trkpt>
      <trkpt lat="44.32451" lon="4.05057">
        <ele>382</ele>
        <time>2013-04-03T12:29:58Z</time>
      </trkpt>
      <trkpt lat="44.32451" lon="4.05057">
        <ele>382</ele>
        <time>2013-04-03T12:29:59Z</time>
      </trkpt>
      <trkpt lat="44.32451" lon="4.05057">
        <ele>382</ele>
        <time>2013-04-03T12:30:00Z</time>
      </trkpt>
      <trkpt lat="44.32451" lon="4.05057">
        <ele>382</ele>
        <time>2013-04-03T12:30:02Z</time>
      </trkpt>
      <trkpt lat="44.32451" lon="4.05057">
        <ele>382</ele>
        <time>2013-04-03T12:30:04Z</time>
      </trkpt>
      <trkpt lat="44.32451" lon="4.05057">
        <ele>382</ele>
        <time>2013-04-03T12:30:06Z</time>
      </trkpt>
      <trkpt lat="44.32451" lon="4.05057">
        <ele>382</ele>
        <time>2013-04-03T12:30:08Z</time>
      </trkpt>
      <trkpt lat="44.32451" lon="4.05057">
        <ele>382</ele>
        <time>2013-04-03T12:30:10Z</time>
      </trkpt>
      <trkpt lat="44.32451" lon="4.05057">
        <ele>382</ele>
        <time>2013-04-03T12:30:12Z</time>
      </trkpt>
      <trkpt lat="44.32451" lon="4.05057">
        <ele>382</ele>
        <time>2013-04-03T12:30:14Z</time>
      </trkpt>
      <trkpt lat="44.32451" lon="4.05057">
        <ele>382</ele>
        <time>2013-04-03T12:30:15Z</time>
      </trkpt>
      <trkpt lat="44.32451" lon="4.05057">
        <ele>382</ele>
        <time>2013-04-03T12:30:16Z</time>
      </trkpt>
      <trkpt lat="44.32451" lon="4.05057">
        <ele>382</ele>
        <time>2013-04-03T12:30:18Z</time>
      </trkpt>
      <trkpt lat="44.32451" lon="4.05057">
        <ele>382</ele>
        <time>2013-04-03T12:30:20Z</time>
      </trkpt>
      <trkpt lat="44.32451" lon="4.05057">
        <ele>382</ele>
        <time>2013-04-03T12:30:22Z</time>
      </trkpt>
      <trkpt lat="44.32451" lon="4.05057">
        <ele>382</ele>
        <time>2013-04-03T12:30:24Z</time>
      </trkpt>
      <trkpt lat="44.32451" lon="4.05057">
        <ele>382</ele>
        <time>2013-04-03T12:30:25Z</time>
      </trkpt>
      <trkpt lat="44.32451" lon="4.05057">
        <ele>382</ele>
        <time>2013-04-03T12:30:28Z</time>
      </trkpt>
      <trkpt lat="44.32451" lon="4.05057">
        <ele>382</ele>
        <time>2013-04-03T12:30:30Z</time>
      </trkpt>
      <trkpt lat="44.32451" lon="4.05057">
        <ele>382</ele>
        <time>2013-04-03T12:30:32Z</time>
      </trkpt>
      <trkpt lat="44.32451" lon="4.05057">
        <ele>382</ele>
        <time>2013-04-03T12:30:34Z</time>
      </trkpt>
      <trkpt lat="44.32451" lon="4.05057">
        <ele>382</ele>
        <time>2013-04-03T12:30:36Z</time>
      </trkpt>
      <trkpt lat="44.32451" lon="4.05057">
        <ele>382</ele>
        <time>2013-04-03T12:30:38Z</time>
      </trkpt>
      <trkpt lat="44.32451" lon="4.05057">
        <ele>382</ele>
        <time>2013-04-03T12:30:40Z</time>
      </trkpt>
      <trkpt lat="44.32451" lon="4.05057">
        <ele>382</ele>
        <time>2013-04-03T12:30:42Z</time>
      </trkpt>
      <trkpt lat="44.32451" lon="4.05057">
        <ele>382</ele>
        <time>2013-04-03T12:30:44Z</time>
      </trkpt>
      <trkpt lat="44.32451" lon="4.05057">
        <ele>382</ele>
        <time>2013-04-03T12:30:46Z</time>
      </trkpt>
      <trkpt lat="44.32451" lon="4.05057">
        <ele>382</ele>
        <time>2013-04-03T12:30:48Z</time>
      </trkpt>
      <trkpt lat="44.32451" lon="4.05057">
        <ele>382</ele>
        <time>2013-04-03T12:30:50Z</time>
      </trkpt>
      <trkpt lat="44.32451" lon="4.05057">
        <ele>382</ele>
        <time>2013-04-03T12:30:52Z</time>
      </trkpt>
      <trkpt lat="44.32451" lon="4.05057">
        <ele>382</ele>
        <time>2013-04-03T12:30:54Z</time>
      </trkpt>
      <trkpt lat="44.32451" lon="4.05057">
        <ele>381</ele>
        <time>2013-04-03T12:30:56Z</time>
      </trkpt>
      <trkpt lat="44.32451" lon="4.05057">
        <ele>381</ele>
        <time>2013-04-03T12:30:58Z</time>
      </trkpt>
      <trkpt lat="44.32451" lon="4.05057">
        <ele>381</ele>
        <time>2013-04-03T12:30:59Z</time>
      </trkpt>
      <trkpt lat="44.32451" lon="4.05057">
        <ele>381</ele>
        <time>2013-04-03T12:31:00Z</time>
      </trkpt>
      <trkpt lat="44.32451" lon="4.05057">
        <ele>381</ele>
        <time>2013-04-03T12:31:02Z</time>
      </trkpt>
      <trkpt lat="44.32451" lon="4.05057">
        <ele>381</ele>
        <time>2013-04-03T12:31:04Z</time>
      </trkpt>
      <trkpt lat="44.32451" lon="4.05057">
        <ele>381</ele>
        <time>2013-04-03T12:31:06Z</time>
      </trkpt>
      <trkpt lat="44.32451" lon="4.05057">
        <ele>381</ele>
        <time>2013-04-03T12:31:08Z</time>
      </trkpt>
      <trkpt lat="44.32451" lon="4.05057">
        <ele>381</ele>
        <time>2013-04-03T12:31:10Z</time>
      </trkpt>
      <trkpt lat="44.32451" lon="4.05057">
        <ele>381</ele>
        <time>2013-04-03T12:31:12Z</time>
      </trkpt>
      <trkpt lat="44.32451" lon="4.05057">
        <ele>381</ele>
        <time>2013-04-03T12:31:14Z</time>
      </trkpt>
      <trkpt lat="44.32451" lon="4.05057">
        <ele>381</ele>
        <time>2013-04-03T12:31:15Z</time>
      </trkpt>
      <trkpt lat="44.32451" lon="4.05057">
        <ele>381</ele>
        <time>2013-04-03T12:31:16Z</time>
      </trkpt>
      <trkpt lat="44.32451" lon="4.05057">
        <ele>381</ele>
        <time>2013-04-03T12:31:18Z</time>
      </trkpt>
      <trkpt lat="44.32451" lon="4.05057">
        <ele>381</ele>
        <time>2013-04-03T12:31:20Z</time>
      </trkpt>
      <trkpt lat="44.32451" lon="4.05057">
        <ele>381</ele>
        <time>2013-04-03T12:31:22Z</time>
      </trkpt>
      <trkpt lat="44.32451" lon="4.05057">
        <ele>381</ele>
        <time>2013-04-03T12:31:24Z</time>
      </trkpt>
      <trkpt lat="44.32451" lon="4.05057">
        <ele>381</ele>
        <time>2013-04-03T12:31:26Z</time>
      </trkpt>
      <trkpt lat="44.32451" lon="4.05057">
        <ele>381</ele>
        <time>2013-04-03T12:31:27Z</time>
      </trkpt>
      <trkpt lat="44.32451" lon="4.05057">
        <ele>381</ele>
        <time>2013-04-03T12:31:30Z</time>
      </trkpt>
      <trkpt lat="44.32451" lon="4.05057">
        <ele>381</ele>
        <time>2013-04-03T12:31:32Z</time>
      </trkpt>
      <trkpt lat="44.32451" lon="4.05057">
        <ele>381</ele>
        <time>2013-04-03T12:31:34Z</time>
      </trkpt>
      <trkpt lat="44.32451" lon="4.05057">
        <ele>381</ele>
        <time>2013-04-03T12:31:36Z</time>
      </trkpt>
      <trkpt lat="44.32451" lon="4.05057">
        <ele>381</ele>
        <time>2013-04-03T12:31:38Z</time>
      </trkpt>
      <trkpt lat="44.32451" lon="4.05057">
        <ele>381</ele>
        <time>2013-04-03T12:31:40Z</time>
      </trkpt>
      <trkpt lat="44.32451" lon="4.05057">
        <ele>382</ele>
        <time>2013-04-03T12:31:42Z</time>
      </trkpt>
      <trkpt lat="44.32451" lon="4.05057">
        <ele>382</ele>
        <time>2013-04-03T12:31:44Z</time>
      </trkpt>
      <trkpt lat="44.32451" lon="4.05057">
        <ele>382</ele>
        <time>2013-04-03T12:31:46Z</time>
      </trkpt>
      <trkpt lat="44.32451" lon="4.05057">
        <ele>382</ele>
        <time>2013-04-03T12:31:48Z</time>
      </trkpt>
      <trkpt lat="44.32451" lon="4.05057">
        <ele>382</ele>
        <time>2013-04-03T12:31:50Z</time>
      </trkpt>
      <trkpt lat="44.32451" lon="4.05057">
        <ele>382</ele>
        <time>2013-04-03T12:31:52Z</time>
      </trkpt>
      <trkpt lat="44.32451" lon="4.05057">
        <ele>382</ele>
        <time>2013-04-03T12:31:54Z</time>
      </trkpt>
      <trkpt lat="44.32451" lon="4.05057">
        <ele>382</ele>
        <time>2013-04-03T12:31:56Z</time>
      </trkpt>
      <trkpt lat="44.32451" lon="4.05057">
        <ele>382</ele>
        <time>2013-04-03T12:31:58Z</time>
      </trkpt>
      <trkpt lat="44.32451" lon="4.05057">
        <ele>382</ele>
        <time>2013-04-03T12:31:59Z</time>
      </trkpt>
      <trkpt lat="44.32451" lon="4.05057">
        <ele>382</ele>
        <time>2013-04-03T12:32:00Z</time>
      </trkpt>
      <trkpt lat="44.32451" lon="4.05057">
        <ele>382</ele>
        <time>2013-04-03T12:32:02Z</time>
      </trkpt>
      <trkpt lat="44.32451" lon="4.05057">
        <ele>382</ele>
        <time>2013-04-03T12:32:04Z</time>
      </trkpt>
      <trkpt lat="44.32451" lon="4.05057">
        <ele>382</ele>
        <time>2013-04-03T12:32:06Z</time>
      </trkpt>
      <trkpt lat="44.32451" lon="4.05057">
        <ele>382</ele>
        <time>2013-04-03T12:32:08Z</time>
      </trkpt>
      <trkpt lat="44.32451" lon="4.05057">
        <ele>382</ele>
        <time>2013-04-03T12:32:10Z</time>
      </trkpt>
      <trkpt lat="44.32451" lon="4.05057">
        <ele>382</ele>
        <time>2013-04-03T12:32:12Z</time>
      </trkpt>
      <trkpt lat="44.32451" lon="4.05057">
        <ele>382</ele>
        <time>2013-04-03T12:32:14Z</time>
      </trkpt>
      <trkpt lat="44.32451" lon="4.05057">
        <ele>382</ele>
        <time>2013-04-03T12:32:15Z</time>
      </trkpt>
      <trkpt lat="44.32451" lon="4.05057">
        <ele>382</ele>
        <time>2013-04-03T12:32:16Z</time>
      </trkpt>
      <trkpt lat="44.32451" lon="4.05057">
        <ele>382</ele>
        <time>2013-04-03T12:32:18Z</time>
      </trkpt>
      <trkpt lat="44.32451" lon="4.05057">
        <ele>382</ele>
        <time>2013-04-03T12:32:20Z</time>
      </trkpt>
      <trkpt lat="44.32451" lon="4.05057">
        <ele>382</ele>
        <time>2013-04-03T12:32:22Z</time>
      </trkpt>
      <trkpt lat="44.32451" lon="4.05057">
        <ele>382</ele>
        <time>2013-04-03T12:32:24Z</time>
      </trkpt>
      <trkpt lat="44.32451" lon="4.05057">
        <ele>382</ele>
        <time>2013-04-03T12:32:26Z</time>
      </trkpt>
      <trkpt lat="44.32451" lon="4.05057">
        <ele>382</ele>
        <time>2013-04-03T12:32:28Z</time>
      </trkpt>
      <trkpt lat="44.32451" lon="4.05057">
        <ele>382</ele>
        <time>2013-04-03T12:32:29Z</time>
      </trkpt>
      <trkpt lat="44.32451" lon="4.05057">
        <ele>382</ele>
        <time>2013-04-03T12:32:32Z</time>
      </trkpt>
      <trkpt lat="44.32451" lon="4.05057">
        <ele>382</ele>
        <time>2013-04-03T12:32:34Z</time>
      </trkpt>
      <trkpt lat="44.32451" lon="4.05057">
        <ele>382</ele>
        <time>2013-04-03T12:32:36Z</time>
      </trkpt>
      <trkpt lat="44.32451" lon="4.05057">
        <ele>382</ele>
        <time>2013-04-03T12:32:38Z</time>
      </trkpt>
      <trkpt lat="44.32451" lon="4.05057">
        <ele>382</ele>
        <time>2013-04-03T12:32:40Z</time>
      </trkpt>
      <trkpt lat="44.32451" lon="4.05057">
        <ele>382</ele>
        <time>2013-04-03T12:32:42Z</time>
      </trkpt>
      <trkpt lat="44.32451" lon="4.05057">
        <ele>382</ele>
        <time>2013-04-03T12:32:44Z</time>
      </trkpt>
      <trkpt lat="44.32451" lon="4.05057">
        <ele>382</ele>
        <time>2013-04-03T12:32:46Z</time>
      </trkpt>
      <trkpt lat="44.32451" lon="4.05057">
        <ele>382</ele>
        <time>2013-04-03T12:32:48Z</time>
      </trkpt>
      <trkpt lat="44.32451" lon="4.05057">
        <ele>382</ele>
        <time>2013-04-03T12:32:50Z</time>
      </trkpt>
      <trkpt lat="44.32451" lon="4.05057">
        <ele>382</ele>
        <time>2013-04-03T12:32:52Z</time>
      </trkpt>
      <trkpt lat="44.32451" lon="4.05057">
        <ele>382</ele>
        <time>2013-04-03T12:32:54Z</time>
      </trkpt>
      <trkpt lat="44.32451" lon="4.05057">
        <ele>382</ele>
        <time>2013-04-03T12:32:56Z</time>
      </trkpt>
      <trkpt lat="44.32451" lon="4.05057">
        <ele>382</ele>
        <time>2013-04-03T12:32:58Z</time>
      </trkpt>
      <trkpt lat="44.32451" lon="4.05057">
        <ele>382</ele>
        <time>2013-04-03T12:32:59Z</time>
      </trkpt>
      <trkpt lat="44.32451" lon="4.05057">
        <ele>382</ele>
        <time>2013-04-03T12:33:00Z</time>
      </trkpt>
      <trkpt lat="44.32451" lon="4.05057">
        <ele>382</ele>
        <time>2013-04-03T12:33:02Z</time>
      </trkpt>
      <trkpt lat="44.32451" lon="4.05057">
        <ele>382</ele>
        <time>2013-04-03T12:33:04Z</time>
      </trkpt>
      <trkpt lat="44.32451" lon="4.05057">
        <ele>382</ele>
        <time>2013-04-03T12:33:06Z</time>
      </trkpt>
      <trkpt lat="44.32451" lon="4.05057">
        <ele>382</ele>
        <time>2013-04-03T12:33:08Z</time>
      </trkpt>
      <trkpt lat="44.32451" lon="4.05057">
        <ele>382</ele>
        <time>2013-04-03T12:33:10Z</time>
      </trkpt>
      <trkpt lat="44.32451" lon="4.05057">
        <ele>382</ele>
        <time>2013-04-03T12:33:12Z</time>
      </trkpt>
      <trkpt lat="44.32451" lon="4.05057">
        <ele>382</ele>
        <time>2013-04-03T12:33:14Z</time>
      </trkpt>
      <trkpt lat="44.32451" lon="4.05057">
        <ele>382</ele>
        <time>2013-04-03T12:33:16Z</time>
      </trkpt>
      <trkpt lat="44.32451" lon="4.05057">
        <ele>382</ele>
        <time>2013-04-03T12:33:18Z</time>
      </trkpt>
      <trkpt lat="44.32451" lon="4.05057">
        <ele>382</ele>
        <time>2013-04-03T12:33:20Z</time>
      </trkpt>
      <trkpt lat="44.32451" lon="4.05057">
        <ele>382</ele>
        <time>2013-04-03T12:33:22Z</time>
      </trkpt>
      <trkpt lat="44.32451" lon="4.05057">
        <ele>382</ele>
        <time>2013-04-03T12:33:24Z</time>
      </trkpt>
      <trkpt lat="44.32451" lon="4.05057">
        <ele>382</ele>
        <time>2013-04-03T12:33:26Z</time>
      </trkpt>
      <trkpt lat="44.32451" lon="4.05057">
        <ele>382</ele>
        <time>2013-04-03T12:33:28Z</time>
      </trkpt>
      <trkpt lat="44.32451" lon="4.05057">
        <ele>382</ele>
        <time>2013-04-03T12:33:30Z</time>
      </trkpt>
      <trkpt lat="44.32451" lon="4.05057">
        <ele>382</ele>
        <time>2013-04-03T12:33:31Z</time>
      </trkpt>
      <trkpt lat="44.32451" lon="4.05057">
        <ele>382</ele>
        <time>2013-04-03T12:33:34Z</time>
      </trkpt>
      <trkpt lat="44.32451" lon="4.05057">
        <ele>382</ele>
        <time>2013-04-03T12:33:36Z</time>
      </trkpt>
      <trkpt lat="44.32451" lon="4.05056">
        <ele>382</ele>
        <time>2013-04-03T12:33:38Z</time>
      </trkpt>
      <trkpt lat="44.32451" lon="4.05056">
        <ele>382</ele>
        <time>2013-04-03T12:33:40Z</time>
      </trkpt>
      <trkpt lat="44.32451" lon="4.05056">
        <ele>382</ele>
        <time>2013-04-03T12:33:42Z</time>
      </trkpt>
      <trkpt lat="44.32451" lon="4.05056">
        <ele>382</ele>
        <time>2013-04-03T12:33:44Z</time>
      </trkpt>
      <trkpt lat="44.32451" lon="4.05056">
        <ele>382</ele>
        <time>2013-04-03T12:33:46Z</time>
      </trkpt>
      <trkpt lat="44.32451" lon="4.05056">
        <ele>382</ele>
        <time>2013-04-03T12:33:48Z</time>
      </trkpt>
      <trkpt lat="44.32451" lon="4.05056">
        <ele>382</ele>
        <time>2013-04-03T12:33:50Z</time>
      </trkpt>
      <trkpt lat="44.32451" lon="4.05056">
        <ele>382</ele>
        <time>2013-04-03T12:33:52Z</time>
      </trkpt>
      <trkpt lat="44.32451" lon="4.05056">
        <ele>382</ele>
        <time>2013-04-03T12:33:54Z</time>
      </trkpt>
      <trkpt lat="44.32451" lon="4.05056">
        <ele>382</ele>
        <time>2013-04-03T12:33:56Z</time>
      </trkpt>
      <trkpt lat="44.32451" lon="4.05056">
        <ele>382</ele>
        <time>2013-04-03T12:33:58Z</time>
      </trkpt>
      <trkpt lat="44.32451" lon="4.05056">
        <ele>382</ele>
        <time>2013-04-03T12:34:00Z</time>
      </trkpt>
      <trkpt lat="44.32451" lon="4.05056">
        <ele>382</ele>
        <time>2013-04-03T12:34:02Z</time>
      </trkpt>
      <trkpt lat="44.32451" lon="4.05056">
        <ele>382</ele>
        <time>2013-04-03T12:34:04Z</time>
      </trkpt>
      <trkpt lat="44.32451" lon="4.05056">
        <ele>382</ele>
        <time>2013-04-03T12:34:06Z</time>
      </trkpt>
      <trkpt lat="44.32451" lon="4.05056">
        <ele>382</ele>
        <time>2013-04-03T12:34:08Z</time>
      </trkpt>
      <trkpt lat="44.32451" lon="4.05056">
        <ele>382</ele>
        <time>2013-04-03T12:34:10Z</time>
      </trkpt>
      <trkpt lat="44.32451" lon="4.05056">
        <ele>382</ele>
        <time>2013-04-03T12:34:12Z</time>
      </trkpt>
      <trkpt lat="44.32451" lon="4.05056">
        <ele>382</ele>
        <time>2013-04-03T12:34:14Z</time>
      </trkpt>
      <trkpt lat="44.32451" lon="4.05056">
        <ele>382</ele>
        <time>2013-04-03T12:34:16Z</time>
      </trkpt>
      <trkpt lat="44.32451" lon="4.05056">
        <ele>382</ele>
        <time>2013-04-03T12:34:18Z</time>
      </trkpt>
      <trkpt lat="44.32451" lon="4.05056">
        <ele>382</ele>
        <time>2013-04-03T12:34:20Z</time>
      </trkpt>
      <trkpt lat="44.32451" lon="4.05056">
        <ele>382</ele>
        <time>2013-04-03T12:34:22Z</time>
      </trkpt>
      <trkpt lat="44.32451" lon="4.05056">
        <ele>382</ele>
        <time>2013-04-03T12:34:24Z</time>
      </trkpt>
      <trkpt lat="44.32451" lon="4.05056">
        <ele>382</ele>
        <time>2013-04-03T12:34:26Z</time>
      </trkpt>
      <trkpt lat="44.32451" lon="4.05056">
        <ele>382</ele>
        <time>2013-04-03T12:34:28Z</time>
      </trkpt>
      <trkpt lat="44.32451" lon="4.05056">
        <ele>382</ele>
        <time>2013-04-03T12:34:30Z</time>
      </trkpt>
      <trkpt lat="44.32451" lon="4.05056">
        <ele>382</ele>
        <time>2013-04-03T12:34:32Z</time>
      </trkpt>
      <trkpt lat="44.32451" lon="4.05056">
        <ele>382</ele>
        <time>2013-04-03T12:34:33Z</time>
      </trkpt>
      <trkpt lat="44.32451" lon="4.05056">
        <ele>382</ele>
        <time>2013-04-03T12:34:36Z</time>
      </trkpt>
      <trkpt lat="44.32451" lon="4.05056">
        <ele>382</ele>
        <time>2013-04-03T12:34:38Z</time>
      </trkpt>
      <trkpt lat="44.32451" lon="4.05056">
        <ele>382</ele>
        <time>2013-04-03T12:34:40Z</time>
      </trkpt>
      <trkpt lat="44.32451" lon="4.05056">
        <ele>382</ele>
        <time>2013-04-03T12:34:42Z</time>
      </trkpt>
      <trkpt lat="44.32451" lon="4.05056">
        <ele>382</ele>
        <time>2013-04-03T12:34:44Z</time>
      </trkpt>
      <trkpt lat="44.32452" lon="4.05056">
        <ele>382</ele>
        <time>2013-04-03T12:34:46Z</time>
      </trkpt>
      <trkpt lat="44.32452" lon="4.05056">
        <ele>382</ele>
        <time>2013-04-03T12:34:48Z</time>
      </trkpt>
      <trkpt lat="44.32452" lon="4.05056">
        <ele>382</ele>
        <time>2013-04-03T12:34:50Z</time>
      </trkpt>
      <trkpt lat="44.32452" lon="4.05056">
        <ele>382</ele>
        <time>2013-04-03T12:34:52Z</time>
      </trkpt>
      <trkpt lat="44.32452" lon="4.05056">
        <ele>382</ele>
        <time>2013-04-03T12:34:54Z</time>
      </trkpt>
      <trkpt lat="44.32453" lon="4.05056">
        <ele>382</ele>
        <time>2013-04-03T12:34:56Z</time>
      </trkpt>
      <trkpt lat="44.32453" lon="4.05056">
        <ele>382</ele>
        <time>2013-04-03T12:34:58Z</time>
      </trkpt>
      <trkpt lat="44.32453" lon="4.05056">
        <ele>382</ele>
        <time>2013-04-03T12:35:00Z</time>
      </trkpt>
      <trkpt lat="44.32453" lon="4.05056">
        <ele>382</ele>
        <time>2013-04-03T12:35:02Z</time>
      </trkpt>
      <trkpt lat="44.32453" lon="4.05056">
        <ele>382</ele>
        <time>2013-04-03T12:35:04Z</time>
      </trkpt>
      <trkpt lat="44.32453" lon="4.05056">
        <ele>382</ele>
        <time>2013-04-03T12:35:06Z</time>
      </trkpt>
      <trkpt lat="44.32452" lon="4.05055">
        <ele>382</ele>
        <time>2013-04-03T12:35:08Z</time>
      </trkpt>
      <trkpt lat="44.32452" lon="4.05055">
        <ele>382</ele>
        <time>2013-04-03T12:35:10Z</time>
      </trkpt>
      <trkpt lat="44.32452" lon="4.05055">
        <ele>381</ele>
        <time>2013-04-03T12:35:12Z</time>
      </trkpt>
      <trkpt lat="44.32452" lon="4.05055">
        <ele>381</ele>
        <time>2013-04-03T12:35:14Z</time>
      </trkpt>
      <trkpt lat="44.32452" lon="4.05055">
        <ele>381</ele>
        <time>2013-04-03T12:35:16Z</time>
      </trkpt>
      <trkpt lat="44.32452" lon="4.05055">
        <ele>381</ele>
        <time>2013-04-03T12:35:18Z</time>
      </trkpt>
      <trkpt lat="44.32452" lon="4.05055">
        <ele>381</ele>
        <time>2013-04-03T12:35:20Z</time>
      </trkpt>
      <trkpt lat="44.32452" lon="4.05054">
        <ele>381</ele>
        <time>2013-04-03T12:35:22Z</time>
      </trkpt>
      <trkpt lat="44.32452" lon="4.05054">
        <ele>381</ele>
        <time>2013-04-03T12:35:24Z</time>
      </trkpt>
      <trkpt lat="44.32453" lon="4.05054">
        <ele>381</ele>
        <time>2013-04-03T12:35:26Z</time>
      </trkpt>
      <trkpt lat="44.32454" lon="4.05055">
        <ele>381</ele>
        <time>2013-04-03T12:35:28Z</time>
      </trkpt>
      <trkpt lat="44.32454" lon="4.05055">
        <ele>381</ele>
        <time>2013-04-03T12:35:30Z</time>
      </trkpt>
      <trkpt lat="44.32454" lon="4.05055">
        <ele>381</ele>
        <time>2013-04-03T12:35:32Z</time>
      </trkpt>
      <trkpt lat="44.32454" lon="4.05055">
        <ele>381</ele>
        <time>2013-04-03T12:35:34Z</time>
      </trkpt>
      <trkpt lat="44.32454" lon="4.05055">
        <ele>381</ele>
        <time>2013-04-03T12:35:35Z</time>
      </trkpt>
      <trkpt lat="44.32454" lon="4.05055">
        <ele>381</ele>
        <time>2013-04-03T12:35:38Z</time>
      </trkpt>
      <trkpt lat="44.32454" lon="4.05055">
        <ele>381</ele>
        <time>2013-04-03T12:35:40Z</time>
      </trkpt>
      <trkpt lat="44.32454" lon="4.05055">
        <ele>381</ele>
        <time>2013-04-03T12:35:42Z</time>
      </trkpt>
      <trkpt lat="44.32454" lon="4.05055">
        <ele>381</ele>
        <time>2013-04-03T12:35:44Z</time>
      </trkpt>
      <trkpt lat="44.32454" lon="4.05055">
        <ele>381</ele>
        <time>2013-04-03T12:35:46Z</time>
      </trkpt>
      <trkpt lat="44.32454" lon="4.05055">
        <ele>381</ele>
        <time>2013-04-03T12:35:48Z</time>
      </trkpt>
      <trkpt lat="44.32454" lon="4.05055">
        <ele>381</ele>
        <time>2013-04-03T12:35:50Z</time>
      </trkpt>
      <trkpt lat="44.32454" lon="4.05055">
        <ele>381</ele>
        <time>2013-04-03T12:35:52Z</time>
      </trkpt>
      <trkpt lat="44.32454" lon="4.05055">
        <ele>381</ele>
        <time>2013-04-03T12:35:54Z</time>
      </trkpt>
      <trkpt lat="44.32454" lon="4.05055">
        <ele>381</ele>
        <time>2013-04-03T12:35:56Z</time>
      </trkpt>
      <trkpt lat="44.32454" lon="4.05055">
        <ele>381</ele>
        <time>2013-04-03T12:35:58Z</time>
      </trkpt>
      <trkpt lat="44.32454" lon="4.05055">
        <ele>381</ele>
        <time>2013-04-03T12:36:00Z</time>
      </trkpt>
      <trkpt lat="44.32455" lon="4.05055">
        <ele>381</ele>
        <time>2013-04-03T12:36:02Z</time>
      </trkpt>
      <trkpt lat="44.32456" lon="4.05056">
        <ele>382</ele>
        <time>2013-04-03T12:36:04Z</time>
      </trkpt>
      <trkpt lat="44.32457" lon="4.05056">
        <ele>382</ele>
        <time>2013-04-03T12:36:06Z</time>
      </trkpt>
      <trkpt lat="44.32459" lon="4.05057">
        <ele>384</ele>
        <time>2013-04-03T12:36:08Z</time>
      </trkpt>
      <trkpt lat="44.3246" lon="4.05057">
        <ele>384</ele>
        <time>2013-04-03T12:36:10Z</time>
      </trkpt>
      <trkpt lat="44.32463" lon="4.05057">
        <ele>384</ele>
        <time>2013-04-03T12:36:12Z</time>
      </trkpt>
      <trkpt lat="44.32465" lon="4.05058">
        <ele>383</ele>
        <time>2013-04-03T12:36:14Z</time>
      </trkpt>
      <trkpt lat="44.32467" lon="4.05058">
        <ele>384</ele>
        <time>2013-04-03T12:36:16Z</time>
      </trkpt>
      <trkpt lat="44.32469" lon="4.05059">
        <ele>383</ele>
        <time>2013-04-03T12:36:18Z</time>
      </trkpt>
      <trkpt lat="44.32471" lon="4.05059">
        <ele>383</ele>
        <time>2013-04-03T12:36:20Z</time>
      </trkpt>
      <trkpt lat="44.32473" lon="4.05059">
        <ele>383</ele>
        <time>2013-04-03T12:36:22Z</time>
      </trkpt>
      <trkpt lat="44.32474" lon="4.05058">
        <ele>382</ele>
        <time>2013-04-03T12:36:24Z</time>
      </trkpt>
      <trkpt lat="44.32476" lon="4.05058">
        <ele>382</ele>
        <time>2013-04-03T12:36:26Z</time>
      </trkpt>
      <trkpt lat="44.32478" lon="4.05058">
        <ele>382</ele>
        <time>2013-04-03T12:36:28Z</time>
      </trkpt>
      <trkpt lat="44.32481" lon="4.05058">
        <ele>382</ele>
        <time>2013-04-03T12:36:30Z</time>
      </trkpt>
      <trkpt lat="44.32483" lon="4.05059">
        <ele>382</ele>
        <time>2013-04-03T12:36:32Z</time>
      </trkpt>
      <trkpt lat="44.32486" lon="4.05059">
        <ele>381</ele>
        <time>2013-04-03T12:36:34Z</time>
      </trkpt>
      <trkpt lat="44.32487" lon="4.05059">
        <ele>381</ele>
        <time>2013-04-03T12:36:36Z</time>
      </trkpt>
      <trkpt lat="44.32488" lon="4.05059">
        <ele>381</ele>
        <time>2013-04-03T12:36:37Z</time>
      </trkpt>
      <trkpt lat="44.32492" lon="4.0506">
        <ele>381</ele>
        <time>2013-04-03T12:36:40Z</time>
      </trkpt>
      <trkpt lat="44.32494" lon="4.0506">
        <ele>381</ele>
        <time>2013-04-03T12:36:42Z</time>
      </trkpt>
      <trkpt lat="44.32495" lon="4.0506">
        <ele>381</ele>
        <time>2013-04-03T12:36:44Z</time>
      </trkpt>
      <trkpt lat="44.32497" lon="4.0506">
        <ele>381</ele>
        <time>2013-04-03T12:36:46Z</time>
      </trkpt>
      <trkpt lat="44.32499" lon="4.0506">
        <ele>382</ele>
        <time>2013-04-03T12:36:48Z</time>
      </trkpt>
      <trkpt lat="44.32501" lon="4.05059">
        <ele>382</ele>
        <time>2013-04-03T12:36:50Z</time>
      </trkpt>
      <trkpt lat="44.32503" lon="4.05058">
        <ele>383</ele>
        <time>2013-04-03T12:36:52Z</time>
      </trkpt>
      <trkpt lat="44.32506" lon="4.05058">
        <ele>383</ele>
        <time>2013-04-03T12:36:54Z</time>
      </trkpt>
      <trkpt lat="44.32509" lon="4.05058">
        <ele>383</ele>
        <time>2013-04-03T12:36:56Z</time>
      </trkpt>
      <trkpt lat="44.32511" lon="4.05058">
        <ele>382</ele>
        <time>2013-04-03T12:36:58Z</time>
      </trkpt>
      <trkpt lat="44.32512" lon="4.05058">
        <ele>382</ele>
        <time>2013-04-03T12:37:00Z</time>
      </trkpt>
      <trkpt lat="44.32514" lon="4.05058">
        <ele>383</ele>
        <time>2013-04-03T12:37:02Z</time>
      </trkpt>
      <trkpt lat="44.32516" lon="4.05059">
        <ele>382</ele>
        <time>2013-04-03T12:37:04Z</time>
      </trkpt>
      <trkpt lat="44.32517" lon="4.05059">
        <ele>383</ele>
        <time>2013-04-03T12:37:06Z</time>
      </trkpt>
      <trkpt lat="44.32519" lon="4.0506">
        <ele>383</ele>
        <time>2013-04-03T12:37:08Z</time>
      </trkpt>
      <trkpt lat="44.32521" lon="4.05061">
        <ele>383</ele>
        <time>2013-04-03T12:37:10Z</time>
      </trkpt>
      <trkpt lat="44.32522" lon="4.05063">
        <ele>383</ele>
        <time>2013-04-03T12:37:12Z</time>
      </trkpt>
      <trkpt lat="44.32524" lon="4.05064">
        <ele>383</ele>
        <time>2013-04-03T12:37:14Z</time>
      </trkpt>
      <trkpt lat="44.32526" lon="4.05066">
        <ele>383</ele>
        <time>2013-04-03T12:37:16Z</time>
      </trkpt>
      <trkpt lat="44.32528" lon="4.05067">
        <ele>383</ele>
        <time>2013-04-03T12:37:18Z</time>
      </trkpt>
      <trkpt lat="44.3253" lon="4.05069">
        <ele>383</ele>
        <time>2013-04-03T12:37:20Z</time>
      </trkpt>
      <trkpt lat="44.32531" lon="4.0507">
        <ele>384</ele>
        <time>2013-04-03T12:37:22Z</time>
      </trkpt>
      <trkpt lat="44.32533" lon="4.05072">
        <ele>385</ele>
        <time>2013-04-03T12:37:24Z</time>
      </trkpt>
      <trkpt lat="44.32536" lon="4.05073">
        <ele>385</ele>
        <time>2013-04-03T12:37:26Z</time>
      </trkpt>
      <trkpt lat="44.32538" lon="4.05073">
        <ele>385</ele>
        <time>2013-04-03T12:37:28Z</time>
      </trkpt>
      <trkpt lat="44.3254" lon="4.05072">
        <ele>386</ele>
        <time>2013-04-03T12:37:30Z</time>
      </trkpt>
      <trkpt lat="44.32542" lon="4.05072">
        <ele>386</ele>
        <time>2013-04-03T12:37:32Z</time>
      </trkpt>
      <trkpt lat="44.32544" lon="4.0507">
        <ele>386</ele>
        <time>2013-04-03T12:37:34Z</time>
      </trkpt>
      <trkpt lat="44.32546" lon="4.05069">
        <ele>386</ele>
        <time>2013-04-03T12:37:36Z</time>
      </trkpt>
      <trkpt lat="44.32548" lon="4.05068">
        <ele>386</ele>
        <time>2013-04-03T12:37:38Z</time>
      </trkpt>
      <trkpt lat="44.3255" lon="4.05069">
        <ele>386</ele>
        <time>2013-04-03T12:37:39Z</time>
      </trkpt>
      <trkpt lat="44.32553" lon="4.0507">
        <ele>387</ele>
        <time>2013-04-03T12:37:42Z</time>
      </trkpt>
      <trkpt lat="44.32555" lon="4.05069">
        <ele>388</ele>
        <time>2013-04-03T12:37:44Z</time>
      </trkpt>
      <trkpt lat="44.32557" lon="4.05069">
        <ele>388</ele>
        <time>2013-04-03T12:37:46Z</time>
      </trkpt>
      <trkpt lat="44.32559" lon="4.0507">
        <ele>387</ele>
        <time>2013-04-03T12:37:48Z</time>
      </trkpt>
      <trkpt lat="44.3256" lon="4.05069">
        <ele>388</ele>
        <time>2013-04-03T12:37:50Z</time>
      </trkpt>
      <trkpt lat="44.32563" lon="4.0507">
        <ele>387</ele>
        <time>2013-04-03T12:37:52Z</time>
      </trkpt>
      <trkpt lat="44.32565" lon="4.0507">
        <ele>388</ele>
        <time>2013-04-03T12:37:54Z</time>
      </trkpt>
      <trkpt lat="44.32567" lon="4.05072">
        <ele>387</ele>
        <time>2013-04-03T12:37:56Z</time>
      </trkpt>
      <trkpt lat="44.32568" lon="4.05074">
        <ele>388</ele>
        <time>2013-04-03T12:37:58Z</time>
      </trkpt>
      <trkpt lat="44.32571" lon="4.05074">
        <ele>388</ele>
        <time>2013-04-03T12:38:00Z</time>
      </trkpt>
      <trkpt lat="44.32573" lon="4.05074">
        <ele>387</ele>
        <time>2013-04-03T12:38:02Z</time>
      </trkpt>
      <trkpt lat="44.32575" lon="4.05075">
        <ele>387</ele>
        <time>2013-04-03T12:38:04Z</time>
      </trkpt>
      <trkpt lat="44.32577" lon="4.05076">
        <ele>387</ele>
        <time>2013-04-03T12:38:06Z</time>
      </trkpt>
      <trkpt lat="44.32579" lon="4.05077">
        <ele>387</ele>
        <time>2013-04-03T12:38:08Z</time>
      </trkpt>
      <trkpt lat="44.32581" lon="4.05077">
        <ele>387</ele>
        <time>2013-04-03T12:38:10Z</time>
      </trkpt>
      <trkpt lat="44.32582" lon="4.05077">
        <ele>387</ele>
        <time>2013-04-03T12:38:12Z</time>
      </trkpt>
      <trkpt lat="44.32584" lon="4.05078">
        <ele>386</ele>
        <time>2013-04-03T12:38:14Z</time>
      </trkpt>
      <trkpt lat="44.32586" lon="4.05079">
        <ele>386</ele>
        <time>2013-04-03T12:38:16Z</time>
      </trkpt>
      <trkpt lat="44.32588" lon="4.0508">
        <ele>385</ele>
        <time>2013-04-03T12:38:18Z</time>
      </trkpt>
      <trkpt lat="44.32589" lon="4.05081">
        <ele>385</ele>
        <time>2013-04-03T12:38:20Z</time>
      </trkpt>
      <trkpt lat="44.3259" lon="4.05082">
        <ele>385</ele>
        <time>2013-04-03T12:38:22Z</time>
      </trkpt>
      <trkpt lat="44.32592" lon="4.05082">
        <ele>386</ele>
        <time>2013-04-03T12:38:24Z</time>
      </trkpt>
      <trkpt lat="44.32594" lon="4.05082">
        <ele>385</ele>
        <time>2013-04-03T12:38:26Z</time>
      </trkpt>
      <trkpt lat="44.32595" lon="4.05084">
        <ele>386</ele>
        <time>2013-04-03T12:38:28Z</time>
      </trkpt>
      <trkpt lat="44.32597" lon="4.05084">
        <ele>386</ele>
        <time>2013-04-03T12:38:30Z</time>
      </trkpt>
      <trkpt lat="44.32598" lon="4.05085">
        <ele>386</ele>
        <time>2013-04-03T12:38:32Z</time>
      </trkpt>
      <trkpt lat="44.32599" lon="4.05086">
        <ele>386</ele>
        <time>2013-04-03T12:38:34Z</time>
      </trkpt>
      <trkpt lat="44.32601" lon="4.05088">
        <ele>386</ele>
        <time>2013-04-03T12:38:36Z</time>
      </trkpt>
      <trkpt lat="44.32604" lon="4.05089">
        <ele>385</ele>
        <time>2013-04-03T12:38:38Z</time>
      </trkpt>
      <trkpt lat="44.32605" lon="4.0509">
        <ele>386</ele>
        <time>2013-04-03T12:38:40Z</time>
      </trkpt>
      <trkpt lat="44.32606" lon="4.0509">
        <ele>386</ele>
        <time>2013-04-03T12:38:41Z</time>
      </trkpt>
      <trkpt lat="44.32609" lon="4.05092">
        <ele>386</ele>
        <time>2013-04-03T12:38:44Z</time>
      </trkpt>
      <trkpt lat="44.3261" lon="4.05093">
        <ele>386</ele>
        <time>2013-04-03T12:38:46Z</time>
      </trkpt>
      <trkpt lat="44.32612" lon="4.05093">
        <ele>386</ele>
        <time>2013-04-03T12:38:48Z</time>
      </trkpt>
      <trkpt lat="44.32613" lon="4.05094">
        <ele>386</ele>
        <time>2013-04-03T12:38:50Z</time>
      </trkpt>
      <trkpt lat="44.32614" lon="4.05094">
        <ele>386</ele>
        <time>2013-04-03T12:38:52Z</time>
      </trkpt>
      <trkpt lat="44.32616" lon="4.05095">
        <ele>386</ele>
        <time>2013-04-03T12:38:54Z</time>
      </trkpt>
      <trkpt lat="44.32618" lon="4.05096">
        <ele>387</ele>
        <time>2013-04-03T12:38:56Z</time>
      </trkpt>
      <trkpt lat="44.3262" lon="4.05096">
        <ele>386</ele>
        <time>2013-04-03T12:38:58Z</time>
      </trkpt>
      <trkpt lat="44.32622" lon="4.05098">
        <ele>386</ele>
        <time>2013-04-03T12:39:00Z</time>
      </trkpt>
      <trkpt lat="44.32624" lon="4.05099">
        <ele>385</ele>
        <time>2013-04-03T12:39:02Z</time>
      </trkpt>
      <trkpt lat="44.32625" lon="4.05099">
        <ele>386</ele>
        <time>2013-04-03T12:39:04Z</time>
      </trkpt>
      <trkpt lat="44.32627" lon="4.05099">
        <ele>386</ele>
        <time>2013-04-03T12:39:06Z</time>
      </trkpt>
      <trkpt lat="44.32629" lon="4.05099">
        <ele>386</ele>
        <time>2013-04-03T12:39:08Z</time>
      </trkpt>
      <trkpt lat="44.3263" lon="4.051">
        <ele>386</ele>
        <time>2013-04-03T12:39:10Z</time>
      </trkpt>
      <trkpt lat="44.32631" lon="4.051">
        <ele>386</ele>
        <time>2013-04-03T12:39:12Z</time>
      </trkpt>
      <trkpt lat="44.32633" lon="4.051">
        <ele>387</ele>
        <time>2013-04-03T12:39:14Z</time>
      </trkpt>
      <trkpt lat="44.32634" lon="4.05101">
        <ele>387</ele>
        <time>2013-04-03T12:39:16Z</time>
      </trkpt>
      <trkpt lat="44.32635" lon="4.05102">
        <ele>387</ele>
        <time>2013-04-03T12:39:18Z</time>
      </trkpt>
      <trkpt lat="44.32636" lon="4.05103">
        <ele>386</ele>
        <time>2013-04-03T12:39:20Z</time>
      </trkpt>
      <trkpt lat="44.32637" lon="4.05103">
        <ele>386</ele>
        <time>2013-04-03T12:39:22Z</time>
      </trkpt>
      <trkpt lat="44.32638" lon="4.05104">
        <ele>386</ele>
        <time>2013-04-03T12:39:24Z</time>
      </trkpt>
      <trkpt lat="44.32639" lon="4.05104">
        <ele>385</ele>
        <time>2013-04-03T12:39:26Z</time>
      </trkpt>
      <trkpt lat="44.3264" lon="4.05105">
        <ele>385</ele>
        <time>2013-04-03T12:39:28Z</time>
      </trkpt>
      <trkpt lat="44.32641" lon="4.05107">
        <ele>385</ele>
        <time>2013-04-03T12:39:30Z</time>
      </trkpt>
      <trkpt lat="44.32641" lon="4.05107">
        <ele>385</ele>
        <time>2013-04-03T12:39:32Z</time>
      </trkpt>
      <trkpt lat="44.32643" lon="4.05108">
        <ele>384</ele>
        <time>2013-04-03T12:39:34Z</time>
      </trkpt>
      <trkpt lat="44.32644" lon="4.05109">
        <ele>384</ele>
        <time>2013-04-03T12:39:36Z</time>
      </trkpt>
      <trkpt lat="44.32645" lon="4.0511">
        <ele>384</ele>
        <time>2013-04-03T12:39:38Z</time>
      </trkpt>
      <trkpt lat="44.32647" lon="4.05111">
        <ele>384</ele>
        <time>2013-04-03T12:39:40Z</time>
      </trkpt>
      <trkpt lat="44.32648" lon="4.05112">
        <ele>383</ele>
        <time>2013-04-03T12:39:42Z</time>
      </trkpt>
      <trkpt lat="44.32649" lon="4.05112">
        <ele>383</ele>
        <time>2013-04-03T12:39:43Z</time>
      </trkpt>
      <trkpt lat="44.3265" lon="4.05113">
        <ele>383</ele>
        <time>2013-04-03T12:39:46Z</time>
      </trkpt>
      <trkpt lat="44.32652" lon="4.05114">
        <ele>384</ele>
        <time>2013-04-03T12:39:48Z</time>
      </trkpt>
      <trkpt lat="44.32654" lon="4.05116">
        <ele>384</ele>
        <time>2013-04-03T12:39:50Z</time>
      </trkpt>
      <trkpt lat="44.32656" lon="4.05118">
        <ele>383</ele>
        <time>2013-04-03T12:39:52Z</time>
      </trkpt>
      <trkpt lat="44.32657" lon="4.05119">
        <ele>383</ele>
        <time>2013-04-03T12:39:54Z</time>
      </trkpt>
      <trkpt lat="44.32658" lon="4.05121">
        <ele>383</ele>
        <time>2013-04-03T12:39:56Z</time>
      </trkpt>
      <trkpt lat="44.3266" lon="4.05121">
        <ele>382</ele>
        <time>2013-04-03T12:39:58Z</time>
      </trkpt>
      <trkpt lat="44.3266" lon="4.05121">
        <ele>383</ele>
        <time>2013-04-03T12:40:00Z</time>
      </trkpt>
      <trkpt lat="44.32661" lon="4.05122">
        <ele>382</ele>
        <time>2013-04-03T12:40:02Z</time>
      </trkpt>
      <trkpt lat="44.32664" lon="4.05122">
        <ele>382</ele>
        <time>2013-04-03T12:40:04Z</time>
      </trkpt>
      <trkpt lat="44.32666" lon="4.05122">
        <ele>382</ele>
        <time>2013-04-03T12:40:06Z</time>
      </trkpt>
      <trkpt lat="44.32668" lon="4.05122">
        <ele>382</ele>
        <time>2013-04-03T12:40:08Z</time>
      </trkpt>
      <trkpt lat="44.3267" lon="4.05122">
        <ele>381</ele>
        <time>2013-04-03T12:40:10Z</time>
      </trkpt>
      <trkpt lat="44.32672" lon="4.05122">
        <ele>381</ele>
        <time>2013-04-03T12:40:12Z</time>
      </trkpt>
      <trkpt lat="44.32674" lon="4.05123">
        <ele>382</ele>
        <time>2013-04-03T12:40:14Z</time>
      </trkpt>
      <trkpt lat="44.32675" lon="4.05124">
        <ele>382</ele>
        <time>2013-04-03T12:40:16Z</time>
      </trkpt>
      <trkpt lat="44.32677" lon="4.05124">
        <ele>381</ele>
        <time>2013-04-03T12:40:18Z</time>
      </trkpt>
      <trkpt lat="44.32677" lon="4.05124">
        <ele>381</ele>
        <time>2013-04-03T12:40:20Z</time>
      </trkpt>
      <trkpt lat="44.32679" lon="4.05123">
        <ele>381</ele>
        <time>2013-04-03T12:40:22Z</time>
      </trkpt>
      <trkpt lat="44.32679" lon="4.05124">
        <ele>381</ele>
        <time>2013-04-03T12:40:24Z</time>
      </trkpt>
      <trkpt lat="44.32681" lon="4.05125">
        <ele>380</ele>
        <time>2013-04-03T12:40:26Z</time>
      </trkpt>
      <trkpt lat="44.32683" lon="4.05127">
        <ele>381</ele>
        <time>2013-04-03T12:40:28Z</time>
      </trkpt>
      <trkpt lat="44.32685" lon="4.05128">
        <ele>381</ele>
        <time>2013-04-03T12:40:30Z</time>
      </trkpt>
      <trkpt lat="44.32687" lon="4.05129">
        <ele>381</ele>
        <time>2013-04-03T12:40:32Z</time>
      </trkpt>
      <trkpt lat="44.32689" lon="4.0513">
        <ele>380</ele>
        <time>2013-04-03T12:40:34Z</time>
      </trkpt>
      <trkpt lat="44.32691" lon="4.0513">
        <ele>381</ele>
        <time>2013-04-03T12:40:36Z</time>
      </trkpt>
      <trkpt lat="44.32694" lon="4.0513">
        <ele>380</ele>
        <time>2013-04-03T12:40:38Z</time>
      </trkpt>
      <trkpt lat="44.32696" lon="4.05131">
        <ele>381</ele>
        <time>2013-04-03T12:40:40Z</time>
      </trkpt>
      <trkpt lat="44.32698" lon="4.05131">
        <ele>381</ele>
        <time>2013-04-03T12:40:42Z</time>
      </trkpt>
      <trkpt lat="44.32699" lon="4.05131">
        <ele>381</ele>
        <time>2013-04-03T12:40:44Z</time>
      </trkpt>
      <trkpt lat="44.327" lon="4.05132">
        <ele>381</ele>
        <time>2013-04-03T12:40:45Z</time>
      </trkpt>
      <trkpt lat="44.32702" lon="4.05133">
        <ele>382</ele>
        <time>2013-04-03T12:40:48Z</time>
      </trkpt>
      <trkpt lat="44.32703" lon="4.05134">
        <ele>382</ele>
        <time>2013-04-03T12:40:50Z</time>
      </trkpt>
      <trkpt lat="44.32704" lon="4.05135">
        <ele>382</ele>
        <time>2013-04-03T12:40:52Z</time>
      </trkpt>
      <trkpt lat="44.32705" lon="4.05137">
        <ele>381</ele>
        <time>2013-04-03T12:40:54Z</time>
      </trkpt>
      <trkpt lat="44.32706" lon="4.0514">
        <ele>382</ele>
        <time>2013-04-03T12:40:56Z</time>
      </trkpt>
      <trkpt lat="44.32707" lon="4.05142">
        <ele>381</ele>
        <time>2013-04-03T12:40:58Z</time>
      </trkpt>
      <trkpt lat="44.32708" lon="4.05145">
        <ele>381</ele>
        <time>2013-04-03T12:41:00Z</time>
      </trkpt>
      <trkpt lat="44.32708" lon="4.05147">
        <ele>381</ele>
        <time>2013-04-03T12:41:02Z</time>
      </trkpt>
      <trkpt lat="44.32708" lon="4.05149">
        <ele>382</ele>
        <time>2013-04-03T12:41:04Z</time>
      </trkpt>
      <trkpt lat="44.3271" lon="4.05151">
        <ele>382</ele>
        <time>2013-04-03T12:41:06Z</time>
      </trkpt>
      <trkpt lat="44.32711" lon="4.05153">
        <ele>383</ele>
        <time>2013-04-03T12:41:08Z</time>
      </trkpt>
      <trkpt lat="44.32713" lon="4.05154">
        <ele>383</ele>
        <time>2013-04-03T12:41:10Z</time>
      </trkpt>
      <trkpt lat="44.32716" lon="4.05155">
        <ele>384</ele>
        <time>2013-04-03T12:41:12Z</time>
      </trkpt>
      <trkpt lat="44.32718" lon="4.05156">
        <ele>383</ele>
        <time>2013-04-03T12:41:14Z</time>
      </trkpt>
      <trkpt lat="44.3272" lon="4.05157">
        <ele>383</ele>
        <time>2013-04-03T12:41:16Z</time>
      </trkpt>
      <trkpt lat="44.32722" lon="4.05156">
        <ele>383</ele>
        <time>2013-04-03T12:41:18Z</time>
      </trkpt>
      <trkpt lat="44.32723" lon="4.05156">
        <ele>383</ele>
        <time>2013-04-03T12:41:20Z</time>
      </trkpt>
      <trkpt lat="44.32724" lon="4.05156">
        <ele>383</ele>
        <time>2013-04-03T12:41:22Z</time>
      </trkpt>
      <trkpt lat="44.32727" lon="4.05155">
        <ele>383</ele>
        <time>2013-04-03T12:41:24Z</time>
      </trkpt>
      <trkpt lat="44.32729" lon="4.05155">
        <ele>383</ele>
        <time>2013-04-03T12:41:26Z</time>
      </trkpt>
      <trkpt lat="44.32731" lon="4.05155">
        <ele>382</ele>
        <time>2013-04-03T12:41:28Z</time>
      </trkpt>
      <trkpt lat="44.32732" lon="4.05155">
        <ele>382</ele>
        <time>2013-04-03T12:41:30Z</time>
      </trkpt>
      <trkpt lat="44.32734" lon="4.05154">
        <ele>383</ele>
        <time>2013-04-03T12:41:32Z</time>
      </trkpt>
      <trkpt lat="44.32735" lon="4.05154">
        <ele>382</ele>
        <time>2013-04-03T12:41:34Z</time>
      </trkpt>
      <trkpt lat="44.32737" lon="4.05154">
        <ele>383</ele>
        <time>2013-04-03T12:41:36Z</time>
      </trkpt>
      <trkpt lat="44.3274" lon="4.05154">
        <ele>382</ele>
        <time>2013-04-03T12:41:38Z</time>
      </trkpt>
      <trkpt lat="44.32743" lon="4.05154">
        <ele>381</ele>
        <time>2013-04-03T12:41:40Z</time>
      </trkpt>
      <trkpt lat="44.32745" lon="4.05154">
        <ele>381</ele>
        <time>2013-04-03T12:41:42Z</time>
      </trkpt>
      <trkpt lat="44.32748" lon="4.05154">
        <ele>381</ele>
        <time>2013-04-03T12:41:44Z</time>
      </trkpt>
      <trkpt lat="44.32749" lon="4.05154">
        <ele>381</ele>
        <time>2013-04-03T12:41:46Z</time>
      </trkpt>
      <trkpt lat="44.32751" lon="4.05155">
        <ele>380</ele>
        <time>2013-04-03T12:41:47Z</time>
      </trkpt>
      <trkpt lat="44.32754" lon="4.05155">
        <ele>380</ele>
        <time>2013-04-03T12:41:50Z</time>
      </trkpt>
      <trkpt lat="44.32755" lon="4.05154">
        <ele>380</ele>
        <time>2013-04-03T12:41:52Z</time>
      </trkpt>
      <trkpt lat="44.32756" lon="4.05154">
        <ele>380</ele>
        <time>2013-04-03T12:41:54Z</time>
      </trkpt>
      <trkpt lat="44.32758" lon="4.05154">
        <ele>379</ele>
        <time>2013-04-03T12:41:56Z</time>
      </trkpt>
      <trkpt lat="44.3276" lon="4.05153">
        <ele>379</ele>
        <time>2013-04-03T12:41:58Z</time>
      </trkpt>
      <trkpt lat="44.3276" lon="4.05153">
        <ele>379</ele>
        <time>2013-04-03T12:42:00Z</time>
      </trkpt>
      <trkpt lat="44.32761" lon="4.05153">
        <ele>379</ele>
        <time>2013-04-03T12:42:02Z</time>
      </trkpt>
      <trkpt lat="44.32763" lon="4.05152">
        <ele>379</ele>
        <time>2013-04-03T12:42:04Z</time>
      </trkpt>
      <trkpt lat="44.32765" lon="4.05151">
        <ele>379</ele>
        <time>2013-04-03T12:42:06Z</time>
      </trkpt>
      <trkpt lat="44.32768" lon="4.0515">
        <ele>378</ele>
        <time>2013-04-03T12:42:08Z</time>
      </trkpt>
      <trkpt lat="44.32769" lon="4.0515">
        <ele>378</ele>
        <time>2013-04-03T12:42:10Z</time>
      </trkpt>
      <trkpt lat="44.3277" lon="4.05148">
        <ele>378</ele>
        <time>2013-04-03T12:42:12Z</time>
      </trkpt>
      <trkpt lat="44.32772" lon="4.05147">
        <ele>377</ele>
        <time>2013-04-03T12:42:14Z</time>
      </trkpt>
      <trkpt lat="44.32774" lon="4.05146">
        <ele>377</ele>
        <time>2013-04-03T12:42:16Z</time>
      </trkpt>
      <trkpt lat="44.32777" lon="4.05146">
        <ele>377</ele>
        <time>2013-04-03T12:42:18Z</time>
      </trkpt>
      <trkpt lat="44.3278" lon="4.05145">
        <ele>376</ele>
        <time>2013-04-03T12:42:20Z</time>
      </trkpt>
      <trkpt lat="44.32782" lon="4.05145">
        <ele>375</ele>
        <time>2013-04-03T12:42:22Z</time>
      </trkpt>
      <trkpt lat="44.32784" lon="4.05145">
        <ele>375</ele>
        <time>2013-04-03T12:42:24Z</time>
      </trkpt>
      <trkpt lat="44.32785" lon="4.05145">
        <ele>375</ele>
        <time>2013-04-03T12:42:26Z</time>
      </trkpt>
      <trkpt lat="44.32787" lon="4.05147">
        <ele>374</ele>
        <time>2013-04-03T12:42:28Z</time>
      </trkpt>
      <trkpt lat="44.32789" lon="4.05149">
        <ele>374</ele>
        <time>2013-04-03T12:42:30Z</time>
      </trkpt>
      <trkpt lat="44.3279" lon="4.0515">
        <ele>373</ele>
        <time>2013-04-03T12:42:32Z</time>
      </trkpt>
      <trkpt lat="44.32793" lon="4.05151">
        <ele>372</ele>
        <time>2013-04-03T12:42:34Z</time>
      </trkpt>
      <trkpt lat="44.32795" lon="4.05153">
        <ele>373</ele>
        <time>2013-04-03T12:42:36Z</time>
      </trkpt>
      <trkpt lat="44.32797" lon="4.05155">
        <ele>373</ele>
        <time>2013-04-03T12:42:38Z</time>
      </trkpt>
      <trkpt lat="44.32799" lon="4.05157">
        <ele>373</ele>
        <time>2013-04-03T12:42:40Z</time>
      </trkpt>
      <trkpt lat="44.32801" lon="4.05158">
        <ele>372</ele>
        <time>2013-04-03T12:42:42Z</time>
      </trkpt>
      <trkpt lat="44.32804" lon="4.05158">
        <ele>373</ele>
        <time>2013-04-03T12:42:44Z</time>
      </trkpt>
      <trkpt lat="44.32806" lon="4.05158">
        <ele>374</ele>
        <time>2013-04-03T12:42:46Z</time>
      </trkpt>
      <trkpt lat="44.32809" lon="4.05159">
        <ele>374</ele>
        <time>2013-04-03T12:42:48Z</time>
      </trkpt>
      <trkpt lat="44.3281" lon="4.05159">
        <ele>373</ele>
        <time>2013-04-03T12:42:49Z</time>
      </trkpt>
      <trkpt lat="44.32811" lon="4.05161">
        <ele>373</ele>
        <time>2013-04-03T12:42:52Z</time>
      </trkpt>
      <trkpt lat="44.32813" lon="4.05161">
        <ele>373</ele>
        <time>2013-04-03T12:42:54Z</time>
      </trkpt>
      <trkpt lat="44.32816" lon="4.05162">
        <ele>372</ele>
        <time>2013-04-03T12:42:56Z</time>
      </trkpt>
      <trkpt lat="44.32818" lon="4.05162">
        <ele>372</ele>
        <time>2013-04-03T12:42:58Z</time>
      </trkpt>
      <trkpt lat="44.3282" lon="4.05162">
        <ele>373</ele>
        <time>2013-04-03T12:43:00Z</time>
      </trkpt>
      <trkpt lat="44.32822" lon="4.05162">
        <ele>373</ele>
        <time>2013-04-03T12:43:02Z</time>
      </trkpt>
      <trkpt lat="44.32825" lon="4.05163">
        <ele>373</ele>
        <time>2013-04-03T12:43:04Z</time>
      </trkpt>
      <trkpt lat="44.32827" lon="4.05163">
        <ele>372</ele>
        <time>2013-04-03T12:43:06Z</time>
      </trkpt>
      <trkpt lat="44.32829" lon="4.05164">
        <ele>371</ele>
        <time>2013-04-03T12:43:08Z</time>
      </trkpt>
      <trkpt lat="44.3283" lon="4.05164">
        <ele>371</ele>
        <time>2013-04-03T12:43:10Z</time>
      </trkpt>
      <trkpt lat="44.32832" lon="4.05164">
        <ele>370</ele>
        <time>2013-04-03T12:43:12Z</time>
      </trkpt>
      <trkpt lat="44.32835" lon="4.05165">
        <ele>371</ele>
        <time>2013-04-03T12:43:14Z</time>
      </trkpt>
      <trkpt lat="44.32837" lon="4.05165">
        <ele>371</ele>
        <time>2013-04-03T12:43:16Z</time>
      </trkpt>
      <trkpt lat="44.3284" lon="4.05164">
        <ele>371</ele>
        <time>2013-04-03T12:43:18Z</time>
      </trkpt>
      <trkpt lat="44.32842" lon="4.05165">
        <ele>370</ele>
        <time>2013-04-03T12:43:20Z</time>
      </trkpt>
      <trkpt lat="44.32845" lon="4.05164">
        <ele>370</ele>
        <time>2013-04-03T12:43:22Z</time>
      </trkpt>
      <trkpt lat="44.32846" lon="4.05164">
        <ele>371</ele>
        <time>2013-04-03T12:43:24Z</time>
      </trkpt>
      <trkpt lat="44.32848" lon="4.05164">
        <ele>370</ele>
        <time>2013-04-03T12:43:26Z</time>
      </trkpt>
      <trkpt lat="44.3285" lon="4.05164">
        <ele>370</ele>
        <time>2013-04-03T12:43:28Z</time>
      </trkpt>
      <trkpt lat="44.32853" lon="4.05164">
        <ele>370</ele>
        <time>2013-04-03T12:43:30Z</time>
      </trkpt>
      <trkpt lat="44.32855" lon="4.05165">
        <ele>369</ele>
        <time>2013-04-03T12:43:32Z</time>
      </trkpt>
      <trkpt lat="44.32856" lon="4.05165">
        <ele>369</ele>
        <time>2013-04-03T12:43:34Z</time>
      </trkpt>
      <trkpt lat="44.32857" lon="4.05163">
        <ele>369</ele>
        <time>2013-04-03T12:43:36Z</time>
      </trkpt>
      <trkpt lat="44.32857" lon="4.05162">
        <ele>369</ele>
        <time>2013-04-03T12:43:38Z</time>
      </trkpt>
      <trkpt lat="44.32858" lon="4.05161">
        <ele>369</ele>
        <time>2013-04-03T12:43:40Z</time>
      </trkpt>
      <trkpt lat="44.32859" lon="4.0516">
        <ele>369</ele>
        <time>2013-04-03T12:43:42Z</time>
      </trkpt>
      <trkpt lat="44.3286" lon="4.05159">
        <ele>369</ele>
        <time>2013-04-03T12:43:44Z</time>
      </trkpt>
      <trkpt lat="44.32863" lon="4.05159">
        <ele>369</ele>
        <time>2013-04-03T12:43:46Z</time>
      </trkpt>
      <trkpt lat="44.32865" lon="4.05158">
        <ele>369</ele>
        <time>2013-04-03T12:43:48Z</time>
      </trkpt>
      <trkpt lat="44.32867" lon="4.05157">
        <ele>369</ele>
        <time>2013-04-03T12:43:50Z</time>
      </trkpt>
      <trkpt lat="44.32868" lon="4.05156">
        <ele>370</ele>
        <time>2013-04-03T12:43:51Z</time>
      </trkpt>
      <trkpt lat="44.32872" lon="4.05156">
        <ele>369</ele>
        <time>2013-04-03T12:43:54Z</time>
      </trkpt>
      <trkpt lat="44.32875" lon="4.05155">
        <ele>369</ele>
        <time>2013-04-03T12:43:56Z</time>
      </trkpt>
      <trkpt lat="44.32877" lon="4.05154">
        <ele>368</ele>
        <time>2013-04-03T12:43:58Z</time>
      </trkpt>
      <trkpt lat="44.32879" lon="4.05153">
        <ele>368</ele>
        <time>2013-04-03T12:44:00Z</time>
      </trkpt>
      <trkpt lat="44.32882" lon="4.05151">
        <ele>369</ele>
        <time>2013-04-03T12:44:02Z</time>
      </trkpt>
      <trkpt lat="44.32884" lon="4.0515">
        <ele>369</ele>
        <time>2013-04-03T12:44:04Z</time>
      </trkpt>
      <trkpt lat="44.32886" lon="4.05149">
        <ele>368</ele>
        <time>2013-04-03T12:44:06Z</time>
      </trkpt>
      <trkpt lat="44.32888" lon="4.05149">
        <ele>368</ele>
        <time>2013-04-03T12:44:08Z</time>
      </trkpt>
      <trkpt lat="44.32891" lon="4.05147">
        <ele>368</ele>
        <time>2013-04-03T12:44:10Z</time>
      </trkpt>
      <trkpt lat="44.32893" lon="4.05147">
        <ele>368</ele>
        <time>2013-04-03T12:44:12Z</time>
      </trkpt>
      <trkpt lat="44.32896" lon="4.05146">
        <ele>367</ele>
        <time>2013-04-03T12:44:14Z</time>
      </trkpt>
      <trkpt lat="44.32898" lon="4.05145">
        <ele>367</ele>
        <time>2013-04-03T12:44:16Z</time>
      </trkpt>
      <trkpt lat="44.329" lon="4.05145">
        <ele>366</ele>
        <time>2013-04-03T12:44:18Z</time>
      </trkpt>
      <trkpt lat="44.32902" lon="4.05145">
        <ele>366</ele>
        <time>2013-04-03T12:44:20Z</time>
      </trkpt>
      <trkpt lat="44.32905" lon="4.05144">
        <ele>366</ele>
        <time>2013-04-03T12:44:22Z</time>
      </trkpt>
      <trkpt lat="44.32907" lon="4.05142">
        <ele>366</ele>
        <time>2013-04-03T12:44:24Z</time>
      </trkpt>
      <trkpt lat="44.32909" lon="4.05141">
        <ele>365</ele>
        <time>2013-04-03T12:44:26Z</time>
      </trkpt>
      <trkpt lat="44.32912" lon="4.05141">
        <ele>365</ele>
        <time>2013-04-03T12:44:28Z</time>
      </trkpt>
      <trkpt lat="44.32915" lon="4.05141">
        <ele>365</ele>
        <time>2013-04-03T12:44:30Z</time>
      </trkpt>
      <trkpt lat="44.32918" lon="4.05139">
        <ele>364</ele>
        <time>2013-04-03T12:44:32Z</time>
      </trkpt>
      <trkpt lat="44.3292" lon="4.05138">
        <ele>364</ele>
        <time>2013-04-03T12:44:34Z</time>
      </trkpt>
      <trkpt lat="44.32922" lon="4.05137">
        <ele>364</ele>
        <time>2013-04-03T12:44:36Z</time>
      </trkpt>
      <trkpt lat="44.32924" lon="4.05137">
        <ele>364</ele>
        <time>2013-04-03T12:44:38Z</time>
      </trkpt>
      <trkpt lat="44.32926" lon="4.05136">
        <ele>363</ele>
        <time>2013-04-03T12:44:40Z</time>
      </trkpt>
      <trkpt lat="44.32928" lon="4.05135">
        <ele>362</ele>
        <time>2013-04-03T12:44:42Z</time>
      </trkpt>
      <trkpt lat="44.3293" lon="4.05133">
        <ele>363</ele>
        <time>2013-04-03T12:44:44Z</time>
      </trkpt>
      <trkpt lat="44.32932" lon="4.05132">
        <ele>363</ele>
        <time>2013-04-03T12:44:46Z</time>
      </trkpt>
      <trkpt lat="44.32934" lon="4.05132">
        <ele>363</ele>
        <time>2013-04-03T12:44:48Z</time>
      </trkpt>
      <trkpt lat="44.32937" lon="4.05131">
        <ele>363</ele>
        <time>2013-04-03T12:44:50Z</time>
      </trkpt>
      <trkpt lat="44.32939" lon="4.05131">
        <ele>362</ele>
        <time>2013-04-03T12:44:52Z</time>
      </trkpt>
      <trkpt lat="44.3294" lon="4.0513">
        <ele>362</ele>
        <time>2013-04-03T12:44:53Z</time>
      </trkpt>
      <trkpt lat="44.32943" lon="4.05128">
        <ele>363</ele>
        <time>2013-04-03T12:44:56Z</time>
      </trkpt>
      <trkpt lat="44.32945" lon="4.05127">
        <ele>364</ele>
        <time>2013-04-03T12:44:58Z</time>
      </trkpt>
      <trkpt lat="44.32947" lon="4.05126">
        <ele>364</ele>
        <time>2013-04-03T12:45:00Z</time>
      </trkpt>
      <trkpt lat="44.32949" lon="4.05126">
        <ele>364</ele>
        <time>2013-04-03T12:45:02Z</time>
      </trkpt>
      <trkpt lat="44.3295" lon="4.05126">
        <ele>364</ele>
        <time>2013-04-03T12:45:04Z</time>
      </trkpt>
      <trkpt lat="44.32953" lon="4.05125">
        <ele>364</ele>
        <time>2013-04-03T12:45:06Z</time>
      </trkpt>
      <trkpt lat="44.32955" lon="4.05124">
        <ele>364</ele>
        <time>2013-04-03T12:45:08Z</time>
      </trkpt>
      <trkpt lat="44.32958" lon="4.05124">
        <ele>364</ele>
        <time>2013-04-03T12:45:10Z</time>
      </trkpt>
      <trkpt lat="44.3296" lon="4.05124">
        <ele>364</ele>
        <time>2013-04-03T12:45:12Z</time>
      </trkpt>
      <trkpt lat="44.32962" lon="4.05124">
        <ele>363</ele>
        <time>2013-04-03T12:45:14Z</time>
      </trkpt>
      <trkpt lat="44.32964" lon="4.05123">
        <ele>363</ele>
        <time>2013-04-03T12:45:16Z</time>
      </trkpt>
      <trkpt lat="44.32966" lon="4.05122">
        <ele>363</ele>
        <time>2013-04-03T12:45:18Z</time>
      </trkpt>
      <trkpt lat="44.32969" lon="4.05122">
        <ele>362</ele>
        <time>2013-04-03T12:45:20Z</time>
      </trkpt>
      <trkpt lat="44.32971" lon="4.05122">
        <ele>362</ele>
        <time>2013-04-03T12:45:22Z</time>
      </trkpt>
      <trkpt lat="44.32972" lon="4.05123">
        <ele>363</ele>
        <time>2013-04-03T12:45:24Z</time>
      </trkpt>
      <trkpt lat="44.32974" lon="4.05123">
        <ele>363</ele>
        <time>2013-04-03T12:45:26Z</time>
      </trkpt>
      <trkpt lat="44.32976" lon="4.05123">
        <ele>363</ele>
        <time>2013-04-03T12:45:28Z</time>
      </trkpt>
      <trkpt lat="44.32978" lon="4.05122">
        <ele>362</ele>
        <time>2013-04-03T12:45:30Z</time>
      </trkpt>
      <trkpt lat="44.32981" lon="4.05122">
        <ele>363</ele>
        <time>2013-04-03T12:45:32Z</time>
      </trkpt>
      <trkpt lat="44.32984" lon="4.05122">
        <ele>362</ele>
        <time>2013-04-03T12:45:34Z</time>
      </trkpt>
      <trkpt lat="44.32985" lon="4.05123">
        <ele>362</ele>
        <time>2013-04-03T12:45:36Z</time>
      </trkpt>
      <trkpt lat="44.32988" lon="4.05123">
        <ele>362</ele>
        <time>2013-04-03T12:45:38Z</time>
      </trkpt>
      <trkpt lat="44.3299" lon="4.05123">
        <ele>362</ele>
        <time>2013-04-03T12:45:40Z</time>
      </trkpt>
      <trkpt lat="44.32991" lon="4.05123">
        <ele>363</ele>
        <time>2013-04-03T12:45:42Z</time>
      </trkpt>
      <trkpt lat="44.32992" lon="4.05122">
        <ele>364</ele>
        <time>2013-04-03T12:45:44Z</time>
      </trkpt>
      <trkpt lat="44.32993" lon="4.05122">
        <ele>364</ele>
        <time>2013-04-03T12:45:46Z</time>
      </trkpt>
      <trkpt lat="44.32994" lon="4.05122">
        <ele>364</ele>
        <time>2013-04-03T12:45:48Z</time>
      </trkpt>
      <trkpt lat="44.32996" lon="4.05123">
        <ele>363</ele>
        <time>2013-04-03T12:45:50Z</time>
      </trkpt>
      <trkpt lat="44.32997" lon="4.05124">
        <ele>363</ele>
        <time>2013-04-03T12:45:52Z</time>
      </trkpt>
      <trkpt lat="44.32997" lon="4.05124">
        <ele>363</ele>
        <time>2013-04-03T12:45:54Z</time>
      </trkpt>
      <trkpt lat="44.32997" lon="4.05123">
        <ele>363</ele>
        <time>2013-04-03T12:45:55Z</time>
      </trkpt>
      <trkpt lat="44.33" lon="4.05124">
        <ele>363</ele>
        <time>2013-04-03T12:45:58Z</time>
      </trkpt>
      <trkpt lat="44.33003" lon="4.05124">
        <ele>363</ele>
        <time>2013-04-03T12:46:00Z</time>
      </trkpt>
      <trkpt lat="44.33005" lon="4.05125">
        <ele>363</ele>
        <time>2013-04-03T12:46:02Z</time>
      </trkpt>
      <trkpt lat="44.33006" lon="4.05126">
        <ele>363</ele>
        <time>2013-04-03T12:46:04Z</time>
      </trkpt>
      <trkpt lat="44.33007" lon="4.05128">
        <ele>363</ele>
        <time>2013-04-03T12:46:06Z</time>
      </trkpt>
      <trkpt lat="44.33009" lon="4.05128">
        <ele>363</ele>
        <time>2013-04-03T12:46:08Z</time>
      </trkpt>
      <trkpt lat="44.33011" lon="4.0513">
        <ele>363</ele>
        <time>2013-04-03T12:46:10Z</time>
      </trkpt>
      <trkpt lat="44.33013" lon="4.0513">
        <ele>363</ele>
        <time>2013-04-03T12:46:12Z</time>
      </trkpt>
      <trkpt lat="44.33015" lon="4.0513">
        <ele>362</ele>
        <time>2013-04-03T12:46:14Z</time>
      </trkpt>
      <trkpt lat="44.33018" lon="4.05131">
        <ele>361</ele>
        <time>2013-04-03T12:46:16Z</time>
      </trkpt>
      <trkpt lat="44.3302" lon="4.05131">
        <ele>362</ele>
        <time>2013-04-03T12:46:18Z</time>
      </trkpt>
      <trkpt lat="44.33022" lon="4.05131">
        <ele>362</ele>
        <time>2013-04-03T12:46:20Z</time>
      </trkpt>
      <trkpt lat="44.33024" lon="4.05131">
        <ele>362</ele>
        <time>2013-04-03T12:46:22Z</time>
      </trkpt>
      <trkpt lat="44.33026" lon="4.05132">
        <ele>363</ele>
        <time>2013-04-03T12:46:24Z</time>
      </trkpt>
      <trkpt lat="44.33028" lon="4.05132">
        <ele>362</ele>
        <time>2013-04-03T12:46:26Z</time>
      </trkpt>
      <trkpt lat="44.33031" lon="4.05133">
        <ele>362</ele>
        <time>2013-04-03T12:46:28Z</time>
      </trkpt>
      <trkpt lat="44.33033" lon="4.05134">
        <ele>363</ele>
        <time>2013-04-03T12:46:30Z</time>
      </trkpt>
      <trkpt lat="44.33035" lon="4.05135">
        <ele>363</ele>
        <time>2013-04-03T12:46:32Z</time>
      </trkpt>
      <trkpt lat="44.33036" lon="4.05136">
        <ele>363</ele>
        <time>2013-04-03T12:46:34Z</time>
      </trkpt>
      <trkpt lat="44.33038" lon="4.05137">
        <ele>364</ele>
        <time>2013-04-03T12:46:36Z</time>
      </trkpt>
      <trkpt lat="44.33041" lon="4.05138">
        <ele>364</ele>
        <time>2013-04-03T12:46:38Z</time>
      </trkpt>
      <trkpt lat="44.33044" lon="4.05138">
        <ele>364</ele>
        <time>2013-04-03T12:46:40Z</time>
      </trkpt>
      <trkpt lat="44.33047" lon="4.05137">
        <ele>364</ele>
        <time>2013-04-03T12:46:42Z</time>
      </trkpt>
      <trkpt lat="44.3305" lon="4.05137">
        <ele>363</ele>
        <time>2013-04-03T12:46:44Z</time>
      </trkpt>
      <trkpt lat="44.33053" lon="4.05136">
        <ele>363</ele>
        <time>2013-04-03T12:46:46Z</time>
      </trkpt>
      <trkpt lat="44.33055" lon="4.05135">
        <ele>363</ele>
        <time>2013-04-03T12:46:48Z</time>
      </trkpt>
      <trkpt lat="44.33057" lon="4.05133">
        <ele>363</ele>
        <time>2013-04-03T12:46:50Z</time>
      </trkpt>
      <trkpt lat="44.33058" lon="4.05131">
        <ele>364</ele>
        <time>2013-04-03T12:46:52Z</time>
      </trkpt>
      <trkpt lat="44.3306" lon="4.05128">
        <ele>364</ele>
        <time>2013-04-03T12:46:54Z</time>
      </trkpt>
      <trkpt lat="44.33061" lon="4.05128">
        <ele>364</ele>
        <time>2013-04-03T12:46:56Z</time>
      </trkpt>
      <trkpt lat="44.33063" lon="4.05126">
        <ele>364</ele>
        <time>2013-04-03T12:46:57Z</time>
      </trkpt>
      <trkpt lat="44.33065" lon="4.05124">
        <ele>364</ele>
        <time>2013-04-03T12:47:00Z</time>
      </trkpt>
      <trkpt lat="44.33067" lon="4.05123">
        <ele>364</ele>
        <time>2013-04-03T12:47:02Z</time>
      </trkpt>
      <trkpt lat="44.33068" lon="4.05122">
        <ele>364</ele>
        <time>2013-04-03T12:47:04Z</time>
      </trkpt>
      <trkpt lat="44.33068" lon="4.05121">
        <ele>364</ele>
        <time>2013-04-03T12:47:06Z</time>
      </trkpt>
      <trkpt lat="44.33069" lon="4.05119">
        <ele>364</ele>
        <time>2013-04-03T12:47:08Z</time>
      </trkpt>
      <trkpt lat="44.33069" lon="4.05117">
        <ele>364</ele>
        <time>2013-04-03T12:47:10Z</time>
      </trkpt>
      <trkpt lat="44.33069" lon="4.05114">
        <ele>364</ele>
        <time>2013-04-03T12:47:12Z</time>
      </trkpt>
      <trkpt lat="44.33069" lon="4.05111">
        <ele>365</ele>
        <time>2013-04-03T12:47:14Z</time>
      </trkpt>
      <trkpt lat="44.33069" lon="4.05108">
        <ele>365</ele>
        <time>2013-04-03T12:47:16Z</time>
      </trkpt>
      <trkpt lat="44.33069" lon="4.05105">
        <ele>365</ele>
        <time>2013-04-03T12:47:18Z</time>
      </trkpt>
      <trkpt lat="44.33068" lon="4.05104">
        <ele>365</ele>
        <time>2013-04-03T12:47:20Z</time>
      </trkpt>
      <trkpt lat="44.33067" lon="4.05101">
        <ele>365</ele>
        <time>2013-04-03T12:47:22Z</time>
      </trkpt>
      <trkpt lat="44.33066" lon="4.05098">
        <ele>365</ele>
        <time>2013-04-03T12:47:24Z</time>
      </trkpt>
      <trkpt lat="44.33066" lon="4.05095">
        <ele>366</ele>
        <time>2013-04-03T12:47:26Z</time>
      </trkpt>
      <trkpt lat="44.33066" lon="4.05094">
        <ele>366</ele>
        <time>2013-04-03T12:47:28Z</time>
      </trkpt>
      <trkpt lat="44.33066" lon="4.05093">
        <ele>366</ele>
        <time>2013-04-03T12:47:30Z</time>
      </trkpt>
      <trkpt lat="44.33065" lon="4.05089">
        <ele>365</ele>
        <time>2013-04-03T12:47:32Z</time>
      </trkpt>
      <trkpt lat="44.33064" lon="4.05086">
        <ele>366</ele>
        <time>2013-04-03T12:47:34Z</time>
      </trkpt>
      <trkpt lat="44.33063" lon="4.05084">
        <ele>366</ele>
        <time>2013-04-03T12:47:36Z</time>
      </trkpt>
      <trkpt lat="44.33063" lon="4.05081">
        <ele>365</ele>
        <time>2013-04-03T12:47:38Z</time>
      </trkpt>
      <trkpt lat="44.33063" lon="4.05077">
        <ele>365</ele>
        <time>2013-04-03T12:47:40Z</time>
      </trkpt>
      <trkpt lat="44.33063" lon="4.05073">
        <ele>365</ele>
        <time>2013-04-03T12:47:42Z</time>
      </trkpt>
      <trkpt lat="44.33063" lon="4.0507">
        <ele>366</ele>
        <time>2013-04-03T12:47:44Z</time>
      </trkpt>
      <trkpt lat="44.33063" lon="4.05067">
        <ele>366</ele>
        <time>2013-04-03T12:47:46Z</time>
      </trkpt>
      <trkpt lat="44.33062" lon="4.05066">
        <ele>366</ele>
        <time>2013-04-03T12:47:48Z</time>
      </trkpt>
      <trkpt lat="44.33062" lon="4.05065">
        <ele>366</ele>
        <time>2013-04-03T12:47:50Z</time>
      </trkpt>
      <trkpt lat="44.33061" lon="4.05062">
        <ele>366</ele>
        <time>2013-04-03T12:47:52Z</time>
      </trkpt>
      <trkpt lat="44.3306" lon="4.05059">
        <ele>366</ele>
        <time>2013-04-03T12:47:54Z</time>
      </trkpt>
      <trkpt lat="44.3306" lon="4.05055">
        <ele>365</ele>
        <time>2013-04-03T12:47:56Z</time>
      </trkpt>
      <trkpt lat="44.33058" lon="4.05053">
        <ele>365</ele>
        <time>2013-04-03T12:47:58Z</time>
      </trkpt>
      <trkpt lat="44.33057" lon="4.05052">
        <ele>365</ele>
        <time>2013-04-03T12:47:59Z</time>
      </trkpt>
      <trkpt lat="44.33057" lon="4.05047">
        <ele>365</ele>
        <time>2013-04-03T12:48:02Z</time>
      </trkpt>
      <trkpt lat="44.33056" lon="4.05045">
        <ele>365</ele>
        <time>2013-04-03T12:48:04Z</time>
      </trkpt>
      <trkpt lat="44.33056" lon="4.05044">
        <ele>365</ele>
        <time>2013-04-03T12:48:06Z</time>
      </trkpt>
      <trkpt lat="44.33055" lon="4.05042">
        <ele>365</ele>
        <time>2013-04-03T12:48:08Z</time>
      </trkpt>
      <trkpt lat="44.33056" lon="4.05039">
        <ele>366</ele>
        <time>2013-04-03T12:48:10Z</time>
      </trkpt>
      <trkpt lat="44.33055" lon="4.05034">
        <ele>366</ele>
        <time>2013-04-03T12:48:12Z</time>
      </trkpt>
      <trkpt lat="44.33054" lon="4.0503">
        <ele>366</ele>
        <time>2013-04-03T12:48:14Z</time>
      </trkpt>
      <trkpt lat="44.33053" lon="4.05027">
        <ele>365</ele>
        <time>2013-04-03T12:48:16Z</time>
      </trkpt>
      <trkpt lat="44.33052" lon="4.05024">
        <ele>365</ele>
        <time>2013-04-03T12:48:18Z</time>
      </trkpt>
      <trkpt lat="44.33051" lon="4.05019">
        <ele>365</ele>
        <time>2013-04-03T12:48:20Z</time>
      </trkpt>
      <trkpt lat="44.33051" lon="4.05016">
        <ele>364</ele>
        <time>2013-04-03T12:48:22Z</time>
      </trkpt>
      <trkpt lat="44.33051" lon="4.05014">
        <ele>365</ele>
        <time>2013-04-03T12:48:24Z</time>
      </trkpt>
      <trkpt lat="44.3305" lon="4.0501">
        <ele>365</ele>
        <time>2013-04-03T12:48:26Z</time>
      </trkpt>
      <trkpt lat="44.3305" lon="4.05005">
        <ele>364</ele>
        <time>2013-04-03T12:48:28Z</time>
      </trkpt>
      <trkpt lat="44.33049" lon="4.05002">
        <ele>364</ele>
        <time>2013-04-03T12:48:30Z</time>
      </trkpt>
      <trkpt lat="44.33048" lon="4.04998">
        <ele>363</ele>
        <time>2013-04-03T12:48:32Z</time>
      </trkpt>
      <trkpt lat="44.33047" lon="4.04996">
        <ele>364</ele>
        <time>2013-04-03T12:48:34Z</time>
      </trkpt>
      <trkpt lat="44.33046" lon="4.04994">
        <ele>364</ele>
        <time>2013-04-03T12:48:36Z</time>
      </trkpt>
      <trkpt lat="44.33046" lon="4.04993">
        <ele>364</ele>
        <time>2013-04-03T12:48:38Z</time>
      </trkpt>
      <trkpt lat="44.33045" lon="4.04991">
        <ele>364</ele>
        <time>2013-04-03T12:48:40Z</time>
      </trkpt>
      <trkpt lat="44.33044" lon="4.04988">
        <ele>363</ele>
        <time>2013-04-03T12:48:42Z</time>
      </trkpt>
      <trkpt lat="44.33044" lon="4.04985">
        <ele>363</ele>
        <time>2013-04-03T12:48:44Z</time>
      </trkpt>
      <trkpt lat="44.33043" lon="4.04981">
        <ele>363</ele>
        <time>2013-04-03T12:48:46Z</time>
      </trkpt>
      <trkpt lat="44.33043" lon="4.04978">
        <ele>363</ele>
        <time>2013-04-03T12:48:48Z</time>
      </trkpt>
      <trkpt lat="44.33042" lon="4.04975">
        <ele>364</ele>
        <time>2013-04-03T12:48:50Z</time>
      </trkpt>
      <trkpt lat="44.33041" lon="4.04972">
        <ele>364</ele>
        <time>2013-04-03T12:48:52Z</time>
      </trkpt>
      <trkpt lat="44.33041" lon="4.04969">
        <ele>364</ele>
        <time>2013-04-03T12:48:54Z</time>
      </trkpt>
      <trkpt lat="44.3304" lon="4.04965">
        <ele>364</ele>
        <time>2013-04-03T12:48:56Z</time>
      </trkpt>
      <trkpt lat="44.33039" lon="4.04962">
        <ele>364</ele>
        <time>2013-04-03T12:48:58Z</time>
      </trkpt>
      <trkpt lat="44.33038" lon="4.04958">
        <ele>364</ele>
        <time>2013-04-03T12:49:00Z</time>
      </trkpt>
      <trkpt lat="44.33038" lon="4.04956">
        <ele>364</ele>
        <time>2013-04-03T12:49:01Z</time>
      </trkpt>
      <trkpt lat="44.33037" lon="4.04952">
        <ele>363</ele>
        <time>2013-04-03T12:49:04Z</time>
      </trkpt>
      <trkpt lat="44.33036" lon="4.04948">
        <ele>363</ele>
        <time>2013-04-03T12:49:06Z</time>
      </trkpt>
      <trkpt lat="44.33035" lon="4.04945">
        <ele>363</ele>
        <time>2013-04-03T12:49:08Z</time>
      </trkpt>
      <trkpt lat="44.33034" lon="4.04941">
        <ele>364</ele>
        <time>2013-04-03T12:49:10Z</time>
      </trkpt>
      <trkpt lat="44.33033" lon="4.04938">
        <ele>363</ele>
        <time>2013-04-03T12:49:12Z</time>
      </trkpt>
      <trkpt lat="44.33032" lon="4.04935">
        <ele>363</ele>
        <time>2013-04-03T12:49:14Z</time>
      </trkpt>
      <trkpt lat="44.33031" lon="4.04932">
        <ele>363</ele>
        <time>2013-04-03T12:49:16Z</time>
      </trkpt>
      <trkpt lat="44.3303" lon="4.04929">
        <ele>363</ele>
        <time>2013-04-03T12:49:18Z</time>
      </trkpt>
      <trkpt lat="44.33029" lon="4.04927">
        <ele>362</ele>
        <time>2013-04-03T12:49:20Z</time>
      </trkpt>
      <trkpt lat="44.33028" lon="4.04924">
        <ele>362</ele>
        <time>2013-04-03T12:49:22Z</time>
      </trkpt>
      <trkpt lat="44.33027" lon="4.04922">
        <ele>361</ele>
        <time>2013-04-03T12:49:24Z</time>
      </trkpt>
      <trkpt lat="44.33027" lon="4.0492">
        <ele>361</ele>
        <time>2013-04-03T12:49:26Z</time>
      </trkpt>
      <trkpt lat="44.33026" lon="4.04917">
        <ele>361</ele>
        <time>2013-04-03T12:49:28Z</time>
      </trkpt>
      <trkpt lat="44.33025" lon="4.04914">
        <ele>362</ele>
        <time>2013-04-03T12:49:30Z</time>
      </trkpt>
      <trkpt lat="44.33024" lon="4.04911">
        <ele>361</ele>
        <time>2013-04-03T12:49:32Z</time>
      </trkpt>
      <trkpt lat="44.33024" lon="4.04909">
        <ele>361</ele>
        <time>2013-04-03T12:49:34Z</time>
      </trkpt>
      <trkpt lat="44.33024" lon="4.04909">
        <ele>361</ele>
        <time>2013-04-03T12:49:36Z</time>
      </trkpt>
      <trkpt lat="44.33024" lon="4.04909">
        <ele>361</ele>
        <time>2013-04-03T12:49:38Z</time>
      </trkpt>
      <trkpt lat="44.33024" lon="4.04908">
        <ele>362</ele>
        <time>2013-04-03T12:49:40Z</time>
      </trkpt>
      <trkpt lat="44.33023" lon="4.04907">
        <ele>362</ele>
        <time>2013-04-03T12:49:42Z</time>
      </trkpt>
      <trkpt lat="44.33023" lon="4.04906">
        <ele>362</ele>
        <time>2013-04-03T12:49:44Z</time>
      </trkpt>
      <trkpt lat="44.33023" lon="4.04903">
        <ele>362</ele>
        <time>2013-04-03T12:49:46Z</time>
      </trkpt>
      <trkpt lat="44.33021" lon="4.04901">
        <ele>362</ele>
        <time>2013-04-03T12:49:48Z</time>
      </trkpt>
      <trkpt lat="44.3302" lon="4.04899">
        <ele>363</ele>
        <time>2013-04-03T12:49:50Z</time>
      </trkpt>
      <trkpt lat="44.33019" lon="4.04897">
        <ele>363</ele>
        <time>2013-04-03T12:49:52Z</time>
      </trkpt>
      <trkpt lat="44.33018" lon="4.04895">
        <ele>362</ele>
        <time>2013-04-03T12:49:54Z</time>
      </trkpt>
      <trkpt lat="44.33017" lon="4.04892">
        <ele>362</ele>
        <time>2013-04-03T12:49:56Z</time>
      </trkpt>
      <trkpt lat="44.33016" lon="4.04889">
        <ele>361</ele>
        <time>2013-04-03T12:49:58Z</time>
      </trkpt>
      <trkpt lat="44.33016" lon="4.04888">
        <ele>361</ele>
        <time>2013-04-03T12:50:00Z</time>
      </trkpt>
      <trkpt lat="44.33016" lon="4.04888">
        <ele>361</ele>
        <time>2013-04-03T12:50:02Z</time>
      </trkpt>
      <trkpt lat="44.33016" lon="4.04888">
        <ele>361</ele>
        <time>2013-04-03T12:50:03Z</time>
      </trkpt>
      <trkpt lat="44.33016" lon="4.04888">
        <ele>361</ele>
        <time>2013-04-03T12:50:06Z</time>
      </trkpt>
      <trkpt lat="44.33016" lon="4.04888">
        <ele>361</ele>
        <time>2013-04-03T12:50:08Z</time>
      </trkpt>
      <trkpt lat="44.33016" lon="4.04888">
        <ele>361</ele>
        <time>2013-04-03T12:50:10Z</time>
      </trkpt>
      <trkpt lat="44.33016" lon="4.04888">
        <ele>361</ele>
        <time>2013-04-03T12:50:12Z</time>
      </trkpt>
      <trkpt lat="44.33016" lon="4.04888">
        <ele>361</ele>
        <time>2013-04-03T12:50:14Z</time>
      </trkpt>
      <trkpt lat="44.33016" lon="4.04888">
        <ele>361</ele>
        <time>2013-04-03T12:50:16Z</time>
      </trkpt>
      <trkpt lat="44.33016" lon="4.04888">
        <ele>361</ele>
        <time>2013-04-03T12:50:18Z</time>
      </trkpt>
      <trkpt lat="44.33014" lon="4.04887">
        <ele>362</ele>
        <time>2013-04-03T12:50:20Z</time>
      </trkpt>
      <trkpt lat="44.33012" lon="4.04885">
        <ele>362</ele>
        <time>2013-04-03T12:50:22Z</time>
      </trkpt>
      <trkpt lat="44.33011" lon="4.04882">
        <ele>363</ele>
        <time>2013-04-03T12:50:24Z</time>
      </trkpt>
      <trkpt lat="44.3301" lon="4.04879">
        <ele>364</ele>
        <time>2013-04-03T12:50:26Z</time>
      </trkpt>
      <trkpt lat="44.33009" lon="4.04876">
        <ele>363</ele>
        <time>2013-04-03T12:50:28Z</time>
      </trkpt>
      <trkpt lat="44.33008" lon="4.04873">
        <ele>364</ele>
        <time>2013-04-03T12:50:30Z</time>
      </trkpt>
      <trkpt lat="44.33007" lon="4.0487">
        <ele>363</ele>
        <time>2013-04-03T12:50:32Z</time>
      </trkpt>
      <trkpt lat="44.33006" lon="4.04866">
        <ele>363</ele>
        <time>2013-04-03T12:50:34Z</time>
      </trkpt>
      <trkpt lat="44.33005" lon="4.04863">
        <ele>363</ele>
        <time>2013-04-03T12:50:36Z</time>
      </trkpt>
      <trkpt lat="44.33004" lon="4.0486">
        <ele>362</ele>
        <time>2013-04-03T12:50:38Z</time>
      </trkpt>
      <trkpt lat="44.33004" lon="4.04859">
        <ele>362</ele>
        <time>2013-04-03T12:50:40Z</time>
      </trkpt>
      <trkpt lat="44.33003" lon="4.04856">
        <ele>361</ele>
        <time>2013-04-03T12:50:42Z</time>
      </trkpt>
      <trkpt lat="44.33003" lon="4.04854">
        <ele>361</ele>
        <time>2013-04-03T12:50:44Z</time>
      </trkpt>
      <trkpt lat="44.33001" lon="4.04852">
        <ele>361</ele>
        <time>2013-04-03T12:50:46Z</time>
      </trkpt>
      <trkpt lat="44.33" lon="4.04849">
        <ele>361</ele>
        <time>2013-04-03T12:50:48Z</time>
      </trkpt>
      <trkpt lat="44.33" lon="4.04846">
        <ele>361</ele>
        <time>2013-04-03T12:50:50Z</time>
      </trkpt>
      <trkpt lat="44.33" lon="4.04846">
        <ele>361</ele>
        <time>2013-04-03T12:50:52Z</time>
      </trkpt>
      <trkpt lat="44.32999" lon="4.04844">
        <ele>361</ele>
        <time>2013-04-03T12:50:54Z</time>
      </trkpt>
      <trkpt lat="44.32997" lon="4.04842">
        <ele>361</ele>
        <time>2013-04-03T12:50:56Z</time>
      </trkpt>
      <trkpt lat="44.32996" lon="4.04839">
        <ele>360</ele>
        <time>2013-04-03T12:50:58Z</time>
      </trkpt>
      <trkpt lat="44.32995" lon="4.04836">
        <ele>362</ele>
        <time>2013-04-03T12:51:00Z</time>
      </trkpt>
      <trkpt lat="44.32995" lon="4.04835">
        <ele>362</ele>
        <time>2013-04-03T12:51:02Z</time>
      </trkpt>
      <trkpt lat="44.32994" lon="4.04833">
        <ele>362</ele>
        <time>2013-04-03T12:51:04Z</time>
      </trkpt>
      <trkpt lat="44.32994" lon="4.04832">
        <ele>362</ele>
        <time>2013-04-03T12:51:05Z</time>
      </trkpt>
      <trkpt lat="44.32992" lon="4.04828">
        <ele>362</ele>
        <time>2013-04-03T12:51:08Z</time>
      </trkpt>
      <trkpt lat="44.32991" lon="4.04825">
        <ele>363</ele>
        <time>2013-04-03T12:51:10Z</time>
      </trkpt>
      <trkpt lat="44.3299" lon="4.04822">
        <ele>363</ele>
        <time>2013-04-03T12:51:12Z</time>
      </trkpt>
      <trkpt lat="44.32989" lon="4.04819">
        <ele>363</ele>
        <time>2013-04-03T12:51:14Z</time>
      </trkpt>
      <trkpt lat="44.32988" lon="4.04816">
        <ele>363</ele>
        <time>2013-04-03T12:51:16Z</time>
      </trkpt>
      <trkpt lat="44.32987" lon="4.04812">
        <ele>364</ele>
        <time>2013-04-03T12:51:18Z</time>
      </trkpt>
      <trkpt lat="44.32986" lon="4.04809">
        <ele>364</ele>
        <time>2013-04-03T12:51:20Z</time>
      </trkpt>
      <trkpt lat="44.32986" lon="4.04806">
        <ele>365</ele>
        <time>2013-04-03T12:51:22Z</time>
      </trkpt>
      <trkpt lat="44.32986" lon="4.04803">
        <ele>365</ele>
        <time>2013-04-03T12:51:24Z</time>
      </trkpt>
      <trkpt lat="44.32985" lon="4.048">
        <ele>365</ele>
        <time>2013-04-03T12:51:26Z</time>
      </trkpt>
      <trkpt lat="44.32984" lon="4.04797">
        <ele>365</ele>
        <time>2013-04-03T12:51:28Z</time>
      </trkpt>
      <trkpt lat="44.32983" lon="4.04795">
        <ele>366</ele>
        <time>2013-04-03T12:51:30Z</time>
      </trkpt>
      <trkpt lat="44.32983" lon="4.04791">
        <ele>366</ele>
        <time>2013-04-03T12:51:32Z</time>
      </trkpt>
      <trkpt lat="44.32983" lon="4.04787">
        <ele>365</ele>
        <time>2013-04-03T12:51:34Z</time>
      </trkpt>
      <trkpt lat="44.32983" lon="4.04783">
        <ele>365</ele>
        <time>2013-04-03T12:51:36Z</time>
      </trkpt>
      <trkpt lat="44.32984" lon="4.04779">
        <ele>365</ele>
        <time>2013-04-03T12:51:38Z</time>
      </trkpt>
      <trkpt lat="44.32983" lon="4.04776">
        <ele>366</ele>
        <time>2013-04-03T12:51:40Z</time>
      </trkpt>
      <trkpt lat="44.32982" lon="4.04773">
        <ele>366</ele>
        <time>2013-04-03T12:51:42Z</time>
      </trkpt>
      <trkpt lat="44.32982" lon="4.0477">
        <ele>367</ele>
        <time>2013-04-03T12:51:44Z</time>
      </trkpt>
      <trkpt lat="44.32981" lon="4.04766">
        <ele>368</ele>
        <time>2013-04-03T12:51:46Z</time>
      </trkpt>
      <trkpt lat="44.32981" lon="4.04763">
        <ele>368</ele>
        <time>2013-04-03T12:51:48Z</time>
      </trkpt>
      <trkpt lat="44.3298" lon="4.04761">
        <ele>368</ele>
        <time>2013-04-03T12:51:50Z</time>
      </trkpt>
      <trkpt lat="44.3298" lon="4.04759">
        <ele>368</ele>
        <time>2013-04-03T12:51:52Z</time>
      </trkpt>
      <trkpt lat="44.32979" lon="4.04757">
        <ele>368</ele>
        <time>2013-04-03T12:51:54Z</time>
      </trkpt>
      <trkpt lat="44.32979" lon="4.04754">
        <ele>368</ele>
        <time>2013-04-03T12:51:56Z</time>
      </trkpt>
      <trkpt lat="44.32979" lon="4.04753">
        <ele>368</ele>
        <time>2013-04-03T12:51:58Z</time>
      </trkpt>
      <trkpt lat="44.32979" lon="4.04752">
        <ele>368</ele>
        <time>2013-04-03T12:52:00Z</time>
      </trkpt>
      <trkpt lat="44.32978" lon="4.04749">
        <ele>368</ele>
        <time>2013-04-03T12:52:02Z</time>
      </trkpt>
      <trkpt lat="44.32978" lon="4.04747">
        <ele>368</ele>
        <time>2013-04-03T12:52:04Z</time>
      </trkpt>
      <trkpt lat="44.32978" lon="4.04744">
        <ele>368</ele>
        <time>2013-04-03T12:52:06Z</time>
      </trkpt>
      <trkpt lat="44.32978" lon="4.04744">
        <ele>368</ele>
        <time>2013-04-03T12:52:07Z</time>
      </trkpt>
      <trkpt lat="44.32978" lon="4.04739">
        <ele>367</ele>
        <time>2013-04-03T12:52:10Z</time>
      </trkpt>
      <trkpt lat="44.32979" lon="4.04736">
        <ele>366</ele>
        <time>2013-04-03T12:52:12Z</time>
      </trkpt>
      <trkpt lat="44.32978" lon="4.04735">
        <ele>366</ele>
        <time>2013-04-03T12:52:14Z</time>
      </trkpt>
      <trkpt lat="44.32979" lon="4.04733">
        <ele>366</ele>
        <time>2013-04-03T12:52:16Z</time>
      </trkpt>
      <trkpt lat="44.32979" lon="4.04732">
        <ele>366</ele>
        <time>2013-04-03T12:52:18Z</time>
      </trkpt>
      <trkpt lat="44.32979" lon="4.04729">
        <ele>367</ele>
        <time>2013-04-03T12:52:20Z</time>
      </trkpt>
      <trkpt lat="44.32979" lon="4.04726">
        <ele>367</ele>
        <time>2013-04-03T12:52:22Z</time>
      </trkpt>
      <trkpt lat="44.32978" lon="4.04723">
        <ele>367</ele>
        <time>2013-04-03T12:52:24Z</time>
      </trkpt>
      <trkpt lat="44.32978" lon="4.04721">
        <ele>367</ele>
        <time>2013-04-03T12:52:26Z</time>
      </trkpt>
      <trkpt lat="44.32979" lon="4.04718">
        <ele>367</ele>
        <time>2013-04-03T12:52:28Z</time>
      </trkpt>
      <trkpt lat="44.32978" lon="4.04716">
        <ele>367</ele>
        <time>2013-04-03T12:52:30Z</time>
      </trkpt>
      <trkpt lat="44.32977" lon="4.04711">
        <ele>367</ele>
        <time>2013-04-03T12:52:32Z</time>
      </trkpt>
      <trkpt lat="44.32978" lon="4.04706">
        <ele>368</ele>
        <time>2013-04-03T12:52:34Z</time>
      </trkpt>
      <trkpt lat="44.32978" lon="4.04704">
        <ele>368</ele>
        <time>2013-04-03T12:52:36Z</time>
      </trkpt>
      <trkpt lat="44.32978" lon="4.04701">
        <ele>368</ele>
        <time>2013-04-03T12:52:38Z</time>
      </trkpt>
      <trkpt lat="44.32977" lon="4.04697">
        <ele>369</ele>
        <time>2013-04-03T12:52:40Z</time>
      </trkpt>
      <trkpt lat="44.32977" lon="4.04694">
        <ele>369</ele>
        <time>2013-04-03T12:52:42Z</time>
      </trkpt>
      <trkpt lat="44.32976" lon="4.0469">
        <ele>369</ele>
        <time>2013-04-03T12:52:44Z</time>
      </trkpt>
      <trkpt lat="44.32975" lon="4.04687">
        <ele>370</ele>
        <time>2013-04-03T12:52:46Z</time>
      </trkpt>
      <trkpt lat="44.32974" lon="4.04683">
        <ele>370</ele>
        <time>2013-04-03T12:52:48Z</time>
      </trkpt>
      <trkpt lat="44.32974" lon="4.04681">
        <ele>370</ele>
        <time>2013-04-03T12:52:50Z</time>
      </trkpt>
      <trkpt lat="44.32973" lon="4.04678">
        <ele>370</ele>
        <time>2013-04-03T12:52:52Z</time>
      </trkpt>
      <trkpt lat="44.32974" lon="4.04674">
        <ele>370</ele>
        <time>2013-04-03T12:52:54Z</time>
      </trkpt>
      <trkpt lat="44.32973" lon="4.04669">
        <ele>370</ele>
        <time>2013-04-03T12:52:56Z</time>
      </trkpt>
      <trkpt lat="44.32973" lon="4.04666">
        <ele>370</ele>
        <time>2013-04-03T12:52:58Z</time>
      </trkpt>
      <trkpt lat="44.32973" lon="4.04663">
        <ele>370</ele>
        <time>2013-04-03T12:53:00Z</time>
      </trkpt>
      <trkpt lat="44.32972" lon="4.04661">
        <ele>371</ele>
        <time>2013-04-03T12:53:02Z</time>
      </trkpt>
      <trkpt lat="44.32972" lon="4.04657">
        <ele>371</ele>
        <time>2013-04-03T12:53:04Z</time>
      </trkpt>
      <trkpt lat="44.32972" lon="4.04652">
        <ele>371</ele>
        <time>2013-04-03T12:53:06Z</time>
      </trkpt>
      <trkpt lat="44.32973" lon="4.04647">
        <ele>370</ele>
        <time>2013-04-03T12:53:08Z</time>
      </trkpt>
      <trkpt lat="44.32973" lon="4.04646">
        <ele>369</ele>
        <time>2013-04-03T12:53:09Z</time>
      </trkpt>
      <trkpt lat="44.32973" lon="4.04643">
        <ele>370</ele>
        <time>2013-04-03T12:53:12Z</time>
      </trkpt>
      <trkpt lat="44.32973" lon="4.0464">
        <ele>370</ele>
        <time>2013-04-03T12:53:14Z</time>
      </trkpt>
      <trkpt lat="44.32973" lon="4.04635">
        <ele>369</ele>
        <time>2013-04-03T12:53:16Z</time>
      </trkpt>
      <trkpt lat="44.32972" lon="4.04631">
        <ele>370</ele>
        <time>2013-04-03T12:53:18Z</time>
      </trkpt>
      <trkpt lat="44.32973" lon="4.04627">
        <ele>370</ele>
        <time>2013-04-03T12:53:20Z</time>
      </trkpt>
      <trkpt lat="44.32972" lon="4.04623">
        <ele>369</ele>
        <time>2013-04-03T12:53:22Z</time>
      </trkpt>
      <trkpt lat="44.32972" lon="4.04621">
        <ele>370</ele>
        <time>2013-04-03T12:53:24Z</time>
      </trkpt>
      <trkpt lat="44.32972" lon="4.04619">
        <ele>370</ele>
        <time>2013-04-03T12:53:26Z</time>
      </trkpt>
      <trkpt lat="44.32972" lon="4.04615">
        <ele>370</ele>
        <time>2013-04-03T12:53:28Z</time>
      </trkpt>
      <trkpt lat="44.32972" lon="4.04612">
        <ele>371</ele>
        <time>2013-04-03T12:53:30Z</time>
      </trkpt>
      <trkpt lat="44.32972" lon="4.04608">
        <ele>371</ele>
        <time>2013-04-03T12:53:32Z</time>
      </trkpt>
      <trkpt lat="44.32973" lon="4.04605">
        <ele>371</ele>
        <time>2013-04-03T12:53:34Z</time>
      </trkpt>
      <trkpt lat="44.32973" lon="4.04602">
        <ele>371</ele>
        <time>2013-04-03T12:53:36Z</time>
      </trkpt>
      <trkpt lat="44.32973" lon="4.046">
        <ele>371</ele>
        <time>2013-04-03T12:53:38Z</time>
      </trkpt>
      <trkpt lat="44.32973" lon="4.04597">
        <ele>372</ele>
        <time>2013-04-03T12:53:40Z</time>
      </trkpt>
      <trkpt lat="44.32974" lon="4.04596">
        <ele>372</ele>
        <time>2013-04-03T12:53:42Z</time>
      </trkpt>
      <trkpt lat="44.32974" lon="4.04595">
        <ele>372</ele>
        <time>2013-04-03T12:53:44Z</time>
      </trkpt>
      <trkpt lat="44.32974" lon="4.04593">
        <ele>373</ele>
        <time>2013-04-03T12:53:46Z</time>
      </trkpt>
      <trkpt lat="44.32975" lon="4.04591">
        <ele>373</ele>
        <time>2013-04-03T12:53:48Z</time>
      </trkpt>
      <trkpt lat="44.32977" lon="4.0459">
        <ele>374</ele>
        <time>2013-04-03T12:53:50Z</time>
      </trkpt>
      <trkpt lat="44.32978" lon="4.04587">
        <ele>374</ele>
        <time>2013-04-03T12:53:52Z</time>
      </trkpt>
      <trkpt lat="44.32979" lon="4.04583">
        <ele>374</ele>
        <time>2013-04-03T12:53:54Z</time>
      </trkpt>
      <trkpt lat="44.32981" lon="4.04579">
        <ele>374</ele>
        <time>2013-04-03T12:53:56Z</time>
      </trkpt>
      <trkpt lat="44.32982" lon="4.04576">
        <ele>374</ele>
        <time>2013-04-03T12:53:58Z</time>
      </trkpt>
      <trkpt lat="44.32983" lon="4.04571">
        <ele>373</ele>
        <time>2013-04-03T12:54:00Z</time>
      </trkpt>
      <trkpt lat="44.32985" lon="4.04568">
        <ele>374</ele>
        <time>2013-04-03T12:54:02Z</time>
      </trkpt>
      <trkpt lat="44.32985" lon="4.04567">
        <ele>374</ele>
        <time>2013-04-03T12:54:04Z</time>
      </trkpt>
      <trkpt lat="44.32986" lon="4.04566">
        <ele>373</ele>
        <time>2013-04-03T12:54:06Z</time>
      </trkpt>
      <trkpt lat="44.32987" lon="4.04563">
        <ele>372</ele>
        <time>2013-04-03T12:54:08Z</time>
      </trkpt>
      <trkpt lat="44.32988" lon="4.04559">
        <ele>371</ele>
        <time>2013-04-03T12:54:10Z</time>
      </trkpt>
      <trkpt lat="44.3299" lon="4.04557">
        <ele>370</ele>
        <time>2013-04-03T12:54:11Z</time>
      </trkpt>
      <trkpt lat="44.32993" lon="4.04553">
        <ele>370</ele>
        <time>2013-04-03T12:54:14Z</time>
      </trkpt>
      <trkpt lat="44.32994" lon="4.04551">
        <ele>370</ele>
        <time>2013-04-03T12:54:16Z</time>
      </trkpt>
      <trkpt lat="44.32994" lon="4.04548">
        <ele>369</ele>
        <time>2013-04-03T12:54:18Z</time>
      </trkpt>
      <trkpt lat="44.32994" lon="4.04547">
        <ele>369</ele>
        <time>2013-04-03T12:54:20Z</time>
      </trkpt>
      <trkpt lat="44.32994" lon="4.04545">
        <ele>370</ele>
        <time>2013-04-03T12:54:22Z</time>
      </trkpt>
      <trkpt lat="44.32995" lon="4.04542">
        <ele>369</ele>
        <time>2013-04-03T12:54:24Z</time>
      </trkpt>
      <trkpt lat="44.32996" lon="4.04539">
        <ele>369</ele>
        <time>2013-04-03T12:54:26Z</time>
      </trkpt>
      <trkpt lat="44.32997" lon="4.04535">
        <ele>370</ele>
        <time>2013-04-03T12:54:28Z</time>
      </trkpt>
      <trkpt lat="44.32998" lon="4.04532">
        <ele>370</ele>
        <time>2013-04-03T12:54:30Z</time>
      </trkpt>
      <trkpt lat="44.33" lon="4.0453">
        <ele>370</ele>
        <time>2013-04-03T12:54:32Z</time>
      </trkpt>
      <trkpt lat="44.33001" lon="4.04528">
        <ele>370</ele>
        <time>2013-04-03T12:54:34Z</time>
      </trkpt>
      <trkpt lat="44.33001" lon="4.04525">
        <ele>370</ele>
        <time>2013-04-03T12:54:36Z</time>
      </trkpt>
      <trkpt lat="44.33003" lon="4.04522">
        <ele>370</ele>
        <time>2013-04-03T12:54:38Z</time>
      </trkpt>
      <trkpt lat="44.33005" lon="4.04519">
        <ele>371</ele>
        <time>2013-04-03T12:54:40Z</time>
      </trkpt>
      <trkpt lat="44.33006" lon="4.04518">
        <ele>371</ele>
        <time>2013-04-03T12:54:42Z</time>
      </trkpt>
      <trkpt lat="44.33007" lon="4.04515">
        <ele>370</ele>
        <time>2013-04-03T12:54:44Z</time>
      </trkpt>
      <trkpt lat="44.33008" lon="4.04513">
        <ele>369</ele>
        <time>2013-04-03T12:54:46Z</time>
      </trkpt>
      <trkpt lat="44.3301" lon="4.04509">
        <ele>368</ele>
        <time>2013-04-03T12:54:48Z</time>
      </trkpt>
      <trkpt lat="44.3301" lon="4.04508">
        <ele>369</ele>
        <time>2013-04-03T12:54:50Z</time>
      </trkpt>
      <trkpt lat="44.33012" lon="4.04506">
        <ele>369</ele>
        <time>2013-04-03T12:54:52Z</time>
      </trkpt>
      <trkpt lat="44.33014" lon="4.04504">
        <ele>368</ele>
        <time>2013-04-03T12:54:54Z</time>
      </trkpt>
      <trkpt lat="44.33017" lon="4.04502">
        <ele>368</ele>
        <time>2013-04-03T12:54:56Z</time>
      </trkpt>
      <trkpt lat="44.33019" lon="4.045">
        <ele>368</ele>
        <time>2013-04-03T12:54:58Z</time>
      </trkpt>
      <trkpt lat="44.3302" lon="4.04499">
        <ele>367</ele>
        <time>2013-04-03T12:55:00Z</time>
      </trkpt>
      <trkpt lat="44.33022" lon="4.04497">
        <ele>368</ele>
        <time>2013-04-03T12:55:02Z</time>
      </trkpt>
      <trkpt lat="44.33024" lon="4.04495">
        <ele>368</ele>
        <time>2013-04-03T12:55:04Z</time>
      </trkpt>
      <trkpt lat="44.33025" lon="4.04494">
        <ele>368</ele>
        <time>2013-04-03T12:55:06Z</time>
      </trkpt>
      <trkpt lat="44.33026" lon="4.04493">
        <ele>368</ele>
        <time>2013-04-03T12:55:08Z</time>
      </trkpt>
      <trkpt lat="44.33028" lon="4.04493">
        <ele>368</ele>
        <time>2013-04-03T12:55:10Z</time>
      </trkpt>
      <trkpt lat="44.33029" lon="4.0449">
        <ele>369</ele>
        <time>2013-04-03T12:55:12Z</time>
      </trkpt>
      <trkpt lat="44.3303" lon="4.04489">
        <ele>370</ele>
        <time>2013-04-03T12:55:13Z</time>
      </trkpt>
      <trkpt lat="44.33033" lon="4.04488">
        <ele>370</ele>
        <time>2013-04-03T12:55:16Z</time>
      </trkpt>
      <trkpt lat="44.33035" lon="4.04487">
        <ele>371</ele>
        <time>2013-04-03T12:55:18Z</time>
      </trkpt>
      <trkpt lat="44.33037" lon="4.04486">
        <ele>371</ele>
        <time>2013-04-03T12:55:20Z</time>
      </trkpt>
      <trkpt lat="44.33039" lon="4.04484">
        <ele>371</ele>
        <time>2013-04-03T12:55:22Z</time>
      </trkpt>
      <trkpt lat="44.33041" lon="4.04483">
        <ele>370</ele>
        <time>2013-04-03T12:55:24Z</time>
      </trkpt>
      <trkpt lat="44.33043" lon="4.04482">
        <ele>371</ele>
        <time>2013-04-03T12:55:26Z</time>
      </trkpt>
      <trkpt lat="44.33045" lon="4.04481">
        <ele>371</ele>
        <time>2013-04-03T12:55:28Z</time>
      </trkpt>
      <trkpt lat="44.33047" lon="4.04481">
        <ele>371</ele>
        <time>2013-04-03T12:55:30Z</time>
      </trkpt>
      <trkpt lat="44.33048" lon="4.04481">
        <ele>371</ele>
        <time>2013-04-03T12:55:32Z</time>
      </trkpt>
      <trkpt lat="44.33049" lon="4.0448">
        <ele>371</ele>
        <time>2013-04-03T12:55:34Z</time>
      </trkpt>
      <trkpt lat="44.33051" lon="4.04479">
        <ele>371</ele>
        <time>2013-04-03T12:55:36Z</time>
      </trkpt>
      <trkpt lat="44.33053" lon="4.04477">
        <ele>371</ele>
        <time>2013-04-03T12:55:38Z</time>
      </trkpt>
      <trkpt lat="44.33055" lon="4.04476">
        <ele>371</ele>
        <time>2013-04-03T12:55:40Z</time>
      </trkpt>
      <trkpt lat="44.33057" lon="4.04476">
        <ele>370</ele>
        <time>2013-04-03T12:55:42Z</time>
      </trkpt>
      <trkpt lat="44.33058" lon="4.04475">
        <ele>371</ele>
        <time>2013-04-03T12:55:44Z</time>
      </trkpt>
      <trkpt lat="44.33059" lon="4.04475">
        <ele>371</ele>
        <time>2013-04-03T12:55:46Z</time>
      </trkpt>
      <trkpt lat="44.33061" lon="4.04474">
        <ele>371</ele>
        <time>2013-04-03T12:55:48Z</time>
      </trkpt>
      <trkpt lat="44.33063" lon="4.04471">
        <ele>371</ele>
        <time>2013-04-03T12:55:50Z</time>
      </trkpt>
      <trkpt lat="44.33065" lon="4.04469">
        <ele>371</ele>
        <time>2013-04-03T12:55:52Z</time>
      </trkpt>
      <trkpt lat="44.33067" lon="4.04467">
        <ele>370</ele>
        <time>2013-04-03T12:55:54Z</time>
      </trkpt>
      <trkpt lat="44.33068" lon="4.04464">
        <ele>370</ele>
        <time>2013-04-03T12:55:56Z</time>
      </trkpt>
      <trkpt lat="44.33071" lon="4.04463">
        <ele>370</ele>
        <time>2013-04-03T12:55:58Z</time>
      </trkpt>
      <trkpt lat="44.33072" lon="4.04462">
        <ele>370</ele>
        <time>2013-04-03T12:56:00Z</time>
      </trkpt>
      <trkpt lat="44.33074" lon="4.0446">
        <ele>370</ele>
        <time>2013-04-03T12:56:02Z</time>
      </trkpt>
      <trkpt lat="44.33076" lon="4.04459">
        <ele>370</ele>
        <time>2013-04-03T12:56:04Z</time>
      </trkpt>
      <trkpt lat="44.33078" lon="4.04458">
        <ele>370</ele>
        <time>2013-04-03T12:56:06Z</time>
      </trkpt>
      <trkpt lat="44.3308" lon="4.04455">
        <ele>370</ele>
        <time>2013-04-03T12:56:08Z</time>
      </trkpt>
      <trkpt lat="44.33081" lon="4.04453">
        <ele>371</ele>
        <time>2013-04-03T12:56:10Z</time>
      </trkpt>
      <trkpt lat="44.33084" lon="4.04451">
        <ele>371</ele>
        <time>2013-04-03T12:56:12Z</time>
      </trkpt>
      <trkpt lat="44.33086" lon="4.04451">
        <ele>370</ele>
        <time>2013-04-03T12:56:14Z</time>
      </trkpt>
      <trkpt lat="44.33087" lon="4.0445">
        <ele>371</ele>
        <time>2013-04-03T12:56:15Z</time>
      </trkpt>
      <trkpt lat="44.3309" lon="4.04449">
        <ele>370</ele>
        <time>2013-04-03T12:56:18Z</time>
      </trkpt>
      <trkpt lat="44.33092" lon="4.04447">
        <ele>370</ele>
        <time>2013-04-03T12:56:20Z</time>
      </trkpt>
      <trkpt lat="44.33094" lon="4.04445">
        <ele>370</ele>
        <time>2013-04-03T12:56:22Z</time>
      </trkpt>
      <trkpt lat="44.33096" lon="4.04446">
        <ele>370</ele>
        <time>2013-04-03T12:56:24Z</time>
      </trkpt>
      <trkpt lat="44.33098" lon="4.04446">
        <ele>370</ele>
        <time>2013-04-03T12:56:26Z</time>
      </trkpt>
      <trkpt lat="44.331" lon="4.04444">
        <ele>370</ele>
        <time>2013-04-03T12:56:28Z</time>
      </trkpt>
      <trkpt lat="44.33102" lon="4.04444">
        <ele>370</ele>
        <time>2013-04-03T12:56:30Z</time>
      </trkpt>
      <trkpt lat="44.33104" lon="4.04444">
        <ele>370</ele>
        <time>2013-04-03T12:56:32Z</time>
      </trkpt>
      <trkpt lat="44.33106" lon="4.04443">
        <ele>370</ele>
        <time>2013-04-03T12:56:34Z</time>
      </trkpt>
      <trkpt lat="44.33108" lon="4.04442">
        <ele>369</ele>
        <time>2013-04-03T12:56:36Z</time>
      </trkpt>
      <trkpt lat="44.3311" lon="4.04442">
        <ele>369</ele>
        <time>2013-04-03T12:56:38Z</time>
      </trkpt>
      <trkpt lat="44.33112" lon="4.04441">
        <ele>369</ele>
        <time>2013-04-03T12:56:40Z</time>
      </trkpt>
      <trkpt lat="44.33115" lon="4.04439">
        <ele>369</ele>
        <time>2013-04-03T12:56:42Z</time>
      </trkpt>
      <trkpt lat="44.33117" lon="4.04439">
        <ele>368</ele>
        <time>2013-04-03T12:56:44Z</time>
      </trkpt>
      <trkpt lat="44.3312" lon="4.04439">
        <ele>368</ele>
        <time>2013-04-03T12:56:46Z</time>
      </trkpt>
      <trkpt lat="44.33123" lon="4.04439">
        <ele>368</ele>
        <time>2013-04-03T12:56:48Z</time>
      </trkpt>
      <trkpt lat="44.33125" lon="4.0444">
        <ele>368</ele>
        <time>2013-04-03T12:56:50Z</time>
      </trkpt>
      <trkpt lat="44.33126" lon="4.0444">
        <ele>368</ele>
        <time>2013-04-03T12:56:52Z</time>
      </trkpt>
      <trkpt lat="44.33128" lon="4.0444">
        <ele>368</ele>
        <time>2013-04-03T12:56:54Z</time>
      </trkpt>
      <trkpt lat="44.3313" lon="4.04441">
        <ele>368</ele>
        <time>2013-04-03T12:56:56Z</time>
      </trkpt>
      <trkpt lat="44.33132" lon="4.04442">
        <ele>368</ele>
        <time>2013-04-03T12:56:58Z</time>
      </trkpt>
      <trkpt lat="44.33133" lon="4.04443">
        <ele>368</ele>
        <time>2013-04-03T12:57:00Z</time>
      </trkpt>
      <trkpt lat="44.33135" lon="4.04443">
        <ele>368</ele>
        <time>2013-04-03T12:57:02Z</time>
      </trkpt>
      <trkpt lat="44.33137" lon="4.04444">
        <ele>368</ele>
        <time>2013-04-03T12:57:04Z</time>
      </trkpt>
      <trkpt lat="44.33139" lon="4.04444">
        <ele>369</ele>
        <time>2013-04-03T12:57:06Z</time>
      </trkpt>
      <trkpt lat="44.33141" lon="4.04446">
        <ele>369</ele>
        <time>2013-04-03T12:57:08Z</time>
      </trkpt>
      <trkpt lat="44.33143" lon="4.04446">
        <ele>370</ele>
        <time>2013-04-03T12:57:10Z</time>
      </trkpt>
      <trkpt lat="44.33145" lon="4.04446">
        <ele>370</ele>
        <time>2013-04-03T12:57:12Z</time>
      </trkpt>
      <trkpt lat="44.33147" lon="4.04446">
        <ele>371</ele>
        <time>2013-04-03T12:57:14Z</time>
      </trkpt>
      <trkpt lat="44.33148" lon="4.04446">
        <ele>371</ele>
        <time>2013-04-03T12:57:16Z</time>
      </trkpt>
      <trkpt lat="44.33149" lon="4.04447">
        <ele>371</ele>
        <time>2013-04-03T12:57:17Z</time>
      </trkpt>
      <trkpt lat="44.33151" lon="4.04447">
        <ele>372</ele>
        <time>2013-04-03T12:57:20Z</time>
      </trkpt>
      <trkpt lat="44.33153" lon="4.04448">
        <ele>373</ele>
        <time>2013-04-03T12:57:22Z</time>
      </trkpt>
      <trkpt lat="44.33155" lon="4.04449">
        <ele>373</ele>
        <time>2013-04-03T12:57:24Z</time>
      </trkpt>
      <trkpt lat="44.33157" lon="4.0445">
        <ele>374</ele>
        <time>2013-04-03T12:57:26Z</time>
      </trkpt>
      <trkpt lat="44.33158" lon="4.04452">
        <ele>374</ele>
        <time>2013-04-03T12:57:28Z</time>
      </trkpt>
      <trkpt lat="44.33159" lon="4.04452">
        <ele>374</ele>
        <time>2013-04-03T12:57:30Z</time>
      </trkpt>
      <trkpt lat="44.3316" lon="4.04453">
        <ele>374</ele>
        <time>2013-04-03T12:57:32Z</time>
      </trkpt>
      <trkpt lat="44.33162" lon="4.04454">
        <ele>375</ele>
        <time>2013-04-03T12:57:34Z</time>
      </trkpt>
      <trkpt lat="44.33164" lon="4.04455">
        <ele>375</ele>
        <time>2013-04-03T12:57:36Z</time>
      </trkpt>
      <trkpt lat="44.33165" lon="4.04456">
        <ele>376</ele>
        <time>2013-04-03T12:57:38Z</time>
      </trkpt>
      <trkpt lat="44.33167" lon="4.04458">
        <ele>376</ele>
        <time>2013-04-03T12:57:40Z</time>
      </trkpt>
      <trkpt lat="44.33168" lon="4.0446">
        <ele>376</ele>
        <time>2013-04-03T12:57:42Z</time>
      </trkpt>
      <trkpt lat="44.3317" lon="4.04462">
        <ele>376</ele>
        <time>2013-04-03T12:57:44Z</time>
      </trkpt>
      <trkpt lat="44.33172" lon="4.04464">
        <ele>377</ele>
        <time>2013-04-03T12:57:46Z</time>
      </trkpt>
      <trkpt lat="44.33173" lon="4.04466">
        <ele>377</ele>
        <time>2013-04-03T12:57:48Z</time>
      </trkpt>
      <trkpt lat="44.33176" lon="4.04469">
        <ele>377</ele>
        <time>2013-04-03T12:57:50Z</time>
      </trkpt>
      <trkpt lat="44.33177" lon="4.04471">
        <ele>378</ele>
        <time>2013-04-03T12:57:52Z</time>
      </trkpt>
      <trkpt lat="44.33178" lon="4.04473">
        <ele>378</ele>
        <time>2013-04-03T12:57:54Z</time>
      </trkpt>
      <trkpt lat="44.3318" lon="4.04476">
        <ele>377</ele>
        <time>2013-04-03T12:57:56Z</time>
      </trkpt>
      <trkpt lat="44.33181" lon="4.04478">
        <ele>378</ele>
        <time>2013-04-03T12:57:58Z</time>
      </trkpt>
      <trkpt lat="44.33181" lon="4.04478">
        <ele>378</ele>
        <time>2013-04-03T12:58:00Z</time>
      </trkpt>
      <trkpt lat="44.33183" lon="4.04481">
        <ele>378</ele>
        <time>2013-04-03T12:58:02Z</time>
      </trkpt>
      <trkpt lat="44.33185" lon="4.04483">
        <ele>378</ele>
        <time>2013-04-03T12:58:04Z</time>
      </trkpt>
      <trkpt lat="44.33186" lon="4.04485">
        <ele>378</ele>
        <time>2013-04-03T12:58:06Z</time>
      </trkpt>
      <trkpt lat="44.33187" lon="4.04488">
        <ele>378</ele>
        <time>2013-04-03T12:58:08Z</time>
      </trkpt>
      <trkpt lat="44.33187" lon="4.04491">
        <ele>378</ele>
        <time>2013-04-03T12:58:10Z</time>
      </trkpt>
      <trkpt lat="44.33188" lon="4.04493">
        <ele>378</ele>
        <time>2013-04-03T12:58:12Z</time>
      </trkpt>
      <trkpt lat="44.33189" lon="4.04495">
        <ele>377</ele>
        <time>2013-04-03T12:58:14Z</time>
      </trkpt>
      <trkpt lat="44.3319" lon="4.04498">
        <ele>377</ele>
        <time>2013-04-03T12:58:16Z</time>
      </trkpt>
      <trkpt lat="44.33191" lon="4.04501">
        <ele>377</ele>
        <time>2013-04-03T12:58:18Z</time>
      </trkpt>
      <trkpt lat="44.33191" lon="4.04502">
        <ele>378</ele>
        <time>2013-04-03T12:58:19Z</time>
      </trkpt>
      <trkpt lat="44.33192" lon="4.04505">
        <ele>378</ele>
        <time>2013-04-03T12:58:22Z</time>
      </trkpt>
      <trkpt lat="44.33193" lon="4.04508">
        <ele>379</ele>
        <time>2013-04-03T12:58:24Z</time>
      </trkpt>
      <trkpt lat="44.33196" lon="4.04511">
        <ele>377</ele>
        <time>2013-04-03T12:58:26Z</time>
      </trkpt>
      <trkpt lat="44.33197" lon="4.04514">
        <ele>377</ele>
        <time>2013-04-03T12:58:28Z</time>
      </trkpt>
      <trkpt lat="44.33198" lon="4.04515">
        <ele>378</ele>
        <time>2013-04-03T12:58:30Z</time>
      </trkpt>
      <trkpt lat="44.33198" lon="4.04515">
        <ele>378</ele>
        <time>2013-04-03T12:58:32Z</time>
      </trkpt>
      <trkpt lat="44.33197" lon="4.04518">
        <ele>378</ele>
        <time>2013-04-03T12:58:34Z</time>
      </trkpt>
      <trkpt lat="44.33198" lon="4.04521">
        <ele>378</ele>
        <time>2013-04-03T12:58:36Z</time>
      </trkpt>
      <trkpt lat="44.332" lon="4.04524">
        <ele>378</ele>
        <time>2013-04-03T12:58:38Z</time>
      </trkpt>
      <trkpt lat="44.33201" lon="4.04526">
        <ele>377</ele>
        <time>2013-04-03T12:58:40Z</time>
      </trkpt>
      <trkpt lat="44.33202" lon="4.0453">
        <ele>377</ele>
        <time>2013-04-03T12:58:42Z</time>
      </trkpt>
      <trkpt lat="44.33203" lon="4.04534">
        <ele>376</ele>
        <time>2013-04-03T12:58:44Z</time>
      </trkpt>
      <trkpt lat="44.33205" lon="4.04537">
        <ele>376</ele>
        <time>2013-04-03T12:58:46Z</time>
      </trkpt>
      <trkpt lat="44.33206" lon="4.04541">
        <ele>374</ele>
        <time>2013-04-03T12:58:48Z</time>
      </trkpt>
      <trkpt lat="44.33208" lon="4.04544">
        <ele>374</ele>
        <time>2013-04-03T12:58:50Z</time>
      </trkpt>
      <trkpt lat="44.3321" lon="4.04546">
        <ele>374</ele>
        <time>2013-04-03T12:58:52Z</time>
      </trkpt>
      <trkpt lat="44.33211" lon="4.0455">
        <ele>374</ele>
        <time>2013-04-03T12:58:54Z</time>
      </trkpt>
      <trkpt lat="44.33212" lon="4.04554">
        <ele>373</ele>
        <time>2013-04-03T12:58:56Z</time>
      </trkpt>
      <trkpt lat="44.33213" lon="4.04556">
        <ele>373</ele>
        <time>2013-04-03T12:58:58Z</time>
      </trkpt>
      <trkpt lat="44.33214" lon="4.04558">
        <ele>374</ele>
        <time>2013-04-03T12:59:00Z</time>
      </trkpt>
      <trkpt lat="44.33217" lon="4.04562">
        <ele>374</ele>
        <time>2013-04-03T12:59:02Z</time>
      </trkpt>
      <trkpt lat="44.33218" lon="4.04564">
        <ele>374</ele>
        <time>2013-04-03T12:59:04Z</time>
      </trkpt>
      <trkpt lat="44.33219" lon="4.04565">
        <ele>374</ele>
        <time>2013-04-03T12:59:06Z</time>
      </trkpt>
      <trkpt lat="44.33222" lon="4.04567">
        <ele>375</ele>
        <time>2013-04-03T12:59:08Z</time>
      </trkpt>
      <trkpt lat="44.33224" lon="4.04568">
        <ele>374</ele>
        <time>2013-04-03T12:59:10Z</time>
      </trkpt>
      <trkpt lat="44.33225" lon="4.04571">
        <ele>374</ele>
        <time>2013-04-03T12:59:12Z</time>
      </trkpt>
      <trkpt lat="44.33228" lon="4.04572">
        <ele>374</ele>
        <time>2013-04-03T12:59:14Z</time>
      </trkpt>
      <trkpt lat="44.33229" lon="4.04573">
        <ele>374</ele>
        <time>2013-04-03T12:59:16Z</time>
      </trkpt>
      <trkpt lat="44.33229" lon="4.04574">
        <ele>374</ele>
        <time>2013-04-03T12:59:18Z</time>
      </trkpt>
      <trkpt lat="44.33231" lon="4.04574">
        <ele>374</ele>
        <time>2013-04-03T12:59:20Z</time>
      </trkpt>
      <trkpt lat="44.33233" lon="4.04574">
        <ele>374</ele>
        <time>2013-04-03T12:59:21Z</time>
      </trkpt>
      <trkpt lat="44.33237" lon="4.04576">
        <ele>373</ele>
        <time>2013-04-03T12:59:24Z</time>
      </trkpt>
      <trkpt lat="44.33239" lon="4.04578">
        <ele>373</ele>
        <time>2013-04-03T12:59:26Z</time>
      </trkpt>
      <trkpt lat="44.33241" lon="4.04581">
        <ele>373</ele>
        <time>2013-04-03T12:59:28Z</time>
      </trkpt>
      <trkpt lat="44.33243" lon="4.04582">
        <ele>372</ele>
        <time>2013-04-03T12:59:30Z</time>
      </trkpt>
      <trkpt lat="44.33244" lon="4.04585">
        <ele>372</ele>
        <time>2013-04-03T12:59:32Z</time>
      </trkpt>
      <trkpt lat="44.33247" lon="4.04587">
        <ele>372</ele>
        <time>2013-04-03T12:59:34Z</time>
      </trkpt>
      <trkpt lat="44.33248" lon="4.04589">
        <ele>371</ele>
        <time>2013-04-03T12:59:36Z</time>
      </trkpt>
      <trkpt lat="44.3325" lon="4.04591">
        <ele>371</ele>
        <time>2013-04-03T12:59:38Z</time>
      </trkpt>
      <trkpt lat="44.33253" lon="4.04592">
        <ele>371</ele>
        <time>2013-04-03T12:59:40Z</time>
      </trkpt>
      <trkpt lat="44.33255" lon="4.04594">
        <ele>372</ele>
        <time>2013-04-03T12:59:42Z</time>
      </trkpt>
      <trkpt lat="44.33257" lon="4.04595">
        <ele>372</ele>
        <time>2013-04-03T12:59:44Z</time>
      </trkpt>
      <trkpt lat="44.33258" lon="4.04598">
        <ele>371</ele>
        <time>2013-04-03T12:59:46Z</time>
      </trkpt>
      <trkpt lat="44.3326" lon="4.046">
        <ele>371</ele>
        <time>2013-04-03T12:59:48Z</time>
      </trkpt>
      <trkpt lat="44.33262" lon="4.04603">
        <ele>371</ele>
        <time>2013-04-03T12:59:50Z</time>
      </trkpt>
      <trkpt lat="44.33263" lon="4.04605">
        <ele>370</ele>
        <time>2013-04-03T12:59:52Z</time>
      </trkpt>
      <trkpt lat="44.33264" lon="4.04606">
        <ele>370</ele>
        <time>2013-04-03T12:59:54Z</time>
      </trkpt>
      <trkpt lat="44.33266" lon="4.04608">
        <ele>370</ele>
        <time>2013-04-03T12:59:56Z</time>
      </trkpt>
      <trkpt lat="44.33267" lon="4.04609">
        <ele>370</ele>
        <time>2013-04-03T12:59:58Z</time>
      </trkpt>
      <trkpt lat="44.33269" lon="4.04611">
        <ele>370</ele>
        <time>2013-04-03T13:00:00Z</time>
      </trkpt>
      <trkpt lat="44.33271" lon="4.04613">
        <ele>370</ele>
        <time>2013-04-03T13:00:02Z</time>
      </trkpt>
      <trkpt lat="44.33272" lon="4.04614">
        <ele>372</ele>
        <time>2013-04-03T13:00:04Z</time>
      </trkpt>
      <trkpt lat="44.33273" lon="4.04616">
        <ele>372</ele>
        <time>2013-04-03T13:00:06Z</time>
      </trkpt>
      <trkpt lat="44.33273" lon="4.0462">
        <ele>372</ele>
        <time>2013-04-03T13:00:08Z</time>
      </trkpt>
      <trkpt lat="44.33275" lon="4.04625">
        <ele>370</ele>
        <time>2013-04-03T13:00:10Z</time>
      </trkpt>
      <trkpt lat="44.33277" lon="4.04629">
        <ele>369</ele>
        <time>2013-04-03T13:00:12Z</time>
      </trkpt>
      <trkpt lat="44.33279" lon="4.04631">
        <ele>368</ele>
        <time>2013-04-03T13:00:14Z</time>
      </trkpt>
      <trkpt lat="44.33281" lon="4.04634">
        <ele>368</ele>
        <time>2013-04-03T13:00:16Z</time>
      </trkpt>
      <trkpt lat="44.33282" lon="4.04637">
        <ele>369</ele>
        <time>2013-04-03T13:00:18Z</time>
      </trkpt>
      <trkpt lat="44.33283" lon="4.04639">
        <ele>369</ele>
        <time>2013-04-03T13:00:20Z</time>
      </trkpt>
      <trkpt lat="44.33284" lon="4.04641">
        <ele>368</ele>
        <time>2013-04-03T13:00:22Z</time>
      </trkpt>
      <trkpt lat="44.33284" lon="4.04641">
        <ele>368</ele>
        <time>2013-04-03T13:00:23Z</time>
      </trkpt>
      <trkpt lat="44.33286" lon="4.04642">
        <ele>368</ele>
        <time>2013-04-03T13:00:26Z</time>
      </trkpt>
      <trkpt lat="44.33288" lon="4.04645">
        <ele>369</ele>
        <time>2013-04-03T13:00:28Z</time>
      </trkpt>
      <trkpt lat="44.33291" lon="4.04647">
        <ele>368</ele>
        <time>2013-04-03T13:00:30Z</time>
      </trkpt>
      <trkpt lat="44.33293" lon="4.04647">
        <ele>368</ele>
        <time>2013-04-03T13:00:32Z</time>
      </trkpt>
      <trkpt lat="44.33296" lon="4.04649">
        <ele>368</ele>
        <time>2013-04-03T13:00:34Z</time>
      </trkpt>
      <trkpt lat="44.33297" lon="4.04651">
        <ele>369</ele>
        <time>2013-04-03T13:00:36Z</time>
      </trkpt>
      <trkpt lat="44.33298" lon="4.04652">
        <ele>369</ele>
        <time>2013-04-03T13:00:38Z</time>
      </trkpt>
      <trkpt lat="44.333" lon="4.04653">
        <ele>369</ele>
        <time>2013-04-03T13:00:40Z</time>
      </trkpt>
      <trkpt lat="44.33302" lon="4.04654">
        <ele>370</ele>
        <time>2013-04-03T13:00:42Z</time>
      </trkpt>
      <trkpt lat="44.33304" lon="4.04656">
        <ele>371</ele>
        <time>2013-04-03T13:00:44Z</time>
      </trkpt>
      <trkpt lat="44.33306" lon="4.04658">
        <ele>371</ele>
        <time>2013-04-03T13:00:46Z</time>
      </trkpt>
      <trkpt lat="44.33308" lon="4.0466">
        <ele>371</ele>
        <time>2013-04-03T13:00:48Z</time>
      </trkpt>
      <trkpt lat="44.33309" lon="4.04662">
        <ele>372</ele>
        <time>2013-04-03T13:00:50Z</time>
      </trkpt>
      <trkpt lat="44.33312" lon="4.04663">
        <ele>372</ele>
        <time>2013-04-03T13:00:52Z</time>
      </trkpt>
      <trkpt lat="44.33314" lon="4.04664">
        <ele>372</ele>
        <time>2013-04-03T13:00:54Z</time>
      </trkpt>
      <trkpt lat="44.33315" lon="4.04664">
        <ele>372</ele>
        <time>2013-04-03T13:00:56Z</time>
      </trkpt>
      <trkpt lat="44.33317" lon="4.04666">
        <ele>372</ele>
        <time>2013-04-03T13:00:58Z</time>
      </trkpt>
      <trkpt lat="44.3332" lon="4.04668">
        <ele>372</ele>
        <time>2013-04-03T13:01:00Z</time>
      </trkpt>
      <trkpt lat="44.33321" lon="4.0467">
        <ele>371</ele>
        <time>2013-04-03T13:01:02Z</time>
      </trkpt>
      <trkpt lat="44.33322" lon="4.04673">
        <ele>370</ele>
        <time>2013-04-03T13:01:04Z</time>
      </trkpt>
      <trkpt lat="44.33323" lon="4.04675">
        <ele>370</ele>
        <time>2013-04-03T13:01:06Z</time>
      </trkpt>
      <trkpt lat="44.33325" lon="4.04678">
        <ele>370</ele>
        <time>2013-04-03T13:01:08Z</time>
      </trkpt>
      <trkpt lat="44.33327" lon="4.04681">
        <ele>369</ele>
        <time>2013-04-03T13:01:10Z</time>
      </trkpt>
      <trkpt lat="44.33329" lon="4.04684">
        <ele>369</ele>
        <time>2013-04-03T13:01:12Z</time>
      </trkpt>
      <trkpt lat="44.33331" lon="4.04688">
        <ele>368</ele>
        <time>2013-04-03T13:01:14Z</time>
      </trkpt>
      <trkpt lat="44.33332" lon="4.0469">
        <ele>367</ele>
        <time>2013-04-03T13:01:16Z</time>
      </trkpt>
      <trkpt lat="44.33333" lon="4.04692">
        <ele>366</ele>
        <time>2013-04-03T13:01:18Z</time>
      </trkpt>
      <trkpt lat="44.33335" lon="4.04695">
        <ele>365</ele>
        <time>2013-04-03T13:01:20Z</time>
      </trkpt>
      <trkpt lat="44.33336" lon="4.04697">
        <ele>367</ele>
        <time>2013-04-03T13:01:22Z</time>
      </trkpt>
      <trkpt lat="44.33337" lon="4.04699">
        <ele>368</ele>
        <time>2013-04-03T13:01:24Z</time>
      </trkpt>
      <trkpt lat="44.33337" lon="4.047">
        <ele>368</ele>
        <time>2013-04-03T13:01:25Z</time>
      </trkpt>
      <trkpt lat="44.3334" lon="4.04704">
        <ele>368</ele>
        <time>2013-04-03T13:01:28Z</time>
      </trkpt>
      <trkpt lat="44.33342" lon="4.04706">
        <ele>369</ele>
        <time>2013-04-03T13:01:30Z</time>
      </trkpt>
      <trkpt lat="44.33343" lon="4.04708">
        <ele>369</ele>
        <time>2013-04-03T13:01:32Z</time>
      </trkpt>
      <trkpt lat="44.33345" lon="4.04711">
        <ele>368</ele>
        <time>2013-04-03T13:01:34Z</time>
      </trkpt>
      <trkpt lat="44.33346" lon="4.04713">
        <ele>368</ele>
        <time>2013-04-03T13:01:36Z</time>
      </trkpt>
      <trkpt lat="44.33347" lon="4.04716">
        <ele>369</ele>
        <time>2013-04-03T13:01:38Z</time>
      </trkpt>
      <trkpt lat="44.33349" lon="4.04719">
        <ele>369</ele>
        <time>2013-04-03T13:01:40Z</time>
      </trkpt>
      <trkpt lat="44.33351" lon="4.04721">
        <ele>370</ele>
        <time>2013-04-03T13:01:42Z</time>
      </trkpt>
      <trkpt lat="44.33352" lon="4.04723">
        <ele>370</ele>
        <time>2013-04-03T13:01:44Z</time>
      </trkpt>
      <trkpt lat="44.33354" lon="4.04725">
        <ele>371</ele>
        <time>2013-04-03T13:01:46Z</time>
      </trkpt>
      <trkpt lat="44.33354" lon="4.04727">
        <ele>371</ele>
        <time>2013-04-03T13:01:48Z</time>
      </trkpt>
      <trkpt lat="44.33355" lon="4.04729">
        <ele>372</ele>
        <time>2013-04-03T13:01:50Z</time>
      </trkpt>
      <trkpt lat="44.33355" lon="4.04731">
        <ele>372</ele>
        <time>2013-04-03T13:01:52Z</time>
      </trkpt>
      <trkpt lat="44.33357" lon="4.04733">
        <ele>372</ele>
        <time>2013-04-03T13:01:54Z</time>
      </trkpt>
      <trkpt lat="44.33357" lon="4.04734">
        <ele>372</ele>
        <time>2013-04-03T13:01:56Z</time>
      </trkpt>
      <trkpt lat="44.33358" lon="4.04736">
        <ele>371</ele>
        <time>2013-04-03T13:01:58Z</time>
      </trkpt>
      <trkpt lat="44.33358" lon="4.04738">
        <ele>372</ele>
        <time>2013-04-03T13:02:00Z</time>
      </trkpt>
      <trkpt lat="44.33358" lon="4.04739">
        <ele>371</ele>
        <time>2013-04-03T13:02:02Z</time>
      </trkpt>
      <trkpt lat="44.33359" lon="4.04741">
        <ele>372</ele>
        <time>2013-04-03T13:02:04Z</time>
      </trkpt>
      <trkpt lat="44.33361" lon="4.04744">
        <ele>372</ele>
        <time>2013-04-03T13:02:06Z</time>
      </trkpt>
      <trkpt lat="44.33364" lon="4.04746">
        <ele>372</ele>
        <time>2013-04-03T13:02:08Z</time>
      </trkpt>
      <trkpt lat="44.33365" lon="4.04748">
        <ele>373</ele>
        <time>2013-04-03T13:02:10Z</time>
      </trkpt>
      <trkpt lat="44.33366" lon="4.04751">
        <ele>374</ele>
        <time>2013-04-03T13:02:12Z</time>
      </trkpt>
      <trkpt lat="44.33369" lon="4.04753">
        <ele>373</ele>
        <time>2013-04-03T13:02:14Z</time>
      </trkpt>
      <trkpt lat="44.33371" lon="4.04754">
        <ele>373</ele>
        <time>2013-04-03T13:02:16Z</time>
      </trkpt>
      <trkpt lat="44.33373" lon="4.04755">
        <ele>373</ele>
        <time>2013-04-03T13:02:18Z</time>
      </trkpt>
      <trkpt lat="44.33375" lon="4.04757">
        <ele>373</ele>
        <time>2013-04-03T13:02:20Z</time>
      </trkpt>
      <trkpt lat="44.33376" lon="4.04759">
        <ele>374</ele>
        <time>2013-04-03T13:02:22Z</time>
      </trkpt>
      <trkpt lat="44.33377" lon="4.0476">
        <ele>374</ele>
        <time>2013-04-03T13:02:24Z</time>
      </trkpt>
      <trkpt lat="44.33377" lon="4.0476">
        <ele>374</ele>
        <time>2013-04-03T13:02:26Z</time>
      </trkpt>
      <trkpt lat="44.33377" lon="4.0476">
        <ele>374</ele>
        <time>2013-04-03T13:02:27Z</time>
      </trkpt>
      <trkpt lat="44.33378" lon="4.04761">
        <ele>374</ele>
        <time>2013-04-03T13:02:30Z</time>
      </trkpt>
      <trkpt lat="44.33378" lon="4.04762">
        <ele>373</ele>
        <time>2013-04-03T13:02:32Z</time>
      </trkpt>
      <trkpt lat="44.33379" lon="4.04763">
        <ele>372</ele>
        <time>2013-04-03T13:02:34Z</time>
      </trkpt>
      <trkpt lat="44.33382" lon="4.04765">
        <ele>371</ele>
        <time>2013-04-03T13:02:36Z</time>
      </trkpt>
      <trkpt lat="44.33383" lon="4.04766">
        <ele>370</ele>
        <time>2013-04-03T13:02:38Z</time>
      </trkpt>
      <trkpt lat="44.33386" lon="4.04767">
        <ele>368</ele>
        <time>2013-04-03T13:02:40Z</time>
      </trkpt>
      <trkpt lat="44.33389" lon="4.04769">
        <ele>367</ele>
        <time>2013-04-03T13:02:42Z</time>
      </trkpt>
      <trkpt lat="44.33393" lon="4.0477">
        <ele>363</ele>
        <time>2013-04-03T13:02:44Z</time>
      </trkpt>
      <trkpt lat="44.33395" lon="4.04769">
        <ele>363</ele>
        <time>2013-04-03T13:02:46Z</time>
      </trkpt>
      <trkpt lat="44.33395" lon="4.04768">
        <ele>363</ele>
        <time>2013-04-03T13:02:48Z</time>
      </trkpt>
      <trkpt lat="44.33396" lon="4.04768">
        <ele>363</ele>
        <time>2013-04-03T13:02:50Z</time>
      </trkpt>
      <trkpt lat="44.33397" lon="4.04768">
        <ele>362</ele>
        <time>2013-04-03T13:02:52Z</time>
      </trkpt>
      <trkpt lat="44.33398" lon="4.04768">
        <ele>362</ele>
        <time>2013-04-03T13:02:54Z</time>
      </trkpt>
      <trkpt lat="44.33398" lon="4.04766">
        <ele>362</ele>
        <time>2013-04-03T13:02:56Z</time>
      </trkpt>
      <trkpt lat="44.33399" lon="4.04764">
        <ele>362</ele>
        <time>2013-04-03T13:02:58Z</time>
      </trkpt>
      <trkpt lat="44.33399" lon="4.04762">
        <ele>362</ele>
        <time>2013-04-03T13:03:00Z</time>
      </trkpt>
      <trkpt lat="44.33399" lon="4.04762">
        <ele>361</ele>
        <time>2013-04-03T13:03:02Z</time>
      </trkpt>
      <trkpt lat="44.33399" lon="4.0476">
        <ele>362</ele>
        <time>2013-04-03T13:03:04Z</time>
      </trkpt>
      <trkpt lat="44.33399" lon="4.0476">
        <ele>363</ele>
        <time>2013-04-03T13:03:06Z</time>
      </trkpt>
      <trkpt lat="44.33399" lon="4.04759">
        <ele>363</ele>
        <time>2013-04-03T13:03:08Z</time>
      </trkpt>
      <trkpt lat="44.33399" lon="4.04758">
        <ele>363</ele>
        <time>2013-04-03T13:03:10Z</time>
      </trkpt>
      <trkpt lat="44.33399" lon="4.04758">
        <ele>363</ele>
        <time>2013-04-03T13:03:12Z</time>
      </trkpt>
      <trkpt lat="44.33398" lon="4.04757">
        <ele>363</ele>
        <time>2013-04-03T13:03:14Z</time>
      </trkpt>
      <trkpt lat="44.33397" lon="4.04755">
        <ele>362</ele>
        <time>2013-04-03T13:03:16Z</time>
      </trkpt>
      <trkpt lat="44.33397" lon="4.04752">
        <ele>362</ele>
        <time>2013-04-03T13:03:18Z</time>
      </trkpt>
      <trkpt lat="44.33397" lon="4.04751">
        <ele>362</ele>
        <time>2013-04-03T13:03:20Z</time>
      </trkpt>
      <trkpt lat="44.33397" lon="4.04745">
        <ele>363</ele>
        <time>2013-04-03T13:03:22Z</time>
      </trkpt>
      <trkpt lat="44.33397" lon="4.0474">
        <ele>364</ele>
        <time>2013-04-03T13:03:24Z</time>
      </trkpt>
      <trkpt lat="44.33398" lon="4.04736">
        <ele>364</ele>
        <time>2013-04-03T13:03:26Z</time>
      </trkpt>
      <trkpt lat="44.33398" lon="4.04732">
        <ele>364</ele>
        <time>2013-04-03T13:03:28Z</time>
      </trkpt>
      <trkpt lat="44.33398" lon="4.04729">
        <ele>364</ele>
        <time>2013-04-03T13:03:29Z</time>
      </trkpt>
      <trkpt lat="44.33396" lon="4.04726">
        <ele>364</ele>
        <time>2013-04-03T13:03:32Z</time>
      </trkpt>
      <trkpt lat="44.33395" lon="4.04724">
        <ele>365</ele>
        <time>2013-04-03T13:03:34Z</time>
      </trkpt>
      <trkpt lat="44.33394" lon="4.0472">
        <ele>366</ele>
        <time>2013-04-03T13:03:36Z</time>
      </trkpt>
      <trkpt lat="44.33393" lon="4.04716">
        <ele>367</ele>
        <time>2013-04-03T13:03:38Z</time>
      </trkpt>
      <trkpt lat="44.33393" lon="4.04713">
        <ele>367</ele>
        <time>2013-04-03T13:03:40Z</time>
      </trkpt>
      <trkpt lat="44.33393" lon="4.0471">
        <ele>366</ele>
        <time>2013-04-03T13:03:42Z</time>
      </trkpt>
      <trkpt lat="44.33394" lon="4.04706">
        <ele>367</ele>
        <time>2013-04-03T13:03:44Z</time>
      </trkpt>
      <trkpt lat="44.33393" lon="4.04704">
        <ele>367</ele>
        <time>2013-04-03T13:03:46Z</time>
      </trkpt>
      <trkpt lat="44.33392" lon="4.04701">
        <ele>367</ele>
        <time>2013-04-03T13:03:48Z</time>
      </trkpt>
      <trkpt lat="44.33392" lon="4.04699">
        <ele>367</ele>
        <time>2013-04-03T13:03:50Z</time>
      </trkpt>
      <trkpt lat="44.33393" lon="4.04695">
        <ele>367</ele>
        <time>2013-04-03T13:03:52Z</time>
      </trkpt>
      <trkpt lat="44.33393" lon="4.04693">
        <ele>367</ele>
        <time>2013-04-03T13:03:54Z</time>
      </trkpt>
      <trkpt lat="44.33393" lon="4.04692">
        <ele>367</ele>
        <time>2013-04-03T13:03:56Z</time>
      </trkpt>
      <trkpt lat="44.33392" lon="4.0469">
        <ele>368</ele>
        <time>2013-04-03T13:03:58Z</time>
      </trkpt>
      <trkpt lat="44.33392" lon="4.04688">
        <ele>368</ele>
        <time>2013-04-03T13:04:00Z</time>
      </trkpt>
      <trkpt lat="44.33391" lon="4.04685">
        <ele>367</ele>
        <time>2013-04-03T13:04:02Z</time>
      </trkpt>
      <trkpt lat="44.33389" lon="4.0468">
        <ele>367</ele>
        <time>2013-04-03T13:04:04Z</time>
      </trkpt>
      <trkpt lat="44.33389" lon="4.04675">
        <ele>367</ele>
        <time>2013-04-03T13:04:06Z</time>
      </trkpt>
      <trkpt lat="44.33389" lon="4.04673">
        <ele>368</ele>
        <time>2013-04-03T13:04:08Z</time>
      </trkpt>
      <trkpt lat="44.33388" lon="4.0467">
        <ele>368</ele>
        <time>2013-04-03T13:04:10Z</time>
      </trkpt>
      <trkpt lat="44.33388" lon="4.04667">
        <ele>367</ele>
        <time>2013-04-03T13:04:12Z</time>
      </trkpt>
      <trkpt lat="44.33388" lon="4.04663">
        <ele>367</ele>
        <time>2013-04-03T13:04:14Z</time>
      </trkpt>
      <trkpt lat="44.33388" lon="4.04659">
        <ele>367</ele>
        <time>2013-04-03T13:04:16Z</time>
      </trkpt>
      <trkpt lat="44.33388" lon="4.04655">
        <ele>367</ele>
        <time>2013-04-03T13:04:18Z</time>
      </trkpt>
      <trkpt lat="44.33387" lon="4.04652">
        <ele>367</ele>
        <time>2013-04-03T13:04:20Z</time>
      </trkpt>
      <trkpt lat="44.33387" lon="4.04649">
        <ele>368</ele>
        <time>2013-04-03T13:04:22Z</time>
      </trkpt>
      <trkpt lat="44.33387" lon="4.04645">
        <ele>368</ele>
        <time>2013-04-03T13:04:24Z</time>
      </trkpt>
      <trkpt lat="44.33387" lon="4.04641">
        <ele>367</ele>
        <time>2013-04-03T13:04:26Z</time>
      </trkpt>
      <trkpt lat="44.33387" lon="4.04636">
        <ele>368</ele>
        <time>2013-04-03T13:04:28Z</time>
      </trkpt>
      <trkpt lat="44.33387" lon="4.04631">
        <ele>366</ele>
        <time>2013-04-03T13:04:30Z</time>
      </trkpt>
      <trkpt lat="44.33388" lon="4.0463">
        <ele>366</ele>
        <time>2013-04-03T13:04:31Z</time>
      </trkpt>
      <trkpt lat="44.33388" lon="4.04626">
        <ele>366</ele>
        <time>2013-04-03T13:04:34Z</time>
      </trkpt>
      <trkpt lat="44.33387" lon="4.04622">
        <ele>366</ele>
        <time>2013-04-03T13:04:36Z</time>
      </trkpt>
      <trkpt lat="44.33386" lon="4.04617">
        <ele>365</ele>
        <time>2013-04-03T13:04:38Z</time>
      </trkpt>
      <trkpt lat="44.33386" lon="4.04616">
        <ele>364</ele>
        <time>2013-04-03T13:04:40Z</time>
      </trkpt>
      <trkpt lat="44.33385" lon="4.04612">
        <ele>364</ele>
        <time>2013-04-03T13:04:42Z</time>
      </trkpt>
      <trkpt lat="44.33384" lon="4.04608">
        <ele>363</ele>
        <time>2013-04-03T13:04:44Z</time>
      </trkpt>
      <trkpt lat="44.33383" lon="4.04605">
        <ele>362</ele>
        <time>2013-04-03T13:04:46Z</time>
      </trkpt>
      <trkpt lat="44.33382" lon="4.04602">
        <ele>361</ele>
        <time>2013-04-03T13:04:48Z</time>
      </trkpt>
      <trkpt lat="44.3338" lon="4.04598">
        <ele>361</ele>
        <time>2013-04-03T13:04:50Z</time>
      </trkpt>
      <trkpt lat="44.3338" lon="4.04594">
        <ele>361</ele>
        <time>2013-04-03T13:04:52Z</time>
      </trkpt>
      <trkpt lat="44.3338" lon="4.04591">
        <ele>360</ele>
        <time>2013-04-03T13:04:54Z</time>
      </trkpt>
      <trkpt lat="44.33378" lon="4.04586">
        <ele>361</ele>
        <time>2013-04-03T13:04:56Z</time>
      </trkpt>
      <trkpt lat="44.33378" lon="4.04584">
        <ele>360</ele>
        <time>2013-04-03T13:04:58Z</time>
      </trkpt>
      <trkpt lat="44.33378" lon="4.04582">
        <ele>360</ele>
        <time>2013-04-03T13:05:00Z</time>
      </trkpt>
      <trkpt lat="44.33378" lon="4.04578">
        <ele>360</ele>
        <time>2013-04-03T13:05:02Z</time>
      </trkpt>
      <trkpt lat="44.33376" lon="4.04573">
        <ele>361</ele>
        <time>2013-04-03T13:05:04Z</time>
      </trkpt>
      <trkpt lat="44.33375" lon="4.04569">
        <ele>362</ele>
        <time>2013-04-03T13:05:06Z</time>
      </trkpt>
      <trkpt lat="44.33373" lon="4.04565">
        <ele>362</ele>
        <time>2013-04-03T13:05:08Z</time>
      </trkpt>
      <trkpt lat="44.33371" lon="4.04562">
        <ele>362</ele>
        <time>2013-04-03T13:05:10Z</time>
      </trkpt>
      <trkpt lat="44.33369" lon="4.04558">
        <ele>362</ele>
        <time>2013-04-03T13:05:12Z</time>
      </trkpt>
      <trkpt lat="44.33368" lon="4.04555">
        <ele>362</ele>
        <time>2013-04-03T13:05:14Z</time>
      </trkpt>
      <trkpt lat="44.33366" lon="4.04551">
        <ele>361</ele>
        <time>2013-04-03T13:05:16Z</time>
      </trkpt>
      <trkpt lat="44.33365" lon="4.04549">
        <ele>361</ele>
        <time>2013-04-03T13:05:18Z</time>
      </trkpt>
      <trkpt lat="44.33365" lon="4.04547">
        <ele>361</ele>
        <time>2013-04-03T13:05:20Z</time>
      </trkpt>
      <trkpt lat="44.33365" lon="4.04545">
        <ele>361</ele>
        <time>2013-04-03T13:05:22Z</time>
      </trkpt>
      <trkpt lat="44.33365" lon="4.04541">
        <ele>360</ele>
        <time>2013-04-03T13:05:24Z</time>
      </trkpt>
      <trkpt lat="44.33365" lon="4.04536">
        <ele>360</ele>
        <time>2013-04-03T13:05:26Z</time>
      </trkpt>
      <trkpt lat="44.33365" lon="4.04532">
        <ele>360</ele>
        <time>2013-04-03T13:05:28Z</time>
      </trkpt>
      <trkpt lat="44.33365" lon="4.04529">
        <ele>360</ele>
        <time>2013-04-03T13:05:30Z</time>
      </trkpt>
      <trkpt lat="44.33365" lon="4.04526">
        <ele>359</ele>
        <time>2013-04-03T13:05:32Z</time>
      </trkpt>
      <trkpt lat="44.33365" lon="4.04524">
        <ele>359</ele>
        <time>2013-04-03T13:05:33Z</time>
      </trkpt>
      <trkpt lat="44.33366" lon="4.04519">
        <ele>360</ele>
        <time>2013-04-03T13:05:36Z</time>
      </trkpt>
      <trkpt lat="44.33366" lon="4.04517">
        <ele>360</ele>
        <time>2013-04-03T13:05:38Z</time>
      </trkpt>
      <trkpt lat="44.33367" lon="4.04514">
        <ele>360</ele>
        <time>2013-04-03T13:05:40Z</time>
      </trkpt>
      <trkpt lat="44.33368" lon="4.04511">
        <ele>362</ele>
        <time>2013-04-03T13:05:42Z</time>
      </trkpt>
      <trkpt lat="44.33368" lon="4.0451">
        <ele>362</ele>
        <time>2013-04-03T13:05:44Z</time>
      </trkpt>
      <trkpt lat="44.33369" lon="4.04508">
        <ele>362</ele>
        <time>2013-04-03T13:05:46Z</time>
      </trkpt>
      <trkpt lat="44.3337" lon="4.04505">
        <ele>362</ele>
        <time>2013-04-03T13:05:48Z</time>
      </trkpt>
      <trkpt lat="44.33371" lon="4.04503">
        <ele>363</ele>
        <time>2013-04-03T13:05:50Z</time>
      </trkpt>
      <trkpt lat="44.33372" lon="4.04501">
        <ele>363</ele>
        <time>2013-04-03T13:05:52Z</time>
      </trkpt>
      <trkpt lat="44.33373" lon="4.04499">
        <ele>363</ele>
        <time>2013-04-03T13:05:54Z</time>
      </trkpt>
      <trkpt lat="44.33374" lon="4.04499">
        <ele>363</ele>
        <time>2013-04-03T13:05:56Z</time>
      </trkpt>
      <trkpt lat="44.33376" lon="4.04497">
        <ele>362</ele>
        <time>2013-04-03T13:05:58Z</time>
      </trkpt>
      <trkpt lat="44.33378" lon="4.04495">
        <ele>361</ele>
        <time>2013-04-03T13:06:00Z</time>
      </trkpt>
      <trkpt lat="44.33379" lon="4.04493">
        <ele>361</ele>
        <time>2013-04-03T13:06:02Z</time>
      </trkpt>
      <trkpt lat="44.33381" lon="4.0449">
        <ele>361</ele>
        <time>2013-04-03T13:06:04Z</time>
      </trkpt>
      <trkpt lat="44.33382" lon="4.04488">
        <ele>362</ele>
        <time>2013-04-03T13:06:06Z</time>
      </trkpt>
      <trkpt lat="44.33384" lon="4.04487">
        <ele>362</ele>
        <time>2013-04-03T13:06:08Z</time>
      </trkpt>
      <trkpt lat="44.33386" lon="4.04486">
        <ele>362</ele>
        <time>2013-04-03T13:06:10Z</time>
      </trkpt>
      <trkpt lat="44.33388" lon="4.04484">
        <ele>361</ele>
        <time>2013-04-03T13:06:12Z</time>
      </trkpt>
      <trkpt lat="44.3339" lon="4.04482">
        <ele>361</ele>
        <time>2013-04-03T13:06:14Z</time>
      </trkpt>
      <trkpt lat="44.33392" lon="4.0448">
        <ele>360</ele>
        <time>2013-04-03T13:06:16Z</time>
      </trkpt>
      <trkpt lat="44.33394" lon="4.04478">
        <ele>360</ele>
        <time>2013-04-03T13:06:18Z</time>
      </trkpt>
      <trkpt lat="44.33396" lon="4.04476">
        <ele>360</ele>
        <time>2013-04-03T13:06:20Z</time>
      </trkpt>
      <trkpt lat="44.33398" lon="4.04475">
        <ele>360</ele>
        <time>2013-04-03T13:06:22Z</time>
      </trkpt>
      <trkpt lat="44.33399" lon="4.04474">
        <ele>360</ele>
        <time>2013-04-03T13:06:24Z</time>
      </trkpt>
      <trkpt lat="44.334" lon="4.04473">
        <ele>360</ele>
        <time>2013-04-03T13:06:26Z</time>
      </trkpt>
      <trkpt lat="44.33402" lon="4.04471">
        <ele>360</ele>
        <time>2013-04-03T13:06:28Z</time>
      </trkpt>
      <trkpt lat="44.33403" lon="4.04471">
        <ele>360</ele>
        <time>2013-04-03T13:06:30Z</time>
      </trkpt>
      <trkpt lat="44.33405" lon="4.04471">
        <ele>360</ele>
        <time>2013-04-03T13:06:32Z</time>
      </trkpt>
      <trkpt lat="44.33407" lon="4.04472">
        <ele>361</ele>
        <time>2013-04-03T13:06:34Z</time>
      </trkpt>
      <trkpt lat="44.33409" lon="4.04472">
        <ele>360</ele>
        <time>2013-04-03T13:06:35Z</time>
      </trkpt>
      <trkpt lat="44.33411" lon="4.04472">
        <ele>361</ele>
        <time>2013-04-03T13:06:38Z</time>
      </trkpt>
      <trkpt lat="44.33414" lon="4.04472">
        <ele>361</ele>
        <time>2013-04-03T13:06:40Z</time>
      </trkpt>
      <trkpt lat="44.33416" lon="4.04471">
        <ele>361</ele>
        <time>2013-04-03T13:06:42Z</time>
      </trkpt>
      <trkpt lat="44.33418" lon="4.04471">
        <ele>360</ele>
        <time>2013-04-03T13:06:44Z</time>
      </trkpt>
      <trkpt lat="44.3342" lon="4.0447">
        <ele>360</ele>
        <time>2013-04-03T13:06:46Z</time>
      </trkpt>
      <trkpt lat="44.33423" lon="4.0447">
        <ele>360</ele>
        <time>2013-04-03T13:06:48Z</time>
      </trkpt>
      <trkpt lat="44.33425" lon="4.04469">
        <ele>360</ele>
        <time>2013-04-03T13:06:50Z</time>
      </trkpt>
      <trkpt lat="44.33427" lon="4.04468">
        <ele>360</ele>
        <time>2013-04-03T13:06:52Z</time>
      </trkpt>
      <trkpt lat="44.33429" lon="4.04466">
        <ele>360</ele>
        <time>2013-04-03T13:06:54Z</time>
      </trkpt>
      <trkpt lat="44.33432" lon="4.04466">
        <ele>360</ele>
        <time>2013-04-03T13:06:56Z</time>
      </trkpt>
      <trkpt lat="44.33434" lon="4.04465">
        <ele>360</ele>
        <time>2013-04-03T13:06:58Z</time>
      </trkpt>
      <trkpt lat="44.33436" lon="4.04465">
        <ele>360</ele>
        <time>2013-04-03T13:07:00Z</time>
      </trkpt>
      <trkpt lat="44.33439" lon="4.04464">
        <ele>359</ele>
        <time>2013-04-03T13:07:02Z</time>
      </trkpt>
      <trkpt lat="44.33441" lon="4.04463">
        <ele>359</ele>
        <time>2013-04-03T13:07:04Z</time>
      </trkpt>
      <trkpt lat="44.33443" lon="4.04462">
        <ele>359</ele>
        <time>2013-04-03T13:07:06Z</time>
      </trkpt>
      <trkpt lat="44.33446" lon="4.04461">
        <ele>359</ele>
        <time>2013-04-03T13:07:08Z</time>
      </trkpt>
      <trkpt lat="44.33448" lon="4.04458">
        <ele>359</ele>
        <time>2013-04-03T13:07:10Z</time>
      </trkpt>
      <trkpt lat="44.33451" lon="4.04456">
        <ele>358</ele>
        <time>2013-04-03T13:07:12Z</time>
      </trkpt>
      <trkpt lat="44.33452" lon="4.04454">
        <ele>359</ele>
        <time>2013-04-03T13:07:14Z</time>
      </trkpt>
      <trkpt lat="44.33454" lon="4.04453">
        <ele>358</ele>
        <time>2013-04-03T13:07:16Z</time>
      </trkpt>
      <trkpt lat="44.33454" lon="4.04452">
        <ele>359</ele>
        <time>2013-04-03T13:07:18Z</time>
      </trkpt>
      <trkpt lat="44.33457" lon="4.04451">
        <ele>359</ele>
        <time>2013-04-03T13:07:20Z</time>
      </trkpt>
      <trkpt lat="44.33458" lon="4.04449">
        <ele>359</ele>
        <time>2013-04-03T13:07:22Z</time>
      </trkpt>
      <trkpt lat="44.3346" lon="4.04448">
        <ele>358</ele>
        <time>2013-04-03T13:07:24Z</time>
      </trkpt>
      <trkpt lat="44.33461" lon="4.04447">
        <ele>359</ele>
        <time>2013-04-03T13:07:26Z</time>
      </trkpt>
      <trkpt lat="44.33463" lon="4.04446">
        <ele>359</ele>
        <time>2013-04-03T13:07:28Z</time>
      </trkpt>
      <trkpt lat="44.33465" lon="4.04445">
        <ele>359</ele>
        <time>2013-04-03T13:07:30Z</time>
      </trkpt>
      <trkpt lat="44.33467" lon="4.04444">
        <ele>360</ele>
        <time>2013-04-03T13:07:32Z</time>
      </trkpt>
      <trkpt lat="44.33469" lon="4.04443">
        <ele>360</ele>
        <time>2013-04-03T13:07:34Z</time>
      </trkpt>
      <trkpt lat="44.33473" lon="4.04442">
        <ele>360</ele>
        <time>2013-04-03T13:07:36Z</time>
      </trkpt>
      <trkpt lat="44.33474" lon="4.0444">
        <ele>360</ele>
        <time>2013-04-03T13:07:37Z</time>
      </trkpt>
      <trkpt lat="44.33477" lon="4.04438">
        <ele>360</ele>
        <time>2013-04-03T13:07:40Z</time>
      </trkpt>
      <trkpt lat="44.33479" lon="4.04436">
        <ele>360</ele>
        <time>2013-04-03T13:07:42Z</time>
      </trkpt>
      <trkpt lat="44.33481" lon="4.04435">
        <ele>359</ele>
        <time>2013-04-03T13:07:44Z</time>
      </trkpt>
      <trkpt lat="44.33482" lon="4.04432">
        <ele>359</ele>
        <time>2013-04-03T13:07:46Z</time>
      </trkpt>
      <trkpt lat="44.33485" lon="4.04431">
        <ele>360</ele>
        <time>2013-04-03T13:07:48Z</time>
      </trkpt>
      <trkpt lat="44.33487" lon="4.0443">
        <ele>360</ele>
        <time>2013-04-03T13:07:50Z</time>
      </trkpt>
      <trkpt lat="44.33489" lon="4.04429">
        <ele>360</ele>
        <time>2013-04-03T13:07:52Z</time>
      </trkpt>
      <trkpt lat="44.3349" lon="4.04427">
        <ele>361</ele>
        <time>2013-04-03T13:07:54Z</time>
      </trkpt>
      <trkpt lat="44.33492" lon="4.04425">
        <ele>362</ele>
        <time>2013-04-03T13:07:56Z</time>
      </trkpt>
      <trkpt lat="44.33494" lon="4.04424">
        <ele>362</ele>
        <time>2013-04-03T13:07:58Z</time>
      </trkpt>
      <trkpt lat="44.33496" lon="4.04423">
        <ele>362</ele>
        <time>2013-04-03T13:08:00Z</time>
      </trkpt>
      <trkpt lat="44.33499" lon="4.04422">
        <ele>362</ele>
        <time>2013-04-03T13:08:02Z</time>
      </trkpt>
      <trkpt lat="44.33501" lon="4.04421">
        <ele>362</ele>
        <time>2013-04-03T13:08:04Z</time>
      </trkpt>
      <trkpt lat="44.33504" lon="4.0442">
        <ele>362</ele>
        <time>2013-04-03T13:08:06Z</time>
      </trkpt>
      <trkpt lat="44.33506" lon="4.04419">
        <ele>362</ele>
        <time>2013-04-03T13:08:08Z</time>
      </trkpt>
      <trkpt lat="44.33509" lon="4.04419">
        <ele>362</ele>
        <time>2013-04-03T13:08:10Z</time>
      </trkpt>
      <trkpt lat="44.3351" lon="4.04419">
        <ele>362</ele>
        <time>2013-04-03T13:08:12Z</time>
      </trkpt>
      <trkpt lat="44.33511" lon="4.04418">
        <ele>363</ele>
        <time>2013-04-03T13:08:14Z</time>
      </trkpt>
      <trkpt lat="44.33513" lon="4.04416">
        <ele>364</ele>
        <time>2013-04-03T13:08:16Z</time>
      </trkpt>
      <trkpt lat="44.33516" lon="4.04416">
        <ele>363</ele>
        <time>2013-04-03T13:08:18Z</time>
      </trkpt>
      <trkpt lat="44.33519" lon="4.04415">
        <ele>363</ele>
        <time>2013-04-03T13:08:20Z</time>
      </trkpt>
      <trkpt lat="44.33521" lon="4.04414">
        <ele>363</ele>
        <time>2013-04-03T13:08:22Z</time>
      </trkpt>
      <trkpt lat="44.33523" lon="4.04413">
        <ele>363</ele>
        <time>2013-04-03T13:08:24Z</time>
      </trkpt>
      <trkpt lat="44.33525" lon="4.04411">
        <ele>364</ele>
        <time>2013-04-03T13:08:26Z</time>
      </trkpt>
      <trkpt lat="44.33526" lon="4.04409">
        <ele>364</ele>
        <time>2013-04-03T13:08:28Z</time>
      </trkpt>
      <trkpt lat="44.33527" lon="4.04407">
        <ele>364</ele>
        <time>2013-04-03T13:08:30Z</time>
      </trkpt>
      <trkpt lat="44.33528" lon="4.04404">
        <ele>364</ele>
        <time>2013-04-03T13:08:32Z</time>
      </trkpt>
      <trkpt lat="44.33529" lon="4.04401">
        <ele>364</ele>
        <time>2013-04-03T13:08:34Z</time>
      </trkpt>
      <trkpt lat="44.33529" lon="4.04398">
        <ele>363</ele>
        <time>2013-04-03T13:08:36Z</time>
      </trkpt>
      <trkpt lat="44.33529" lon="4.04394">
        <ele>363</ele>
        <time>2013-04-03T13:08:38Z</time>
      </trkpt>
      <trkpt lat="44.3353" lon="4.04392">
        <ele>363</ele>
        <time>2013-04-03T13:08:39Z</time>
      </trkpt>
      <trkpt lat="44.33532" lon="4.04387">
        <ele>362</ele>
        <time>2013-04-03T13:08:42Z</time>
      </trkpt>
      <trkpt lat="44.33534" lon="4.04384">
        <ele>361</ele>
        <time>2013-04-03T13:08:44Z</time>
      </trkpt>
      <trkpt lat="44.33535" lon="4.04382">
        <ele>361</ele>
        <time>2013-04-03T13:08:46Z</time>
      </trkpt>
      <trkpt lat="44.33537" lon="4.04379">
        <ele>361</ele>
        <time>2013-04-03T13:08:48Z</time>
      </trkpt>
      <trkpt lat="44.33539" lon="4.04376">
        <ele>361</ele>
        <time>2013-04-03T13:08:50Z</time>
      </trkpt>
      <trkpt lat="44.33542" lon="4.04372">
        <ele>362</ele>
        <time>2013-04-03T13:08:52Z</time>
      </trkpt>
      <trkpt lat="44.33543" lon="4.0437">
        <ele>362</ele>
        <time>2013-04-03T13:08:54Z</time>
      </trkpt>
      <trkpt lat="44.33544" lon="4.04369">
        <ele>362</ele>
        <time>2013-04-03T13:08:56Z</time>
      </trkpt>
      <trkpt lat="44.33546" lon="4.04366">
        <ele>362</ele>
        <time>2013-04-03T13:08:58Z</time>
      </trkpt>
      <trkpt lat="44.33547" lon="4.04365">
        <ele>363</ele>
        <time>2013-04-03T13:09:00Z</time>
      </trkpt>
      <trkpt lat="44.33549" lon="4.04363">
        <ele>363</ele>
        <time>2013-04-03T13:09:02Z</time>
      </trkpt>
      <trkpt lat="44.3355" lon="4.04363">
        <ele>362</ele>
        <time>2013-04-03T13:09:04Z</time>
      </trkpt>
      <trkpt lat="44.33552" lon="4.04361">
        <ele>362</ele>
        <time>2013-04-03T13:09:06Z</time>
      </trkpt>
      <trkpt lat="44.33554" lon="4.04359">
        <ele>361</ele>
        <time>2013-04-03T13:09:08Z</time>
      </trkpt>
      <trkpt lat="44.33557" lon="4.04357">
        <ele>360</ele>
        <time>2013-04-03T13:09:10Z</time>
      </trkpt>
      <trkpt lat="44.33557" lon="4.04357">
        <ele>361</ele>
        <time>2013-04-03T13:09:12Z</time>
      </trkpt>
      <trkpt lat="44.33559" lon="4.04355">
        <ele>362</ele>
        <time>2013-04-03T13:09:14Z</time>
      </trkpt>
      <trkpt lat="44.33562" lon="4.04355">
        <ele>361</ele>
        <time>2013-04-03T13:09:16Z</time>
      </trkpt>
      <trkpt lat="44.33565" lon="4.04355">
        <ele>361</ele>
        <time>2013-04-03T13:09:18Z</time>
      </trkpt>
      <trkpt lat="44.33568" lon="4.04355">
        <ele>361</ele>
        <time>2013-04-03T13:09:20Z</time>
      </trkpt>
      <trkpt lat="44.3357" lon="4.04354">
        <ele>361</ele>
        <time>2013-04-03T13:09:22Z</time>
      </trkpt>
      <trkpt lat="44.33573" lon="4.04354">
        <ele>361</ele>
        <time>2013-04-03T13:09:24Z</time>
      </trkpt>
      <trkpt lat="44.33575" lon="4.04353">
        <ele>361</ele>
        <time>2013-04-03T13:09:26Z</time>
      </trkpt>
      <trkpt lat="44.33576" lon="4.04352">
        <ele>361</ele>
        <time>2013-04-03T13:09:28Z</time>
      </trkpt>
      <trkpt lat="44.33577" lon="4.04351">
        <ele>361</ele>
        <time>2013-04-03T13:09:30Z</time>
      </trkpt>
      <trkpt lat="44.33579" lon="4.0435">
        <ele>361</ele>
        <time>2013-04-03T13:09:32Z</time>
      </trkpt>
      <trkpt lat="44.3358" lon="4.04348">
        <ele>361</ele>
        <time>2013-04-03T13:09:34Z</time>
      </trkpt>
      <trkpt lat="44.3358" lon="4.04348">
        <ele>361</ele>
        <time>2013-04-03T13:09:36Z</time>
      </trkpt>
      <trkpt lat="44.3358" lon="4.04348">
        <ele>361</ele>
        <time>2013-04-03T13:09:38Z</time>
      </trkpt>
      <trkpt lat="44.3358" lon="4.04348">
        <ele>361</ele>
        <time>2013-04-03T13:09:40Z</time>
      </trkpt>
      <trkpt lat="44.3358" lon="4.04347">
        <ele>361</ele>
        <time>2013-04-03T13:09:41Z</time>
      </trkpt>
      <trkpt lat="44.3358" lon="4.04347">
        <ele>361</ele>
        <time>2013-04-03T13:09:44Z</time>
      </trkpt>
      <trkpt lat="44.33581" lon="4.04346">
        <ele>361</ele>
        <time>2013-04-03T13:09:46Z</time>
      </trkpt>
      <trkpt lat="44.33581" lon="4.04345">
        <ele>361</ele>
        <time>2013-04-03T13:09:48Z</time>
      </trkpt>
      <trkpt lat="44.33582" lon="4.04344">
        <ele>360</ele>
        <time>2013-04-03T13:09:50Z</time>
      </trkpt>
      <trkpt lat="44.33583" lon="4.04343">
        <ele>360</ele>
        <time>2013-04-03T13:09:52Z</time>
      </trkpt>
      <trkpt lat="44.33584" lon="4.0434">
        <ele>360</ele>
        <time>2013-04-03T13:09:54Z</time>
      </trkpt>
      <trkpt lat="44.33585" lon="4.04338">
        <ele>360</ele>
        <time>2013-04-03T13:09:56Z</time>
      </trkpt>
      <trkpt lat="44.33586" lon="4.04336">
        <ele>360</ele>
        <time>2013-04-03T13:09:58Z</time>
      </trkpt>
      <trkpt lat="44.33586" lon="4.04335">
        <ele>360</ele>
        <time>2013-04-03T13:10:00Z</time>
      </trkpt>
      <trkpt lat="44.33587" lon="4.04333">
        <ele>361</ele>
        <time>2013-04-03T13:10:02Z</time>
      </trkpt>
      <trkpt lat="44.33586" lon="4.0433">
        <ele>361</ele>
        <time>2013-04-03T13:10:04Z</time>
      </trkpt>
      <trkpt lat="44.33586" lon="4.04329">
        <ele>362</ele>
        <time>2013-04-03T13:10:06Z</time>
      </trkpt>
      <trkpt lat="44.33586" lon="4.0433">
        <ele>363</ele>
        <time>2013-04-03T13:10:08Z</time>
      </trkpt>
      <trkpt lat="44.33585" lon="4.0433">
        <ele>363</ele>
        <time>2013-04-03T13:10:10Z</time>
      </trkpt>
      <trkpt lat="44.33583" lon="4.04328">
        <ele>365</ele>
        <time>2013-04-03T13:10:12Z</time>
      </trkpt>
      <trkpt lat="44.33582" lon="4.04326">
        <ele>366</ele>
        <time>2013-04-03T13:10:14Z</time>
      </trkpt>
      <trkpt lat="44.3358" lon="4.04325">
        <ele>367</ele>
        <time>2013-04-03T13:10:16Z</time>
      </trkpt>
      <trkpt lat="44.33578" lon="4.04324">
        <ele>367</ele>
        <time>2013-04-03T13:10:18Z</time>
      </trkpt>
      <trkpt lat="44.33576" lon="4.04324">
        <ele>368</ele>
        <time>2013-04-03T13:10:20Z</time>
      </trkpt>
      <trkpt lat="44.33574" lon="4.04323">
        <ele>369</ele>
        <time>2013-04-03T13:10:22Z</time>
      </trkpt>
      <trkpt lat="44.33573" lon="4.04323">
        <ele>370</ele>
        <time>2013-04-03T13:10:24Z</time>
      </trkpt>
      <trkpt lat="44.33572" lon="4.04322">
        <ele>370</ele>
        <time>2013-04-03T13:10:26Z</time>
      </trkpt>
      <trkpt lat="44.33571" lon="4.04319">
        <ele>370</ele>
        <time>2013-04-03T13:10:28Z</time>
      </trkpt>
      <trkpt lat="44.3357" lon="4.0432">
        <ele>369</ele>
        <time>2013-04-03T13:10:30Z</time>
      </trkpt>
      <trkpt lat="44.33568" lon="4.04319">
        <ele>370</ele>
        <time>2013-04-03T13:10:32Z</time>
      </trkpt>
      <trkpt lat="44.33566" lon="4.04318">
        <ele>370</ele>
        <time>2013-04-03T13:10:34Z</time>
      </trkpt>
      <trkpt lat="44.33564" lon="4.04317">
        <ele>371</ele>
        <time>2013-04-03T13:10:36Z</time>
      </trkpt>
      <trkpt lat="44.33564" lon="4.04316">
        <ele>371</ele>
        <time>2013-04-03T13:10:38Z</time>
      </trkpt>
      <trkpt lat="44.33563" lon="4.04315">
        <ele>371</ele>
        <time>2013-04-03T13:10:40Z</time>
      </trkpt>
      <trkpt lat="44.33563" lon="4.04315">
        <ele>371</ele>
        <time>2013-04-03T13:10:42Z</time>
      </trkpt>
      <trkpt lat="44.33563" lon="4.04315">
        <ele>371</ele>
        <time>2013-04-03T13:10:43Z</time>
      </trkpt>
      <trkpt lat="44.33562" lon="4.04312">
        <ele>372</ele>
        <time>2013-04-03T13:10:46Z</time>
      </trkpt>
      <trkpt lat="44.33561" lon="4.04311">
        <ele>372</ele>
        <time>2013-04-03T13:10:48Z</time>
      </trkpt>
      <trkpt lat="44.33559" lon="4.04309">
        <ele>372</ele>
        <time>2013-04-03T13:10:50Z</time>
      </trkpt>
      <trkpt lat="44.33556" lon="4.04306">
        <ele>373</ele>
        <time>2013-04-03T13:10:52Z</time>
      </trkpt>
      <trkpt lat="44.33553" lon="4.04306">
        <ele>374</ele>
        <time>2013-04-03T13:10:54Z</time>
      </trkpt>
      <trkpt lat="44.33551" lon="4.04305">
        <ele>374</ele>
        <time>2013-04-03T13:10:56Z</time>
      </trkpt>
      <trkpt lat="44.33547" lon="4.04304">
        <ele>375</ele>
        <time>2013-04-03T13:10:58Z</time>
      </trkpt>
      <trkpt lat="44.33546" lon="4.04302">
        <ele>375</ele>
        <time>2013-04-03T13:11:00Z</time>
      </trkpt>
      <trkpt lat="44.33546" lon="4.04301">
        <ele>375</ele>
        <time>2013-04-03T13:11:02Z</time>
      </trkpt>
      <trkpt lat="44.33545" lon="4.043">
        <ele>375</ele>
        <time>2013-04-03T13:11:04Z</time>
      </trkpt>
      <trkpt lat="44.33544" lon="4.04297">
        <ele>374</ele>
        <time>2013-04-03T13:11:06Z</time>
      </trkpt>
      <trkpt lat="44.33543" lon="4.04294">
        <ele>373</ele>
        <time>2013-04-03T13:11:08Z</time>
      </trkpt>
      <trkpt lat="44.33542" lon="4.04293">
        <ele>373</ele>
        <time>2013-04-03T13:11:10Z</time>
      </trkpt>
      <trkpt lat="44.33542" lon="4.04292">
        <ele>373</ele>
        <time>2013-04-03T13:11:12Z</time>
      </trkpt>
      <trkpt lat="44.33542" lon="4.04292">
        <ele>373</ele>
        <time>2013-04-03T13:11:14Z</time>
      </trkpt>
      <trkpt lat="44.33539" lon="4.0429">
        <ele>373</ele>
        <time>2013-04-03T13:11:16Z</time>
      </trkpt>
      <trkpt lat="44.33536" lon="4.04288">
        <ele>374</ele>
        <time>2013-04-03T13:11:18Z</time>
      </trkpt>
      <trkpt lat="44.33535" lon="4.04284">
        <ele>374</ele>
        <time>2013-04-03T13:11:20Z</time>
      </trkpt>
      <trkpt lat="44.33532" lon="4.04281">
        <ele>374</ele>
        <time>2013-04-03T13:11:22Z</time>
      </trkpt>
      <trkpt lat="44.33532" lon="4.04281">
        <ele>374</ele>
        <time>2013-04-03T13:11:24Z</time>
      </trkpt>
      <trkpt lat="44.33532" lon="4.04281">
        <ele>374</ele>
        <time>2013-04-03T13:11:26Z</time>
      </trkpt>
      <trkpt lat="44.33531" lon="4.04281">
        <ele>374</ele>
        <time>2013-04-03T13:11:28Z</time>
      </trkpt>
      <trkpt lat="44.33531" lon="4.0428">
        <ele>374</ele>
        <time>2013-04-03T13:11:30Z</time>
      </trkpt>
      <trkpt lat="44.3353" lon="4.0428">
        <ele>374</ele>
        <time>2013-04-03T13:11:32Z</time>
      </trkpt>
      <trkpt lat="44.33529" lon="4.04279">
        <ele>374</ele>
        <time>2013-04-03T13:11:34Z</time>
      </trkpt>
      <trkpt lat="44.33528" lon="4.04279">
        <ele>374</ele>
        <time>2013-04-03T13:11:36Z</time>
      </trkpt>
      <trkpt lat="44.33523" lon="4.04277">
        <ele>375</ele>
        <time>2013-04-03T13:11:38Z</time>
      </trkpt>
      <trkpt lat="44.3352" lon="4.04274">
        <ele>376</ele>
        <time>2013-04-03T13:11:40Z</time>
      </trkpt>
      <trkpt lat="44.33519" lon="4.04273">
        <ele>377</ele>
        <time>2013-04-03T13:11:42Z</time>
      </trkpt>
      <trkpt lat="44.33517" lon="4.04271">
        <ele>377</ele>
        <time>2013-04-03T13:11:44Z</time>
      </trkpt>
      <trkpt lat="44.33515" lon="4.04269">
        <ele>377</ele>
        <time>2013-04-03T13:11:45Z</time>
      </trkpt>
      <trkpt lat="44.33514" lon="4.04268">
        <ele>377</ele>
        <time>2013-04-03T13:11:48Z</time>
      </trkpt>
      <trkpt lat="44.33514" lon="4.04268">
        <ele>376</ele>
        <time>2013-04-03T13:11:50Z</time>
      </trkpt>
      <trkpt lat="44.33513" lon="4.04265">
        <ele>376</ele>
        <time>2013-04-03T13:11:52Z</time>
      </trkpt>
      <trkpt lat="44.3351" lon="4.04264">
        <ele>376</ele>
        <time>2013-04-03T13:11:54Z</time>
      </trkpt>
      <trkpt lat="44.33508" lon="4.04263">
        <ele>376</ele>
        <time>2013-04-03T13:11:56Z</time>
      </trkpt>
      <trkpt lat="44.33505" lon="4.04263">
        <ele>377</ele>
        <time>2013-04-03T13:11:58Z</time>
      </trkpt>
      <trkpt lat="44.33502" lon="4.04261">
        <ele>377</ele>
        <time>2013-04-03T13:12:00Z</time>
      </trkpt>
      <trkpt lat="44.33499" lon="4.04257">
        <ele>377</ele>
        <time>2013-04-03T13:12:02Z</time>
      </trkpt>
      <trkpt lat="44.33496" lon="4.04255">
        <ele>376</ele>
        <time>2013-04-03T13:12:04Z</time>
      </trkpt>
      <trkpt lat="44.33494" lon="4.04253">
        <ele>376</ele>
        <time>2013-04-03T13:12:06Z</time>
      </trkpt>
      <trkpt lat="44.33491" lon="4.0425">
        <ele>376</ele>
        <time>2013-04-03T13:12:08Z</time>
      </trkpt>
      <trkpt lat="44.3349" lon="4.04247">
        <ele>376</ele>
        <time>2013-04-03T13:12:10Z</time>
      </trkpt>
      <trkpt lat="44.33488" lon="4.04246">
        <ele>375</ele>
        <time>2013-04-03T13:12:12Z</time>
      </trkpt>
      <trkpt lat="44.33486" lon="4.04244">
        <ele>375</ele>
        <time>2013-04-03T13:12:14Z</time>
      </trkpt>
      <trkpt lat="44.33485" lon="4.04241">
        <ele>375</ele>
        <time>2013-04-03T13:12:16Z</time>
      </trkpt>
      <trkpt lat="44.33483" lon="4.0424">
        <ele>376</ele>
        <time>2013-04-03T13:12:18Z</time>
      </trkpt>
      <trkpt lat="44.33483" lon="4.04239">
        <ele>376</ele>
        <time>2013-04-03T13:12:20Z</time>
      </trkpt>
      <trkpt lat="44.3348" lon="4.04236">
        <ele>376</ele>
        <time>2013-04-03T13:12:22Z</time>
      </trkpt>
      <trkpt lat="44.33477" lon="4.04233">
        <ele>376</ele>
        <time>2013-04-03T13:12:24Z</time>
      </trkpt>
      <trkpt lat="44.33475" lon="4.04231">
        <ele>375</ele>
        <time>2013-04-03T13:12:26Z</time>
      </trkpt>
      <trkpt lat="44.33475" lon="4.0423">
        <ele>375</ele>
        <time>2013-04-03T13:12:28Z</time>
      </trkpt>
      <trkpt lat="44.33475" lon="4.0423">
        <ele>375</ele>
        <time>2013-04-03T13:12:30Z</time>
      </trkpt>
      <trkpt lat="44.33474" lon="4.04229">
        <ele>374</ele>
        <time>2013-04-03T13:12:32Z</time>
      </trkpt>
      <trkpt lat="44.33473" lon="4.04227">
        <ele>374</ele>
        <time>2013-04-03T13:12:34Z</time>
      </trkpt>
      <trkpt lat="44.3347" lon="4.04225">
        <ele>373</ele>
        <time>2013-04-03T13:12:36Z</time>
      </trkpt>
      <trkpt lat="44.33469" lon="4.04225">
        <ele>373</ele>
        <time>2013-04-03T13:12:38Z</time>
      </trkpt>
      <trkpt lat="44.33467" lon="4.04223">
        <ele>372</ele>
        <time>2013-04-03T13:12:40Z</time>
      </trkpt>
      <trkpt lat="44.33464" lon="4.04221">
        <ele>372</ele>
        <time>2013-04-03T13:12:42Z</time>
      </trkpt>
      <trkpt lat="44.33461" lon="4.0422">
        <ele>372</ele>
        <time>2013-04-03T13:12:44Z</time>
      </trkpt>
      <trkpt lat="44.33458" lon="4.04217">
        <ele>372</ele>
        <time>2013-04-03T13:12:46Z</time>
      </trkpt>
      <trkpt lat="44.33457" lon="4.04216">
        <ele>372</ele>
        <time>2013-04-03T13:12:47Z</time>
      </trkpt>
      <trkpt lat="44.33452" lon="4.04212">
        <ele>372</ele>
        <time>2013-04-03T13:12:50Z</time>
      </trkpt>
      <trkpt lat="44.33449" lon="4.0421">
        <ele>372</ele>
        <time>2013-04-03T13:12:52Z</time>
      </trkpt>
      <trkpt lat="44.33447" lon="4.04207">
        <ele>372</ele>
        <time>2013-04-03T13:12:54Z</time>
      </trkpt>
      <trkpt lat="44.33443" lon="4.04203">
        <ele>373</ele>
        <time>2013-04-03T13:12:56Z</time>
      </trkpt>
      <trkpt lat="44.33441" lon="4.04201">
        <ele>373</ele>
        <time>2013-04-03T13:12:58Z</time>
      </trkpt>
      <trkpt lat="44.33438" lon="4.04199">
        <ele>374</ele>
        <time>2013-04-03T13:13:00Z</time>
      </trkpt>
      <trkpt lat="44.33437" lon="4.04199">
        <ele>374</ele>
        <time>2013-04-03T13:13:02Z</time>
      </trkpt>
      <trkpt lat="44.33434" lon="4.04196">
        <ele>374</ele>
        <time>2013-04-03T13:13:04Z</time>
      </trkpt>
      <trkpt lat="44.33432" lon="4.04192">
        <ele>374</ele>
        <time>2013-04-03T13:13:06Z</time>
      </trkpt>
      <trkpt lat="44.33429" lon="4.0419">
        <ele>374</ele>
        <time>2013-04-03T13:13:08Z</time>
      </trkpt>
      <trkpt lat="44.33427" lon="4.04187">
        <ele>375</ele>
        <time>2013-04-03T13:13:10Z</time>
      </trkpt>
      <trkpt lat="44.33426" lon="4.04184">
        <ele>375</ele>
        <time>2013-04-03T13:13:12Z</time>
      </trkpt>
      <trkpt lat="44.33425" lon="4.04183">
        <ele>375</ele>
        <time>2013-04-03T13:13:14Z</time>
      </trkpt>
      <trkpt lat="44.33423" lon="4.04181">
        <ele>376</ele>
        <time>2013-04-03T13:13:16Z</time>
      </trkpt>
      <trkpt lat="44.33421" lon="4.04179">
        <ele>376</ele>
        <time>2013-04-03T13:13:18Z</time>
      </trkpt>
      <trkpt lat="44.33419" lon="4.04176">
        <ele>377</ele>
        <time>2013-04-03T13:13:20Z</time>
      </trkpt>
      <trkpt lat="44.33416" lon="4.04173">
        <ele>377</ele>
        <time>2013-04-03T13:13:22Z</time>
      </trkpt>
      <trkpt lat="44.33413" lon="4.04172">
        <ele>376</ele>
        <time>2013-04-03T13:13:24Z</time>
      </trkpt>
      <trkpt lat="44.33411" lon="4.04171">
        <ele>376</ele>
        <time>2013-04-03T13:13:26Z</time>
      </trkpt>
      <trkpt lat="44.33408" lon="4.0417">
        <ele>375</ele>
        <time>2013-04-03T13:13:28Z</time>
      </trkpt>
      <trkpt lat="44.33406" lon="4.04168">
        <ele>375</ele>
        <time>2013-04-03T13:13:30Z</time>
      </trkpt>
      <trkpt lat="44.33404" lon="4.04166">
        <ele>375</ele>
        <time>2013-04-03T13:13:32Z</time>
      </trkpt>
      <trkpt lat="44.33401" lon="4.04164">
        <ele>375</ele>
        <time>2013-04-03T13:13:34Z</time>
      </trkpt>
      <trkpt lat="44.33398" lon="4.04162">
        <ele>374</ele>
        <time>2013-04-03T13:13:36Z</time>
      </trkpt>
      <trkpt lat="44.33395" lon="4.04161">
        <ele>374</ele>
        <time>2013-04-03T13:13:38Z</time>
      </trkpt>
      <trkpt lat="44.33393" lon="4.0416">
        <ele>372</ele>
        <time>2013-04-03T13:13:40Z</time>
      </trkpt>
      <trkpt lat="44.33391" lon="4.04159">
        <ele>370</ele>
        <time>2013-04-03T13:13:42Z</time>
      </trkpt>
      <trkpt lat="44.33388" lon="4.04157">
        <ele>369</ele>
        <time>2013-04-03T13:13:44Z</time>
      </trkpt>
      <trkpt lat="44.33387" lon="4.04156">
        <ele>368</ele>
        <time>2013-04-03T13:13:46Z</time>
      </trkpt>
      <trkpt lat="44.33384" lon="4.04155">
        <ele>368</ele>
        <time>2013-04-03T13:13:48Z</time>
      </trkpt>
      <trkpt lat="44.33383" lon="4.04154">
        <ele>368</ele>
        <time>2013-04-03T13:13:49Z</time>
      </trkpt>
      <trkpt lat="44.3338" lon="4.04152">
        <ele>367</ele>
        <time>2013-04-03T13:13:52Z</time>
      </trkpt>
      <trkpt lat="44.33378" lon="4.04151">
        <ele>366</ele>
        <time>2013-04-03T13:13:54Z</time>
      </trkpt>
      <trkpt lat="44.33377" lon="4.04151">
        <ele>366</ele>
        <time>2013-04-03T13:13:56Z</time>
      </trkpt>
      <trkpt lat="44.33376" lon="4.04149">
        <ele>365</ele>
        <time>2013-04-03T13:13:58Z</time>
      </trkpt>
      <trkpt lat="44.33374" lon="4.04147">
        <ele>364</ele>
        <time>2013-04-03T13:14:00Z</time>
      </trkpt>
      <trkpt lat="44.33372" lon="4.04146">
        <ele>364</ele>
        <time>2013-04-03T13:14:02Z</time>
      </trkpt>
      <trkpt lat="44.33369" lon="4.04144">
        <ele>363</ele>
        <time>2013-04-03T13:14:04Z</time>
      </trkpt>
      <trkpt lat="44.33367" lon="4.04142">
        <ele>363</ele>
        <time>2013-04-03T13:14:06Z</time>
      </trkpt>
      <trkpt lat="44.33364" lon="4.0414">
        <ele>362</ele>
        <time>2013-04-03T13:14:08Z</time>
      </trkpt>
      <trkpt lat="44.33362" lon="4.04138">
        <ele>362</ele>
        <time>2013-04-03T13:14:10Z</time>
      </trkpt>
      <trkpt lat="44.3336" lon="4.04135">
        <ele>362</ele>
        <time>2013-04-03T13:14:12Z</time>
      </trkpt>
      <trkpt lat="44.33357" lon="4.04133">
        <ele>362</ele>
        <time>2013-04-03T13:14:14Z</time>
      </trkpt>
      <trkpt lat="44.33356" lon="4.0413">
        <ele>362</ele>
        <time>2013-04-03T13:14:16Z</time>
      </trkpt>
      <trkpt lat="44.33355" lon="4.04128">
        <ele>362</ele>
        <time>2013-04-03T13:14:18Z</time>
      </trkpt>
      <trkpt lat="44.33354" lon="4.04125">
        <ele>361</ele>
        <time>2013-04-03T13:14:20Z</time>
      </trkpt>
      <trkpt lat="44.33353" lon="4.04123">
        <ele>361</ele>
        <time>2013-04-03T13:14:22Z</time>
      </trkpt>
      <trkpt lat="44.33352" lon="4.04121">
        <ele>360</ele>
        <time>2013-04-03T13:14:24Z</time>
      </trkpt>
      <trkpt lat="44.33352" lon="4.0412">
        <ele>360</ele>
        <time>2013-04-03T13:14:26Z</time>
      </trkpt>
      <trkpt lat="44.33351" lon="4.04119">
        <ele>360</ele>
        <time>2013-04-03T13:14:28Z</time>
      </trkpt>
      <trkpt lat="44.33351" lon="4.04116">
        <ele>360</ele>
        <time>2013-04-03T13:14:30Z</time>
      </trkpt>
      <trkpt lat="44.33351" lon="4.04112">
        <ele>359</ele>
        <time>2013-04-03T13:14:32Z</time>
      </trkpt>
      <trkpt lat="44.33351" lon="4.04108">
        <ele>358</ele>
        <time>2013-04-03T13:14:34Z</time>
      </trkpt>
      <trkpt lat="44.33351" lon="4.04105">
        <ele>358</ele>
        <time>2013-04-03T13:14:36Z</time>
      </trkpt>
      <trkpt lat="44.33351" lon="4.04101">
        <ele>358</ele>
        <time>2013-04-03T13:14:38Z</time>
      </trkpt>
      <trkpt lat="44.33352" lon="4.04098">
        <ele>358</ele>
        <time>2013-04-03T13:14:40Z</time>
      </trkpt>
      <trkpt lat="44.33352" lon="4.04094">
        <ele>359</ele>
        <time>2013-04-03T13:14:42Z</time>
      </trkpt>
      <trkpt lat="44.33353" lon="4.0409">
        <ele>359</ele>
        <time>2013-04-03T13:14:44Z</time>
      </trkpt>
      <trkpt lat="44.33353" lon="4.04087">
        <ele>358</ele>
        <time>2013-04-03T13:14:46Z</time>
      </trkpt>
      <trkpt lat="44.33353" lon="4.04083">
        <ele>359</ele>
        <time>2013-04-03T13:14:48Z</time>
      </trkpt>
      <trkpt lat="44.33353" lon="4.0408">
        <ele>359</ele>
        <time>2013-04-03T13:14:50Z</time>
      </trkpt>
      <trkpt lat="44.33353" lon="4.04079">
        <ele>359</ele>
        <time>2013-04-03T13:14:51Z</time>
      </trkpt>
      <trkpt lat="44.33354" lon="4.04074">
        <ele>359</ele>
        <time>2013-04-03T13:14:54Z</time>
      </trkpt>
      <trkpt lat="44.33355" lon="4.04072">
        <ele>359</ele>
        <time>2013-04-03T13:14:56Z</time>
      </trkpt>
      <trkpt lat="44.33355" lon="4.04069">
        <ele>359</ele>
        <time>2013-04-03T13:14:58Z</time>
      </trkpt>
      <trkpt lat="44.33355" lon="4.04067">
        <ele>359</ele>
        <time>2013-04-03T13:15:00Z</time>
      </trkpt>
      <trkpt lat="44.33355" lon="4.04064">
        <ele>359</ele>
        <time>2013-04-03T13:15:02Z</time>
      </trkpt>
      <trkpt lat="44.33355" lon="4.04064">
        <ele>360</ele>
        <time>2013-04-03T13:15:04Z</time>
      </trkpt>
      <trkpt lat="44.33355" lon="4.04062">
        <ele>360</ele>
        <time>2013-04-03T13:15:06Z</time>
      </trkpt>
      <trkpt lat="44.33356" lon="4.0406">
        <ele>359</ele>
        <time>2013-04-03T13:15:08Z</time>
      </trkpt>
      <trkpt lat="44.33356" lon="4.04057">
        <ele>359</ele>
        <time>2013-04-03T13:15:10Z</time>
      </trkpt>
      <trkpt lat="44.33356" lon="4.04057">
        <ele>359</ele>
        <time>2013-04-03T13:15:12Z</time>
      </trkpt>
      <trkpt lat="44.33355" lon="4.04055">
        <ele>360</ele>
        <time>2013-04-03T13:15:14Z</time>
      </trkpt>
      <trkpt lat="44.33355" lon="4.04053">
        <ele>359</ele>
        <time>2013-04-03T13:15:16Z</time>
      </trkpt>
      <trkpt lat="44.33355" lon="4.0405">
        <ele>360</ele>
        <time>2013-04-03T13:15:18Z</time>
      </trkpt>
      <trkpt lat="44.33355" lon="4.04048">
        <ele>360</ele>
        <time>2013-04-03T13:15:20Z</time>
      </trkpt>
      <trkpt lat="44.33357" lon="4.04045">
        <ele>360</ele>
        <time>2013-04-03T13:15:22Z</time>
      </trkpt>
      <trkpt lat="44.33358" lon="4.04044">
        <ele>360</ele>
        <time>2013-04-03T13:15:24Z</time>
      </trkpt>
      <trkpt lat="44.33358" lon="4.04044">
        <ele>360</ele>
        <time>2013-04-03T13:15:26Z</time>
      </trkpt>
      <trkpt lat="44.33358" lon="4.04044">
        <ele>360</ele>
        <time>2013-04-03T13:15:28Z</time>
      </trkpt>
      <trkpt lat="44.33358" lon="4.04044">
        <ele>360</ele>
        <time>2013-04-03T13:15:30Z</time>
      </trkpt>
      <trkpt lat="44.33358" lon="4.04044">
        <ele>360</ele>
        <time>2013-04-03T13:15:32Z</time>
      </trkpt>
      <trkpt lat="44.33358" lon="4.04044">
        <ele>360</ele>
        <time>2013-04-03T13:15:34Z</time>
      </trkpt>
      <trkpt lat="44.33358" lon="4.04044">
        <ele>360</ele>
        <time>2013-04-03T13:15:36Z</time>
      </trkpt>
      <trkpt lat="44.33358" lon="4.04043">
        <ele>360</ele>
        <time>2013-04-03T13:15:38Z</time>
      </trkpt>
      <trkpt lat="44.33358" lon="4.04042">
        <ele>360</ele>
        <time>2013-04-03T13:15:40Z</time>
      </trkpt>
      <trkpt lat="44.33358" lon="4.04042">
        <ele>360</ele>
        <time>2013-04-03T13:15:42Z</time>
      </trkpt>
      <trkpt lat="44.33358" lon="4.04042">
        <ele>360</ele>
        <time>2013-04-03T13:15:44Z</time>
      </trkpt>
      <trkpt lat="44.33358" lon="4.04042">
        <ele>360</ele>
        <time>2013-04-03T13:15:46Z</time>
      </trkpt>
      <trkpt lat="44.33358" lon="4.04042">
        <ele>360</ele>
        <time>2013-04-03T13:15:48Z</time>
      </trkpt>
      <trkpt lat="44.33358" lon="4.04042">
        <ele>360</ele>
        <time>2013-04-03T13:15:50Z</time>
      </trkpt>
      <trkpt lat="44.33358" lon="4.04042">
        <ele>360</ele>
        <time>2013-04-03T13:15:52Z</time>
      </trkpt>
      <trkpt lat="44.33358" lon="4.04042">
        <ele>360</ele>
        <time>2013-04-03T13:15:53Z</time>
      </trkpt>
      <trkpt lat="44.33358" lon="4.04042">
        <ele>360</ele>
        <time>2013-04-03T13:15:56Z</time>
      </trkpt>
      <trkpt lat="44.33358" lon="4.04042">
        <ele>360</ele>
        <time>2013-04-03T13:15:58Z</time>
      </trkpt>
      <trkpt lat="44.33358" lon="4.04042">
        <ele>360</ele>
        <time>2013-04-03T13:16:00Z</time>
      </trkpt>
      <trkpt lat="44.33358" lon="4.04042">
        <ele>360</ele>
        <time>2013-04-03T13:16:02Z</time>
      </trkpt>
      <trkpt lat="44.33358" lon="4.04042">
        <ele>360</ele>
        <time>2013-04-03T13:16:04Z</time>
      </trkpt>
      <trkpt lat="44.33358" lon="4.04042">
        <ele>360</ele>
        <time>2013-04-03T13:16:06Z</time>
      </trkpt>
      <trkpt lat="44.33358" lon="4.04042">
        <ele>360</ele>
        <time>2013-04-03T13:16:08Z</time>
      </trkpt>
      <trkpt lat="44.33358" lon="4.04042">
        <ele>360</ele>
        <time>2013-04-03T13:16:10Z</time>
      </trkpt>
      <trkpt lat="44.33358" lon="4.04042">
        <ele>360</ele>
        <time>2013-04-03T13:16:12Z</time>
      </trkpt>
      <trkpt lat="44.33358" lon="4.04042">
        <ele>360</ele>
        <time>2013-04-03T13:16:14Z</time>
      </trkpt>
      <trkpt lat="44.33358" lon="4.04042">
        <ele>360</ele>
        <time>2013-04-03T13:16:16Z</time>
      </trkpt>
      <trkpt lat="44.33358" lon="4.04042">
        <ele>360</ele>
        <time>2013-04-03T13:16:18Z</time>
      </trkpt>
      <trkpt lat="44.33358" lon="4.04042">
        <ele>360</ele>
        <time>2013-04-03T13:16:20Z</time>
      </trkpt>
      <trkpt lat="44.33358" lon="4.04042">
        <ele>360</ele>
        <time>2013-04-03T13:16:22Z</time>
      </trkpt>
      <trkpt lat="44.33358" lon="4.04042">
        <ele>360</ele>
        <time>2013-04-03T13:16:24Z</time>
      </trkpt>
      <trkpt lat="44.33358" lon="4.04042">
        <ele>360</ele>
        <time>2013-04-03T13:16:26Z</time>
      </trkpt>
      <trkpt lat="44.33358" lon="4.04042">
        <ele>360</ele>
        <time>2013-04-03T13:16:28Z</time>
      </trkpt>
      <trkpt lat="44.33358" lon="4.04042">
        <ele>360</ele>
        <time>2013-04-03T13:16:30Z</time>
      </trkpt>
      <trkpt lat="44.33358" lon="4.04042">
        <ele>360</ele>
        <time>2013-04-03T13:16:32Z</time>
      </trkpt>
      <trkpt lat="44.33358" lon="4.04042">
        <ele>360</ele>
        <time>2013-04-03T13:16:34Z</time>
      </trkpt>
      <trkpt lat="44.33358" lon="4.04042">
        <ele>360</ele>
        <time>2013-04-03T13:16:36Z</time>
      </trkpt>
      <trkpt lat="44.33358" lon="4.04042">
        <ele>360</ele>
        <time>2013-04-03T13:16:38Z</time>
      </trkpt>
      <trkpt lat="44.33358" lon="4.04042">
        <ele>360</ele>
        <time>2013-04-03T13:16:40Z</time>
      </trkpt>
      <trkpt lat="44.33358" lon="4.04042">
        <ele>360</ele>
        <time>2013-04-03T13:16:42Z</time>
      </trkpt>
      <trkpt lat="44.33358" lon="4.04042">
        <ele>360</ele>
        <time>2013-04-03T13:16:44Z</time>
      </trkpt>
      <trkpt lat="44.33358" lon="4.04042">
        <ele>360</ele>
        <time>2013-04-03T13:16:46Z</time>
      </trkpt>
      <trkpt lat="44.33358" lon="4.04042">
        <ele>360</ele>
        <time>2013-04-03T13:16:48Z</time>
      </trkpt>
      <trkpt lat="44.33358" lon="4.04042">
        <ele>360</ele>
        <time>2013-04-03T13:16:50Z</time>
      </trkpt>
      <trkpt lat="44.33358" lon="4.04042">
        <ele>360</ele>
        <time>2013-04-03T13:16:52Z</time>
      </trkpt>
      <trkpt lat="44.33358" lon="4.04042">
        <ele>360</ele>
        <time>2013-04-03T13:16:54Z</time>
      </trkpt>
      <trkpt lat="44.33358" lon="4.04042">
        <ele>360</ele>
        <time>2013-04-03T13:16:55Z</time>
      </trkpt>
      <trkpt lat="44.33358" lon="4.04042">
        <ele>360</ele>
        <time>2013-04-03T13:16:58Z</time>
      </trkpt>
      <trkpt lat="44.33358" lon="4.04042">
        <ele>360</ele>
        <time>2013-04-03T13:17:00Z</time>
      </trkpt>
      <trkpt lat="44.33358" lon="4.04042">
        <ele>360</ele>
        <time>2013-04-03T13:17:02Z</time>
      </trkpt>
      <trkpt lat="44.33358" lon="4.04042">
        <ele>360</ele>
        <time>2013-04-03T13:17:04Z</time>
      </trkpt>
      <trkpt lat="44.33358" lon="4.04042">
        <ele>360</ele>
        <time>2013-04-03T13:17:06Z</time>
      </trkpt>
      <trkpt lat="44.33358" lon="4.04042">
        <ele>360</ele>
        <time>2013-04-03T13:17:08Z</time>
      </trkpt>
      <trkpt lat="44.33358" lon="4.04042">
        <ele>360</ele>
        <time>2013-04-03T13:17:10Z</time>
      </trkpt>
      <trkpt lat="44.33358" lon="4.04042">
        <ele>360</ele>
        <time>2013-04-03T13:17:12Z</time>
      </trkpt>
      <trkpt lat="44.33358" lon="4.04042">
        <ele>360</ele>
        <time>2013-04-03T13:17:14Z</time>
      </trkpt>
      <trkpt lat="44.33358" lon="4.04042">
        <ele>360</ele>
        <time>2013-04-03T13:17:16Z</time>
      </trkpt>
      <trkpt lat="44.33358" lon="4.04042">
        <ele>360</ele>
        <time>2013-04-03T13:17:18Z</time>
      </trkpt>
      <trkpt lat="44.33358" lon="4.04042">
        <ele>360</ele>
        <time>2013-04-03T13:17:20Z</time>
      </trkpt>
      <trkpt lat="44.33358" lon="4.04042">
        <ele>360</ele>
        <time>2013-04-03T13:17:22Z</time>
      </trkpt>
      <trkpt lat="44.33358" lon="4.04042">
        <ele>360</ele>
        <time>2013-04-03T13:17:24Z</time>
      </trkpt>
      <trkpt lat="44.33358" lon="4.04042">
        <ele>360</ele>
        <time>2013-04-03T13:17:26Z</time>
      </trkpt>
      <trkpt lat="44.33358" lon="4.04042">
        <ele>360</ele>
        <time>2013-04-03T13:17:28Z</time>
      </trkpt>
      <trkpt lat="44.33358" lon="4.04042">
        <ele>360</ele>
        <time>2013-04-03T13:17:30Z</time>
      </trkpt>
      <trkpt lat="44.33358" lon="4.04042">
        <ele>360</ele>
        <time>2013-04-03T13:17:32Z</time>
      </trkpt>
      <trkpt lat="44.33358" lon="4.04042">
        <ele>360</ele>
        <time>2013-04-03T13:17:34Z</time>
      </trkpt>
      <trkpt lat="44.33358" lon="4.04042">
        <ele>360</ele>
        <time>2013-04-03T13:17:36Z</time>
      </trkpt>
      <trkpt lat="44.33358" lon="4.04042">
        <ele>360</ele>
        <time>2013-04-03T13:17:38Z</time>
      </trkpt>
      <trkpt lat="44.33358" lon="4.04042">
        <ele>360</ele>
        <time>2013-04-03T13:17:40Z</time>
      </trkpt>
      <trkpt lat="44.33358" lon="4.04042">
        <ele>360</ele>
        <time>2013-04-03T13:17:42Z</time>
      </trkpt>
      <trkpt lat="44.33358" lon="4.04042">
        <ele>360</ele>
        <time>2013-04-03T13:17:44Z</time>
      </trkpt>
      <trkpt lat="44.33358" lon="4.04042">
        <ele>360</ele>
        <time>2013-04-03T13:17:46Z</time>
      </trkpt>
      <trkpt lat="44.33358" lon="4.04042">
        <ele>360</ele>
        <time>2013-04-03T13:17:48Z</time>
      </trkpt>
      <trkpt lat="44.33358" lon="4.04042">
        <ele>360</ele>
        <time>2013-04-03T13:17:50Z</time>
      </trkpt>
      <trkpt lat="44.33358" lon="4.04042">
        <ele>360</ele>
        <time>2013-04-03T13:17:52Z</time>
      </trkpt>
      <trkpt lat="44.33358" lon="4.04042">
        <ele>360</ele>
        <time>2013-04-03T13:17:54Z</time>
      </trkpt>
      <trkpt lat="44.33358" lon="4.04042">
        <ele>360</ele>
        <time>2013-04-03T13:17:56Z</time>
      </trkpt>
      <trkpt lat="44.33358" lon="4.04042">
        <ele>360</ele>
        <time>2013-04-03T13:17:57Z</time>
      </trkpt>
      <trkpt lat="44.33358" lon="4.04042">
        <ele>360</ele>
        <time>2013-04-03T13:18:00Z</time>
      </trkpt>
      <trkpt lat="44.33358" lon="4.04042">
        <ele>360</ele>
        <time>2013-04-03T13:18:02Z</time>
      </trkpt>
      <trkpt lat="44.33358" lon="4.04042">
        <ele>360</ele>
        <time>2013-04-03T13:18:04Z</time>
      </trkpt>
      <trkpt lat="44.33358" lon="4.04042">
        <ele>360</ele>
        <time>2013-04-03T13:18:06Z</time>
      </trkpt>
      <trkpt lat="44.33358" lon="4.04042">
        <ele>360</ele>
        <time>2013-04-03T13:18:08Z</time>
      </trkpt>
      <trkpt lat="44.33358" lon="4.04042">
        <ele>360</ele>
        <time>2013-04-03T13:18:10Z</time>
      </trkpt>
      <trkpt lat="44.33358" lon="4.04042">
        <ele>360</ele>
        <time>2013-04-03T13:18:12Z</time>
      </trkpt>
      <trkpt lat="44.33358" lon="4.04042">
        <ele>360</ele>
        <time>2013-04-03T13:18:14Z</time>
      </trkpt>
      <trkpt lat="44.33358" lon="4.04042">
        <ele>360</ele>
        <time>2013-04-03T13:18:16Z</time>
      </trkpt>
      <trkpt lat="44.33358" lon="4.04042">
        <ele>360</ele>
        <time>2013-04-03T13:18:18Z</time>
      </trkpt>
      <trkpt lat="44.33358" lon="4.04042">
        <ele>360</ele>
        <time>2013-04-03T13:18:20Z</time>
      </trkpt>
      <trkpt lat="44.33358" lon="4.04042">
        <ele>360</ele>
        <time>2013-04-03T13:18:22Z</time>
      </trkpt>
      <trkpt lat="44.33358" lon="4.04042">
        <ele>360</ele>
        <time>2013-04-03T13:18:24Z</time>
      </trkpt>
      <trkpt lat="44.33358" lon="4.04042">
        <ele>360</ele>
        <time>2013-04-03T13:18:26Z</time>
      </trkpt>
      <trkpt lat="44.33358" lon="4.04042">
        <ele>360</ele>
        <time>2013-04-03T13:18:28Z</time>
      </trkpt>
      <trkpt lat="44.33358" lon="4.04042">
        <ele>360</ele>
        <time>2013-04-03T13:18:30Z</time>
      </trkpt>
      <trkpt lat="44.33358" lon="4.04042">
        <ele>360</ele>
        <time>2013-04-03T13:18:32Z</time>
      </trkpt>
      <trkpt lat="44.33358" lon="4.04042">
        <ele>360</ele>
        <time>2013-04-03T13:18:34Z</time>
      </trkpt>
      <trkpt lat="44.33358" lon="4.04042">
        <ele>360</ele>
        <time>2013-04-03T13:18:36Z</time>
      </trkpt>
      <trkpt lat="44.33358" lon="4.04042">
        <ele>360</ele>
        <time>2013-04-03T13:18:38Z</time>
      </trkpt>
      <trkpt lat="44.33358" lon="4.04042">
        <ele>360</ele>
        <time>2013-04-03T13:18:40Z</time>
      </trkpt>
      <trkpt lat="44.33358" lon="4.04042">
        <ele>360</ele>
        <time>2013-04-03T13:18:42Z</time>
      </trkpt>
      <trkpt lat="44.33358" lon="4.04042">
        <ele>360</ele>
        <time>2013-04-03T13:18:44Z</time>
      </trkpt>
      <trkpt lat="44.33358" lon="4.04042">
        <ele>360</ele>
        <time>2013-04-03T13:18:46Z</time>
      </trkpt>
      <trkpt lat="44.33358" lon="4.04042">
        <ele>360</ele>
        <time>2013-04-03T13:18:48Z</time>
      </trkpt>
      <trkpt lat="44.33358" lon="4.04042">
        <ele>360</ele>
        <time>2013-04-03T13:18:50Z</time>
      </trkpt>
      <trkpt lat="44.33358" lon="4.04042">
        <ele>360</ele>
        <time>2013-04-03T13:18:52Z</time>
      </trkpt>
      <trkpt lat="44.33358" lon="4.04042">
        <ele>360</ele>
        <time>2013-04-03T13:18:54Z</time>
      </trkpt>
      <trkpt lat="44.33358" lon="4.04042">
        <ele>360</ele>
        <time>2013-04-03T13:18:56Z</time>
      </trkpt>
      <trkpt lat="44.33358" lon="4.04042">
        <ele>360</ele>
        <time>2013-04-03T13:18:58Z</time>
      </trkpt>
      <trkpt lat="44.33358" lon="4.04042">
        <ele>360</ele>
        <time>2013-04-03T13:18:59Z</time>
      </trkpt>
      <trkpt lat="44.33358" lon="4.04042">
        <ele>360</ele>
        <time>2013-04-03T13:19:02Z</time>
      </trkpt>
      <trkpt lat="44.33358" lon="4.04042">
        <ele>360</ele>
        <time>2013-04-03T13:19:04Z</time>
      </trkpt>
      <trkpt lat="44.33358" lon="4.04042">
        <ele>360</ele>
        <time>2013-04-03T13:19:06Z</time>
      </trkpt>
      <trkpt lat="44.33358" lon="4.04042">
        <ele>360</ele>
        <time>2013-04-03T13:19:08Z</time>
      </trkpt>
      <trkpt lat="44.33358" lon="4.04042">
        <ele>360</ele>
        <time>2013-04-03T13:19:10Z</time>
      </trkpt>
      <trkpt lat="44.33358" lon="4.04042">
        <ele>360</ele>
        <time>2013-04-03T13:19:12Z</time>
      </trkpt>
      <trkpt lat="44.33358" lon="4.04042">
        <ele>360</ele>
        <time>2013-04-03T13:19:14Z</time>
      </trkpt>
      <trkpt lat="44.33358" lon="4.04042">
        <ele>360</ele>
        <time>2013-04-03T13:19:16Z</time>
      </trkpt>
      <trkpt lat="44.33358" lon="4.04042">
        <ele>360</ele>
        <time>2013-04-03T13:19:18Z</time>
      </trkpt>
      <trkpt lat="44.33358" lon="4.04042">
        <ele>360</ele>
        <time>2013-04-03T13:19:20Z</time>
      </trkpt>
      <trkpt lat="44.33358" lon="4.04042">
        <ele>360</ele>
        <time>2013-04-03T13:19:22Z</time>
      </trkpt>
      <trkpt lat="44.33358" lon="4.04042">
        <ele>360</ele>
        <time>2013-04-03T13:19:24Z</time>
      </trkpt>
      <trkpt lat="44.33358" lon="4.04042">
        <ele>360</ele>
        <time>2013-04-03T13:19:26Z</time>
      </trkpt>
      <trkpt lat="44.33358" lon="4.04042">
        <ele>360</ele>
        <time>2013-04-03T13:19:28Z</time>
      </trkpt>
      <trkpt lat="44.33358" lon="4.04042">
        <ele>360</ele>
        <time>2013-04-03T13:19:30Z</time>
      </trkpt>
      <trkpt lat="44.33358" lon="4.04042">
        <ele>360</ele>
        <time>2013-04-03T13:19:32Z</time>
      </trkpt>
      <trkpt lat="44.33358" lon="4.04042">
        <ele>360</ele>
        <time>2013-04-03T13:19:34Z</time>
      </trkpt>
      <trkpt lat="44.33358" lon="4.04042">
        <ele>360</ele>
        <time>2013-04-03T13:19:36Z</time>
      </trkpt>
      <trkpt lat="44.33358" lon="4.04042">
        <ele>360</ele>
        <time>2013-04-03T13:19:38Z</time>
      </trkpt>
      <trkpt lat="44.33358" lon="4.04042">
        <ele>360</ele>
        <time>2013-04-03T13:19:40Z</time>
      </trkpt>
      <trkpt lat="44.33358" lon="4.04042">
        <ele>360</ele>
        <time>2013-04-03T13:19:42Z</time>
      </trkpt>
      <trkpt lat="44.33358" lon="4.04042">
        <ele>360</ele>
        <time>2013-04-03T13:19:44Z</time>
      </trkpt>
      <trkpt lat="44.33358" lon="4.04042">
        <ele>360</ele>
        <time>2013-04-03T13:19:46Z</time>
      </trkpt>
      <trkpt lat="44.33358" lon="4.04042">
        <ele>360</ele>
        <time>2013-04-03T13:19:48Z</time>
      </trkpt>
      <trkpt lat="44.33358" lon="4.04042">
        <ele>360</ele>
        <time>2013-04-03T13:19:50Z</time>
      </trkpt>
      <trkpt lat="44.33358" lon="4.04042">
        <ele>360</ele>
        <time>2013-04-03T13:19:52Z</time>
      </trkpt>
      <trkpt lat="44.33358" lon="4.04042">
        <ele>360</ele>
        <time>2013-04-03T13:19:54Z</time>
      </trkpt>
      <trkpt lat="44.33358" lon="4.04042">
        <ele>360</ele>
        <time>2013-04-03T13:19:56Z</time>
      </trkpt>
      <trkpt lat="44.33358" lon="4.04042">
        <ele>360</ele>
        <time>2013-04-03T13:19:58Z</time>
      </trkpt>
      <trkpt lat="44.33358" lon="4.04042">
        <ele>360</ele>
        <time>2013-04-03T13:20:00Z</time>
      </trkpt>
      <trkpt lat="44.33358" lon="4.04042">
        <ele>360</ele>
        <time>2013-04-03T13:20:01Z</time>
      </trkpt>
      <trkpt lat="44.33358" lon="4.04042">
        <ele>360</ele>
        <time>2013-04-03T13:20:04Z</time>
      </trkpt>
      <trkpt lat="44.33358" lon="4.04042">
        <ele>360</ele>
        <time>2013-04-03T13:20:06Z</time>
      </trkpt>
      <trkpt lat="44.33358" lon="4.04042">
        <ele>360</ele>
        <time>2013-04-03T13:20:08Z</time>
      </trkpt>
      <trkpt lat="44.33358" lon="4.04042">
        <ele>360</ele>
        <time>2013-04-03T13:20:10Z</time>
      </trkpt>
      <trkpt lat="44.33358" lon="4.04042">
        <ele>360</ele>
        <time>2013-04-03T13:20:12Z</time>
      </trkpt>
      <trkpt lat="44.33358" lon="4.04042">
        <ele>360</ele>
        <time>2013-04-03T13:20:14Z</time>
      </trkpt>
      <trkpt lat="44.33358" lon="4.04042">
        <ele>360</ele>
        <time>2013-04-03T13:20:16Z</time>
      </trkpt>
      <trkpt lat="44.33358" lon="4.04042">
        <ele>360</ele>
        <time>2013-04-03T13:20:18Z</time>
      </trkpt>
      <trkpt lat="44.33358" lon="4.04042">
        <ele>360</ele>
        <time>2013-04-03T13:20:20Z</time>
      </trkpt>
      <trkpt lat="44.33358" lon="4.04042">
        <ele>360</ele>
        <time>2013-04-03T13:20:22Z</time>
      </trkpt>
      <trkpt lat="44.33358" lon="4.04042">
        <ele>360</ele>
        <time>2013-04-03T13:20:24Z</time>
      </trkpt>
      <trkpt lat="44.33358" lon="4.04042">
        <ele>360</ele>
        <time>2013-04-03T13:20:26Z</time>
      </trkpt>
      <trkpt lat="44.33358" lon="4.04041">
        <ele>360</ele>
        <time>2013-04-03T13:20:28Z</time>
      </trkpt>
      <trkpt lat="44.33358" lon="4.04041">
        <ele>360</ele>
        <time>2013-04-03T13:20:30Z</time>
      </trkpt>
      <trkpt lat="44.33358" lon="4.04041">
        <ele>360</ele>
        <time>2013-04-03T13:20:32Z</time>
      </trkpt>
      <trkpt lat="44.33358" lon="4.04041">
        <ele>360</ele>
        <time>2013-04-03T13:20:34Z</time>
      </trkpt>
      <trkpt lat="44.33358" lon="4.04041">
        <ele>360</ele>
        <time>2013-04-03T13:20:36Z</time>
      </trkpt>
      <trkpt lat="44.33358" lon="4.04041">
        <ele>359</ele>
        <time>2013-04-03T13:20:38Z</time>
      </trkpt>
      <trkpt lat="44.33358" lon="4.04041">
        <ele>359</ele>
        <time>2013-04-03T13:20:40Z</time>
      </trkpt>
      <trkpt lat="44.33358" lon="4.04041">
        <ele>359</ele>
        <time>2013-04-03T13:20:42Z</time>
      </trkpt>
      <trkpt lat="44.33358" lon="4.04041">
        <ele>359</ele>
        <time>2013-04-03T13:20:44Z</time>
      </trkpt>
      <trkpt lat="44.33358" lon="4.04041">
        <ele>359</ele>
        <time>2013-04-03T13:20:46Z</time>
      </trkpt>
      <trkpt lat="44.33358" lon="4.04041">
        <ele>359</ele>
        <time>2013-04-03T13:20:48Z</time>
      </trkpt>
      <trkpt lat="44.33358" lon="4.04041">
        <ele>359</ele>
        <time>2013-04-03T13:20:50Z</time>
      </trkpt>
      <trkpt lat="44.33358" lon="4.04041">
        <ele>359</ele>
        <time>2013-04-03T13:20:52Z</time>
      </trkpt>
      <trkpt lat="44.33358" lon="4.04041">
        <ele>360</ele>
        <time>2013-04-03T13:20:54Z</time>
      </trkpt>
      <trkpt lat="44.33358" lon="4.04041">
        <ele>360</ele>
        <time>2013-04-03T13:20:56Z</time>
      </trkpt>
      <trkpt lat="44.33358" lon="4.04041">
        <ele>360</ele>
        <time>2013-04-03T13:20:58Z</time>
      </trkpt>
      <trkpt lat="44.33358" lon="4.04041">
        <ele>360</ele>
        <time>2013-04-03T13:21:00Z</time>
      </trkpt>
      <trkpt lat="44.33358" lon="4.04041">
        <ele>360</ele>
        <time>2013-04-03T13:21:02Z</time>
      </trkpt>
      <trkpt lat="44.33358" lon="4.04041">
        <ele>360</ele>
        <time>2013-04-03T13:21:03Z</time>
      </trkpt>
      <trkpt lat="44.33358" lon="4.04041">
        <ele>360</ele>
        <time>2013-04-03T13:21:06Z</time>
      </trkpt>
      <trkpt lat="44.33358" lon="4.04041">
        <ele>360</ele>
        <time>2013-04-03T13:21:08Z</time>
      </trkpt>
      <trkpt lat="44.33358" lon="4.04041">
        <ele>360</ele>
        <time>2013-04-03T13:21:10Z</time>
      </trkpt>
      <trkpt lat="44.33358" lon="4.04041">
        <ele>360</ele>
        <time>2013-04-03T13:21:12Z</time>
      </trkpt>
      <trkpt lat="44.33358" lon="4.04041">
        <ele>360</ele>
        <time>2013-04-03T13:21:14Z</time>
      </trkpt>
      <trkpt lat="44.33358" lon="4.04041">
        <ele>360</ele>
        <time>2013-04-03T13:21:16Z</time>
      </trkpt>
      <trkpt lat="44.33358" lon="4.04041">
        <ele>360</ele>
        <time>2013-04-03T13:21:18Z</time>
      </trkpt>
      <trkpt lat="44.33358" lon="4.04041">
        <ele>360</ele>
        <time>2013-04-03T13:21:20Z</time>
      </trkpt>
      <trkpt lat="44.33358" lon="4.04041">
        <ele>360</ele>
        <time>2013-04-03T13:21:22Z</time>
      </trkpt>
      <trkpt lat="44.33358" lon="4.0404">
        <ele>360</ele>
        <time>2013-04-03T13:21:24Z</time>
      </trkpt>
      <trkpt lat="44.33358" lon="4.0404">
        <ele>360</ele>
        <time>2013-04-03T13:21:26Z</time>
      </trkpt>
      <trkpt lat="44.33358" lon="4.0404">
        <ele>360</ele>
        <time>2013-04-03T13:21:28Z</time>
      </trkpt>
      <trkpt lat="44.33358" lon="4.0404">
        <ele>360</ele>
        <time>2013-04-03T13:21:30Z</time>
      </trkpt>
      <trkpt lat="44.33358" lon="4.0404">
        <ele>360</ele>
        <time>2013-04-03T13:21:32Z</time>
      </trkpt>
      <trkpt lat="44.33358" lon="4.0404">
        <ele>360</ele>
        <time>2013-04-03T13:21:34Z</time>
      </trkpt>
      <trkpt lat="44.33358" lon="4.0404">
        <ele>360</ele>
        <time>2013-04-03T13:21:36Z</time>
      </trkpt>
      <trkpt lat="44.33358" lon="4.0404">
        <ele>360</ele>
        <time>2013-04-03T13:21:38Z</time>
      </trkpt>
      <trkpt lat="44.33358" lon="4.0404">
        <ele>360</ele>
        <time>2013-04-03T13:21:40Z</time>
      </trkpt>
      <trkpt lat="44.33358" lon="4.0404">
        <ele>360</ele>
        <time>2013-04-03T13:21:42Z</time>
      </trkpt>
      <trkpt lat="44.33358" lon="4.0404">
        <ele>360</ele>
        <time>2013-04-03T13:21:44Z</time>
      </trkpt>
      <trkpt lat="44.33358" lon="4.0404">
        <ele>360</ele>
        <time>2013-04-03T13:21:46Z</time>
      </trkpt>
      <trkpt lat="44.33358" lon="4.0404">
        <ele>360</ele>
        <time>2013-04-03T13:21:48Z</time>
      </trkpt>
      <trkpt lat="44.33358" lon="4.04038">
        <ele>360</ele>
        <time>2013-04-03T13:21:50Z</time>
      </trkpt>
      <trkpt lat="44.33358" lon="4.04038">
        <ele>360</ele>
        <time>2013-04-03T13:21:52Z</time>
      </trkpt>
      <trkpt lat="44.33358" lon="4.04037">
        <ele>361</ele>
        <time>2013-04-03T13:21:54Z</time>
      </trkpt>
      <trkpt lat="44.33359" lon="4.04036">
        <ele>360</ele>
        <time>2013-04-03T13:21:56Z</time>
      </trkpt>
      <trkpt lat="44.33359" lon="4.04036">
        <ele>360</ele>
        <time>2013-04-03T13:21:58Z</time>
      </trkpt>
      <trkpt lat="44.3336" lon="4.04034">
        <ele>360</ele>
        <time>2013-04-03T13:22:00Z</time>
      </trkpt>
      <trkpt lat="44.33362" lon="4.04031">
        <ele>360</ele>
        <time>2013-04-03T13:22:02Z</time>
      </trkpt>
      <trkpt lat="44.33363" lon="4.04029">
        <ele>360</ele>
        <time>2013-04-03T13:22:04Z</time>
      </trkpt>
      <trkpt lat="44.33364" lon="4.04028">
        <ele>361</ele>
        <time>2013-04-03T13:22:05Z</time>
      </trkpt>
      <trkpt lat="44.33364" lon="4.04027">
        <ele>361</ele>
        <time>2013-04-03T13:22:08Z</time>
      </trkpt>
      <trkpt lat="44.33365" lon="4.04026">
        <ele>361</ele>
        <time>2013-04-03T13:22:10Z</time>
      </trkpt>
      <trkpt lat="44.33367" lon="4.04022">
        <ele>361</ele>
        <time>2013-04-03T13:22:12Z</time>
      </trkpt>
      <trkpt lat="44.33369" lon="4.04019">
        <ele>361</ele>
        <time>2013-04-03T13:22:14Z</time>
      </trkpt>
      <trkpt lat="44.3337" lon="4.04015">
        <ele>361</ele>
        <time>2013-04-03T13:22:16Z</time>
      </trkpt>
      <trkpt lat="44.33372" lon="4.04011">
        <ele>361</ele>
        <time>2013-04-03T13:22:18Z</time>
      </trkpt>
      <trkpt lat="44.33372" lon="4.04007">
        <ele>362</ele>
        <time>2013-04-03T13:22:20Z</time>
      </trkpt>
      <trkpt lat="44.33374" lon="4.04004">
        <ele>361</ele>
        <time>2013-04-03T13:22:22Z</time>
      </trkpt>
      <trkpt lat="44.33375" lon="4.04">
        <ele>361</ele>
        <time>2013-04-03T13:22:24Z</time>
      </trkpt>
      <trkpt lat="44.33377" lon="4.03997">
        <ele>362</ele>
        <time>2013-04-03T13:22:26Z</time>
      </trkpt>
      <trkpt lat="44.33378" lon="4.03994">
        <ele>362</ele>
        <time>2013-04-03T13:22:28Z</time>
      </trkpt>
      <trkpt lat="44.3338" lon="4.03991">
        <ele>362</ele>
        <time>2013-04-03T13:22:30Z</time>
      </trkpt>
      <trkpt lat="44.33381" lon="4.03987">
        <ele>363</ele>
        <time>2013-04-03T13:22:32Z</time>
      </trkpt>
      <trkpt lat="44.33383" lon="4.03984">
        <ele>362</ele>
        <time>2013-04-03T13:22:34Z</time>
      </trkpt>
      <trkpt lat="44.33384" lon="4.0398">
        <ele>364</ele>
        <time>2013-04-03T13:22:36Z</time>
      </trkpt>
      <trkpt lat="44.33386" lon="4.03977">
        <ele>363</ele>
        <time>2013-04-03T13:22:38Z</time>
      </trkpt>
      <trkpt lat="44.33388" lon="4.03974">
        <ele>363</ele>
        <time>2013-04-03T13:22:40Z</time>
      </trkpt>
      <trkpt lat="44.3339" lon="4.03971">
        <ele>364</ele>
        <time>2013-04-03T13:22:42Z</time>
      </trkpt>
      <trkpt lat="44.33391" lon="4.03968">
        <ele>364</ele>
        <time>2013-04-03T13:22:44Z</time>
      </trkpt>
      <trkpt lat="44.33393" lon="4.03965">
        <ele>364</ele>
        <time>2013-04-03T13:22:46Z</time>
      </trkpt>
      <trkpt lat="44.33395" lon="4.03963">
        <ele>364</ele>
        <time>2013-04-03T13:22:48Z</time>
      </trkpt>
      <trkpt lat="44.33395" lon="4.03962">
        <ele>363</ele>
        <time>2013-04-03T13:22:50Z</time>
      </trkpt>
      <trkpt lat="44.33397" lon="4.03959">
        <ele>363</ele>
        <time>2013-04-03T13:22:52Z</time>
      </trkpt>
      <trkpt lat="44.33399" lon="4.03957">
        <ele>363</ele>
        <time>2013-04-03T13:22:54Z</time>
      </trkpt>
      <trkpt lat="44.33401" lon="4.03956">
        <ele>363</ele>
        <time>2013-04-03T13:22:56Z</time>
      </trkpt>
      <trkpt lat="44.33403" lon="4.03953">
        <ele>363</ele>
        <time>2013-04-03T13:22:58Z</time>
      </trkpt>
      <trkpt lat="44.33405" lon="4.03952">
        <ele>363</ele>
        <time>2013-04-03T13:23:00Z</time>
      </trkpt>
      <trkpt lat="44.33406" lon="4.03949">
        <ele>362</ele>
        <time>2013-04-03T13:23:02Z</time>
      </trkpt>
      <trkpt lat="44.33408" lon="4.03947">
        <ele>363</ele>
        <time>2013-04-03T13:23:04Z</time>
      </trkpt>
      <trkpt lat="44.33409" lon="4.03944">
        <ele>363</ele>
        <time>2013-04-03T13:23:06Z</time>
      </trkpt>
      <trkpt lat="44.33409" lon="4.03944">
        <ele>363</ele>
        <time>2013-04-03T13:23:07Z</time>
      </trkpt>
      <trkpt lat="44.33411" lon="4.03941">
        <ele>363</ele>
        <time>2013-04-03T13:23:10Z</time>
      </trkpt>
      <trkpt lat="44.33411" lon="4.0394">
        <ele>362</ele>
        <time>2013-04-03T13:23:12Z</time>
      </trkpt>
      <trkpt lat="44.33413" lon="4.03937">
        <ele>362</ele>
        <time>2013-04-03T13:23:14Z</time>
      </trkpt>
      <trkpt lat="44.33413" lon="4.03937">
        <ele>362</ele>
        <time>2013-04-03T13:23:16Z</time>
      </trkpt>
      <trkpt lat="44.33413" lon="4.03936">
        <ele>362</ele>
        <time>2013-04-03T13:23:18Z</time>
      </trkpt>
      <trkpt lat="44.33414" lon="4.03934">
        <ele>361</ele>
        <time>2013-04-03T13:23:20Z</time>
      </trkpt>
      <trkpt lat="44.33414" lon="4.03931">
        <ele>361</ele>
        <time>2013-04-03T13:23:22Z</time>
      </trkpt>
      <trkpt lat="44.33416" lon="4.03929">
        <ele>361</ele>
        <time>2013-04-03T13:23:24Z</time>
      </trkpt>
      <trkpt lat="44.33417" lon="4.03927">
        <ele>361</ele>
        <time>2013-04-03T13:23:26Z</time>
      </trkpt>
      <trkpt lat="44.33418" lon="4.03923">
        <ele>360</ele>
        <time>2013-04-03T13:23:28Z</time>
      </trkpt>
      <trkpt lat="44.33418" lon="4.0392">
        <ele>360</ele>
        <time>2013-04-03T13:23:30Z</time>
      </trkpt>
      <trkpt lat="44.33419" lon="4.03916">
        <ele>360</ele>
        <time>2013-04-03T13:23:32Z</time>
      </trkpt>
      <trkpt lat="44.3342" lon="4.03914">
        <ele>360</ele>
        <time>2013-04-03T13:23:34Z</time>
      </trkpt>
      <trkpt lat="44.3342" lon="4.03913">
        <ele>360</ele>
        <time>2013-04-03T13:23:36Z</time>
      </trkpt>
      <trkpt lat="44.33421" lon="4.03912">
        <ele>359</ele>
        <time>2013-04-03T13:23:38Z</time>
      </trkpt>
      <trkpt lat="44.33421" lon="4.03911">
        <ele>360</ele>
        <time>2013-04-03T13:23:40Z</time>
      </trkpt>
      <trkpt lat="44.33422" lon="4.03908">
        <ele>360</ele>
        <time>2013-04-03T13:23:42Z</time>
      </trkpt>
      <trkpt lat="44.33423" lon="4.03906">
        <ele>360</ele>
        <time>2013-04-03T13:23:44Z</time>
      </trkpt>
      <trkpt lat="44.33424" lon="4.03905">
        <ele>360</ele>
        <time>2013-04-03T13:23:46Z</time>
      </trkpt>
      <trkpt lat="44.33426" lon="4.03902">
        <ele>359</ele>
        <time>2013-04-03T13:23:48Z</time>
      </trkpt>
      <trkpt lat="44.33428" lon="4.03899">
        <ele>357</ele>
        <time>2013-04-03T13:23:50Z</time>
      </trkpt>
      <trkpt lat="44.3343" lon="4.03896">
        <ele>358</ele>
        <time>2013-04-03T13:23:52Z</time>
      </trkpt>
      <trkpt lat="44.33432" lon="4.03893">
        <ele>358</ele>
        <time>2013-04-03T13:23:54Z</time>
      </trkpt>
      <trkpt lat="44.33433" lon="4.03891">
        <ele>357</ele>
        <time>2013-04-03T13:23:56Z</time>
      </trkpt>
      <trkpt lat="44.33435" lon="4.03887">
        <ele>356</ele>
        <time>2013-04-03T13:23:58Z</time>
      </trkpt>
      <trkpt lat="44.33436" lon="4.03884">
        <ele>356</ele>
        <time>2013-04-03T13:24:00Z</time>
      </trkpt>
      <trkpt lat="44.33436" lon="4.03881">
        <ele>355</ele>
        <time>2013-04-03T13:24:02Z</time>
      </trkpt>
      <trkpt lat="44.33438" lon="4.03878">
        <ele>355</ele>
        <time>2013-04-03T13:24:04Z</time>
      </trkpt>
      <trkpt lat="44.33439" lon="4.03875">
        <ele>354</ele>
        <time>2013-04-03T13:24:06Z</time>
      </trkpt>
      <trkpt lat="44.3344" lon="4.03875">
        <ele>354</ele>
        <time>2013-04-03T13:24:08Z</time>
      </trkpt>
      <trkpt lat="44.3344" lon="4.03873">
        <ele>353</ele>
        <time>2013-04-03T13:24:09Z</time>
      </trkpt>
      <trkpt lat="44.33441" lon="4.03869">
        <ele>352</ele>
        <time>2013-04-03T13:24:12Z</time>
      </trkpt>
      <trkpt lat="44.33442" lon="4.03868">
        <ele>352</ele>
        <time>2013-04-03T13:24:14Z</time>
      </trkpt>
      <trkpt lat="44.33443" lon="4.03865">
        <ele>351</ele>
        <time>2013-04-03T13:24:16Z</time>
      </trkpt>
      <trkpt lat="44.33443" lon="4.03864">
        <ele>351</ele>
        <time>2013-04-03T13:24:18Z</time>
      </trkpt>
      <trkpt lat="44.33444" lon="4.03859">
        <ele>350</ele>
        <time>2013-04-03T13:24:20Z</time>
      </trkpt>
      <trkpt lat="44.33445" lon="4.03855">
        <ele>350</ele>
        <time>2013-04-03T13:24:22Z</time>
      </trkpt>
      <trkpt lat="44.33447" lon="4.03852">
        <ele>349</ele>
        <time>2013-04-03T13:24:24Z</time>
      </trkpt>
      <trkpt lat="44.33448" lon="4.03848">
        <ele>349</ele>
        <time>2013-04-03T13:24:26Z</time>
      </trkpt>
      <trkpt lat="44.33451" lon="4.03845">
        <ele>348</ele>
        <time>2013-04-03T13:24:28Z</time>
      </trkpt>
      <trkpt lat="44.33453" lon="4.03842">
        <ele>347</ele>
        <time>2013-04-03T13:24:30Z</time>
      </trkpt>
      <trkpt lat="44.33454" lon="4.0384">
        <ele>346</ele>
        <time>2013-04-03T13:24:32Z</time>
      </trkpt>
      <trkpt lat="44.33454" lon="4.0384">
        <ele>346</ele>
        <time>2013-04-03T13:24:34Z</time>
      </trkpt>
      <trkpt lat="44.33454" lon="4.0384">
        <ele>346</ele>
        <time>2013-04-03T13:24:36Z</time>
      </trkpt>
      <trkpt lat="44.33454" lon="4.0384">
        <ele>346</ele>
        <time>2013-04-03T13:24:38Z</time>
      </trkpt>
      <trkpt lat="44.33454" lon="4.0384">
        <ele>346</ele>
        <time>2013-04-03T13:24:40Z</time>
      </trkpt>
      <trkpt lat="44.33454" lon="4.0384">
        <ele>346</ele>
        <time>2013-04-03T13:24:42Z</time>
      </trkpt>
      <trkpt lat="44.33454" lon="4.03839">
        <ele>346</ele>
        <time>2013-04-03T13:24:44Z</time>
      </trkpt>
      <trkpt lat="44.33456" lon="4.03836">
        <ele>346</ele>
        <time>2013-04-03T13:24:46Z</time>
      </trkpt>
      <trkpt lat="44.33457" lon="4.03833">
        <ele>346</ele>
        <time>2013-04-03T13:24:48Z</time>
      </trkpt>
      <trkpt lat="44.33457" lon="4.03829">
        <ele>346</ele>
        <time>2013-04-03T13:24:50Z</time>
      </trkpt>
      <trkpt lat="44.33458" lon="4.03825">
        <ele>346</ele>
        <time>2013-04-03T13:24:52Z</time>
      </trkpt>
      <trkpt lat="44.33459" lon="4.03822">
        <ele>346</ele>
        <time>2013-04-03T13:24:54Z</time>
      </trkpt>
      <trkpt lat="44.3346" lon="4.03818">
        <ele>345</ele>
        <time>2013-04-03T13:24:56Z</time>
      </trkpt>
      <trkpt lat="44.33461" lon="4.03815">
        <ele>345</ele>
        <time>2013-04-03T13:24:58Z</time>
      </trkpt>
      <trkpt lat="44.33461" lon="4.03811">
        <ele>344</ele>
        <time>2013-04-03T13:25:00Z</time>
      </trkpt>
      <trkpt lat="44.33462" lon="4.03808">
        <ele>344</ele>
        <time>2013-04-03T13:25:02Z</time>
      </trkpt>
      <trkpt lat="44.33463" lon="4.03805">
        <ele>345</ele>
        <time>2013-04-03T13:25:04Z</time>
      </trkpt>
      <trkpt lat="44.33464" lon="4.03801">
        <ele>345</ele>
        <time>2013-04-03T13:25:06Z</time>
      </trkpt>
      <trkpt lat="44.33465" lon="4.03798">
        <ele>344</ele>
        <time>2013-04-03T13:25:08Z</time>
      </trkpt>
      <trkpt lat="44.33465" lon="4.03795">
        <ele>345</ele>
        <time>2013-04-03T13:25:10Z</time>
      </trkpt>
      <trkpt lat="44.33466" lon="4.03794">
        <ele>345</ele>
        <time>2013-04-03T13:25:11Z</time>
      </trkpt>
      <trkpt lat="44.33468" lon="4.03788">
        <ele>345</ele>
        <time>2013-04-03T13:25:14Z</time>
      </trkpt>
      <trkpt lat="44.33469" lon="4.03784">
        <ele>344</ele>
        <time>2013-04-03T13:25:16Z</time>
      </trkpt>
      <trkpt lat="44.33471" lon="4.03781">
        <ele>344</ele>
        <time>2013-04-03T13:25:18Z</time>
      </trkpt>
      <trkpt lat="44.33472" lon="4.03779">
        <ele>343</ele>
        <time>2013-04-03T13:25:20Z</time>
      </trkpt>
      <trkpt lat="44.33473" lon="4.03776">
        <ele>343</ele>
        <time>2013-04-03T13:25:22Z</time>
      </trkpt>
      <trkpt lat="44.33475" lon="4.03773">
        <ele>343</ele>
        <time>2013-04-03T13:25:24Z</time>
      </trkpt>
      <trkpt lat="44.33475" lon="4.0377">
        <ele>344</ele>
        <time>2013-04-03T13:25:26Z</time>
      </trkpt>
      <trkpt lat="44.33477" lon="4.03767">
        <ele>344</ele>
        <time>2013-04-03T13:25:28Z</time>
      </trkpt>
      <trkpt lat="44.33477" lon="4.03766">
        <ele>344</ele>
        <time>2013-04-03T13:25:30Z</time>
      </trkpt>
      <trkpt lat="44.33479" lon="4.03764">
        <ele>344</ele>
        <time>2013-04-03T13:25:32Z</time>
      </trkpt>
      <trkpt lat="44.3348" lon="4.03761">
        <ele>344</ele>
        <time>2013-04-03T13:25:34Z</time>
      </trkpt>
      <trkpt lat="44.33481" lon="4.03758">
        <ele>344</ele>
        <time>2013-04-03T13:25:36Z</time>
      </trkpt>
      <trkpt lat="44.33482" lon="4.03755">
        <ele>344</ele>
        <time>2013-04-03T13:25:38Z</time>
      </trkpt>
      <trkpt lat="44.33483" lon="4.03752">
        <ele>344</ele>
        <time>2013-04-03T13:25:40Z</time>
      </trkpt>
      <trkpt lat="44.33485" lon="4.03749">
        <ele>344</ele>
        <time>2013-04-03T13:25:42Z</time>
      </trkpt>
      <trkpt lat="44.33486" lon="4.03746">
        <ele>344</ele>
        <time>2013-04-03T13:25:44Z</time>
      </trkpt>
      <trkpt lat="44.33488" lon="4.03743">
        <ele>344</ele>
        <time>2013-04-03T13:25:46Z</time>
      </trkpt>
      <trkpt lat="44.33489" lon="4.03742">
        <ele>344</ele>
        <time>2013-04-03T13:25:48Z</time>
      </trkpt>
      <trkpt lat="44.3349" lon="4.0374">
        <ele>344</ele>
        <time>2013-04-03T13:25:50Z</time>
      </trkpt>
      <trkpt lat="44.33492" lon="4.03738">
        <ele>344</ele>
        <time>2013-04-03T13:25:52Z</time>
      </trkpt>
      <trkpt lat="44.33495" lon="4.03736">
        <ele>344</ele>
        <time>2013-04-03T13:25:54Z</time>
      </trkpt>
      <trkpt lat="44.33496" lon="4.03733">
        <ele>345</ele>
        <time>2013-04-03T13:25:56Z</time>
      </trkpt>
      <trkpt lat="44.33497" lon="4.03731">
        <ele>345</ele>
        <time>2013-04-03T13:25:58Z</time>
      </trkpt>
      <trkpt lat="44.33498" lon="4.0373">
        <ele>345</ele>
        <time>2013-04-03T13:26:00Z</time>
      </trkpt>
      <trkpt lat="44.335" lon="4.03728">
        <ele>345</ele>
        <time>2013-04-03T13:26:02Z</time>
      </trkpt>
      <trkpt lat="44.33502" lon="4.03726">
        <ele>346</ele>
        <time>2013-04-03T13:26:04Z</time>
      </trkpt>
      <trkpt lat="44.33504" lon="4.03724">
        <ele>346</ele>
        <time>2013-04-03T13:26:06Z</time>
      </trkpt>
      <trkpt lat="44.33505" lon="4.03721">
        <ele>345</ele>
        <time>2013-04-03T13:26:08Z</time>
      </trkpt>
      <trkpt lat="44.33506" lon="4.0372">
        <ele>345</ele>
        <time>2013-04-03T13:26:10Z</time>
      </trkpt>
      <trkpt lat="44.33507" lon="4.03718">
        <ele>344</ele>
        <time>2013-04-03T13:26:12Z</time>
      </trkpt>
      <trkpt lat="44.33508" lon="4.03717">
        <ele>344</ele>
        <time>2013-04-03T13:26:13Z</time>
      </trkpt>
      <trkpt lat="44.3351" lon="4.03712">
        <ele>343</ele>
        <time>2013-04-03T13:26:16Z</time>
      </trkpt>
      <trkpt lat="44.33513" lon="4.03711">
        <ele>342</ele>
        <time>2013-04-03T13:26:18Z</time>
      </trkpt>
      <trkpt lat="44.33515" lon="4.03709">
        <ele>343</ele>
        <time>2013-04-03T13:26:20Z</time>
      </trkpt>
      <trkpt lat="44.33518" lon="4.03708">
        <ele>342</ele>
        <time>2013-04-03T13:26:22Z</time>
      </trkpt>
      <trkpt lat="44.33519" lon="4.03707">
        <ele>342</ele>
        <time>2013-04-03T13:26:24Z</time>
      </trkpt>
      <trkpt lat="44.33522" lon="4.03706">
        <ele>340</ele>
        <time>2013-04-03T13:26:26Z</time>
      </trkpt>
      <trkpt lat="44.33524" lon="4.03706">
        <ele>340</ele>
        <time>2013-04-03T13:26:28Z</time>
      </trkpt>
      <trkpt lat="44.33527" lon="4.03705">
        <ele>340</ele>
        <time>2013-04-03T13:26:30Z</time>
      </trkpt>
      <trkpt lat="44.33529" lon="4.03706">
        <ele>339</ele>
        <time>2013-04-03T13:26:32Z</time>
      </trkpt>
      <trkpt lat="44.33531" lon="4.03706">
        <ele>340</ele>
        <time>2013-04-03T13:26:34Z</time>
      </trkpt>
      <trkpt lat="44.33533" lon="4.03706">
        <ele>340</ele>
        <time>2013-04-03T13:26:36Z</time>
      </trkpt>
      <trkpt lat="44.33535" lon="4.03707">
        <ele>339</ele>
        <time>2013-04-03T13:26:38Z</time>
      </trkpt>
      <trkpt lat="44.33537" lon="4.03708">
        <ele>340</ele>
        <time>2013-04-03T13:26:40Z</time>
      </trkpt>
      <trkpt lat="44.33539" lon="4.03709">
        <ele>340</ele>
        <time>2013-04-03T13:26:42Z</time>
      </trkpt>
      <trkpt lat="44.33541" lon="4.0371">
        <ele>340</ele>
        <time>2013-04-03T13:26:44Z</time>
      </trkpt>
      <trkpt lat="44.33544" lon="4.0371">
        <ele>340</ele>
        <time>2013-04-03T13:26:46Z</time>
      </trkpt>
      <trkpt lat="44.33547" lon="4.0371">
        <ele>340</ele>
        <time>2013-04-03T13:26:48Z</time>
      </trkpt>
      <trkpt lat="44.33549" lon="4.0371">
        <ele>340</ele>
        <time>2013-04-03T13:26:50Z</time>
      </trkpt>
      <trkpt lat="44.33552" lon="4.03709">
        <ele>339</ele>
        <time>2013-04-03T13:26:52Z</time>
      </trkpt>
      <trkpt lat="44.33554" lon="4.03709">
        <ele>338</ele>
        <time>2013-04-03T13:26:54Z</time>
      </trkpt>
      <trkpt lat="44.33557" lon="4.03708">
        <ele>338</ele>
        <time>2013-04-03T13:26:56Z</time>
      </trkpt>
      <trkpt lat="44.33559" lon="4.03706">
        <ele>337</ele>
        <time>2013-04-03T13:26:58Z</time>
      </trkpt>
      <trkpt lat="44.33561" lon="4.03704">
        <ele>337</ele>
        <time>2013-04-03T13:27:00Z</time>
      </trkpt>
      <trkpt lat="44.33563" lon="4.03703">
        <ele>337</ele>
        <time>2013-04-03T13:27:02Z</time>
      </trkpt>
      <trkpt lat="44.33564" lon="4.03702">
        <ele>337</ele>
        <time>2013-04-03T13:27:04Z</time>
      </trkpt>
      <trkpt lat="44.33564" lon="4.03702">
        <ele>337</ele>
        <time>2013-04-03T13:27:06Z</time>
      </trkpt>
      <trkpt lat="44.33565" lon="4.03702">
        <ele>337</ele>
        <time>2013-04-03T13:27:08Z</time>
      </trkpt>
      <trkpt lat="44.33568" lon="4.03702">
        <ele>337</ele>
        <time>2013-04-03T13:27:10Z</time>
      </trkpt>
      <trkpt lat="44.3357" lon="4.03702">
        <ele>337</ele>
        <time>2013-04-03T13:27:12Z</time>
      </trkpt>
      <trkpt lat="44.33572" lon="4.03701">
        <ele>337</ele>
        <time>2013-04-03T13:27:14Z</time>
      </trkpt>
      <trkpt lat="44.33573" lon="4.037">
        <ele>337</ele>
        <time>2013-04-03T13:27:15Z</time>
      </trkpt>
      <trkpt lat="44.33577" lon="4.03699">
        <ele>335</ele>
        <time>2013-04-03T13:27:18Z</time>
      </trkpt>
      <trkpt lat="44.33577" lon="4.03699">
        <ele>335</ele>
        <time>2013-04-03T13:27:20Z</time>
      </trkpt>
      <trkpt lat="44.33578" lon="4.03699">
        <ele>335</ele>
        <time>2013-04-03T13:27:22Z</time>
      </trkpt>
      <trkpt lat="44.33581" lon="4.03698">
        <ele>335</ele>
        <time>2013-04-03T13:27:24Z</time>
      </trkpt>
      <trkpt lat="44.33583" lon="4.03696">
        <ele>334</ele>
        <time>2013-04-03T13:27:26Z</time>
      </trkpt>
      <trkpt lat="44.33585" lon="4.03695">
        <ele>335</ele>
        <time>2013-04-03T13:27:28Z</time>
      </trkpt>
      <trkpt lat="44.33588" lon="4.03694">
        <ele>335</ele>
        <time>2013-04-03T13:27:30Z</time>
      </trkpt>
      <trkpt lat="44.3359" lon="4.03693">
        <ele>334</ele>
        <time>2013-04-03T13:27:32Z</time>
      </trkpt>
      <trkpt lat="44.33593" lon="4.03692">
        <ele>334</ele>
        <time>2013-04-03T13:27:34Z</time>
      </trkpt>
      <trkpt lat="44.33595" lon="4.03691">
        <ele>334</ele>
        <time>2013-04-03T13:27:36Z</time>
      </trkpt>
      <trkpt lat="44.33597" lon="4.03689">
        <ele>334</ele>
        <time>2013-04-03T13:27:38Z</time>
      </trkpt>
      <trkpt lat="44.336" lon="4.03688">
        <ele>334</ele>
        <time>2013-04-03T13:27:40Z</time>
      </trkpt>
      <trkpt lat="44.336" lon="4.03688">
        <ele>334</ele>
        <time>2013-04-03T13:27:42Z</time>
      </trkpt>
      <trkpt lat="44.33602" lon="4.03687">
        <ele>334</ele>
        <time>2013-04-03T13:27:44Z</time>
      </trkpt>
      <trkpt lat="44.33605" lon="4.03685">
        <ele>334</ele>
        <time>2013-04-03T13:27:46Z</time>
      </trkpt>
      <trkpt lat="44.33605" lon="4.03685">
        <ele>334</ele>
        <time>2013-04-03T13:27:48Z</time>
      </trkpt>
      <trkpt lat="44.33606" lon="4.03684">
        <ele>334</ele>
        <time>2013-04-03T13:27:50Z</time>
      </trkpt>
      <trkpt lat="44.33609" lon="4.03682">
        <ele>335</ele>
        <time>2013-04-03T13:27:52Z</time>
      </trkpt>
      <trkpt lat="44.33611" lon="4.03679">
        <ele>336</ele>
        <time>2013-04-03T13:27:54Z</time>
      </trkpt>
      <trkpt lat="44.33613" lon="4.03676">
        <ele>336</ele>
        <time>2013-04-03T13:27:56Z</time>
      </trkpt>
      <trkpt lat="44.33615" lon="4.03673">
        <ele>336</ele>
        <time>2013-04-03T13:27:58Z</time>
      </trkpt>
      <trkpt lat="44.33616" lon="4.03671">
        <ele>336</ele>
        <time>2013-04-03T13:28:00Z</time>
      </trkpt>
      <trkpt lat="44.33617" lon="4.03668">
        <ele>336</ele>
        <time>2013-04-03T13:28:02Z</time>
      </trkpt>
      <trkpt lat="44.33618" lon="4.03665">
        <ele>336</ele>
        <time>2013-04-03T13:28:04Z</time>
      </trkpt>
      <trkpt lat="44.33618" lon="4.03665">
        <ele>336</ele>
        <time>2013-04-03T13:28:06Z</time>
      </trkpt>
      <trkpt lat="44.33619" lon="4.03662">
        <ele>337</ele>
        <time>2013-04-03T13:28:08Z</time>
      </trkpt>
      <trkpt lat="44.3362" lon="4.0366">
        <ele>336</ele>
        <time>2013-04-03T13:28:10Z</time>
      </trkpt>
      <trkpt lat="44.33621" lon="4.03658">
        <ele>336</ele>
        <time>2013-04-03T13:28:12Z</time>
      </trkpt>
      <trkpt lat="44.33622" lon="4.03655">
        <ele>336</ele>
        <time>2013-04-03T13:28:14Z</time>
      </trkpt>
      <trkpt lat="44.33623" lon="4.03652">
        <ele>336</ele>
        <time>2013-04-03T13:28:16Z</time>
      </trkpt>
      <trkpt lat="44.33623" lon="4.0365">
        <ele>336</ele>
        <time>2013-04-03T13:28:17Z</time>
      </trkpt>
      <trkpt lat="44.33624" lon="4.03646">
        <ele>337</ele>
        <time>2013-04-03T13:28:20Z</time>
      </trkpt>
      <trkpt lat="44.33624" lon="4.03643">
        <ele>336</ele>
        <time>2013-04-03T13:28:22Z</time>
      </trkpt>
      <trkpt lat="44.33626" lon="4.0364">
        <ele>337</ele>
        <time>2013-04-03T13:28:24Z</time>
      </trkpt>
      <trkpt lat="44.33627" lon="4.03637">
        <ele>337</ele>
        <time>2013-04-03T13:28:26Z</time>
      </trkpt>
      <trkpt lat="44.33628" lon="4.03634">
        <ele>337</ele>
        <time>2013-04-03T13:28:28Z</time>
      </trkpt>
      <trkpt lat="44.3363" lon="4.03631">
        <ele>336</ele>
        <time>2013-04-03T13:28:30Z</time>
      </trkpt>
      <trkpt lat="44.33631" lon="4.03629">
        <ele>336</ele>
        <time>2013-04-03T13:28:32Z</time>
      </trkpt>
      <trkpt lat="44.33633" lon="4.03626">
        <ele>336</ele>
        <time>2013-04-03T13:28:34Z</time>
      </trkpt>
      <trkpt lat="44.33634" lon="4.03624">
        <ele>337</ele>
        <time>2013-04-03T13:28:36Z</time>
      </trkpt>
      <trkpt lat="44.33634" lon="4.03623">
        <ele>337</ele>
        <time>2013-04-03T13:28:38Z</time>
      </trkpt>
      <trkpt lat="44.33635" lon="4.03622">
        <ele>337</ele>
        <time>2013-04-03T13:28:40Z</time>
      </trkpt>
      <trkpt lat="44.33636" lon="4.03621">
        <ele>337</ele>
        <time>2013-04-03T13:28:42Z</time>
      </trkpt>
      <trkpt lat="44.33636" lon="4.0362">
        <ele>337</ele>
        <time>2013-04-03T13:28:44Z</time>
      </trkpt>
      <trkpt lat="44.33636" lon="4.03618">
        <ele>337</ele>
        <time>2013-04-03T13:28:46Z</time>
      </trkpt>
      <trkpt lat="44.33637" lon="4.03616">
        <ele>338</ele>
        <time>2013-04-03T13:28:48Z</time>
      </trkpt>
      <trkpt lat="44.33637" lon="4.03615">
        <ele>338</ele>
        <time>2013-04-03T13:28:50Z</time>
      </trkpt>
      <trkpt lat="44.33638" lon="4.03615">
        <ele>338</ele>
        <time>2013-04-03T13:28:52Z</time>
      </trkpt>
      <trkpt lat="44.33638" lon="4.03614">
        <ele>338</ele>
        <time>2013-04-03T13:28:54Z</time>
      </trkpt>
      <trkpt lat="44.33638" lon="4.03614">
        <ele>338</ele>
        <time>2013-04-03T13:28:56Z</time>
      </trkpt>
      <trkpt lat="44.33638" lon="4.03613">
        <ele>338</ele>
        <time>2013-04-03T13:28:58Z</time>
      </trkpt>
      <trkpt lat="44.33638" lon="4.03613">
        <ele>338</ele>
        <time>2013-04-03T13:29:00Z</time>
      </trkpt>
      <trkpt lat="44.33638" lon="4.03613">
        <ele>338</ele>
        <time>2013-04-03T13:29:02Z</time>
      </trkpt>
      <trkpt lat="44.33638" lon="4.03613">
        <ele>338</ele>
        <time>2013-04-03T13:29:04Z</time>
      </trkpt>
      <trkpt lat="44.33638" lon="4.03613">
        <ele>338</ele>
        <time>2013-04-03T13:29:06Z</time>
      </trkpt>
      <trkpt lat="44.33638" lon="4.03613">
        <ele>338</ele>
        <time>2013-04-03T13:29:08Z</time>
      </trkpt>
      <trkpt lat="44.33638" lon="4.03613">
        <ele>338</ele>
        <time>2013-04-03T13:29:10Z</time>
      </trkpt>
      <trkpt lat="44.33638" lon="4.03613">
        <ele>338</ele>
        <time>2013-04-03T13:29:12Z</time>
      </trkpt>
      <trkpt lat="44.33638" lon="4.03613">
        <ele>338</ele>
        <time>2013-04-03T13:29:14Z</time>
      </trkpt>
      <trkpt lat="44.33638" lon="4.03613">
        <ele>338</ele>
        <time>2013-04-03T13:29:16Z</time>
      </trkpt>
      <trkpt lat="44.33638" lon="4.03613">
        <ele>338</ele>
        <time>2013-04-03T13:29:18Z</time>
      </trkpt>
      <trkpt lat="44.33638" lon="4.03613">
        <ele>338</ele>
        <time>2013-04-03T13:29:19Z</time>
      </trkpt>
      <trkpt lat="44.33639" lon="4.03612">
        <ele>337</ele>
        <time>2013-04-03T13:29:22Z</time>
      </trkpt>
      <trkpt lat="44.33639" lon="4.03611">
        <ele>337</ele>
        <time>2013-04-03T13:29:24Z</time>
      </trkpt>
      <trkpt lat="44.33639" lon="4.03611">
        <ele>337</ele>
        <time>2013-04-03T13:29:26Z</time>
      </trkpt>
      <trkpt lat="44.3364" lon="4.03611">
        <ele>337</ele>
        <time>2013-04-03T13:29:28Z</time>
      </trkpt>
      <trkpt lat="44.3364" lon="4.0361">
        <ele>337</ele>
        <time>2013-04-03T13:29:30Z</time>
      </trkpt>
      <trkpt lat="44.3364" lon="4.03608">
        <ele>338</ele>
        <time>2013-04-03T13:29:32Z</time>
      </trkpt>
      <trkpt lat="44.33641" lon="4.03606">
        <ele>338</ele>
        <time>2013-04-03T13:29:34Z</time>
      </trkpt>
      <trkpt lat="44.33641" lon="4.03604">
        <ele>338</ele>
        <time>2013-04-03T13:29:36Z</time>
      </trkpt>
      <trkpt lat="44.33641" lon="4.03604">
        <ele>339</ele>
        <time>2013-04-03T13:29:38Z</time>
      </trkpt>
      <trkpt lat="44.33642" lon="4.03603">
        <ele>339</ele>
        <time>2013-04-03T13:29:40Z</time>
      </trkpt>
      <trkpt lat="44.33642" lon="4.03603">
        <ele>339</ele>
        <time>2013-04-03T13:29:42Z</time>
      </trkpt>
      <trkpt lat="44.33642" lon="4.03603">
        <ele>338</ele>
        <time>2013-04-03T13:29:44Z</time>
      </trkpt>
      <trkpt lat="44.33642" lon="4.03603">
        <ele>338</ele>
        <time>2013-04-03T13:29:46Z</time>
      </trkpt>
      <trkpt lat="44.33642" lon="4.03603">
        <ele>338</ele>
        <time>2013-04-03T13:29:48Z</time>
      </trkpt>
      <trkpt lat="44.33642" lon="4.03603">
        <ele>338</ele>
        <time>2013-04-03T13:29:50Z</time>
      </trkpt>
      <trkpt lat="44.33642" lon="4.03603">
        <ele>338</ele>
        <time>2013-04-03T13:29:52Z</time>
      </trkpt>
      <trkpt lat="44.33642" lon="4.03603">
        <ele>338</ele>
        <time>2013-04-03T13:29:54Z</time>
      </trkpt>
      <trkpt lat="44.33642" lon="4.03603">
        <ele>338</ele>
        <time>2013-04-03T13:29:56Z</time>
      </trkpt>
      <trkpt lat="44.33642" lon="4.03603">
        <ele>338</ele>
        <time>2013-04-03T13:29:58Z</time>
      </trkpt>
      <trkpt lat="44.33642" lon="4.03602">
        <ele>338</ele>
        <time>2013-04-03T13:30:00Z</time>
      </trkpt>
      <trkpt lat="44.33643" lon="4.03602">
        <ele>338</ele>
        <time>2013-04-03T13:30:02Z</time>
      </trkpt>
      <trkpt lat="44.33643" lon="4.03602">
        <ele>338</ele>
        <time>2013-04-03T13:30:04Z</time>
      </trkpt>
      <trkpt lat="44.33643" lon="4.03602">
        <ele>338</ele>
        <time>2013-04-03T13:30:06Z</time>
      </trkpt>
      <trkpt lat="44.33643" lon="4.03602">
        <ele>338</ele>
        <time>2013-04-03T13:30:08Z</time>
      </trkpt>
      <trkpt lat="44.33643" lon="4.03602">
        <ele>338</ele>
        <time>2013-04-03T13:30:10Z</time>
      </trkpt>
      <trkpt lat="44.33643" lon="4.03602">
        <ele>338</ele>
        <time>2013-04-03T13:30:12Z</time>
      </trkpt>
      <trkpt lat="44.33644" lon="4.03602">
        <ele>339</ele>
        <time>2013-04-03T13:30:14Z</time>
      </trkpt>
      <trkpt lat="44.33644" lon="4.03602">
        <ele>338</ele>
        <time>2013-04-03T13:30:16Z</time>
      </trkpt>
      <trkpt lat="44.33644" lon="4.03602">
        <ele>338</ele>
        <time>2013-04-03T13:30:18Z</time>
      </trkpt>
      <trkpt lat="44.33644" lon="4.03601">
        <ele>338</ele>
        <time>2013-04-03T13:30:20Z</time>
      </trkpt>
      <trkpt lat="44.33645" lon="4.03601">
        <ele>338</ele>
        <time>2013-04-03T13:30:21Z</time>
      </trkpt>
      <trkpt lat="44.33646" lon="4.036">
        <ele>337</ele>
        <time>2013-04-03T13:30:24Z</time>
      </trkpt>
      <trkpt lat="44.33648" lon="4.03599">
        <ele>337</ele>
        <time>2013-04-03T13:30:26Z</time>
      </trkpt>
      <trkpt lat="44.33648" lon="4.03599">
        <ele>337</ele>
        <time>2013-04-03T13:30:28Z</time>
      </trkpt>
      <trkpt lat="44.3365" lon="4.03598">
        <ele>337</ele>
        <time>2013-04-03T13:30:30Z</time>
      </trkpt>
      <trkpt lat="44.33652" lon="4.03597">
        <ele>337</ele>
        <time>2013-04-03T13:30:32Z</time>
      </trkpt>
      <trkpt lat="44.33654" lon="4.03596">
        <ele>338</ele>
        <time>2013-04-03T13:30:34Z</time>
      </trkpt>
      <trkpt lat="44.33655" lon="4.03596">
        <ele>338</ele>
        <time>2013-04-03T13:30:36Z</time>
      </trkpt>
      <trkpt lat="44.33655" lon="4.03595">
        <ele>338</ele>
        <time>2013-04-03T13:30:38Z</time>
      </trkpt>
      <trkpt lat="44.33657" lon="4.03594">
        <ele>338</ele>
        <time>2013-04-03T13:30:40Z</time>
      </trkpt>
      <trkpt lat="44.33657" lon="4.03594">
        <ele>338</ele>
        <time>2013-04-03T13:30:42Z</time>
      </trkpt>
      <trkpt lat="44.33657" lon="4.03593">
        <ele>338</ele>
        <time>2013-04-03T13:30:44Z</time>
      </trkpt>
      <trkpt lat="44.33657" lon="4.03593">
        <ele>338</ele>
        <time>2013-04-03T13:30:46Z</time>
      </trkpt>
      <trkpt lat="44.33658" lon="4.03593">
        <ele>338</ele>
        <time>2013-04-03T13:30:48Z</time>
      </trkpt>
      <trkpt lat="44.3366" lon="4.03592">
        <ele>337</ele>
        <time>2013-04-03T13:30:50Z</time>
      </trkpt>
      <trkpt lat="44.33662" lon="4.03591">
        <ele>337</ele>
        <time>2013-04-03T13:30:52Z</time>
      </trkpt>
      <trkpt lat="44.33664" lon="4.0359">
        <ele>337</ele>
        <time>2013-04-03T13:30:54Z</time>
      </trkpt>
      <trkpt lat="44.33665" lon="4.03589">
        <ele>338</ele>
        <time>2013-04-03T13:30:56Z</time>
      </trkpt>
      <trkpt lat="44.33667" lon="4.03588">
        <ele>338</ele>
        <time>2013-04-03T13:30:58Z</time>
      </trkpt>
      <trkpt lat="44.33669" lon="4.03586">
        <ele>338</ele>
        <time>2013-04-03T13:31:00Z</time>
      </trkpt>
      <trkpt lat="44.33671" lon="4.03585">
        <ele>338</ele>
        <time>2013-04-03T13:31:02Z</time>
      </trkpt>
      <trkpt lat="44.33673" lon="4.03584">
        <ele>338</ele>
        <time>2013-04-03T13:31:04Z</time>
      </trkpt>
      <trkpt lat="44.33675" lon="4.03583">
        <ele>338</ele>
        <time>2013-04-03T13:31:06Z</time>
      </trkpt>
      <trkpt lat="44.33677" lon="4.03582">
        <ele>338</ele>
        <time>2013-04-03T13:31:08Z</time>
      </trkpt>
      <trkpt lat="44.33679" lon="4.03581">
        <ele>339</ele>
        <time>2013-04-03T13:31:10Z</time>
      </trkpt>
      <trkpt lat="44.33681" lon="4.0358">
        <ele>338</ele>
        <time>2013-04-03T13:31:12Z</time>
      </trkpt>
      <trkpt lat="44.33684" lon="4.03579">
        <ele>339</ele>
        <time>2013-04-03T13:31:14Z</time>
      </trkpt>
      <trkpt lat="44.33686" lon="4.03578">
        <ele>339</ele>
        <time>2013-04-03T13:31:16Z</time>
      </trkpt>
      <trkpt lat="44.33688" lon="4.03578">
        <ele>339</ele>
        <time>2013-04-03T13:31:18Z</time>
      </trkpt>
      <trkpt lat="44.33689" lon="4.03578">
        <ele>339</ele>
        <time>2013-04-03T13:31:20Z</time>
      </trkpt>
      <trkpt lat="44.33692" lon="4.03577">
        <ele>339</ele>
        <time>2013-04-03T13:31:22Z</time>
      </trkpt>
      <trkpt lat="44.33693" lon="4.03576">
        <ele>339</ele>
        <time>2013-04-03T13:31:23Z</time>
      </trkpt>
      <trkpt lat="44.33696" lon="4.03576">
        <ele>338</ele>
        <time>2013-04-03T13:31:26Z</time>
      </trkpt>
      <trkpt lat="44.33698" lon="4.03575">
        <ele>338</ele>
        <time>2013-04-03T13:31:28Z</time>
      </trkpt>
      <trkpt lat="44.337" lon="4.03575">
        <ele>338</ele>
        <time>2013-04-03T13:31:30Z</time>
      </trkpt>
      <trkpt lat="44.33702" lon="4.03574">
        <ele>338</ele>
        <time>2013-04-03T13:31:32Z</time>
      </trkpt>
      <trkpt lat="44.33704" lon="4.03574">
        <ele>338</ele>
        <time>2013-04-03T13:31:34Z</time>
      </trkpt>
      <trkpt lat="44.33706" lon="4.03573">
        <ele>338</ele>
        <time>2013-04-03T13:31:36Z</time>
      </trkpt>
      <trkpt lat="44.33708" lon="4.03574">
        <ele>337</ele>
        <time>2013-04-03T13:31:38Z</time>
      </trkpt>
      <trkpt lat="44.3371" lon="4.03575">
        <ele>337</ele>
        <time>2013-04-03T13:31:40Z</time>
      </trkpt>
      <trkpt lat="44.33711" lon="4.03576">
        <ele>337</ele>
        <time>2013-04-03T13:31:42Z</time>
      </trkpt>
      <trkpt lat="44.33711" lon="4.03576">
        <ele>337</ele>
        <time>2013-04-03T13:31:44Z</time>
      </trkpt>
      <trkpt lat="44.33713" lon="4.03577">
        <ele>338</ele>
        <time>2013-04-03T13:31:46Z</time>
      </trkpt>
      <trkpt lat="44.33714" lon="4.03577">
        <ele>337</ele>
        <time>2013-04-03T13:31:48Z</time>
      </trkpt>
      <trkpt lat="44.33716" lon="4.03576">
        <ele>337</ele>
        <time>2013-04-03T13:31:50Z</time>
      </trkpt>
      <trkpt lat="44.33718" lon="4.03576">
        <ele>337</ele>
        <time>2013-04-03T13:31:52Z</time>
      </trkpt>
      <trkpt lat="44.3372" lon="4.03575">
        <ele>338</ele>
        <time>2013-04-03T13:31:54Z</time>
      </trkpt>
      <trkpt lat="44.33721" lon="4.03574">
        <ele>337</ele>
        <time>2013-04-03T13:31:56Z</time>
      </trkpt>
      <trkpt lat="44.33722" lon="4.03573">
        <ele>337</ele>
        <time>2013-04-03T13:31:58Z</time>
      </trkpt>
      <trkpt lat="44.33724" lon="4.03573">
        <ele>338</ele>
        <time>2013-04-03T13:32:00Z</time>
      </trkpt>
      <trkpt lat="44.33726" lon="4.03572">
        <ele>337</ele>
        <time>2013-04-03T13:32:02Z</time>
      </trkpt>
      <trkpt lat="44.33727" lon="4.03571">
        <ele>337</ele>
        <time>2013-04-03T13:32:04Z</time>
      </trkpt>
      <trkpt lat="44.33729" lon="4.0357">
        <ele>338</ele>
        <time>2013-04-03T13:32:06Z</time>
      </trkpt>
      <trkpt lat="44.33731" lon="4.03569">
        <ele>338</ele>
        <time>2013-04-03T13:32:08Z</time>
      </trkpt>
      <trkpt lat="44.33732" lon="4.03568">
        <ele>338</ele>
        <time>2013-04-03T13:32:10Z</time>
      </trkpt>
      <trkpt lat="44.33734" lon="4.03566">
        <ele>338</ele>
        <time>2013-04-03T13:32:12Z</time>
      </trkpt>
      <trkpt lat="44.33736" lon="4.03566">
        <ele>338</ele>
        <time>2013-04-03T13:32:14Z</time>
      </trkpt>
      <trkpt lat="44.33737" lon="4.03566">
        <ele>338</ele>
        <time>2013-04-03T13:32:16Z</time>
      </trkpt>
      <trkpt lat="44.33737" lon="4.03566">
        <ele>338</ele>
        <time>2013-04-03T13:32:18Z</time>
      </trkpt>
      <trkpt lat="44.33737" lon="4.03565">
        <ele>338</ele>
        <time>2013-04-03T13:32:20Z</time>
      </trkpt>
      <trkpt lat="44.33737" lon="4.03565">
        <ele>338</ele>
        <time>2013-04-03T13:32:22Z</time>
      </trkpt>
      <trkpt lat="44.33738" lon="4.03565">
        <ele>338</ele>
        <time>2013-04-03T13:32:24Z</time>
      </trkpt>
      <trkpt lat="44.33738" lon="4.03565">
        <ele>338</ele>
        <time>2013-04-03T13:32:25Z</time>
      </trkpt>
      <trkpt lat="44.33739" lon="4.03565">
        <ele>337</ele>
        <time>2013-04-03T13:32:28Z</time>
      </trkpt>
      <trkpt lat="44.33739" lon="4.03565">
        <ele>337</ele>
        <time>2013-04-03T13:32:30Z</time>
      </trkpt>
      <trkpt lat="44.33739" lon="4.03565">
        <ele>337</ele>
        <time>2013-04-03T13:32:32Z</time>
      </trkpt>
      <trkpt lat="44.3374" lon="4.03565">
        <ele>337</ele>
        <time>2013-04-03T13:32:34Z</time>
      </trkpt>
      <trkpt lat="44.33741" lon="4.03565">
        <ele>337</ele>
        <time>2013-04-03T13:32:36Z</time>
      </trkpt>
      <trkpt lat="44.33742" lon="4.03564">
        <ele>337</ele>
        <time>2013-04-03T13:32:38Z</time>
      </trkpt>
      <trkpt lat="44.33744" lon="4.03564">
        <ele>337</ele>
        <time>2013-04-03T13:32:40Z</time>
      </trkpt>
      <trkpt lat="44.33746" lon="4.03564">
        <ele>336</ele>
        <time>2013-04-03T13:32:42Z</time>
      </trkpt>
      <trkpt lat="44.33748" lon="4.03563">
        <ele>336</ele>
        <time>2013-04-03T13:32:44Z</time>
      </trkpt>
      <trkpt lat="44.3375" lon="4.03563">
        <ele>335</ele>
        <time>2013-04-03T13:32:46Z</time>
      </trkpt>
      <trkpt lat="44.33752" lon="4.03562">
        <ele>335</ele>
        <time>2013-04-03T13:32:48Z</time>
      </trkpt>
      <trkpt lat="44.33754" lon="4.03562">
        <ele>336</ele>
        <time>2013-04-03T13:32:50Z</time>
      </trkpt>
      <trkpt lat="44.33756" lon="4.03561">
        <ele>336</ele>
        <time>2013-04-03T13:32:52Z</time>
      </trkpt>
      <trkpt lat="44.33759" lon="4.0356">
        <ele>335</ele>
        <time>2013-04-03T13:32:54Z</time>
      </trkpt>
      <trkpt lat="44.33761" lon="4.0356">
        <ele>335</ele>
        <time>2013-04-03T13:32:56Z</time>
      </trkpt>
      <trkpt lat="44.33764" lon="4.03558">
        <ele>335</ele>
        <time>2013-04-03T13:32:58Z</time>
      </trkpt>
      <trkpt lat="44.33766" lon="4.03557">
        <ele>335</ele>
        <time>2013-04-03T13:33:00Z</time>
      </trkpt>
      <trkpt lat="44.33766" lon="4.03557">
        <ele>335</ele>
        <time>2013-04-03T13:33:02Z</time>
      </trkpt>
      <trkpt lat="44.33768" lon="4.03557">
        <ele>334</ele>
        <time>2013-04-03T13:33:04Z</time>
      </trkpt>
      <trkpt lat="44.33769" lon="4.03557">
        <ele>334</ele>
        <time>2013-04-03T13:33:06Z</time>
      </trkpt>
      <trkpt lat="44.33771" lon="4.03556">
        <ele>335</ele>
        <time>2013-04-03T13:33:08Z</time>
      </trkpt>
      <trkpt lat="44.33771" lon="4.03556">
        <ele>335</ele>
        <time>2013-04-03T13:33:10Z</time>
      </trkpt>
      <trkpt lat="44.33773" lon="4.03557">
        <ele>335</ele>
        <time>2013-04-03T13:33:12Z</time>
      </trkpt>
      <trkpt lat="44.33775" lon="4.03556">
        <ele>336</ele>
        <time>2013-04-03T13:33:14Z</time>
      </trkpt>
      <trkpt lat="44.33777" lon="4.03555">
        <ele>336</ele>
        <time>2013-04-03T13:33:16Z</time>
      </trkpt>
      <trkpt lat="44.33778" lon="4.03555">
        <ele>336</ele>
        <time>2013-04-03T13:33:18Z</time>
      </trkpt>
      <trkpt lat="44.3378" lon="4.03554">
        <ele>336</ele>
        <time>2013-04-03T13:33:20Z</time>
      </trkpt>
      <trkpt lat="44.33782" lon="4.03554">
        <ele>335</ele>
        <time>2013-04-03T13:33:22Z</time>
      </trkpt>
      <trkpt lat="44.33783" lon="4.03553">
        <ele>335</ele>
        <time>2013-04-03T13:33:24Z</time>
      </trkpt>
      <trkpt lat="44.33785" lon="4.03552">
        <ele>335</ele>
        <time>2013-04-03T13:33:26Z</time>
      </trkpt>
      <trkpt lat="44.33786" lon="4.03551">
        <ele>335</ele>
        <time>2013-04-03T13:33:27Z</time>
      </trkpt>
      <trkpt lat="44.33788" lon="4.03548">
        <ele>335</ele>
        <time>2013-04-03T13:33:30Z</time>
      </trkpt>
      <trkpt lat="44.3379" lon="4.03546">
        <ele>335</ele>
        <time>2013-04-03T13:33:32Z</time>
      </trkpt>
      <trkpt lat="44.33791" lon="4.03543">
        <ele>335</ele>
        <time>2013-04-03T13:33:34Z</time>
      </trkpt>
      <trkpt lat="44.33792" lon="4.03542">
        <ele>335</ele>
        <time>2013-04-03T13:33:36Z</time>
      </trkpt>
      <trkpt lat="44.33794" lon="4.0354">
        <ele>335</ele>
        <time>2013-04-03T13:33:38Z</time>
      </trkpt>
      <trkpt lat="44.33795" lon="4.03537">
        <ele>336</ele>
        <time>2013-04-03T13:33:40Z</time>
      </trkpt>
      <trkpt lat="44.33797" lon="4.03535">
        <ele>336</ele>
        <time>2013-04-03T13:33:42Z</time>
      </trkpt>
      <trkpt lat="44.33798" lon="4.03533">
        <ele>336</ele>
        <time>2013-04-03T13:33:44Z</time>
      </trkpt>
      <trkpt lat="44.338" lon="4.0353">
        <ele>337</ele>
        <time>2013-04-03T13:33:46Z</time>
      </trkpt>
      <trkpt lat="44.33802" lon="4.03527">
        <ele>337</ele>
        <time>2013-04-03T13:33:48Z</time>
      </trkpt>
      <trkpt lat="44.33804" lon="4.03526">
        <ele>338</ele>
        <time>2013-04-03T13:33:50Z</time>
      </trkpt>
      <trkpt lat="44.33805" lon="4.03525">
        <ele>338</ele>
        <time>2013-04-03T13:33:52Z</time>
      </trkpt>
      <trkpt lat="44.33806" lon="4.03523">
        <ele>338</ele>
        <time>2013-04-03T13:33:54Z</time>
      </trkpt>
      <trkpt lat="44.33809" lon="4.03522">
        <ele>338</ele>
        <time>2013-04-03T13:33:56Z</time>
      </trkpt>
      <trkpt lat="44.33811" lon="4.0352">
        <ele>337</ele>
        <time>2013-04-03T13:33:58Z</time>
      </trkpt>
      <trkpt lat="44.33813" lon="4.03519">
        <ele>337</ele>
        <time>2013-04-03T13:34:00Z</time>
      </trkpt>
      <trkpt lat="44.33816" lon="4.03517">
        <ele>338</ele>
        <time>2013-04-03T13:34:02Z</time>
      </trkpt>
      <trkpt lat="44.33818" lon="4.03516">
        <ele>337</ele>
        <time>2013-04-03T13:34:04Z</time>
      </trkpt>
      <trkpt lat="44.3382" lon="4.03515">
        <ele>338</ele>
        <time>2013-04-03T13:34:06Z</time>
      </trkpt>
      <trkpt lat="44.33823" lon="4.03513">
        <ele>338</ele>
        <time>2013-04-03T13:34:08Z</time>
      </trkpt>
      <trkpt lat="44.33825" lon="4.03513">
        <ele>338</ele>
        <time>2013-04-03T13:34:10Z</time>
      </trkpt>
      <trkpt lat="44.33828" lon="4.03511">
        <ele>339</ele>
        <time>2013-04-03T13:34:12Z</time>
      </trkpt>
      <trkpt lat="44.3383" lon="4.0351">
        <ele>338</ele>
        <time>2013-04-03T13:34:14Z</time>
      </trkpt>
      <trkpt lat="44.33832" lon="4.0351">
        <ele>338</ele>
        <time>2013-04-03T13:34:16Z</time>
      </trkpt>
      <trkpt lat="44.33833" lon="4.03509">
        <ele>339</ele>
        <time>2013-04-03T13:34:18Z</time>
      </trkpt>
      <trkpt lat="44.33835" lon="4.03508">
        <ele>339</ele>
        <time>2013-04-03T13:34:20Z</time>
      </trkpt>
      <trkpt lat="44.33837" lon="4.03507">
        <ele>338</ele>
        <time>2013-04-03T13:34:22Z</time>
      </trkpt>
      <trkpt lat="44.3384" lon="4.03507">
        <ele>338</ele>
        <time>2013-04-03T13:34:24Z</time>
      </trkpt>
      <trkpt lat="44.33842" lon="4.03506">
        <ele>338</ele>
        <time>2013-04-03T13:34:26Z</time>
      </trkpt>
      <trkpt lat="44.33845" lon="4.03506">
        <ele>337</ele>
        <time>2013-04-03T13:34:28Z</time>
      </trkpt>
      <trkpt lat="44.33846" lon="4.03506">
        <ele>337</ele>
        <time>2013-04-03T13:34:29Z</time>
      </trkpt>
      <trkpt lat="44.33849" lon="4.03506">
        <ele>337</ele>
        <time>2013-04-03T13:34:32Z</time>
      </trkpt>
      <trkpt lat="44.33849" lon="4.03505">
        <ele>337</ele>
        <time>2013-04-03T13:34:34Z</time>
      </trkpt>
      <trkpt lat="44.33851" lon="4.03505">
        <ele>337</ele>
        <time>2013-04-03T13:34:36Z</time>
      </trkpt>
      <trkpt lat="44.33851" lon="4.03505">
        <ele>337</ele>
        <time>2013-04-03T13:34:38Z</time>
      </trkpt>
      <trkpt lat="44.33853" lon="4.03504">
        <ele>337</ele>
        <time>2013-04-03T13:34:40Z</time>
      </trkpt>
      <trkpt lat="44.33855" lon="4.03504">
        <ele>337</ele>
        <time>2013-04-03T13:34:42Z</time>
      </trkpt>
      <trkpt lat="44.33857" lon="4.03503">
        <ele>337</ele>
        <time>2013-04-03T13:34:44Z</time>
      </trkpt>
      <trkpt lat="44.33858" lon="4.03502">
        <ele>337</ele>
        <time>2013-04-03T13:34:46Z</time>
      </trkpt>
      <trkpt lat="44.3386" lon="4.03501">
        <ele>338</ele>
        <time>2013-04-03T13:34:48Z</time>
      </trkpt>
      <trkpt lat="44.33862" lon="4.035">
        <ele>338</ele>
        <time>2013-04-03T13:34:50Z</time>
      </trkpt>
      <trkpt lat="44.33864" lon="4.035">
        <ele>338</ele>
        <time>2013-04-03T13:34:52Z</time>
      </trkpt>
      <trkpt lat="44.33865" lon="4.03499">
        <ele>338</ele>
        <time>2013-04-03T13:34:54Z</time>
      </trkpt>
      <trkpt lat="44.33867" lon="4.03499">
        <ele>338</ele>
        <time>2013-04-03T13:34:56Z</time>
      </trkpt>
      <trkpt lat="44.33868" lon="4.03499">
        <ele>339</ele>
        <time>2013-04-03T13:34:58Z</time>
      </trkpt>
      <trkpt lat="44.3387" lon="4.03498">
        <ele>339</ele>
        <time>2013-04-03T13:35:00Z</time>
      </trkpt>
      <trkpt lat="44.33871" lon="4.03498">
        <ele>339</ele>
        <time>2013-04-03T13:35:02Z</time>
      </trkpt>
      <trkpt lat="44.33872" lon="4.03498">
        <ele>340</ele>
        <time>2013-04-03T13:35:04Z</time>
      </trkpt>
      <trkpt lat="44.33874" lon="4.03498">
        <ele>340</ele>
        <time>2013-04-03T13:35:06Z</time>
      </trkpt>
      <trkpt lat="44.33876" lon="4.03497">
        <ele>340</ele>
        <time>2013-04-03T13:35:08Z</time>
      </trkpt>
      <trkpt lat="44.33878" lon="4.03496">
        <ele>339</ele>
        <time>2013-04-03T13:35:10Z</time>
      </trkpt>
      <trkpt lat="44.3388" lon="4.03495">
        <ele>340</ele>
        <time>2013-04-03T13:35:12Z</time>
      </trkpt>
      <trkpt lat="44.33882" lon="4.03494">
        <ele>341</ele>
        <time>2013-04-03T13:35:14Z</time>
      </trkpt>
      <trkpt lat="44.33883" lon="4.03494">
        <ele>341</ele>
        <time>2013-04-03T13:35:16Z</time>
      </trkpt>
      <trkpt lat="44.33885" lon="4.03495">
        <ele>341</ele>
        <time>2013-04-03T13:35:18Z</time>
      </trkpt>
      <trkpt lat="44.33886" lon="4.03494">
        <ele>341</ele>
        <time>2013-04-03T13:35:20Z</time>
      </trkpt>
      <trkpt lat="44.33886" lon="4.03493">
        <ele>342</ele>
        <time>2013-04-03T13:35:22Z</time>
      </trkpt>
      <trkpt lat="44.33888" lon="4.03493">
        <ele>342</ele>
        <time>2013-04-03T13:35:24Z</time>
      </trkpt>
      <trkpt lat="44.3389" lon="4.03492">
        <ele>343</ele>
        <time>2013-04-03T13:35:26Z</time>
      </trkpt>
      <trkpt lat="44.33891" lon="4.03492">
        <ele>343</ele>
        <time>2013-04-03T13:35:28Z</time>
      </trkpt>
      <trkpt lat="44.33893" lon="4.03491">
        <ele>343</ele>
        <time>2013-04-03T13:35:30Z</time>
      </trkpt>
      <trkpt lat="44.33895" lon="4.03491">
        <ele>343</ele>
        <time>2013-04-03T13:35:31Z</time>
      </trkpt>
      <trkpt lat="44.33899" lon="4.03491">
        <ele>342</ele>
        <time>2013-04-03T13:35:34Z</time>
      </trkpt>
      <trkpt lat="44.339" lon="4.0349">
        <ele>342</ele>
        <time>2013-04-03T13:35:36Z</time>
      </trkpt>
      <trkpt lat="44.33901" lon="4.0349">
        <ele>342</ele>
        <time>2013-04-03T13:35:38Z</time>
      </trkpt>
      <trkpt lat="44.33902" lon="4.03489">
        <ele>342</ele>
        <time>2013-04-03T13:35:40Z</time>
      </trkpt>
      <trkpt lat="44.33904" lon="4.03489">
        <ele>342</ele>
        <time>2013-04-03T13:35:42Z</time>
      </trkpt>
      <trkpt lat="44.33904" lon="4.03489">
        <ele>342</ele>
        <time>2013-04-03T13:35:44Z</time>
      </trkpt>
      <trkpt lat="44.33904" lon="4.0349">
        <ele>342</ele>
        <time>2013-04-03T13:35:46Z</time>
      </trkpt>
      <trkpt lat="44.33905" lon="4.0349">
        <ele>342</ele>
        <time>2013-04-03T13:35:48Z</time>
      </trkpt>
      <trkpt lat="44.33907" lon="4.0349">
        <ele>343</ele>
        <time>2013-04-03T13:35:50Z</time>
      </trkpt>
      <trkpt lat="44.33909" lon="4.03488">
        <ele>342</ele>
        <time>2013-04-03T13:35:52Z</time>
      </trkpt>
      <trkpt lat="44.33909" lon="4.03488">
        <ele>342</ele>
        <time>2013-04-03T13:35:54Z</time>
      </trkpt>
      <trkpt lat="44.3391" lon="4.03488">
        <ele>342</ele>
        <time>2013-04-03T13:35:56Z</time>
      </trkpt>
      <trkpt lat="44.33911" lon="4.03488">
        <ele>342</ele>
        <time>2013-04-03T13:35:58Z</time>
      </trkpt>
      <trkpt lat="44.33913" lon="4.03488">
        <ele>342</ele>
        <time>2013-04-03T13:36:00Z</time>
      </trkpt>
      <trkpt lat="44.33914" lon="4.03489">
        <ele>343</ele>
        <time>2013-04-03T13:36:02Z</time>
      </trkpt>
      <trkpt lat="44.33915" lon="4.03489">
        <ele>342</ele>
        <time>2013-04-03T13:36:04Z</time>
      </trkpt>
      <trkpt lat="44.33917" lon="4.03489">
        <ele>343</ele>
        <time>2013-04-03T13:36:06Z</time>
      </trkpt>
      <trkpt lat="44.33917" lon="4.0349">
        <ele>343</ele>
        <time>2013-04-03T13:36:08Z</time>
      </trkpt>
      <trkpt lat="44.33918" lon="4.03489">
        <ele>343</ele>
        <time>2013-04-03T13:36:10Z</time>
      </trkpt>
      <trkpt lat="44.33918" lon="4.03488">
        <ele>343</ele>
        <time>2013-04-03T13:36:12Z</time>
      </trkpt>
      <trkpt lat="44.33919" lon="4.03488">
        <ele>344</ele>
        <time>2013-04-03T13:36:14Z</time>
      </trkpt>
      <trkpt lat="44.33919" lon="4.03488">
        <ele>344</ele>
        <time>2013-04-03T13:36:16Z</time>
      </trkpt>
      <trkpt lat="44.33921" lon="4.03488">
        <ele>344</ele>
        <time>2013-04-03T13:36:18Z</time>
      </trkpt>
      <trkpt lat="44.33921" lon="4.03489">
        <ele>344</ele>
        <time>2013-04-03T13:36:20Z</time>
      </trkpt>
      <trkpt lat="44.33921" lon="4.03489">
        <ele>344</ele>
        <time>2013-04-03T13:36:22Z</time>
      </trkpt>
      <trkpt lat="44.33922" lon="4.03489">
        <ele>344</ele>
        <time>2013-04-03T13:36:24Z</time>
      </trkpt>
      <trkpt lat="44.33922" lon="4.03489">
        <ele>344</ele>
        <time>2013-04-03T13:36:26Z</time>
      </trkpt>
      <trkpt lat="44.33923" lon="4.0349">
        <ele>344</ele>
        <time>2013-04-03T13:36:28Z</time>
      </trkpt>
      <trkpt lat="44.33923" lon="4.0349">
        <ele>344</ele>
        <time>2013-04-03T13:36:30Z</time>
      </trkpt>
      <trkpt lat="44.33923" lon="4.03491">
        <ele>344</ele>
        <time>2013-04-03T13:36:32Z</time>
      </trkpt>
      <trkpt lat="44.33923" lon="4.03491">
        <ele>344</ele>
        <time>2013-04-03T13:36:33Z</time>
      </trkpt>
      <trkpt lat="44.33924" lon="4.03492">
        <ele>344</ele>
        <time>2013-04-03T13:36:36Z</time>
      </trkpt>
      <trkpt lat="44.33924" lon="4.03492">
        <ele>344</ele>
        <time>2013-04-03T13:36:38Z</time>
      </trkpt>
      <trkpt lat="44.33923" lon="4.03492">
        <ele>344</ele>
        <time>2013-04-03T13:36:40Z</time>
      </trkpt>
      <trkpt lat="44.33924" lon="4.03492">
        <ele>344</ele>
        <time>2013-04-03T13:36:42Z</time>
      </trkpt>
      <trkpt lat="44.33924" lon="4.03493">
        <ele>345</ele>
        <time>2013-04-03T13:36:44Z</time>
      </trkpt>
      <trkpt lat="44.33924" lon="4.03493">
        <ele>345</ele>
        <time>2013-04-03T13:36:46Z</time>
      </trkpt>
      <trkpt lat="44.33924" lon="4.03493">
        <ele>345</ele>
        <time>2013-04-03T13:36:48Z</time>
      </trkpt>
      <trkpt lat="44.33926" lon="4.03493">
        <ele>344</ele>
        <time>2013-04-03T13:36:50Z</time>
      </trkpt>
      <trkpt lat="44.33928" lon="4.03495">
        <ele>345</ele>
        <time>2013-04-03T13:36:52Z</time>
      </trkpt>
      <trkpt lat="44.3393" lon="4.03496">
        <ele>345</ele>
        <time>2013-04-03T13:36:54Z</time>
      </trkpt>
      <trkpt lat="44.3393" lon="4.03496">
        <ele>345</ele>
        <time>2013-04-03T13:36:56Z</time>
      </trkpt>
      <trkpt lat="44.33932" lon="4.03496">
        <ele>345</ele>
        <time>2013-04-03T13:36:58Z</time>
      </trkpt>
      <trkpt lat="44.33934" lon="4.03496">
        <ele>345</ele>
        <time>2013-04-03T13:37:00Z</time>
      </trkpt>
      <trkpt lat="44.33934" lon="4.03496">
        <ele>345</ele>
        <time>2013-04-03T13:37:02Z</time>
      </trkpt>
      <trkpt lat="44.33934" lon="4.03496">
        <ele>345</ele>
        <time>2013-04-03T13:37:04Z</time>
      </trkpt>
      <trkpt lat="44.33934" lon="4.03496">
        <ele>346</ele>
        <time>2013-04-03T13:37:06Z</time>
      </trkpt>
      <trkpt lat="44.33936" lon="4.03497">
        <ele>346</ele>
        <time>2013-04-03T13:37:08Z</time>
      </trkpt>
      <trkpt lat="44.33936" lon="4.03497">
        <ele>346</ele>
        <time>2013-04-03T13:37:10Z</time>
      </trkpt>
      <trkpt lat="44.33936" lon="4.03496">
        <ele>346</ele>
        <time>2013-04-03T13:37:12Z</time>
      </trkpt>
      <trkpt lat="44.33937" lon="4.03496">
        <ele>346</ele>
        <time>2013-04-03T13:37:14Z</time>
      </trkpt>
      <trkpt lat="44.33939" lon="4.03496">
        <ele>346</ele>
        <time>2013-04-03T13:37:16Z</time>
      </trkpt>
      <trkpt lat="44.33939" lon="4.03496">
        <ele>346</ele>
        <time>2013-04-03T13:37:18Z</time>
      </trkpt>
      <trkpt lat="44.33941" lon="4.03496">
        <ele>346</ele>
        <time>2013-04-03T13:37:20Z</time>
      </trkpt>
      <trkpt lat="44.33941" lon="4.03496">
        <ele>346</ele>
        <time>2013-04-03T13:37:22Z</time>
      </trkpt>
      <trkpt lat="44.33942" lon="4.03496">
        <ele>347</ele>
        <time>2013-04-03T13:37:24Z</time>
      </trkpt>
      <trkpt lat="44.33944" lon="4.03496">
        <ele>347</ele>
        <time>2013-04-03T13:37:26Z</time>
      </trkpt>
      <trkpt lat="44.33946" lon="4.03495">
        <ele>346</ele>
        <time>2013-04-03T13:37:28Z</time>
      </trkpt>
      <trkpt lat="44.33949" lon="4.03495">
        <ele>346</ele>
        <time>2013-04-03T13:37:30Z</time>
      </trkpt>
      <trkpt lat="44.33949" lon="4.03495">
        <ele>346</ele>
        <time>2013-04-03T13:37:32Z</time>
      </trkpt>
      <trkpt lat="44.33951" lon="4.03494">
        <ele>346</ele>
        <time>2013-04-03T13:37:34Z</time>
      </trkpt>
      <trkpt lat="44.33952" lon="4.03494">
        <ele>347</ele>
        <time>2013-04-03T13:37:35Z</time>
      </trkpt>
      <trkpt lat="44.33954" lon="4.03494">
        <ele>346</ele>
        <time>2013-04-03T13:37:38Z</time>
      </trkpt>
      <trkpt lat="44.33954" lon="4.03494">
        <ele>347</ele>
        <time>2013-04-03T13:37:40Z</time>
      </trkpt>
      <trkpt lat="44.33957" lon="4.03494">
        <ele>346</ele>
        <time>2013-04-03T13:37:42Z</time>
      </trkpt>
      <trkpt lat="44.33959" lon="4.03494">
        <ele>347</ele>
        <time>2013-04-03T13:37:44Z</time>
      </trkpt>
      <trkpt lat="44.33961" lon="4.03494">
        <ele>347</ele>
        <time>2013-04-03T13:37:46Z</time>
      </trkpt>
      <trkpt lat="44.33963" lon="4.03493">
        <ele>347</ele>
        <time>2013-04-03T13:37:48Z</time>
      </trkpt>
      <trkpt lat="44.33964" lon="4.03492">
        <ele>348</ele>
        <time>2013-04-03T13:37:50Z</time>
      </trkpt>
      <trkpt lat="44.33966" lon="4.03491">
        <ele>348</ele>
        <time>2013-04-03T13:37:52Z</time>
      </trkpt>
      <trkpt lat="44.33969" lon="4.03491">
        <ele>347</ele>
        <time>2013-04-03T13:37:54Z</time>
      </trkpt>
      <trkpt lat="44.33972" lon="4.03491">
        <ele>346</ele>
        <time>2013-04-03T13:37:56Z</time>
      </trkpt>
      <trkpt lat="44.33975" lon="4.03491">
        <ele>346</ele>
        <time>2013-04-03T13:37:58Z</time>
      </trkpt>
      <trkpt lat="44.33977" lon="4.0349">
        <ele>346</ele>
        <time>2013-04-03T13:38:00Z</time>
      </trkpt>
      <trkpt lat="44.3398" lon="4.0349">
        <ele>346</ele>
        <time>2013-04-03T13:38:02Z</time>
      </trkpt>
      <trkpt lat="44.33981" lon="4.03489">
        <ele>346</ele>
        <time>2013-04-03T13:38:04Z</time>
      </trkpt>
      <trkpt lat="44.33983" lon="4.03488">
        <ele>346</ele>
        <time>2013-04-03T13:38:06Z</time>
      </trkpt>
      <trkpt lat="44.33985" lon="4.03487">
        <ele>346</ele>
        <time>2013-04-03T13:38:08Z</time>
      </trkpt>
      <trkpt lat="44.33987" lon="4.03486">
        <ele>346</ele>
        <time>2013-04-03T13:38:10Z</time>
      </trkpt>
      <trkpt lat="44.33989" lon="4.03486">
        <ele>346</ele>
        <time>2013-04-03T13:38:12Z</time>
      </trkpt>
      <trkpt lat="44.33991" lon="4.03485">
        <ele>346</ele>
        <time>2013-04-03T13:38:14Z</time>
      </trkpt>
      <trkpt lat="44.33993" lon="4.03485">
        <ele>346</ele>
        <time>2013-04-03T13:38:16Z</time>
      </trkpt>
      <trkpt lat="44.33994" lon="4.03484">
        <ele>347</ele>
        <time>2013-04-03T13:38:18Z</time>
      </trkpt>
      <trkpt lat="44.33996" lon="4.03483">
        <ele>347</ele>
        <time>2013-04-03T13:38:20Z</time>
      </trkpt>
      <trkpt lat="44.33999" lon="4.03482">
        <ele>348</ele>
        <time>2013-04-03T13:38:22Z</time>
      </trkpt>
      <trkpt lat="44.34" lon="4.03481">
        <ele>348</ele>
        <time>2013-04-03T13:38:24Z</time>
      </trkpt>
      <trkpt lat="44.34003" lon="4.0348">
        <ele>348</ele>
        <time>2013-04-03T13:38:26Z</time>
      </trkpt>
      <trkpt lat="44.34005" lon="4.03479">
        <ele>348</ele>
        <time>2013-04-03T13:38:28Z</time>
      </trkpt>
      <trkpt lat="44.34006" lon="4.03479">
        <ele>348</ele>
        <time>2013-04-03T13:38:30Z</time>
      </trkpt>
      <trkpt lat="44.34008" lon="4.03478">
        <ele>349</ele>
        <time>2013-04-03T13:38:32Z</time>
      </trkpt>
      <trkpt lat="44.34009" lon="4.03478">
        <ele>349</ele>
        <time>2013-04-03T13:38:34Z</time>
      </trkpt>
      <trkpt lat="44.34009" lon="4.03478">
        <ele>349</ele>
        <time>2013-04-03T13:38:36Z</time>
      </trkpt>
      <trkpt lat="44.34009" lon="4.03478">
        <ele>349</ele>
        <time>2013-04-03T13:38:37Z</time>
      </trkpt>
      <trkpt lat="44.34011" lon="4.03477">
        <ele>349</ele>
        <time>2013-04-03T13:38:40Z</time>
      </trkpt>
      <trkpt lat="44.34011" lon="4.03477">
        <ele>349</ele>
        <time>2013-04-03T13:38:42Z</time>
      </trkpt>
      <trkpt lat="44.34013" lon="4.03476">
        <ele>350</ele>
        <time>2013-04-03T13:38:44Z</time>
      </trkpt>
      <trkpt lat="44.34014" lon="4.03476">
        <ele>350</ele>
        <time>2013-04-03T13:38:46Z</time>
      </trkpt>
      <trkpt lat="44.34016" lon="4.03476">
        <ele>350</ele>
        <time>2013-04-03T13:38:48Z</time>
      </trkpt>
      <trkpt lat="44.34019" lon="4.03476">
        <ele>350</ele>
        <time>2013-04-03T13:38:50Z</time>
      </trkpt>
      <trkpt lat="44.34019" lon="4.03475">
        <ele>350</ele>
        <time>2013-04-03T13:38:52Z</time>
      </trkpt>
      <trkpt lat="44.34021" lon="4.03474">
        <ele>349</ele>
        <time>2013-04-03T13:38:54Z</time>
      </trkpt>
      <trkpt lat="44.34021" lon="4.03474">
        <ele>349</ele>
        <time>2013-04-03T13:38:56Z</time>
      </trkpt>
      <trkpt lat="44.34024" lon="4.03473">
        <ele>349</ele>
        <time>2013-04-03T13:38:58Z</time>
      </trkpt>
      <trkpt lat="44.34026" lon="4.03472">
        <ele>349</ele>
        <time>2013-04-03T13:39:00Z</time>
      </trkpt>
      <trkpt lat="44.34028" lon="4.0347">
        <ele>349</ele>
        <time>2013-04-03T13:39:02Z</time>
      </trkpt>
      <trkpt lat="44.34031" lon="4.03468">
        <ele>349</ele>
        <time>2013-04-03T13:39:04Z</time>
      </trkpt>
      <trkpt lat="44.34033" lon="4.03467">
        <ele>349</ele>
        <time>2013-04-03T13:39:06Z</time>
      </trkpt>
      <trkpt lat="44.34034" lon="4.03467">
        <ele>350</ele>
        <time>2013-04-03T13:39:08Z</time>
      </trkpt>
      <trkpt lat="44.34036" lon="4.03466">
        <ele>350</ele>
        <time>2013-04-03T13:39:10Z</time>
      </trkpt>
      <trkpt lat="44.34036" lon="4.03466">
        <ele>349</ele>
        <time>2013-04-03T13:39:12Z</time>
      </trkpt>
      <trkpt lat="44.34038" lon="4.03465">
        <ele>350</ele>
        <time>2013-04-03T13:39:14Z</time>
      </trkpt>
      <trkpt lat="44.3404" lon="4.03464">
        <ele>350</ele>
        <time>2013-04-03T13:39:16Z</time>
      </trkpt>
      <trkpt lat="44.34041" lon="4.03463">
        <ele>350</ele>
        <time>2013-04-03T13:39:18Z</time>
      </trkpt>
      <trkpt lat="44.34042" lon="4.03462">
        <ele>350</ele>
        <time>2013-04-03T13:39:20Z</time>
      </trkpt>
      <trkpt lat="44.34044" lon="4.0346">
        <ele>350</ele>
        <time>2013-04-03T13:39:22Z</time>
      </trkpt>
      <trkpt lat="44.34044" lon="4.03459">
        <ele>350</ele>
        <time>2013-04-03T13:39:24Z</time>
      </trkpt>
      <trkpt lat="44.34047" lon="4.03457">
        <ele>351</ele>
        <time>2013-04-03T13:39:26Z</time>
      </trkpt>
      <trkpt lat="44.34049" lon="4.03456">
        <ele>352</ele>
        <time>2013-04-03T13:39:28Z</time>
      </trkpt>
      <trkpt lat="44.34051" lon="4.03454">
        <ele>352</ele>
        <time>2013-04-03T13:39:30Z</time>
      </trkpt>
      <trkpt lat="44.34053" lon="4.03453">
        <ele>351</ele>
        <time>2013-04-03T13:39:32Z</time>
      </trkpt>
      <trkpt lat="44.34054" lon="4.03453">
        <ele>351</ele>
        <time>2013-04-03T13:39:34Z</time>
      </trkpt>
      <trkpt lat="44.34056" lon="4.03453">
        <ele>351</ele>
        <time>2013-04-03T13:39:36Z</time>
      </trkpt>
      <trkpt lat="44.34058" lon="4.03454">
        <ele>351</ele>
        <time>2013-04-03T13:39:38Z</time>
      </trkpt>
      <trkpt lat="44.34059" lon="4.03453">
        <ele>352</ele>
        <time>2013-04-03T13:39:39Z</time>
      </trkpt>
      <trkpt lat="44.34061" lon="4.03452">
        <ele>352</ele>
        <time>2013-04-03T13:39:42Z</time>
      </trkpt>
      <trkpt lat="44.34062" lon="4.03452">
        <ele>352</ele>
        <time>2013-04-03T13:39:44Z</time>
      </trkpt>
      <trkpt lat="44.34064" lon="4.03451">
        <ele>352</ele>
        <time>2013-04-03T13:39:46Z</time>
      </trkpt>
      <trkpt lat="44.34067" lon="4.0345">
        <ele>352</ele>
        <time>2013-04-03T13:39:48Z</time>
      </trkpt>
      <trkpt lat="44.34069" lon="4.0345">
        <ele>352</ele>
        <time>2013-04-03T13:39:50Z</time>
      </trkpt>
      <trkpt lat="44.34071" lon="4.0345">
        <ele>352</ele>
        <time>2013-04-03T13:39:52Z</time>
      </trkpt>
      <trkpt lat="44.34073" lon="4.0345">
        <ele>352</ele>
        <time>2013-04-03T13:39:54Z</time>
      </trkpt>
      <trkpt lat="44.34076" lon="4.0345">
        <ele>352</ele>
        <time>2013-04-03T13:39:56Z</time>
      </trkpt>
      <trkpt lat="44.34077" lon="4.0345">
        <ele>351</ele>
        <time>2013-04-03T13:39:58Z</time>
      </trkpt>
      <trkpt lat="44.34079" lon="4.0345">
        <ele>351</ele>
        <time>2013-04-03T13:40:00Z</time>
      </trkpt>
      <trkpt lat="44.3408" lon="4.03451">
        <ele>351</ele>
        <time>2013-04-03T13:40:02Z</time>
      </trkpt>
      <trkpt lat="44.34081" lon="4.03452">
        <ele>351</ele>
        <time>2013-04-03T13:40:04Z</time>
      </trkpt>
      <trkpt lat="44.34083" lon="4.03454">
        <ele>351</ele>
        <time>2013-04-03T13:40:06Z</time>
      </trkpt>
      <trkpt lat="44.34085" lon="4.03455">
        <ele>351</ele>
        <time>2013-04-03T13:40:08Z</time>
      </trkpt>
      <trkpt lat="44.34085" lon="4.03455">
        <ele>351</ele>
        <time>2013-04-03T13:40:10Z</time>
      </trkpt>
      <trkpt lat="44.34086" lon="4.03456">
        <ele>351</ele>
        <time>2013-04-03T13:40:12Z</time>
      </trkpt>
      <trkpt lat="44.34087" lon="4.03457">
        <ele>350</ele>
        <time>2013-04-03T13:40:14Z</time>
      </trkpt>
      <trkpt lat="44.34089" lon="4.03459">
        <ele>350</ele>
        <time>2013-04-03T13:40:16Z</time>
      </trkpt>
      <trkpt lat="44.3409" lon="4.03459">
        <ele>350</ele>
        <time>2013-04-03T13:40:18Z</time>
      </trkpt>
      <trkpt lat="44.34092" lon="4.0346">
        <ele>350</ele>
        <time>2013-04-03T13:40:20Z</time>
      </trkpt>
      <trkpt lat="44.34094" lon="4.0346">
        <ele>350</ele>
        <time>2013-04-03T13:40:22Z</time>
      </trkpt>
      <trkpt lat="44.34095" lon="4.0346">
        <ele>350</ele>
        <time>2013-04-03T13:40:24Z</time>
      </trkpt>
      <trkpt lat="44.34096" lon="4.0346">
        <ele>350</ele>
        <time>2013-04-03T13:40:26Z</time>
      </trkpt>
      <trkpt lat="44.34097" lon="4.0346">
        <ele>351</ele>
        <time>2013-04-03T13:40:28Z</time>
      </trkpt>
      <trkpt lat="44.34098" lon="4.03461">
        <ele>351</ele>
        <time>2013-04-03T13:40:30Z</time>
      </trkpt>
      <trkpt lat="44.341" lon="4.03462">
        <ele>352</ele>
        <time>2013-04-03T13:40:32Z</time>
      </trkpt>
      <trkpt lat="44.34102" lon="4.03462">
        <ele>351</ele>
        <time>2013-04-03T13:40:34Z</time>
      </trkpt>
      <trkpt lat="44.34102" lon="4.03462">
        <ele>351</ele>
        <time>2013-04-03T13:40:36Z</time>
      </trkpt>
      <trkpt lat="44.34102" lon="4.03462">
        <ele>351</ele>
        <time>2013-04-03T13:40:38Z</time>
      </trkpt>
      <trkpt lat="44.34102" lon="4.03462">
        <ele>351</ele>
        <time>2013-04-03T13:40:40Z</time>
      </trkpt>
      <trkpt lat="44.34102" lon="4.03461">
        <ele>351</ele>
        <time>2013-04-03T13:40:41Z</time>
      </trkpt>
      <trkpt lat="44.34105" lon="4.03459">
        <ele>351</ele>
        <time>2013-04-03T13:40:44Z</time>
      </trkpt>
      <trkpt lat="44.34106" lon="4.03458">
        <ele>350</ele>
        <time>2013-04-03T13:40:46Z</time>
      </trkpt>
      <trkpt lat="44.34107" lon="4.03459">
        <ele>350</ele>
        <time>2013-04-03T13:40:48Z</time>
      </trkpt>
      <trkpt lat="44.34108" lon="4.03457">
        <ele>350</ele>
        <time>2013-04-03T13:40:50Z</time>
      </trkpt>
      <trkpt lat="44.34109" lon="4.03455">
        <ele>351</ele>
        <time>2013-04-03T13:40:52Z</time>
      </trkpt>
      <trkpt lat="44.34109" lon="4.03455">
        <ele>351</ele>
        <time>2013-04-03T13:40:54Z</time>
      </trkpt>
      <trkpt lat="44.3411" lon="4.03452">
        <ele>352</ele>
        <time>2013-04-03T13:40:56Z</time>
      </trkpt>
      <trkpt lat="44.34111" lon="4.0345">
        <ele>352</ele>
        <time>2013-04-03T13:40:58Z</time>
      </trkpt>
      <trkpt lat="44.34112" lon="4.03448">
        <ele>352</ele>
        <time>2013-04-03T13:41:00Z</time>
      </trkpt>
      <trkpt lat="44.34112" lon="4.03445">
        <ele>352</ele>
        <time>2013-04-03T13:41:02Z</time>
      </trkpt>
      <trkpt lat="44.34114" lon="4.03443">
        <ele>352</ele>
        <time>2013-04-03T13:41:04Z</time>
      </trkpt>
      <trkpt lat="44.34114" lon="4.03443">
        <ele>352</ele>
        <time>2013-04-03T13:41:06Z</time>
      </trkpt>
      <trkpt lat="44.34114" lon="4.03441">
        <ele>352</ele>
        <time>2013-04-03T13:41:08Z</time>
      </trkpt>
      <trkpt lat="44.34115" lon="4.03438">
        <ele>352</ele>
        <time>2013-04-03T13:41:10Z</time>
      </trkpt>
      <trkpt lat="44.34115" lon="4.03436">
        <ele>352</ele>
        <time>2013-04-03T13:41:12Z</time>
      </trkpt>
      <trkpt lat="44.34116" lon="4.03433">
        <ele>352</ele>
        <time>2013-04-03T13:41:14Z</time>
      </trkpt>
      <trkpt lat="44.34116" lon="4.03431">
        <ele>352</ele>
        <time>2013-04-03T13:41:16Z</time>
      </trkpt>
      <trkpt lat="44.34117" lon="4.03428">
        <ele>352</ele>
        <time>2013-04-03T13:41:18Z</time>
      </trkpt>
      <trkpt lat="44.34118" lon="4.03425">
        <ele>352</ele>
        <time>2013-04-03T13:41:20Z</time>
      </trkpt>
      <trkpt lat="44.34119" lon="4.03422">
        <ele>353</ele>
        <time>2013-04-03T13:41:22Z</time>
      </trkpt>
      <trkpt lat="44.34119" lon="4.03421">
        <ele>353</ele>
        <time>2013-04-03T13:41:24Z</time>
      </trkpt>
      <trkpt lat="44.3412" lon="4.03419">
        <ele>354</ele>
        <time>2013-04-03T13:41:26Z</time>
      </trkpt>
      <trkpt lat="44.34122" lon="4.03418">
        <ele>354</ele>
        <time>2013-04-03T13:41:28Z</time>
      </trkpt>
      <trkpt lat="44.34124" lon="4.03416">
        <ele>354</ele>
        <time>2013-04-03T13:41:30Z</time>
      </trkpt>
      <trkpt lat="44.34126" lon="4.03415">
        <ele>355</ele>
        <time>2013-04-03T13:41:32Z</time>
      </trkpt>
      <trkpt lat="44.34128" lon="4.03414">
        <ele>355</ele>
        <time>2013-04-03T13:41:34Z</time>
      </trkpt>
      <trkpt lat="44.3413" lon="4.03414">
        <ele>355</ele>
        <time>2013-04-03T13:41:36Z</time>
      </trkpt>
      <trkpt lat="44.34132" lon="4.03413">
        <ele>354</ele>
        <time>2013-04-03T13:41:38Z</time>
      </trkpt>
      <trkpt lat="44.34133" lon="4.03413">
        <ele>354</ele>
        <time>2013-04-03T13:41:40Z</time>
      </trkpt>
      <trkpt lat="44.34134" lon="4.03412">
        <ele>354</ele>
        <time>2013-04-03T13:41:42Z</time>
      </trkpt>
      <trkpt lat="44.34135" lon="4.03412">
        <ele>354</ele>
        <time>2013-04-03T13:41:43Z</time>
      </trkpt>
      <trkpt lat="44.34138" lon="4.03412">
        <ele>354</ele>
        <time>2013-04-03T13:41:46Z</time>
      </trkpt>
      <trkpt lat="44.3414" lon="4.03412">
        <ele>354</ele>
        <time>2013-04-03T13:41:48Z</time>
      </trkpt>
      <trkpt lat="44.34141" lon="4.03412">
        <ele>353</ele>
        <time>2013-04-03T13:41:50Z</time>
      </trkpt>
      <trkpt lat="44.34144" lon="4.03413">
        <ele>353</ele>
        <time>2013-04-03T13:41:52Z</time>
      </trkpt>
      <trkpt lat="44.34145" lon="4.03413">
        <ele>353</ele>
        <time>2013-04-03T13:41:54Z</time>
      </trkpt>
      <trkpt lat="44.34147" lon="4.03413">
        <ele>353</ele>
        <time>2013-04-03T13:41:56Z</time>
      </trkpt>
      <trkpt lat="44.3415" lon="4.03413">
        <ele>352</ele>
        <time>2013-04-03T13:41:58Z</time>
      </trkpt>
      <trkpt lat="44.34152" lon="4.03412">
        <ele>352</ele>
        <time>2013-04-03T13:42:00Z</time>
      </trkpt>
      <trkpt lat="44.34153" lon="4.03411">
        <ele>352</ele>
        <time>2013-04-03T13:42:02Z</time>
      </trkpt>
      <trkpt lat="44.34154" lon="4.03411">
        <ele>352</ele>
        <time>2013-04-03T13:42:04Z</time>
      </trkpt>
      <trkpt lat="44.34156" lon="4.03411">
        <ele>352</ele>
        <time>2013-04-03T13:42:06Z</time>
      </trkpt>
      <trkpt lat="44.34157" lon="4.03411">
        <ele>353</ele>
        <time>2013-04-03T13:42:08Z</time>
      </trkpt>
      <trkpt lat="44.34159" lon="4.03411">
        <ele>353</ele>
        <time>2013-04-03T13:42:10Z</time>
      </trkpt>
      <trkpt lat="44.3416" lon="4.03411">
        <ele>353</ele>
        <time>2013-04-03T13:42:12Z</time>
      </trkpt>
      <trkpt lat="44.34162" lon="4.03411">
        <ele>353</ele>
        <time>2013-04-03T13:42:14Z</time>
      </trkpt>
      <trkpt lat="44.34165" lon="4.03411">
        <ele>353</ele>
        <time>2013-04-03T13:42:16Z</time>
      </trkpt>
      <trkpt lat="44.34166" lon="4.0341">
        <ele>353</ele>
        <time>2013-04-03T13:42:18Z</time>
      </trkpt>
      <trkpt lat="44.34167" lon="4.03411">
        <ele>353</ele>
        <time>2013-04-03T13:42:20Z</time>
      </trkpt>
      <trkpt lat="44.34167" lon="4.03411">
        <ele>353</ele>
        <time>2013-04-03T13:42:22Z</time>
      </trkpt>
      <trkpt lat="44.34167" lon="4.03411">
        <ele>353</ele>
        <time>2013-04-03T13:42:24Z</time>
      </trkpt>
      <trkpt lat="44.34169" lon="4.03412">
        <ele>353</ele>
        <time>2013-04-03T13:42:26Z</time>
      </trkpt>
      <trkpt lat="44.34169" lon="4.03412">
        <ele>353</ele>
        <time>2013-04-03T13:42:28Z</time>
      </trkpt>
      <trkpt lat="44.34171" lon="4.03412">
        <ele>353</ele>
        <time>2013-04-03T13:42:30Z</time>
      </trkpt>
      <trkpt lat="44.34172" lon="4.03413">
        <ele>353</ele>
        <time>2013-04-03T13:42:32Z</time>
      </trkpt>
      <trkpt lat="44.34174" lon="4.03414">
        <ele>353</ele>
        <time>2013-04-03T13:42:34Z</time>
      </trkpt>
      <trkpt lat="44.34177" lon="4.03414">
        <ele>353</ele>
        <time>2013-04-03T13:42:36Z</time>
      </trkpt>
      <trkpt lat="44.34178" lon="4.03414">
        <ele>353</ele>
        <time>2013-04-03T13:42:38Z</time>
      </trkpt>
      <trkpt lat="44.34178" lon="4.03414">
        <ele>353</ele>
        <time>2013-04-03T13:42:40Z</time>
      </trkpt>
      <trkpt lat="44.3418" lon="4.03414">
        <ele>353</ele>
        <time>2013-04-03T13:42:42Z</time>
      </trkpt>
      <trkpt lat="44.34182" lon="4.03414">
        <ele>353</ele>
        <time>2013-04-03T13:42:44Z</time>
      </trkpt>
      <trkpt lat="44.34182" lon="4.03414">
        <ele>353</ele>
        <time>2013-04-03T13:42:45Z</time>
      </trkpt>
      <trkpt lat="44.34184" lon="4.03414">
        <ele>354</ele>
        <time>2013-04-03T13:42:48Z</time>
      </trkpt>
      <trkpt lat="44.34187" lon="4.03414">
        <ele>354</ele>
        <time>2013-04-03T13:42:50Z</time>
      </trkpt>
      <trkpt lat="44.34189" lon="4.03414">
        <ele>354</ele>
        <time>2013-04-03T13:42:52Z</time>
      </trkpt>
      <trkpt lat="44.34191" lon="4.03413">
        <ele>353</ele>
        <time>2013-04-03T13:42:54Z</time>
      </trkpt>
      <trkpt lat="44.34193" lon="4.03412">
        <ele>353</ele>
        <time>2013-04-03T13:42:56Z</time>
      </trkpt>
      <trkpt lat="44.34195" lon="4.03412">
        <ele>352</ele>
        <time>2013-04-03T13:42:58Z</time>
      </trkpt>
      <trkpt lat="44.34196" lon="4.03412">
        <ele>353</ele>
        <time>2013-04-03T13:43:00Z</time>
      </trkpt>
      <trkpt lat="44.34196" lon="4.03412">
        <ele>353</ele>
        <time>2013-04-03T13:43:02Z</time>
      </trkpt>
      <trkpt lat="44.34197" lon="4.03412">
        <ele>353</ele>
        <time>2013-04-03T13:43:04Z</time>
      </trkpt>
      <trkpt lat="44.34197" lon="4.0341">
        <ele>353</ele>
        <time>2013-04-03T13:43:06Z</time>
      </trkpt>
      <trkpt lat="44.34197" lon="4.03408">
        <ele>353</ele>
        <time>2013-04-03T13:43:08Z</time>
      </trkpt>
      <trkpt lat="44.34198" lon="4.03406">
        <ele>353</ele>
        <time>2013-04-03T13:43:10Z</time>
      </trkpt>
      <trkpt lat="44.34198" lon="4.03403">
        <ele>353</ele>
        <time>2013-04-03T13:43:12Z</time>
      </trkpt>
      <trkpt lat="44.34198" lon="4.03401">
        <ele>354</ele>
        <time>2013-04-03T13:43:14Z</time>
      </trkpt>
      <trkpt lat="44.34198" lon="4.03399">
        <ele>353</ele>
        <time>2013-04-03T13:43:16Z</time>
      </trkpt>
      <trkpt lat="44.34198" lon="4.03399">
        <ele>353</ele>
        <time>2013-04-03T13:43:18Z</time>
      </trkpt>
      <trkpt lat="44.34197" lon="4.03398">
        <ele>353</ele>
        <time>2013-04-03T13:43:20Z</time>
      </trkpt>
      <trkpt lat="44.34198" lon="4.03396">
        <ele>354</ele>
        <time>2013-04-03T13:43:22Z</time>
      </trkpt>
      <trkpt lat="44.34198" lon="4.03393">
        <ele>353</ele>
        <time>2013-04-03T13:43:24Z</time>
      </trkpt>
      <trkpt lat="44.34196" lon="4.03391">
        <ele>354</ele>
        <time>2013-04-03T13:43:26Z</time>
      </trkpt>
      <trkpt lat="44.34195" lon="4.03389">
        <ele>354</ele>
        <time>2013-04-03T13:43:28Z</time>
      </trkpt>
      <trkpt lat="44.34194" lon="4.03387">
        <ele>354</ele>
        <time>2013-04-03T13:43:30Z</time>
      </trkpt>
      <trkpt lat="44.34192" lon="4.03385">
        <ele>353</ele>
        <time>2013-04-03T13:43:32Z</time>
      </trkpt>
      <trkpt lat="44.34191" lon="4.03382">
        <ele>353</ele>
        <time>2013-04-03T13:43:34Z</time>
      </trkpt>
      <trkpt lat="44.34191" lon="4.0338">
        <ele>352</ele>
        <time>2013-04-03T13:43:36Z</time>
      </trkpt>
      <trkpt lat="44.34189" lon="4.03378">
        <ele>352</ele>
        <time>2013-04-03T13:43:38Z</time>
      </trkpt>
      <trkpt lat="44.34188" lon="4.03376">
        <ele>352</ele>
        <time>2013-04-03T13:43:40Z</time>
      </trkpt>
      <trkpt lat="44.34186" lon="4.03374">
        <ele>352</ele>
        <time>2013-04-03T13:43:42Z</time>
      </trkpt>
      <trkpt lat="44.34184" lon="4.03373">
        <ele>353</ele>
        <time>2013-04-03T13:43:44Z</time>
      </trkpt>
      <trkpt lat="44.34183" lon="4.03371">
        <ele>352</ele>
        <time>2013-04-03T13:43:46Z</time>
      </trkpt>
      <trkpt lat="44.34182" lon="4.0337">
        <ele>353</ele>
        <time>2013-04-03T13:43:47Z</time>
      </trkpt>
      <trkpt lat="44.3418" lon="4.03368">
        <ele>353</ele>
        <time>2013-04-03T13:43:50Z</time>
      </trkpt>
      <trkpt lat="44.34178" lon="4.03366">
        <ele>352</ele>
        <time>2013-04-03T13:43:52Z</time>
      </trkpt>
      <trkpt lat="44.34177" lon="4.03365">
        <ele>352</ele>
        <time>2013-04-03T13:43:54Z</time>
      </trkpt>
      <trkpt lat="44.34175" lon="4.03364">
        <ele>352</ele>
        <time>2013-04-03T13:43:56Z</time>
      </trkpt>
      <trkpt lat="44.34174" lon="4.03363">
        <ele>352</ele>
        <time>2013-04-03T13:43:58Z</time>
      </trkpt>
      <trkpt lat="44.34173" lon="4.03362">
        <ele>353</ele>
        <time>2013-04-03T13:44:00Z</time>
      </trkpt>
      <trkpt lat="44.34172" lon="4.03361">
        <ele>353</ele>
        <time>2013-04-03T13:44:02Z</time>
      </trkpt>
      <trkpt lat="44.34171" lon="4.03361">
        <ele>353</ele>
        <time>2013-04-03T13:44:04Z</time>
      </trkpt>
      <trkpt lat="44.34171" lon="4.03359">
        <ele>354</ele>
        <time>2013-04-03T13:44:06Z</time>
      </trkpt>
      <trkpt lat="44.34169" lon="4.03357">
        <ele>354</ele>
        <time>2013-04-03T13:44:08Z</time>
      </trkpt>
      <trkpt lat="44.34168" lon="4.03356">
        <ele>353</ele>
        <time>2013-04-03T13:44:10Z</time>
      </trkpt>
      <trkpt lat="44.34167" lon="4.03353">
        <ele>352</ele>
        <time>2013-04-03T13:44:12Z</time>
      </trkpt>
      <trkpt lat="44.34166" lon="4.03352">
        <ele>352</ele>
        <time>2013-04-03T13:44:14Z</time>
      </trkpt>
      <trkpt lat="44.34166" lon="4.03351">
        <ele>352</ele>
        <time>2013-04-03T13:44:16Z</time>
      </trkpt>
      <trkpt lat="44.34165" lon="4.0335">
        <ele>352</ele>
        <time>2013-04-03T13:44:18Z</time>
      </trkpt>
      <trkpt lat="44.34165" lon="4.0335">
        <ele>352</ele>
        <time>2013-04-03T13:44:20Z</time>
      </trkpt>
      <trkpt lat="44.34164" lon="4.03348">
        <ele>353</ele>
        <time>2013-04-03T13:44:22Z</time>
      </trkpt>
      <trkpt lat="44.34162" lon="4.03345">
        <ele>354</ele>
        <time>2013-04-03T13:44:24Z</time>
      </trkpt>
      <trkpt lat="44.34161" lon="4.03342">
        <ele>355</ele>
        <time>2013-04-03T13:44:26Z</time>
      </trkpt>
      <trkpt lat="44.34159" lon="4.0334">
        <ele>357</ele>
        <time>2013-04-03T13:44:28Z</time>
      </trkpt>
      <trkpt lat="44.34159" lon="4.03339">
        <ele>357</ele>
        <time>2013-04-03T13:44:30Z</time>
      </trkpt>
      <trkpt lat="44.34156" lon="4.03338">
        <ele>357</ele>
        <time>2013-04-03T13:44:32Z</time>
      </trkpt>
      <trkpt lat="44.34155" lon="4.03337">
        <ele>359</ele>
        <time>2013-04-03T13:44:34Z</time>
      </trkpt>
      <trkpt lat="44.34153" lon="4.03335">
        <ele>359</ele>
        <time>2013-04-03T13:44:36Z</time>
      </trkpt>
      <trkpt lat="44.34152" lon="4.03333">
        <ele>359</ele>
        <time>2013-04-03T13:44:38Z</time>
      </trkpt>
      <trkpt lat="44.3415" lon="4.03332">
        <ele>360</ele>
        <time>2013-04-03T13:44:40Z</time>
      </trkpt>
      <trkpt lat="44.34149" lon="4.03329">
        <ele>360</ele>
        <time>2013-04-03T13:44:42Z</time>
      </trkpt>
      <trkpt lat="44.34148" lon="4.03329">
        <ele>361</ele>
        <time>2013-04-03T13:44:44Z</time>
      </trkpt>
      <trkpt lat="44.34147" lon="4.03328">
        <ele>361</ele>
        <time>2013-04-03T13:44:46Z</time>
      </trkpt>
      <trkpt lat="44.34146" lon="4.03326">
        <ele>362</ele>
        <time>2013-04-03T13:44:48Z</time>
      </trkpt>
      <trkpt lat="44.34145" lon="4.03325">
        <ele>362</ele>
        <time>2013-04-03T13:44:49Z</time>
      </trkpt>
      <trkpt lat="44.34143" lon="4.03321">
        <ele>363</ele>
        <time>2013-04-03T13:44:52Z</time>
      </trkpt>
      <trkpt lat="44.34142" lon="4.03318">
        <ele>363</ele>
        <time>2013-04-03T13:44:54Z</time>
      </trkpt>
      <trkpt lat="44.34141" lon="4.03316">
        <ele>363</ele>
        <time>2013-04-03T13:44:56Z</time>
      </trkpt>
      <trkpt lat="44.3414" lon="4.03314">
        <ele>363</ele>
        <time>2013-04-03T13:44:58Z</time>
      </trkpt>
      <trkpt lat="44.34139" lon="4.03313">
        <ele>363</ele>
        <time>2013-04-03T13:45:00Z</time>
      </trkpt>
      <trkpt lat="44.34139" lon="4.03313">
        <ele>362</ele>
        <time>2013-04-03T13:45:02Z</time>
      </trkpt>
      <trkpt lat="44.34138" lon="4.03312">
        <ele>362</ele>
        <time>2013-04-03T13:45:04Z</time>
      </trkpt>
      <trkpt lat="44.34138" lon="4.03311">
        <ele>362</ele>
        <time>2013-04-03T13:45:06Z</time>
      </trkpt>
      <trkpt lat="44.34136" lon="4.03309">
        <ele>362</ele>
        <time>2013-04-03T13:45:08Z</time>
      </trkpt>
      <trkpt lat="44.34134" lon="4.03307">
        <ele>362</ele>
        <time>2013-04-03T13:45:10Z</time>
      </trkpt>
      <trkpt lat="44.34134" lon="4.03306">
        <ele>362</ele>
        <time>2013-04-03T13:45:12Z</time>
      </trkpt>
      <trkpt lat="44.34132" lon="4.03304">
        <ele>362</ele>
        <time>2013-04-03T13:45:14Z</time>
      </trkpt>
      <trkpt lat="44.34132" lon="4.03304">
        <ele>362</ele>
        <time>2013-04-03T13:45:16Z</time>
      </trkpt>
      <trkpt lat="44.34132" lon="4.03304">
        <ele>362</ele>
        <time>2013-04-03T13:45:18Z</time>
      </trkpt>
      <trkpt lat="44.34132" lon="4.03304">
        <ele>362</ele>
        <time>2013-04-03T13:45:20Z</time>
      </trkpt>
      <trkpt lat="44.34131" lon="4.03303">
        <ele>362</ele>
        <time>2013-04-03T13:45:22Z</time>
      </trkpt>
      <trkpt lat="44.34131" lon="4.03302">
        <ele>362</ele>
        <time>2013-04-03T13:45:24Z</time>
      </trkpt>
      <trkpt lat="44.34131" lon="4.03299">
        <ele>362</ele>
        <time>2013-04-03T13:45:26Z</time>
      </trkpt>
      <trkpt lat="44.3413" lon="4.03296">
        <ele>362</ele>
        <time>2013-04-03T13:45:28Z</time>
      </trkpt>
      <trkpt lat="44.34129" lon="4.03294">
        <ele>362</ele>
        <time>2013-04-03T13:45:30Z</time>
      </trkpt>
      <trkpt lat="44.34128" lon="4.03291">
        <ele>362</ele>
        <time>2013-04-03T13:45:32Z</time>
      </trkpt>
      <trkpt lat="44.34128" lon="4.03289">
        <ele>363</ele>
        <time>2013-04-03T13:45:34Z</time>
      </trkpt>
      <trkpt lat="44.34127" lon="4.03285">
        <ele>362</ele>
        <time>2013-04-03T13:45:36Z</time>
      </trkpt>
      <trkpt lat="44.34127" lon="4.03282">
        <ele>363</ele>
        <time>2013-04-03T13:45:38Z</time>
      </trkpt>
      <trkpt lat="44.34127" lon="4.0328">
        <ele>363</ele>
        <time>2013-04-03T13:45:40Z</time>
      </trkpt>
      <trkpt lat="44.34127" lon="4.03277">
        <ele>363</ele>
        <time>2013-04-03T13:45:42Z</time>
      </trkpt>
      <trkpt lat="44.34127" lon="4.03274">
        <ele>363</ele>
        <time>2013-04-03T13:45:44Z</time>
      </trkpt>
      <trkpt lat="44.34127" lon="4.03272">
        <ele>363</ele>
        <time>2013-04-03T13:45:46Z</time>
      </trkpt>
      <trkpt lat="44.34128" lon="4.03269">
        <ele>363</ele>
        <time>2013-04-03T13:45:48Z</time>
      </trkpt>
      <trkpt lat="44.34129" lon="4.03267">
        <ele>363</ele>
        <time>2013-04-03T13:45:50Z</time>
      </trkpt>
      <trkpt lat="44.34129" lon="4.03265">
        <ele>363</ele>
        <time>2013-04-03T13:45:51Z</time>
      </trkpt>
      <trkpt lat="44.3413" lon="4.03262">
        <ele>363</ele>
        <time>2013-04-03T13:45:54Z</time>
      </trkpt>
      <trkpt lat="44.3413" lon="4.03259">
        <ele>363</ele>
        <time>2013-04-03T13:45:56Z</time>
      </trkpt>
      <trkpt lat="44.34131" lon="4.03256">
        <ele>364</ele>
        <time>2013-04-03T13:45:58Z</time>
      </trkpt>
      <trkpt lat="44.34131" lon="4.03253">
        <ele>364</ele>
        <time>2013-04-03T13:46:00Z</time>
      </trkpt>
      <trkpt lat="44.34131" lon="4.03251">
        <ele>364</ele>
        <time>2013-04-03T13:46:02Z</time>
      </trkpt>
      <trkpt lat="44.34131" lon="4.0325">
        <ele>364</ele>
        <time>2013-04-03T13:46:04Z</time>
      </trkpt>
      <trkpt lat="44.34132" lon="4.03247">
        <ele>364</ele>
        <time>2013-04-03T13:46:06Z</time>
      </trkpt>
      <trkpt lat="44.34133" lon="4.03245">
        <ele>365</ele>
        <time>2013-04-03T13:46:08Z</time>
      </trkpt>
      <trkpt lat="44.34134" lon="4.03243">
        <ele>365</ele>
        <time>2013-04-03T13:46:10Z</time>
      </trkpt>
      <trkpt lat="44.34135" lon="4.03242">
        <ele>364</ele>
        <time>2013-04-03T13:46:12Z</time>
      </trkpt>
      <trkpt lat="44.34136" lon="4.0324">
        <ele>364</ele>
        <time>2013-04-03T13:46:14Z</time>
      </trkpt>
      <trkpt lat="44.34137" lon="4.03238">
        <ele>365</ele>
        <time>2013-04-03T13:46:16Z</time>
      </trkpt>
      <trkpt lat="44.34138" lon="4.03235">
        <ele>365</ele>
        <time>2013-04-03T13:46:18Z</time>
      </trkpt>
      <trkpt lat="44.34139" lon="4.03232">
        <ele>365</ele>
        <time>2013-04-03T13:46:20Z</time>
      </trkpt>
      <trkpt lat="44.34139" lon="4.03228">
        <ele>365</ele>
        <time>2013-04-03T13:46:22Z</time>
      </trkpt>
      <trkpt lat="44.3414" lon="4.03225">
        <ele>365</ele>
        <time>2013-04-03T13:46:24Z</time>
      </trkpt>
      <trkpt lat="44.34141" lon="4.03223">
        <ele>365</ele>
        <time>2013-04-03T13:46:26Z</time>
      </trkpt>
      <trkpt lat="44.34142" lon="4.0322">
        <ele>364</ele>
        <time>2013-04-03T13:46:28Z</time>
      </trkpt>
      <trkpt lat="44.34143" lon="4.03217">
        <ele>364</ele>
        <time>2013-04-03T13:46:30Z</time>
      </trkpt>
      <trkpt lat="44.34144" lon="4.03215">
        <ele>364</ele>
        <time>2013-04-03T13:46:32Z</time>
      </trkpt>
      <trkpt lat="44.34145" lon="4.03212">
        <ele>364</ele>
        <time>2013-04-03T13:46:34Z</time>
      </trkpt>
      <trkpt lat="44.34146" lon="4.0321">
        <ele>364</ele>
        <time>2013-04-03T13:46:36Z</time>
      </trkpt>
      <trkpt lat="44.34146" lon="4.03207">
        <ele>364</ele>
        <time>2013-04-03T13:46:38Z</time>
      </trkpt>
      <trkpt lat="44.34146" lon="4.03204">
        <ele>364</ele>
        <time>2013-04-03T13:46:40Z</time>
      </trkpt>
      <trkpt lat="44.34147" lon="4.03202">
        <ele>365</ele>
        <time>2013-04-03T13:46:42Z</time>
      </trkpt>
      <trkpt lat="44.34148" lon="4.03199">
        <ele>364</ele>
        <time>2013-04-03T13:46:44Z</time>
      </trkpt>
      <trkpt lat="44.34149" lon="4.03196">
        <ele>364</ele>
        <time>2013-04-03T13:46:46Z</time>
      </trkpt>
      <trkpt lat="44.34148" lon="4.03194">
        <ele>364</ele>
        <time>2013-04-03T13:46:48Z</time>
      </trkpt>
      <trkpt lat="44.34148" lon="4.03191">
        <ele>364</ele>
        <time>2013-04-03T13:46:50Z</time>
      </trkpt>
      <trkpt lat="44.34148" lon="4.03188">
        <ele>364</ele>
        <time>2013-04-03T13:46:52Z</time>
      </trkpt>
      <trkpt lat="44.34149" lon="4.03187">
        <ele>364</ele>
        <time>2013-04-03T13:46:53Z</time>
      </trkpt>
      <trkpt lat="44.34149" lon="4.03182">
        <ele>364</ele>
        <time>2013-04-03T13:46:56Z</time>
      </trkpt>
      <trkpt lat="44.34149" lon="4.03181">
        <ele>364</ele>
        <time>2013-04-03T13:46:58Z</time>
      </trkpt>
      <trkpt lat="44.34151" lon="4.03178">
        <ele>364</ele>
        <time>2013-04-03T13:47:00Z</time>
      </trkpt>
      <trkpt lat="44.34152" lon="4.03175">
        <ele>364</ele>
        <time>2013-04-03T13:47:02Z</time>
      </trkpt>
      <trkpt lat="44.34152" lon="4.03172">
        <ele>364</ele>
        <time>2013-04-03T13:47:04Z</time>
      </trkpt>
      <trkpt lat="44.34153" lon="4.0317">
        <ele>364</ele>
        <time>2013-04-03T13:47:06Z</time>
      </trkpt>
      <trkpt lat="44.34155" lon="4.03169">
        <ele>364</ele>
        <time>2013-04-03T13:47:08Z</time>
      </trkpt>
      <trkpt lat="44.34156" lon="4.03166">
        <ele>365</ele>
        <time>2013-04-03T13:47:10Z</time>
      </trkpt>
      <trkpt lat="44.34157" lon="4.03164">
        <ele>365</ele>
        <time>2013-04-03T13:47:12Z</time>
      </trkpt>
      <trkpt lat="44.34159" lon="4.03162">
        <ele>365</ele>
        <time>2013-04-03T13:47:14Z</time>
      </trkpt>
      <trkpt lat="44.34159" lon="4.03159">
        <ele>366</ele>
        <time>2013-04-03T13:47:16Z</time>
      </trkpt>
      <trkpt lat="44.34159" lon="4.03156">
        <ele>366</ele>
        <time>2013-04-03T13:47:18Z</time>
      </trkpt>
      <trkpt lat="44.34159" lon="4.03153">
        <ele>366</ele>
        <time>2013-04-03T13:47:20Z</time>
      </trkpt>
      <trkpt lat="44.34159" lon="4.0315">
        <ele>366</ele>
        <time>2013-04-03T13:47:22Z</time>
      </trkpt>
      <trkpt lat="44.34159" lon="4.03148">
        <ele>366</ele>
        <time>2013-04-03T13:47:24Z</time>
      </trkpt>
      <trkpt lat="44.34159" lon="4.03147">
        <ele>366</ele>
        <time>2013-04-03T13:47:26Z</time>
      </trkpt>
      <trkpt lat="44.34159" lon="4.03147">
        <ele>366</ele>
        <time>2013-04-03T13:47:28Z</time>
      </trkpt>
      <trkpt lat="44.34158" lon="4.03146">
        <ele>366</ele>
        <time>2013-04-03T13:47:30Z</time>
      </trkpt>
      <trkpt lat="44.34157" lon="4.03146">
        <ele>366</ele>
        <time>2013-04-03T13:47:32Z</time>
      </trkpt>
      <trkpt lat="44.34155" lon="4.03145">
        <ele>367</ele>
        <time>2013-04-03T13:47:34Z</time>
      </trkpt>
      <trkpt lat="44.34153" lon="4.03145">
        <ele>367</ele>
        <time>2013-04-03T13:47:36Z</time>
      </trkpt>
      <trkpt lat="44.34151" lon="4.03146">
        <ele>367</ele>
        <time>2013-04-03T13:47:38Z</time>
      </trkpt>
      <trkpt lat="44.34149" lon="4.03146">
        <ele>367</ele>
        <time>2013-04-03T13:47:40Z</time>
      </trkpt>
      <trkpt lat="44.34148" lon="4.03147">
        <ele>367</ele>
        <time>2013-04-03T13:47:42Z</time>
      </trkpt>
      <trkpt lat="44.34146" lon="4.03147">
        <ele>367</ele>
        <time>2013-04-03T13:47:44Z</time>
      </trkpt>
      <trkpt lat="44.34144" lon="4.03147">
        <ele>367</ele>
        <time>2013-04-03T13:47:46Z</time>
      </trkpt>
      <trkpt lat="44.34143" lon="4.03148">
        <ele>368</ele>
        <time>2013-04-03T13:47:48Z</time>
      </trkpt>
      <trkpt lat="44.34143" lon="4.03148">
        <ele>368</ele>
        <time>2013-04-03T13:47:50Z</time>
      </trkpt>
      <trkpt lat="44.34141" lon="4.03149">
        <ele>368</ele>
        <time>2013-04-03T13:47:52Z</time>
      </trkpt>
      <trkpt lat="44.3414" lon="4.03149">
        <ele>367</ele>
        <time>2013-04-03T13:47:54Z</time>
      </trkpt>
      <trkpt lat="44.3414" lon="4.03149">
        <ele>367</ele>
        <time>2013-04-03T13:47:55Z</time>
      </trkpt>
      <trkpt lat="44.34138" lon="4.03149">
        <ele>368</ele>
        <time>2013-04-03T13:47:58Z</time>
      </trkpt>
      <trkpt lat="44.34137" lon="4.03149">
        <ele>368</ele>
        <time>2013-04-03T13:48:00Z</time>
      </trkpt>
      <trkpt lat="44.34136" lon="4.03149">
        <ele>368</ele>
        <time>2013-04-03T13:48:02Z</time>
      </trkpt>
      <trkpt lat="44.34133" lon="4.03149">
        <ele>368</ele>
        <time>2013-04-03T13:48:04Z</time>
      </trkpt>
      <trkpt lat="44.34131" lon="4.03148">
        <ele>369</ele>
        <time>2013-04-03T13:48:06Z</time>
      </trkpt>
      <trkpt lat="44.34131" lon="4.03147">
        <ele>369</ele>
        <time>2013-04-03T13:48:08Z</time>
      </trkpt>
      <trkpt lat="44.34131" lon="4.03147">
        <ele>370</ele>
        <time>2013-04-03T13:48:10Z</time>
      </trkpt>
      <trkpt lat="44.34132" lon="4.03146">
        <ele>370</ele>
        <time>2013-04-03T13:48:12Z</time>
      </trkpt>
      <trkpt lat="44.34133" lon="4.03146">
        <ele>370</ele>
        <time>2013-04-03T13:48:14Z</time>
      </trkpt>
      <trkpt lat="44.34135" lon="4.03146">
        <ele>371</ele>
        <time>2013-04-03T13:48:16Z</time>
      </trkpt>
      <trkpt lat="44.34135" lon="4.03146">
        <ele>371</ele>
        <time>2013-04-03T13:48:18Z</time>
      </trkpt>
      <trkpt lat="44.34136" lon="4.03145">
        <ele>371</ele>
        <time>2013-04-03T13:48:20Z</time>
      </trkpt>
      <trkpt lat="44.34137" lon="4.03144">
        <ele>371</ele>
        <time>2013-04-03T13:48:22Z</time>
      </trkpt>
      <trkpt lat="44.34138" lon="4.03143">
        <ele>372</ele>
        <time>2013-04-03T13:48:24Z</time>
      </trkpt>
      <trkpt lat="44.34139" lon="4.03141">
        <ele>372</ele>
        <time>2013-04-03T13:48:26Z</time>
      </trkpt>
      <trkpt lat="44.34139" lon="4.03139">
        <ele>372</ele>
        <time>2013-04-03T13:48:28Z</time>
      </trkpt>
      <trkpt lat="44.34141" lon="4.03137">
        <ele>372</ele>
        <time>2013-04-03T13:48:30Z</time>
      </trkpt>
      <trkpt lat="44.34141" lon="4.03135">
        <ele>372</ele>
        <time>2013-04-03T13:48:32Z</time>
      </trkpt>
      <trkpt lat="44.34143" lon="4.03134">
        <ele>372</ele>
        <time>2013-04-03T13:48:34Z</time>
      </trkpt>
      <trkpt lat="44.34143" lon="4.03133">
        <ele>372</ele>
        <time>2013-04-03T13:48:36Z</time>
      </trkpt>
      <trkpt lat="44.34143" lon="4.03133">
        <ele>372</ele>
        <time>2013-04-03T13:48:38Z</time>
      </trkpt>
      <trkpt lat="44.34144" lon="4.0313">
        <ele>372</ele>
        <time>2013-04-03T13:48:40Z</time>
      </trkpt>
      <trkpt lat="44.34144" lon="4.0313">
        <ele>372</ele>
        <time>2013-04-03T13:48:42Z</time>
      </trkpt>
      <trkpt lat="44.34146" lon="4.03126">
        <ele>372</ele>
        <time>2013-04-03T13:48:44Z</time>
      </trkpt>
      <trkpt lat="44.34146" lon="4.03125">
        <ele>372</ele>
        <time>2013-04-03T13:48:46Z</time>
      </trkpt>
      <trkpt lat="44.34147" lon="4.03123">
        <ele>372</ele>
        <time>2013-04-03T13:48:48Z</time>
      </trkpt>
      <trkpt lat="44.34148" lon="4.03119">
        <ele>372</ele>
        <time>2013-04-03T13:48:50Z</time>
      </trkpt>
      <trkpt lat="44.34149" lon="4.03116">
        <ele>372</ele>
        <time>2013-04-03T13:48:52Z</time>
      </trkpt>
      <trkpt lat="44.34149" lon="4.03113">
        <ele>372</ele>
        <time>2013-04-03T13:48:54Z</time>
      </trkpt>
      <trkpt lat="44.3415" lon="4.0311">
        <ele>372</ele>
        <time>2013-04-03T13:48:56Z</time>
      </trkpt>
      <trkpt lat="44.34151" lon="4.03109">
        <ele>372</ele>
        <time>2013-04-03T13:48:57Z</time>
      </trkpt>
      <trkpt lat="44.34152" lon="4.03105">
        <ele>371</ele>
        <time>2013-04-03T13:49:00Z</time>
      </trkpt>
      <trkpt lat="44.34153" lon="4.03104">
        <ele>371</ele>
        <time>2013-04-03T13:49:02Z</time>
      </trkpt>
      <trkpt lat="44.34154" lon="4.03101">
        <ele>371</ele>
        <time>2013-04-03T13:49:04Z</time>
      </trkpt>
      <trkpt lat="44.34154" lon="4.03099">
        <ele>372</ele>
        <time>2013-04-03T13:49:06Z</time>
      </trkpt>
      <trkpt lat="44.34154" lon="4.03098">
        <ele>372</ele>
        <time>2013-04-03T13:49:08Z</time>
      </trkpt>
      <trkpt lat="44.34154" lon="4.03097">
        <ele>372</ele>
        <time>2013-04-03T13:49:10Z</time>
      </trkpt>
      <trkpt lat="44.34155" lon="4.03096">
        <ele>373</ele>
        <time>2013-04-03T13:49:12Z</time>
      </trkpt>
      <trkpt lat="44.34156" lon="4.03095">
        <ele>373</ele>
        <time>2013-04-03T13:49:14Z</time>
      </trkpt>
      <trkpt lat="44.34156" lon="4.03094">
        <ele>373</ele>
        <time>2013-04-03T13:49:16Z</time>
      </trkpt>
      <trkpt lat="44.34157" lon="4.03092">
        <ele>373</ele>
        <time>2013-04-03T13:49:18Z</time>
      </trkpt>
      <trkpt lat="44.34158" lon="4.0309">
        <ele>373</ele>
        <time>2013-04-03T13:49:20Z</time>
      </trkpt>
      <trkpt lat="44.34158" lon="4.03086">
        <ele>373</ele>
        <time>2013-04-03T13:49:22Z</time>
      </trkpt>
      <trkpt lat="44.34159" lon="4.03083">
        <ele>372</ele>
        <time>2013-04-03T13:49:24Z</time>
      </trkpt>
      <trkpt lat="44.34159" lon="4.03081">
        <ele>373</ele>
        <time>2013-04-03T13:49:26Z</time>
      </trkpt>
      <trkpt lat="44.34159" lon="4.03081">
        <ele>373</ele>
        <time>2013-04-03T13:49:28Z</time>
      </trkpt>
      <trkpt lat="44.34159" lon="4.03081">
        <ele>373</ele>
        <time>2013-04-03T13:49:30Z</time>
      </trkpt>
      <trkpt lat="44.34159" lon="4.03081">
        <ele>372</ele>
        <time>2013-04-03T13:49:32Z</time>
      </trkpt>
      <trkpt lat="44.34159" lon="4.03081">
        <ele>372</ele>
        <time>2013-04-03T13:49:34Z</time>
      </trkpt>
      <trkpt lat="44.34158" lon="4.03079">
        <ele>372</ele>
        <time>2013-04-03T13:49:36Z</time>
      </trkpt>
      <trkpt lat="44.34156" lon="4.03077">
        <ele>373</ele>
        <time>2013-04-03T13:49:38Z</time>
      </trkpt>
      <trkpt lat="44.34154" lon="4.03074">
        <ele>373</ele>
        <time>2013-04-03T13:49:40Z</time>
      </trkpt>
      <trkpt lat="44.34153" lon="4.03072">
        <ele>374</ele>
        <time>2013-04-03T13:49:42Z</time>
      </trkpt>
      <trkpt lat="44.34152" lon="4.03072">
        <ele>374</ele>
        <time>2013-04-03T13:49:44Z</time>
      </trkpt>
      <trkpt lat="44.34151" lon="4.03069">
        <ele>375</ele>
        <time>2013-04-03T13:49:46Z</time>
      </trkpt>
      <trkpt lat="44.3415" lon="4.03068">
        <ele>375</ele>
        <time>2013-04-03T13:49:48Z</time>
      </trkpt>
      <trkpt lat="44.3415" lon="4.03067">
        <ele>375</ele>
        <time>2013-04-03T13:49:50Z</time>
      </trkpt>
      <trkpt lat="44.34148" lon="4.03065">
        <ele>375</ele>
        <time>2013-04-03T13:49:52Z</time>
      </trkpt>
      <trkpt lat="44.34147" lon="4.03063">
        <ele>374</ele>
        <time>2013-04-03T13:49:54Z</time>
      </trkpt>
      <trkpt lat="44.34146" lon="4.03061">
        <ele>375</ele>
        <time>2013-04-03T13:49:56Z</time>
      </trkpt>
      <trkpt lat="44.34145" lon="4.03059">
        <ele>375</ele>
        <time>2013-04-03T13:49:58Z</time>
      </trkpt>
      <trkpt lat="44.34144" lon="4.03058">
        <ele>376</ele>
        <time>2013-04-03T13:49:59Z</time>
      </trkpt>
      <trkpt lat="44.34142" lon="4.03056">
        <ele>377</ele>
        <time>2013-04-03T13:50:02Z</time>
      </trkpt>
      <trkpt lat="44.3414" lon="4.03053">
        <ele>376</ele>
        <time>2013-04-03T13:50:04Z</time>
      </trkpt>
      <trkpt lat="44.34138" lon="4.03051">
        <ele>377</ele>
        <time>2013-04-03T13:50:06Z</time>
      </trkpt>
      <trkpt lat="44.34136" lon="4.0305">
        <ele>378</ele>
        <time>2013-04-03T13:50:08Z</time>
      </trkpt>
      <trkpt lat="44.34135" lon="4.03048">
        <ele>378</ele>
        <time>2013-04-03T13:50:10Z</time>
      </trkpt>
      <trkpt lat="44.34134" lon="4.03047">
        <ele>378</ele>
        <time>2013-04-03T13:50:12Z</time>
      </trkpt>
      <trkpt lat="44.34134" lon="4.03047">
        <ele>378</ele>
        <time>2013-04-03T13:50:14Z</time>
      </trkpt>
      <trkpt lat="44.34133" lon="4.03045">
        <ele>379</ele>
        <time>2013-04-03T13:50:16Z</time>
      </trkpt>
      <trkpt lat="44.34131" lon="4.03043">
        <ele>380</ele>
        <time>2013-04-03T13:50:18Z</time>
      </trkpt>
      <trkpt lat="44.3413" lon="4.03041">
        <ele>382</ele>
        <time>2013-04-03T13:50:20Z</time>
      </trkpt>
      <trkpt lat="44.34129" lon="4.0304">
        <ele>382</ele>
        <time>2013-04-03T13:50:22Z</time>
      </trkpt>
      <trkpt lat="44.34128" lon="4.03038">
        <ele>382</ele>
        <time>2013-04-03T13:50:24Z</time>
      </trkpt>
      <trkpt lat="44.34127" lon="4.03036">
        <ele>382</ele>
        <time>2013-04-03T13:50:26Z</time>
      </trkpt>
      <trkpt lat="44.34125" lon="4.03034">
        <ele>383</ele>
        <time>2013-04-03T13:50:28Z</time>
      </trkpt>
      <trkpt lat="44.34123" lon="4.03032">
        <ele>383</ele>
        <time>2013-04-03T13:50:30Z</time>
      </trkpt>
      <trkpt lat="44.34121" lon="4.0303">
        <ele>383</ele>
        <time>2013-04-03T13:50:32Z</time>
      </trkpt>
      <trkpt lat="44.3412" lon="4.03029">
        <ele>383</ele>
        <time>2013-04-03T13:50:34Z</time>
      </trkpt>
      <trkpt lat="44.34119" lon="4.03027">
        <ele>382</ele>
        <time>2013-04-03T13:50:36Z</time>
      </trkpt>
      <trkpt lat="44.34118" lon="4.03026">
        <ele>382</ele>
        <time>2013-04-03T13:50:38Z</time>
      </trkpt>
      <trkpt lat="44.34118" lon="4.03026">
        <ele>382</ele>
        <time>2013-04-03T13:50:40Z</time>
      </trkpt>
      <trkpt lat="44.34116" lon="4.03024">
        <ele>382</ele>
        <time>2013-04-03T13:50:42Z</time>
      </trkpt>
      <trkpt lat="44.34115" lon="4.03023">
        <ele>383</ele>
        <time>2013-04-03T13:50:44Z</time>
      </trkpt>
      <trkpt lat="44.34113" lon="4.0302">
        <ele>383</ele>
        <time>2013-04-03T13:50:46Z</time>
      </trkpt>
      <trkpt lat="44.34112" lon="4.03018">
        <ele>384</ele>
        <time>2013-04-03T13:50:48Z</time>
      </trkpt>
      <trkpt lat="44.34112" lon="4.03018">
        <ele>384</ele>
        <time>2013-04-03T13:50:50Z</time>
      </trkpt>
      <trkpt lat="44.34111" lon="4.03017">
        <ele>384</ele>
        <time>2013-04-03T13:50:52Z</time>
      </trkpt>
      <trkpt lat="44.3411" lon="4.03015">
        <ele>384</ele>
        <time>2013-04-03T13:50:54Z</time>
      </trkpt>
      <trkpt lat="44.34108" lon="4.03014">
        <ele>385</ele>
        <time>2013-04-03T13:50:56Z</time>
      </trkpt>
      <trkpt lat="44.34107" lon="4.03011">
        <ele>385</ele>
        <time>2013-04-03T13:50:58Z</time>
      </trkpt>
      <trkpt lat="44.34107" lon="4.0301">
        <ele>386</ele>
        <time>2013-04-03T13:51:00Z</time>
      </trkpt>
      <trkpt lat="44.34106" lon="4.03009">
        <ele>386</ele>
        <time>2013-04-03T13:51:01Z</time>
      </trkpt>
      <trkpt lat="44.34105" lon="4.03008">
        <ele>386</ele>
        <time>2013-04-03T13:51:04Z</time>
      </trkpt>
      <trkpt lat="44.34104" lon="4.03006">
        <ele>387</ele>
        <time>2013-04-03T13:51:06Z</time>
      </trkpt>
      <trkpt lat="44.34102" lon="4.03003">
        <ele>387</ele>
        <time>2013-04-03T13:51:08Z</time>
      </trkpt>
      <trkpt lat="44.341" lon="4.03">
        <ele>387</ele>
        <time>2013-04-03T13:51:10Z</time>
      </trkpt>
      <trkpt lat="44.34099" lon="4.02998">
        <ele>387</ele>
        <time>2013-04-03T13:51:12Z</time>
      </trkpt>
      <trkpt lat="44.34097" lon="4.02996">
        <ele>388</ele>
        <time>2013-04-03T13:51:14Z</time>
      </trkpt>
      <trkpt lat="44.34095" lon="4.02995">
        <ele>388</ele>
        <time>2013-04-03T13:51:16Z</time>
      </trkpt>
      <trkpt lat="44.34093" lon="4.02993">
        <ele>388</ele>
        <time>2013-04-03T13:51:18Z</time>
      </trkpt>
      <trkpt lat="44.34091" lon="4.02993">
        <ele>389</ele>
        <time>2013-04-03T13:51:20Z</time>
      </trkpt>
      <trkpt lat="44.34089" lon="4.02991">
        <ele>389</ele>
        <time>2013-04-03T13:51:22Z</time>
      </trkpt>
      <trkpt lat="44.34087" lon="4.02989">
        <ele>389</ele>
        <time>2013-04-03T13:51:24Z</time>
      </trkpt>
      <trkpt lat="44.34086" lon="4.02987">
        <ele>389</ele>
        <time>2013-04-03T13:51:26Z</time>
      </trkpt>
      <trkpt lat="44.34085" lon="4.02987">
        <ele>390</ele>
        <time>2013-04-03T13:51:28Z</time>
      </trkpt>
      <trkpt lat="44.34084" lon="4.02986">
        <ele>390</ele>
        <time>2013-04-03T13:51:30Z</time>
      </trkpt>
      <trkpt lat="44.34082" lon="4.02984">
        <ele>391</ele>
        <time>2013-04-03T13:51:32Z</time>
      </trkpt>
      <trkpt lat="44.34081" lon="4.02982">
        <ele>391</ele>
        <time>2013-04-03T13:51:34Z</time>
      </trkpt>
      <trkpt lat="44.34079" lon="4.0298">
        <ele>391</ele>
        <time>2013-04-03T13:51:36Z</time>
      </trkpt>
      <trkpt lat="44.34079" lon="4.02979">
        <ele>391</ele>
        <time>2013-04-03T13:51:38Z</time>
      </trkpt>
      <trkpt lat="44.34078" lon="4.02979">
        <ele>391</ele>
        <time>2013-04-03T13:51:40Z</time>
      </trkpt>
      <trkpt lat="44.34078" lon="4.02978">
        <ele>391</ele>
        <time>2013-04-03T13:51:42Z</time>
      </trkpt>
      <trkpt lat="44.34078" lon="4.02977">
        <ele>391</ele>
        <time>2013-04-03T13:51:44Z</time>
      </trkpt>
      <trkpt lat="44.34076" lon="4.02975">
        <ele>391</ele>
        <time>2013-04-03T13:51:46Z</time>
      </trkpt>
      <trkpt lat="44.34074" lon="4.02973">
        <ele>391</ele>
        <time>2013-04-03T13:51:48Z</time>
      </trkpt>
      <trkpt lat="44.34072" lon="4.02971">
        <ele>391</ele>
        <time>2013-04-03T13:51:50Z</time>
      </trkpt>
      <trkpt lat="44.34072" lon="4.02971">
        <ele>391</ele>
        <time>2013-04-03T13:51:52Z</time>
      </trkpt>
      <trkpt lat="44.34072" lon="4.02971">
        <ele>391</ele>
        <time>2013-04-03T13:51:54Z</time>
      </trkpt>
      <trkpt lat="44.3407" lon="4.0297">
        <ele>391</ele>
        <time>2013-04-03T13:51:56Z</time>
      </trkpt>
      <trkpt lat="44.34068" lon="4.02968">
        <ele>391</ele>
        <time>2013-04-03T13:51:58Z</time>
      </trkpt>
      <trkpt lat="44.34067" lon="4.02966">
        <ele>391</ele>
        <time>2013-04-03T13:52:00Z</time>
      </trkpt>
      <trkpt lat="44.34065" lon="4.02964">
        <ele>391</ele>
        <time>2013-04-03T13:52:02Z</time>
      </trkpt>
      <trkpt lat="44.34064" lon="4.02964">
        <ele>391</ele>
        <time>2013-04-03T13:52:03Z</time>
      </trkpt>
      <trkpt lat="44.34063" lon="4.02963">
        <ele>391</ele>
        <time>2013-04-03T13:52:06Z</time>
      </trkpt>
      <trkpt lat="44.34062" lon="4.02962">
        <ele>391</ele>
        <time>2013-04-03T13:52:08Z</time>
      </trkpt>
      <trkpt lat="44.3406" lon="4.02961">
        <ele>391</ele>
        <time>2013-04-03T13:52:10Z</time>
      </trkpt>
      <trkpt lat="44.3406" lon="4.0296">
        <ele>391</ele>
        <time>2013-04-03T13:52:12Z</time>
      </trkpt>
      <trkpt lat="44.3406" lon="4.0296">
        <ele>391</ele>
        <time>2013-04-03T13:52:14Z</time>
      </trkpt>
      <trkpt lat="44.3406" lon="4.0296">
        <ele>391</ele>
        <time>2013-04-03T13:52:16Z</time>
      </trkpt>
      <trkpt lat="44.3406" lon="4.0296">
        <ele>391</ele>
        <time>2013-04-03T13:52:18Z</time>
      </trkpt>
      <trkpt lat="44.3406" lon="4.0296">
        <ele>391</ele>
        <time>2013-04-03T13:52:20Z</time>
      </trkpt>
      <trkpt lat="44.3406" lon="4.0296">
        <ele>391</ele>
        <time>2013-04-03T13:52:22Z</time>
      </trkpt>
      <trkpt lat="44.3406" lon="4.0296">
        <ele>391</ele>
        <time>2013-04-03T13:52:24Z</time>
      </trkpt>
      <trkpt lat="44.3406" lon="4.0296">
        <ele>391</ele>
        <time>2013-04-03T13:52:26Z</time>
      </trkpt>
      <trkpt lat="44.3406" lon="4.0296">
        <ele>391</ele>
        <time>2013-04-03T13:52:28Z</time>
      </trkpt>
      <trkpt lat="44.3406" lon="4.02959">
        <ele>391</ele>
        <time>2013-04-03T13:52:30Z</time>
      </trkpt>
      <trkpt lat="44.3406" lon="4.02959">
        <ele>391</ele>
        <time>2013-04-03T13:52:32Z</time>
      </trkpt>
      <trkpt lat="44.3406" lon="4.02959">
        <ele>391</ele>
        <time>2013-04-03T13:52:34Z</time>
      </trkpt>
      <trkpt lat="44.3406" lon="4.02959">
        <ele>391</ele>
        <time>2013-04-03T13:52:36Z</time>
      </trkpt>
      <trkpt lat="44.3406" lon="4.02959">
        <ele>391</ele>
        <time>2013-04-03T13:52:38Z</time>
      </trkpt>
      <trkpt lat="44.3406" lon="4.02959">
        <ele>391</ele>
        <time>2013-04-03T13:52:40Z</time>
      </trkpt>
      <trkpt lat="44.3406" lon="4.02959">
        <ele>391</ele>
        <time>2013-04-03T13:52:42Z</time>
      </trkpt>
      <trkpt lat="44.3406" lon="4.02959">
        <ele>391</ele>
        <time>2013-04-03T13:52:44Z</time>
      </trkpt>
      <trkpt lat="44.3406" lon="4.02959">
        <ele>392</ele>
        <time>2013-04-03T13:52:46Z</time>
      </trkpt>
      <trkpt lat="44.3406" lon="4.02959">
        <ele>392</ele>
        <time>2013-04-03T13:52:48Z</time>
      </trkpt>
      <trkpt lat="44.3406" lon="4.02959">
        <ele>392</ele>
        <time>2013-04-03T13:52:50Z</time>
      </trkpt>
      <trkpt lat="44.3406" lon="4.02959">
        <ele>392</ele>
        <time>2013-04-03T13:52:52Z</time>
      </trkpt>
      <trkpt lat="44.3406" lon="4.02959">
        <ele>392</ele>
        <time>2013-04-03T13:52:54Z</time>
      </trkpt>
      <trkpt lat="44.3406" lon="4.02959">
        <ele>392</ele>
        <time>2013-04-03T13:52:56Z</time>
      </trkpt>
      <trkpt lat="44.3406" lon="4.02959">
        <ele>392</ele>
        <time>2013-04-03T13:52:58Z</time>
      </trkpt>
      <trkpt lat="44.3406" lon="4.02959">
        <ele>392</ele>
        <time>2013-04-03T13:53:00Z</time>
      </trkpt>
      <trkpt lat="44.3406" lon="4.02959">
        <ele>392</ele>
        <time>2013-04-03T13:53:02Z</time>
      </trkpt>
      <trkpt lat="44.3406" lon="4.02959">
        <ele>392</ele>
        <time>2013-04-03T13:53:04Z</time>
      </trkpt>
      <trkpt lat="44.3406" lon="4.02959">
        <ele>392</ele>
        <time>2013-04-03T13:53:05Z</time>
      </trkpt>
      <trkpt lat="44.3406" lon="4.02959">
        <ele>392</ele>
        <time>2013-04-03T13:53:08Z</time>
      </trkpt>
      <trkpt lat="44.3406" lon="4.02959">
        <ele>392</ele>
        <time>2013-04-03T13:53:10Z</time>
      </trkpt>
      <trkpt lat="44.3406" lon="4.02959">
        <ele>392</ele>
        <time>2013-04-03T13:53:12Z</time>
      </trkpt>
      <trkpt lat="44.3406" lon="4.02959">
        <ele>392</ele>
        <time>2013-04-03T13:53:14Z</time>
      </trkpt>
      <trkpt lat="44.3406" lon="4.02959">
        <ele>392</ele>
        <time>2013-04-03T13:53:16Z</time>
      </trkpt>
      <trkpt lat="44.3406" lon="4.02959">
        <ele>392</ele>
        <time>2013-04-03T13:53:18Z</time>
      </trkpt>
      <trkpt lat="44.3406" lon="4.02959">
        <ele>392</ele>
        <time>2013-04-03T13:53:20Z</time>
      </trkpt>
      <trkpt lat="44.3406" lon="4.02959">
        <ele>392</ele>
        <time>2013-04-03T13:53:22Z</time>
      </trkpt>
      <trkpt lat="44.3406" lon="4.02959">
        <ele>392</ele>
        <time>2013-04-03T13:53:24Z</time>
      </trkpt>
      <trkpt lat="44.3406" lon="4.02959">
        <ele>392</ele>
        <time>2013-04-03T13:53:26Z</time>
      </trkpt>
      <trkpt lat="44.3406" lon="4.02959">
        <ele>392</ele>
        <time>2013-04-03T13:53:28Z</time>
      </trkpt>
      <trkpt lat="44.3406" lon="4.02959">
        <ele>392</ele>
        <time>2013-04-03T13:53:30Z</time>
      </trkpt>
      <trkpt lat="44.3406" lon="4.02959">
        <ele>392</ele>
        <time>2013-04-03T13:53:32Z</time>
      </trkpt>
      <trkpt lat="44.3406" lon="4.02959">
        <ele>391</ele>
        <time>2013-04-03T13:53:34Z</time>
      </trkpt>
      <trkpt lat="44.3406" lon="4.02959">
        <ele>391</ele>
        <time>2013-04-03T13:53:36Z</time>
      </trkpt>
      <trkpt lat="44.3406" lon="4.02959">
        <ele>391</ele>
        <time>2013-04-03T13:53:38Z</time>
      </trkpt>
      <trkpt lat="44.3406" lon="4.02959">
        <ele>391</ele>
        <time>2013-04-03T13:53:40Z</time>
      </trkpt>
      <trkpt lat="44.3406" lon="4.02959">
        <ele>391</ele>
        <time>2013-04-03T13:53:42Z</time>
      </trkpt>
      <trkpt lat="44.3406" lon="4.02959">
        <ele>391</ele>
        <time>2013-04-03T13:53:44Z</time>
      </trkpt>
      <trkpt lat="44.3406" lon="4.02959">
        <ele>391</ele>
        <time>2013-04-03T13:53:46Z</time>
      </trkpt>
      <trkpt lat="44.3406" lon="4.02959">
        <ele>391</ele>
        <time>2013-04-03T13:53:48Z</time>
      </trkpt>
      <trkpt lat="44.3406" lon="4.02959">
        <ele>391</ele>
        <time>2013-04-03T13:53:50Z</time>
      </trkpt>
      <trkpt lat="44.3406" lon="4.02959">
        <ele>391</ele>
        <time>2013-04-03T13:53:52Z</time>
      </trkpt>
      <trkpt lat="44.3406" lon="4.02959">
        <ele>391</ele>
        <time>2013-04-03T13:53:54Z</time>
      </trkpt>
      <trkpt lat="44.3406" lon="4.02959">
        <ele>391</ele>
        <time>2013-04-03T13:53:56Z</time>
      </trkpt>
      <trkpt lat="44.3406" lon="4.02959">
        <ele>391</ele>
        <time>2013-04-03T13:53:58Z</time>
      </trkpt>
      <trkpt lat="44.3406" lon="4.02959">
        <ele>391</ele>
        <time>2013-04-03T13:54:00Z</time>
      </trkpt>
      <trkpt lat="44.3406" lon="4.02959">
        <ele>391</ele>
        <time>2013-04-03T13:54:02Z</time>
      </trkpt>
      <trkpt lat="44.3406" lon="4.02959">
        <ele>391</ele>
        <time>2013-04-03T13:54:04Z</time>
      </trkpt>
      <trkpt lat="44.3406" lon="4.02959">
        <ele>391</ele>
        <time>2013-04-03T13:54:06Z</time>
      </trkpt>
      <trkpt lat="44.3406" lon="4.02959">
        <ele>391</ele>
        <time>2013-04-03T13:54:07Z</time>
      </trkpt>
      <trkpt lat="44.3406" lon="4.02959">
        <ele>391</ele>
        <time>2013-04-03T13:54:10Z</time>
      </trkpt>
      <trkpt lat="44.3406" lon="4.02959">
        <ele>391</ele>
        <time>2013-04-03T13:54:12Z</time>
      </trkpt>
      <trkpt lat="44.3406" lon="4.02959">
        <ele>391</ele>
        <time>2013-04-03T13:54:14Z</time>
      </trkpt>
      <trkpt lat="44.3406" lon="4.02959">
        <ele>391</ele>
        <time>2013-04-03T13:54:16Z</time>
      </trkpt>
      <trkpt lat="44.3406" lon="4.02959">
        <ele>391</ele>
        <time>2013-04-03T13:54:18Z</time>
      </trkpt>
      <trkpt lat="44.3406" lon="4.02959">
        <ele>391</ele>
        <time>2013-04-03T13:54:20Z</time>
      </trkpt>
      <trkpt lat="44.3406" lon="4.02959">
        <ele>391</ele>
        <time>2013-04-03T13:54:22Z</time>
      </trkpt>
      <trkpt lat="44.3406" lon="4.02959">
        <ele>391</ele>
        <time>2013-04-03T13:54:24Z</time>
      </trkpt>
      <trkpt lat="44.3406" lon="4.02959">
        <ele>391</ele>
        <time>2013-04-03T13:54:26Z</time>
      </trkpt>
      <trkpt lat="44.3406" lon="4.02959">
        <ele>391</ele>
        <time>2013-04-03T13:54:28Z</time>
      </trkpt>
      <trkpt lat="44.3406" lon="4.02959">
        <ele>391</ele>
        <time>2013-04-03T13:54:30Z</time>
      </trkpt>
      <trkpt lat="44.3406" lon="4.02959">
        <ele>391</ele>
        <time>2013-04-03T13:54:32Z</time>
      </trkpt>
      <trkpt lat="44.3406" lon="4.02959">
        <ele>391</ele>
        <time>2013-04-03T13:54:34Z</time>
      </trkpt>
      <trkpt lat="44.3406" lon="4.02959">
        <ele>391</ele>
        <time>2013-04-03T13:54:36Z</time>
      </trkpt>
      <trkpt lat="44.34059" lon="4.02959">
        <ele>391</ele>
        <time>2013-04-03T13:54:38Z</time>
      </trkpt>
      <trkpt lat="44.34059" lon="4.02959">
        <ele>391</ele>
        <time>2013-04-03T13:54:40Z</time>
      </trkpt>
      <trkpt lat="44.34059" lon="4.02959">
        <ele>391</ele>
        <time>2013-04-03T13:54:42Z</time>
      </trkpt>
      <trkpt lat="44.34059" lon="4.02959">
        <ele>391</ele>
        <time>2013-04-03T13:54:44Z</time>
      </trkpt>
      <trkpt lat="44.34059" lon="4.02959">
        <ele>391</ele>
        <time>2013-04-03T13:54:46Z</time>
      </trkpt>
      <trkpt lat="44.34059" lon="4.02959">
        <ele>391</ele>
        <time>2013-04-03T13:54:48Z</time>
      </trkpt>
      <trkpt lat="44.34059" lon="4.02959">
        <ele>392</ele>
        <time>2013-04-03T13:54:50Z</time>
      </trkpt>
      <trkpt lat="44.34059" lon="4.02959">
        <ele>392</ele>
        <time>2013-04-03T13:54:52Z</time>
      </trkpt>
      <trkpt lat="44.34059" lon="4.02959">
        <ele>392</ele>
        <time>2013-04-03T13:54:54Z</time>
      </trkpt>
      <trkpt lat="44.34059" lon="4.02959">
        <ele>392</ele>
        <time>2013-04-03T13:54:56Z</time>
      </trkpt>
      <trkpt lat="44.34059" lon="4.02959">
        <ele>392</ele>
        <time>2013-04-03T13:54:58Z</time>
      </trkpt>
      <trkpt lat="44.34059" lon="4.02959">
        <ele>392</ele>
        <time>2013-04-03T13:55:00Z</time>
      </trkpt>
      <trkpt lat="44.34059" lon="4.02959">
        <ele>392</ele>
        <time>2013-04-03T13:55:02Z</time>
      </trkpt>
      <trkpt lat="44.34059" lon="4.02959">
        <ele>392</ele>
        <time>2013-04-03T13:55:04Z</time>
      </trkpt>
      <trkpt lat="44.34059" lon="4.02959">
        <ele>392</ele>
        <time>2013-04-03T13:55:06Z</time>
      </trkpt>
      <trkpt lat="44.34059" lon="4.02959">
        <ele>392</ele>
        <time>2013-04-03T13:55:08Z</time>
      </trkpt>
      <trkpt lat="44.34059" lon="4.02959">
        <ele>392</ele>
        <time>2013-04-03T13:55:09Z</time>
      </trkpt>
      <trkpt lat="44.34059" lon="4.02959">
        <ele>392</ele>
        <time>2013-04-03T13:55:12Z</time>
      </trkpt>
      <trkpt lat="44.34059" lon="4.02959">
        <ele>392</ele>
        <time>2013-04-03T13:55:14Z</time>
      </trkpt>
      <trkpt lat="44.34059" lon="4.02959">
        <ele>392</ele>
        <time>2013-04-03T13:55:16Z</time>
      </trkpt>
      <trkpt lat="44.34059" lon="4.02959">
        <ele>392</ele>
        <time>2013-04-03T13:55:18Z</time>
      </trkpt>
      <trkpt lat="44.34059" lon="4.02959">
        <ele>392</ele>
        <time>2013-04-03T13:55:20Z</time>
      </trkpt>
      <trkpt lat="44.34059" lon="4.02959">
        <ele>392</ele>
        <time>2013-04-03T13:55:22Z</time>
      </trkpt>
      <trkpt lat="44.34059" lon="4.02959">
        <ele>392</ele>
        <time>2013-04-03T13:55:24Z</time>
      </trkpt>
      <trkpt lat="44.34059" lon="4.02959">
        <ele>392</ele>
        <time>2013-04-03T13:55:26Z</time>
      </trkpt>
      <trkpt lat="44.34059" lon="4.02959">
        <ele>392</ele>
        <time>2013-04-03T13:55:28Z</time>
      </trkpt>
      <trkpt lat="44.34059" lon="4.02959">
        <ele>392</ele>
        <time>2013-04-03T13:55:30Z</time>
      </trkpt>
      <trkpt lat="44.34059" lon="4.02959">
        <ele>392</ele>
        <time>2013-04-03T13:55:32Z</time>
      </trkpt>
      <trkpt lat="44.34059" lon="4.02959">
        <ele>392</ele>
        <time>2013-04-03T13:55:34Z</time>
      </trkpt>
      <trkpt lat="44.34059" lon="4.02959">
        <ele>392</ele>
        <time>2013-04-03T13:55:36Z</time>
      </trkpt>
      <trkpt lat="44.34059" lon="4.02959">
        <ele>392</ele>
        <time>2013-04-03T13:55:38Z</time>
      </trkpt>
      <trkpt lat="44.34059" lon="4.02959">
        <ele>392</ele>
        <time>2013-04-03T13:55:40Z</time>
      </trkpt>
      <trkpt lat="44.34059" lon="4.02959">
        <ele>392</ele>
        <time>2013-04-03T13:55:42Z</time>
      </trkpt>
      <trkpt lat="44.34059" lon="4.02959">
        <ele>392</ele>
        <time>2013-04-03T13:55:44Z</time>
      </trkpt>
      <trkpt lat="44.34059" lon="4.02959">
        <ele>392</ele>
        <time>2013-04-03T13:55:46Z</time>
      </trkpt>
      <trkpt lat="44.34059" lon="4.02959">
        <ele>392</ele>
        <time>2013-04-03T13:55:48Z</time>
      </trkpt>
      <trkpt lat="44.34058" lon="4.02958">
        <ele>392</ele>
        <time>2013-04-03T13:55:50Z</time>
      </trkpt>
      <trkpt lat="44.34058" lon="4.02958">
        <ele>392</ele>
        <time>2013-04-03T13:55:52Z</time>
      </trkpt>
      <trkpt lat="44.34058" lon="4.02958">
        <ele>392</ele>
        <time>2013-04-03T13:55:54Z</time>
      </trkpt>
      <trkpt lat="44.34058" lon="4.02958">
        <ele>392</ele>
        <time>2013-04-03T13:55:56Z</time>
      </trkpt>
      <trkpt lat="44.34058" lon="4.02958">
        <ele>392</ele>
        <time>2013-04-03T13:55:58Z</time>
      </trkpt>
      <trkpt lat="44.34058" lon="4.02958">
        <ele>392</ele>
        <time>2013-04-03T13:56:00Z</time>
      </trkpt>
      <trkpt lat="44.34058" lon="4.02958">
        <ele>392</ele>
        <time>2013-04-03T13:56:02Z</time>
      </trkpt>
      <trkpt lat="44.34058" lon="4.02958">
        <ele>392</ele>
        <time>2013-04-03T13:56:04Z</time>
      </trkpt>
      <trkpt lat="44.34058" lon="4.02958">
        <ele>392</ele>
        <time>2013-04-03T13:56:06Z</time>
      </trkpt>
      <trkpt lat="44.34058" lon="4.02958">
        <ele>392</ele>
        <time>2013-04-03T13:56:08Z</time>
      </trkpt>
      <trkpt lat="44.34058" lon="4.02958">
        <ele>392</ele>
        <time>2013-04-03T13:56:10Z</time>
      </trkpt>
      <trkpt lat="44.34058" lon="4.02958">
        <ele>392</ele>
        <time>2013-04-03T13:56:11Z</time>
      </trkpt>
      <trkpt lat="44.34058" lon="4.02958">
        <ele>392</ele>
        <time>2013-04-03T13:56:14Z</time>
      </trkpt>
      <trkpt lat="44.34058" lon="4.02958">
        <ele>392</ele>
        <time>2013-04-03T13:56:16Z</time>
      </trkpt>
      <trkpt lat="44.34058" lon="4.02958">
        <ele>392</ele>
        <time>2013-04-03T13:56:18Z</time>
      </trkpt>
      <trkpt lat="44.34058" lon="4.02958">
        <ele>392</ele>
        <time>2013-04-03T13:56:20Z</time>
      </trkpt>
      <trkpt lat="44.34058" lon="4.02958">
        <ele>392</ele>
        <time>2013-04-03T13:56:22Z</time>
      </trkpt>
      <trkpt lat="44.34058" lon="4.02958">
        <ele>392</ele>
        <time>2013-04-03T13:56:24Z</time>
      </trkpt>
      <trkpt lat="44.34058" lon="4.02958">
        <ele>392</ele>
        <time>2013-04-03T13:56:26Z</time>
      </trkpt>
      <trkpt lat="44.34058" lon="4.02958">
        <ele>392</ele>
        <time>2013-04-03T13:56:28Z</time>
      </trkpt>
      <trkpt lat="44.34058" lon="4.02958">
        <ele>392</ele>
        <time>2013-04-03T13:56:30Z</time>
      </trkpt>
      <trkpt lat="44.34058" lon="4.02958">
        <ele>392</ele>
        <time>2013-04-03T13:56:32Z</time>
      </trkpt>
      <trkpt lat="44.34058" lon="4.02959">
        <ele>392</ele>
        <time>2013-04-03T13:56:34Z</time>
      </trkpt>
      <trkpt lat="44.34059" lon="4.02959">
        <ele>392</ele>
        <time>2013-04-03T13:56:36Z</time>
      </trkpt>
      <trkpt lat="44.34059" lon="4.02959">
        <ele>392</ele>
        <time>2013-04-03T13:56:38Z</time>
      </trkpt>
      <trkpt lat="44.34059" lon="4.02959">
        <ele>392</ele>
        <time>2013-04-03T13:56:40Z</time>
      </trkpt>
      <trkpt lat="44.34059" lon="4.02959">
        <ele>392</ele>
        <time>2013-04-03T13:56:42Z</time>
      </trkpt>
      <trkpt lat="44.34058" lon="4.02957">
        <ele>392</ele>
        <time>2013-04-03T13:56:44Z</time>
      </trkpt>
      <trkpt lat="44.34056" lon="4.02955">
        <ele>393</ele>
        <time>2013-04-03T13:56:46Z</time>
      </trkpt>
      <trkpt lat="44.34054" lon="4.02953">
        <ele>393</ele>
        <time>2013-04-03T13:56:48Z</time>
      </trkpt>
      <trkpt lat="44.34053" lon="4.02951">
        <ele>394</ele>
        <time>2013-04-03T13:56:50Z</time>
      </trkpt>
      <trkpt lat="44.34052" lon="4.0295">
        <ele>394</ele>
        <time>2013-04-03T13:56:52Z</time>
      </trkpt>
      <trkpt lat="44.34051" lon="4.02949">
        <ele>394</ele>
        <time>2013-04-03T13:56:54Z</time>
      </trkpt>
      <trkpt lat="44.34049" lon="4.02949">
        <ele>395</ele>
        <time>2013-04-03T13:56:56Z</time>
      </trkpt>
      <trkpt lat="44.34047" lon="4.02949">
        <ele>395</ele>
        <time>2013-04-03T13:56:58Z</time>
      </trkpt>
      <trkpt lat="44.34045" lon="4.02949">
        <ele>395</ele>
        <time>2013-04-03T13:57:00Z</time>
      </trkpt>
      <trkpt lat="44.34043" lon="4.02949">
        <ele>396</ele>
        <time>2013-04-03T13:57:02Z</time>
      </trkpt>
      <trkpt lat="44.34041" lon="4.0295">
        <ele>396</ele>
        <time>2013-04-03T13:57:04Z</time>
      </trkpt>
      <trkpt lat="44.34039" lon="4.0295">
        <ele>396</ele>
        <time>2013-04-03T13:57:06Z</time>
      </trkpt>
      <trkpt lat="44.34037" lon="4.0295">
        <ele>396</ele>
        <time>2013-04-03T13:57:08Z</time>
      </trkpt>
      <trkpt lat="44.34036" lon="4.02951">
        <ele>396</ele>
        <time>2013-04-03T13:57:10Z</time>
      </trkpt>
      <trkpt lat="44.34034" lon="4.02952">
        <ele>396</ele>
        <time>2013-04-03T13:57:12Z</time>
      </trkpt>
      <trkpt lat="44.34033" lon="4.02952">
        <ele>397</ele>
        <time>2013-04-03T13:57:13Z</time>
      </trkpt>
      <trkpt lat="44.3403" lon="4.02952">
        <ele>397</ele>
        <time>2013-04-03T13:57:16Z</time>
      </trkpt>
      <trkpt lat="44.34028" lon="4.02952">
        <ele>397</ele>
        <time>2013-04-03T13:57:18Z</time>
      </trkpt>
      <trkpt lat="44.34026" lon="4.02952">
        <ele>398</ele>
        <time>2013-04-03T13:57:20Z</time>
      </trkpt>
      <trkpt lat="44.34024" lon="4.02952">
        <ele>398</ele>
        <time>2013-04-03T13:57:22Z</time>
      </trkpt>
      <trkpt lat="44.34022" lon="4.02951">
        <ele>398</ele>
        <time>2013-04-03T13:57:24Z</time>
      </trkpt>
      <trkpt lat="44.3402" lon="4.02951">
        <ele>399</ele>
        <time>2013-04-03T13:57:26Z</time>
      </trkpt>
      <trkpt lat="44.34018" lon="4.02951">
        <ele>399</ele>
        <time>2013-04-03T13:57:28Z</time>
      </trkpt>
      <trkpt lat="44.34017" lon="4.02951">
        <ele>399</ele>
        <time>2013-04-03T13:57:30Z</time>
      </trkpt>
      <trkpt lat="44.34015" lon="4.02951">
        <ele>399</ele>
        <time>2013-04-03T13:57:32Z</time>
      </trkpt>
      <trkpt lat="44.34012" lon="4.02951">
        <ele>399</ele>
        <time>2013-04-03T13:57:34Z</time>
      </trkpt>
      <trkpt lat="44.34009" lon="4.02951">
        <ele>400</ele>
        <time>2013-04-03T13:57:36Z</time>
      </trkpt>
      <trkpt lat="44.34008" lon="4.02951">
        <ele>400</ele>
        <time>2013-04-03T13:57:38Z</time>
      </trkpt>
      <trkpt lat="44.34008" lon="4.02951">
        <ele>400</ele>
        <time>2013-04-03T13:57:40Z</time>
      </trkpt>
      <trkpt lat="44.34008" lon="4.02951">
        <ele>400</ele>
        <time>2013-04-03T13:57:42Z</time>
      </trkpt>
      <trkpt lat="44.34008" lon="4.02951">
        <ele>400</ele>
        <time>2013-04-03T13:57:44Z</time>
      </trkpt>
      <trkpt lat="44.34008" lon="4.02951">
        <ele>400</ele>
        <time>2013-04-03T13:57:46Z</time>
      </trkpt>
      <trkpt lat="44.34008" lon="4.02951">
        <ele>400</ele>
        <time>2013-04-03T13:57:48Z</time>
      </trkpt>
      <trkpt lat="44.34008" lon="4.02951">
        <ele>400</ele>
        <time>2013-04-03T13:57:50Z</time>
      </trkpt>
      <trkpt lat="44.34008" lon="4.02951">
        <ele>400</ele>
        <time>2013-04-03T13:57:52Z</time>
      </trkpt>
      <trkpt lat="44.34007" lon="4.0295">
        <ele>399</ele>
        <time>2013-04-03T13:57:54Z</time>
      </trkpt>
      <trkpt lat="44.34005" lon="4.02949">
        <ele>400</ele>
        <time>2013-04-03T13:57:56Z</time>
      </trkpt>
      <trkpt lat="44.34003" lon="4.02948">
        <ele>400</ele>
        <time>2013-04-03T13:57:58Z</time>
      </trkpt>
      <trkpt lat="44.34001" lon="4.02947">
        <ele>399</ele>
        <time>2013-04-03T13:58:00Z</time>
      </trkpt>
      <trkpt lat="44.33999" lon="4.02945">
        <ele>399</ele>
        <time>2013-04-03T13:58:02Z</time>
      </trkpt>
      <trkpt lat="44.33998" lon="4.02945">
        <ele>399</ele>
        <time>2013-04-03T13:58:04Z</time>
      </trkpt>
      <trkpt lat="44.33997" lon="4.02943">
        <ele>399</ele>
        <time>2013-04-03T13:58:06Z</time>
      </trkpt>
      <trkpt lat="44.33995" lon="4.02942">
        <ele>399</ele>
        <time>2013-04-03T13:58:08Z</time>
      </trkpt>
      <trkpt lat="44.33992" lon="4.02942">
        <ele>400</ele>
        <time>2013-04-03T13:58:10Z</time>
      </trkpt>
      <trkpt lat="44.3399" lon="4.02941">
        <ele>400</ele>
        <time>2013-04-03T13:58:12Z</time>
      </trkpt>
      <trkpt lat="44.33987" lon="4.02939">
        <ele>399</ele>
        <time>2013-04-03T13:58:14Z</time>
      </trkpt>
      <trkpt lat="44.33986" lon="4.02938">
        <ele>399</ele>
        <time>2013-04-03T13:58:15Z</time>
      </trkpt>
      <trkpt lat="44.33983" lon="4.02937">
        <ele>400</ele>
        <time>2013-04-03T13:58:18Z</time>
      </trkpt>
      <trkpt lat="44.33981" lon="4.02936">
        <ele>400</ele>
        <time>2013-04-03T13:58:20Z</time>
      </trkpt>
      <trkpt lat="44.3398" lon="4.02935">
        <ele>400</ele>
        <time>2013-04-03T13:58:22Z</time>
      </trkpt>
      <trkpt lat="44.33978" lon="4.02934">
        <ele>400</ele>
        <time>2013-04-03T13:58:24Z</time>
      </trkpt>
      <trkpt lat="44.33976" lon="4.02933">
        <ele>400</ele>
        <time>2013-04-03T13:58:26Z</time>
      </trkpt>
      <trkpt lat="44.33974" lon="4.02932">
        <ele>400</ele>
        <time>2013-04-03T13:58:28Z</time>
      </trkpt>
      <trkpt lat="44.33973" lon="4.02931">
        <ele>400</ele>
        <time>2013-04-03T13:58:30Z</time>
      </trkpt>
      <trkpt lat="44.33972" lon="4.02931">
        <ele>400</ele>
        <time>2013-04-03T13:58:32Z</time>
      </trkpt>
      <trkpt lat="44.33971" lon="4.0293">
        <ele>400</ele>
        <time>2013-04-03T13:58:34Z</time>
      </trkpt>
      <trkpt lat="44.3397" lon="4.02928">
        <ele>401</ele>
        <time>2013-04-03T13:58:36Z</time>
      </trkpt>
      <trkpt lat="44.33969" lon="4.02928">
        <ele>401</ele>
        <time>2013-04-03T13:58:38Z</time>
      </trkpt>
      <trkpt lat="44.33969" lon="4.02927">
        <ele>401</ele>
        <time>2013-04-03T13:58:40Z</time>
      </trkpt>
      <trkpt lat="44.33969" lon="4.02927">
        <ele>401</ele>
        <time>2013-04-03T13:58:42Z</time>
      </trkpt>
      <trkpt lat="44.33969" lon="4.02927">
        <ele>401</ele>
        <time>2013-04-03T13:58:44Z</time>
      </trkpt>
      <trkpt lat="44.33969" lon="4.02927">
        <ele>401</ele>
        <time>2013-04-03T13:58:46Z</time>
      </trkpt>
      <trkpt lat="44.33969" lon="4.02927">
        <ele>401</ele>
        <time>2013-04-03T13:58:48Z</time>
      </trkpt>
      <trkpt lat="44.33969" lon="4.02925">
        <ele>400</ele>
        <time>2013-04-03T13:58:50Z</time>
      </trkpt>
      <trkpt lat="44.33968" lon="4.02923">
        <ele>400</ele>
        <time>2013-04-03T13:58:52Z</time>
      </trkpt>
      <trkpt lat="44.33968" lon="4.02921">
        <ele>400</ele>
        <time>2013-04-03T13:58:54Z</time>
      </trkpt>
      <trkpt lat="44.33968" lon="4.02919">
        <ele>400</ele>
        <time>2013-04-03T13:58:56Z</time>
      </trkpt>
      <trkpt lat="44.33968" lon="4.02919">
        <ele>400</ele>
        <time>2013-04-03T13:58:58Z</time>
      </trkpt>
      <trkpt lat="44.33969" lon="4.02918">
        <ele>400</ele>
        <time>2013-04-03T13:59:00Z</time>
      </trkpt>
      <trkpt lat="44.33969" lon="4.02917">
        <ele>400</ele>
        <time>2013-04-03T13:59:02Z</time>
      </trkpt>
      <trkpt lat="44.3397" lon="4.02915">
        <ele>400</ele>
        <time>2013-04-03T13:59:04Z</time>
      </trkpt>
      <trkpt lat="44.3397" lon="4.02913">
        <ele>400</ele>
        <time>2013-04-03T13:59:06Z</time>
      </trkpt>
      <trkpt lat="44.33971" lon="4.02911">
        <ele>400</ele>
        <time>2013-04-03T13:59:08Z</time>
      </trkpt>
      <trkpt lat="44.33971" lon="4.02909">
        <ele>399</ele>
        <time>2013-04-03T13:59:10Z</time>
      </trkpt>
      <trkpt lat="44.33971" lon="4.02908">
        <ele>399</ele>
        <time>2013-04-03T13:59:12Z</time>
      </trkpt>
      <trkpt lat="44.3397" lon="4.02907">
        <ele>399</ele>
        <time>2013-04-03T13:59:14Z</time>
      </trkpt>
      <trkpt lat="44.33969" lon="4.02906">
        <ele>399</ele>
        <time>2013-04-03T13:59:16Z</time>
      </trkpt>
      <trkpt lat="44.33969" lon="4.02906">
        <ele>399</ele>
        <time>2013-04-03T13:59:17Z</time>
      </trkpt>
      <trkpt lat="44.33968" lon="4.02906">
        <ele>399</ele>
        <time>2013-04-03T13:59:20Z</time>
      </trkpt>
      <trkpt lat="44.33968" lon="4.02906">
        <ele>399</ele>
        <time>2013-04-03T13:59:22Z</time>
      </trkpt>
      <trkpt lat="44.33966" lon="4.02905">
        <ele>399</ele>
        <time>2013-04-03T13:59:24Z</time>
      </trkpt>
      <trkpt lat="44.33963" lon="4.02905">
        <ele>399</ele>
        <time>2013-04-03T13:59:26Z</time>
      </trkpt>
      <trkpt lat="44.33961" lon="4.02903">
        <ele>399</ele>
        <time>2013-04-03T13:59:28Z</time>
      </trkpt>
      <trkpt lat="44.33959" lon="4.02901">
        <ele>399</ele>
        <time>2013-04-03T13:59:30Z</time>
      </trkpt>
      <trkpt lat="44.33957" lon="4.02899">
        <ele>399</ele>
        <time>2013-04-03T13:59:32Z</time>
      </trkpt>
      <trkpt lat="44.33954" lon="4.02897">
        <ele>399</ele>
        <time>2013-04-03T13:59:34Z</time>
      </trkpt>
      <trkpt lat="44.3395" lon="4.02897">
        <ele>399</ele>
        <time>2013-04-03T13:59:36Z</time>
      </trkpt>
      <trkpt lat="44.33947" lon="4.02896">
        <ele>400</ele>
        <time>2013-04-03T13:59:38Z</time>
      </trkpt>
      <trkpt lat="44.33945" lon="4.02896">
        <ele>400</ele>
        <time>2013-04-03T13:59:40Z</time>
      </trkpt>
      <trkpt lat="44.33943" lon="4.02896">
        <ele>399</ele>
        <time>2013-04-03T13:59:42Z</time>
      </trkpt>
      <trkpt lat="44.33941" lon="4.02896">
        <ele>399</ele>
        <time>2013-04-03T13:59:44Z</time>
      </trkpt>
      <trkpt lat="44.33938" lon="4.02895">
        <ele>398</ele>
        <time>2013-04-03T13:59:46Z</time>
      </trkpt>
      <trkpt lat="44.33935" lon="4.02893">
        <ele>398</ele>
        <time>2013-04-03T13:59:48Z</time>
      </trkpt>
      <trkpt lat="44.33935" lon="4.02893">
        <ele>398</ele>
        <time>2013-04-03T13:59:50Z</time>
      </trkpt>
      <trkpt lat="44.33931" lon="4.02893">
        <ele>398</ele>
        <time>2013-04-03T13:59:52Z</time>
      </trkpt>
      <trkpt lat="44.33928" lon="4.02892">
        <ele>398</ele>
        <time>2013-04-03T13:59:54Z</time>
      </trkpt>
      <trkpt lat="44.33926" lon="4.02892">
        <ele>398</ele>
        <time>2013-04-03T13:59:56Z</time>
      </trkpt>
      <trkpt lat="44.33926" lon="4.02892">
        <ele>398</ele>
        <time>2013-04-03T13:59:58Z</time>
      </trkpt>
      <trkpt lat="44.33926" lon="4.02892">
        <ele>398</ele>
        <time>2013-04-03T14:00:00Z</time>
      </trkpt>
      <trkpt lat="44.33926" lon="4.02892">
        <ele>398</ele>
        <time>2013-04-03T14:00:02Z</time>
      </trkpt>
      <trkpt lat="44.33926" lon="4.02892">
        <ele>398</ele>
        <time>2013-04-03T14:00:04Z</time>
      </trkpt>
      <trkpt lat="44.33926" lon="4.02892">
        <ele>398</ele>
        <time>2013-04-03T14:00:06Z</time>
      </trkpt>
      <trkpt lat="44.33926" lon="4.02892">
        <ele>398</ele>
        <time>2013-04-03T14:00:08Z</time>
      </trkpt>
      <trkpt lat="44.33926" lon="4.02892">
        <ele>398</ele>
        <time>2013-04-03T14:00:10Z</time>
      </trkpt>
      <trkpt lat="44.33926" lon="4.02891">
        <ele>398</ele>
        <time>2013-04-03T14:00:12Z</time>
      </trkpt>
      <trkpt lat="44.33924" lon="4.02889">
        <ele>398</ele>
        <time>2013-04-03T14:00:14Z</time>
      </trkpt>
      <trkpt lat="44.33921" lon="4.02888">
        <ele>398</ele>
        <time>2013-04-03T14:00:16Z</time>
      </trkpt>
      <trkpt lat="44.33919" lon="4.02887">
        <ele>398</ele>
        <time>2013-04-03T14:00:18Z</time>
      </trkpt>
      <trkpt lat="44.33918" lon="4.02886">
        <ele>398</ele>
        <time>2013-04-03T14:00:19Z</time>
      </trkpt>
      <trkpt lat="44.33915" lon="4.02885">
        <ele>398</ele>
        <time>2013-04-03T14:00:22Z</time>
      </trkpt>
      <trkpt lat="44.33913" lon="4.02884">
        <ele>398</ele>
        <time>2013-04-03T14:00:24Z</time>
      </trkpt>
      <trkpt lat="44.3391" lon="4.02884">
        <ele>399</ele>
        <time>2013-04-03T14:00:26Z</time>
      </trkpt>
      <trkpt lat="44.33908" lon="4.02884">
        <ele>400</ele>
        <time>2013-04-03T14:00:28Z</time>
      </trkpt>
      <trkpt lat="44.33907" lon="4.02883">
        <ele>400</ele>
        <time>2013-04-03T14:00:30Z</time>
      </trkpt>
      <trkpt lat="44.33907" lon="4.02883">
        <ele>400</ele>
        <time>2013-04-03T14:00:32Z</time>
      </trkpt>
      <trkpt lat="44.33907" lon="4.02883">
        <ele>400</ele>
        <time>2013-04-03T14:00:34Z</time>
      </trkpt>
      <trkpt lat="44.33907" lon="4.02883">
        <ele>400</ele>
        <time>2013-04-03T14:00:36Z</time>
      </trkpt>
      <trkpt lat="44.33907" lon="4.02883">
        <ele>400</ele>
        <time>2013-04-03T14:00:38Z</time>
      </trkpt>
      <trkpt lat="44.33907" lon="4.02883">
        <ele>400</ele>
        <time>2013-04-03T14:00:40Z</time>
      </trkpt>
      <trkpt lat="44.33907" lon="4.02883">
        <ele>400</ele>
        <time>2013-04-03T14:00:42Z</time>
      </trkpt>
      <trkpt lat="44.33907" lon="4.02883">
        <ele>400</ele>
        <time>2013-04-03T14:00:44Z</time>
      </trkpt>
      <trkpt lat="44.33907" lon="4.02883">
        <ele>400</ele>
        <time>2013-04-03T14:00:46Z</time>
      </trkpt>
      <trkpt lat="44.33907" lon="4.02883">
        <ele>400</ele>
        <time>2013-04-03T14:00:48Z</time>
      </trkpt>
      <trkpt lat="44.33907" lon="4.02883">
        <ele>400</ele>
        <time>2013-04-03T14:00:50Z</time>
      </trkpt>
      <trkpt lat="44.33907" lon="4.02883">
        <ele>400</ele>
        <time>2013-04-03T14:00:52Z</time>
      </trkpt>
      <trkpt lat="44.33907" lon="4.02883">
        <ele>400</ele>
        <time>2013-04-03T14:00:54Z</time>
      </trkpt>
      <trkpt lat="44.33907" lon="4.02883">
        <ele>400</ele>
        <time>2013-04-03T14:00:56Z</time>
      </trkpt>
      <trkpt lat="44.33907" lon="4.02883">
        <ele>400</ele>
        <time>2013-04-03T14:00:58Z</time>
      </trkpt>
      <trkpt lat="44.33907" lon="4.02883">
        <ele>400</ele>
        <time>2013-04-03T14:01:00Z</time>
      </trkpt>
      <trkpt lat="44.33907" lon="4.02883">
        <ele>400</ele>
        <time>2013-04-03T14:01:02Z</time>
      </trkpt>
      <trkpt lat="44.33907" lon="4.02883">
        <ele>400</ele>
        <time>2013-04-03T14:01:04Z</time>
      </trkpt>
      <trkpt lat="44.33907" lon="4.02883">
        <ele>400</ele>
        <time>2013-04-03T14:01:06Z</time>
      </trkpt>
      <trkpt lat="44.33907" lon="4.02883">
        <ele>400</ele>
        <time>2013-04-03T14:01:08Z</time>
      </trkpt>
      <trkpt lat="44.33907" lon="4.02883">
        <ele>400</ele>
        <time>2013-04-03T14:01:10Z</time>
      </trkpt>
      <trkpt lat="44.33907" lon="4.02883">
        <ele>400</ele>
        <time>2013-04-03T14:01:12Z</time>
      </trkpt>
      <trkpt lat="44.33907" lon="4.02883">
        <ele>400</ele>
        <time>2013-04-03T14:01:14Z</time>
      </trkpt>
      <trkpt lat="44.33907" lon="4.02883">
        <ele>400</ele>
        <time>2013-04-03T14:01:16Z</time>
      </trkpt>
      <trkpt lat="44.33907" lon="4.02883">
        <ele>400</ele>
        <time>2013-04-03T14:01:18Z</time>
      </trkpt>
      <trkpt lat="44.33907" lon="4.02883">
        <ele>400</ele>
        <time>2013-04-03T14:01:20Z</time>
      </trkpt>
      <trkpt lat="44.33907" lon="4.02883">
        <ele>400</ele>
        <time>2013-04-03T14:01:21Z</time>
      </trkpt>
      <trkpt lat="44.33907" lon="4.02883">
        <ele>400</ele>
        <time>2013-04-03T14:01:24Z</time>
      </trkpt>
      <trkpt lat="44.33907" lon="4.02883">
        <ele>400</ele>
        <time>2013-04-03T14:01:26Z</time>
      </trkpt>
      <trkpt lat="44.33907" lon="4.02883">
        <ele>400</ele>
        <time>2013-04-03T14:01:28Z</time>
      </trkpt>
      <trkpt lat="44.33907" lon="4.02883">
        <ele>400</ele>
        <time>2013-04-03T14:01:30Z</time>
      </trkpt>
      <trkpt lat="44.33907" lon="4.02883">
        <ele>400</ele>
        <time>2013-04-03T14:01:32Z</time>
      </trkpt>
      <trkpt lat="44.33907" lon="4.02883">
        <ele>400</ele>
        <time>2013-04-03T14:01:34Z</time>
      </trkpt>
      <trkpt lat="44.33907" lon="4.02883">
        <ele>400</ele>
        <time>2013-04-03T14:01:36Z</time>
      </trkpt>
      <trkpt lat="44.33907" lon="4.02883">
        <ele>400</ele>
        <time>2013-04-03T14:01:38Z</time>
      </trkpt>
      <trkpt lat="44.33907" lon="4.02883">
        <ele>400</ele>
        <time>2013-04-03T14:01:40Z</time>
      </trkpt>
      <trkpt lat="44.33907" lon="4.02883">
        <ele>400</ele>
        <time>2013-04-03T14:01:42Z</time>
      </trkpt>
      <trkpt lat="44.33907" lon="4.02883">
        <ele>400</ele>
        <time>2013-04-03T14:01:44Z</time>
      </trkpt>
      <trkpt lat="44.33907" lon="4.02883">
        <ele>400</ele>
        <time>2013-04-03T14:01:46Z</time>
      </trkpt>
      <trkpt lat="44.33907" lon="4.02883">
        <ele>400</ele>
        <time>2013-04-03T14:01:48Z</time>
      </trkpt>
      <trkpt lat="44.33907" lon="4.02883">
        <ele>400</ele>
        <time>2013-04-03T14:01:50Z</time>
      </trkpt>
      <trkpt lat="44.33907" lon="4.02883">
        <ele>400</ele>
        <time>2013-04-03T14:01:52Z</time>
      </trkpt>
      <trkpt lat="44.33907" lon="4.02883">
        <ele>400</ele>
        <time>2013-04-03T14:01:54Z</time>
      </trkpt>
      <trkpt lat="44.33907" lon="4.02883">
        <ele>400</ele>
        <time>2013-04-03T14:01:56Z</time>
      </trkpt>
      <trkpt lat="44.33907" lon="4.02883">
        <ele>400</ele>
        <time>2013-04-03T14:01:58Z</time>
      </trkpt>
      <trkpt lat="44.33907" lon="4.02883">
        <ele>400</ele>
        <time>2013-04-03T14:02:00Z</time>
      </trkpt>
      <trkpt lat="44.33907" lon="4.02883">
        <ele>400</ele>
        <time>2013-04-03T14:02:02Z</time>
      </trkpt>
      <trkpt lat="44.33907" lon="4.02883">
        <ele>400</ele>
        <time>2013-04-03T14:02:04Z</time>
      </trkpt>
      <trkpt lat="44.33907" lon="4.02883">
        <ele>400</ele>
        <time>2013-04-03T14:02:06Z</time>
      </trkpt>
      <trkpt lat="44.33907" lon="4.02883">
        <ele>400</ele>
        <time>2013-04-03T14:02:08Z</time>
      </trkpt>
      <trkpt lat="44.33907" lon="4.02883">
        <ele>400</ele>
        <time>2013-04-03T14:02:10Z</time>
      </trkpt>
      <trkpt lat="44.33907" lon="4.02883">
        <ele>400</ele>
        <time>2013-04-03T14:02:12Z</time>
      </trkpt>
      <trkpt lat="44.33907" lon="4.02883">
        <ele>400</ele>
        <time>2013-04-03T14:02:14Z</time>
      </trkpt>
      <trkpt lat="44.33907" lon="4.02883">
        <ele>400</ele>
        <time>2013-04-03T14:02:16Z</time>
      </trkpt>
      <trkpt lat="44.33907" lon="4.02883">
        <ele>400</ele>
        <time>2013-04-03T14:02:18Z</time>
      </trkpt>
      <trkpt lat="44.33907" lon="4.02883">
        <ele>400</ele>
        <time>2013-04-03T14:02:20Z</time>
      </trkpt>
      <trkpt lat="44.33907" lon="4.02883">
        <ele>400</ele>
        <time>2013-04-03T14:02:22Z</time>
      </trkpt>
      <trkpt lat="44.33907" lon="4.02883">
        <ele>400</ele>
        <time>2013-04-03T14:02:23Z</time>
      </trkpt>
      <trkpt lat="44.33907" lon="4.02883">
        <ele>400</ele>
        <time>2013-04-03T14:02:26Z</time>
      </trkpt>
      <trkpt lat="44.33907" lon="4.02883">
        <ele>400</ele>
        <time>2013-04-03T14:02:28Z</time>
      </trkpt>
      <trkpt lat="44.33907" lon="4.02883">
        <ele>400</ele>
        <time>2013-04-03T14:02:30Z</time>
      </trkpt>
      <trkpt lat="44.33907" lon="4.02883">
        <ele>400</ele>
        <time>2013-04-03T14:02:32Z</time>
      </trkpt>
      <trkpt lat="44.33907" lon="4.02883">
        <ele>400</ele>
        <time>2013-04-03T14:02:34Z</time>
      </trkpt>
      <trkpt lat="44.33907" lon="4.02883">
        <ele>400</ele>
        <time>2013-04-03T14:02:36Z</time>
      </trkpt>
      <trkpt lat="44.33907" lon="4.02883">
        <ele>400</ele>
        <time>2013-04-03T14:02:38Z</time>
      </trkpt>
      <trkpt lat="44.33907" lon="4.02883">
        <ele>400</ele>
        <time>2013-04-03T14:02:40Z</time>
      </trkpt>
      <trkpt lat="44.33907" lon="4.02883">
        <ele>400</ele>
        <time>2013-04-03T14:02:42Z</time>
      </trkpt>
      <trkpt lat="44.33907" lon="4.02883">
        <ele>400</ele>
        <time>2013-04-03T14:02:44Z</time>
      </trkpt>
      <trkpt lat="44.33907" lon="4.02883">
        <ele>400</ele>
        <time>2013-04-03T14:02:46Z</time>
      </trkpt>
      <trkpt lat="44.33907" lon="4.02883">
        <ele>400</ele>
        <time>2013-04-03T14:02:48Z</time>
      </trkpt>
      <trkpt lat="44.33907" lon="4.02883">
        <ele>400</ele>
        <time>2013-04-03T14:02:50Z</time>
      </trkpt>
      <trkpt lat="44.33907" lon="4.02883">
        <ele>400</ele>
        <time>2013-04-03T14:02:52Z</time>
      </trkpt>
      <trkpt lat="44.33907" lon="4.02883">
        <ele>400</ele>
        <time>2013-04-03T14:02:54Z</time>
      </trkpt>
      <trkpt lat="44.33907" lon="4.02883">
        <ele>400</ele>
        <time>2013-04-03T14:02:56Z</time>
      </trkpt>
      <trkpt lat="44.33907" lon="4.02883">
        <ele>400</ele>
        <time>2013-04-03T14:02:58Z</time>
      </trkpt>
      <trkpt lat="44.33907" lon="4.02883">
        <ele>400</ele>
        <time>2013-04-03T14:03:00Z</time>
      </trkpt>
      <trkpt lat="44.33907" lon="4.02883">
        <ele>400</ele>
        <time>2013-04-03T14:03:02Z</time>
      </trkpt>
      <trkpt lat="44.33907" lon="4.02883">
        <ele>400</ele>
        <time>2013-04-03T14:03:04Z</time>
      </trkpt>
      <trkpt lat="44.33907" lon="4.02883">
        <ele>400</ele>
        <time>2013-04-03T14:03:06Z</time>
      </trkpt>
      <trkpt lat="44.33907" lon="4.02883">
        <ele>400</ele>
        <time>2013-04-03T14:03:08Z</time>
      </trkpt>
      <trkpt lat="44.33907" lon="4.02883">
        <ele>400</ele>
        <time>2013-04-03T14:03:10Z</time>
      </trkpt>
      <trkpt lat="44.33907" lon="4.02883">
        <ele>400</ele>
        <time>2013-04-03T14:03:12Z</time>
      </trkpt>
      <trkpt lat="44.33907" lon="4.02883">
        <ele>400</ele>
        <time>2013-04-03T14:03:14Z</time>
      </trkpt>
      <trkpt lat="44.33907" lon="4.02883">
        <ele>400</ele>
        <time>2013-04-03T14:03:16Z</time>
      </trkpt>
      <trkpt lat="44.33907" lon="4.02883">
        <ele>400</ele>
        <time>2013-04-03T14:03:18Z</time>
      </trkpt>
      <trkpt lat="44.33907" lon="4.02883">
        <ele>400</ele>
        <time>2013-04-03T14:03:20Z</time>
      </trkpt>
      <trkpt lat="44.33907" lon="4.02883">
        <ele>400</ele>
        <time>2013-04-03T14:03:22Z</time>
      </trkpt>
      <trkpt lat="44.33907" lon="4.02883">
        <ele>400</ele>
        <time>2013-04-03T14:03:24Z</time>
      </trkpt>
      <trkpt lat="44.33907" lon="4.02883">
        <ele>400</ele>
        <time>2013-04-03T14:03:25Z</time>
      </trkpt>
      <trkpt lat="44.33907" lon="4.02883">
        <ele>400</ele>
        <time>2013-04-03T14:03:28Z</time>
      </trkpt>
      <trkpt lat="44.33907" lon="4.02883">
        <ele>400</ele>
        <time>2013-04-03T14:03:30Z</time>
      </trkpt>
      <trkpt lat="44.33907" lon="4.02883">
        <ele>400</ele>
        <time>2013-04-03T14:03:32Z</time>
      </trkpt>
      <trkpt lat="44.33907" lon="4.02883">
        <ele>400</ele>
        <time>2013-04-03T14:03:34Z</time>
      </trkpt>
      <trkpt lat="44.33907" lon="4.02883">
        <ele>400</ele>
        <time>2013-04-03T14:03:36Z</time>
      </trkpt>
      <trkpt lat="44.33907" lon="4.02883">
        <ele>400</ele>
        <time>2013-04-03T14:03:38Z</time>
      </trkpt>
      <trkpt lat="44.33907" lon="4.02883">
        <ele>400</ele>
        <time>2013-04-03T14:03:40Z</time>
      </trkpt>
      <trkpt lat="44.33907" lon="4.02883">
        <ele>400</ele>
        <time>2013-04-03T14:03:42Z</time>
      </trkpt>
      <trkpt lat="44.33907" lon="4.02883">
        <ele>400</ele>
        <time>2013-04-03T14:03:44Z</time>
      </trkpt>
      <trkpt lat="44.33907" lon="4.02883">
        <ele>400</ele>
        <time>2013-04-03T14:03:46Z</time>
      </trkpt>
      <trkpt lat="44.33907" lon="4.02883">
        <ele>400</ele>
        <time>2013-04-03T14:03:48Z</time>
      </trkpt>
      <trkpt lat="44.33907" lon="4.02883">
        <ele>400</ele>
        <time>2013-04-03T14:03:50Z</time>
      </trkpt>
      <trkpt lat="44.33907" lon="4.02883">
        <ele>400</ele>
        <time>2013-04-03T14:03:52Z</time>
      </trkpt>
      <trkpt lat="44.33907" lon="4.02883">
        <ele>400</ele>
        <time>2013-04-03T14:03:54Z</time>
      </trkpt>
      <trkpt lat="44.33907" lon="4.02883">
        <ele>400</ele>
        <time>2013-04-03T14:03:56Z</time>
      </trkpt>
      <trkpt lat="44.33907" lon="4.02883">
        <ele>400</ele>
        <time>2013-04-03T14:03:58Z</time>
      </trkpt>
      <trkpt lat="44.33907" lon="4.02883">
        <ele>400</ele>
        <time>2013-04-03T14:04:00Z</time>
      </trkpt>
      <trkpt lat="44.33907" lon="4.02883">
        <ele>400</ele>
        <time>2013-04-03T14:04:02Z</time>
      </trkpt>
      <trkpt lat="44.33907" lon="4.02883">
        <ele>400</ele>
        <time>2013-04-03T14:04:04Z</time>
      </trkpt>
      <trkpt lat="44.33907" lon="4.02883">
        <ele>400</ele>
        <time>2013-04-03T14:04:06Z</time>
      </trkpt>
      <trkpt lat="44.33907" lon="4.02883">
        <ele>400</ele>
        <time>2013-04-03T14:04:08Z</time>
      </trkpt>
      <trkpt lat="44.33907" lon="4.02883">
        <ele>400</ele>
        <time>2013-04-03T14:04:10Z</time>
      </trkpt>
      <trkpt lat="44.33907" lon="4.02883">
        <ele>400</ele>
        <time>2013-04-03T14:04:12Z</time>
      </trkpt>
      <trkpt lat="44.33907" lon="4.02883">
        <ele>400</ele>
        <time>2013-04-03T14:04:14Z</time>
      </trkpt>
      <trkpt lat="44.33907" lon="4.02883">
        <ele>400</ele>
        <time>2013-04-03T14:04:16Z</time>
      </trkpt>
      <trkpt lat="44.33907" lon="4.02883">
        <ele>400</ele>
        <time>2013-04-03T14:04:18Z</time>
      </trkpt>
      <trkpt lat="44.33907" lon="4.02883">
        <ele>400</ele>
        <time>2013-04-03T14:04:20Z</time>
      </trkpt>
      <trkpt lat="44.33907" lon="4.02883">
        <ele>400</ele>
        <time>2013-04-03T14:04:22Z</time>
      </trkpt>
      <trkpt lat="44.33907" lon="4.02883">
        <ele>400</ele>
        <time>2013-04-03T14:04:24Z</time>
      </trkpt>
      <trkpt lat="44.33907" lon="4.02883">
        <ele>400</ele>
        <time>2013-04-03T14:04:26Z</time>
      </trkpt>
      <trkpt lat="44.33907" lon="4.02883">
        <ele>400</ele>
        <time>2013-04-03T14:04:27Z</time>
      </trkpt>
      <trkpt lat="44.33907" lon="4.02883">
        <ele>400</ele>
        <time>2013-04-03T14:04:30Z</time>
      </trkpt>
      <trkpt lat="44.33907" lon="4.02883">
        <ele>400</ele>
        <time>2013-04-03T14:04:32Z</time>
      </trkpt>
      <trkpt lat="44.33907" lon="4.02883">
        <ele>400</ele>
        <time>2013-04-03T14:04:34Z</time>
      </trkpt>
      <trkpt lat="44.33907" lon="4.02883">
        <ele>400</ele>
        <time>2013-04-03T14:04:36Z</time>
      </trkpt>
      <trkpt lat="44.33907" lon="4.02883">
        <ele>400</ele>
        <time>2013-04-03T14:04:38Z</time>
      </trkpt>
      <trkpt lat="44.33907" lon="4.02883">
        <ele>400</ele>
        <time>2013-04-03T14:04:40Z</time>
      </trkpt>
      <trkpt lat="44.33907" lon="4.02883">
        <ele>400</ele>
        <time>2013-04-03T14:04:42Z</time>
      </trkpt>
      <trkpt lat="44.33907" lon="4.02883">
        <ele>400</ele>
        <time>2013-04-03T14:04:44Z</time>
      </trkpt>
      <trkpt lat="44.33907" lon="4.02883">
        <ele>400</ele>
        <time>2013-04-03T14:04:46Z</time>
      </trkpt>
      <trkpt lat="44.33907" lon="4.02883">
        <ele>400</ele>
        <time>2013-04-03T14:04:48Z</time>
      </trkpt>
      <trkpt lat="44.33907" lon="4.02883">
        <ele>400</ele>
        <time>2013-04-03T14:04:50Z</time>
      </trkpt>
      <trkpt lat="44.33907" lon="4.02883">
        <ele>400</ele>
        <time>2013-04-03T14:04:52Z</time>
      </trkpt>
      <trkpt lat="44.33907" lon="4.02883">
        <ele>400</ele>
        <time>2013-04-03T14:04:54Z</time>
      </trkpt>
      <trkpt lat="44.33907" lon="4.02883">
        <ele>400</ele>
        <time>2013-04-03T14:04:56Z</time>
      </trkpt>
      <trkpt lat="44.33907" lon="4.02883">
        <ele>400</ele>
        <time>2013-04-03T14:04:58Z</time>
      </trkpt>
      <trkpt lat="44.33907" lon="4.02883">
        <ele>400</ele>
        <time>2013-04-03T14:05:00Z</time>
      </trkpt>
      <trkpt lat="44.33907" lon="4.02883">
        <ele>400</ele>
        <time>2013-04-03T14:05:02Z</time>
      </trkpt>
      <trkpt lat="44.33907" lon="4.02883">
        <ele>400</ele>
        <time>2013-04-03T14:05:04Z</time>
      </trkpt>
      <trkpt lat="44.33907" lon="4.02883">
        <ele>400</ele>
        <time>2013-04-03T14:05:06Z</time>
      </trkpt>
      <trkpt lat="44.33907" lon="4.02883">
        <ele>400</ele>
        <time>2013-04-03T14:05:08Z</time>
      </trkpt>
      <trkpt lat="44.33907" lon="4.02883">
        <ele>400</ele>
        <time>2013-04-03T14:05:10Z</time>
      </trkpt>
      <trkpt lat="44.33907" lon="4.02883">
        <ele>400</ele>
        <time>2013-04-03T14:05:12Z</time>
      </trkpt>
      <trkpt lat="44.33907" lon="4.02883">
        <ele>400</ele>
        <time>2013-04-03T14:05:14Z</time>
      </trkpt>
      <trkpt lat="44.33907" lon="4.02883">
        <ele>400</ele>
        <time>2013-04-03T14:05:16Z</time>
      </trkpt>
      <trkpt lat="44.33907" lon="4.02883">
        <ele>400</ele>
        <time>2013-04-03T14:05:18Z</time>
      </trkpt>
      <trkpt lat="44.33907" lon="4.02883">
        <ele>400</ele>
        <time>2013-04-03T14:05:20Z</time>
      </trkpt>
      <trkpt lat="44.33907" lon="4.02883">
        <ele>400</ele>
        <time>2013-04-03T14:05:22Z</time>
      </trkpt>
      <trkpt lat="44.33907" lon="4.02883">
        <ele>400</ele>
        <time>2013-04-03T14:05:24Z</time>
      </trkpt>
      <trkpt lat="44.33907" lon="4.02883">
        <ele>400</ele>
        <time>2013-04-03T14:05:26Z</time>
      </trkpt>
      <trkpt lat="44.33907" lon="4.02883">
        <ele>400</ele>
        <time>2013-04-03T14:05:28Z</time>
      </trkpt>
      <trkpt lat="44.33907" lon="4.02883">
        <ele>400</ele>
        <time>2013-04-03T14:05:29Z</time>
      </trkpt>
      <trkpt lat="44.33907" lon="4.02883">
        <ele>400</ele>
        <time>2013-04-03T14:05:32Z</time>
      </trkpt>
      <trkpt lat="44.33907" lon="4.02883">
        <ele>400</ele>
        <time>2013-04-03T14:05:34Z</time>
      </trkpt>
      <trkpt lat="44.33907" lon="4.02883">
        <ele>400</ele>
        <time>2013-04-03T14:05:36Z</time>
      </trkpt>
      <trkpt lat="44.33907" lon="4.02883">
        <ele>400</ele>
        <time>2013-04-03T14:05:38Z</time>
      </trkpt>
      <trkpt lat="44.33907" lon="4.02883">
        <ele>400</ele>
        <time>2013-04-03T14:05:40Z</time>
      </trkpt>
      <trkpt lat="44.33907" lon="4.02883">
        <ele>400</ele>
        <time>2013-04-03T14:05:42Z</time>
      </trkpt>
      <trkpt lat="44.33907" lon="4.02883">
        <ele>400</ele>
        <time>2013-04-03T14:05:44Z</time>
      </trkpt>
      <trkpt lat="44.33906" lon="4.02882">
        <ele>400</ele>
        <time>2013-04-03T14:05:46Z</time>
      </trkpt>
      <trkpt lat="44.33904" lon="4.02881">
        <ele>399</ele>
        <time>2013-04-03T14:05:48Z</time>
      </trkpt>
      <trkpt lat="44.33904" lon="4.02881">
        <ele>399</ele>
        <time>2013-04-03T14:05:50Z</time>
      </trkpt>
      <trkpt lat="44.33904" lon="4.02881">
        <ele>399</ele>
        <time>2013-04-03T14:05:52Z</time>
      </trkpt>
      <trkpt lat="44.33904" lon="4.02881">
        <ele>399</ele>
        <time>2013-04-03T14:05:54Z</time>
      </trkpt>
      <trkpt lat="44.33903" lon="4.0288">
        <ele>400</ele>
        <time>2013-04-03T14:05:56Z</time>
      </trkpt>
      <trkpt lat="44.33903" lon="4.0288">
        <ele>400</ele>
        <time>2013-04-03T14:05:58Z</time>
      </trkpt>
      <trkpt lat="44.33903" lon="4.02879">
        <ele>400</ele>
        <time>2013-04-03T14:06:00Z</time>
      </trkpt>
      <trkpt lat="44.33901" lon="4.02877">
        <ele>400</ele>
        <time>2013-04-03T14:06:02Z</time>
      </trkpt>
      <trkpt lat="44.33899" lon="4.02874">
        <ele>400</ele>
        <time>2013-04-03T14:06:04Z</time>
      </trkpt>
      <trkpt lat="44.33898" lon="4.02872">
        <ele>400</ele>
        <time>2013-04-03T14:06:06Z</time>
      </trkpt>
      <trkpt lat="44.33897" lon="4.0287">
        <ele>401</ele>
        <time>2013-04-03T14:06:08Z</time>
      </trkpt>
      <trkpt lat="44.33896" lon="4.02868">
        <ele>402</ele>
        <time>2013-04-03T14:06:10Z</time>
      </trkpt>
      <trkpt lat="44.33895" lon="4.02866">
        <ele>402</ele>
        <time>2013-04-03T14:06:12Z</time>
      </trkpt>
      <trkpt lat="44.33895" lon="4.02864">
        <ele>402</ele>
        <time>2013-04-03T14:06:14Z</time>
      </trkpt>
      <trkpt lat="44.33894" lon="4.02862">
        <ele>402</ele>
        <time>2013-04-03T14:06:16Z</time>
      </trkpt>
      <trkpt lat="44.33893" lon="4.0286">
        <ele>403</ele>
        <time>2013-04-03T14:06:18Z</time>
      </trkpt>
      <trkpt lat="44.33892" lon="4.02858">
        <ele>403</ele>
        <time>2013-04-03T14:06:20Z</time>
      </trkpt>
      <trkpt lat="44.33892" lon="4.02854">
        <ele>403</ele>
        <time>2013-04-03T14:06:22Z</time>
      </trkpt>
      <trkpt lat="44.3389" lon="4.02851">
        <ele>402</ele>
        <time>2013-04-03T14:06:24Z</time>
      </trkpt>
      <trkpt lat="44.3389" lon="4.02848">
        <ele>403</ele>
        <time>2013-04-03T14:06:26Z</time>
      </trkpt>
      <trkpt lat="44.3389" lon="4.02844">
        <ele>403</ele>
        <time>2013-04-03T14:06:28Z</time>
      </trkpt>
      <trkpt lat="44.33889" lon="4.02842">
        <ele>404</ele>
        <time>2013-04-03T14:06:30Z</time>
      </trkpt>
      <trkpt lat="44.33889" lon="4.02841">
        <ele>404</ele>
        <time>2013-04-03T14:06:31Z</time>
      </trkpt>
      <trkpt lat="44.33888" lon="4.02836">
        <ele>404</ele>
        <time>2013-04-03T14:06:34Z</time>
      </trkpt>
      <trkpt lat="44.33887" lon="4.02833">
        <ele>404</ele>
        <time>2013-04-03T14:06:36Z</time>
      </trkpt>
      <trkpt lat="44.33887" lon="4.0283">
        <ele>404</ele>
        <time>2013-04-03T14:06:38Z</time>
      </trkpt>
      <trkpt lat="44.33886" lon="4.02827">
        <ele>404</ele>
        <time>2013-04-03T14:06:40Z</time>
      </trkpt>
      <trkpt lat="44.33886" lon="4.02824">
        <ele>404</ele>
        <time>2013-04-03T14:06:42Z</time>
      </trkpt>
      <trkpt lat="44.33885" lon="4.02822">
        <ele>405</ele>
        <time>2013-04-03T14:06:44Z</time>
      </trkpt>
      <trkpt lat="44.33886" lon="4.02819">
        <ele>405</ele>
        <time>2013-04-03T14:06:46Z</time>
      </trkpt>
      <trkpt lat="44.33885" lon="4.02817">
        <ele>406</ele>
        <time>2013-04-03T14:06:48Z</time>
      </trkpt>
      <trkpt lat="44.33884" lon="4.02814">
        <ele>405</ele>
        <time>2013-04-03T14:06:50Z</time>
      </trkpt>
      <trkpt lat="44.33884" lon="4.02811">
        <ele>406</ele>
        <time>2013-04-03T14:06:52Z</time>
      </trkpt>
      <trkpt lat="44.33884" lon="4.02808">
        <ele>406</ele>
        <time>2013-04-03T14:06:54Z</time>
      </trkpt>
      <trkpt lat="44.33884" lon="4.02805">
        <ele>405</ele>
        <time>2013-04-03T14:06:56Z</time>
      </trkpt>
      <trkpt lat="44.33883" lon="4.02803">
        <ele>405</ele>
        <time>2013-04-03T14:06:58Z</time>
      </trkpt>
      <trkpt lat="44.33882" lon="4.02801">
        <ele>406</ele>
        <time>2013-04-03T14:07:00Z</time>
      </trkpt>
      <trkpt lat="44.33882" lon="4.02798">
        <ele>406</ele>
        <time>2013-04-03T14:07:02Z</time>
      </trkpt>
      <trkpt lat="44.33882" lon="4.02795">
        <ele>405</ele>
        <time>2013-04-03T14:07:04Z</time>
      </trkpt>
      <trkpt lat="44.33881" lon="4.02792">
        <ele>406</ele>
        <time>2013-04-03T14:07:06Z</time>
      </trkpt>
      <trkpt lat="44.33881" lon="4.0279">
        <ele>406</ele>
        <time>2013-04-03T14:07:08Z</time>
      </trkpt>
      <trkpt lat="44.33881" lon="4.02788">
        <ele>406</ele>
        <time>2013-04-03T14:07:10Z</time>
      </trkpt>
      <trkpt lat="44.3388" lon="4.02786">
        <ele>407</ele>
        <time>2013-04-03T14:07:12Z</time>
      </trkpt>
      <trkpt lat="44.33879" lon="4.02784">
        <ele>407</ele>
        <time>2013-04-03T14:07:14Z</time>
      </trkpt>
      <trkpt lat="44.33878" lon="4.02782">
        <ele>408</ele>
        <time>2013-04-03T14:07:16Z</time>
      </trkpt>
      <trkpt lat="44.33878" lon="4.0278">
        <ele>408</ele>
        <time>2013-04-03T14:07:18Z</time>
      </trkpt>
      <trkpt lat="44.33878" lon="4.02777">
        <ele>409</ele>
        <time>2013-04-03T14:07:20Z</time>
      </trkpt>
      <trkpt lat="44.33878" lon="4.02775">
        <ele>409</ele>
        <time>2013-04-03T14:07:22Z</time>
      </trkpt>
      <trkpt lat="44.33879" lon="4.02773">
        <ele>409</ele>
        <time>2013-04-03T14:07:24Z</time>
      </trkpt>
      <trkpt lat="44.33879" lon="4.02771">
        <ele>410</ele>
        <time>2013-04-03T14:07:26Z</time>
      </trkpt>
      <trkpt lat="44.3388" lon="4.0277">
        <ele>410</ele>
        <time>2013-04-03T14:07:28Z</time>
      </trkpt>
      <trkpt lat="44.3388" lon="4.02768">
        <ele>410</ele>
        <time>2013-04-03T14:07:30Z</time>
      </trkpt>
      <trkpt lat="44.33881" lon="4.02765">
        <ele>410</ele>
        <time>2013-04-03T14:07:32Z</time>
      </trkpt>
      <trkpt lat="44.33882" lon="4.02764">
        <ele>410</ele>
        <time>2013-04-03T14:07:33Z</time>
      </trkpt>
      <trkpt lat="44.33882" lon="4.02762">
        <ele>410</ele>
        <time>2013-04-03T14:07:36Z</time>
      </trkpt>
      <trkpt lat="44.33884" lon="4.0276">
        <ele>411</ele>
        <time>2013-04-03T14:07:38Z</time>
      </trkpt>
      <trkpt lat="44.33884" lon="4.02758">
        <ele>411</ele>
        <time>2013-04-03T14:07:40Z</time>
      </trkpt>
      <trkpt lat="44.33885" lon="4.02755">
        <ele>412</ele>
        <time>2013-04-03T14:07:42Z</time>
      </trkpt>
      <trkpt lat="44.33887" lon="4.02754">
        <ele>412</ele>
        <time>2013-04-03T14:07:44Z</time>
      </trkpt>
      <trkpt lat="44.33888" lon="4.02752">
        <ele>412</ele>
        <time>2013-04-03T14:07:46Z</time>
      </trkpt>
      <trkpt lat="44.33888" lon="4.02751">
        <ele>412</ele>
        <time>2013-04-03T14:07:48Z</time>
      </trkpt>
      <trkpt lat="44.33889" lon="4.0275">
        <ele>412</ele>
        <time>2013-04-03T14:07:50Z</time>
      </trkpt>
      <trkpt lat="44.3389" lon="4.02748">
        <ele>411</ele>
        <time>2013-04-03T14:07:52Z</time>
      </trkpt>
      <trkpt lat="44.3389" lon="4.02746">
        <ele>411</ele>
        <time>2013-04-03T14:07:54Z</time>
      </trkpt>
      <trkpt lat="44.33891" lon="4.02744">
        <ele>411</ele>
        <time>2013-04-03T14:07:56Z</time>
      </trkpt>
      <trkpt lat="44.33892" lon="4.02744">
        <ele>411</ele>
        <time>2013-04-03T14:07:58Z</time>
      </trkpt>
      <trkpt lat="44.33892" lon="4.02744">
        <ele>411</ele>
        <time>2013-04-03T14:08:00Z</time>
      </trkpt>
      <trkpt lat="44.33892" lon="4.02742">
        <ele>411</ele>
        <time>2013-04-03T14:08:02Z</time>
      </trkpt>
      <trkpt lat="44.33892" lon="4.02739">
        <ele>411</ele>
        <time>2013-04-03T14:08:04Z</time>
      </trkpt>
      <trkpt lat="44.33893" lon="4.02737">
        <ele>412</ele>
        <time>2013-04-03T14:08:06Z</time>
      </trkpt>
      <trkpt lat="44.33894" lon="4.02734">
        <ele>412</ele>
        <time>2013-04-03T14:08:08Z</time>
      </trkpt>
      <trkpt lat="44.33895" lon="4.02732">
        <ele>412</ele>
        <time>2013-04-03T14:08:10Z</time>
      </trkpt>
      <trkpt lat="44.33896" lon="4.02729">
        <ele>412</ele>
        <time>2013-04-03T14:08:12Z</time>
      </trkpt>
      <trkpt lat="44.33896" lon="4.02727">
        <ele>413</ele>
        <time>2013-04-03T14:08:14Z</time>
      </trkpt>
      <trkpt lat="44.33897" lon="4.02724">
        <ele>413</ele>
        <time>2013-04-03T14:08:16Z</time>
      </trkpt>
      <trkpt lat="44.33898" lon="4.02722">
        <ele>413</ele>
        <time>2013-04-03T14:08:18Z</time>
      </trkpt>
      <trkpt lat="44.33899" lon="4.02719">
        <ele>414</ele>
        <time>2013-04-03T14:08:20Z</time>
      </trkpt>
      <trkpt lat="44.33899" lon="4.02716">
        <ele>414</ele>
        <time>2013-04-03T14:08:22Z</time>
      </trkpt>
      <trkpt lat="44.339" lon="4.02715">
        <ele>414</ele>
        <time>2013-04-03T14:08:24Z</time>
      </trkpt>
      <trkpt lat="44.339" lon="4.02713">
        <ele>414</ele>
        <time>2013-04-03T14:08:26Z</time>
      </trkpt>
      <trkpt lat="44.33901" lon="4.0271">
        <ele>414</ele>
        <time>2013-04-03T14:08:28Z</time>
      </trkpt>
      <trkpt lat="44.33901" lon="4.02706">
        <ele>414</ele>
        <time>2013-04-03T14:08:30Z</time>
      </trkpt>
      <trkpt lat="44.33902" lon="4.02704">
        <ele>415</ele>
        <time>2013-04-03T14:08:32Z</time>
      </trkpt>
      <trkpt lat="44.33903" lon="4.02702">
        <ele>416</ele>
        <time>2013-04-03T14:08:34Z</time>
      </trkpt>
      <trkpt lat="44.33903" lon="4.027">
        <ele>415</ele>
        <time>2013-04-03T14:08:35Z</time>
      </trkpt>
      <trkpt lat="44.33904" lon="4.02698">
        <ele>415</ele>
        <time>2013-04-03T14:08:38Z</time>
      </trkpt>
      <trkpt lat="44.33905" lon="4.02696">
        <ele>416</ele>
        <time>2013-04-03T14:08:40Z</time>
      </trkpt>
      <trkpt lat="44.33906" lon="4.02693">
        <ele>416</ele>
        <time>2013-04-03T14:08:42Z</time>
      </trkpt>
      <trkpt lat="44.33906" lon="4.02691">
        <ele>416</ele>
        <time>2013-04-03T14:08:44Z</time>
      </trkpt>
      <trkpt lat="44.33907" lon="4.02689">
        <ele>416</ele>
        <time>2013-04-03T14:08:46Z</time>
      </trkpt>
      <trkpt lat="44.33907" lon="4.02687">
        <ele>417</ele>
        <time>2013-04-03T14:08:48Z</time>
      </trkpt>
      <trkpt lat="44.33908" lon="4.02684">
        <ele>417</ele>
        <time>2013-04-03T14:08:50Z</time>
      </trkpt>
      <trkpt lat="44.33909" lon="4.02684">
        <ele>418</ele>
        <time>2013-04-03T14:08:52Z</time>
      </trkpt>
      <trkpt lat="44.33909" lon="4.02683">
        <ele>417</ele>
        <time>2013-04-03T14:08:54Z</time>
      </trkpt>
      <trkpt lat="44.3391" lon="4.0268">
        <ele>418</ele>
        <time>2013-04-03T14:08:56Z</time>
      </trkpt>
      <trkpt lat="44.3391" lon="4.02678">
        <ele>419</ele>
        <time>2013-04-03T14:08:58Z</time>
      </trkpt>
      <trkpt lat="44.3391" lon="4.02675">
        <ele>419</ele>
        <time>2013-04-03T14:09:00Z</time>
      </trkpt>
      <trkpt lat="44.3391" lon="4.02672">
        <ele>419</ele>
        <time>2013-04-03T14:09:02Z</time>
      </trkpt>
      <trkpt lat="44.33911" lon="4.0267">
        <ele>420</ele>
        <time>2013-04-03T14:09:04Z</time>
      </trkpt>
      <trkpt lat="44.33911" lon="4.02668">
        <ele>420</ele>
        <time>2013-04-03T14:09:06Z</time>
      </trkpt>
      <trkpt lat="44.33911" lon="4.02667">
        <ele>420</ele>
        <time>2013-04-03T14:09:08Z</time>
      </trkpt>
      <trkpt lat="44.33911" lon="4.02664">
        <ele>420</ele>
        <time>2013-04-03T14:09:10Z</time>
      </trkpt>
      <trkpt lat="44.33912" lon="4.02662">
        <ele>420</ele>
        <time>2013-04-03T14:09:12Z</time>
      </trkpt>
      <trkpt lat="44.33912" lon="4.02659">
        <ele>420</ele>
        <time>2013-04-03T14:09:14Z</time>
      </trkpt>
      <trkpt lat="44.33913" lon="4.02656">
        <ele>420</ele>
        <time>2013-04-03T14:09:16Z</time>
      </trkpt>
      <trkpt lat="44.33915" lon="4.02652">
        <ele>421</ele>
        <time>2013-04-03T14:09:18Z</time>
      </trkpt>
      <trkpt lat="44.33916" lon="4.0265">
        <ele>422</ele>
        <time>2013-04-03T14:09:20Z</time>
      </trkpt>
      <trkpt lat="44.33916" lon="4.0265">
        <ele>421</ele>
        <time>2013-04-03T14:09:22Z</time>
      </trkpt>
      <trkpt lat="44.33917" lon="4.02647">
        <ele>422</ele>
        <time>2013-04-03T14:09:24Z</time>
      </trkpt>
      <trkpt lat="44.33918" lon="4.02643">
        <ele>422</ele>
        <time>2013-04-03T14:09:26Z</time>
      </trkpt>
      <trkpt lat="44.33919" lon="4.0264">
        <ele>422</ele>
        <time>2013-04-03T14:09:28Z</time>
      </trkpt>
      <trkpt lat="44.3392" lon="4.02637">
        <ele>421</ele>
        <time>2013-04-03T14:09:30Z</time>
      </trkpt>
      <trkpt lat="44.33921" lon="4.02634">
        <ele>421</ele>
        <time>2013-04-03T14:09:32Z</time>
      </trkpt>
      <trkpt lat="44.33921" lon="4.02632">
        <ele>421</ele>
        <time>2013-04-03T14:09:34Z</time>
      </trkpt>
      <trkpt lat="44.33922" lon="4.0263">
        <ele>421</ele>
        <time>2013-04-03T14:09:36Z</time>
      </trkpt>
      <trkpt lat="44.33922" lon="4.02628">
        <ele>421</ele>
        <time>2013-04-03T14:09:37Z</time>
      </trkpt>
      <trkpt lat="44.33924" lon="4.02623">
        <ele>421</ele>
        <time>2013-04-03T14:09:40Z</time>
      </trkpt>
      <trkpt lat="44.33926" lon="4.02619">
        <ele>421</ele>
        <time>2013-04-03T14:09:42Z</time>
      </trkpt>
      <trkpt lat="44.33927" lon="4.02616">
        <ele>422</ele>
        <time>2013-04-03T14:09:44Z</time>
      </trkpt>
      <trkpt lat="44.33928" lon="4.02613">
        <ele>421</ele>
        <time>2013-04-03T14:09:46Z</time>
      </trkpt>
      <trkpt lat="44.33929" lon="4.02611">
        <ele>421</ele>
        <time>2013-04-03T14:09:48Z</time>
      </trkpt>
      <trkpt lat="44.33931" lon="4.02609">
        <ele>420</ele>
        <time>2013-04-03T14:09:50Z</time>
      </trkpt>
      <trkpt lat="44.33932" lon="4.02608">
        <ele>420</ele>
        <time>2013-04-03T14:09:52Z</time>
      </trkpt>
      <trkpt lat="44.33932" lon="4.02608">
        <ele>420</ele>
        <time>2013-04-03T14:09:54Z</time>
      </trkpt>
      <trkpt lat="44.33933" lon="4.02605">
        <ele>420</ele>
        <time>2013-04-03T14:09:56Z</time>
      </trkpt>
      <trkpt lat="44.33933" lon="4.02605">
        <ele>420</ele>
        <time>2013-04-03T14:09:58Z</time>
      </trkpt>
      <trkpt lat="44.33935" lon="4.02602">
        <ele>420</ele>
        <time>2013-04-03T14:10:00Z</time>
      </trkpt>
      <trkpt lat="44.33936" lon="4.02601">
        <ele>419</ele>
        <time>2013-04-03T14:10:02Z</time>
      </trkpt>
      <trkpt lat="44.33936" lon="4.026">
        <ele>419</ele>
        <time>2013-04-03T14:10:04Z</time>
      </trkpt>
      <trkpt lat="44.33937" lon="4.02597">
        <ele>419</ele>
        <time>2013-04-03T14:10:06Z</time>
      </trkpt>
      <trkpt lat="44.33939" lon="4.02594">
        <ele>419</ele>
        <time>2013-04-03T14:10:08Z</time>
      </trkpt>
      <trkpt lat="44.3394" lon="4.02593">
        <ele>419</ele>
        <time>2013-04-03T14:10:10Z</time>
      </trkpt>
      <trkpt lat="44.33941" lon="4.02591">
        <ele>419</ele>
        <time>2013-04-03T14:10:12Z</time>
      </trkpt>
      <trkpt lat="44.33943" lon="4.02588">
        <ele>420</ele>
        <time>2013-04-03T14:10:14Z</time>
      </trkpt>
      <trkpt lat="44.33945" lon="4.02585">
        <ele>419</ele>
        <time>2013-04-03T14:10:16Z</time>
      </trkpt>
      <trkpt lat="44.33946" lon="4.02582">
        <ele>419</ele>
        <time>2013-04-03T14:10:18Z</time>
      </trkpt>
      <trkpt lat="44.33947" lon="4.02581">
        <ele>419</ele>
        <time>2013-04-03T14:10:20Z</time>
      </trkpt>
      <trkpt lat="44.33947" lon="4.0258">
        <ele>420</ele>
        <time>2013-04-03T14:10:22Z</time>
      </trkpt>
      <trkpt lat="44.33949" lon="4.02577">
        <ele>420</ele>
        <time>2013-04-03T14:10:24Z</time>
      </trkpt>
      <trkpt lat="44.3395" lon="4.02576">
        <ele>419</ele>
        <time>2013-04-03T14:10:26Z</time>
      </trkpt>
      <trkpt lat="44.33951" lon="4.02575">
        <ele>419</ele>
        <time>2013-04-03T14:10:28Z</time>
      </trkpt>
      <trkpt lat="44.33952" lon="4.02574">
        <ele>419</ele>
        <time>2013-04-03T14:10:30Z</time>
      </trkpt>
      <trkpt lat="44.33953" lon="4.02572">
        <ele>419</ele>
        <time>2013-04-03T14:10:32Z</time>
      </trkpt>
      <trkpt lat="44.33954" lon="4.02571">
        <ele>419</ele>
        <time>2013-04-03T14:10:34Z</time>
      </trkpt>
      <trkpt lat="44.33956" lon="4.02568">
        <ele>419</ele>
        <time>2013-04-03T14:10:36Z</time>
      </trkpt>
      <trkpt lat="44.33958" lon="4.02566">
        <ele>419</ele>
        <time>2013-04-03T14:10:38Z</time>
      </trkpt>
      <trkpt lat="44.33959" lon="4.02565">
        <ele>420</ele>
        <time>2013-04-03T14:10:39Z</time>
      </trkpt>
      <trkpt lat="44.33962" lon="4.02561">
        <ele>420</ele>
        <time>2013-04-03T14:10:42Z</time>
      </trkpt>
      <trkpt lat="44.33963" lon="4.02561">
        <ele>420</ele>
        <time>2013-04-03T14:10:44Z</time>
      </trkpt>
      <trkpt lat="44.33963" lon="4.02559">
        <ele>420</ele>
        <time>2013-04-03T14:10:46Z</time>
      </trkpt>
      <trkpt lat="44.33964" lon="4.02556">
        <ele>421</ele>
        <time>2013-04-03T14:10:48Z</time>
      </trkpt>
      <trkpt lat="44.33964" lon="4.02555">
        <ele>420</ele>
        <time>2013-04-03T14:10:50Z</time>
      </trkpt>
      <trkpt lat="44.33964" lon="4.02554">
        <ele>420</ele>
        <time>2013-04-03T14:10:52Z</time>
      </trkpt>
      <trkpt lat="44.33964" lon="4.02552">
        <ele>420</ele>
        <time>2013-04-03T14:10:54Z</time>
      </trkpt>
      <trkpt lat="44.33964" lon="4.0255">
        <ele>420</ele>
        <time>2013-04-03T14:10:56Z</time>
      </trkpt>
      <trkpt lat="44.33963" lon="4.02547">
        <ele>419</ele>
        <time>2013-04-03T14:10:58Z</time>
      </trkpt>
      <trkpt lat="44.33962" lon="4.02546">
        <ele>419</ele>
        <time>2013-04-03T14:11:00Z</time>
      </trkpt>
      <trkpt lat="44.33962" lon="4.02546">
        <ele>419</ele>
        <time>2013-04-03T14:11:02Z</time>
      </trkpt>
      <trkpt lat="44.33963" lon="4.02545">
        <ele>419</ele>
        <time>2013-04-03T14:11:04Z</time>
      </trkpt>
      <trkpt lat="44.33962" lon="4.02542">
        <ele>419</ele>
        <time>2013-04-03T14:11:06Z</time>
      </trkpt>
      <trkpt lat="44.33961" lon="4.02539">
        <ele>419</ele>
        <time>2013-04-03T14:11:08Z</time>
      </trkpt>
      <trkpt lat="44.3396" lon="4.02537">
        <ele>419</ele>
        <time>2013-04-03T14:11:10Z</time>
      </trkpt>
      <trkpt lat="44.33959" lon="4.02534">
        <ele>419</ele>
        <time>2013-04-03T14:11:12Z</time>
      </trkpt>
      <trkpt lat="44.33958" lon="4.02532">
        <ele>419</ele>
        <time>2013-04-03T14:11:14Z</time>
      </trkpt>
      <trkpt lat="44.33957" lon="4.02529">
        <ele>419</ele>
        <time>2013-04-03T14:11:16Z</time>
      </trkpt>
      <trkpt lat="44.33956" lon="4.02526">
        <ele>419</ele>
        <time>2013-04-03T14:11:18Z</time>
      </trkpt>
      <trkpt lat="44.33955" lon="4.02524">
        <ele>419</ele>
        <time>2013-04-03T14:11:20Z</time>
      </trkpt>
      <trkpt lat="44.33954" lon="4.02522">
        <ele>419</ele>
        <time>2013-04-03T14:11:22Z</time>
      </trkpt>
      <trkpt lat="44.33953" lon="4.0252">
        <ele>419</ele>
        <time>2013-04-03T14:11:24Z</time>
      </trkpt>
      <trkpt lat="44.33952" lon="4.02518">
        <ele>419</ele>
        <time>2013-04-03T14:11:26Z</time>
      </trkpt>
      <trkpt lat="44.33951" lon="4.02516">
        <ele>419</ele>
        <time>2013-04-03T14:11:28Z</time>
      </trkpt>
      <trkpt lat="44.3395" lon="4.02514">
        <ele>419</ele>
        <time>2013-04-03T14:11:30Z</time>
      </trkpt>
      <trkpt lat="44.33948" lon="4.02512">
        <ele>419</ele>
        <time>2013-04-03T14:11:32Z</time>
      </trkpt>
      <trkpt lat="44.33947" lon="4.0251">
        <ele>419</ele>
        <time>2013-04-03T14:11:34Z</time>
      </trkpt>
      <trkpt lat="44.33946" lon="4.02507">
        <ele>419</ele>
        <time>2013-04-03T14:11:36Z</time>
      </trkpt>
      <trkpt lat="44.33945" lon="4.02505">
        <ele>419</ele>
        <time>2013-04-03T14:11:38Z</time>
      </trkpt>
      <trkpt lat="44.33944" lon="4.02504">
        <ele>419</ele>
        <time>2013-04-03T14:11:40Z</time>
      </trkpt>
      <trkpt lat="44.33944" lon="4.02503">
        <ele>419</ele>
        <time>2013-04-03T14:11:41Z</time>
      </trkpt>
      <trkpt lat="44.33942" lon="4.02501">
        <ele>420</ele>
        <time>2013-04-03T14:11:44Z</time>
      </trkpt>
      <trkpt lat="44.33941" lon="4.02499">
        <ele>420</ele>
        <time>2013-04-03T14:11:46Z</time>
      </trkpt>
      <trkpt lat="44.33939" lon="4.02497">
        <ele>419</ele>
        <time>2013-04-03T14:11:48Z</time>
      </trkpt>
      <trkpt lat="44.33938" lon="4.02494">
        <ele>418</ele>
        <time>2013-04-03T14:11:50Z</time>
      </trkpt>
      <trkpt lat="44.33936" lon="4.02492">
        <ele>419</ele>
        <time>2013-04-03T14:11:52Z</time>
      </trkpt>
      <trkpt lat="44.33935" lon="4.0249">
        <ele>418</ele>
        <time>2013-04-03T14:11:54Z</time>
      </trkpt>
      <trkpt lat="44.33934" lon="4.02488">
        <ele>418</ele>
        <time>2013-04-03T14:11:56Z</time>
      </trkpt>
      <trkpt lat="44.33932" lon="4.02485">
        <ele>418</ele>
        <time>2013-04-03T14:11:58Z</time>
      </trkpt>
      <trkpt lat="44.33931" lon="4.02483">
        <ele>419</ele>
        <time>2013-04-03T14:12:00Z</time>
      </trkpt>
      <trkpt lat="44.33929" lon="4.02481">
        <ele>419</ele>
        <time>2013-04-03T14:12:02Z</time>
      </trkpt>
      <trkpt lat="44.33928" lon="4.02479">
        <ele>418</ele>
        <time>2013-04-03T14:12:04Z</time>
      </trkpt>
      <trkpt lat="44.33927" lon="4.02477">
        <ele>419</ele>
        <time>2013-04-03T14:12:06Z</time>
      </trkpt>
      <trkpt lat="44.33927" lon="4.02475">
        <ele>419</ele>
        <time>2013-04-03T14:12:08Z</time>
      </trkpt>
      <trkpt lat="44.33926" lon="4.02473">
        <ele>419</ele>
        <time>2013-04-03T14:12:10Z</time>
      </trkpt>
      <trkpt lat="44.33926" lon="4.02472">
        <ele>418</ele>
        <time>2013-04-03T14:12:12Z</time>
      </trkpt>
      <trkpt lat="44.33926" lon="4.02472">
        <ele>418</ele>
        <time>2013-04-03T14:12:14Z</time>
      </trkpt>
      <trkpt lat="44.33925" lon="4.02471">
        <ele>418</ele>
        <time>2013-04-03T14:12:16Z</time>
      </trkpt>
      <trkpt lat="44.33924" lon="4.0247">
        <ele>418</ele>
        <time>2013-04-03T14:12:18Z</time>
      </trkpt>
      <trkpt lat="44.33923" lon="4.02468">
        <ele>417</ele>
        <time>2013-04-03T14:12:20Z</time>
      </trkpt>
      <trkpt lat="44.33923" lon="4.02466">
        <ele>417</ele>
        <time>2013-04-03T14:12:22Z</time>
      </trkpt>
      <trkpt lat="44.33923" lon="4.02463">
        <ele>417</ele>
        <time>2013-04-03T14:12:24Z</time>
      </trkpt>
      <trkpt lat="44.33922" lon="4.0246">
        <ele>417</ele>
        <time>2013-04-03T14:12:26Z</time>
      </trkpt>
      <trkpt lat="44.33923" lon="4.02459">
        <ele>416</ele>
        <time>2013-04-03T14:12:28Z</time>
      </trkpt>
      <trkpt lat="44.33924" lon="4.02457">
        <ele>416</ele>
        <time>2013-04-03T14:12:30Z</time>
      </trkpt>
      <trkpt lat="44.33925" lon="4.02455">
        <ele>415</ele>
        <time>2013-04-03T14:12:32Z</time>
      </trkpt>
      <trkpt lat="44.33925" lon="4.02454">
        <ele>415</ele>
        <time>2013-04-03T14:12:34Z</time>
      </trkpt>
      <trkpt lat="44.33925" lon="4.02452">
        <ele>415</ele>
        <time>2013-04-03T14:12:36Z</time>
      </trkpt>
      <trkpt lat="44.33925" lon="4.02449">
        <ele>416</ele>
        <time>2013-04-03T14:12:38Z</time>
      </trkpt>
      <trkpt lat="44.33925" lon="4.02447">
        <ele>416</ele>
        <time>2013-04-03T14:12:40Z</time>
      </trkpt>
      <trkpt lat="44.33924" lon="4.02446">
        <ele>416</ele>
        <time>2013-04-03T14:12:42Z</time>
      </trkpt>
      <trkpt lat="44.33923" lon="4.02445">
        <ele>416</ele>
        <time>2013-04-03T14:12:43Z</time>
      </trkpt>
      <trkpt lat="44.33922" lon="4.02443">
        <ele>416</ele>
        <time>2013-04-03T14:12:46Z</time>
      </trkpt>
      <trkpt lat="44.33922" lon="4.02443">
        <ele>416</ele>
        <time>2013-04-03T14:12:48Z</time>
      </trkpt>
      <trkpt lat="44.33922" lon="4.02442">
        <ele>416</ele>
        <time>2013-04-03T14:12:50Z</time>
      </trkpt>
      <trkpt lat="44.33921" lon="4.02441">
        <ele>416</ele>
        <time>2013-04-03T14:12:52Z</time>
      </trkpt>
      <trkpt lat="44.3392" lon="4.02439">
        <ele>415</ele>
        <time>2013-04-03T14:12:54Z</time>
      </trkpt>
      <trkpt lat="44.33919" lon="4.02437">
        <ele>415</ele>
        <time>2013-04-03T14:12:56Z</time>
      </trkpt>
      <trkpt lat="44.33917" lon="4.02435">
        <ele>414</ele>
        <time>2013-04-03T14:12:58Z</time>
      </trkpt>
      <trkpt lat="44.33915" lon="4.02433">
        <ele>414</ele>
        <time>2013-04-03T14:13:00Z</time>
      </trkpt>
      <trkpt lat="44.33914" lon="4.0243">
        <ele>414</ele>
        <time>2013-04-03T14:13:02Z</time>
      </trkpt>
      <trkpt lat="44.33912" lon="4.02428">
        <ele>414</ele>
        <time>2013-04-03T14:13:04Z</time>
      </trkpt>
      <trkpt lat="44.33911" lon="4.02426">
        <ele>414</ele>
        <time>2013-04-03T14:13:06Z</time>
      </trkpt>
      <trkpt lat="44.33909" lon="4.02424">
        <ele>415</ele>
        <time>2013-04-03T14:13:08Z</time>
      </trkpt>
      <trkpt lat="44.33908" lon="4.02422">
        <ele>416</ele>
        <time>2013-04-03T14:13:10Z</time>
      </trkpt>
      <trkpt lat="44.33906" lon="4.0242">
        <ele>415</ele>
        <time>2013-04-03T14:13:12Z</time>
      </trkpt>
      <trkpt lat="44.33904" lon="4.02418">
        <ele>415</ele>
        <time>2013-04-03T14:13:14Z</time>
      </trkpt>
      <trkpt lat="44.33903" lon="4.02417">
        <ele>415</ele>
        <time>2013-04-03T14:13:16Z</time>
      </trkpt>
      <trkpt lat="44.33901" lon="4.02415">
        <ele>416</ele>
        <time>2013-04-03T14:13:18Z</time>
      </trkpt>
      <trkpt lat="44.33899" lon="4.02413">
        <ele>416</ele>
        <time>2013-04-03T14:13:20Z</time>
      </trkpt>
      <trkpt lat="44.33897" lon="4.02412">
        <ele>416</ele>
        <time>2013-04-03T14:13:22Z</time>
      </trkpt>
      <trkpt lat="44.33896" lon="4.02411">
        <ele>416</ele>
        <time>2013-04-03T14:13:24Z</time>
      </trkpt>
      <trkpt lat="44.33895" lon="4.0241">
        <ele>416</ele>
        <time>2013-04-03T14:13:26Z</time>
      </trkpt>
      <trkpt lat="44.33894" lon="4.0241">
        <ele>416</ele>
        <time>2013-04-03T14:13:28Z</time>
      </trkpt>
      <trkpt lat="44.33894" lon="4.0241">
        <ele>416</ele>
        <time>2013-04-03T14:13:30Z</time>
      </trkpt>
      <trkpt lat="44.33893" lon="4.02409">
        <ele>416</ele>
        <time>2013-04-03T14:13:32Z</time>
      </trkpt>
      <trkpt lat="44.33891" lon="4.02409">
        <ele>416</ele>
        <time>2013-04-03T14:13:34Z</time>
      </trkpt>
      <trkpt lat="44.3389" lon="4.02408">
        <ele>416</ele>
        <time>2013-04-03T14:13:36Z</time>
      </trkpt>
      <trkpt lat="44.33888" lon="4.02407">
        <ele>416</ele>
        <time>2013-04-03T14:13:38Z</time>
      </trkpt>
      <trkpt lat="44.33887" lon="4.02405">
        <ele>416</ele>
        <time>2013-04-03T14:13:40Z</time>
      </trkpt>
      <trkpt lat="44.33885" lon="4.02403">
        <ele>416</ele>
        <time>2013-04-03T14:13:42Z</time>
      </trkpt>
      <trkpt lat="44.33884" lon="4.02402">
        <ele>415</ele>
        <time>2013-04-03T14:13:44Z</time>
      </trkpt>
      <trkpt lat="44.33883" lon="4.02401">
        <ele>415</ele>
        <time>2013-04-03T14:13:45Z</time>
      </trkpt>
      <trkpt lat="44.33881" lon="4.024">
        <ele>415</ele>
        <time>2013-04-03T14:13:48Z</time>
      </trkpt>
      <trkpt lat="44.3388" lon="4.02399">
        <ele>415</ele>
        <time>2013-04-03T14:13:50Z</time>
      </trkpt>
      <trkpt lat="44.33879" lon="4.02398">
        <ele>415</ele>
        <time>2013-04-03T14:13:52Z</time>
      </trkpt>
      <trkpt lat="44.33877" lon="4.02397">
        <ele>415</ele>
        <time>2013-04-03T14:13:54Z</time>
      </trkpt>
      <trkpt lat="44.33875" lon="4.02396">
        <ele>414</ele>
        <time>2013-04-03T14:13:56Z</time>
      </trkpt>
      <trkpt lat="44.33873" lon="4.02395">
        <ele>414</ele>
        <time>2013-04-03T14:13:58Z</time>
      </trkpt>
      <trkpt lat="44.33872" lon="4.02393">
        <ele>414</ele>
        <time>2013-04-03T14:14:00Z</time>
      </trkpt>
      <trkpt lat="44.3387" lon="4.02392">
        <ele>414</ele>
        <time>2013-04-03T14:14:02Z</time>
      </trkpt>
      <trkpt lat="44.33868" lon="4.0239">
        <ele>414</ele>
        <time>2013-04-03T14:14:04Z</time>
      </trkpt>
      <trkpt lat="44.33867" lon="4.02389">
        <ele>414</ele>
        <time>2013-04-03T14:14:06Z</time>
      </trkpt>
      <trkpt lat="44.33865" lon="4.02387">
        <ele>414</ele>
        <time>2013-04-03T14:14:08Z</time>
      </trkpt>
      <trkpt lat="44.33863" lon="4.02386">
        <ele>414</ele>
        <time>2013-04-03T14:14:10Z</time>
      </trkpt>
      <trkpt lat="44.33861" lon="4.02384">
        <ele>413</ele>
        <time>2013-04-03T14:14:12Z</time>
      </trkpt>
      <trkpt lat="44.3386" lon="4.02382">
        <ele>413</ele>
        <time>2013-04-03T14:14:14Z</time>
      </trkpt>
      <trkpt lat="44.33858" lon="4.0238">
        <ele>413</ele>
        <time>2013-04-03T14:14:16Z</time>
      </trkpt>
      <trkpt lat="44.33856" lon="4.02378">
        <ele>413</ele>
        <time>2013-04-03T14:14:18Z</time>
      </trkpt>
      <trkpt lat="44.33854" lon="4.02377">
        <ele>413</ele>
        <time>2013-04-03T14:14:20Z</time>
      </trkpt>
      <trkpt lat="44.33853" lon="4.02376">
        <ele>413</ele>
        <time>2013-04-03T14:14:22Z</time>
      </trkpt>
      <trkpt lat="44.33851" lon="4.02374">
        <ele>413</ele>
        <time>2013-04-03T14:14:24Z</time>
      </trkpt>
      <trkpt lat="44.3385" lon="4.02372">
        <ele>414</ele>
        <time>2013-04-03T14:14:26Z</time>
      </trkpt>
      <trkpt lat="44.33849" lon="4.0237">
        <ele>414</ele>
        <time>2013-04-03T14:14:28Z</time>
      </trkpt>
      <trkpt lat="44.33848" lon="4.02368">
        <ele>414</ele>
        <time>2013-04-03T14:14:30Z</time>
      </trkpt>
      <trkpt lat="44.33847" lon="4.02366">
        <ele>413</ele>
        <time>2013-04-03T14:14:32Z</time>
      </trkpt>
      <trkpt lat="44.33845" lon="4.02365">
        <ele>413</ele>
        <time>2013-04-03T14:14:34Z</time>
      </trkpt>
      <trkpt lat="44.33844" lon="4.02364">
        <ele>413</ele>
        <time>2013-04-03T14:14:36Z</time>
      </trkpt>
      <trkpt lat="44.33844" lon="4.02364">
        <ele>413</ele>
        <time>2013-04-03T14:14:38Z</time>
      </trkpt>
      <trkpt lat="44.33843" lon="4.02362">
        <ele>413</ele>
        <time>2013-04-03T14:14:40Z</time>
      </trkpt>
      <trkpt lat="44.33842" lon="4.02361">
        <ele>413</ele>
        <time>2013-04-03T14:14:42Z</time>
      </trkpt>
      <trkpt lat="44.33841" lon="4.02359">
        <ele>414</ele>
        <time>2013-04-03T14:14:44Z</time>
      </trkpt>
      <trkpt lat="44.33841" lon="4.02359">
        <ele>414</ele>
        <time>2013-04-03T14:14:46Z</time>
      </trkpt>
      <trkpt lat="44.3384" lon="4.02357">
        <ele>414</ele>
        <time>2013-04-03T14:14:47Z</time>
      </trkpt>
      <trkpt lat="44.33839" lon="4.02354">
        <ele>414</ele>
        <time>2013-04-03T14:14:50Z</time>
      </trkpt>
      <trkpt lat="44.33838" lon="4.02353">
        <ele>414</ele>
        <time>2013-04-03T14:14:52Z</time>
      </trkpt>
      <trkpt lat="44.33836" lon="4.02351">
        <ele>414</ele>
        <time>2013-04-03T14:14:54Z</time>
      </trkpt>
      <trkpt lat="44.33835" lon="4.0235">
        <ele>414</ele>
        <time>2013-04-03T14:14:56Z</time>
      </trkpt>
      <trkpt lat="44.33833" lon="4.02348">
        <ele>414</ele>
        <time>2013-04-03T14:14:58Z</time>
      </trkpt>
      <trkpt lat="44.33832" lon="4.02347">
        <ele>414</ele>
        <time>2013-04-03T14:15:00Z</time>
      </trkpt>
      <trkpt lat="44.3383" lon="4.02345">
        <ele>414</ele>
        <time>2013-04-03T14:15:02Z</time>
      </trkpt>
      <trkpt lat="44.3383" lon="4.02345">
        <ele>414</ele>
        <time>2013-04-03T14:15:04Z</time>
      </trkpt>
      <trkpt lat="44.3383" lon="4.02345">
        <ele>414</ele>
        <time>2013-04-03T14:15:06Z</time>
      </trkpt>
      <trkpt lat="44.33828" lon="4.02343">
        <ele>414</ele>
        <time>2013-04-03T14:15:08Z</time>
      </trkpt>
      <trkpt lat="44.33828" lon="4.02342">
        <ele>414</ele>
        <time>2013-04-03T14:15:10Z</time>
      </trkpt>
      <trkpt lat="44.33828" lon="4.02342">
        <ele>413</ele>
        <time>2013-04-03T14:15:12Z</time>
      </trkpt>
      <trkpt lat="44.33827" lon="4.02342">
        <ele>413</ele>
        <time>2013-04-03T14:15:14Z</time>
      </trkpt>
      <trkpt lat="44.33827" lon="4.02342">
        <ele>413</ele>
        <time>2013-04-03T14:15:16Z</time>
      </trkpt>
      <trkpt lat="44.33827" lon="4.02342">
        <ele>413</ele>
        <time>2013-04-03T14:15:18Z</time>
      </trkpt>
      <trkpt lat="44.33826" lon="4.02341">
        <ele>413</ele>
        <time>2013-04-03T14:15:20Z</time>
      </trkpt>
      <trkpt lat="44.33826" lon="4.0234">
        <ele>412</ele>
        <time>2013-04-03T14:15:22Z</time>
      </trkpt>
      <trkpt lat="44.33825" lon="4.02339">
        <ele>412</ele>
        <time>2013-04-03T14:15:24Z</time>
      </trkpt>
      <trkpt lat="44.33825" lon="4.02338">
        <ele>412</ele>
        <time>2013-04-03T14:15:26Z</time>
      </trkpt>
      <trkpt lat="44.33823" lon="4.02337">
        <ele>412</ele>
        <time>2013-04-03T14:15:28Z</time>
      </trkpt>
      <trkpt lat="44.33823" lon="4.02335">
        <ele>412</ele>
        <time>2013-04-03T14:15:30Z</time>
      </trkpt>
      <trkpt lat="44.33821" lon="4.02334">
        <ele>412</ele>
        <time>2013-04-03T14:15:32Z</time>
      </trkpt>
      <trkpt lat="44.3382" lon="4.02333">
        <ele>412</ele>
        <time>2013-04-03T14:15:34Z</time>
      </trkpt>
      <trkpt lat="44.33819" lon="4.02333">
        <ele>412</ele>
        <time>2013-04-03T14:15:36Z</time>
      </trkpt>
      <trkpt lat="44.33819" lon="4.02332">
        <ele>412</ele>
        <time>2013-04-03T14:15:38Z</time>
      </trkpt>
      <trkpt lat="44.33819" lon="4.02332">
        <ele>412</ele>
        <time>2013-04-03T14:15:40Z</time>
      </trkpt>
      <trkpt lat="44.33819" lon="4.02332">
        <ele>412</ele>
        <time>2013-04-03T14:15:42Z</time>
      </trkpt>
      <trkpt lat="44.33818" lon="4.02332">
        <ele>411</ele>
        <time>2013-04-03T14:15:44Z</time>
      </trkpt>
      <trkpt lat="44.33818" lon="4.02332">
        <ele>411</ele>
        <time>2013-04-03T14:15:46Z</time>
      </trkpt>
      <trkpt lat="44.33818" lon="4.02331">
        <ele>411</ele>
        <time>2013-04-03T14:15:48Z</time>
      </trkpt>
      <trkpt lat="44.33818" lon="4.02331">
        <ele>411</ele>
        <time>2013-04-03T14:15:49Z</time>
      </trkpt>
      <trkpt lat="44.33817" lon="4.02331">
        <ele>410</ele>
        <time>2013-04-03T14:15:52Z</time>
      </trkpt>
      <trkpt lat="44.33817" lon="4.02331">
        <ele>410</ele>
        <time>2013-04-03T14:15:54Z</time>
      </trkpt>
      <trkpt lat="44.33817" lon="4.02329">
        <ele>410</ele>
        <time>2013-04-03T14:15:56Z</time>
      </trkpt>
      <trkpt lat="44.33817" lon="4.02329">
        <ele>410</ele>
        <time>2013-04-03T14:15:58Z</time>
      </trkpt>
      <trkpt lat="44.33815" lon="4.02328">
        <ele>410</ele>
        <time>2013-04-03T14:16:00Z</time>
      </trkpt>
      <trkpt lat="44.33814" lon="4.02328">
        <ele>410</ele>
        <time>2013-04-03T14:16:02Z</time>
      </trkpt>
      <trkpt lat="44.33814" lon="4.02328">
        <ele>410</ele>
        <time>2013-04-03T14:16:04Z</time>
      </trkpt>
      <trkpt lat="44.33813" lon="4.02327">
        <ele>410</ele>
        <time>2013-04-03T14:16:06Z</time>
      </trkpt>
      <trkpt lat="44.33813" lon="4.02326">
        <ele>410</ele>
        <time>2013-04-03T14:16:08Z</time>
      </trkpt>
      <trkpt lat="44.33811" lon="4.02324">
        <ele>410</ele>
        <time>2013-04-03T14:16:10Z</time>
      </trkpt>
      <trkpt lat="44.3381" lon="4.02324">
        <ele>411</ele>
        <time>2013-04-03T14:16:12Z</time>
      </trkpt>
      <trkpt lat="44.33808" lon="4.02324">
        <ele>410</ele>
        <time>2013-04-03T14:16:14Z</time>
      </trkpt>
      <trkpt lat="44.33808" lon="4.02324">
        <ele>410</ele>
        <time>2013-04-03T14:16:16Z</time>
      </trkpt>
      <trkpt lat="44.33807" lon="4.02323">
        <ele>410</ele>
        <time>2013-04-03T14:16:18Z</time>
      </trkpt>
      <trkpt lat="44.33806" lon="4.02323">
        <ele>410</ele>
        <time>2013-04-03T14:16:20Z</time>
      </trkpt>
      <trkpt lat="44.33804" lon="4.02322">
        <ele>409</ele>
        <time>2013-04-03T14:16:22Z</time>
      </trkpt>
      <trkpt lat="44.33804" lon="4.02321">
        <ele>409</ele>
        <time>2013-04-03T14:16:24Z</time>
      </trkpt>
      <trkpt lat="44.33802" lon="4.02321">
        <ele>409</ele>
        <time>2013-04-03T14:16:26Z</time>
      </trkpt>
      <trkpt lat="44.33801" lon="4.0232">
        <ele>410</ele>
        <time>2013-04-03T14:16:27Z</time>
      </trkpt>
      <trkpt lat="44.338" lon="4.0232">
        <ele>409</ele>
        <time>2013-04-03T14:16:29Z</time>
      </trkpt>
      <trkpt lat="44.33798" lon="4.02319">
        <ele>409</ele>
        <time>2013-04-03T14:16:31Z</time>
      </trkpt>
      <trkpt lat="44.33798" lon="4.02319">
        <ele>409</ele>
        <time>2013-04-03T14:16:33Z</time>
      </trkpt>
      <trkpt lat="44.33797" lon="4.02319">
        <ele>409</ele>
        <time>2013-04-03T14:16:35Z</time>
      </trkpt>
      <trkpt lat="44.33797" lon="4.02319">
        <ele>409</ele>
        <time>2013-04-03T14:16:37Z</time>
      </trkpt>
      <trkpt lat="44.33794" lon="4.02319">
        <ele>409</ele>
        <time>2013-04-03T14:16:39Z</time>
      </trkpt>
      <trkpt lat="44.33792" lon="4.02319">
        <ele>408</ele>
        <time>2013-04-03T14:16:41Z</time>
      </trkpt>
      <trkpt lat="44.3379" lon="4.02318">
        <ele>408</ele>
        <time>2013-04-03T14:16:43Z</time>
      </trkpt>
      <trkpt lat="44.33788" lon="4.02319">
        <ele>407</ele>
        <time>2013-04-03T14:16:45Z</time>
      </trkpt>
      <trkpt lat="44.33786" lon="4.02319">
        <ele>407</ele>
        <time>2013-04-03T14:16:47Z</time>
      </trkpt>
      <trkpt lat="44.33785" lon="4.02319">
        <ele>406</ele>
        <time>2013-04-03T14:16:49Z</time>
      </trkpt>
      <trkpt lat="44.33781" lon="4.0232">
        <ele>406</ele>
        <time>2013-04-03T14:16:51Z</time>
      </trkpt>
      <trkpt lat="44.3378" lon="4.0232">
        <ele>406</ele>
        <time>2013-04-03T14:16:52Z</time>
      </trkpt>
      <trkpt lat="44.33778" lon="4.02321">
        <ele>405</ele>
        <time>2013-04-03T14:16:55Z</time>
      </trkpt>
      <trkpt lat="44.33777" lon="4.02321">
        <ele>405</ele>
        <time>2013-04-03T14:16:57Z</time>
      </trkpt>
      <trkpt lat="44.33777" lon="4.02321">
        <ele>405</ele>
        <time>2013-04-03T14:16:59Z</time>
      </trkpt>
      <trkpt lat="44.33777" lon="4.02321">
        <ele>405</ele>
        <time>2013-04-03T14:17:00Z</time>
      </trkpt>
      <trkpt lat="44.33775" lon="4.02321">
        <ele>405</ele>
        <time>2013-04-03T14:17:02Z</time>
      </trkpt>
      <trkpt lat="44.33774" lon="4.02321">
        <ele>404</ele>
        <time>2013-04-03T14:17:04Z</time>
      </trkpt>
      <trkpt lat="44.33772" lon="4.02322">
        <ele>403</ele>
        <time>2013-04-03T14:17:06Z</time>
      </trkpt>
      <trkpt lat="44.33769" lon="4.02323">
        <ele>403</ele>
        <time>2013-04-03T14:17:08Z</time>
      </trkpt>
      <trkpt lat="44.33767" lon="4.02324">
        <ele>402</ele>
        <time>2013-04-03T14:17:10Z</time>
      </trkpt>
      <trkpt lat="44.33764" lon="4.02325">
        <ele>402</ele>
        <time>2013-04-03T14:17:12Z</time>
      </trkpt>
      <trkpt lat="44.33762" lon="4.02325">
        <ele>401</ele>
        <time>2013-04-03T14:17:14Z</time>
      </trkpt>
      <trkpt lat="44.33761" lon="4.02325">
        <ele>401</ele>
        <time>2013-04-03T14:17:16Z</time>
      </trkpt>
      <trkpt lat="44.3376" lon="4.02326">
        <ele>400</ele>
        <time>2013-04-03T14:17:18Z</time>
      </trkpt>
      <trkpt lat="44.33759" lon="4.02327">
        <ele>400</ele>
        <time>2013-04-03T14:17:20Z</time>
      </trkpt>
      <trkpt lat="44.33758" lon="4.02329">
        <ele>400</ele>
        <time>2013-04-03T14:17:22Z</time>
      </trkpt>
      <trkpt lat="44.33756" lon="4.02329">
        <ele>400</ele>
        <time>2013-04-03T14:17:24Z</time>
      </trkpt>
      <trkpt lat="44.33755" lon="4.02329">
        <ele>400</ele>
        <time>2013-04-03T14:17:26Z</time>
      </trkpt>
      <trkpt lat="44.33754" lon="4.0233">
        <ele>400</ele>
        <time>2013-04-03T14:17:28Z</time>
      </trkpt>
      <trkpt lat="44.33752" lon="4.02331">
        <ele>400</ele>
        <time>2013-04-03T14:17:30Z</time>
      </trkpt>
      <trkpt lat="44.33752" lon="4.02331">
        <ele>401</ele>
        <time>2013-04-03T14:17:32Z</time>
      </trkpt>
      <trkpt lat="44.33751" lon="4.02332">
        <ele>401</ele>
        <time>2013-04-03T14:17:34Z</time>
      </trkpt>
      <trkpt lat="44.3375" lon="4.02332">
        <ele>401</ele>
        <time>2013-04-03T14:17:36Z</time>
      </trkpt>
      <trkpt lat="44.33749" lon="4.02333">
        <ele>402</ele>
        <time>2013-04-03T14:17:38Z</time>
      </trkpt>
      <trkpt lat="44.33748" lon="4.02335">
        <ele>402</ele>
        <time>2013-04-03T14:17:40Z</time>
      </trkpt>
      <trkpt lat="44.33747" lon="4.02335">
        <ele>402</ele>
        <time>2013-04-03T14:17:42Z</time>
      </trkpt>
      <trkpt lat="44.33745" lon="4.02337">
        <ele>402</ele>
        <time>2013-04-03T14:17:44Z</time>
      </trkpt>
      <trkpt lat="44.33742" lon="4.02338">
        <ele>402</ele>
        <time>2013-04-03T14:17:46Z</time>
      </trkpt>
      <trkpt lat="44.33741" lon="4.02338">
        <ele>402</ele>
        <time>2013-04-03T14:17:48Z</time>
      </trkpt>
      <trkpt lat="44.33741" lon="4.02339">
        <ele>401</ele>
        <time>2013-04-03T14:17:50Z</time>
      </trkpt>
      <trkpt lat="44.3374" lon="4.0234">
        <ele>400</ele>
        <time>2013-04-03T14:17:52Z</time>
      </trkpt>
      <trkpt lat="44.33737" lon="4.02341">
        <ele>400</ele>
        <time>2013-04-03T14:17:54Z</time>
      </trkpt>
      <trkpt lat="44.33736" lon="4.02341">
        <ele>400</ele>
        <time>2013-04-03T14:17:55Z</time>
      </trkpt>
      <trkpt lat="44.33735" lon="4.02342">
        <ele>400</ele>
        <time>2013-04-03T14:17:58Z</time>
      </trkpt>
      <trkpt lat="44.33734" lon="4.02343">
        <ele>400</ele>
        <time>2013-04-03T14:17:59Z</time>
      </trkpt>
      <trkpt lat="44.33734" lon="4.02343">
        <ele>400</ele>
        <time>2013-04-03T14:18:00Z</time>
      </trkpt>
      <trkpt lat="44.33732" lon="4.02344">
        <ele>400</ele>
        <time>2013-04-03T14:18:02Z</time>
      </trkpt>
      <trkpt lat="44.33732" lon="4.02344">
        <ele>400</ele>
        <time>2013-04-03T14:18:04Z</time>
      </trkpt>
      <trkpt lat="44.33732" lon="4.02344">
        <ele>399</ele>
        <time>2013-04-03T14:18:06Z</time>
      </trkpt>
      <trkpt lat="44.33732" lon="4.02345">
        <ele>400</ele>
        <time>2013-04-03T14:18:08Z</time>
      </trkpt>
      <trkpt lat="44.3373" lon="4.02345">
        <ele>400</ele>
        <time>2013-04-03T14:18:10Z</time>
      </trkpt>
      <trkpt lat="44.33729" lon="4.02346">
        <ele>400</ele>
        <time>2013-04-03T14:18:12Z</time>
      </trkpt>
      <trkpt lat="44.33728" lon="4.02347">
        <ele>400</ele>
        <time>2013-04-03T14:18:14Z</time>
      </trkpt>
      <trkpt lat="44.33726" lon="4.02349">
        <ele>400</ele>
        <time>2013-04-03T14:18:16Z</time>
      </trkpt>
      <trkpt lat="44.33725" lon="4.02349">
        <ele>399</ele>
        <time>2013-04-03T14:18:18Z</time>
      </trkpt>
      <trkpt lat="44.33725" lon="4.0235">
        <ele>399</ele>
        <time>2013-04-03T14:18:20Z</time>
      </trkpt>
      <trkpt lat="44.33723" lon="4.02351">
        <ele>399</ele>
        <time>2013-04-03T14:18:22Z</time>
      </trkpt>
      <trkpt lat="44.33723" lon="4.02351">
        <ele>399</ele>
        <time>2013-04-03T14:18:24Z</time>
      </trkpt>
      <trkpt lat="44.33722" lon="4.02351">
        <ele>399</ele>
        <time>2013-04-03T14:18:26Z</time>
      </trkpt>
      <trkpt lat="44.3372" lon="4.02352">
        <ele>397</ele>
        <time>2013-04-03T14:18:28Z</time>
      </trkpt>
      <trkpt lat="44.33717" lon="4.02353">
        <ele>396</ele>
        <time>2013-04-03T14:18:30Z</time>
      </trkpt>
      <trkpt lat="44.33714" lon="4.02354">
        <ele>395</ele>
        <time>2013-04-03T14:18:32Z</time>
      </trkpt>
      <trkpt lat="44.33711" lon="4.02355">
        <ele>395</ele>
        <time>2013-04-03T14:18:34Z</time>
      </trkpt>
      <trkpt lat="44.33711" lon="4.02356">
        <ele>395</ele>
        <time>2013-04-03T14:18:36Z</time>
      </trkpt>
      <trkpt lat="44.33709" lon="4.02357">
        <ele>394</ele>
        <time>2013-04-03T14:18:38Z</time>
      </trkpt>
      <trkpt lat="44.33707" lon="4.02358">
        <ele>393</ele>
        <time>2013-04-03T14:18:40Z</time>
      </trkpt>
      <trkpt lat="44.33705" lon="4.02359">
        <ele>393</ele>
        <time>2013-04-03T14:18:42Z</time>
      </trkpt>
      <trkpt lat="44.33703" lon="4.02361">
        <ele>393</ele>
        <time>2013-04-03T14:18:44Z</time>
      </trkpt>
      <trkpt lat="44.337" lon="4.02362">
        <ele>392</ele>
        <time>2013-04-03T14:18:46Z</time>
      </trkpt>
      <trkpt lat="44.33699" lon="4.02362">
        <ele>391</ele>
        <time>2013-04-03T14:18:48Z</time>
      </trkpt>
      <trkpt lat="44.33698" lon="4.02362">
        <ele>391</ele>
        <time>2013-04-03T14:18:50Z</time>
      </trkpt>
      <trkpt lat="44.33697" lon="4.02364">
        <ele>391</ele>
        <time>2013-04-03T14:18:52Z</time>
      </trkpt>
      <trkpt lat="44.33696" lon="4.02365">
        <ele>391</ele>
        <time>2013-04-03T14:18:54Z</time>
      </trkpt>
      <trkpt lat="44.33695" lon="4.02365">
        <ele>391</ele>
        <time>2013-04-03T14:18:56Z</time>
      </trkpt>
      <trkpt lat="44.33694" lon="4.02365">
        <ele>391</ele>
        <time>2013-04-03T14:18:57Z</time>
      </trkpt>
      <trkpt lat="44.33693" lon="4.02367">
        <ele>390</ele>
        <time>2013-04-03T14:18:59Z</time>
      </trkpt>
      <trkpt lat="44.33692" lon="4.02368">
        <ele>389</ele>
        <time>2013-04-03T14:19:00Z</time>
      </trkpt>
      <trkpt lat="44.33692" lon="4.02368">
        <ele>389</ele>
        <time>2013-04-03T14:19:02Z</time>
      </trkpt>
      <trkpt lat="44.33691" lon="4.0237">
        <ele>389</ele>
        <time>2013-04-03T14:19:04Z</time>
      </trkpt>
      <trkpt lat="44.33688" lon="4.02372">
        <ele>388</ele>
        <time>2013-04-03T14:19:06Z</time>
      </trkpt>
      <trkpt lat="44.33688" lon="4.02372">
        <ele>388</ele>
        <time>2013-04-03T14:19:08Z</time>
      </trkpt>
      <trkpt lat="44.33687" lon="4.02373">
        <ele>388</ele>
        <time>2013-04-03T14:19:10Z</time>
      </trkpt>
      <trkpt lat="44.33685" lon="4.02375">
        <ele>388</ele>
        <time>2013-04-03T14:19:12Z</time>
      </trkpt>
      <trkpt lat="44.33683" lon="4.02377">
        <ele>388</ele>
        <time>2013-04-03T14:19:14Z</time>
      </trkpt>
      <trkpt lat="44.33682" lon="4.02377">
        <ele>388</ele>
        <time>2013-04-03T14:19:16Z</time>
      </trkpt>
      <trkpt lat="44.3368" lon="4.02378">
        <ele>387</ele>
        <time>2013-04-03T14:19:18Z</time>
      </trkpt>
      <trkpt lat="44.33678" lon="4.02379">
        <ele>387</ele>
        <time>2013-04-03T14:19:20Z</time>
      </trkpt>
      <trkpt lat="44.33677" lon="4.0238">
        <ele>386</ele>
        <time>2013-04-03T14:19:22Z</time>
      </trkpt>
      <trkpt lat="44.33675" lon="4.02381">
        <ele>386</ele>
        <time>2013-04-03T14:19:24Z</time>
      </trkpt>
      <trkpt lat="44.33675" lon="4.02382">
        <ele>386</ele>
        <time>2013-04-03T14:19:26Z</time>
      </trkpt>
      <trkpt lat="44.33673" lon="4.02384">
        <ele>386</ele>
        <time>2013-04-03T14:19:28Z</time>
      </trkpt>
      <trkpt lat="44.33672" lon="4.02386">
        <ele>387</ele>
        <time>2013-04-03T14:19:30Z</time>
      </trkpt>
      <trkpt lat="44.33671" lon="4.02386">
        <ele>387</ele>
        <time>2013-04-03T14:19:32Z</time>
      </trkpt>
      <trkpt lat="44.33669" lon="4.02388">
        <ele>387</ele>
        <time>2013-04-03T14:19:34Z</time>
      </trkpt>
      <trkpt lat="44.33668" lon="4.0239">
        <ele>387</ele>
        <time>2013-04-03T14:19:36Z</time>
      </trkpt>
      <trkpt lat="44.33668" lon="4.0239">
        <ele>387</ele>
        <time>2013-04-03T14:19:38Z</time>
      </trkpt>
      <trkpt lat="44.33667" lon="4.0239">
        <ele>386</ele>
        <time>2013-04-03T14:19:40Z</time>
      </trkpt>
      <trkpt lat="44.33666" lon="4.02392">
        <ele>387</ele>
        <time>2013-04-03T14:19:42Z</time>
      </trkpt>
      <trkpt lat="44.33664" lon="4.02394">
        <ele>387</ele>
        <time>2013-04-03T14:19:44Z</time>
      </trkpt>
      <trkpt lat="44.33664" lon="4.02394">
        <ele>387</ele>
        <time>2013-04-03T14:19:46Z</time>
      </trkpt>
      <trkpt lat="44.33664" lon="4.02394">
        <ele>387</ele>
        <time>2013-04-03T14:19:48Z</time>
      </trkpt>
      <trkpt lat="44.33664" lon="4.02394">
        <ele>387</ele>
        <time>2013-04-03T14:19:50Z</time>
      </trkpt>
      <trkpt lat="44.33663" lon="4.02396">
        <ele>386</ele>
        <time>2013-04-03T14:19:52Z</time>
      </trkpt>
      <trkpt lat="44.33662" lon="4.02397">
        <ele>386</ele>
        <time>2013-04-03T14:19:54Z</time>
      </trkpt>
      <trkpt lat="44.33662" lon="4.02397">
        <ele>386</ele>
        <time>2013-04-03T14:19:56Z</time>
      </trkpt>
      <trkpt lat="44.33661" lon="4.02398">
        <ele>386</ele>
        <time>2013-04-03T14:19:58Z</time>
      </trkpt>
      <trkpt lat="44.33661" lon="4.02398">
        <ele>386</ele>
        <time>2013-04-03T14:19:59Z</time>
      </trkpt>
      <trkpt lat="44.33661" lon="4.02398">
        <ele>386</ele>
        <time>2013-04-03T14:20:00Z</time>
      </trkpt>
      <trkpt lat="44.33659" lon="4.02399">
        <ele>386</ele>
        <time>2013-04-03T14:20:02Z</time>
      </trkpt>
      <trkpt lat="44.33659" lon="4.02401">
        <ele>385</ele>
        <time>2013-04-03T14:20:04Z</time>
      </trkpt>
      <trkpt lat="44.33659" lon="4.02402">
        <ele>385</ele>
        <time>2013-04-03T14:20:06Z</time>
      </trkpt>
      <trkpt lat="44.33657" lon="4.02403">
        <ele>385</ele>
        <time>2013-04-03T14:20:08Z</time>
      </trkpt>
      <trkpt lat="44.33656" lon="4.02406">
        <ele>384</ele>
        <time>2013-04-03T14:20:10Z</time>
      </trkpt>
      <trkpt lat="44.33654" lon="4.02409">
        <ele>383</ele>
        <time>2013-04-03T14:20:12Z</time>
      </trkpt>
      <trkpt lat="44.33652" lon="4.0241">
        <ele>382</ele>
        <time>2013-04-03T14:20:14Z</time>
      </trkpt>
      <trkpt lat="44.33651" lon="4.02411">
        <ele>380</ele>
        <time>2013-04-03T14:20:16Z</time>
      </trkpt>
      <trkpt lat="44.33651" lon="4.0241">
        <ele>379</ele>
        <time>2013-04-03T14:20:18Z</time>
      </trkpt>
      <trkpt lat="44.3365" lon="4.02409">
        <ele>379</ele>
        <time>2013-04-03T14:20:20Z</time>
      </trkpt>
      <trkpt lat="44.33648" lon="4.02409">
        <ele>378</ele>
        <time>2013-04-03T14:20:22Z</time>
      </trkpt>
      <trkpt lat="44.33647" lon="4.02409">
        <ele>378</ele>
        <time>2013-04-03T14:20:24Z</time>
      </trkpt>
      <trkpt lat="44.33647" lon="4.02409">
        <ele>378</ele>
        <time>2013-04-03T14:20:26Z</time>
      </trkpt>
      <trkpt lat="44.33647" lon="4.02409">
        <ele>378</ele>
        <time>2013-04-03T14:20:28Z</time>
      </trkpt>
      <trkpt lat="44.33647" lon="4.02408">
        <ele>376</ele>
        <time>2013-04-03T14:20:30Z</time>
      </trkpt>
      <trkpt lat="44.33647" lon="4.02407">
        <ele>375</ele>
        <time>2013-04-03T14:20:32Z</time>
      </trkpt>
      <trkpt lat="44.33647" lon="4.02407">
        <ele>375</ele>
        <time>2013-04-03T14:20:34Z</time>
      </trkpt>
      <trkpt lat="44.33646" lon="4.02406">
        <ele>375</ele>
        <time>2013-04-03T14:20:36Z</time>
      </trkpt>
      <trkpt lat="44.33647" lon="4.02405">
        <ele>375</ele>
        <time>2013-04-03T14:20:38Z</time>
      </trkpt>
      <trkpt lat="44.33647" lon="4.02405">
        <ele>375</ele>
        <time>2013-04-03T14:20:40Z</time>
      </trkpt>
      <trkpt lat="44.33647" lon="4.02405">
        <ele>375</ele>
        <time>2013-04-03T14:20:42Z</time>
      </trkpt>
      <trkpt lat="44.33647" lon="4.02405">
        <ele>375</ele>
        <time>2013-04-03T14:20:44Z</time>
      </trkpt>
      <trkpt lat="44.33649" lon="4.02404">
        <ele>375</ele>
        <time>2013-04-03T14:20:46Z</time>
      </trkpt>
      <trkpt lat="44.3365" lon="4.02403">
        <ele>375</ele>
        <time>2013-04-03T14:20:48Z</time>
      </trkpt>
      <trkpt lat="44.3365" lon="4.024">
        <ele>375</ele>
        <time>2013-04-03T14:20:50Z</time>
      </trkpt>
      <trkpt lat="44.33651" lon="4.02398">
        <ele>375</ele>
        <time>2013-04-03T14:20:52Z</time>
      </trkpt>
      <trkpt lat="44.3365" lon="4.02397">
        <ele>374</ele>
        <time>2013-04-03T14:20:54Z</time>
      </trkpt>
      <trkpt lat="44.33649" lon="4.02394">
        <ele>374</ele>
        <time>2013-04-03T14:20:56Z</time>
      </trkpt>
      <trkpt lat="44.33649" lon="4.02394">
        <ele>374</ele>
        <time>2013-04-03T14:20:58Z</time>
      </trkpt>
      <trkpt lat="44.33649" lon="4.02394">
        <ele>374</ele>
        <time>2013-04-03T14:20:59Z</time>
      </trkpt>
      <trkpt lat="44.33649" lon="4.02393">
        <ele>374</ele>
        <time>2013-04-03T14:21:00Z</time>
      </trkpt>
      <trkpt lat="44.33649" lon="4.02392">
        <ele>374</ele>
        <time>2013-04-03T14:21:02Z</time>
      </trkpt>
      <trkpt lat="44.33649" lon="4.02391">
        <ele>374</ele>
        <time>2013-04-03T14:21:04Z</time>
      </trkpt>
      <trkpt lat="44.3365" lon="4.02388">
        <ele>373</ele>
        <time>2013-04-03T14:21:06Z</time>
      </trkpt>
      <trkpt lat="44.3365" lon="4.02386">
        <ele>373</ele>
        <time>2013-04-03T14:21:08Z</time>
      </trkpt>
      <trkpt lat="44.33651" lon="4.02384">
        <ele>372</ele>
        <time>2013-04-03T14:21:10Z</time>
      </trkpt>
      <trkpt lat="44.33651" lon="4.02383">
        <ele>372</ele>
        <time>2013-04-03T14:21:12Z</time>
      </trkpt>
      <trkpt lat="44.33651" lon="4.02382">
        <ele>372</ele>
        <time>2013-04-03T14:21:14Z</time>
      </trkpt>
      <trkpt lat="44.33651" lon="4.02382">
        <ele>372</ele>
        <time>2013-04-03T14:21:16Z</time>
      </trkpt>
      <trkpt lat="44.33651" lon="4.02379">
        <ele>372</ele>
        <time>2013-04-03T14:21:18Z</time>
      </trkpt>
      <trkpt lat="44.33651" lon="4.02379">
        <ele>372</ele>
        <time>2013-04-03T14:21:20Z</time>
      </trkpt>
      <trkpt lat="44.33652" lon="4.02378">
        <ele>372</ele>
        <time>2013-04-03T14:21:22Z</time>
      </trkpt>
      <trkpt lat="44.33652" lon="4.02376">
        <ele>372</ele>
        <time>2013-04-03T14:21:24Z</time>
      </trkpt>
      <trkpt lat="44.33653" lon="4.02375">
        <ele>373</ele>
        <time>2013-04-03T14:21:26Z</time>
      </trkpt>
      <trkpt lat="44.33653" lon="4.02373">
        <ele>372</ele>
        <time>2013-04-03T14:21:28Z</time>
      </trkpt>
      <trkpt lat="44.33654" lon="4.02371">
        <ele>373</ele>
        <time>2013-04-03T14:21:30Z</time>
      </trkpt>
      <trkpt lat="44.33654" lon="4.02369">
        <ele>373</ele>
        <time>2013-04-03T14:21:32Z</time>
      </trkpt>
      <trkpt lat="44.33654" lon="4.02367">
        <ele>373</ele>
        <time>2013-04-03T14:21:34Z</time>
      </trkpt>
      <trkpt lat="44.33655" lon="4.02364">
        <ele>372</ele>
        <time>2013-04-03T14:21:36Z</time>
      </trkpt>
      <trkpt lat="44.33655" lon="4.02363">
        <ele>372</ele>
        <time>2013-04-03T14:21:38Z</time>
      </trkpt>
      <trkpt lat="44.33655" lon="4.02361">
        <ele>372</ele>
        <time>2013-04-03T14:21:40Z</time>
      </trkpt>
      <trkpt lat="44.33655" lon="4.0236">
        <ele>372</ele>
        <time>2013-04-03T14:21:42Z</time>
      </trkpt>
      <trkpt lat="44.33656" lon="4.02357">
        <ele>370</ele>
        <time>2013-04-03T14:21:44Z</time>
      </trkpt>
      <trkpt lat="44.33656" lon="4.02355">
        <ele>370</ele>
        <time>2013-04-03T14:21:46Z</time>
      </trkpt>
      <trkpt lat="44.33656" lon="4.02355">
        <ele>370</ele>
        <time>2013-04-03T14:21:48Z</time>
      </trkpt>
      <trkpt lat="44.33657" lon="4.02354">
        <ele>370</ele>
        <time>2013-04-03T14:21:50Z</time>
      </trkpt>
      <trkpt lat="44.33658" lon="4.02352">
        <ele>368</ele>
        <time>2013-04-03T14:21:52Z</time>
      </trkpt>
      <trkpt lat="44.33658" lon="4.0235">
        <ele>368</ele>
        <time>2013-04-03T14:21:54Z</time>
      </trkpt>
      <trkpt lat="44.33659" lon="4.02348">
        <ele>366</ele>
        <time>2013-04-03T14:21:56Z</time>
      </trkpt>
      <trkpt lat="44.33659" lon="4.02344">
        <ele>367</ele>
        <time>2013-04-03T14:21:58Z</time>
      </trkpt>
      <trkpt lat="44.3366" lon="4.02343">
        <ele>366</ele>
        <time>2013-04-03T14:21:59Z</time>
      </trkpt>
      <trkpt lat="44.3366" lon="4.02342">
        <ele>366</ele>
        <time>2013-04-03T14:22:00Z</time>
      </trkpt>
      <trkpt lat="44.3366" lon="4.0234">
        <ele>366</ele>
        <time>2013-04-03T14:22:02Z</time>
      </trkpt>
      <trkpt lat="44.3366" lon="4.02339">
        <ele>366</ele>
        <time>2013-04-03T14:22:03Z</time>
      </trkpt>
      <trkpt lat="44.33659" lon="4.02339">
        <ele>367</ele>
        <time>2013-04-03T14:22:06Z</time>
      </trkpt>
      <trkpt lat="44.3366" lon="4.02337">
        <ele>368</ele>
        <time>2013-04-03T14:22:08Z</time>
      </trkpt>
      <trkpt lat="44.3366" lon="4.02336">
        <ele>367</ele>
        <time>2013-04-03T14:22:10Z</time>
      </trkpt>
      <trkpt lat="44.3366" lon="4.02336">
        <ele>367</ele>
        <time>2013-04-03T14:22:12Z</time>
      </trkpt>
      <trkpt lat="44.33661" lon="4.02334">
        <ele>367</ele>
        <time>2013-04-03T14:22:14Z</time>
      </trkpt>
      <trkpt lat="44.33661" lon="4.02334">
        <ele>367</ele>
        <time>2013-04-03T14:22:16Z</time>
      </trkpt>
      <trkpt lat="44.33661" lon="4.02334">
        <ele>367</ele>
        <time>2013-04-03T14:22:18Z</time>
      </trkpt>
      <trkpt lat="44.33661" lon="4.02333">
        <ele>367</ele>
        <time>2013-04-03T14:22:20Z</time>
      </trkpt>
      <trkpt lat="44.33661" lon="4.02331">
        <ele>366</ele>
        <time>2013-04-03T14:22:22Z</time>
      </trkpt>
      <trkpt lat="44.33661" lon="4.0233">
        <ele>366</ele>
        <time>2013-04-03T14:22:24Z</time>
      </trkpt>
      <trkpt lat="44.33661" lon="4.0233">
        <ele>366</ele>
        <time>2013-04-03T14:22:26Z</time>
      </trkpt>
      <trkpt lat="44.33661" lon="4.0233">
        <ele>366</ele>
        <time>2013-04-03T14:22:28Z</time>
      </trkpt>
      <trkpt lat="44.33661" lon="4.02326">
        <ele>365</ele>
        <time>2013-04-03T14:22:30Z</time>
      </trkpt>
      <trkpt lat="44.33661" lon="4.02324">
        <ele>365</ele>
        <time>2013-04-03T14:22:32Z</time>
      </trkpt>
      <trkpt lat="44.33661" lon="4.02323">
        <ele>365</ele>
        <time>2013-04-03T14:22:34Z</time>
      </trkpt>
      <trkpt lat="44.33662" lon="4.02321">
        <ele>365</ele>
        <time>2013-04-03T14:22:36Z</time>
      </trkpt>
      <trkpt lat="44.33662" lon="4.02321">
        <ele>365</ele>
        <time>2013-04-03T14:22:38Z</time>
      </trkpt>
      <trkpt lat="44.33662" lon="4.0232">
        <ele>365</ele>
        <time>2013-04-03T14:22:40Z</time>
      </trkpt>
      <trkpt lat="44.33662" lon="4.0232">
        <ele>365</ele>
        <time>2013-04-03T14:22:42Z</time>
      </trkpt>
      <trkpt lat="44.33662" lon="4.0232">
        <ele>364</ele>
        <time>2013-04-03T14:22:44Z</time>
      </trkpt>
      <trkpt lat="44.33662" lon="4.0232">
        <ele>364</ele>
        <time>2013-04-03T14:22:46Z</time>
      </trkpt>
      <trkpt lat="44.33662" lon="4.02319">
        <ele>364</ele>
        <time>2013-04-03T14:22:48Z</time>
      </trkpt>
      <trkpt lat="44.33663" lon="4.02318">
        <ele>364</ele>
        <time>2013-04-03T14:22:50Z</time>
      </trkpt>
      <trkpt lat="44.33663" lon="4.02317">
        <ele>363</ele>
        <time>2013-04-03T14:22:52Z</time>
      </trkpt>
      <trkpt lat="44.33663" lon="4.02316">
        <ele>363</ele>
        <time>2013-04-03T14:22:54Z</time>
      </trkpt>
      <trkpt lat="44.33664" lon="4.02314">
        <ele>364</ele>
        <time>2013-04-03T14:22:56Z</time>
      </trkpt>
      <trkpt lat="44.33664" lon="4.02314">
        <ele>364</ele>
        <time>2013-04-03T14:22:58Z</time>
      </trkpt>
      <trkpt lat="44.33664" lon="4.02313">
        <ele>364</ele>
        <time>2013-04-03T14:22:59Z</time>
      </trkpt>
      <trkpt lat="44.33664" lon="4.02312">
        <ele>364</ele>
        <time>2013-04-03T14:23:00Z</time>
      </trkpt>
      <trkpt lat="44.33665" lon="4.0231">
        <ele>364</ele>
        <time>2013-04-03T14:23:02Z</time>
      </trkpt>
      <trkpt lat="44.33665" lon="4.0231">
        <ele>364</ele>
        <time>2013-04-03T14:23:04Z</time>
      </trkpt>
      <trkpt lat="44.33665" lon="4.0231">
        <ele>364</ele>
        <time>2013-04-03T14:23:05Z</time>
      </trkpt>
      <trkpt lat="44.33665" lon="4.0231">
        <ele>364</ele>
        <time>2013-04-03T14:23:08Z</time>
      </trkpt>
      <trkpt lat="44.33665" lon="4.02307">
        <ele>364</ele>
        <time>2013-04-03T14:23:10Z</time>
      </trkpt>
      <trkpt lat="44.33665" lon="4.02307">
        <ele>364</ele>
        <time>2013-04-03T14:23:12Z</time>
      </trkpt>
      <trkpt lat="44.33665" lon="4.02307">
        <ele>364</ele>
        <time>2013-04-03T14:23:14Z</time>
      </trkpt>
      <trkpt lat="44.33665" lon="4.02305">
        <ele>364</ele>
        <time>2013-04-03T14:23:16Z</time>
      </trkpt>
      <trkpt lat="44.33665" lon="4.02304">
        <ele>364</ele>
        <time>2013-04-03T14:23:18Z</time>
      </trkpt>
      <trkpt lat="44.33666" lon="4.02302">
        <ele>363</ele>
        <time>2013-04-03T14:23:20Z</time>
      </trkpt>
      <trkpt lat="44.33666" lon="4.02301">
        <ele>363</ele>
        <time>2013-04-03T14:23:22Z</time>
      </trkpt>
      <trkpt lat="44.33666" lon="4.02299">
        <ele>362</ele>
        <time>2013-04-03T14:23:24Z</time>
      </trkpt>
      <trkpt lat="44.33666" lon="4.02298">
        <ele>362</ele>
        <time>2013-04-03T14:23:26Z</time>
      </trkpt>
      <trkpt lat="44.33667" lon="4.02295">
        <ele>360</ele>
        <time>2013-04-03T14:23:28Z</time>
      </trkpt>
      <trkpt lat="44.33667" lon="4.02294">
        <ele>359</ele>
        <time>2013-04-03T14:23:30Z</time>
      </trkpt>
      <trkpt lat="44.33667" lon="4.0229">
        <ele>358</ele>
        <time>2013-04-03T14:23:32Z</time>
      </trkpt>
      <trkpt lat="44.33667" lon="4.02289">
        <ele>357</ele>
        <time>2013-04-03T14:23:34Z</time>
      </trkpt>
      <trkpt lat="44.33667" lon="4.02287">
        <ele>357</ele>
        <time>2013-04-03T14:23:36Z</time>
      </trkpt>
      <trkpt lat="44.33667" lon="4.02286">
        <ele>357</ele>
        <time>2013-04-03T14:23:38Z</time>
      </trkpt>
      <trkpt lat="44.33667" lon="4.02285">
        <ele>357</ele>
        <time>2013-04-03T14:23:40Z</time>
      </trkpt>
      <trkpt lat="44.33667" lon="4.02285">
        <ele>357</ele>
        <time>2013-04-03T14:23:42Z</time>
      </trkpt>
      <trkpt lat="44.33667" lon="4.02282">
        <ele>355</ele>
        <time>2013-04-03T14:23:44Z</time>
      </trkpt>
      <trkpt lat="44.33667" lon="4.02279">
        <ele>354</ele>
        <time>2013-04-03T14:23:46Z</time>
      </trkpt>
      <trkpt lat="44.33667" lon="4.02278">
        <ele>354</ele>
        <time>2013-04-03T14:23:48Z</time>
      </trkpt>
      <trkpt lat="44.33667" lon="4.02277">
        <ele>354</ele>
        <time>2013-04-03T14:23:50Z</time>
      </trkpt>
      <trkpt lat="44.33667" lon="4.02277">
        <ele>354</ele>
        <time>2013-04-03T14:23:52Z</time>
      </trkpt>
      <trkpt lat="44.33667" lon="4.02275">
        <ele>354</ele>
        <time>2013-04-03T14:23:54Z</time>
      </trkpt>
      <trkpt lat="44.33666" lon="4.02272">
        <ele>354</ele>
        <time>2013-04-03T14:23:56Z</time>
      </trkpt>
      <trkpt lat="44.33666" lon="4.0227">
        <ele>354</ele>
        <time>2013-04-03T14:23:58Z</time>
      </trkpt>
      <trkpt lat="44.33666" lon="4.02268">
        <ele>354</ele>
        <time>2013-04-03T14:23:59Z</time>
      </trkpt>
      <trkpt lat="44.33666" lon="4.02268">
        <ele>354</ele>
        <time>2013-04-03T14:24:00Z</time>
      </trkpt>
      <trkpt lat="44.33665" lon="4.02266">
        <ele>354</ele>
        <time>2013-04-03T14:24:02Z</time>
      </trkpt>
      <trkpt lat="44.33665" lon="4.02266">
        <ele>354</ele>
        <time>2013-04-03T14:24:04Z</time>
      </trkpt>
      <trkpt lat="44.33665" lon="4.02266">
        <ele>354</ele>
        <time>2013-04-03T14:24:06Z</time>
      </trkpt>
      <trkpt lat="44.33665" lon="4.02266">
        <ele>354</ele>
        <time>2013-04-03T14:24:07Z</time>
      </trkpt>
      <trkpt lat="44.33665" lon="4.02261">
        <ele>352</ele>
        <time>2013-04-03T14:24:10Z</time>
      </trkpt>
      <trkpt lat="44.33665" lon="4.0226">
        <ele>353</ele>
        <time>2013-04-03T14:24:12Z</time>
      </trkpt>
      <trkpt lat="44.33666" lon="4.02258">
        <ele>351</ele>
        <time>2013-04-03T14:24:14Z</time>
      </trkpt>
      <trkpt lat="44.33667" lon="4.02255">
        <ele>350</ele>
        <time>2013-04-03T14:24:16Z</time>
      </trkpt>
      <trkpt lat="44.33667" lon="4.02255">
        <ele>350</ele>
        <time>2013-04-03T14:24:18Z</time>
      </trkpt>
      <trkpt lat="44.33668" lon="4.02252">
        <ele>348</ele>
        <time>2013-04-03T14:24:20Z</time>
      </trkpt>
      <trkpt lat="44.33669" lon="4.02247">
        <ele>346</ele>
        <time>2013-04-03T14:24:22Z</time>
      </trkpt>
      <trkpt lat="44.33669" lon="4.02243">
        <ele>345</ele>
        <time>2013-04-03T14:24:24Z</time>
      </trkpt>
      <trkpt lat="44.33669" lon="4.02239">
        <ele>344</ele>
        <time>2013-04-03T14:24:26Z</time>
      </trkpt>
      <trkpt lat="44.3367" lon="4.02238">
        <ele>344</ele>
        <time>2013-04-03T14:24:28Z</time>
      </trkpt>
      <trkpt lat="44.3367" lon="4.02236">
        <ele>343</ele>
        <time>2013-04-03T14:24:30Z</time>
      </trkpt>
      <trkpt lat="44.3367" lon="4.02235">
        <ele>343</ele>
        <time>2013-04-03T14:24:32Z</time>
      </trkpt>
      <trkpt lat="44.3367" lon="4.02235">
        <ele>343</ele>
        <time>2013-04-03T14:24:34Z</time>
      </trkpt>
      <trkpt lat="44.3367" lon="4.02235">
        <ele>343</ele>
        <time>2013-04-03T14:24:36Z</time>
      </trkpt>
      <trkpt lat="44.3367" lon="4.02235">
        <ele>343</ele>
        <time>2013-04-03T14:24:38Z</time>
      </trkpt>
      <trkpt lat="44.3367" lon="4.02235">
        <ele>343</ele>
        <time>2013-04-03T14:24:40Z</time>
      </trkpt>
      <trkpt lat="44.3367" lon="4.02233">
        <ele>343</ele>
        <time>2013-04-03T14:24:42Z</time>
      </trkpt>
      <trkpt lat="44.3367" lon="4.02231">
        <ele>342</ele>
        <time>2013-04-03T14:24:44Z</time>
      </trkpt>
      <trkpt lat="44.33669" lon="4.0223">
        <ele>342</ele>
        <time>2013-04-03T14:24:46Z</time>
      </trkpt>
      <trkpt lat="44.33669" lon="4.02228">
        <ele>342</ele>
        <time>2013-04-03T14:24:48Z</time>
      </trkpt>
      <trkpt lat="44.33669" lon="4.02228">
        <ele>342</ele>
        <time>2013-04-03T14:24:50Z</time>
      </trkpt>
      <trkpt lat="44.33669" lon="4.02227">
        <ele>342</ele>
        <time>2013-04-03T14:24:52Z</time>
      </trkpt>
      <trkpt lat="44.33669" lon="4.02226">
        <ele>342</ele>
        <time>2013-04-03T14:24:54Z</time>
      </trkpt>
      <trkpt lat="44.3367" lon="4.02224">
        <ele>342</ele>
        <time>2013-04-03T14:24:56Z</time>
      </trkpt>
      <trkpt lat="44.33669" lon="4.02223">
        <ele>342</ele>
        <time>2013-04-03T14:24:58Z</time>
      </trkpt>
      <trkpt lat="44.33669" lon="4.0222">
        <ele>340</ele>
        <time>2013-04-03T14:24:59Z</time>
      </trkpt>
      <trkpt lat="44.33668" lon="4.02218">
        <ele>340</ele>
        <time>2013-04-03T14:25:00Z</time>
      </trkpt>
      <trkpt lat="44.33667" lon="4.02214">
        <ele>340</ele>
        <time>2013-04-03T14:25:02Z</time>
      </trkpt>
      <trkpt lat="44.33666" lon="4.02212">
        <ele>340</ele>
        <time>2013-04-03T14:25:04Z</time>
      </trkpt>
      <trkpt lat="44.33665" lon="4.0221">
        <ele>338</ele>
        <time>2013-04-03T14:25:06Z</time>
      </trkpt>
      <trkpt lat="44.33664" lon="4.02207">
        <ele>337</ele>
        <time>2013-04-03T14:25:08Z</time>
      </trkpt>
      <trkpt lat="44.33664" lon="4.02207">
        <ele>337</ele>
        <time>2013-04-03T14:25:09Z</time>
      </trkpt>
      <trkpt lat="44.33664" lon="4.02205">
        <ele>337</ele>
        <time>2013-04-03T14:25:12Z</time>
      </trkpt>
      <trkpt lat="44.33664" lon="4.02205">
        <ele>337</ele>
        <time>2013-04-03T14:25:14Z</time>
      </trkpt>
      <trkpt lat="44.33664" lon="4.02203">
        <ele>335</ele>
        <time>2013-04-03T14:25:16Z</time>
      </trkpt>
      <trkpt lat="44.33664" lon="4.02203">
        <ele>335</ele>
        <time>2013-04-03T14:25:18Z</time>
      </trkpt>
      <trkpt lat="44.33664" lon="4.02201">
        <ele>336</ele>
        <time>2013-04-03T14:25:20Z</time>
      </trkpt>
      <trkpt lat="44.33664" lon="4.02201">
        <ele>336</ele>
        <time>2013-04-03T14:25:22Z</time>
      </trkpt>
      <trkpt lat="44.33663" lon="4.02199">
        <ele>336</ele>
        <time>2013-04-03T14:25:24Z</time>
      </trkpt>
      <trkpt lat="44.33662" lon="4.02197">
        <ele>335</ele>
        <time>2013-04-03T14:25:26Z</time>
      </trkpt>
      <trkpt lat="44.33662" lon="4.02195">
        <ele>333</ele>
        <time>2013-04-03T14:25:28Z</time>
      </trkpt>
      <trkpt lat="44.33662" lon="4.02195">
        <ele>333</ele>
        <time>2013-04-03T14:25:30Z</time>
      </trkpt>
      <trkpt lat="44.33662" lon="4.02195">
        <ele>333</ele>
        <time>2013-04-03T14:25:32Z</time>
      </trkpt>
      <trkpt lat="44.33662" lon="4.02192">
        <ele>333</ele>
        <time>2013-04-03T14:25:34Z</time>
      </trkpt>
      <trkpt lat="44.33662" lon="4.02191">
        <ele>333</ele>
        <time>2013-04-03T14:25:36Z</time>
      </trkpt>
      <trkpt lat="44.33661" lon="4.0219">
        <ele>333</ele>
        <time>2013-04-03T14:25:38Z</time>
      </trkpt>
      <trkpt lat="44.33661" lon="4.0219">
        <ele>333</ele>
        <time>2013-04-03T14:25:40Z</time>
      </trkpt>
      <trkpt lat="44.3366" lon="4.02188">
        <ele>332</ele>
        <time>2013-04-03T14:25:42Z</time>
      </trkpt>
      <trkpt lat="44.3366" lon="4.02188">
        <ele>332</ele>
        <time>2013-04-03T14:25:44Z</time>
      </trkpt>
      <trkpt lat="44.3366" lon="4.02188">
        <ele>332</ele>
        <time>2013-04-03T14:25:46Z</time>
      </trkpt>
      <trkpt lat="44.33658" lon="4.02187">
        <ele>331</ele>
        <time>2013-04-03T14:25:48Z</time>
      </trkpt>
      <trkpt lat="44.33658" lon="4.02186">
        <ele>330</ele>
        <time>2013-04-03T14:25:50Z</time>
      </trkpt>
      <trkpt lat="44.33657" lon="4.02184">
        <ele>329</ele>
        <time>2013-04-03T14:25:52Z</time>
      </trkpt>
      <trkpt lat="44.33657" lon="4.02181">
        <ele>328</ele>
        <time>2013-04-03T14:25:54Z</time>
      </trkpt>
      <trkpt lat="44.33657" lon="4.02178">
        <ele>327</ele>
        <time>2013-04-03T14:25:56Z</time>
      </trkpt>
      <trkpt lat="44.33656" lon="4.02176">
        <ele>327</ele>
        <time>2013-04-03T14:25:58Z</time>
      </trkpt>
      <trkpt lat="44.33656" lon="4.02174">
        <ele>327</ele>
        <time>2013-04-03T14:25:59Z</time>
      </trkpt>
      <trkpt lat="44.33656" lon="4.02172">
        <ele>327</ele>
        <time>2013-04-03T14:26:00Z</time>
      </trkpt>
      <trkpt lat="44.33656" lon="4.02171">
        <ele>327</ele>
        <time>2013-04-03T14:26:02Z</time>
      </trkpt>
      <trkpt lat="44.33655" lon="4.0217">
        <ele>327</ele>
        <time>2013-04-03T14:26:04Z</time>
      </trkpt>
      <trkpt lat="44.33655" lon="4.02168">
        <ele>327</ele>
        <time>2013-04-03T14:26:06Z</time>
      </trkpt>
      <trkpt lat="44.33655" lon="4.02167">
        <ele>327</ele>
        <time>2013-04-03T14:26:08Z</time>
      </trkpt>
      <trkpt lat="44.33655" lon="4.02166">
        <ele>327</ele>
        <time>2013-04-03T14:26:10Z</time>
      </trkpt>
      <trkpt lat="44.33655" lon="4.02166">
        <ele>327</ele>
        <time>2013-04-03T14:26:11Z</time>
      </trkpt>
      <trkpt lat="44.33654" lon="4.02162">
        <ele>327</ele>
        <time>2013-04-03T14:26:14Z</time>
      </trkpt>
      <trkpt lat="44.33654" lon="4.02159">
        <ele>326</ele>
        <time>2013-04-03T14:26:16Z</time>
      </trkpt>
      <trkpt lat="44.33654" lon="4.02156">
        <ele>326</ele>
        <time>2013-04-03T14:26:18Z</time>
      </trkpt>
      <trkpt lat="44.33654" lon="4.02154">
        <ele>326</ele>
        <time>2013-04-03T14:26:20Z</time>
      </trkpt>
      <trkpt lat="44.33653" lon="4.02153">
        <ele>326</ele>
        <time>2013-04-03T14:26:22Z</time>
      </trkpt>
      <trkpt lat="44.33653" lon="4.02152">
        <ele>325</ele>
        <time>2013-04-03T14:26:24Z</time>
      </trkpt>
      <trkpt lat="44.33652" lon="4.02148">
        <ele>325</ele>
        <time>2013-04-03T14:26:26Z</time>
      </trkpt>
      <trkpt lat="44.33652" lon="4.02147">
        <ele>325</ele>
        <time>2013-04-03T14:26:28Z</time>
      </trkpt>
      <trkpt lat="44.33652" lon="4.02145">
        <ele>325</ele>
        <time>2013-04-03T14:26:30Z</time>
      </trkpt>
      <trkpt lat="44.3365" lon="4.02144">
        <ele>324</ele>
        <time>2013-04-03T14:26:32Z</time>
      </trkpt>
      <trkpt lat="44.3365" lon="4.02144">
        <ele>324</ele>
        <time>2013-04-03T14:26:34Z</time>
      </trkpt>
      <trkpt lat="44.33648" lon="4.02143">
        <ele>323</ele>
        <time>2013-04-03T14:26:36Z</time>
      </trkpt>
      <trkpt lat="44.33648" lon="4.02141">
        <ele>321</ele>
        <time>2013-04-03T14:26:38Z</time>
      </trkpt>
      <trkpt lat="44.33646" lon="4.02141">
        <ele>320</ele>
        <time>2013-04-03T14:26:40Z</time>
      </trkpt>
      <trkpt lat="44.33646" lon="4.02141">
        <ele>320</ele>
        <time>2013-04-03T14:26:42Z</time>
      </trkpt>
      <trkpt lat="44.33646" lon="4.02141">
        <ele>320</ele>
        <time>2013-04-03T14:26:44Z</time>
      </trkpt>
      <trkpt lat="44.33645" lon="4.02141">
        <ele>320</ele>
        <time>2013-04-03T14:26:46Z</time>
      </trkpt>
      <trkpt lat="44.33644" lon="4.02141">
        <ele>319</ele>
        <time>2013-04-03T14:26:48Z</time>
      </trkpt>
      <trkpt lat="44.33644" lon="4.02141">
        <ele>319</ele>
        <time>2013-04-03T14:26:50Z</time>
      </trkpt>
      <trkpt lat="44.33643" lon="4.02141">
        <ele>319</ele>
        <time>2013-04-03T14:26:52Z</time>
      </trkpt>
      <trkpt lat="44.33643" lon="4.02141">
        <ele>319</ele>
        <time>2013-04-03T14:26:54Z</time>
      </trkpt>
      <trkpt lat="44.33643" lon="4.02141">
        <ele>319</ele>
        <time>2013-04-03T14:26:56Z</time>
      </trkpt>
      <trkpt lat="44.33643" lon="4.02142">
        <ele>319</ele>
        <time>2013-04-03T14:26:58Z</time>
      </trkpt>
      <trkpt lat="44.33643" lon="4.02142">
        <ele>319</ele>
        <time>2013-04-03T14:26:59Z</time>
      </trkpt>
      <trkpt lat="44.33643" lon="4.02143">
        <ele>318</ele>
        <time>2013-04-03T14:27:00Z</time>
      </trkpt>
      <trkpt lat="44.33641" lon="4.02144">
        <ele>318</ele>
        <time>2013-04-03T14:27:02Z</time>
      </trkpt>
      <trkpt lat="44.33641" lon="4.02146">
        <ele>318</ele>
        <time>2013-04-03T14:27:04Z</time>
      </trkpt>
      <trkpt lat="44.3364" lon="4.02147">
        <ele>317</ele>
        <time>2013-04-03T14:27:06Z</time>
      </trkpt>
      <trkpt lat="44.33638" lon="4.02148">
        <ele>317</ele>
        <time>2013-04-03T14:27:08Z</time>
      </trkpt>
      <trkpt lat="44.33638" lon="4.02148">
        <ele>317</ele>
        <time>2013-04-03T14:27:10Z</time>
      </trkpt>
      <trkpt lat="44.33638" lon="4.02148">
        <ele>317</ele>
        <time>2013-04-03T14:27:12Z</time>
      </trkpt>
      <trkpt lat="44.33638" lon="4.02148">
        <ele>317</ele>
        <time>2013-04-03T14:27:13Z</time>
      </trkpt>
      <trkpt lat="44.33636" lon="4.02148">
        <ele>316</ele>
        <time>2013-04-03T14:27:16Z</time>
      </trkpt>
      <trkpt lat="44.33636" lon="4.0215">
        <ele>316</ele>
        <time>2013-04-03T14:27:18Z</time>
      </trkpt>
      <trkpt lat="44.33636" lon="4.0215">
        <ele>316</ele>
        <time>2013-04-03T14:27:20Z</time>
      </trkpt>
      <trkpt lat="44.33635" lon="4.0215">
        <ele>316</ele>
        <time>2013-04-03T14:27:22Z</time>
      </trkpt>
      <trkpt lat="44.33634" lon="4.02151">
        <ele>316</ele>
        <time>2013-04-03T14:27:24Z</time>
      </trkpt>
      <trkpt lat="44.33633" lon="4.02152">
        <ele>316</ele>
        <time>2013-04-03T14:27:26Z</time>
      </trkpt>
      <trkpt lat="44.33632" lon="4.02153">
        <ele>316</ele>
        <time>2013-04-03T14:27:28Z</time>
      </trkpt>
      <trkpt lat="44.33632" lon="4.02153">
        <ele>316</ele>
        <time>2013-04-03T14:27:30Z</time>
      </trkpt>
      <trkpt lat="44.33632" lon="4.02153">
        <ele>316</ele>
        <time>2013-04-03T14:27:32Z</time>
      </trkpt>
      <trkpt lat="44.3363" lon="4.02155">
        <ele>315</ele>
        <time>2013-04-03T14:27:34Z</time>
      </trkpt>
      <trkpt lat="44.33629" lon="4.02157">
        <ele>315</ele>
        <time>2013-04-03T14:27:36Z</time>
      </trkpt>
      <trkpt lat="44.33628" lon="4.02158">
        <ele>315</ele>
        <time>2013-04-03T14:27:38Z</time>
      </trkpt>
      <trkpt lat="44.33628" lon="4.02158">
        <ele>315</ele>
        <time>2013-04-03T14:27:40Z</time>
      </trkpt>
      <trkpt lat="44.33628" lon="4.02159">
        <ele>315</ele>
        <time>2013-04-03T14:27:42Z</time>
      </trkpt>
      <trkpt lat="44.33627" lon="4.02159">
        <ele>315</ele>
        <time>2013-04-03T14:27:44Z</time>
      </trkpt>
      <trkpt lat="44.33627" lon="4.02159">
        <ele>315</ele>
        <time>2013-04-03T14:27:46Z</time>
      </trkpt>
      <trkpt lat="44.33625" lon="4.02159">
        <ele>315</ele>
        <time>2013-04-03T14:27:48Z</time>
      </trkpt>
      <trkpt lat="44.33624" lon="4.0216">
        <ele>315</ele>
        <time>2013-04-03T14:27:50Z</time>
      </trkpt>
      <trkpt lat="44.33624" lon="4.0216">
        <ele>315</ele>
        <time>2013-04-03T14:27:52Z</time>
      </trkpt>
      <trkpt lat="44.33623" lon="4.02161">
        <ele>314</ele>
        <time>2013-04-03T14:27:54Z</time>
      </trkpt>
      <trkpt lat="44.33622" lon="4.02161">
        <ele>314</ele>
        <time>2013-04-03T14:27:56Z</time>
      </trkpt>
      <trkpt lat="44.33622" lon="4.02164">
        <ele>313</ele>
        <time>2013-04-03T14:27:58Z</time>
      </trkpt>
      <trkpt lat="44.33621" lon="4.02165">
        <ele>313</ele>
        <time>2013-04-03T14:27:59Z</time>
      </trkpt>
      <trkpt lat="44.33621" lon="4.02165">
        <ele>313</ele>
        <time>2013-04-03T14:28:00Z</time>
      </trkpt>
      <trkpt lat="44.33621" lon="4.02167">
        <ele>312</ele>
        <time>2013-04-03T14:28:02Z</time>
      </trkpt>
      <trkpt lat="44.3362" lon="4.02169">
        <ele>311</ele>
        <time>2013-04-03T14:28:04Z</time>
      </trkpt>
      <trkpt lat="44.3362" lon="4.02173">
        <ele>310</ele>
        <time>2013-04-03T14:28:06Z</time>
      </trkpt>
      <trkpt lat="44.3362" lon="4.02175">
        <ele>309</ele>
        <time>2013-04-03T14:28:08Z</time>
      </trkpt>
      <trkpt lat="44.33619" lon="4.02176">
        <ele>308</ele>
        <time>2013-04-03T14:28:10Z</time>
      </trkpt>
      <trkpt lat="44.33619" lon="4.02176">
        <ele>308</ele>
        <time>2013-04-03T14:28:12Z</time>
      </trkpt>
      <trkpt lat="44.33618" lon="4.02177">
        <ele>309</ele>
        <time>2013-04-03T14:28:14Z</time>
      </trkpt>
      <trkpt lat="44.33618" lon="4.02177">
        <ele>309</ele>
        <time>2013-04-03T14:28:15Z</time>
      </trkpt>
      <trkpt lat="44.33617" lon="4.0218">
        <ele>309</ele>
        <time>2013-04-03T14:28:18Z</time>
      </trkpt>
      <trkpt lat="44.33616" lon="4.02181">
        <ele>308</ele>
        <time>2013-04-03T14:28:20Z</time>
      </trkpt>
      <trkpt lat="44.33616" lon="4.02181">
        <ele>308</ele>
        <time>2013-04-03T14:28:22Z</time>
      </trkpt>
      <trkpt lat="44.33615" lon="4.02181">
        <ele>309</ele>
        <time>2013-04-03T14:28:24Z</time>
      </trkpt>
      <trkpt lat="44.33614" lon="4.02181">
        <ele>309</ele>
        <time>2013-04-03T14:28:26Z</time>
      </trkpt>
      <trkpt lat="44.33614" lon="4.02182">
        <ele>310</ele>
        <time>2013-04-03T14:28:28Z</time>
      </trkpt>
      <trkpt lat="44.33613" lon="4.02183">
        <ele>309</ele>
        <time>2013-04-03T14:28:30Z</time>
      </trkpt>
      <trkpt lat="44.33613" lon="4.02186">
        <ele>309</ele>
        <time>2013-04-03T14:28:32Z</time>
      </trkpt>
      <trkpt lat="44.33613" lon="4.02186">
        <ele>309</ele>
        <time>2013-04-03T14:28:34Z</time>
      </trkpt>
      <trkpt lat="44.33612" lon="4.02188">
        <ele>309</ele>
        <time>2013-04-03T14:28:36Z</time>
      </trkpt>
      <trkpt lat="44.33611" lon="4.0219">
        <ele>310</ele>
        <time>2013-04-03T14:28:38Z</time>
      </trkpt>
      <trkpt lat="44.33611" lon="4.0219">
        <ele>310</ele>
        <time>2013-04-03T14:28:40Z</time>
      </trkpt>
      <trkpt lat="44.33611" lon="4.02191">
        <ele>310</ele>
        <time>2013-04-03T14:28:42Z</time>
      </trkpt>
      <trkpt lat="44.33611" lon="4.02191">
        <ele>310</ele>
        <time>2013-04-03T14:28:44Z</time>
      </trkpt>
      <trkpt lat="44.3361" lon="4.02191">
        <ele>311</ele>
        <time>2013-04-03T14:28:46Z</time>
      </trkpt>
      <trkpt lat="44.3361" lon="4.02192">
        <ele>310</ele>
        <time>2013-04-03T14:28:48Z</time>
      </trkpt>
      <trkpt lat="44.33609" lon="4.02194">
        <ele>311</ele>
        <time>2013-04-03T14:28:50Z</time>
      </trkpt>
      <trkpt lat="44.33608" lon="4.02194">
        <ele>311</ele>
        <time>2013-04-03T14:28:52Z</time>
      </trkpt>
      <trkpt lat="44.33608" lon="4.02195">
        <ele>311</ele>
        <time>2013-04-03T14:28:54Z</time>
      </trkpt>
      <trkpt lat="44.33608" lon="4.02195">
        <ele>311</ele>
        <time>2013-04-03T14:28:56Z</time>
      </trkpt>
      <trkpt lat="44.33608" lon="4.02195">
        <ele>311</ele>
        <time>2013-04-03T14:28:58Z</time>
      </trkpt>
      <trkpt lat="44.33608" lon="4.02195">
        <ele>311</ele>
        <time>2013-04-03T14:28:59Z</time>
      </trkpt>
      <trkpt lat="44.33607" lon="4.02196">
        <ele>311</ele>
        <time>2013-04-03T14:29:00Z</time>
      </trkpt>
      <trkpt lat="44.33606" lon="4.02197">
        <ele>311</ele>
        <time>2013-04-03T14:29:02Z</time>
      </trkpt>
      <trkpt lat="44.33606" lon="4.02197">
        <ele>311</ele>
        <time>2013-04-03T14:29:04Z</time>
      </trkpt>
      <trkpt lat="44.33606" lon="4.02198">
        <ele>311</ele>
        <time>2013-04-03T14:29:06Z</time>
      </trkpt>
      <trkpt lat="44.33606" lon="4.02199">
        <ele>311</ele>
        <time>2013-04-03T14:29:08Z</time>
      </trkpt>
      <trkpt lat="44.33606" lon="4.022">
        <ele>311</ele>
        <time>2013-04-03T14:29:10Z</time>
      </trkpt>
      <trkpt lat="44.33605" lon="4.02201">
        <ele>310</ele>
        <time>2013-04-03T14:29:12Z</time>
      </trkpt>
      <trkpt lat="44.33605" lon="4.02201">
        <ele>310</ele>
        <time>2013-04-03T14:29:14Z</time>
      </trkpt>
      <trkpt lat="44.33605" lon="4.02201">
        <ele>311</ele>
        <time>2013-04-03T14:29:16Z</time>
      </trkpt>
      <trkpt lat="44.33604" lon="4.02202">
        <ele>311</ele>
        <time>2013-04-03T14:29:17Z</time>
      </trkpt>
      <trkpt lat="44.33603" lon="4.02203">
        <ele>311</ele>
        <time>2013-04-03T14:29:20Z</time>
      </trkpt>
      <trkpt lat="44.33602" lon="4.02205">
        <ele>311</ele>
        <time>2013-04-03T14:29:22Z</time>
      </trkpt>
      <trkpt lat="44.33602" lon="4.02205">
        <ele>311</ele>
        <time>2013-04-03T14:29:24Z</time>
      </trkpt>
      <trkpt lat="44.33601" lon="4.02206">
        <ele>310</ele>
        <time>2013-04-03T14:29:26Z</time>
      </trkpt>
      <trkpt lat="44.33599" lon="4.02207">
        <ele>310</ele>
        <time>2013-04-03T14:29:28Z</time>
      </trkpt>
      <trkpt lat="44.33598" lon="4.02209">
        <ele>309</ele>
        <time>2013-04-03T14:29:30Z</time>
      </trkpt>
      <trkpt lat="44.33597" lon="4.0221">
        <ele>309</ele>
        <time>2013-04-03T14:29:32Z</time>
      </trkpt>
      <trkpt lat="44.33596" lon="4.02213">
        <ele>309</ele>
        <time>2013-04-03T14:29:34Z</time>
      </trkpt>
      <trkpt lat="44.33594" lon="4.02216">
        <ele>309</ele>
        <time>2013-04-03T14:29:36Z</time>
      </trkpt>
      <trkpt lat="44.33592" lon="4.02219">
        <ele>309</ele>
        <time>2013-04-03T14:29:38Z</time>
      </trkpt>
      <trkpt lat="44.3359" lon="4.02222">
        <ele>307</ele>
        <time>2013-04-03T14:29:40Z</time>
      </trkpt>
      <trkpt lat="44.3359" lon="4.02222">
        <ele>307</ele>
        <time>2013-04-03T14:29:42Z</time>
      </trkpt>
      <trkpt lat="44.33588" lon="4.02224">
        <ele>307</ele>
        <time>2013-04-03T14:29:44Z</time>
      </trkpt>
      <trkpt lat="44.33587" lon="4.02224">
        <ele>306</ele>
        <time>2013-04-03T14:29:46Z</time>
      </trkpt>
      <trkpt lat="44.33587" lon="4.02224">
        <ele>306</ele>
        <time>2013-04-03T14:29:48Z</time>
      </trkpt>
      <trkpt lat="44.33586" lon="4.02227">
        <ele>306</ele>
        <time>2013-04-03T14:29:50Z</time>
      </trkpt>
      <trkpt lat="44.33584" lon="4.02232">
        <ele>306</ele>
        <time>2013-04-03T14:29:52Z</time>
      </trkpt>
      <trkpt lat="44.33583" lon="4.02233">
        <ele>305</ele>
        <time>2013-04-03T14:29:54Z</time>
      </trkpt>
      <trkpt lat="44.33582" lon="4.02234">
        <ele>305</ele>
        <time>2013-04-03T14:29:56Z</time>
      </trkpt>
      <trkpt lat="44.33582" lon="4.02235">
        <ele>305</ele>
        <time>2013-04-03T14:29:58Z</time>
      </trkpt>
      <trkpt lat="44.33582" lon="4.02235">
        <ele>305</ele>
        <time>2013-04-03T14:29:59Z</time>
      </trkpt>
      <trkpt lat="44.33581" lon="4.02235">
        <ele>305</ele>
        <time>2013-04-03T14:30:00Z</time>
      </trkpt>
      <trkpt lat="44.33579" lon="4.02236">
        <ele>304</ele>
        <time>2013-04-03T14:30:02Z</time>
      </trkpt>
      <trkpt lat="44.33577" lon="4.02237">
        <ele>304</ele>
        <time>2013-04-03T14:30:04Z</time>
      </trkpt>
      <trkpt lat="44.33577" lon="4.02237">
        <ele>304</ele>
        <time>2013-04-03T14:30:06Z</time>
      </trkpt>
      <trkpt lat="44.33576" lon="4.02237">
        <ele>305</ele>
        <time>2013-04-03T14:30:08Z</time>
      </trkpt>
      <trkpt lat="44.33575" lon="4.02236">
        <ele>305</ele>
        <time>2013-04-03T14:30:10Z</time>
      </trkpt>
      <trkpt lat="44.33574" lon="4.02237">
        <ele>304</ele>
        <time>2013-04-03T14:30:12Z</time>
      </trkpt>
      <trkpt lat="44.33572" lon="4.02238">
        <ele>304</ele>
        <time>2013-04-03T14:30:14Z</time>
      </trkpt>
      <trkpt lat="44.33571" lon="4.02239">
        <ele>304</ele>
        <time>2013-04-03T14:30:16Z</time>
      </trkpt>
      <trkpt lat="44.3357" lon="4.0224">
        <ele>303</ele>
        <time>2013-04-03T14:30:18Z</time>
      </trkpt>
      <trkpt lat="44.33569" lon="4.02241">
        <ele>303</ele>
        <time>2013-04-03T14:30:19Z</time>
      </trkpt>
      <trkpt lat="44.33568" lon="4.02244">
        <ele>302</ele>
        <time>2013-04-03T14:30:22Z</time>
      </trkpt>
      <trkpt lat="44.33567" lon="4.02245">
        <ele>303</ele>
        <time>2013-04-03T14:30:24Z</time>
      </trkpt>
      <trkpt lat="44.33567" lon="4.02245">
        <ele>303</ele>
        <time>2013-04-03T14:30:26Z</time>
      </trkpt>
      <trkpt lat="44.33566" lon="4.02247">
        <ele>303</ele>
        <time>2013-04-03T14:30:28Z</time>
      </trkpt>
      <trkpt lat="44.33564" lon="4.02248">
        <ele>303</ele>
        <time>2013-04-03T14:30:30Z</time>
      </trkpt>
      <trkpt lat="44.33564" lon="4.02249">
        <ele>302</ele>
        <time>2013-04-03T14:30:32Z</time>
      </trkpt>
      <trkpt lat="44.33564" lon="4.02249">
        <ele>302</ele>
        <time>2013-04-03T14:30:34Z</time>
      </trkpt>
      <trkpt lat="44.33562" lon="4.0225">
        <ele>302</ele>
        <time>2013-04-03T14:30:36Z</time>
      </trkpt>
      <trkpt lat="44.33561" lon="4.02251">
        <ele>301</ele>
        <time>2013-04-03T14:30:38Z</time>
      </trkpt>
      <trkpt lat="44.33559" lon="4.02252">
        <ele>301</ele>
        <time>2013-04-03T14:30:40Z</time>
      </trkpt>
      <trkpt lat="44.33559" lon="4.02252">
        <ele>301</ele>
        <time>2013-04-03T14:30:42Z</time>
      </trkpt>
      <trkpt lat="44.33559" lon="4.02252">
        <ele>301</ele>
        <time>2013-04-03T14:30:44Z</time>
      </trkpt>
      <trkpt lat="44.33558" lon="4.02253">
        <ele>301</ele>
        <time>2013-04-03T14:30:46Z</time>
      </trkpt>
      <trkpt lat="44.33558" lon="4.02253">
        <ele>301</ele>
        <time>2013-04-03T14:30:48Z</time>
      </trkpt>
      <trkpt lat="44.33558" lon="4.02254">
        <ele>301</ele>
        <time>2013-04-03T14:30:50Z</time>
      </trkpt>
      <trkpt lat="44.33558" lon="4.02256">
        <ele>301</ele>
        <time>2013-04-03T14:30:52Z</time>
      </trkpt>
      <trkpt lat="44.33557" lon="4.02256">
        <ele>300</ele>
        <time>2013-04-03T14:30:54Z</time>
      </trkpt>
      <trkpt lat="44.33556" lon="4.02258">
        <ele>300</ele>
        <time>2013-04-03T14:30:56Z</time>
      </trkpt>
      <trkpt lat="44.33555" lon="4.02258">
        <ele>300</ele>
        <time>2013-04-03T14:30:58Z</time>
      </trkpt>
      <trkpt lat="44.33555" lon="4.02258">
        <ele>300</ele>
        <time>2013-04-03T14:30:59Z</time>
      </trkpt>
      <trkpt lat="44.33554" lon="4.02259">
        <ele>299</ele>
        <time>2013-04-03T14:31:00Z</time>
      </trkpt>
      <trkpt lat="44.33554" lon="4.02259">
        <ele>299</ele>
        <time>2013-04-03T14:31:02Z</time>
      </trkpt>
      <trkpt lat="44.33554" lon="4.02259">
        <ele>300</ele>
        <time>2013-04-03T14:31:04Z</time>
      </trkpt>
      <trkpt lat="44.33553" lon="4.02261">
        <ele>300</ele>
        <time>2013-04-03T14:31:06Z</time>
      </trkpt>
      <trkpt lat="44.33553" lon="4.02261">
        <ele>300</ele>
        <time>2013-04-03T14:31:08Z</time>
      </trkpt>
      <trkpt lat="44.33553" lon="4.02261">
        <ele>300</ele>
        <time>2013-04-03T14:31:10Z</time>
      </trkpt>
      <trkpt lat="44.33552" lon="4.02261">
        <ele>300</ele>
        <time>2013-04-03T14:31:12Z</time>
      </trkpt>
      <trkpt lat="44.33552" lon="4.02261">
        <ele>300</ele>
        <time>2013-04-03T14:31:14Z</time>
      </trkpt>
      <trkpt lat="44.33552" lon="4.02261">
        <ele>300</ele>
        <time>2013-04-03T14:31:16Z</time>
      </trkpt>
      <trkpt lat="44.33552" lon="4.02261">
        <ele>300</ele>
        <time>2013-04-03T14:31:18Z</time>
      </trkpt>
      <trkpt lat="44.33552" lon="4.02261">
        <ele>300</ele>
        <time>2013-04-03T14:31:20Z</time>
      </trkpt>
      <trkpt lat="44.33552" lon="4.02261">
        <ele>300</ele>
        <time>2013-04-03T14:31:21Z</time>
      </trkpt>
      <trkpt lat="44.33551" lon="4.02262">
        <ele>300</ele>
        <time>2013-04-03T14:31:24Z</time>
      </trkpt>
      <trkpt lat="44.3355" lon="4.02262">
        <ele>299</ele>
        <time>2013-04-03T14:31:26Z</time>
      </trkpt>
      <trkpt lat="44.3355" lon="4.02262">
        <ele>299</ele>
        <time>2013-04-03T14:31:28Z</time>
      </trkpt>
      <trkpt lat="44.3355" lon="4.02262">
        <ele>299</ele>
        <time>2013-04-03T14:31:30Z</time>
      </trkpt>
      <trkpt lat="44.3355" lon="4.02262">
        <ele>299</ele>
        <time>2013-04-03T14:31:32Z</time>
      </trkpt>
      <trkpt lat="44.3355" lon="4.02262">
        <ele>299</ele>
        <time>2013-04-03T14:31:34Z</time>
      </trkpt>
      <trkpt lat="44.33549" lon="4.02262">
        <ele>298</ele>
        <time>2013-04-03T14:31:36Z</time>
      </trkpt>
      <trkpt lat="44.33549" lon="4.02262">
        <ele>298</ele>
        <time>2013-04-03T14:31:38Z</time>
      </trkpt>
      <trkpt lat="44.33549" lon="4.02261">
        <ele>298</ele>
        <time>2013-04-03T14:31:40Z</time>
      </trkpt>
      <trkpt lat="44.33548" lon="4.0226">
        <ele>298</ele>
        <time>2013-04-03T14:31:42Z</time>
      </trkpt>
      <trkpt lat="44.33548" lon="4.0226">
        <ele>298</ele>
        <time>2013-04-03T14:31:44Z</time>
      </trkpt>
      <trkpt lat="44.33548" lon="4.0226">
        <ele>297</ele>
        <time>2013-04-03T14:31:46Z</time>
      </trkpt>
      <trkpt lat="44.33548" lon="4.02259">
        <ele>297</ele>
        <time>2013-04-03T14:31:48Z</time>
      </trkpt>
      <trkpt lat="44.33547" lon="4.02258">
        <ele>296</ele>
        <time>2013-04-03T14:31:50Z</time>
      </trkpt>
      <trkpt lat="44.33546" lon="4.02257">
        <ele>296</ele>
        <time>2013-04-03T14:31:52Z</time>
      </trkpt>
      <trkpt lat="44.33545" lon="4.02256">
        <ele>296</ele>
        <time>2013-04-03T14:31:54Z</time>
      </trkpt>
      <trkpt lat="44.33545" lon="4.02256">
        <ele>296</ele>
        <time>2013-04-03T14:31:56Z</time>
      </trkpt>
      <trkpt lat="44.33545" lon="4.02256">
        <ele>296</ele>
        <time>2013-04-03T14:31:58Z</time>
      </trkpt>
      <trkpt lat="44.33545" lon="4.02256">
        <ele>296</ele>
        <time>2013-04-03T14:31:59Z</time>
      </trkpt>
      <trkpt lat="44.33545" lon="4.02256">
        <ele>296</ele>
        <time>2013-04-03T14:32:00Z</time>
      </trkpt>
      <trkpt lat="44.33545" lon="4.02256">
        <ele>296</ele>
        <time>2013-04-03T14:32:02Z</time>
      </trkpt>
      <trkpt lat="44.33545" lon="4.02256">
        <ele>296</ele>
        <time>2013-04-03T14:32:04Z</time>
      </trkpt>
      <trkpt lat="44.33545" lon="4.02256">
        <ele>296</ele>
        <time>2013-04-03T14:32:06Z</time>
      </trkpt>
      <trkpt lat="44.33545" lon="4.02256">
        <ele>296</ele>
        <time>2013-04-03T14:32:08Z</time>
      </trkpt>
      <trkpt lat="44.33545" lon="4.02256">
        <ele>296</ele>
        <time>2013-04-03T14:32:10Z</time>
      </trkpt>
      <trkpt lat="44.33545" lon="4.02256">
        <ele>296</ele>
        <time>2013-04-03T14:32:12Z</time>
      </trkpt>
      <trkpt lat="44.33544" lon="4.02256">
        <ele>295</ele>
        <time>2013-04-03T14:32:14Z</time>
      </trkpt>
      <trkpt lat="44.33544" lon="4.02256">
        <ele>295</ele>
        <time>2013-04-03T14:32:16Z</time>
      </trkpt>
      <trkpt lat="44.33544" lon="4.02256">
        <ele>295</ele>
        <time>2013-04-03T14:32:18Z</time>
      </trkpt>
      <trkpt lat="44.33544" lon="4.02256">
        <ele>295</ele>
        <time>2013-04-03T14:32:20Z</time>
      </trkpt>
      <trkpt lat="44.33544" lon="4.02256">
        <ele>295</ele>
        <time>2013-04-03T14:32:22Z</time>
      </trkpt>
      <trkpt lat="44.33544" lon="4.02256">
        <ele>295</ele>
        <time>2013-04-03T14:32:23Z</time>
      </trkpt>
      <trkpt lat="44.33544" lon="4.02256">
        <ele>295</ele>
        <time>2013-04-03T14:32:26Z</time>
      </trkpt>
      <trkpt lat="44.33544" lon="4.02256">
        <ele>295</ele>
        <time>2013-04-03T14:32:28Z</time>
      </trkpt>
      <trkpt lat="44.33544" lon="4.02256">
        <ele>295</ele>
        <time>2013-04-03T14:32:30Z</time>
      </trkpt>
      <trkpt lat="44.33544" lon="4.02256">
        <ele>295</ele>
        <time>2013-04-03T14:32:32Z</time>
      </trkpt>
      <trkpt lat="44.33544" lon="4.02256">
        <ele>295</ele>
        <time>2013-04-03T14:32:34Z</time>
      </trkpt>
      <trkpt lat="44.33544" lon="4.02256">
        <ele>295</ele>
        <time>2013-04-03T14:32:36Z</time>
      </trkpt>
      <trkpt lat="44.33544" lon="4.02256">
        <ele>295</ele>
        <time>2013-04-03T14:32:38Z</time>
      </trkpt>
      <trkpt lat="44.33544" lon="4.02256">
        <ele>295</ele>
        <time>2013-04-03T14:32:40Z</time>
      </trkpt>
      <trkpt lat="44.33544" lon="4.02256">
        <ele>295</ele>
        <time>2013-04-03T14:32:42Z</time>
      </trkpt>
      <trkpt lat="44.33544" lon="4.02256">
        <ele>295</ele>
        <time>2013-04-03T14:32:44Z</time>
      </trkpt>
      <trkpt lat="44.33544" lon="4.02256">
        <ele>295</ele>
        <time>2013-04-03T14:32:46Z</time>
      </trkpt>
      <trkpt lat="44.33544" lon="4.02256">
        <ele>295</ele>
        <time>2013-04-03T14:32:48Z</time>
      </trkpt>
      <trkpt lat="44.33544" lon="4.02256">
        <ele>295</ele>
        <time>2013-04-03T14:32:50Z</time>
      </trkpt>
      <trkpt lat="44.33544" lon="4.02256">
        <ele>295</ele>
        <time>2013-04-03T14:32:52Z</time>
      </trkpt>
      <trkpt lat="44.33544" lon="4.02256">
        <ele>295</ele>
        <time>2013-04-03T14:32:54Z</time>
      </trkpt>
      <trkpt lat="44.33544" lon="4.02256">
        <ele>295</ele>
        <time>2013-04-03T14:32:56Z</time>
      </trkpt>
      <trkpt lat="44.33544" lon="4.02256">
        <ele>295</ele>
        <time>2013-04-03T14:32:58Z</time>
      </trkpt>
      <trkpt lat="44.33544" lon="4.02256">
        <ele>295</ele>
        <time>2013-04-03T14:32:59Z</time>
      </trkpt>
      <trkpt lat="44.33544" lon="4.02256">
        <ele>295</ele>
        <time>2013-04-03T14:33:00Z</time>
      </trkpt>
      <trkpt lat="44.33544" lon="4.02256">
        <ele>295</ele>
        <time>2013-04-03T14:33:02Z</time>
      </trkpt>
      <trkpt lat="44.33544" lon="4.02256">
        <ele>295</ele>
        <time>2013-04-03T14:33:04Z</time>
      </trkpt>
      <trkpt lat="44.33543" lon="4.02257">
        <ele>295</ele>
        <time>2013-04-03T14:33:06Z</time>
      </trkpt>
      <trkpt lat="44.33543" lon="4.02257">
        <ele>295</ele>
        <time>2013-04-03T14:33:08Z</time>
      </trkpt>
      <trkpt lat="44.33543" lon="4.02257">
        <ele>295</ele>
        <time>2013-04-03T14:33:10Z</time>
      </trkpt>
      <trkpt lat="44.33543" lon="4.02257">
        <ele>295</ele>
        <time>2013-04-03T14:33:12Z</time>
      </trkpt>
      <trkpt lat="44.33543" lon="4.02257">
        <ele>295</ele>
        <time>2013-04-03T14:33:14Z</time>
      </trkpt>
      <trkpt lat="44.33543" lon="4.02257">
        <ele>295</ele>
        <time>2013-04-03T14:33:16Z</time>
      </trkpt>
      <trkpt lat="44.33543" lon="4.02257">
        <ele>295</ele>
        <time>2013-04-03T14:33:18Z</time>
      </trkpt>
      <trkpt lat="44.33543" lon="4.02257">
        <ele>295</ele>
        <time>2013-04-03T14:33:20Z</time>
      </trkpt>
      <trkpt lat="44.33543" lon="4.02257">
        <ele>295</ele>
        <time>2013-04-03T14:33:22Z</time>
      </trkpt>
      <trkpt lat="44.33543" lon="4.02257">
        <ele>295</ele>
        <time>2013-04-03T14:33:24Z</time>
      </trkpt>
      <trkpt lat="44.33543" lon="4.02257">
        <ele>295</ele>
        <time>2013-04-03T14:33:25Z</time>
      </trkpt>
      <trkpt lat="44.33543" lon="4.02257">
        <ele>295</ele>
        <time>2013-04-03T14:33:28Z</time>
      </trkpt>
      <trkpt lat="44.33543" lon="4.02257">
        <ele>295</ele>
        <time>2013-04-03T14:33:30Z</time>
      </trkpt>
      <trkpt lat="44.33543" lon="4.02257">
        <ele>295</ele>
        <time>2013-04-03T14:33:32Z</time>
      </trkpt>
      <trkpt lat="44.33543" lon="4.02257">
        <ele>295</ele>
        <time>2013-04-03T14:33:34Z</time>
      </trkpt>
      <trkpt lat="44.33543" lon="4.02257">
        <ele>295</ele>
        <time>2013-04-03T14:33:36Z</time>
      </trkpt>
      <trkpt lat="44.33543" lon="4.02257">
        <ele>295</ele>
        <time>2013-04-03T14:33:38Z</time>
      </trkpt>
      <trkpt lat="44.33543" lon="4.02257">
        <ele>295</ele>
        <time>2013-04-03T14:33:40Z</time>
      </trkpt>
      <trkpt lat="44.33543" lon="4.02257">
        <ele>295</ele>
        <time>2013-04-03T14:33:42Z</time>
      </trkpt>
      <trkpt lat="44.33543" lon="4.02257">
        <ele>295</ele>
        <time>2013-04-03T14:33:44Z</time>
      </trkpt>
      <trkpt lat="44.33543" lon="4.02257">
        <ele>295</ele>
        <time>2013-04-03T14:33:46Z</time>
      </trkpt>
      <trkpt lat="44.33543" lon="4.02257">
        <ele>295</ele>
        <time>2013-04-03T14:33:48Z</time>
      </trkpt>
      <trkpt lat="44.33543" lon="4.02257">
        <ele>295</ele>
        <time>2013-04-03T14:33:50Z</time>
      </trkpt>
      <trkpt lat="44.33543" lon="4.02257">
        <ele>295</ele>
        <time>2013-04-03T14:33:52Z</time>
      </trkpt>
      <trkpt lat="44.33543" lon="4.02257">
        <ele>295</ele>
        <time>2013-04-03T14:33:54Z</time>
      </trkpt>
      <trkpt lat="44.33543" lon="4.02257">
        <ele>295</ele>
        <time>2013-04-03T14:33:56Z</time>
      </trkpt>
      <trkpt lat="44.33543" lon="4.02257">
        <ele>295</ele>
        <time>2013-04-03T14:33:58Z</time>
      </trkpt>
      <trkpt lat="44.33543" lon="4.02257">
        <ele>295</ele>
        <time>2013-04-03T14:33:59Z</time>
      </trkpt>
      <trkpt lat="44.33543" lon="4.02257">
        <ele>295</ele>
        <time>2013-04-03T14:34:00Z</time>
      </trkpt>
      <trkpt lat="44.33543" lon="4.02257">
        <ele>295</ele>
        <time>2013-04-03T14:34:02Z</time>
      </trkpt>
      <trkpt lat="44.33543" lon="4.02257">
        <ele>295</ele>
        <time>2013-04-03T14:34:04Z</time>
      </trkpt>
      <trkpt lat="44.33543" lon="4.02257">
        <ele>295</ele>
        <time>2013-04-03T14:34:06Z</time>
      </trkpt>
      <trkpt lat="44.33543" lon="4.02257">
        <ele>295</ele>
        <time>2013-04-03T14:34:08Z</time>
      </trkpt>
      <trkpt lat="44.33543" lon="4.02257">
        <ele>295</ele>
        <time>2013-04-03T14:34:10Z</time>
      </trkpt>
      <trkpt lat="44.33543" lon="4.02257">
        <ele>295</ele>
        <time>2013-04-03T14:34:12Z</time>
      </trkpt>
      <trkpt lat="44.33543" lon="4.02257">
        <ele>295</ele>
        <time>2013-04-03T14:34:14Z</time>
      </trkpt>
      <trkpt lat="44.33543" lon="4.02257">
        <ele>295</ele>
        <time>2013-04-03T14:34:16Z</time>
      </trkpt>
      <trkpt lat="44.33543" lon="4.02257">
        <ele>295</ele>
        <time>2013-04-03T14:34:18Z</time>
      </trkpt>
      <trkpt lat="44.33543" lon="4.02257">
        <ele>295</ele>
        <time>2013-04-03T14:34:20Z</time>
      </trkpt>
      <trkpt lat="44.33543" lon="4.02257">
        <ele>295</ele>
        <time>2013-04-03T14:34:22Z</time>
      </trkpt>
      <trkpt lat="44.33543" lon="4.02257">
        <ele>295</ele>
        <time>2013-04-03T14:34:24Z</time>
      </trkpt>
      <trkpt lat="44.33543" lon="4.02257">
        <ele>295</ele>
        <time>2013-04-03T14:34:26Z</time>
      </trkpt>
      <trkpt lat="44.33543" lon="4.02257">
        <ele>295</ele>
        <time>2013-04-03T14:34:27Z</time>
      </trkpt>
      <trkpt lat="44.33543" lon="4.02257">
        <ele>295</ele>
        <time>2013-04-03T14:34:30Z</time>
      </trkpt>
      <trkpt lat="44.33543" lon="4.02257">
        <ele>295</ele>
        <time>2013-04-03T14:34:32Z</time>
      </trkpt>
      <trkpt lat="44.33543" lon="4.02257">
        <ele>295</ele>
        <time>2013-04-03T14:34:34Z</time>
      </trkpt>
      <trkpt lat="44.33543" lon="4.02257">
        <ele>295</ele>
        <time>2013-04-03T14:34:36Z</time>
      </trkpt>
      <trkpt lat="44.33543" lon="4.02257">
        <ele>295</ele>
        <time>2013-04-03T14:34:38Z</time>
      </trkpt>
      <trkpt lat="44.33543" lon="4.02257">
        <ele>295</ele>
        <time>2013-04-03T14:34:40Z</time>
      </trkpt>
      <trkpt lat="44.33543" lon="4.02257">
        <ele>295</ele>
        <time>2013-04-03T14:34:42Z</time>
      </trkpt>
      <trkpt lat="44.33543" lon="4.02257">
        <ele>295</ele>
        <time>2013-04-03T14:34:44Z</time>
      </trkpt>
      <trkpt lat="44.33543" lon="4.02257">
        <ele>295</ele>
        <time>2013-04-03T14:34:46Z</time>
      </trkpt>
      <trkpt lat="44.33543" lon="4.02257">
        <ele>295</ele>
        <time>2013-04-03T14:34:48Z</time>
      </trkpt>
      <trkpt lat="44.33543" lon="4.02257">
        <ele>295</ele>
        <time>2013-04-03T14:34:50Z</time>
      </trkpt>
      <trkpt lat="44.33543" lon="4.02257">
        <ele>295</ele>
        <time>2013-04-03T14:34:52Z</time>
      </trkpt>
      <trkpt lat="44.33543" lon="4.02257">
        <ele>295</ele>
        <time>2013-04-03T14:34:54Z</time>
      </trkpt>
      <trkpt lat="44.33543" lon="4.02257">
        <ele>295</ele>
        <time>2013-04-03T14:34:56Z</time>
      </trkpt>
      <trkpt lat="44.33543" lon="4.02257">
        <ele>295</ele>
        <time>2013-04-03T14:34:58Z</time>
      </trkpt>
      <trkpt lat="44.33543" lon="4.02257">
        <ele>295</ele>
        <time>2013-04-03T14:34:59Z</time>
      </trkpt>
      <trkpt lat="44.33543" lon="4.02257">
        <ele>295</ele>
        <time>2013-04-03T14:35:00Z</time>
      </trkpt>
      <trkpt lat="44.33543" lon="4.02257">
        <ele>295</ele>
        <time>2013-04-03T14:35:02Z</time>
      </trkpt>
      <trkpt lat="44.33543" lon="4.02257">
        <ele>295</ele>
        <time>2013-04-03T14:35:04Z</time>
      </trkpt>
      <trkpt lat="44.33543" lon="4.02257">
        <ele>295</ele>
        <time>2013-04-03T14:35:06Z</time>
      </trkpt>
      <trkpt lat="44.33543" lon="4.02257">
        <ele>295</ele>
        <time>2013-04-03T14:35:08Z</time>
      </trkpt>
      <trkpt lat="44.33543" lon="4.02257">
        <ele>295</ele>
        <time>2013-04-03T14:35:10Z</time>
      </trkpt>
      <trkpt lat="44.33543" lon="4.02257">
        <ele>295</ele>
        <time>2013-04-03T14:35:12Z</time>
      </trkpt>
      <trkpt lat="44.33543" lon="4.02257">
        <ele>295</ele>
        <time>2013-04-03T14:35:14Z</time>
      </trkpt>
      <trkpt lat="44.33543" lon="4.02257">
        <ele>295</ele>
        <time>2013-04-03T14:35:16Z</time>
      </trkpt>
      <trkpt lat="44.33543" lon="4.02257">
        <ele>295</ele>
        <time>2013-04-03T14:35:18Z</time>
      </trkpt>
      <trkpt lat="44.33543" lon="4.02257">
        <ele>295</ele>
        <time>2013-04-03T14:35:20Z</time>
      </trkpt>
      <trkpt lat="44.33543" lon="4.02257">
        <ele>295</ele>
        <time>2013-04-03T14:35:22Z</time>
      </trkpt>
      <trkpt lat="44.33543" lon="4.02257">
        <ele>295</ele>
        <time>2013-04-03T14:35:24Z</time>
      </trkpt>
      <trkpt lat="44.33543" lon="4.02257">
        <ele>295</ele>
        <time>2013-04-03T14:35:26Z</time>
      </trkpt>
      <trkpt lat="44.33543" lon="4.02257">
        <ele>295</ele>
        <time>2013-04-03T14:35:28Z</time>
      </trkpt>
      <trkpt lat="44.33543" lon="4.02257">
        <ele>295</ele>
        <time>2013-04-03T14:35:29Z</time>
      </trkpt>
      <trkpt lat="44.33543" lon="4.02257">
        <ele>295</ele>
        <time>2013-04-03T14:35:32Z</time>
      </trkpt>
      <trkpt lat="44.33543" lon="4.02257">
        <ele>295</ele>
        <time>2013-04-03T14:35:34Z</time>
      </trkpt>
      <trkpt lat="44.33543" lon="4.02257">
        <ele>295</ele>
        <time>2013-04-03T14:35:36Z</time>
      </trkpt>
      <trkpt lat="44.33543" lon="4.02257">
        <ele>295</ele>
        <time>2013-04-03T14:35:38Z</time>
      </trkpt>
      <trkpt lat="44.33543" lon="4.02257">
        <ele>295</ele>
        <time>2013-04-03T14:35:40Z</time>
      </trkpt>
      <trkpt lat="44.33543" lon="4.02257">
        <ele>295</ele>
        <time>2013-04-03T14:35:42Z</time>
      </trkpt>
      <trkpt lat="44.33543" lon="4.02257">
        <ele>295</ele>
        <time>2013-04-03T14:35:44Z</time>
      </trkpt>
      <trkpt lat="44.33543" lon="4.02257">
        <ele>295</ele>
        <time>2013-04-03T14:35:46Z</time>
      </trkpt>
      <trkpt lat="44.33543" lon="4.02257">
        <ele>295</ele>
        <time>2013-04-03T14:35:48Z</time>
      </trkpt>
      <trkpt lat="44.33543" lon="4.02257">
        <ele>295</ele>
        <time>2013-04-03T14:35:50Z</time>
      </trkpt>
      <trkpt lat="44.33543" lon="4.02257">
        <ele>295</ele>
        <time>2013-04-03T14:35:52Z</time>
      </trkpt>
      <trkpt lat="44.33543" lon="4.02257">
        <ele>295</ele>
        <time>2013-04-03T14:35:54Z</time>
      </trkpt>
      <trkpt lat="44.33543" lon="4.02257">
        <ele>295</ele>
        <time>2013-04-03T14:35:56Z</time>
      </trkpt>
      <trkpt lat="44.33543" lon="4.02257">
        <ele>295</ele>
        <time>2013-04-03T14:35:58Z</time>
      </trkpt>
      <trkpt lat="44.33543" lon="4.02257">
        <ele>295</ele>
        <time>2013-04-03T14:35:59Z</time>
      </trkpt>
      <trkpt lat="44.33543" lon="4.02257">
        <ele>295</ele>
        <time>2013-04-03T14:36:00Z</time>
      </trkpt>
      <trkpt lat="44.33543" lon="4.02257">
        <ele>295</ele>
        <time>2013-04-03T14:36:02Z</time>
      </trkpt>
      <trkpt lat="44.33543" lon="4.02257">
        <ele>295</ele>
        <time>2013-04-03T14:36:04Z</time>
      </trkpt>
      <trkpt lat="44.33543" lon="4.02257">
        <ele>295</ele>
        <time>2013-04-03T14:36:06Z</time>
      </trkpt>
      <trkpt lat="44.33543" lon="4.02257">
        <ele>295</ele>
        <time>2013-04-03T14:36:08Z</time>
      </trkpt>
      <trkpt lat="44.33543" lon="4.02257">
        <ele>295</ele>
        <time>2013-04-03T14:36:10Z</time>
      </trkpt>
      <trkpt lat="44.33543" lon="4.02257">
        <ele>295</ele>
        <time>2013-04-03T14:36:12Z</time>
      </trkpt>
      <trkpt lat="44.33543" lon="4.02257">
        <ele>295</ele>
        <time>2013-04-03T14:36:14Z</time>
      </trkpt>
      <trkpt lat="44.33543" lon="4.02257">
        <ele>295</ele>
        <time>2013-04-03T14:36:16Z</time>
      </trkpt>
      <trkpt lat="44.33543" lon="4.02257">
        <ele>295</ele>
        <time>2013-04-03T14:36:18Z</time>
      </trkpt>
      <trkpt lat="44.33543" lon="4.02257">
        <ele>295</ele>
        <time>2013-04-03T14:36:20Z</time>
      </trkpt>
      <trkpt lat="44.33543" lon="4.02257">
        <ele>295</ele>
        <time>2013-04-03T14:36:22Z</time>
      </trkpt>
      <trkpt lat="44.33543" lon="4.02257">
        <ele>295</ele>
        <time>2013-04-03T14:36:24Z</time>
      </trkpt>
      <trkpt lat="44.33543" lon="4.02257">
        <ele>295</ele>
        <time>2013-04-03T14:36:26Z</time>
      </trkpt>
      <trkpt lat="44.33543" lon="4.02257">
        <ele>295</ele>
        <time>2013-04-03T14:36:28Z</time>
      </trkpt>
      <trkpt lat="44.33543" lon="4.02257">
        <ele>295</ele>
        <time>2013-04-03T14:36:30Z</time>
      </trkpt>
      <trkpt lat="44.33543" lon="4.02257">
        <ele>295</ele>
        <time>2013-04-03T14:36:31Z</time>
      </trkpt>
      <trkpt lat="44.33543" lon="4.02257">
        <ele>295</ele>
        <time>2013-04-03T14:36:34Z</time>
      </trkpt>
      <trkpt lat="44.33543" lon="4.02257">
        <ele>295</ele>
        <time>2013-04-03T14:36:36Z</time>
      </trkpt>
      <trkpt lat="44.33543" lon="4.02257">
        <ele>295</ele>
        <time>2013-04-03T14:36:38Z</time>
      </trkpt>
      <trkpt lat="44.33543" lon="4.02257">
        <ele>295</ele>
        <time>2013-04-03T14:36:40Z</time>
      </trkpt>
      <trkpt lat="44.33543" lon="4.02257">
        <ele>295</ele>
        <time>2013-04-03T14:36:42Z</time>
      </trkpt>
      <trkpt lat="44.33543" lon="4.02257">
        <ele>295</ele>
        <time>2013-04-03T14:36:44Z</time>
      </trkpt>
      <trkpt lat="44.33543" lon="4.02257">
        <ele>295</ele>
        <time>2013-04-03T14:36:46Z</time>
      </trkpt>
      <trkpt lat="44.33543" lon="4.02257">
        <ele>295</ele>
        <time>2013-04-03T14:36:48Z</time>
      </trkpt>
      <trkpt lat="44.33543" lon="4.02257">
        <ele>295</ele>
        <time>2013-04-03T14:36:50Z</time>
      </trkpt>
      <trkpt lat="44.33543" lon="4.02257">
        <ele>295</ele>
        <time>2013-04-03T14:36:52Z</time>
      </trkpt>
      <trkpt lat="44.33543" lon="4.02257">
        <ele>295</ele>
        <time>2013-04-03T14:36:54Z</time>
      </trkpt>
      <trkpt lat="44.33543" lon="4.02257">
        <ele>295</ele>
        <time>2013-04-03T14:36:56Z</time>
      </trkpt>
      <trkpt lat="44.33543" lon="4.02257">
        <ele>295</ele>
        <time>2013-04-03T14:36:58Z</time>
      </trkpt>
      <trkpt lat="44.33543" lon="4.02257">
        <ele>295</ele>
        <time>2013-04-03T14:36:59Z</time>
      </trkpt>
      <trkpt lat="44.33543" lon="4.02257">
        <ele>295</ele>
        <time>2013-04-03T14:37:00Z</time>
      </trkpt>
      <trkpt lat="44.33543" lon="4.02257">
        <ele>295</ele>
        <time>2013-04-03T14:37:02Z</time>
      </trkpt>
      <trkpt lat="44.33543" lon="4.02257">
        <ele>295</ele>
        <time>2013-04-03T14:37:04Z</time>
      </trkpt>
      <trkpt lat="44.33543" lon="4.02257">
        <ele>295</ele>
        <time>2013-04-03T14:37:06Z</time>
      </trkpt>
      <trkpt lat="44.33543" lon="4.02257">
        <ele>295</ele>
        <time>2013-04-03T14:37:08Z</time>
      </trkpt>
      <trkpt lat="44.33543" lon="4.02257">
        <ele>295</ele>
        <time>2013-04-03T14:37:10Z</time>
      </trkpt>
      <trkpt lat="44.33543" lon="4.02257">
        <ele>295</ele>
        <time>2013-04-03T14:37:12Z</time>
      </trkpt>
      <trkpt lat="44.33543" lon="4.02257">
        <ele>295</ele>
        <time>2013-04-03T14:37:14Z</time>
      </trkpt>
      <trkpt lat="44.33543" lon="4.02257">
        <ele>295</ele>
        <time>2013-04-03T14:37:16Z</time>
      </trkpt>
      <trkpt lat="44.33543" lon="4.02257">
        <ele>295</ele>
        <time>2013-04-03T14:37:18Z</time>
      </trkpt>
      <trkpt lat="44.33543" lon="4.02257">
        <ele>295</ele>
        <time>2013-04-03T14:37:20Z</time>
      </trkpt>
      <trkpt lat="44.33543" lon="4.02258">
        <ele>294</ele>
        <time>2013-04-03T14:37:22Z</time>
      </trkpt>
      <trkpt lat="44.33543" lon="4.02258">
        <ele>294</ele>
        <time>2013-04-03T14:37:24Z</time>
      </trkpt>
      <trkpt lat="44.33543" lon="4.02258">
        <ele>294</ele>
        <time>2013-04-03T14:37:26Z</time>
      </trkpt>
      <trkpt lat="44.33543" lon="4.02258">
        <ele>294</ele>
        <time>2013-04-03T14:37:28Z</time>
      </trkpt>
      <trkpt lat="44.33543" lon="4.02258">
        <ele>294</ele>
        <time>2013-04-03T14:37:30Z</time>
      </trkpt>
      <trkpt lat="44.33543" lon="4.02258">
        <ele>294</ele>
        <time>2013-04-03T14:37:32Z</time>
      </trkpt>
      <trkpt lat="44.33543" lon="4.02258">
        <ele>294</ele>
        <time>2013-04-03T14:37:33Z</time>
      </trkpt>
      <trkpt lat="44.33543" lon="4.02258">
        <ele>294</ele>
        <time>2013-04-03T14:37:36Z</time>
      </trkpt>
      <trkpt lat="44.33543" lon="4.02258">
        <ele>294</ele>
        <time>2013-04-03T14:37:38Z</time>
      </trkpt>
      <trkpt lat="44.33543" lon="4.02258">
        <ele>294</ele>
        <time>2013-04-03T14:37:40Z</time>
      </trkpt>
      <trkpt lat="44.33543" lon="4.02258">
        <ele>294</ele>
        <time>2013-04-03T14:37:42Z</time>
      </trkpt>
      <trkpt lat="44.33543" lon="4.02258">
        <ele>294</ele>
        <time>2013-04-03T14:37:44Z</time>
      </trkpt>
      <trkpt lat="44.33543" lon="4.02258">
        <ele>294</ele>
        <time>2013-04-03T14:37:46Z</time>
      </trkpt>
      <trkpt lat="44.33543" lon="4.02258">
        <ele>294</ele>
        <time>2013-04-03T14:37:48Z</time>
      </trkpt>
      <trkpt lat="44.33543" lon="4.02258">
        <ele>294</ele>
        <time>2013-04-03T14:37:50Z</time>
      </trkpt>
      <trkpt lat="44.33543" lon="4.02258">
        <ele>294</ele>
        <time>2013-04-03T14:37:52Z</time>
      </trkpt>
      <trkpt lat="44.33543" lon="4.02258">
        <ele>294</ele>
        <time>2013-04-03T14:37:54Z</time>
      </trkpt>
      <trkpt lat="44.33543" lon="4.02258">
        <ele>294</ele>
        <time>2013-04-03T14:37:56Z</time>
      </trkpt>
      <trkpt lat="44.33543" lon="4.02258">
        <ele>294</ele>
        <time>2013-04-03T14:37:58Z</time>
      </trkpt>
      <trkpt lat="44.33543" lon="4.02258">
        <ele>294</ele>
        <time>2013-04-03T14:37:59Z</time>
      </trkpt>
      <trkpt lat="44.33543" lon="4.02258">
        <ele>294</ele>
        <time>2013-04-03T14:38:00Z</time>
      </trkpt>
      <trkpt lat="44.33543" lon="4.02258">
        <ele>294</ele>
        <time>2013-04-03T14:38:02Z</time>
      </trkpt>
      <trkpt lat="44.33543" lon="4.02258">
        <ele>294</ele>
        <time>2013-04-03T14:38:04Z</time>
      </trkpt>
      <trkpt lat="44.33543" lon="4.02258">
        <ele>294</ele>
        <time>2013-04-03T14:38:06Z</time>
      </trkpt>
      <trkpt lat="44.33543" lon="4.02258">
        <ele>294</ele>
        <time>2013-04-03T14:38:08Z</time>
      </trkpt>
      <trkpt lat="44.33543" lon="4.02258">
        <ele>294</ele>
        <time>2013-04-03T14:38:10Z</time>
      </trkpt>
      <trkpt lat="44.33543" lon="4.02258">
        <ele>294</ele>
        <time>2013-04-03T14:38:12Z</time>
      </trkpt>
      <trkpt lat="44.33543" lon="4.02258">
        <ele>294</ele>
        <time>2013-04-03T14:38:14Z</time>
      </trkpt>
      <trkpt lat="44.33543" lon="4.02258">
        <ele>294</ele>
        <time>2013-04-03T14:38:16Z</time>
      </trkpt>
      <trkpt lat="44.33543" lon="4.02258">
        <ele>294</ele>
        <time>2013-04-03T14:38:18Z</time>
      </trkpt>
      <trkpt lat="44.33543" lon="4.02258">
        <ele>294</ele>
        <time>2013-04-03T14:38:20Z</time>
      </trkpt>
      <trkpt lat="44.33543" lon="4.02258">
        <ele>294</ele>
        <time>2013-04-03T14:38:22Z</time>
      </trkpt>
      <trkpt lat="44.33543" lon="4.02258">
        <ele>294</ele>
        <time>2013-04-03T14:38:24Z</time>
      </trkpt>
      <trkpt lat="44.33543" lon="4.02258">
        <ele>294</ele>
        <time>2013-04-03T14:38:26Z</time>
      </trkpt>
      <trkpt lat="44.33543" lon="4.02258">
        <ele>294</ele>
        <time>2013-04-03T14:38:28Z</time>
      </trkpt>
      <trkpt lat="44.33543" lon="4.02258">
        <ele>294</ele>
        <time>2013-04-03T14:38:30Z</time>
      </trkpt>
      <trkpt lat="44.33543" lon="4.02258">
        <ele>294</ele>
        <time>2013-04-03T14:38:32Z</time>
      </trkpt>
      <trkpt lat="44.33543" lon="4.02258">
        <ele>294</ele>
        <time>2013-04-03T14:38:34Z</time>
      </trkpt>
      <trkpt lat="44.33543" lon="4.02258">
        <ele>294</ele>
        <time>2013-04-03T14:38:35Z</time>
      </trkpt>
      <trkpt lat="44.33543" lon="4.02258">
        <ele>294</ele>
        <time>2013-04-03T14:38:38Z</time>
      </trkpt>
      <trkpt lat="44.33543" lon="4.02258">
        <ele>294</ele>
        <time>2013-04-03T14:38:40Z</time>
      </trkpt>
      <trkpt lat="44.33543" lon="4.02258">
        <ele>294</ele>
        <time>2013-04-03T14:38:42Z</time>
      </trkpt>
      <trkpt lat="44.33543" lon="4.02258">
        <ele>294</ele>
        <time>2013-04-03T14:38:44Z</time>
      </trkpt>
      <trkpt lat="44.33543" lon="4.02258">
        <ele>294</ele>
        <time>2013-04-03T14:38:46Z</time>
      </trkpt>
      <trkpt lat="44.33543" lon="4.02258">
        <ele>294</ele>
        <time>2013-04-03T14:38:48Z</time>
      </trkpt>
      <trkpt lat="44.33543" lon="4.02258">
        <ele>294</ele>
        <time>2013-04-03T14:38:50Z</time>
      </trkpt>
      <trkpt lat="44.33543" lon="4.02258">
        <ele>294</ele>
        <time>2013-04-03T14:38:52Z</time>
      </trkpt>
      <trkpt lat="44.33543" lon="4.02258">
        <ele>294</ele>
        <time>2013-04-03T14:38:54Z</time>
      </trkpt>
      <trkpt lat="44.33543" lon="4.02258">
        <ele>294</ele>
        <time>2013-04-03T14:38:56Z</time>
      </trkpt>
      <trkpt lat="44.33543" lon="4.02258">
        <ele>294</ele>
        <time>2013-04-03T14:38:58Z</time>
      </trkpt>
      <trkpt lat="44.33543" lon="4.02258">
        <ele>294</ele>
        <time>2013-04-03T14:38:59Z</time>
      </trkpt>
      <trkpt lat="44.33543" lon="4.02258">
        <ele>294</ele>
        <time>2013-04-03T14:39:00Z</time>
      </trkpt>
      <trkpt lat="44.33543" lon="4.02258">
        <ele>294</ele>
        <time>2013-04-03T14:39:02Z</time>
      </trkpt>
      <trkpt lat="44.33543" lon="4.02258">
        <ele>294</ele>
        <time>2013-04-03T14:39:04Z</time>
      </trkpt>
      <trkpt lat="44.33543" lon="4.02258">
        <ele>294</ele>
        <time>2013-04-03T14:39:06Z</time>
      </trkpt>
      <trkpt lat="44.33543" lon="4.02258">
        <ele>294</ele>
        <time>2013-04-03T14:39:08Z</time>
      </trkpt>
      <trkpt lat="44.33543" lon="4.02258">
        <ele>294</ele>
        <time>2013-04-03T14:39:10Z</time>
      </trkpt>
      <trkpt lat="44.33543" lon="4.02258">
        <ele>294</ele>
        <time>2013-04-03T14:39:12Z</time>
      </trkpt>
      <trkpt lat="44.33543" lon="4.02258">
        <ele>294</ele>
        <time>2013-04-03T14:39:14Z</time>
      </trkpt>
      <trkpt lat="44.33543" lon="4.02258">
        <ele>294</ele>
        <time>2013-04-03T14:39:16Z</time>
      </trkpt>
      <trkpt lat="44.33543" lon="4.02258">
        <ele>294</ele>
        <time>2013-04-03T14:39:18Z</time>
      </trkpt>
      <trkpt lat="44.33543" lon="4.02258">
        <ele>294</ele>
        <time>2013-04-03T14:39:20Z</time>
      </trkpt>
      <trkpt lat="44.33543" lon="4.02258">
        <ele>294</ele>
        <time>2013-04-03T14:39:22Z</time>
      </trkpt>
      <trkpt lat="44.33543" lon="4.02258">
        <ele>294</ele>
        <time>2013-04-03T14:39:24Z</time>
      </trkpt>
      <trkpt lat="44.33543" lon="4.02258">
        <ele>294</ele>
        <time>2013-04-03T14:39:26Z</time>
      </trkpt>
      <trkpt lat="44.33543" lon="4.02258">
        <ele>294</ele>
        <time>2013-04-03T14:39:28Z</time>
      </trkpt>
      <trkpt lat="44.33543" lon="4.02258">
        <ele>294</ele>
        <time>2013-04-03T14:39:30Z</time>
      </trkpt>
      <trkpt lat="44.33543" lon="4.02258">
        <ele>294</ele>
        <time>2013-04-03T14:39:32Z</time>
      </trkpt>
      <trkpt lat="44.33543" lon="4.02258">
        <ele>294</ele>
        <time>2013-04-03T14:39:34Z</time>
      </trkpt>
      <trkpt lat="44.33543" lon="4.02258">
        <ele>294</ele>
        <time>2013-04-03T14:39:36Z</time>
      </trkpt>
      <trkpt lat="44.33543" lon="4.02258">
        <ele>294</ele>
        <time>2013-04-03T14:39:37Z</time>
      </trkpt>
      <trkpt lat="44.33543" lon="4.02258">
        <ele>294</ele>
        <time>2013-04-03T14:39:40Z</time>
      </trkpt>
      <trkpt lat="44.33543" lon="4.02258">
        <ele>294</ele>
        <time>2013-04-03T14:39:42Z</time>
      </trkpt>
      <trkpt lat="44.33543" lon="4.02258">
        <ele>294</ele>
        <time>2013-04-03T14:39:44Z</time>
      </trkpt>
      <trkpt lat="44.33543" lon="4.02258">
        <ele>294</ele>
        <time>2013-04-03T14:39:46Z</time>
      </trkpt>
      <trkpt lat="44.33543" lon="4.02258">
        <ele>294</ele>
        <time>2013-04-03T14:39:48Z</time>
      </trkpt>
      <trkpt lat="44.33543" lon="4.02258">
        <ele>294</ele>
        <time>2013-04-03T14:39:50Z</time>
      </trkpt>
      <trkpt lat="44.33543" lon="4.02258">
        <ele>294</ele>
        <time>2013-04-03T14:39:52Z</time>
      </trkpt>
      <trkpt lat="44.33543" lon="4.02258">
        <ele>294</ele>
        <time>2013-04-03T14:39:54Z</time>
      </trkpt>
      <trkpt lat="44.33543" lon="4.02258">
        <ele>294</ele>
        <time>2013-04-03T14:39:56Z</time>
      </trkpt>
      <trkpt lat="44.33543" lon="4.02258">
        <ele>294</ele>
        <time>2013-04-03T14:39:58Z</time>
      </trkpt>
      <trkpt lat="44.33543" lon="4.02258">
        <ele>294</ele>
        <time>2013-04-03T14:39:59Z</time>
      </trkpt>
      <trkpt lat="44.33543" lon="4.02258">
        <ele>294</ele>
        <time>2013-04-03T14:40:00Z</time>
      </trkpt>
      <trkpt lat="44.33543" lon="4.02258">
        <ele>294</ele>
        <time>2013-04-03T14:40:02Z</time>
      </trkpt>
      <trkpt lat="44.33543" lon="4.02258">
        <ele>294</ele>
        <time>2013-04-03T14:40:04Z</time>
      </trkpt>
      <trkpt lat="44.33543" lon="4.02258">
        <ele>294</ele>
        <time>2013-04-03T14:40:06Z</time>
      </trkpt>
      <trkpt lat="44.33543" lon="4.02258">
        <ele>294</ele>
        <time>2013-04-03T14:40:08Z</time>
      </trkpt>
      <trkpt lat="44.33543" lon="4.02258">
        <ele>294</ele>
        <time>2013-04-03T14:40:10Z</time>
      </trkpt>
      <trkpt lat="44.33543" lon="4.02258">
        <ele>294</ele>
        <time>2013-04-03T14:40:12Z</time>
      </trkpt>
      <trkpt lat="44.33543" lon="4.02258">
        <ele>294</ele>
        <time>2013-04-03T14:40:14Z</time>
      </trkpt>
      <trkpt lat="44.33543" lon="4.02258">
        <ele>294</ele>
        <time>2013-04-03T14:40:16Z</time>
      </trkpt>
      <trkpt lat="44.33543" lon="4.02258">
        <ele>294</ele>
        <time>2013-04-03T14:40:18Z</time>
      </trkpt>
      <trkpt lat="44.33543" lon="4.02258">
        <ele>294</ele>
        <time>2013-04-03T14:40:20Z</time>
      </trkpt>
      <trkpt lat="44.33543" lon="4.02258">
        <ele>294</ele>
        <time>2013-04-03T14:40:22Z</time>
      </trkpt>
      <trkpt lat="44.33543" lon="4.02258">
        <ele>294</ele>
        <time>2013-04-03T14:40:24Z</time>
      </trkpt>
      <trkpt lat="44.33543" lon="4.02258">
        <ele>294</ele>
        <time>2013-04-03T14:40:26Z</time>
      </trkpt>
      <trkpt lat="44.33543" lon="4.02258">
        <ele>294</ele>
        <time>2013-04-03T14:40:28Z</time>
      </trkpt>
      <trkpt lat="44.33543" lon="4.02258">
        <ele>294</ele>
        <time>2013-04-03T14:40:30Z</time>
      </trkpt>
      <trkpt lat="44.33543" lon="4.02258">
        <ele>294</ele>
        <time>2013-04-03T14:40:32Z</time>
      </trkpt>
      <trkpt lat="44.33543" lon="4.02258">
        <ele>294</ele>
        <time>2013-04-03T14:40:34Z</time>
      </trkpt>
      <trkpt lat="44.33543" lon="4.02258">
        <ele>294</ele>
        <time>2013-04-03T14:40:36Z</time>
      </trkpt>
      <trkpt lat="44.33543" lon="4.02258">
        <ele>294</ele>
        <time>2013-04-03T14:40:38Z</time>
      </trkpt>
      <trkpt lat="44.33543" lon="4.02258">
        <ele>294</ele>
        <time>2013-04-03T14:40:39Z</time>
      </trkpt>
      <trkpt lat="44.33543" lon="4.02258">
        <ele>294</ele>
        <time>2013-04-03T14:40:42Z</time>
      </trkpt>
      <trkpt lat="44.33543" lon="4.02258">
        <ele>294</ele>
        <time>2013-04-03T14:40:44Z</time>
      </trkpt>
      <trkpt lat="44.33543" lon="4.02258">
        <ele>294</ele>
        <time>2013-04-03T14:40:46Z</time>
      </trkpt>
      <trkpt lat="44.33543" lon="4.02258">
        <ele>294</ele>
        <time>2013-04-03T14:40:48Z</time>
      </trkpt>
      <trkpt lat="44.33543" lon="4.02258">
        <ele>294</ele>
        <time>2013-04-03T14:40:50Z</time>
      </trkpt>
      <trkpt lat="44.33543" lon="4.02258">
        <ele>294</ele>
        <time>2013-04-03T14:40:52Z</time>
      </trkpt>
      <trkpt lat="44.33543" lon="4.02258">
        <ele>294</ele>
        <time>2013-04-03T14:40:54Z</time>
      </trkpt>
      <trkpt lat="44.33543" lon="4.02258">
        <ele>294</ele>
        <time>2013-04-03T14:40:56Z</time>
      </trkpt>
      <trkpt lat="44.33543" lon="4.02258">
        <ele>294</ele>
        <time>2013-04-03T14:40:58Z</time>
      </trkpt>
      <trkpt lat="44.33543" lon="4.02258">
        <ele>294</ele>
        <time>2013-04-03T14:40:59Z</time>
      </trkpt>
      <trkpt lat="44.33543" lon="4.02258">
        <ele>294</ele>
        <time>2013-04-03T14:41:00Z</time>
      </trkpt>
      <trkpt lat="44.33543" lon="4.02258">
        <ele>294</ele>
        <time>2013-04-03T14:41:02Z</time>
      </trkpt>
      <trkpt lat="44.33543" lon="4.02258">
        <ele>294</ele>
        <time>2013-04-03T14:41:04Z</time>
      </trkpt>
      <trkpt lat="44.33543" lon="4.02258">
        <ele>294</ele>
        <time>2013-04-03T14:41:06Z</time>
      </trkpt>
      <trkpt lat="44.33543" lon="4.02258">
        <ele>294</ele>
        <time>2013-04-03T14:41:08Z</time>
      </trkpt>
      <trkpt lat="44.33543" lon="4.02258">
        <ele>294</ele>
        <time>2013-04-03T14:41:10Z</time>
      </trkpt>
      <trkpt lat="44.33543" lon="4.02258">
        <ele>294</ele>
        <time>2013-04-03T14:41:12Z</time>
      </trkpt>
      <trkpt lat="44.33543" lon="4.02258">
        <ele>294</ele>
        <time>2013-04-03T14:41:14Z</time>
      </trkpt>
      <trkpt lat="44.33543" lon="4.02258">
        <ele>294</ele>
        <time>2013-04-03T14:41:16Z</time>
      </trkpt>
      <trkpt lat="44.33543" lon="4.02258">
        <ele>294</ele>
        <time>2013-04-03T14:41:18Z</time>
      </trkpt>
      <trkpt lat="44.33543" lon="4.02258">
        <ele>294</ele>
        <time>2013-04-03T14:41:20Z</time>
      </trkpt>
      <trkpt lat="44.33543" lon="4.02258">
        <ele>294</ele>
        <time>2013-04-03T14:41:22Z</time>
      </trkpt>
      <trkpt lat="44.33543" lon="4.02258">
        <ele>294</ele>
        <time>2013-04-03T14:41:24Z</time>
      </trkpt>
      <trkpt lat="44.33543" lon="4.02258">
        <ele>294</ele>
        <time>2013-04-03T14:41:26Z</time>
      </trkpt>
      <trkpt lat="44.33543" lon="4.02258">
        <ele>294</ele>
        <time>2013-04-03T14:41:28Z</time>
      </trkpt>
      <trkpt lat="44.33543" lon="4.02258">
        <ele>294</ele>
        <time>2013-04-03T14:41:30Z</time>
      </trkpt>
      <trkpt lat="44.33543" lon="4.02258">
        <ele>294</ele>
        <time>2013-04-03T14:41:32Z</time>
      </trkpt>
      <trkpt lat="44.33543" lon="4.02258">
        <ele>294</ele>
        <time>2013-04-03T14:41:34Z</time>
      </trkpt>
      <trkpt lat="44.33543" lon="4.02258">
        <ele>294</ele>
        <time>2013-04-03T14:41:36Z</time>
      </trkpt>
      <trkpt lat="44.33543" lon="4.02258">
        <ele>294</ele>
        <time>2013-04-03T14:41:38Z</time>
      </trkpt>
      <trkpt lat="44.33543" lon="4.02258">
        <ele>294</ele>
        <time>2013-04-03T14:41:40Z</time>
      </trkpt>
      <trkpt lat="44.33543" lon="4.02258">
        <ele>294</ele>
        <time>2013-04-03T14:41:41Z</time>
      </trkpt>
      <trkpt lat="44.33543" lon="4.02258">
        <ele>294</ele>
        <time>2013-04-03T14:41:44Z</time>
      </trkpt>
      <trkpt lat="44.33543" lon="4.02258">
        <ele>294</ele>
        <time>2013-04-03T14:41:46Z</time>
      </trkpt>
      <trkpt lat="44.33543" lon="4.02258">
        <ele>294</ele>
        <time>2013-04-03T14:41:48Z</time>
      </trkpt>
      <trkpt lat="44.33543" lon="4.02258">
        <ele>294</ele>
        <time>2013-04-03T14:41:50Z</time>
      </trkpt>
      <trkpt lat="44.33543" lon="4.02258">
        <ele>294</ele>
        <time>2013-04-03T14:41:52Z</time>
      </trkpt>
      <trkpt lat="44.33543" lon="4.02258">
        <ele>294</ele>
        <time>2013-04-03T14:41:54Z</time>
      </trkpt>
      <trkpt lat="44.33543" lon="4.02258">
        <ele>294</ele>
        <time>2013-04-03T14:41:56Z</time>
      </trkpt>
      <trkpt lat="44.33543" lon="4.02258">
        <ele>294</ele>
        <time>2013-04-03T14:41:58Z</time>
      </trkpt>
      <trkpt lat="44.33543" lon="4.02258">
        <ele>294</ele>
        <time>2013-04-03T14:41:59Z</time>
      </trkpt>
      <trkpt lat="44.33543" lon="4.02258">
        <ele>294</ele>
        <time>2013-04-03T14:42:00Z</time>
      </trkpt>
      <trkpt lat="44.33543" lon="4.02258">
        <ele>294</ele>
        <time>2013-04-03T14:42:02Z</time>
      </trkpt>
      <trkpt lat="44.33543" lon="4.02258">
        <ele>294</ele>
        <time>2013-04-03T14:42:04Z</time>
      </trkpt>
      <trkpt lat="44.33543" lon="4.02258">
        <ele>294</ele>
        <time>2013-04-03T14:42:06Z</time>
      </trkpt>
      <trkpt lat="44.33543" lon="4.02258">
        <ele>294</ele>
        <time>2013-04-03T14:42:08Z</time>
      </trkpt>
      <trkpt lat="44.33543" lon="4.02258">
        <ele>294</ele>
        <time>2013-04-03T14:42:10Z</time>
      </trkpt>
      <trkpt lat="44.33543" lon="4.02258">
        <ele>294</ele>
        <time>2013-04-03T14:42:12Z</time>
      </trkpt>
      <trkpt lat="44.33543" lon="4.02258">
        <ele>294</ele>
        <time>2013-04-03T14:42:14Z</time>
      </trkpt>
      <trkpt lat="44.33543" lon="4.02258">
        <ele>294</ele>
        <time>2013-04-03T14:42:16Z</time>
      </trkpt>
      <trkpt lat="44.33543" lon="4.02258">
        <ele>294</ele>
        <time>2013-04-03T14:42:18Z</time>
      </trkpt>
      <trkpt lat="44.33543" lon="4.02258">
        <ele>294</ele>
        <time>2013-04-03T14:42:20Z</time>
      </trkpt>
      <trkpt lat="44.33543" lon="4.02258">
        <ele>294</ele>
        <time>2013-04-03T14:42:22Z</time>
      </trkpt>
      <trkpt lat="44.33543" lon="4.02258">
        <ele>294</ele>
        <time>2013-04-03T14:42:24Z</time>
      </trkpt>
      <trkpt lat="44.33543" lon="4.02258">
        <ele>294</ele>
        <time>2013-04-03T14:42:26Z</time>
      </trkpt>
      <trkpt lat="44.33543" lon="4.02258">
        <ele>294</ele>
        <time>2013-04-03T14:42:28Z</time>
      </trkpt>
      <trkpt lat="44.33543" lon="4.02258">
        <ele>294</ele>
        <time>2013-04-03T14:42:30Z</time>
      </trkpt>
      <trkpt lat="44.33543" lon="4.02258">
        <ele>294</ele>
        <time>2013-04-03T14:42:32Z</time>
      </trkpt>
      <trkpt lat="44.33543" lon="4.02258">
        <ele>294</ele>
        <time>2013-04-03T14:42:34Z</time>
      </trkpt>
      <trkpt lat="44.33543" lon="4.02258">
        <ele>294</ele>
        <time>2013-04-03T14:42:36Z</time>
      </trkpt>
      <trkpt lat="44.33543" lon="4.02258">
        <ele>294</ele>
        <time>2013-04-03T14:42:38Z</time>
      </trkpt>
      <trkpt lat="44.33543" lon="4.02258">
        <ele>294</ele>
        <time>2013-04-03T14:42:40Z</time>
      </trkpt>
      <trkpt lat="44.33543" lon="4.02258">
        <ele>294</ele>
        <time>2013-04-03T14:42:42Z</time>
      </trkpt>
      <trkpt lat="44.33543" lon="4.02258">
        <ele>294</ele>
        <time>2013-04-03T14:42:43Z</time>
      </trkpt>
      <trkpt lat="44.33543" lon="4.02258">
        <ele>294</ele>
        <time>2013-04-03T14:42:46Z</time>
      </trkpt>
      <trkpt lat="44.33543" lon="4.02258">
        <ele>294</ele>
        <time>2013-04-03T14:42:48Z</time>
      </trkpt>
      <trkpt lat="44.33543" lon="4.02258">
        <ele>294</ele>
        <time>2013-04-03T14:42:50Z</time>
      </trkpt>
      <trkpt lat="44.33543" lon="4.02258">
        <ele>294</ele>
        <time>2013-04-03T14:42:52Z</time>
      </trkpt>
      <trkpt lat="44.33543" lon="4.02258">
        <ele>294</ele>
        <time>2013-04-03T14:42:54Z</time>
      </trkpt>
      <trkpt lat="44.33543" lon="4.02258">
        <ele>294</ele>
        <time>2013-04-03T14:42:56Z</time>
      </trkpt>
      <trkpt lat="44.33543" lon="4.02258">
        <ele>294</ele>
        <time>2013-04-03T14:42:58Z</time>
      </trkpt>
      <trkpt lat="44.33543" lon="4.02258">
        <ele>294</ele>
        <time>2013-04-03T14:42:59Z</time>
      </trkpt>
      <trkpt lat="44.33543" lon="4.02258">
        <ele>294</ele>
        <time>2013-04-03T14:43:00Z</time>
      </trkpt>
      <trkpt lat="44.33543" lon="4.02258">
        <ele>294</ele>
        <time>2013-04-03T14:43:02Z</time>
      </trkpt>
      <trkpt lat="44.33543" lon="4.02258">
        <ele>294</ele>
        <time>2013-04-03T14:43:04Z</time>
      </trkpt>
      <trkpt lat="44.33543" lon="4.02258">
        <ele>294</ele>
        <time>2013-04-03T14:43:06Z</time>
      </trkpt>
      <trkpt lat="44.33543" lon="4.02258">
        <ele>294</ele>
        <time>2013-04-03T14:43:08Z</time>
      </trkpt>
      <trkpt lat="44.33543" lon="4.02258">
        <ele>294</ele>
        <time>2013-04-03T14:43:10Z</time>
      </trkpt>
      <trkpt lat="44.33543" lon="4.02258">
        <ele>294</ele>
        <time>2013-04-03T14:43:12Z</time>
      </trkpt>
      <trkpt lat="44.33543" lon="4.02258">
        <ele>294</ele>
        <time>2013-04-03T14:43:14Z</time>
      </trkpt>
      <trkpt lat="44.33543" lon="4.02258">
        <ele>294</ele>
        <time>2013-04-03T14:43:16Z</time>
      </trkpt>
      <trkpt lat="44.33543" lon="4.02258">
        <ele>294</ele>
        <time>2013-04-03T14:43:18Z</time>
      </trkpt>
      <trkpt lat="44.33543" lon="4.02258">
        <ele>294</ele>
        <time>2013-04-03T14:43:20Z</time>
      </trkpt>
      <trkpt lat="44.33543" lon="4.02258">
        <ele>294</ele>
        <time>2013-04-03T14:43:22Z</time>
      </trkpt>
      <trkpt lat="44.33543" lon="4.02258">
        <ele>294</ele>
        <time>2013-04-03T14:43:24Z</time>
      </trkpt>
      <trkpt lat="44.33543" lon="4.02258">
        <ele>294</ele>
        <time>2013-04-03T14:43:26Z</time>
      </trkpt>
      <trkpt lat="44.33543" lon="4.02258">
        <ele>294</ele>
        <time>2013-04-03T14:43:28Z</time>
      </trkpt>
      <trkpt lat="44.33543" lon="4.02258">
        <ele>294</ele>
        <time>2013-04-03T14:43:30Z</time>
      </trkpt>
      <trkpt lat="44.33543" lon="4.02258">
        <ele>294</ele>
        <time>2013-04-03T14:43:32Z</time>
      </trkpt>
      <trkpt lat="44.33543" lon="4.02258">
        <ele>294</ele>
        <time>2013-04-03T14:43:34Z</time>
      </trkpt>
      <trkpt lat="44.33543" lon="4.02258">
        <ele>294</ele>
        <time>2013-04-03T14:43:36Z</time>
      </trkpt>
      <trkpt lat="44.33543" lon="4.02258">
        <ele>294</ele>
        <time>2013-04-03T14:43:38Z</time>
      </trkpt>
      <trkpt lat="44.33543" lon="4.02258">
        <ele>294</ele>
        <time>2013-04-03T14:43:40Z</time>
      </trkpt>
      <trkpt lat="44.33543" lon="4.02258">
        <ele>294</ele>
        <time>2013-04-03T14:43:42Z</time>
      </trkpt>
      <trkpt lat="44.33543" lon="4.02258">
        <ele>294</ele>
        <time>2013-04-03T14:43:44Z</time>
      </trkpt>
      <trkpt lat="44.33543" lon="4.02258">
        <ele>294</ele>
        <time>2013-04-03T14:43:45Z</time>
      </trkpt>
      <trkpt lat="44.33543" lon="4.02258">
        <ele>294</ele>
        <time>2013-04-03T14:43:48Z</time>
      </trkpt>
      <trkpt lat="44.33543" lon="4.02258">
        <ele>294</ele>
        <time>2013-04-03T14:43:50Z</time>
      </trkpt>
      <trkpt lat="44.33543" lon="4.02258">
        <ele>294</ele>
        <time>2013-04-03T14:43:52Z</time>
      </trkpt>
      <trkpt lat="44.33543" lon="4.02258">
        <ele>294</ele>
        <time>2013-04-03T14:43:54Z</time>
      </trkpt>
      <trkpt lat="44.33543" lon="4.02258">
        <ele>294</ele>
        <time>2013-04-03T14:43:56Z</time>
      </trkpt>
      <trkpt lat="44.33543" lon="4.02258">
        <ele>294</ele>
        <time>2013-04-03T14:43:58Z</time>
      </trkpt>
      <trkpt lat="44.33543" lon="4.02258">
        <ele>294</ele>
        <time>2013-04-03T14:43:59Z</time>
      </trkpt>
      <trkpt lat="44.33543" lon="4.02258">
        <ele>294</ele>
        <time>2013-04-03T14:44:00Z</time>
      </trkpt>
      <trkpt lat="44.33543" lon="4.02258">
        <ele>294</ele>
        <time>2013-04-03T14:44:02Z</time>
      </trkpt>
      <trkpt lat="44.33543" lon="4.02258">
        <ele>294</ele>
        <time>2013-04-03T14:44:04Z</time>
      </trkpt>
      <trkpt lat="44.33543" lon="4.02258">
        <ele>294</ele>
        <time>2013-04-03T14:44:06Z</time>
      </trkpt>
      <trkpt lat="44.33543" lon="4.02258">
        <ele>294</ele>
        <time>2013-04-03T14:44:08Z</time>
      </trkpt>
      <trkpt lat="44.33543" lon="4.02258">
        <ele>294</ele>
        <time>2013-04-03T14:44:10Z</time>
      </trkpt>
      <trkpt lat="44.33542" lon="4.02258">
        <ele>294</ele>
        <time>2013-04-03T14:44:12Z</time>
      </trkpt>
      <trkpt lat="44.33542" lon="4.02258">
        <ele>294</ele>
        <time>2013-04-03T14:44:14Z</time>
      </trkpt>
      <trkpt lat="44.33542" lon="4.02258">
        <ele>294</ele>
        <time>2013-04-03T14:44:16Z</time>
      </trkpt>
      <trkpt lat="44.33542" lon="4.02258">
        <ele>294</ele>
        <time>2013-04-03T14:44:18Z</time>
      </trkpt>
      <trkpt lat="44.33542" lon="4.02258">
        <ele>294</ele>
        <time>2013-04-03T14:44:20Z</time>
      </trkpt>
      <trkpt lat="44.33542" lon="4.02258">
        <ele>294</ele>
        <time>2013-04-03T14:44:22Z</time>
      </trkpt>
      <trkpt lat="44.33542" lon="4.02258">
        <ele>294</ele>
        <time>2013-04-03T14:44:24Z</time>
      </trkpt>
      <trkpt lat="44.33542" lon="4.02258">
        <ele>294</ele>
        <time>2013-04-03T14:44:26Z</time>
      </trkpt>
      <trkpt lat="44.33542" lon="4.02258">
        <ele>294</ele>
        <time>2013-04-03T14:44:28Z</time>
      </trkpt>
      <trkpt lat="44.33542" lon="4.02258">
        <ele>294</ele>
        <time>2013-04-03T14:44:30Z</time>
      </trkpt>
      <trkpt lat="44.33542" lon="4.02258">
        <ele>294</ele>
        <time>2013-04-03T14:44:32Z</time>
      </trkpt>
      <trkpt lat="44.33542" lon="4.02258">
        <ele>294</ele>
        <time>2013-04-03T14:44:34Z</time>
      </trkpt>
      <trkpt lat="44.33542" lon="4.02258">
        <ele>294</ele>
        <time>2013-04-03T14:44:36Z</time>
      </trkpt>
      <trkpt lat="44.33542" lon="4.02258">
        <ele>294</ele>
        <time>2013-04-03T14:44:38Z</time>
      </trkpt>
      <trkpt lat="44.33542" lon="4.02258">
        <ele>294</ele>
        <time>2013-04-03T14:44:40Z</time>
      </trkpt>
      <trkpt lat="44.33542" lon="4.02258">
        <ele>294</ele>
        <time>2013-04-03T14:44:42Z</time>
      </trkpt>
      <trkpt lat="44.33542" lon="4.02258">
        <ele>294</ele>
        <time>2013-04-03T14:44:44Z</time>
      </trkpt>
      <trkpt lat="44.33542" lon="4.02258">
        <ele>294</ele>
        <time>2013-04-03T14:44:46Z</time>
      </trkpt>
      <trkpt lat="44.33542" lon="4.02258">
        <ele>294</ele>
        <time>2013-04-03T14:44:47Z</time>
      </trkpt>
      <trkpt lat="44.33542" lon="4.02258">
        <ele>294</ele>
        <time>2013-04-03T14:44:50Z</time>
      </trkpt>
      <trkpt lat="44.33542" lon="4.02258">
        <ele>294</ele>
        <time>2013-04-03T14:44:52Z</time>
      </trkpt>
      <trkpt lat="44.33542" lon="4.02258">
        <ele>294</ele>
        <time>2013-04-03T14:44:54Z</time>
      </trkpt>
      <trkpt lat="44.33542" lon="4.02258">
        <ele>294</ele>
        <time>2013-04-03T14:44:56Z</time>
      </trkpt>
      <trkpt lat="44.33542" lon="4.02258">
        <ele>294</ele>
        <time>2013-04-03T14:44:58Z</time>
      </trkpt>
      <trkpt lat="44.33542" lon="4.02258">
        <ele>294</ele>
        <time>2013-04-03T14:44:59Z</time>
      </trkpt>
      <trkpt lat="44.33542" lon="4.02258">
        <ele>294</ele>
        <time>2013-04-03T14:45:00Z</time>
      </trkpt>
      <trkpt lat="44.33542" lon="4.02258">
        <ele>294</ele>
        <time>2013-04-03T14:45:02Z</time>
      </trkpt>
      <trkpt lat="44.33542" lon="4.02258">
        <ele>294</ele>
        <time>2013-04-03T14:45:04Z</time>
      </trkpt>
      <trkpt lat="44.33542" lon="4.02258">
        <ele>294</ele>
        <time>2013-04-03T14:45:06Z</time>
      </trkpt>
      <trkpt lat="44.33542" lon="4.02258">
        <ele>294</ele>
        <time>2013-04-03T14:45:08Z</time>
      </trkpt>
      <trkpt lat="44.33542" lon="4.02258">
        <ele>294</ele>
        <time>2013-04-03T14:45:10Z</time>
      </trkpt>
      <trkpt lat="44.33542" lon="4.02258">
        <ele>294</ele>
        <time>2013-04-03T14:45:12Z</time>
      </trkpt>
      <trkpt lat="44.33542" lon="4.02258">
        <ele>294</ele>
        <time>2013-04-03T14:45:14Z</time>
      </trkpt>
      <trkpt lat="44.33542" lon="4.02258">
        <ele>294</ele>
        <time>2013-04-03T14:45:16Z</time>
      </trkpt>
      <trkpt lat="44.33542" lon="4.02258">
        <ele>294</ele>
        <time>2013-04-03T14:45:18Z</time>
      </trkpt>
      <trkpt lat="44.33542" lon="4.02258">
        <ele>294</ele>
        <time>2013-04-03T14:45:20Z</time>
      </trkpt>
      <trkpt lat="44.33542" lon="4.02258">
        <ele>294</ele>
        <time>2013-04-03T14:45:22Z</time>
      </trkpt>
      <trkpt lat="44.33542" lon="4.02258">
        <ele>294</ele>
        <time>2013-04-03T14:45:24Z</time>
      </trkpt>
      <trkpt lat="44.33542" lon="4.02258">
        <ele>294</ele>
        <time>2013-04-03T14:45:26Z</time>
      </trkpt>
      <trkpt lat="44.33542" lon="4.02258">
        <ele>294</ele>
        <time>2013-04-03T14:45:28Z</time>
      </trkpt>
      <trkpt lat="44.33542" lon="4.02258">
        <ele>294</ele>
        <time>2013-04-03T14:45:30Z</time>
      </trkpt>
      <trkpt lat="44.33542" lon="4.02258">
        <ele>294</ele>
        <time>2013-04-03T14:45:32Z</time>
      </trkpt>
      <trkpt lat="44.33542" lon="4.02258">
        <ele>294</ele>
        <time>2013-04-03T14:45:34Z</time>
      </trkpt>
      <trkpt lat="44.33542" lon="4.02258">
        <ele>294</ele>
        <time>2013-04-03T14:45:36Z</time>
      </trkpt>
      <trkpt lat="44.33542" lon="4.02258">
        <ele>294</ele>
        <time>2013-04-03T14:45:38Z</time>
      </trkpt>
      <trkpt lat="44.33542" lon="4.02258">
        <ele>294</ele>
        <time>2013-04-03T14:45:40Z</time>
      </trkpt>
      <trkpt lat="44.33542" lon="4.02258">
        <ele>294</ele>
        <time>2013-04-03T14:45:42Z</time>
      </trkpt>
      <trkpt lat="44.33542" lon="4.02258">
        <ele>294</ele>
        <time>2013-04-03T14:45:44Z</time>
      </trkpt>
      <trkpt lat="44.33542" lon="4.02258">
        <ele>294</ele>
        <time>2013-04-03T14:45:46Z</time>
      </trkpt>
      <trkpt lat="44.33542" lon="4.02258">
        <ele>294</ele>
        <time>2013-04-03T14:45:48Z</time>
      </trkpt>
      <trkpt lat="44.33542" lon="4.02258">
        <ele>294</ele>
        <time>2013-04-03T14:45:49Z</time>
      </trkpt>
      <trkpt lat="44.33542" lon="4.02258">
        <ele>294</ele>
        <time>2013-04-03T14:45:52Z</time>
      </trkpt>
      <trkpt lat="44.33542" lon="4.02258">
        <ele>294</ele>
        <time>2013-04-03T14:45:54Z</time>
      </trkpt>
      <trkpt lat="44.33542" lon="4.02258">
        <ele>294</ele>
        <time>2013-04-03T14:45:56Z</time>
      </trkpt>
      <trkpt lat="44.33542" lon="4.02258">
        <ele>294</ele>
        <time>2013-04-03T14:45:58Z</time>
      </trkpt>
      <trkpt lat="44.33542" lon="4.02258">
        <ele>294</ele>
        <time>2013-04-03T14:45:59Z</time>
      </trkpt>
      <trkpt lat="44.33542" lon="4.02258">
        <ele>294</ele>
        <time>2013-04-03T14:46:00Z</time>
      </trkpt>
      <trkpt lat="44.33542" lon="4.02258">
        <ele>294</ele>
        <time>2013-04-03T14:46:02Z</time>
      </trkpt>
      <trkpt lat="44.33542" lon="4.02258">
        <ele>294</ele>
        <time>2013-04-03T14:46:04Z</time>
      </trkpt>
      <trkpt lat="44.33542" lon="4.02258">
        <ele>294</ele>
        <time>2013-04-03T14:46:06Z</time>
      </trkpt>
      <trkpt lat="44.33542" lon="4.02258">
        <ele>294</ele>
        <time>2013-04-03T14:46:08Z</time>
      </trkpt>
      <trkpt lat="44.33542" lon="4.02258">
        <ele>294</ele>
        <time>2013-04-03T14:46:10Z</time>
      </trkpt>
      <trkpt lat="44.33542" lon="4.02258">
        <ele>294</ele>
        <time>2013-04-03T14:46:12Z</time>
      </trkpt>
      <trkpt lat="44.33542" lon="4.02258">
        <ele>294</ele>
        <time>2013-04-03T14:46:14Z</time>
      </trkpt>
      <trkpt lat="44.33542" lon="4.02258">
        <ele>294</ele>
        <time>2013-04-03T14:46:16Z</time>
      </trkpt>
      <trkpt lat="44.33542" lon="4.02258">
        <ele>294</ele>
        <time>2013-04-03T14:46:18Z</time>
      </trkpt>
      <trkpt lat="44.33542" lon="4.02258">
        <ele>294</ele>
        <time>2013-04-03T14:46:20Z</time>
      </trkpt>
      <trkpt lat="44.33542" lon="4.02258">
        <ele>294</ele>
        <time>2013-04-03T14:46:22Z</time>
      </trkpt>
      <trkpt lat="44.33542" lon="4.02258">
        <ele>294</ele>
        <time>2013-04-03T14:46:24Z</time>
      </trkpt>
      <trkpt lat="44.33542" lon="4.02258">
        <ele>294</ele>
        <time>2013-04-03T14:46:26Z</time>
      </trkpt>
      <trkpt lat="44.33542" lon="4.02258">
        <ele>293</ele>
        <time>2013-04-03T14:46:28Z</time>
      </trkpt>
      <trkpt lat="44.33542" lon="4.02258">
        <ele>293</ele>
        <time>2013-04-03T14:46:30Z</time>
      </trkpt>
      <trkpt lat="44.33542" lon="4.02258">
        <ele>293</ele>
        <time>2013-04-03T14:46:32Z</time>
      </trkpt>
      <trkpt lat="44.33542" lon="4.02258">
        <ele>293</ele>
        <time>2013-04-03T14:46:34Z</time>
      </trkpt>
      <trkpt lat="44.33542" lon="4.02258">
        <ele>293</ele>
        <time>2013-04-03T14:46:36Z</time>
      </trkpt>
      <trkpt lat="44.33542" lon="4.02258">
        <ele>293</ele>
        <time>2013-04-03T14:46:38Z</time>
      </trkpt>
      <trkpt lat="44.33542" lon="4.02258">
        <ele>293</ele>
        <time>2013-04-03T14:46:40Z</time>
      </trkpt>
      <trkpt lat="44.33542" lon="4.02258">
        <ele>293</ele>
        <time>2013-04-03T14:46:42Z</time>
      </trkpt>
      <trkpt lat="44.33542" lon="4.02258">
        <ele>293</ele>
        <time>2013-04-03T14:46:44Z</time>
      </trkpt>
      <trkpt lat="44.33542" lon="4.02258">
        <ele>293</ele>
        <time>2013-04-03T14:46:46Z</time>
      </trkpt>
      <trkpt lat="44.33542" lon="4.02258">
        <ele>293</ele>
        <time>2013-04-03T14:46:48Z</time>
      </trkpt>
      <trkpt lat="44.33542" lon="4.02258">
        <ele>293</ele>
        <time>2013-04-03T14:46:50Z</time>
      </trkpt>
      <trkpt lat="44.33542" lon="4.02258">
        <ele>293</ele>
        <time>2013-04-03T14:46:51Z</time>
      </trkpt>
      <trkpt lat="44.33542" lon="4.02258">
        <ele>293</ele>
        <time>2013-04-03T14:46:54Z</time>
      </trkpt>
      <trkpt lat="44.33542" lon="4.02258">
        <ele>293</ele>
        <time>2013-04-03T14:46:56Z</time>
      </trkpt>
      <trkpt lat="44.33542" lon="4.02258">
        <ele>293</ele>
        <time>2013-04-03T14:46:58Z</time>
      </trkpt>
      <trkpt lat="44.33542" lon="4.02258">
        <ele>293</ele>
        <time>2013-04-03T14:46:59Z</time>
      </trkpt>
      <trkpt lat="44.33542" lon="4.02258">
        <ele>293</ele>
        <time>2013-04-03T14:47:00Z</time>
      </trkpt>
      <trkpt lat="44.33542" lon="4.02258">
        <ele>293</ele>
        <time>2013-04-03T14:47:02Z</time>
      </trkpt>
      <trkpt lat="44.33542" lon="4.02258">
        <ele>293</ele>
        <time>2013-04-03T14:47:04Z</time>
      </trkpt>
      <trkpt lat="44.33542" lon="4.02258">
        <ele>293</ele>
        <time>2013-04-03T14:47:06Z</time>
      </trkpt>
      <trkpt lat="44.33542" lon="4.02258">
        <ele>293</ele>
        <time>2013-04-03T14:47:08Z</time>
      </trkpt>
      <trkpt lat="44.33542" lon="4.02258">
        <ele>293</ele>
        <time>2013-04-03T14:47:10Z</time>
      </trkpt>
      <trkpt lat="44.33542" lon="4.02258">
        <ele>293</ele>
        <time>2013-04-03T14:47:12Z</time>
      </trkpt>
      <trkpt lat="44.33542" lon="4.02258">
        <ele>293</ele>
        <time>2013-04-03T14:47:14Z</time>
      </trkpt>
      <trkpt lat="44.33542" lon="4.02258">
        <ele>293</ele>
        <time>2013-04-03T14:47:16Z</time>
      </trkpt>
      <trkpt lat="44.33542" lon="4.02258">
        <ele>293</ele>
        <time>2013-04-03T14:47:18Z</time>
      </trkpt>
      <trkpt lat="44.33542" lon="4.02258">
        <ele>293</ele>
        <time>2013-04-03T14:47:20Z</time>
      </trkpt>
      <trkpt lat="44.33542" lon="4.02258">
        <ele>293</ele>
        <time>2013-04-03T14:47:22Z</time>
      </trkpt>
      <trkpt lat="44.33542" lon="4.02258">
        <ele>293</ele>
        <time>2013-04-03T14:47:24Z</time>
      </trkpt>
      <trkpt lat="44.33542" lon="4.02258">
        <ele>293</ele>
        <time>2013-04-03T14:47:26Z</time>
      </trkpt>
      <trkpt lat="44.33542" lon="4.02258">
        <ele>293</ele>
        <time>2013-04-03T14:47:28Z</time>
      </trkpt>
      <trkpt lat="44.33542" lon="4.02258">
        <ele>293</ele>
        <time>2013-04-03T14:47:30Z</time>
      </trkpt>
      <trkpt lat="44.33542" lon="4.02258">
        <ele>293</ele>
        <time>2013-04-03T14:47:32Z</time>
      </trkpt>
      <trkpt lat="44.33542" lon="4.02258">
        <ele>293</ele>
        <time>2013-04-03T14:47:34Z</time>
      </trkpt>
      <trkpt lat="44.33542" lon="4.02258">
        <ele>293</ele>
        <time>2013-04-03T14:47:36Z</time>
      </trkpt>
      <trkpt lat="44.33542" lon="4.02258">
        <ele>293</ele>
        <time>2013-04-03T14:47:38Z</time>
      </trkpt>
      <trkpt lat="44.33542" lon="4.02258">
        <ele>293</ele>
        <time>2013-04-03T14:47:40Z</time>
      </trkpt>
      <trkpt lat="44.33542" lon="4.02258">
        <ele>293</ele>
        <time>2013-04-03T14:47:42Z</time>
      </trkpt>
      <trkpt lat="44.33542" lon="4.02258">
        <ele>293</ele>
        <time>2013-04-03T14:47:44Z</time>
      </trkpt>
      <trkpt lat="44.33542" lon="4.02258">
        <ele>293</ele>
        <time>2013-04-03T14:47:46Z</time>
      </trkpt>
      <trkpt lat="44.33542" lon="4.02258">
        <ele>293</ele>
        <time>2013-04-03T14:47:48Z</time>
      </trkpt>
      <trkpt lat="44.33542" lon="4.02258">
        <ele>293</ele>
        <time>2013-04-03T14:47:50Z</time>
      </trkpt>
      <trkpt lat="44.33542" lon="4.02258">
        <ele>293</ele>
        <time>2013-04-03T14:47:52Z</time>
      </trkpt>
      <trkpt lat="44.33542" lon="4.02258">
        <ele>293</ele>
        <time>2013-04-03T14:47:53Z</time>
      </trkpt>
      <trkpt lat="44.33542" lon="4.02258">
        <ele>293</ele>
        <time>2013-04-03T14:47:56Z</time>
      </trkpt>
      <trkpt lat="44.33542" lon="4.02258">
        <ele>293</ele>
        <time>2013-04-03T14:47:58Z</time>
      </trkpt>
      <trkpt lat="44.33542" lon="4.02258">
        <ele>293</ele>
        <time>2013-04-03T14:47:59Z</time>
      </trkpt>
      <trkpt lat="44.33542" lon="4.02258">
        <ele>293</ele>
        <time>2013-04-03T14:48:00Z</time>
      </trkpt>
      <trkpt lat="44.33542" lon="4.02258">
        <ele>293</ele>
        <time>2013-04-03T14:48:02Z</time>
      </trkpt>
      <trkpt lat="44.33542" lon="4.02258">
        <ele>293</ele>
        <time>2013-04-03T14:48:04Z</time>
      </trkpt>
      <trkpt lat="44.33542" lon="4.02258">
        <ele>293</ele>
        <time>2013-04-03T14:48:06Z</time>
      </trkpt>
      <trkpt lat="44.33542" lon="4.02258">
        <ele>293</ele>
        <time>2013-04-03T14:48:08Z</time>
      </trkpt>
      <trkpt lat="44.33542" lon="4.02258">
        <ele>293</ele>
        <time>2013-04-03T14:48:10Z</time>
      </trkpt>
      <trkpt lat="44.33542" lon="4.02258">
        <ele>293</ele>
        <time>2013-04-03T14:48:12Z</time>
      </trkpt>
      <trkpt lat="44.33542" lon="4.02258">
        <ele>293</ele>
        <time>2013-04-03T14:48:14Z</time>
      </trkpt>
      <trkpt lat="44.33542" lon="4.02258">
        <ele>293</ele>
        <time>2013-04-03T14:48:16Z</time>
      </trkpt>
      <trkpt lat="44.33542" lon="4.02258">
        <ele>293</ele>
        <time>2013-04-03T14:48:18Z</time>
      </trkpt>
      <trkpt lat="44.33542" lon="4.02258">
        <ele>293</ele>
        <time>2013-04-03T14:48:20Z</time>
      </trkpt>
      <trkpt lat="44.33542" lon="4.02258">
        <ele>293</ele>
        <time>2013-04-03T14:48:22Z</time>
      </trkpt>
      <trkpt lat="44.33542" lon="4.02258">
        <ele>293</ele>
        <time>2013-04-03T14:48:24Z</time>
      </trkpt>
      <trkpt lat="44.33542" lon="4.02258">
        <ele>293</ele>
        <time>2013-04-03T14:48:26Z</time>
      </trkpt>
      <trkpt lat="44.33542" lon="4.02258">
        <ele>293</ele>
        <time>2013-04-03T14:48:28Z</time>
      </trkpt>
      <trkpt lat="44.33542" lon="4.02258">
        <ele>293</ele>
        <time>2013-04-03T14:48:30Z</time>
      </trkpt>
      <trkpt lat="44.33542" lon="4.02258">
        <ele>293</ele>
        <time>2013-04-03T14:48:32Z</time>
      </trkpt>
      <trkpt lat="44.33542" lon="4.02258">
        <ele>293</ele>
        <time>2013-04-03T14:48:34Z</time>
      </trkpt>
      <trkpt lat="44.33542" lon="4.02258">
        <ele>293</ele>
        <time>2013-04-03T14:48:36Z</time>
      </trkpt>
      <trkpt lat="44.33542" lon="4.02258">
        <ele>293</ele>
        <time>2013-04-03T14:48:38Z</time>
      </trkpt>
      <trkpt lat="44.33542" lon="4.02258">
        <ele>293</ele>
        <time>2013-04-03T14:48:40Z</time>
      </trkpt>
      <trkpt lat="44.33542" lon="4.02258">
        <ele>293</ele>
        <time>2013-04-03T14:48:42Z</time>
      </trkpt>
      <trkpt lat="44.33542" lon="4.02258">
        <ele>293</ele>
        <time>2013-04-03T14:48:44Z</time>
      </trkpt>
      <trkpt lat="44.33542" lon="4.02258">
        <ele>293</ele>
        <time>2013-04-03T14:48:46Z</time>
      </trkpt>
      <trkpt lat="44.33542" lon="4.02258">
        <ele>293</ele>
        <time>2013-04-03T14:48:48Z</time>
      </trkpt>
      <trkpt lat="44.33542" lon="4.02258">
        <ele>293</ele>
        <time>2013-04-03T14:48:50Z</time>
      </trkpt>
      <trkpt lat="44.33541" lon="4.02258">
        <ele>292</ele>
        <time>2013-04-03T14:48:52Z</time>
      </trkpt>
      <trkpt lat="44.33541" lon="4.02258">
        <ele>292</ele>
        <time>2013-04-03T14:48:54Z</time>
      </trkpt>
      <trkpt lat="44.33541" lon="4.02258">
        <ele>292</ele>
        <time>2013-04-03T14:48:55Z</time>
      </trkpt>
      <trkpt lat="44.33541" lon="4.02258">
        <ele>292</ele>
        <time>2013-04-03T14:48:58Z</time>
      </trkpt>
      <trkpt lat="44.33541" lon="4.02258">
        <ele>292</ele>
        <time>2013-04-03T14:48:59Z</time>
      </trkpt>
      <trkpt lat="44.33541" lon="4.02258">
        <ele>292</ele>
        <time>2013-04-03T14:49:00Z</time>
      </trkpt>
      <trkpt lat="44.33541" lon="4.02258">
        <ele>292</ele>
        <time>2013-04-03T14:49:02Z</time>
      </trkpt>
      <trkpt lat="44.33541" lon="4.02258">
        <ele>292</ele>
        <time>2013-04-03T14:49:04Z</time>
      </trkpt>
      <trkpt lat="44.33541" lon="4.02258">
        <ele>292</ele>
        <time>2013-04-03T14:49:06Z</time>
      </trkpt>
      <trkpt lat="44.33541" lon="4.02258">
        <ele>292</ele>
        <time>2013-04-03T14:49:08Z</time>
      </trkpt>
      <trkpt lat="44.33541" lon="4.02258">
        <ele>292</ele>
        <time>2013-04-03T14:49:10Z</time>
      </trkpt>
      <trkpt lat="44.33541" lon="4.02258">
        <ele>292</ele>
        <time>2013-04-03T14:49:12Z</time>
      </trkpt>
      <trkpt lat="44.33541" lon="4.02258">
        <ele>292</ele>
        <time>2013-04-03T14:49:14Z</time>
      </trkpt>
      <trkpt lat="44.33541" lon="4.02258">
        <ele>292</ele>
        <time>2013-04-03T14:49:16Z</time>
      </trkpt>
      <trkpt lat="44.33541" lon="4.02258">
        <ele>292</ele>
        <time>2013-04-03T14:49:18Z</time>
      </trkpt>
      <trkpt lat="44.33541" lon="4.02257">
        <ele>292</ele>
        <time>2013-04-03T14:49:20Z</time>
      </trkpt>
      <trkpt lat="44.33541" lon="4.02257">
        <ele>292</ele>
        <time>2013-04-03T14:49:22Z</time>
      </trkpt>
      <trkpt lat="44.33541" lon="4.02257">
        <ele>292</ele>
        <time>2013-04-03T14:49:24Z</time>
      </trkpt>
      <trkpt lat="44.33541" lon="4.02257">
        <ele>292</ele>
        <time>2013-04-03T14:49:26Z</time>
      </trkpt>
      <trkpt lat="44.33541" lon="4.02257">
        <ele>292</ele>
        <time>2013-04-03T14:49:28Z</time>
      </trkpt>
      <trkpt lat="44.33541" lon="4.02257">
        <ele>292</ele>
        <time>2013-04-03T14:49:30Z</time>
      </trkpt>
      <trkpt lat="44.33541" lon="4.02257">
        <ele>292</ele>
        <time>2013-04-03T14:49:32Z</time>
      </trkpt>
      <trkpt lat="44.33541" lon="4.02257">
        <ele>292</ele>
        <time>2013-04-03T14:49:34Z</time>
      </trkpt>
      <trkpt lat="44.33541" lon="4.02257">
        <ele>292</ele>
        <time>2013-04-03T14:49:36Z</time>
      </trkpt>
      <trkpt lat="44.33541" lon="4.02257">
        <ele>292</ele>
        <time>2013-04-03T14:49:38Z</time>
      </trkpt>
      <trkpt lat="44.33541" lon="4.02257">
        <ele>292</ele>
        <time>2013-04-03T14:49:40Z</time>
      </trkpt>
      <trkpt lat="44.33541" lon="4.02257">
        <ele>292</ele>
        <time>2013-04-03T14:49:42Z</time>
      </trkpt>
      <trkpt lat="44.33541" lon="4.02257">
        <ele>292</ele>
        <time>2013-04-03T14:49:44Z</time>
      </trkpt>
      <trkpt lat="44.33541" lon="4.02257">
        <ele>292</ele>
        <time>2013-04-03T14:49:46Z</time>
      </trkpt>
      <trkpt lat="44.33541" lon="4.02257">
        <ele>292</ele>
        <time>2013-04-03T14:49:48Z</time>
      </trkpt>
      <trkpt lat="44.3354" lon="4.02257">
        <ele>292</ele>
        <time>2013-04-03T14:49:50Z</time>
      </trkpt>
      <trkpt lat="44.3354" lon="4.02257">
        <ele>292</ele>
        <time>2013-04-03T14:49:52Z</time>
      </trkpt>
      <trkpt lat="44.3354" lon="4.02257">
        <ele>292</ele>
        <time>2013-04-03T14:49:54Z</time>
      </trkpt>
      <trkpt lat="44.3354" lon="4.02257">
        <ele>292</ele>
        <time>2013-04-03T14:49:56Z</time>
      </trkpt>
      <trkpt lat="44.3354" lon="4.02257">
        <ele>292</ele>
        <time>2013-04-03T14:49:57Z</time>
      </trkpt>
      <trkpt lat="44.33539" lon="4.02257">
        <ele>292</ele>
        <time>2013-04-03T14:49:59Z</time>
      </trkpt>
      <trkpt lat="44.33538" lon="4.02256">
        <ele>292</ele>
        <time>2013-04-03T14:50:00Z</time>
      </trkpt>
      <trkpt lat="44.33538" lon="4.02256">
        <ele>292</ele>
        <time>2013-04-03T14:50:02Z</time>
      </trkpt>
      <trkpt lat="44.33538" lon="4.02256">
        <ele>292</ele>
        <time>2013-04-03T14:50:04Z</time>
      </trkpt>
      <trkpt lat="44.33537" lon="4.02256">
        <ele>292</ele>
        <time>2013-04-03T14:50:06Z</time>
      </trkpt>
      <trkpt lat="44.33537" lon="4.02256">
        <ele>292</ele>
        <time>2013-04-03T14:50:08Z</time>
      </trkpt>
      <trkpt lat="44.33536" lon="4.02255">
        <ele>292</ele>
        <time>2013-04-03T14:50:10Z</time>
      </trkpt>
      <trkpt lat="44.33535" lon="4.02254">
        <ele>292</ele>
        <time>2013-04-03T14:50:12Z</time>
      </trkpt>
      <trkpt lat="44.33535" lon="4.02254">
        <ele>292</ele>
        <time>2013-04-03T14:50:14Z</time>
      </trkpt>
      <trkpt lat="44.33534" lon="4.02254">
        <ele>292</ele>
        <time>2013-04-03T14:50:16Z</time>
      </trkpt>
      <trkpt lat="44.33534" lon="4.02254">
        <ele>292</ele>
        <time>2013-04-03T14:50:18Z</time>
      </trkpt>
      <trkpt lat="44.33534" lon="4.02254">
        <ele>292</ele>
        <time>2013-04-03T14:50:20Z</time>
      </trkpt>
      <trkpt lat="44.33532" lon="4.02253">
        <ele>291</ele>
        <time>2013-04-03T14:50:22Z</time>
      </trkpt>
      <trkpt lat="44.33531" lon="4.02252">
        <ele>291</ele>
        <time>2013-04-03T14:50:24Z</time>
      </trkpt>
      <trkpt lat="44.33531" lon="4.02252">
        <ele>291</ele>
        <time>2013-04-03T14:50:26Z</time>
      </trkpt>
      <trkpt lat="44.33531" lon="4.02252">
        <ele>291</ele>
        <time>2013-04-03T14:50:28Z</time>
      </trkpt>
      <trkpt lat="44.3353" lon="4.02252">
        <ele>292</ele>
        <time>2013-04-03T14:50:30Z</time>
      </trkpt>
      <trkpt lat="44.33529" lon="4.02252">
        <ele>292</ele>
        <time>2013-04-03T14:50:32Z</time>
      </trkpt>
      <trkpt lat="44.33527" lon="4.0225">
        <ele>291</ele>
        <time>2013-04-03T14:50:34Z</time>
      </trkpt>
      <trkpt lat="44.33525" lon="4.02248">
        <ele>290</ele>
        <time>2013-04-03T14:50:36Z</time>
      </trkpt>
      <trkpt lat="44.33522" lon="4.02246">
        <ele>290</ele>
        <time>2013-04-03T14:50:38Z</time>
      </trkpt>
      <trkpt lat="44.33518" lon="4.02243">
        <ele>289</ele>
        <time>2013-04-03T14:50:40Z</time>
      </trkpt>
      <trkpt lat="44.33515" lon="4.02241">
        <ele>289</ele>
        <time>2013-04-03T14:50:42Z</time>
      </trkpt>
      <trkpt lat="44.33512" lon="4.02239">
        <ele>288</ele>
        <time>2013-04-03T14:50:44Z</time>
      </trkpt>
      <trkpt lat="44.33509" lon="4.02237">
        <ele>289</ele>
        <time>2013-04-03T14:50:46Z</time>
      </trkpt>
      <trkpt lat="44.33509" lon="4.02236">
        <ele>289</ele>
        <time>2013-04-03T14:50:48Z</time>
      </trkpt>
      <trkpt lat="44.33507" lon="4.02233">
        <ele>289</ele>
        <time>2013-04-03T14:50:50Z</time>
      </trkpt>
      <trkpt lat="44.33506" lon="4.02231">
        <ele>289</ele>
        <time>2013-04-03T14:50:52Z</time>
      </trkpt>
      <trkpt lat="44.33503" lon="4.02229">
        <ele>290</ele>
        <time>2013-04-03T14:50:54Z</time>
      </trkpt>
      <trkpt lat="44.33501" lon="4.02227">
        <ele>290</ele>
        <time>2013-04-03T14:50:56Z</time>
      </trkpt>
      <trkpt lat="44.335" lon="4.02227">
        <ele>290</ele>
        <time>2013-04-03T14:50:58Z</time>
      </trkpt>
      <trkpt lat="44.33499" lon="4.02226">
        <ele>290</ele>
        <time>2013-04-03T14:50:59Z</time>
      </trkpt>
      <trkpt lat="44.33499" lon="4.02226">
        <ele>290</ele>
        <time>2013-04-03T14:51:00Z</time>
      </trkpt>
      <trkpt lat="44.33498" lon="4.02226">
        <ele>290</ele>
        <time>2013-04-03T14:51:02Z</time>
      </trkpt>
      <trkpt lat="44.33497" lon="4.02225">
        <ele>290</ele>
        <time>2013-04-03T14:51:04Z</time>
      </trkpt>
      <trkpt lat="44.33496" lon="4.02224">
        <ele>291</ele>
        <time>2013-04-03T14:51:06Z</time>
      </trkpt>
      <trkpt lat="44.33495" lon="4.02222">
        <ele>290</ele>
        <time>2013-04-03T14:51:08Z</time>
      </trkpt>
      <trkpt lat="44.33494" lon="4.02222">
        <ele>290</ele>
        <time>2013-04-03T14:51:10Z</time>
      </trkpt>
      <trkpt lat="44.33492" lon="4.0222">
        <ele>290</ele>
        <time>2013-04-03T14:51:12Z</time>
      </trkpt>
      <trkpt lat="44.33491" lon="4.0222">
        <ele>290</ele>
        <time>2013-04-03T14:51:14Z</time>
      </trkpt>
      <trkpt lat="44.3349" lon="4.02218">
        <ele>290</ele>
        <time>2013-04-03T14:51:16Z</time>
      </trkpt>
      <trkpt lat="44.33489" lon="4.02218">
        <ele>290</ele>
        <time>2013-04-03T14:51:18Z</time>
      </trkpt>
      <trkpt lat="44.33488" lon="4.02218">
        <ele>290</ele>
        <time>2013-04-03T14:51:20Z</time>
      </trkpt>
      <trkpt lat="44.33488" lon="4.02218">
        <ele>290</ele>
        <time>2013-04-03T14:51:22Z</time>
      </trkpt>
      <trkpt lat="44.33488" lon="4.02218">
        <ele>290</ele>
        <time>2013-04-03T14:51:24Z</time>
      </trkpt>
      <trkpt lat="44.33488" lon="4.02218">
        <ele>290</ele>
        <time>2013-04-03T14:51:26Z</time>
      </trkpt>
      <trkpt lat="44.33487" lon="4.02216">
        <ele>290</ele>
        <time>2013-04-03T14:51:28Z</time>
      </trkpt>
      <trkpt lat="44.33486" lon="4.02215">
        <ele>291</ele>
        <time>2013-04-03T14:51:30Z</time>
      </trkpt>
      <trkpt lat="44.33485" lon="4.02214">
        <ele>291</ele>
        <time>2013-04-03T14:51:32Z</time>
      </trkpt>
      <trkpt lat="44.33483" lon="4.02212">
        <ele>291</ele>
        <time>2013-04-03T14:51:34Z</time>
      </trkpt>
      <trkpt lat="44.33481" lon="4.0221">
        <ele>291</ele>
        <time>2013-04-03T14:51:36Z</time>
      </trkpt>
      <trkpt lat="44.33479" lon="4.02208">
        <ele>291</ele>
        <time>2013-04-03T14:51:38Z</time>
      </trkpt>
      <trkpt lat="44.33477" lon="4.02207">
        <ele>290</ele>
        <time>2013-04-03T14:51:40Z</time>
      </trkpt>
      <trkpt lat="44.33476" lon="4.02206">
        <ele>290</ele>
        <time>2013-04-03T14:51:42Z</time>
      </trkpt>
      <trkpt lat="44.33476" lon="4.02206">
        <ele>290</ele>
        <time>2013-04-03T14:51:44Z</time>
      </trkpt>
      <trkpt lat="44.33473" lon="4.02203">
        <ele>290</ele>
        <time>2013-04-03T14:51:46Z</time>
      </trkpt>
      <trkpt lat="44.33471" lon="4.02201">
        <ele>290</ele>
        <time>2013-04-03T14:51:48Z</time>
      </trkpt>
      <trkpt lat="44.33471" lon="4.02201">
        <ele>290</ele>
        <time>2013-04-03T14:51:50Z</time>
      </trkpt>
      <trkpt lat="44.33471" lon="4.02201">
        <ele>290</ele>
        <time>2013-04-03T14:51:52Z</time>
      </trkpt>
      <trkpt lat="44.33469" lon="4.022">
        <ele>290</ele>
        <time>2013-04-03T14:51:54Z</time>
      </trkpt>
      <trkpt lat="44.33468" lon="4.02199">
        <ele>290</ele>
        <time>2013-04-03T14:51:56Z</time>
      </trkpt>
      <trkpt lat="44.33467" lon="4.02199">
        <ele>290</ele>
        <time>2013-04-03T14:51:58Z</time>
      </trkpt>
      <trkpt lat="44.33467" lon="4.02198">
        <ele>291</ele>
        <time>2013-04-03T14:51:59Z</time>
      </trkpt>
      <trkpt lat="44.33467" lon="4.02198">
        <ele>291</ele>
        <time>2013-04-03T14:52:00Z</time>
      </trkpt>
      <trkpt lat="44.33466" lon="4.02198">
        <ele>291</ele>
        <time>2013-04-03T14:52:02Z</time>
      </trkpt>
      <trkpt lat="44.33465" lon="4.02198">
        <ele>291</ele>
        <time>2013-04-03T14:52:04Z</time>
      </trkpt>
      <trkpt lat="44.33465" lon="4.02198">
        <ele>291</ele>
        <time>2013-04-03T14:52:06Z</time>
      </trkpt>
      <trkpt lat="44.33465" lon="4.02198">
        <ele>292</ele>
        <time>2013-04-03T14:52:08Z</time>
      </trkpt>
      <trkpt lat="44.33463" lon="4.02197">
        <ele>292</ele>
        <time>2013-04-03T14:52:10Z</time>
      </trkpt>
      <trkpt lat="44.33461" lon="4.02196">
        <ele>292</ele>
        <time>2013-04-03T14:52:12Z</time>
      </trkpt>
      <trkpt lat="44.33461" lon="4.02195">
        <ele>292</ele>
        <time>2013-04-03T14:52:14Z</time>
      </trkpt>
      <trkpt lat="44.33461" lon="4.02195">
        <ele>292</ele>
        <time>2013-04-03T14:52:16Z</time>
      </trkpt>
      <trkpt lat="44.3346" lon="4.02194">
        <ele>292</ele>
        <time>2013-04-03T14:52:18Z</time>
      </trkpt>
      <trkpt lat="44.33459" lon="4.02193">
        <ele>293</ele>
        <time>2013-04-03T14:52:20Z</time>
      </trkpt>
      <trkpt lat="44.33458" lon="4.02193">
        <ele>293</ele>
        <time>2013-04-03T14:52:22Z</time>
      </trkpt>
      <trkpt lat="44.33458" lon="4.02193">
        <ele>293</ele>
        <time>2013-04-03T14:52:24Z</time>
      </trkpt>
      <trkpt lat="44.33458" lon="4.02193">
        <ele>293</ele>
        <time>2013-04-03T14:52:26Z</time>
      </trkpt>
      <trkpt lat="44.33457" lon="4.02192">
        <ele>294</ele>
        <time>2013-04-03T14:52:28Z</time>
      </trkpt>
      <trkpt lat="44.33457" lon="4.02192">
        <ele>294</ele>
        <time>2013-04-03T14:52:30Z</time>
      </trkpt>
      <trkpt lat="44.33456" lon="4.02192">
        <ele>294</ele>
        <time>2013-04-03T14:52:32Z</time>
      </trkpt>
      <trkpt lat="44.33456" lon="4.02191">
        <ele>294</ele>
        <time>2013-04-03T14:52:34Z</time>
      </trkpt>
      <trkpt lat="44.33456" lon="4.02191">
        <ele>294</ele>
        <time>2013-04-03T14:52:36Z</time>
      </trkpt>
      <trkpt lat="44.33456" lon="4.02191">
        <ele>294</ele>
        <time>2013-04-03T14:52:38Z</time>
      </trkpt>
      <trkpt lat="44.33456" lon="4.02191">
        <ele>294</ele>
        <time>2013-04-03T14:52:40Z</time>
      </trkpt>
      <trkpt lat="44.33456" lon="4.02191">
        <ele>294</ele>
        <time>2013-04-03T14:52:42Z</time>
      </trkpt>
      <trkpt lat="44.33453" lon="4.0219">
        <ele>294</ele>
        <time>2013-04-03T14:52:44Z</time>
      </trkpt>
      <trkpt lat="44.3345" lon="4.0219">
        <ele>295</ele>
        <time>2013-04-03T14:52:46Z</time>
      </trkpt>
      <trkpt lat="44.33449" lon="4.02189">
        <ele>296</ele>
        <time>2013-04-03T14:52:48Z</time>
      </trkpt>
      <trkpt lat="44.33448" lon="4.02189">
        <ele>296</ele>
        <time>2013-04-03T14:52:50Z</time>
      </trkpt>
      <trkpt lat="44.33447" lon="4.02188">
        <ele>296</ele>
        <time>2013-04-03T14:52:52Z</time>
      </trkpt>
      <trkpt lat="44.33447" lon="4.02188">
        <ele>296</ele>
        <time>2013-04-03T14:52:54Z</time>
      </trkpt>
      <trkpt lat="44.33446" lon="4.02187">
        <ele>296</ele>
        <time>2013-04-03T14:52:56Z</time>
      </trkpt>
      <trkpt lat="44.33444" lon="4.02185">
        <ele>296</ele>
        <time>2013-04-03T14:52:58Z</time>
      </trkpt>
      <trkpt lat="44.33444" lon="4.02185">
        <ele>296</ele>
        <time>2013-04-03T14:52:59Z</time>
      </trkpt>
      <trkpt lat="44.33444" lon="4.02185">
        <ele>296</ele>
        <time>2013-04-03T14:53:00Z</time>
      </trkpt>
      <trkpt lat="44.33444" lon="4.02185">
        <ele>297</ele>
        <time>2013-04-03T14:53:02Z</time>
      </trkpt>
      <trkpt lat="44.33443" lon="4.02184">
        <ele>297</ele>
        <time>2013-04-03T14:53:03Z</time>
      </trkpt>
      <trkpt lat="44.33442" lon="4.02183">
        <ele>297</ele>
        <time>2013-04-03T14:53:06Z</time>
      </trkpt>
      <trkpt lat="44.33442" lon="4.02182">
        <ele>297</ele>
        <time>2013-04-03T14:53:08Z</time>
      </trkpt>
      <trkpt lat="44.33441" lon="4.02182">
        <ele>297</ele>
        <time>2013-04-03T14:53:10Z</time>
      </trkpt>
      <trkpt lat="44.33441" lon="4.02182">
        <ele>297</ele>
        <time>2013-04-03T14:53:12Z</time>
      </trkpt>
      <trkpt lat="44.3344" lon="4.02182">
        <ele>298</ele>
        <time>2013-04-03T14:53:14Z</time>
      </trkpt>
      <trkpt lat="44.33437" lon="4.0218">
        <ele>298</ele>
        <time>2013-04-03T14:53:16Z</time>
      </trkpt>
      <trkpt lat="44.33437" lon="4.0218">
        <ele>298</ele>
        <time>2013-04-03T14:53:18Z</time>
      </trkpt>
      <trkpt lat="44.33435" lon="4.0218">
        <ele>298</ele>
        <time>2013-04-03T14:53:20Z</time>
      </trkpt>
      <trkpt lat="44.33434" lon="4.02179">
        <ele>298</ele>
        <time>2013-04-03T14:53:22Z</time>
      </trkpt>
      <trkpt lat="44.33431" lon="4.02177">
        <ele>297</ele>
        <time>2013-04-03T14:53:24Z</time>
      </trkpt>
      <trkpt lat="44.33429" lon="4.02176">
        <ele>297</ele>
        <time>2013-04-03T14:53:26Z</time>
      </trkpt>
      <trkpt lat="44.33428" lon="4.02176">
        <ele>297</ele>
        <time>2013-04-03T14:53:28Z</time>
      </trkpt>
      <trkpt lat="44.33426" lon="4.02176">
        <ele>298</ele>
        <time>2013-04-03T14:53:30Z</time>
      </trkpt>
      <trkpt lat="44.33423" lon="4.02174">
        <ele>300</ele>
        <time>2013-04-03T14:53:32Z</time>
      </trkpt>
      <trkpt lat="44.33421" lon="4.02173">
        <ele>300</ele>
        <time>2013-04-03T14:53:34Z</time>
      </trkpt>
      <trkpt lat="44.33421" lon="4.02173">
        <ele>300</ele>
        <time>2013-04-03T14:53:36Z</time>
      </trkpt>
      <trkpt lat="44.3342" lon="4.02173">
        <ele>300</ele>
        <time>2013-04-03T14:53:38Z</time>
      </trkpt>
      <trkpt lat="44.33419" lon="4.02172">
        <ele>300</ele>
        <time>2013-04-03T14:53:40Z</time>
      </trkpt>
      <trkpt lat="44.33419" lon="4.02172">
        <ele>300</ele>
        <time>2013-04-03T14:53:42Z</time>
      </trkpt>
      <trkpt lat="44.33419" lon="4.02171">
        <ele>301</ele>
        <time>2013-04-03T14:53:44Z</time>
      </trkpt>
      <trkpt lat="44.33419" lon="4.02171">
        <ele>301</ele>
        <time>2013-04-03T14:53:46Z</time>
      </trkpt>
      <trkpt lat="44.33419" lon="4.02171">
        <ele>301</ele>
        <time>2013-04-03T14:53:48Z</time>
      </trkpt>
      <trkpt lat="44.33419" lon="4.02171">
        <ele>301</ele>
        <time>2013-04-03T14:53:50Z</time>
      </trkpt>
      <trkpt lat="44.33419" lon="4.02171">
        <ele>301</ele>
        <time>2013-04-03T14:53:52Z</time>
      </trkpt>
      <trkpt lat="44.33417" lon="4.0217">
        <ele>302</ele>
        <time>2013-04-03T14:53:54Z</time>
      </trkpt>
      <trkpt lat="44.33417" lon="4.0217">
        <ele>302</ele>
        <time>2013-04-03T14:53:56Z</time>
      </trkpt>
      <trkpt lat="44.33417" lon="4.0217">
        <ele>302</ele>
        <time>2013-04-03T14:53:58Z</time>
      </trkpt>
      <trkpt lat="44.33417" lon="4.0217">
        <ele>302</ele>
        <time>2013-04-03T14:53:59Z</time>
      </trkpt>
      <trkpt lat="44.33417" lon="4.0217">
        <ele>302</ele>
        <time>2013-04-03T14:54:00Z</time>
      </trkpt>
      <trkpt lat="44.33416" lon="4.0217">
        <ele>302</ele>
        <time>2013-04-03T14:54:02Z</time>
      </trkpt>
      <trkpt lat="44.33413" lon="4.02168">
        <ele>302</ele>
        <time>2013-04-03T14:54:04Z</time>
      </trkpt>
      <trkpt lat="44.33413" lon="4.02168">
        <ele>302</ele>
        <time>2013-04-03T14:54:05Z</time>
      </trkpt>
      <trkpt lat="44.33411" lon="4.02166">
        <ele>302</ele>
        <time>2013-04-03T14:54:08Z</time>
      </trkpt>
      <trkpt lat="44.3341" lon="4.02166">
        <ele>303</ele>
        <time>2013-04-03T14:54:10Z</time>
      </trkpt>
      <trkpt lat="44.33409" lon="4.02165">
        <ele>303</ele>
        <time>2013-04-03T14:54:12Z</time>
      </trkpt>
      <trkpt lat="44.33408" lon="4.02164">
        <ele>303</ele>
        <time>2013-04-03T14:54:14Z</time>
      </trkpt>
      <trkpt lat="44.33407" lon="4.02164">
        <ele>304</ele>
        <time>2013-04-03T14:54:16Z</time>
      </trkpt>
      <trkpt lat="44.33407" lon="4.02164">
        <ele>304</ele>
        <time>2013-04-03T14:54:18Z</time>
      </trkpt>
      <trkpt lat="44.33405" lon="4.02164">
        <ele>304</ele>
        <time>2013-04-03T14:54:20Z</time>
      </trkpt>
      <trkpt lat="44.33404" lon="4.02163">
        <ele>304</ele>
        <time>2013-04-03T14:54:22Z</time>
      </trkpt>
      <trkpt lat="44.33399" lon="4.02162">
        <ele>303</ele>
        <time>2013-04-03T14:54:24Z</time>
      </trkpt>
      <trkpt lat="44.33397" lon="4.02161">
        <ele>304</ele>
        <time>2013-04-03T14:54:26Z</time>
      </trkpt>
      <trkpt lat="44.33396" lon="4.0216">
        <ele>304</ele>
        <time>2013-04-03T14:54:28Z</time>
      </trkpt>
      <trkpt lat="44.33392" lon="4.02158">
        <ele>304</ele>
        <time>2013-04-03T14:54:30Z</time>
      </trkpt>
      <trkpt lat="44.33388" lon="4.02155">
        <ele>304</ele>
        <time>2013-04-03T14:54:32Z</time>
      </trkpt>
      <trkpt lat="44.33385" lon="4.02154">
        <ele>304</ele>
        <time>2013-04-03T14:54:34Z</time>
      </trkpt>
      <trkpt lat="44.33385" lon="4.02154">
        <ele>304</ele>
        <time>2013-04-03T14:54:36Z</time>
      </trkpt>
      <trkpt lat="44.33385" lon="4.02154">
        <ele>304</ele>
        <time>2013-04-03T14:54:38Z</time>
      </trkpt>
      <trkpt lat="44.33385" lon="4.02154">
        <ele>304</ele>
        <time>2013-04-03T14:54:40Z</time>
      </trkpt>
      <trkpt lat="44.33381" lon="4.02152">
        <ele>304</ele>
        <time>2013-04-03T14:54:42Z</time>
      </trkpt>
      <trkpt lat="44.3338" lon="4.02152">
        <ele>305</ele>
        <time>2013-04-03T14:54:44Z</time>
      </trkpt>
      <trkpt lat="44.3338" lon="4.02152">
        <ele>305</ele>
        <time>2013-04-03T14:54:46Z</time>
      </trkpt>
      <trkpt lat="44.33378" lon="4.02152">
        <ele>304</ele>
        <time>2013-04-03T14:54:48Z</time>
      </trkpt>
      <trkpt lat="44.33377" lon="4.02152">
        <ele>305</ele>
        <time>2013-04-03T14:54:50Z</time>
      </trkpt>
      <trkpt lat="44.33377" lon="4.02152">
        <ele>306</ele>
        <time>2013-04-03T14:54:52Z</time>
      </trkpt>
      <trkpt lat="44.33377" lon="4.02152">
        <ele>306</ele>
        <time>2013-04-03T14:54:54Z</time>
      </trkpt>
      <trkpt lat="44.33377" lon="4.02152">
        <ele>306</ele>
        <time>2013-04-03T14:54:56Z</time>
      </trkpt>
      <trkpt lat="44.33376" lon="4.02152">
        <ele>306</ele>
        <time>2013-04-03T14:54:58Z</time>
      </trkpt>
      <trkpt lat="44.33373" lon="4.02151">
        <ele>306</ele>
        <time>2013-04-03T14:54:59Z</time>
      </trkpt>
      <trkpt lat="44.33371" lon="4.02151">
        <ele>306</ele>
        <time>2013-04-03T14:55:00Z</time>
      </trkpt>
      <trkpt lat="44.33369" lon="4.0215">
        <ele>306</ele>
        <time>2013-04-03T14:55:02Z</time>
      </trkpt>
      <trkpt lat="44.33369" lon="4.0215">
        <ele>306</ele>
        <time>2013-04-03T14:55:04Z</time>
      </trkpt>
      <trkpt lat="44.33367" lon="4.0215">
        <ele>307</ele>
        <time>2013-04-03T14:55:06Z</time>
      </trkpt>
      <trkpt lat="44.33367" lon="4.0215">
        <ele>307</ele>
        <time>2013-04-03T14:55:07Z</time>
      </trkpt>
      <trkpt lat="44.33367" lon="4.0215">
        <ele>308</ele>
        <time>2013-04-03T14:55:10Z</time>
      </trkpt>
      <trkpt lat="44.33365" lon="4.02149">
        <ele>307</ele>
        <time>2013-04-03T14:55:12Z</time>
      </trkpt>
      <trkpt lat="44.33365" lon="4.02149">
        <ele>307</ele>
        <time>2013-04-03T14:55:14Z</time>
      </trkpt>
      <trkpt lat="44.33365" lon="4.02149">
        <ele>307</ele>
        <time>2013-04-03T14:55:16Z</time>
      </trkpt>
      <trkpt lat="44.33365" lon="4.02149">
        <ele>307</ele>
        <time>2013-04-03T14:55:18Z</time>
      </trkpt>
      <trkpt lat="44.33365" lon="4.02149">
        <ele>307</ele>
        <time>2013-04-03T14:55:20Z</time>
      </trkpt>
      <trkpt lat="44.33364" lon="4.02148">
        <ele>308</ele>
        <time>2013-04-03T14:55:22Z</time>
      </trkpt>
      <trkpt lat="44.33364" lon="4.02148">
        <ele>308</ele>
        <time>2013-04-03T14:55:24Z</time>
      </trkpt>
      <trkpt lat="44.33363" lon="4.02148">
        <ele>307</ele>
        <time>2013-04-03T14:55:26Z</time>
      </trkpt>
      <trkpt lat="44.33363" lon="4.02148">
        <ele>308</ele>
        <time>2013-04-03T14:55:28Z</time>
      </trkpt>
      <trkpt lat="44.33362" lon="4.02147">
        <ele>308</ele>
        <time>2013-04-03T14:55:30Z</time>
      </trkpt>
      <trkpt lat="44.33361" lon="4.02147">
        <ele>307</ele>
        <time>2013-04-03T14:55:32Z</time>
      </trkpt>
      <trkpt lat="44.33361" lon="4.02146">
        <ele>307</ele>
        <time>2013-04-03T14:55:34Z</time>
      </trkpt>
      <trkpt lat="44.33361" lon="4.02145">
        <ele>307</ele>
        <time>2013-04-03T14:55:36Z</time>
      </trkpt>
      <trkpt lat="44.33361" lon="4.02144">
        <ele>307</ele>
        <time>2013-04-03T14:55:38Z</time>
      </trkpt>
      <trkpt lat="44.3336" lon="4.02145">
        <ele>307</ele>
        <time>2013-04-03T14:55:40Z</time>
      </trkpt>
      <trkpt lat="44.3336" lon="4.02145">
        <ele>308</ele>
        <time>2013-04-03T14:55:42Z</time>
      </trkpt>
      <trkpt lat="44.3336" lon="4.02145">
        <ele>308</ele>
        <time>2013-04-03T14:55:44Z</time>
      </trkpt>
      <trkpt lat="44.3336" lon="4.02145">
        <ele>308</ele>
        <time>2013-04-03T14:55:46Z</time>
      </trkpt>
      <trkpt lat="44.3336" lon="4.02144">
        <ele>308</ele>
        <time>2013-04-03T14:55:48Z</time>
      </trkpt>
      <trkpt lat="44.3336" lon="4.02144">
        <ele>308</ele>
        <time>2013-04-03T14:55:50Z</time>
      </trkpt>
      <trkpt lat="44.3336" lon="4.02144">
        <ele>308</ele>
        <time>2013-04-03T14:55:52Z</time>
      </trkpt>
      <trkpt lat="44.3336" lon="4.02144">
        <ele>308</ele>
        <time>2013-04-03T14:55:54Z</time>
      </trkpt>
      <trkpt lat="44.3336" lon="4.02143">
        <ele>308</ele>
        <time>2013-04-03T14:55:56Z</time>
      </trkpt>
      <trkpt lat="44.3336" lon="4.02143">
        <ele>308</ele>
        <time>2013-04-03T14:55:58Z</time>
      </trkpt>
      <trkpt lat="44.3336" lon="4.02143">
        <ele>308</ele>
        <time>2013-04-03T14:55:59Z</time>
      </trkpt>
      <trkpt lat="44.3336" lon="4.02143">
        <ele>308</ele>
        <time>2013-04-03T14:56:00Z</time>
      </trkpt>
      <trkpt lat="44.3336" lon="4.02143">
        <ele>308</ele>
        <time>2013-04-03T14:56:02Z</time>
      </trkpt>
      <trkpt lat="44.3336" lon="4.02143">
        <ele>308</ele>
        <time>2013-04-03T14:56:04Z</time>
      </trkpt>
      <trkpt lat="44.3336" lon="4.02143">
        <ele>308</ele>
        <time>2013-04-03T14:56:06Z</time>
      </trkpt>
      <trkpt lat="44.33361" lon="4.02142">
        <ele>309</ele>
        <time>2013-04-03T14:56:08Z</time>
      </trkpt>
      <trkpt lat="44.33361" lon="4.02142">
        <ele>309</ele>
        <time>2013-04-03T14:56:09Z</time>
      </trkpt>
      <trkpt lat="44.33362" lon="4.0214">
        <ele>312</ele>
        <time>2013-04-03T14:56:12Z</time>
      </trkpt>
      <trkpt lat="44.33362" lon="4.0214">
        <ele>312</ele>
        <time>2013-04-03T14:56:14Z</time>
      </trkpt>
      <trkpt lat="44.33362" lon="4.02139">
        <ele>312</ele>
        <time>2013-04-03T14:56:16Z</time>
      </trkpt>
      <trkpt lat="44.33363" lon="4.02138">
        <ele>312</ele>
        <time>2013-04-03T14:56:18Z</time>
      </trkpt>
      <trkpt lat="44.33363" lon="4.02138">
        <ele>311</ele>
        <time>2013-04-03T14:56:20Z</time>
      </trkpt>
      <trkpt lat="44.33363" lon="4.02138">
        <ele>311</ele>
        <time>2013-04-03T14:56:22Z</time>
      </trkpt>
      <trkpt lat="44.33363" lon="4.02138">
        <ele>311</ele>
        <time>2013-04-03T14:56:24Z</time>
      </trkpt>
      <trkpt lat="44.33363" lon="4.02138">
        <ele>311</ele>
        <time>2013-04-03T14:56:26Z</time>
      </trkpt>
      <trkpt lat="44.33363" lon="4.02138">
        <ele>311</ele>
        <time>2013-04-03T14:56:28Z</time>
      </trkpt>
      <trkpt lat="44.33363" lon="4.02138">
        <ele>311</ele>
        <time>2013-04-03T14:56:30Z</time>
      </trkpt>
      <trkpt lat="44.33363" lon="4.02138">
        <ele>311</ele>
        <time>2013-04-03T14:56:32Z</time>
      </trkpt>
      <trkpt lat="44.33363" lon="4.02138">
        <ele>311</ele>
        <time>2013-04-03T14:56:34Z</time>
      </trkpt>
      <trkpt lat="44.33362" lon="4.02137">
        <ele>312</ele>
        <time>2013-04-03T14:56:36Z</time>
      </trkpt>
      <trkpt lat="44.33362" lon="4.02137">
        <ele>312</ele>
        <time>2013-04-03T14:56:38Z</time>
      </trkpt>
      <trkpt lat="44.33362" lon="4.02137">
        <ele>312</ele>
        <time>2013-04-03T14:56:40Z</time>
      </trkpt>
      <trkpt lat="44.33362" lon="4.02137">
        <ele>312</ele>
        <time>2013-04-03T14:56:42Z</time>
      </trkpt>
      <trkpt lat="44.33362" lon="4.02137">
        <ele>312</ele>
        <time>2013-04-03T14:56:44Z</time>
      </trkpt>
      <trkpt lat="44.33361" lon="4.02136">
        <ele>313</ele>
        <time>2013-04-03T14:56:46Z</time>
      </trkpt>
      <trkpt lat="44.33361" lon="4.02135">
        <ele>314</ele>
        <time>2013-04-03T14:56:48Z</time>
      </trkpt>
      <trkpt lat="44.33361" lon="4.02135">
        <ele>314</ele>
        <time>2013-04-03T14:56:50Z</time>
      </trkpt>
      <trkpt lat="44.33361" lon="4.02135">
        <ele>314</ele>
        <time>2013-04-03T14:56:52Z</time>
      </trkpt>
      <trkpt lat="44.33361" lon="4.02135">
        <ele>314</ele>
        <time>2013-04-03T14:56:54Z</time>
      </trkpt>
      <trkpt lat="44.33361" lon="4.02135">
        <ele>314</ele>
        <time>2013-04-03T14:56:56Z</time>
      </trkpt>
      <trkpt lat="44.33361" lon="4.02134">
        <ele>315</ele>
        <time>2013-04-03T14:56:58Z</time>
      </trkpt>
      <trkpt lat="44.33359" lon="4.02133">
        <ele>316</ele>
        <time>2013-04-03T14:56:59Z</time>
      </trkpt>
      <trkpt lat="44.33357" lon="4.02134">
        <ele>316</ele>
        <time>2013-04-03T14:57:00Z</time>
      </trkpt>
      <trkpt lat="44.33356" lon="4.02133">
        <ele>316</ele>
        <time>2013-04-03T14:57:02Z</time>
      </trkpt>
      <trkpt lat="44.33356" lon="4.02133">
        <ele>316</ele>
        <time>2013-04-03T14:57:04Z</time>
      </trkpt>
      <trkpt lat="44.33355" lon="4.02132">
        <ele>317</ele>
        <time>2013-04-03T14:57:06Z</time>
      </trkpt>
      <trkpt lat="44.33354" lon="4.0213">
        <ele>317</ele>
        <time>2013-04-03T14:57:08Z</time>
      </trkpt>
      <trkpt lat="44.33353" lon="4.02128">
        <ele>317</ele>
        <time>2013-04-03T14:57:10Z</time>
      </trkpt>
      <trkpt lat="44.33353" lon="4.02128">
        <ele>317</ele>
        <time>2013-04-03T14:57:11Z</time>
      </trkpt>
      <trkpt lat="44.33353" lon="4.02128">
        <ele>317</ele>
        <time>2013-04-03T14:57:14Z</time>
      </trkpt>
      <trkpt lat="44.33353" lon="4.02128">
        <ele>317</ele>
        <time>2013-04-03T14:57:16Z</time>
      </trkpt>
      <trkpt lat="44.33353" lon="4.02128">
        <ele>317</ele>
        <time>2013-04-03T14:57:18Z</time>
      </trkpt>
      <trkpt lat="44.33351" lon="4.02126">
        <ele>317</ele>
        <time>2013-04-03T14:57:20Z</time>
      </trkpt>
      <trkpt lat="44.33351" lon="4.02126">
        <ele>317</ele>
        <time>2013-04-03T14:57:22Z</time>
      </trkpt>
      <trkpt lat="44.33349" lon="4.02125">
        <ele>319</ele>
        <time>2013-04-03T14:57:24Z</time>
      </trkpt>
      <trkpt lat="44.33349" lon="4.02125">
        <ele>319</ele>
        <time>2013-04-03T14:57:26Z</time>
      </trkpt>
      <trkpt lat="44.33348" lon="4.02124">
        <ele>319</ele>
        <time>2013-04-03T14:57:28Z</time>
      </trkpt>
      <trkpt lat="44.33347" lon="4.02123">
        <ele>319</ele>
        <time>2013-04-03T14:57:30Z</time>
      </trkpt>
      <trkpt lat="44.33347" lon="4.02123">
        <ele>319</ele>
        <time>2013-04-03T14:57:32Z</time>
      </trkpt>
      <trkpt lat="44.33347" lon="4.02123">
        <ele>319</ele>
        <time>2013-04-03T14:57:34Z</time>
      </trkpt>
      <trkpt lat="44.33346" lon="4.02123">
        <ele>320</ele>
        <time>2013-04-03T14:57:36Z</time>
      </trkpt>
      <trkpt lat="44.33346" lon="4.02123">
        <ele>320</ele>
        <time>2013-04-03T14:57:38Z</time>
      </trkpt>
      <trkpt lat="44.33346" lon="4.02123">
        <ele>320</ele>
        <time>2013-04-03T14:57:40Z</time>
      </trkpt>
      <trkpt lat="44.33346" lon="4.02123">
        <ele>320</ele>
        <time>2013-04-03T14:57:42Z</time>
      </trkpt>
      <trkpt lat="44.33346" lon="4.02123">
        <ele>320</ele>
        <time>2013-04-03T14:57:44Z</time>
      </trkpt>
      <trkpt lat="44.33346" lon="4.02123">
        <ele>320</ele>
        <time>2013-04-03T14:57:46Z</time>
      </trkpt>
      <trkpt lat="44.33345" lon="4.02122">
        <ele>320</ele>
        <time>2013-04-03T14:57:48Z</time>
      </trkpt>
      <trkpt lat="44.33345" lon="4.02122">
        <ele>320</ele>
        <time>2013-04-03T14:57:50Z</time>
      </trkpt>
      <trkpt lat="44.33345" lon="4.02122">
        <ele>320</ele>
        <time>2013-04-03T14:57:52Z</time>
      </trkpt>
      <trkpt lat="44.33344" lon="4.02121">
        <ele>321</ele>
        <time>2013-04-03T14:57:54Z</time>
      </trkpt>
      <trkpt lat="44.33344" lon="4.02121">
        <ele>321</ele>
        <time>2013-04-03T14:57:56Z</time>
      </trkpt>
      <trkpt lat="44.33344" lon="4.02121">
        <ele>321</ele>
        <time>2013-04-03T14:57:58Z</time>
      </trkpt>
      <trkpt lat="44.33343" lon="4.0212">
        <ele>322</ele>
        <time>2013-04-03T14:57:59Z</time>
      </trkpt>
      <trkpt lat="44.33341" lon="4.02119">
        <ele>322</ele>
        <time>2013-04-03T14:58:00Z</time>
      </trkpt>
      <trkpt lat="44.3334" lon="4.02119">
        <ele>323</ele>
        <time>2013-04-03T14:58:02Z</time>
      </trkpt>
      <trkpt lat="44.33338" lon="4.02119">
        <ele>323</ele>
        <time>2013-04-03T14:58:04Z</time>
      </trkpt>
      <trkpt lat="44.33337" lon="4.02119">
        <ele>324</ele>
        <time>2013-04-03T14:58:06Z</time>
      </trkpt>
      <trkpt lat="44.33336" lon="4.02118">
        <ele>324</ele>
        <time>2013-04-03T14:58:08Z</time>
      </trkpt>
      <trkpt lat="44.33335" lon="4.02117">
        <ele>324</ele>
        <time>2013-04-03T14:58:10Z</time>
      </trkpt>
      <trkpt lat="44.33333" lon="4.02117">
        <ele>324</ele>
        <time>2013-04-03T14:58:12Z</time>
      </trkpt>
      <trkpt lat="44.33333" lon="4.02117">
        <ele>324</ele>
        <time>2013-04-03T14:58:13Z</time>
      </trkpt>
      <trkpt lat="44.3333" lon="4.02116">
        <ele>324</ele>
        <time>2013-04-03T14:58:16Z</time>
      </trkpt>
      <trkpt lat="44.33329" lon="4.02115">
        <ele>324</ele>
        <time>2013-04-03T14:58:18Z</time>
      </trkpt>
      <trkpt lat="44.33329" lon="4.02113">
        <ele>325</ele>
        <time>2013-04-03T14:58:20Z</time>
      </trkpt>
      <trkpt lat="44.33328" lon="4.02114">
        <ele>325</ele>
        <time>2013-04-03T14:58:22Z</time>
      </trkpt>
      <trkpt lat="44.33327" lon="4.02113">
        <ele>326</ele>
        <time>2013-04-03T14:58:24Z</time>
      </trkpt>
      <trkpt lat="44.33324" lon="4.02111">
        <ele>326</ele>
        <time>2013-04-03T14:58:26Z</time>
      </trkpt>
      <trkpt lat="44.33322" lon="4.02111">
        <ele>326</ele>
        <time>2013-04-03T14:58:28Z</time>
      </trkpt>
      <trkpt lat="44.3332" lon="4.0211">
        <ele>327</ele>
        <time>2013-04-03T14:58:30Z</time>
      </trkpt>
      <trkpt lat="44.3332" lon="4.0211">
        <ele>327</ele>
        <time>2013-04-03T14:58:32Z</time>
      </trkpt>
      <trkpt lat="44.33319" lon="4.02109">
        <ele>327</ele>
        <time>2013-04-03T14:58:34Z</time>
      </trkpt>
      <trkpt lat="44.33318" lon="4.02108">
        <ele>326</ele>
        <time>2013-04-03T14:58:36Z</time>
      </trkpt>
      <trkpt lat="44.33318" lon="4.02108">
        <ele>326</ele>
        <time>2013-04-03T14:58:38Z</time>
      </trkpt>
      <trkpt lat="44.33318" lon="4.02108">
        <ele>326</ele>
        <time>2013-04-03T14:58:40Z</time>
      </trkpt>
      <trkpt lat="44.33318" lon="4.02108">
        <ele>326</ele>
        <time>2013-04-03T14:58:42Z</time>
      </trkpt>
      <trkpt lat="44.33318" lon="4.02108">
        <ele>326</ele>
        <time>2013-04-03T14:58:44Z</time>
      </trkpt>
      <trkpt lat="44.33318" lon="4.02108">
        <ele>326</ele>
        <time>2013-04-03T14:58:46Z</time>
      </trkpt>
      <trkpt lat="44.33318" lon="4.02108">
        <ele>326</ele>
        <time>2013-04-03T14:58:48Z</time>
      </trkpt>
      <trkpt lat="44.33318" lon="4.02108">
        <ele>326</ele>
        <time>2013-04-03T14:58:50Z</time>
      </trkpt>
      <trkpt lat="44.33318" lon="4.02108">
        <ele>326</ele>
        <time>2013-04-03T14:58:52Z</time>
      </trkpt>
      <trkpt lat="44.33318" lon="4.02108">
        <ele>326</ele>
        <time>2013-04-03T14:58:54Z</time>
      </trkpt>
      <trkpt lat="44.33317" lon="4.02107">
        <ele>327</ele>
        <time>2013-04-03T14:58:56Z</time>
      </trkpt>
      <trkpt lat="44.33314" lon="4.02106">
        <ele>327</ele>
        <time>2013-04-03T14:58:58Z</time>
      </trkpt>
      <trkpt lat="44.33313" lon="4.02105">
        <ele>328</ele>
        <time>2013-04-03T14:58:59Z</time>
      </trkpt>
      <trkpt lat="44.33313" lon="4.02105">
        <ele>328</ele>
        <time>2013-04-03T14:59:00Z</time>
      </trkpt>
      <trkpt lat="44.33313" lon="4.02105">
        <ele>328</ele>
        <time>2013-04-03T14:59:02Z</time>
      </trkpt>
      <trkpt lat="44.33313" lon="4.02105">
        <ele>328</ele>
        <time>2013-04-03T14:59:04Z</time>
      </trkpt>
      <trkpt lat="44.33309" lon="4.02103">
        <ele>327</ele>
        <time>2013-04-03T14:59:06Z</time>
      </trkpt>
      <trkpt lat="44.33307" lon="4.02102">
        <ele>327</ele>
        <time>2013-04-03T14:59:08Z</time>
      </trkpt>
      <trkpt lat="44.33305" lon="4.02102">
        <ele>327</ele>
        <time>2013-04-03T14:59:10Z</time>
      </trkpt>
      <trkpt lat="44.33304" lon="4.02101">
        <ele>328</ele>
        <time>2013-04-03T14:59:12Z</time>
      </trkpt>
      <trkpt lat="44.33303" lon="4.02101">
        <ele>329</ele>
        <time>2013-04-03T14:59:14Z</time>
      </trkpt>
      <trkpt lat="44.33303" lon="4.02101">
        <ele>329</ele>
        <time>2013-04-03T14:59:15Z</time>
      </trkpt>
      <trkpt lat="44.33299" lon="4.02099">
        <ele>329</ele>
        <time>2013-04-03T14:59:18Z</time>
      </trkpt>
      <trkpt lat="44.33298" lon="4.02099">
        <ele>329</ele>
        <time>2013-04-03T14:59:20Z</time>
      </trkpt>
      <trkpt lat="44.33295" lon="4.02097">
        <ele>331</ele>
        <time>2013-04-03T14:59:22Z</time>
      </trkpt>
      <trkpt lat="44.33294" lon="4.02097">
        <ele>331</ele>
        <time>2013-04-03T14:59:24Z</time>
      </trkpt>
      <trkpt lat="44.33294" lon="4.02097">
        <ele>331</ele>
        <time>2013-04-03T14:59:26Z</time>
      </trkpt>
      <trkpt lat="44.33294" lon="4.02097">
        <ele>331</ele>
        <time>2013-04-03T14:59:28Z</time>
      </trkpt>
      <trkpt lat="44.33294" lon="4.02097">
        <ele>331</ele>
        <time>2013-04-03T14:59:30Z</time>
      </trkpt>
      <trkpt lat="44.33293" lon="4.02097">
        <ele>331</ele>
        <time>2013-04-03T14:59:32Z</time>
      </trkpt>
      <trkpt lat="44.33292" lon="4.02097">
        <ele>332</ele>
        <time>2013-04-03T14:59:34Z</time>
      </trkpt>
      <trkpt lat="44.3329" lon="4.02098">
        <ele>333</ele>
        <time>2013-04-03T14:59:36Z</time>
      </trkpt>
      <trkpt lat="44.33288" lon="4.02098">
        <ele>333</ele>
        <time>2013-04-03T14:59:38Z</time>
      </trkpt>
      <trkpt lat="44.33284" lon="4.02097">
        <ele>333</ele>
        <time>2013-04-03T14:59:40Z</time>
      </trkpt>
      <trkpt lat="44.33282" lon="4.02097">
        <ele>333</ele>
        <time>2013-04-03T14:59:42Z</time>
      </trkpt>
      <trkpt lat="44.33281" lon="4.02097">
        <ele>333</ele>
        <time>2013-04-03T14:59:44Z</time>
      </trkpt>
      <trkpt lat="44.3328" lon="4.02097">
        <ele>333</ele>
        <time>2013-04-03T14:59:46Z</time>
      </trkpt>
      <trkpt lat="44.3328" lon="4.02096">
        <ele>334</ele>
        <time>2013-04-03T14:59:48Z</time>
      </trkpt>
      <trkpt lat="44.33278" lon="4.02096">
        <ele>334</ele>
        <time>2013-04-03T14:59:50Z</time>
      </trkpt>
      <trkpt lat="44.33278" lon="4.02096">
        <ele>334</ele>
        <time>2013-04-03T14:59:52Z</time>
      </trkpt>
      <trkpt lat="44.33278" lon="4.02096">
        <ele>334</ele>
        <time>2013-04-03T14:59:54Z</time>
      </trkpt>
      <trkpt lat="44.33278" lon="4.02095">
        <ele>334</ele>
        <time>2013-04-03T14:59:56Z</time>
      </trkpt>
      <trkpt lat="44.33278" lon="4.02095">
        <ele>334</ele>
        <time>2013-04-03T14:59:58Z</time>
      </trkpt>
      <trkpt lat="44.33277" lon="4.02094">
        <ele>335</ele>
        <time>2013-04-03T14:59:59Z</time>
      </trkpt>
      <trkpt lat="44.33277" lon="4.02094">
        <ele>335</ele>
        <time>2013-04-03T15:00:00Z</time>
      </trkpt>
      <trkpt lat="44.33277" lon="4.02094">
        <ele>335</ele>
        <time>2013-04-03T15:00:02Z</time>
      </trkpt>
      <trkpt lat="44.33276" lon="4.02095">
        <ele>335</ele>
        <time>2013-04-03T15:00:04Z</time>
      </trkpt>
      <trkpt lat="44.33276" lon="4.02095">
        <ele>335</ele>
        <time>2013-04-03T15:00:06Z</time>
      </trkpt>
      <trkpt lat="44.33276" lon="4.02095">
        <ele>335</ele>
        <time>2013-04-03T15:00:08Z</time>
      </trkpt>
      <trkpt lat="44.33276" lon="4.02095">
        <ele>335</ele>
        <time>2013-04-03T15:00:10Z</time>
      </trkpt>
      <trkpt lat="44.33276" lon="4.02095">
        <ele>335</ele>
        <time>2013-04-03T15:00:12Z</time>
      </trkpt>
      <trkpt lat="44.33276" lon="4.02095">
        <ele>335</ele>
        <time>2013-04-03T15:00:14Z</time>
      </trkpt>
      <trkpt lat="44.33276" lon="4.02095">
        <ele>335</ele>
        <time>2013-04-03T15:00:16Z</time>
      </trkpt>
      <trkpt lat="44.33276" lon="4.02095">
        <ele>335</ele>
        <time>2013-04-03T15:00:17Z</time>
      </trkpt>
      <trkpt lat="44.33274" lon="4.02095">
        <ele>336</ele>
        <time>2013-04-03T15:00:20Z</time>
      </trkpt>
      <trkpt lat="44.33273" lon="4.02096">
        <ele>336</ele>
        <time>2013-04-03T15:00:22Z</time>
      </trkpt>
      <trkpt lat="44.33271" lon="4.02097">
        <ele>336</ele>
        <time>2013-04-03T15:00:24Z</time>
      </trkpt>
      <trkpt lat="44.33271" lon="4.02097">
        <ele>336</ele>
        <time>2013-04-03T15:00:26Z</time>
      </trkpt>
      <trkpt lat="44.33268" lon="4.02097">
        <ele>337</ele>
        <time>2013-04-03T15:00:28Z</time>
      </trkpt>
      <trkpt lat="44.33266" lon="4.02098">
        <ele>336</ele>
        <time>2013-04-03T15:00:30Z</time>
      </trkpt>
      <trkpt lat="44.33266" lon="4.02098">
        <ele>336</ele>
        <time>2013-04-03T15:00:32Z</time>
      </trkpt>
      <trkpt lat="44.33266" lon="4.02098">
        <ele>336</ele>
        <time>2013-04-03T15:00:34Z</time>
      </trkpt>
      <trkpt lat="44.33266" lon="4.02098">
        <ele>336</ele>
        <time>2013-04-03T15:00:36Z</time>
      </trkpt>
      <trkpt lat="44.33265" lon="4.02098">
        <ele>336</ele>
        <time>2013-04-03T15:00:38Z</time>
      </trkpt>
      <trkpt lat="44.33264" lon="4.02098">
        <ele>336</ele>
        <time>2013-04-03T15:00:40Z</time>
      </trkpt>
      <trkpt lat="44.33264" lon="4.02098">
        <ele>336</ele>
        <time>2013-04-03T15:00:42Z</time>
      </trkpt>
      <trkpt lat="44.33261" lon="4.02099">
        <ele>337</ele>
        <time>2013-04-03T15:00:44Z</time>
      </trkpt>
      <trkpt lat="44.33261" lon="4.02099">
        <ele>337</ele>
        <time>2013-04-03T15:00:46Z</time>
      </trkpt>
      <trkpt lat="44.33261" lon="4.02099">
        <ele>337</ele>
        <time>2013-04-03T15:00:48Z</time>
      </trkpt>
      <trkpt lat="44.33261" lon="4.02099">
        <ele>337</ele>
        <time>2013-04-03T15:00:50Z</time>
      </trkpt>
      <trkpt lat="44.33258" lon="4.021">
        <ele>336</ele>
        <time>2013-04-03T15:00:52Z</time>
      </trkpt>
      <trkpt lat="44.33258" lon="4.021">
        <ele>336</ele>
        <time>2013-04-03T15:00:54Z</time>
      </trkpt>
      <trkpt lat="44.33258" lon="4.021">
        <ele>336</ele>
        <time>2013-04-03T15:00:56Z</time>
      </trkpt>
      <trkpt lat="44.33254" lon="4.02102">
        <ele>336</ele>
        <time>2013-04-03T15:00:58Z</time>
      </trkpt>
      <trkpt lat="44.33252" lon="4.02103">
        <ele>337</ele>
        <time>2013-04-03T15:00:59Z</time>
      </trkpt>
      <trkpt lat="44.3325" lon="4.02104">
        <ele>337</ele>
        <time>2013-04-03T15:01:00Z</time>
      </trkpt>
      <trkpt lat="44.3325" lon="4.02104">
        <ele>337</ele>
        <time>2013-04-03T15:01:02Z</time>
      </trkpt>
      <trkpt lat="44.33247" lon="4.02104">
        <ele>337</ele>
        <time>2013-04-03T15:01:04Z</time>
      </trkpt>
      <trkpt lat="44.33247" lon="4.02104">
        <ele>337</ele>
        <time>2013-04-03T15:01:06Z</time>
      </trkpt>
      <trkpt lat="44.33247" lon="4.02104">
        <ele>337</ele>
        <time>2013-04-03T15:01:08Z</time>
      </trkpt>
      <trkpt lat="44.33245" lon="4.02104">
        <ele>338</ele>
        <time>2013-04-03T15:01:10Z</time>
      </trkpt>
      <trkpt lat="44.33245" lon="4.02104">
        <ele>338</ele>
        <time>2013-04-03T15:01:12Z</time>
      </trkpt>
      <trkpt lat="44.33245" lon="4.02104">
        <ele>338</ele>
        <time>2013-04-03T15:01:14Z</time>
      </trkpt>
      <trkpt lat="44.33241" lon="4.02107">
        <ele>339</ele>
        <time>2013-04-03T15:01:16Z</time>
      </trkpt>
      <trkpt lat="44.33241" lon="4.02107">
        <ele>339</ele>
        <time>2013-04-03T15:01:18Z</time>
      </trkpt>
      <trkpt lat="44.33241" lon="4.02107">
        <ele>339</ele>
        <time>2013-04-03T15:01:19Z</time>
      </trkpt>
      <trkpt lat="44.33241" lon="4.02107">
        <ele>339</ele>
        <time>2013-04-03T15:01:22Z</time>
      </trkpt>
      <trkpt lat="44.33241" lon="4.02107">
        <ele>339</ele>
        <time>2013-04-03T15:01:24Z</time>
      </trkpt>
      <trkpt lat="44.33239" lon="4.02107">
        <ele>340</ele>
        <time>2013-04-03T15:01:26Z</time>
      </trkpt>
      <trkpt lat="44.33239" lon="4.02108">
        <ele>340</ele>
        <time>2013-04-03T15:01:28Z</time>
      </trkpt>
      <trkpt lat="44.33239" lon="4.02108">
        <ele>340</ele>
        <time>2013-04-03T15:01:30Z</time>
      </trkpt>
      <trkpt lat="44.33238" lon="4.02109">
        <ele>341</ele>
        <time>2013-04-03T15:01:32Z</time>
      </trkpt>
      <trkpt lat="44.33235" lon="4.02112">
        <ele>341</ele>
        <time>2013-04-03T15:01:34Z</time>
      </trkpt>
      <trkpt lat="44.33235" lon="4.02112">
        <ele>341</ele>
        <time>2013-04-03T15:01:36Z</time>
      </trkpt>
      <trkpt lat="44.33234" lon="4.02113">
        <ele>341</ele>
        <time>2013-04-03T15:01:38Z</time>
      </trkpt>
      <trkpt lat="44.33233" lon="4.02113">
        <ele>341</ele>
        <time>2013-04-03T15:01:40Z</time>
      </trkpt>
      <trkpt lat="44.33233" lon="4.02113">
        <ele>341</ele>
        <time>2013-04-03T15:01:42Z</time>
      </trkpt>
      <trkpt lat="44.33233" lon="4.02113">
        <ele>341</ele>
        <time>2013-04-03T15:01:44Z</time>
      </trkpt>
      <trkpt lat="44.33233" lon="4.02113">
        <ele>341</ele>
        <time>2013-04-03T15:01:46Z</time>
      </trkpt>
      <trkpt lat="44.33233" lon="4.02113">
        <ele>341</ele>
        <time>2013-04-03T15:01:48Z</time>
      </trkpt>
      <trkpt lat="44.33233" lon="4.02113">
        <ele>341</ele>
        <time>2013-04-03T15:01:50Z</time>
      </trkpt>
      <trkpt lat="44.33232" lon="4.02115">
        <ele>342</ele>
        <time>2013-04-03T15:01:52Z</time>
      </trkpt>
      <trkpt lat="44.33231" lon="4.02116">
        <ele>342</ele>
        <time>2013-04-03T15:01:54Z</time>
      </trkpt>
      <trkpt lat="44.33231" lon="4.02117">
        <ele>343</ele>
        <time>2013-04-03T15:01:56Z</time>
      </trkpt>
      <trkpt lat="44.33231" lon="4.02117">
        <ele>343</ele>
        <time>2013-04-03T15:01:58Z</time>
      </trkpt>
      <trkpt lat="44.33231" lon="4.02117">
        <ele>343</ele>
        <time>2013-04-03T15:01:59Z</time>
      </trkpt>
      <trkpt lat="44.33231" lon="4.02117">
        <ele>343</ele>
        <time>2013-04-03T15:02:00Z</time>
      </trkpt>
      <trkpt lat="44.33228" lon="4.0212">
        <ele>344</ele>
        <time>2013-04-03T15:02:02Z</time>
      </trkpt>
      <trkpt lat="44.33228" lon="4.0212">
        <ele>344</ele>
        <time>2013-04-03T15:02:04Z</time>
      </trkpt>
      <trkpt lat="44.33228" lon="4.0212">
        <ele>344</ele>
        <time>2013-04-03T15:02:06Z</time>
      </trkpt>
      <trkpt lat="44.33223" lon="4.02124">
        <ele>345</ele>
        <time>2013-04-03T15:02:08Z</time>
      </trkpt>
      <trkpt lat="44.33219" lon="4.02127">
        <ele>346</ele>
        <time>2013-04-03T15:02:10Z</time>
      </trkpt>
      <trkpt lat="44.33217" lon="4.02128">
        <ele>347</ele>
        <time>2013-04-03T15:02:12Z</time>
      </trkpt>
      <trkpt lat="44.33217" lon="4.02128">
        <ele>347</ele>
        <time>2013-04-03T15:02:14Z</time>
      </trkpt>
      <trkpt lat="44.33212" lon="4.0213">
        <ele>347</ele>
        <time>2013-04-03T15:02:16Z</time>
      </trkpt>
      <trkpt lat="44.33212" lon="4.0213">
        <ele>347</ele>
        <time>2013-04-03T15:02:18Z</time>
      </trkpt>
      <trkpt lat="44.33212" lon="4.02132">
        <ele>348</ele>
        <time>2013-04-03T15:02:20Z</time>
      </trkpt>
      <trkpt lat="44.33212" lon="4.02132">
        <ele>348</ele>
        <time>2013-04-03T15:02:21Z</time>
      </trkpt>
      <trkpt lat="44.33208" lon="4.02138">
        <ele>349</ele>
        <time>2013-04-03T15:02:24Z</time>
      </trkpt>
      <trkpt lat="44.33207" lon="4.02138">
        <ele>349</ele>
        <time>2013-04-03T15:02:26Z</time>
      </trkpt>
      <trkpt lat="44.33205" lon="4.02139">
        <ele>350</ele>
        <time>2013-04-03T15:02:28Z</time>
      </trkpt>
      <trkpt lat="44.33204" lon="4.0214">
        <ele>350</ele>
        <time>2013-04-03T15:02:30Z</time>
      </trkpt>
      <trkpt lat="44.33203" lon="4.02142">
        <ele>351</ele>
        <time>2013-04-03T15:02:32Z</time>
      </trkpt>
      <trkpt lat="44.33203" lon="4.02142">
        <ele>351</ele>
        <time>2013-04-03T15:02:34Z</time>
      </trkpt>
      <trkpt lat="44.33201" lon="4.02143">
        <ele>351</ele>
        <time>2013-04-03T15:02:36Z</time>
      </trkpt>
      <trkpt lat="44.332" lon="4.02144">
        <ele>352</ele>
        <time>2013-04-03T15:02:38Z</time>
      </trkpt>
      <trkpt lat="44.33199" lon="4.02145">
        <ele>352</ele>
        <time>2013-04-03T15:02:40Z</time>
      </trkpt>
      <trkpt lat="44.33198" lon="4.02145">
        <ele>352</ele>
        <time>2013-04-03T15:02:42Z</time>
      </trkpt>
      <trkpt lat="44.33196" lon="4.02146">
        <ele>351</ele>
        <time>2013-04-03T15:02:44Z</time>
      </trkpt>
      <trkpt lat="44.3319" lon="4.02147">
        <ele>350</ele>
        <time>2013-04-03T15:02:46Z</time>
      </trkpt>
      <trkpt lat="44.33183" lon="4.0215">
        <ele>350</ele>
        <time>2013-04-03T15:02:48Z</time>
      </trkpt>
      <trkpt lat="44.33181" lon="4.02152">
        <ele>350</ele>
        <time>2013-04-03T15:02:50Z</time>
      </trkpt>
      <trkpt lat="44.33177" lon="4.02153">
        <ele>351</ele>
        <time>2013-04-03T15:02:52Z</time>
      </trkpt>
      <trkpt lat="44.33172" lon="4.02155">
        <ele>351</ele>
        <time>2013-04-03T15:02:54Z</time>
      </trkpt>
      <trkpt lat="44.33166" lon="4.02158">
        <ele>351</ele>
        <time>2013-04-03T15:02:56Z</time>
      </trkpt>
      <trkpt lat="44.33162" lon="4.0216">
        <ele>352</ele>
        <time>2013-04-03T15:02:58Z</time>
      </trkpt>
      <trkpt lat="44.33162" lon="4.0216">
        <ele>352</ele>
        <time>2013-04-03T15:02:59Z</time>
      </trkpt>
      <trkpt lat="44.33162" lon="4.02161">
        <ele>352</ele>
        <time>2013-04-03T15:03:00Z</time>
      </trkpt>
      <trkpt lat="44.33161" lon="4.02163">
        <ele>352</ele>
        <time>2013-04-03T15:03:02Z</time>
      </trkpt>
      <trkpt lat="44.33161" lon="4.02163">
        <ele>352</ele>
        <time>2013-04-03T15:03:04Z</time>
      </trkpt>
      <trkpt lat="44.33161" lon="4.02163">
        <ele>352</ele>
        <time>2013-04-03T15:03:06Z</time>
      </trkpt>
      <trkpt lat="44.33161" lon="4.02163">
        <ele>352</ele>
        <time>2013-04-03T15:03:08Z</time>
      </trkpt>
      <trkpt lat="44.33159" lon="4.02165">
        <ele>352</ele>
        <time>2013-04-03T15:03:10Z</time>
      </trkpt>
      <trkpt lat="44.33157" lon="4.02166">
        <ele>352</ele>
        <time>2013-04-03T15:03:12Z</time>
      </trkpt>
      <trkpt lat="44.33155" lon="4.02166">
        <ele>351</ele>
        <time>2013-04-03T15:03:14Z</time>
      </trkpt>
      <trkpt lat="44.33155" lon="4.02166">
        <ele>351</ele>
        <time>2013-04-03T15:03:16Z</time>
      </trkpt>
      <trkpt lat="44.33155" lon="4.02166">
        <ele>351</ele>
        <time>2013-04-03T15:03:18Z</time>
      </trkpt>
      <trkpt lat="44.33154" lon="4.02167">
        <ele>350</ele>
        <time>2013-04-03T15:03:20Z</time>
      </trkpt>
      <trkpt lat="44.33153" lon="4.02168">
        <ele>350</ele>
        <time>2013-04-03T15:03:22Z</time>
      </trkpt>
      <trkpt lat="44.33153" lon="4.02169">
        <ele>351</ele>
        <time>2013-04-03T15:03:23Z</time>
      </trkpt>
      <trkpt lat="44.33148" lon="4.02173">
        <ele>351</ele>
        <time>2013-04-03T15:03:26Z</time>
      </trkpt>
      <trkpt lat="44.33148" lon="4.02173">
        <ele>351</ele>
        <time>2013-04-03T15:03:28Z</time>
      </trkpt>
      <trkpt lat="44.33148" lon="4.02173">
        <ele>351</ele>
        <time>2013-04-03T15:03:30Z</time>
      </trkpt>
      <trkpt lat="44.33148" lon="4.02173">
        <ele>351</ele>
        <time>2013-04-03T15:03:32Z</time>
      </trkpt>
      <trkpt lat="44.33148" lon="4.02173">
        <ele>351</ele>
        <time>2013-04-03T15:03:34Z</time>
      </trkpt>
      <trkpt lat="44.33148" lon="4.02173">
        <ele>351</ele>
        <time>2013-04-03T15:03:36Z</time>
      </trkpt>
      <trkpt lat="44.33148" lon="4.02173">
        <ele>352</ele>
        <time>2013-04-03T15:03:38Z</time>
      </trkpt>
      <trkpt lat="44.33148" lon="4.02175">
        <ele>353</ele>
        <time>2013-04-03T15:03:40Z</time>
      </trkpt>
      <trkpt lat="44.33145" lon="4.02178">
        <ele>354</ele>
        <time>2013-04-03T15:03:42Z</time>
      </trkpt>
      <trkpt lat="44.33142" lon="4.02181">
        <ele>355</ele>
        <time>2013-04-03T15:03:44Z</time>
      </trkpt>
      <trkpt lat="44.33139" lon="4.02184">
        <ele>355</ele>
        <time>2013-04-03T15:03:46Z</time>
      </trkpt>
      <trkpt lat="44.33138" lon="4.02185">
        <ele>356</ele>
        <time>2013-04-03T15:03:48Z</time>
      </trkpt>
      <trkpt lat="44.33137" lon="4.02187">
        <ele>357</ele>
        <time>2013-04-03T15:03:50Z</time>
      </trkpt>
      <trkpt lat="44.33134" lon="4.02188">
        <ele>356</ele>
        <time>2013-04-03T15:03:52Z</time>
      </trkpt>
      <trkpt lat="44.33133" lon="4.0219">
        <ele>357</ele>
        <time>2013-04-03T15:03:54Z</time>
      </trkpt>
      <trkpt lat="44.33131" lon="4.0219">
        <ele>358</ele>
        <time>2013-04-03T15:03:56Z</time>
      </trkpt>
      <trkpt lat="44.3313" lon="4.02191">
        <ele>358</ele>
        <time>2013-04-03T15:03:58Z</time>
      </trkpt>
      <trkpt lat="44.3313" lon="4.02191">
        <ele>358</ele>
        <time>2013-04-03T15:03:59Z</time>
      </trkpt>
      <trkpt lat="44.3313" lon="4.02191">
        <ele>358</ele>
        <time>2013-04-03T15:04:00Z</time>
      </trkpt>
      <trkpt lat="44.3313" lon="4.02192">
        <ele>358</ele>
        <time>2013-04-03T15:04:02Z</time>
      </trkpt>
      <trkpt lat="44.33129" lon="4.02192">
        <ele>358</ele>
        <time>2013-04-03T15:04:04Z</time>
      </trkpt>
      <trkpt lat="44.33129" lon="4.02193">
        <ele>359</ele>
        <time>2013-04-03T15:04:06Z</time>
      </trkpt>
      <trkpt lat="44.33127" lon="4.02193">
        <ele>359</ele>
        <time>2013-04-03T15:04:08Z</time>
      </trkpt>
      <trkpt lat="44.33125" lon="4.02194">
        <ele>360</ele>
        <time>2013-04-03T15:04:10Z</time>
      </trkpt>
      <trkpt lat="44.33126" lon="4.02195">
        <ele>360</ele>
        <time>2013-04-03T15:04:12Z</time>
      </trkpt>
      <trkpt lat="44.33125" lon="4.02195">
        <ele>360</ele>
        <time>2013-04-03T15:04:14Z</time>
      </trkpt>
      <trkpt lat="44.33125" lon="4.02195">
        <ele>360</ele>
        <time>2013-04-03T15:04:16Z</time>
      </trkpt>
      <trkpt lat="44.33124" lon="4.02195">
        <ele>360</ele>
        <time>2013-04-03T15:04:18Z</time>
      </trkpt>
      <trkpt lat="44.33122" lon="4.02196">
        <ele>360</ele>
        <time>2013-04-03T15:04:20Z</time>
      </trkpt>
      <trkpt lat="44.3312" lon="4.02196">
        <ele>361</ele>
        <time>2013-04-03T15:04:22Z</time>
      </trkpt>
      <trkpt lat="44.33119" lon="4.02197">
        <ele>361</ele>
        <time>2013-04-03T15:04:24Z</time>
      </trkpt>
      <trkpt lat="44.33119" lon="4.02197">
        <ele>361</ele>
        <time>2013-04-03T15:04:25Z</time>
      </trkpt>
      <trkpt lat="44.33116" lon="4.02196">
        <ele>360</ele>
        <time>2013-04-03T15:04:28Z</time>
      </trkpt>
      <trkpt lat="44.33114" lon="4.02198">
        <ele>361</ele>
        <time>2013-04-03T15:04:30Z</time>
      </trkpt>
      <trkpt lat="44.33112" lon="4.02198">
        <ele>361</ele>
        <time>2013-04-03T15:04:32Z</time>
      </trkpt>
      <trkpt lat="44.33109" lon="4.02198">
        <ele>361</ele>
        <time>2013-04-03T15:04:34Z</time>
      </trkpt>
      <trkpt lat="44.33107" lon="4.02197">
        <ele>361</ele>
        <time>2013-04-03T15:04:36Z</time>
      </trkpt>
      <trkpt lat="44.33105" lon="4.02197">
        <ele>362</ele>
        <time>2013-04-03T15:04:38Z</time>
      </trkpt>
      <trkpt lat="44.33102" lon="4.02195">
        <ele>362</ele>
        <time>2013-04-03T15:04:40Z</time>
      </trkpt>
      <trkpt lat="44.33098" lon="4.02196">
        <ele>362</ele>
        <time>2013-04-03T15:04:42Z</time>
      </trkpt>
      <trkpt lat="44.33098" lon="4.02196">
        <ele>363</ele>
        <time>2013-04-03T15:04:44Z</time>
      </trkpt>
      <trkpt lat="44.33098" lon="4.02196">
        <ele>364</ele>
        <time>2013-04-03T15:04:46Z</time>
      </trkpt>
      <trkpt lat="44.33096" lon="4.02196">
        <ele>364</ele>
        <time>2013-04-03T15:04:48Z</time>
      </trkpt>
      <trkpt lat="44.33096" lon="4.02196">
        <ele>364</ele>
        <time>2013-04-03T15:04:50Z</time>
      </trkpt>
      <trkpt lat="44.33096" lon="4.02196">
        <ele>364</ele>
        <time>2013-04-03T15:04:52Z</time>
      </trkpt>
      <trkpt lat="44.33095" lon="4.02196">
        <ele>364</ele>
        <time>2013-04-03T15:04:54Z</time>
      </trkpt>
      <trkpt lat="44.33093" lon="4.02195">
        <ele>364</ele>
        <time>2013-04-03T15:04:56Z</time>
      </trkpt>
      <trkpt lat="44.3309" lon="4.02194">
        <ele>364</ele>
        <time>2013-04-03T15:04:58Z</time>
      </trkpt>
      <trkpt lat="44.3309" lon="4.02194">
        <ele>364</ele>
        <time>2013-04-03T15:04:59Z</time>
      </trkpt>
      <trkpt lat="44.3309" lon="4.02194">
        <ele>364</ele>
        <time>2013-04-03T15:05:00Z</time>
      </trkpt>
      <trkpt lat="44.3309" lon="4.02194">
        <ele>364</ele>
        <time>2013-04-03T15:05:02Z</time>
      </trkpt>
      <trkpt lat="44.3309" lon="4.02194">
        <ele>364</ele>
        <time>2013-04-03T15:05:04Z</time>
      </trkpt>
      <trkpt lat="44.3309" lon="4.02194">
        <ele>364</ele>
        <time>2013-04-03T15:05:06Z</time>
      </trkpt>
      <trkpt lat="44.33089" lon="4.02194">
        <ele>363</ele>
        <time>2013-04-03T15:05:08Z</time>
      </trkpt>
      <trkpt lat="44.33087" lon="4.02193">
        <ele>363</ele>
        <time>2013-04-03T15:05:10Z</time>
      </trkpt>
      <trkpt lat="44.33086" lon="4.02192">
        <ele>362</ele>
        <time>2013-04-03T15:05:12Z</time>
      </trkpt>
      <trkpt lat="44.33085" lon="4.02192">
        <ele>362</ele>
        <time>2013-04-03T15:05:14Z</time>
      </trkpt>
      <trkpt lat="44.33084" lon="4.02193">
        <ele>363</ele>
        <time>2013-04-03T15:05:16Z</time>
      </trkpt>
      <trkpt lat="44.33084" lon="4.02193">
        <ele>363</ele>
        <time>2013-04-03T15:05:18Z</time>
      </trkpt>
      <trkpt lat="44.33084" lon="4.02193">
        <ele>363</ele>
        <time>2013-04-03T15:05:20Z</time>
      </trkpt>
      <trkpt lat="44.33084" lon="4.02193">
        <ele>363</ele>
        <time>2013-04-03T15:05:22Z</time>
      </trkpt>
      <trkpt lat="44.33084" lon="4.02193">
        <ele>363</ele>
        <time>2013-04-03T15:05:24Z</time>
      </trkpt>
      <trkpt lat="44.33083" lon="4.02192">
        <ele>364</ele>
        <time>2013-04-03T15:05:26Z</time>
      </trkpt>
      <trkpt lat="44.33082" lon="4.02192">
        <ele>365</ele>
        <time>2013-04-03T15:05:27Z</time>
      </trkpt>
      <trkpt lat="44.33079" lon="4.02191">
        <ele>365</ele>
        <time>2013-04-03T15:05:30Z</time>
      </trkpt>
      <trkpt lat="44.33079" lon="4.0219">
        <ele>366</ele>
        <time>2013-04-03T15:05:32Z</time>
      </trkpt>
      <trkpt lat="44.33076" lon="4.02189">
        <ele>366</ele>
        <time>2013-04-03T15:05:34Z</time>
      </trkpt>
      <trkpt lat="44.33073" lon="4.02189">
        <ele>367</ele>
        <time>2013-04-03T15:05:36Z</time>
      </trkpt>
      <trkpt lat="44.3307" lon="4.02186">
        <ele>368</ele>
        <time>2013-04-03T15:05:38Z</time>
      </trkpt>
      <trkpt lat="44.3307" lon="4.02186">
        <ele>368</ele>
        <time>2013-04-03T15:05:40Z</time>
      </trkpt>
      <trkpt lat="44.3307" lon="4.02186">
        <ele>368</ele>
        <time>2013-04-03T15:05:42Z</time>
      </trkpt>
      <trkpt lat="44.33068" lon="4.02186">
        <ele>369</ele>
        <time>2013-04-03T15:05:44Z</time>
      </trkpt>
      <trkpt lat="44.33068" lon="4.02186">
        <ele>369</ele>
        <time>2013-04-03T15:05:46Z</time>
      </trkpt>
      <trkpt lat="44.33068" lon="4.02185">
        <ele>369</ele>
        <time>2013-04-03T15:05:48Z</time>
      </trkpt>
      <trkpt lat="44.33065" lon="4.02184">
        <ele>370</ele>
        <time>2013-04-03T15:05:50Z</time>
      </trkpt>
      <trkpt lat="44.33063" lon="4.02183">
        <ele>370</ele>
        <time>2013-04-03T15:05:52Z</time>
      </trkpt>
      <trkpt lat="44.33063" lon="4.02183">
        <ele>370</ele>
        <time>2013-04-03T15:05:54Z</time>
      </trkpt>
      <trkpt lat="44.33061" lon="4.02183">
        <ele>370</ele>
        <time>2013-04-03T15:05:56Z</time>
      </trkpt>
      <trkpt lat="44.3306" lon="4.02182">
        <ele>371</ele>
        <time>2013-04-03T15:05:58Z</time>
      </trkpt>
      <trkpt lat="44.33059" lon="4.02182">
        <ele>371</ele>
        <time>2013-04-03T15:05:59Z</time>
      </trkpt>
      <trkpt lat="44.33058" lon="4.02182">
        <ele>372</ele>
        <time>2013-04-03T15:06:00Z</time>
      </trkpt>
      <trkpt lat="44.33058" lon="4.02182">
        <ele>372</ele>
        <time>2013-04-03T15:06:02Z</time>
      </trkpt>
      <trkpt lat="44.33056" lon="4.02183">
        <ele>372</ele>
        <time>2013-04-03T15:06:04Z</time>
      </trkpt>
      <trkpt lat="44.33056" lon="4.02183">
        <ele>372</ele>
        <time>2013-04-03T15:06:06Z</time>
      </trkpt>
      <trkpt lat="44.33054" lon="4.02183">
        <ele>373</ele>
        <time>2013-04-03T15:06:08Z</time>
      </trkpt>
      <trkpt lat="44.33054" lon="4.02183">
        <ele>373</ele>
        <time>2013-04-03T15:06:10Z</time>
      </trkpt>
      <trkpt lat="44.33052" lon="4.02184">
        <ele>373</ele>
        <time>2013-04-03T15:06:12Z</time>
      </trkpt>
      <trkpt lat="44.33047" lon="4.02184">
        <ele>373</ele>
        <time>2013-04-03T15:06:14Z</time>
      </trkpt>
      <trkpt lat="44.33046" lon="4.02185">
        <ele>372</ele>
        <time>2013-04-03T15:06:16Z</time>
      </trkpt>
      <trkpt lat="44.33046" lon="4.02185">
        <ele>372</ele>
        <time>2013-04-03T15:06:18Z</time>
      </trkpt>
      <trkpt lat="44.33045" lon="4.02185">
        <ele>373</ele>
        <time>2013-04-03T15:06:20Z</time>
      </trkpt>
      <trkpt lat="44.33043" lon="4.02185">
        <ele>373</ele>
        <time>2013-04-03T15:06:22Z</time>
      </trkpt>
      <trkpt lat="44.33043" lon="4.02185">
        <ele>373</ele>
        <time>2013-04-03T15:06:24Z</time>
      </trkpt>
      <trkpt lat="44.33043" lon="4.02184">
        <ele>373</ele>
        <time>2013-04-03T15:06:26Z</time>
      </trkpt>
      <trkpt lat="44.33043" lon="4.02184">
        <ele>373</ele>
        <time>2013-04-03T15:06:28Z</time>
      </trkpt>
      <trkpt lat="44.33042" lon="4.02184">
        <ele>373</ele>
        <time>2013-04-03T15:06:29Z</time>
      </trkpt>
      <trkpt lat="44.33042" lon="4.02184">
        <ele>374</ele>
        <time>2013-04-03T15:06:32Z</time>
      </trkpt>
      <trkpt lat="44.33041" lon="4.02184">
        <ele>375</ele>
        <time>2013-04-03T15:06:34Z</time>
      </trkpt>
      <trkpt lat="44.33038" lon="4.02184">
        <ele>375</ele>
        <time>2013-04-03T15:06:36Z</time>
      </trkpt>
      <trkpt lat="44.33035" lon="4.02185">
        <ele>376</ele>
        <time>2013-04-03T15:06:38Z</time>
      </trkpt>
      <trkpt lat="44.33035" lon="4.02186">
        <ele>376</ele>
        <time>2013-04-03T15:06:40Z</time>
      </trkpt>
      <trkpt lat="44.33033" lon="4.02186">
        <ele>376</ele>
        <time>2013-04-03T15:06:42Z</time>
      </trkpt>
      <trkpt lat="44.33032" lon="4.02187">
        <ele>379</ele>
        <time>2013-04-03T15:06:44Z</time>
      </trkpt>
      <trkpt lat="44.33031" lon="4.02188">
        <ele>380</ele>
        <time>2013-04-03T15:06:46Z</time>
      </trkpt>
      <trkpt lat="44.33028" lon="4.02192">
        <ele>382</ele>
        <time>2013-04-03T15:06:48Z</time>
      </trkpt>
      <trkpt lat="44.33024" lon="4.02194">
        <ele>382</ele>
        <time>2013-04-03T15:06:50Z</time>
      </trkpt>
      <trkpt lat="44.33024" lon="4.02194">
        <ele>382</ele>
        <time>2013-04-03T15:06:52Z</time>
      </trkpt>
      <trkpt lat="44.33022" lon="4.02195">
        <ele>384</ele>
        <time>2013-04-03T15:06:54Z</time>
      </trkpt>
      <trkpt lat="44.33021" lon="4.02197">
        <ele>384</ele>
        <time>2013-04-03T15:06:56Z</time>
      </trkpt>
      <trkpt lat="44.3302" lon="4.02198">
        <ele>384</ele>
        <time>2013-04-03T15:06:58Z</time>
      </trkpt>
      <trkpt lat="44.3302" lon="4.02198">
        <ele>384</ele>
        <time>2013-04-03T15:06:59Z</time>
      </trkpt>
      <trkpt lat="44.3302" lon="4.02198">
        <ele>384</ele>
        <time>2013-04-03T15:07:00Z</time>
      </trkpt>
      <trkpt lat="44.3302" lon="4.02198">
        <ele>384</ele>
        <time>2013-04-03T15:07:02Z</time>
      </trkpt>
      <trkpt lat="44.3302" lon="4.02198">
        <ele>384</ele>
        <time>2013-04-03T15:07:04Z</time>
      </trkpt>
      <trkpt lat="44.33018" lon="4.02201">
        <ele>385</ele>
        <time>2013-04-03T15:07:06Z</time>
      </trkpt>
      <trkpt lat="44.33016" lon="4.02203">
        <ele>386</ele>
        <time>2013-04-03T15:07:08Z</time>
      </trkpt>
      <trkpt lat="44.33015" lon="4.02206">
        <ele>386</ele>
        <time>2013-04-03T15:07:10Z</time>
      </trkpt>
      <trkpt lat="44.33014" lon="4.0221">
        <ele>386</ele>
        <time>2013-04-03T15:07:12Z</time>
      </trkpt>
      <trkpt lat="44.33011" lon="4.02215">
        <ele>387</ele>
        <time>2013-04-03T15:07:14Z</time>
      </trkpt>
      <trkpt lat="44.33009" lon="4.02218">
        <ele>387</ele>
        <time>2013-04-03T15:07:16Z</time>
      </trkpt>
      <trkpt lat="44.33007" lon="4.02221">
        <ele>388</ele>
        <time>2013-04-03T15:07:18Z</time>
      </trkpt>
      <trkpt lat="44.33006" lon="4.02221">
        <ele>388</ele>
        <time>2013-04-03T15:07:20Z</time>
      </trkpt>
      <trkpt lat="44.33" lon="4.02223">
        <ele>389</ele>
        <time>2013-04-03T15:07:22Z</time>
      </trkpt>
      <trkpt lat="44.32995" lon="4.02225">
        <ele>388</ele>
        <time>2013-04-03T15:07:24Z</time>
      </trkpt>
      <trkpt lat="44.32992" lon="4.02226">
        <ele>388</ele>
        <time>2013-04-03T15:07:26Z</time>
      </trkpt>
      <trkpt lat="44.32992" lon="4.02226">
        <ele>388</ele>
        <time>2013-04-03T15:07:28Z</time>
      </trkpt>
      <trkpt lat="44.3299" lon="4.02227">
        <ele>389</ele>
        <time>2013-04-03T15:07:30Z</time>
      </trkpt>
      <trkpt lat="44.3299" lon="4.02227">
        <ele>389</ele>
        <time>2013-04-03T15:07:31Z</time>
      </trkpt>
      <trkpt lat="44.3299" lon="4.02228">
        <ele>390</ele>
        <time>2013-04-03T15:07:34Z</time>
      </trkpt>
      <trkpt lat="44.3299" lon="4.02228">
        <ele>390</ele>
        <time>2013-04-03T15:07:36Z</time>
      </trkpt>
      <trkpt lat="44.3299" lon="4.02228">
        <ele>390</ele>
        <time>2013-04-03T15:07:38Z</time>
      </trkpt>
      <trkpt lat="44.3299" lon="4.02228">
        <ele>390</ele>
        <time>2013-04-03T15:07:40Z</time>
      </trkpt>
      <trkpt lat="44.32988" lon="4.02228">
        <ele>390</ele>
        <time>2013-04-03T15:07:42Z</time>
      </trkpt>
      <trkpt lat="44.32988" lon="4.02229">
        <ele>390</ele>
        <time>2013-04-03T15:07:44Z</time>
      </trkpt>
      <trkpt lat="44.32984" lon="4.02232">
        <ele>389</ele>
        <time>2013-04-03T15:07:46Z</time>
      </trkpt>
      <trkpt lat="44.3298" lon="4.02233">
        <ele>388</ele>
        <time>2013-04-03T15:07:48Z</time>
      </trkpt>
      <trkpt lat="44.32976" lon="4.02236">
        <ele>388</ele>
        <time>2013-04-03T15:07:50Z</time>
      </trkpt>
      <trkpt lat="44.32974" lon="4.02237">
        <ele>388</ele>
        <time>2013-04-03T15:07:52Z</time>
      </trkpt>
      <trkpt lat="44.32974" lon="4.02237">
        <ele>388</ele>
        <time>2013-04-03T15:07:54Z</time>
      </trkpt>
      <trkpt lat="44.32974" lon="4.02237">
        <ele>388</ele>
        <time>2013-04-03T15:07:56Z</time>
      </trkpt>
      <trkpt lat="44.32974" lon="4.02237">
        <ele>388</ele>
        <time>2013-04-03T15:07:58Z</time>
      </trkpt>
      <trkpt lat="44.32974" lon="4.02237">
        <ele>388</ele>
        <time>2013-04-03T15:07:59Z</time>
      </trkpt>
      <trkpt lat="44.32973" lon="4.02238">
        <ele>388</ele>
        <time>2013-04-03T15:08:00Z</time>
      </trkpt>
      <trkpt lat="44.32973" lon="4.02238">
        <ele>388</ele>
        <time>2013-04-03T15:08:02Z</time>
      </trkpt>
      <trkpt lat="44.32969" lon="4.02239">
        <ele>388</ele>
        <time>2013-04-03T15:08:04Z</time>
      </trkpt>
      <trkpt lat="44.32963" lon="4.0224">
        <ele>386</ele>
        <time>2013-04-03T15:08:06Z</time>
      </trkpt>
      <trkpt lat="44.32962" lon="4.02241">
        <ele>386</ele>
        <time>2013-04-03T15:08:08Z</time>
      </trkpt>
      <trkpt lat="44.3296" lon="4.02242">
        <ele>385</ele>
        <time>2013-04-03T15:08:10Z</time>
      </trkpt>
      <trkpt lat="44.3296" lon="4.02243">
        <ele>384</ele>
        <time>2013-04-03T15:08:12Z</time>
      </trkpt>
      <trkpt lat="44.3296" lon="4.02243">
        <ele>384</ele>
        <time>2013-04-03T15:08:14Z</time>
      </trkpt>
      <trkpt lat="44.32959" lon="4.02243">
        <ele>385</ele>
        <time>2013-04-03T15:08:16Z</time>
      </trkpt>
      <trkpt lat="44.32959" lon="4.02243">
        <ele>385</ele>
        <time>2013-04-03T15:08:18Z</time>
      </trkpt>
      <trkpt lat="44.32957" lon="4.02246">
        <ele>384</ele>
        <time>2013-04-03T15:08:20Z</time>
      </trkpt>
      <trkpt lat="44.32957" lon="4.02246">
        <ele>384</ele>
        <time>2013-04-03T15:08:22Z</time>
      </trkpt>
      <trkpt lat="44.32953" lon="4.02247">
        <ele>383</ele>
        <time>2013-04-03T15:08:24Z</time>
      </trkpt>
      <trkpt lat="44.32951" lon="4.02249">
        <ele>383</ele>
        <time>2013-04-03T15:08:26Z</time>
      </trkpt>
      <trkpt lat="44.32952" lon="4.02252">
        <ele>385</ele>
        <time>2013-04-03T15:08:28Z</time>
      </trkpt>
      <trkpt lat="44.32951" lon="4.02254">
        <ele>384</ele>
        <time>2013-04-03T15:08:30Z</time>
      </trkpt>
      <trkpt lat="44.3295" lon="4.02256">
        <ele>384</ele>
        <time>2013-04-03T15:08:32Z</time>
      </trkpt>
      <trkpt lat="44.32949" lon="4.02258">
        <ele>384</ele>
        <time>2013-04-03T15:08:33Z</time>
      </trkpt>
      <trkpt lat="44.32948" lon="4.02262">
        <ele>386</ele>
        <time>2013-04-03T15:08:36Z</time>
      </trkpt>
      <trkpt lat="44.32947" lon="4.02265">
        <ele>386</ele>
        <time>2013-04-03T15:08:38Z</time>
      </trkpt>
      <trkpt lat="44.32945" lon="4.02268">
        <ele>386</ele>
        <time>2013-04-03T15:08:40Z</time>
      </trkpt>
      <trkpt lat="44.32947" lon="4.02271">
        <ele>387</ele>
        <time>2013-04-03T15:08:42Z</time>
      </trkpt>
      <trkpt lat="44.32947" lon="4.02271">
        <ele>387</ele>
        <time>2013-04-03T15:08:44Z</time>
      </trkpt>
      <trkpt lat="44.32947" lon="4.02271">
        <ele>387</ele>
        <time>2013-04-03T15:08:46Z</time>
      </trkpt>
      <trkpt lat="44.32946" lon="4.02273">
        <ele>387</ele>
        <time>2013-04-03T15:08:48Z</time>
      </trkpt>
      <trkpt lat="44.32946" lon="4.02273">
        <ele>387</ele>
        <time>2013-04-03T15:08:50Z</time>
      </trkpt>
      <trkpt lat="44.32944" lon="4.02277">
        <ele>386</ele>
        <time>2013-04-03T15:08:52Z</time>
      </trkpt>
      <trkpt lat="44.32944" lon="4.02281">
        <ele>386</ele>
        <time>2013-04-03T15:08:54Z</time>
      </trkpt>
      <trkpt lat="44.32943" lon="4.02283">
        <ele>386</ele>
        <time>2013-04-03T15:08:56Z</time>
      </trkpt>
      <trkpt lat="44.32943" lon="4.02283">
        <ele>386</ele>
        <time>2013-04-03T15:08:58Z</time>
      </trkpt>
      <trkpt lat="44.32942" lon="4.02283">
        <ele>386</ele>
        <time>2013-04-03T15:08:59Z</time>
      </trkpt>
      <trkpt lat="44.32942" lon="4.02283">
        <ele>386</ele>
        <time>2013-04-03T15:09:00Z</time>
      </trkpt>
      <trkpt lat="44.32942" lon="4.02283">
        <ele>386</ele>
        <time>2013-04-03T15:09:02Z</time>
      </trkpt>
      <trkpt lat="44.32942" lon="4.02288">
        <ele>387</ele>
        <time>2013-04-03T15:09:04Z</time>
      </trkpt>
      <trkpt lat="44.32942" lon="4.02288">
        <ele>387</ele>
        <time>2013-04-03T15:09:06Z</time>
      </trkpt>
      <trkpt lat="44.32941" lon="4.02289">
        <ele>387</ele>
        <time>2013-04-03T15:09:08Z</time>
      </trkpt>
      <trkpt lat="44.32939" lon="4.02293">
        <ele>387</ele>
        <time>2013-04-03T15:09:10Z</time>
      </trkpt>
      <trkpt lat="44.32936" lon="4.02296">
        <ele>388</ele>
        <time>2013-04-03T15:09:12Z</time>
      </trkpt>
      <trkpt lat="44.32936" lon="4.02296">
        <ele>388</ele>
        <time>2013-04-03T15:09:14Z</time>
      </trkpt>
      <trkpt lat="44.32936" lon="4.02296">
        <ele>388</ele>
        <time>2013-04-03T15:09:16Z</time>
      </trkpt>
      <trkpt lat="44.32936" lon="4.02298">
        <ele>388</ele>
        <time>2013-04-03T15:09:18Z</time>
      </trkpt>
      <trkpt lat="44.32936" lon="4.02298">
        <ele>388</ele>
        <time>2013-04-03T15:09:20Z</time>
      </trkpt>
      <trkpt lat="44.32936" lon="4.02298">
        <ele>388</ele>
        <time>2013-04-03T15:09:22Z</time>
      </trkpt>
      <trkpt lat="44.32936" lon="4.02298">
        <ele>388</ele>
        <time>2013-04-03T15:09:24Z</time>
      </trkpt>
      <trkpt lat="44.32935" lon="4.02302">
        <ele>389</ele>
        <time>2013-04-03T15:09:26Z</time>
      </trkpt>
      <trkpt lat="44.32935" lon="4.02302">
        <ele>389</ele>
        <time>2013-04-03T15:09:28Z</time>
      </trkpt>
      <trkpt lat="44.32935" lon="4.02303">
        <ele>390</ele>
        <time>2013-04-03T15:09:30Z</time>
      </trkpt>
      <trkpt lat="44.32935" lon="4.02303">
        <ele>390</ele>
        <time>2013-04-03T15:09:32Z</time>
      </trkpt>
      <trkpt lat="44.32935" lon="4.02303">
        <ele>390</ele>
        <time>2013-04-03T15:09:34Z</time>
      </trkpt>
      <trkpt lat="44.32934" lon="4.02304">
        <ele>390</ele>
        <time>2013-04-03T15:09:35Z</time>
      </trkpt>
      <trkpt lat="44.32933" lon="4.02306">
        <ele>391</ele>
        <time>2013-04-03T15:09:38Z</time>
      </trkpt>
      <trkpt lat="44.32931" lon="4.0231">
        <ele>392</ele>
        <time>2013-04-03T15:09:40Z</time>
      </trkpt>
      <trkpt lat="44.3293" lon="4.02311">
        <ele>392</ele>
        <time>2013-04-03T15:09:42Z</time>
      </trkpt>
      <trkpt lat="44.32929" lon="4.02313">
        <ele>392</ele>
        <time>2013-04-03T15:09:44Z</time>
      </trkpt>
      <trkpt lat="44.32929" lon="4.02315">
        <ele>392</ele>
        <time>2013-04-03T15:09:46Z</time>
      </trkpt>
      <trkpt lat="44.32928" lon="4.02317">
        <ele>393</ele>
        <time>2013-04-03T15:09:48Z</time>
      </trkpt>
      <trkpt lat="44.32928" lon="4.02317">
        <ele>393</ele>
        <time>2013-04-03T15:09:50Z</time>
      </trkpt>
      <trkpt lat="44.32928" lon="4.02317">
        <ele>393</ele>
        <time>2013-04-03T15:09:52Z</time>
      </trkpt>
      <trkpt lat="44.32928" lon="4.02319">
        <ele>392</ele>
        <time>2013-04-03T15:09:54Z</time>
      </trkpt>
      <trkpt lat="44.32928" lon="4.02322">
        <ele>392</ele>
        <time>2013-04-03T15:09:56Z</time>
      </trkpt>
      <trkpt lat="44.32928" lon="4.02326">
        <ele>394</ele>
        <time>2013-04-03T15:09:58Z</time>
      </trkpt>
      <trkpt lat="44.32928" lon="4.02329">
        <ele>394</ele>
        <time>2013-04-03T15:09:59Z</time>
      </trkpt>
      <trkpt lat="44.32928" lon="4.02329">
        <ele>394</ele>
        <time>2013-04-03T15:10:00Z</time>
      </trkpt>
      <trkpt lat="44.32928" lon="4.02329">
        <ele>394</ele>
        <time>2013-04-03T15:10:02Z</time>
      </trkpt>
      <trkpt lat="44.32928" lon="4.0233">
        <ele>395</ele>
        <time>2013-04-03T15:10:04Z</time>
      </trkpt>
      <trkpt lat="44.32928" lon="4.0233">
        <ele>395</ele>
        <time>2013-04-03T15:10:06Z</time>
      </trkpt>
      <trkpt lat="44.32927" lon="4.02333">
        <ele>395</ele>
        <time>2013-04-03T15:10:08Z</time>
      </trkpt>
      <trkpt lat="44.32927" lon="4.02333">
        <ele>395</ele>
        <time>2013-04-03T15:10:10Z</time>
      </trkpt>
      <trkpt lat="44.32927" lon="4.02333">
        <ele>395</ele>
        <time>2013-04-03T15:10:12Z</time>
      </trkpt>
      <trkpt lat="44.32927" lon="4.02333">
        <ele>395</ele>
        <time>2013-04-03T15:10:14Z</time>
      </trkpt>
      <trkpt lat="44.32927" lon="4.02334">
        <ele>396</ele>
        <time>2013-04-03T15:10:16Z</time>
      </trkpt>
      <trkpt lat="44.32927" lon="4.02336">
        <ele>396</ele>
        <time>2013-04-03T15:10:18Z</time>
      </trkpt>
      <trkpt lat="44.32926" lon="4.02337">
        <ele>396</ele>
        <time>2013-04-03T15:10:20Z</time>
      </trkpt>
      <trkpt lat="44.32925" lon="4.02339">
        <ele>396</ele>
        <time>2013-04-03T15:10:22Z</time>
      </trkpt>
      <trkpt lat="44.32925" lon="4.02339">
        <ele>396</ele>
        <time>2013-04-03T15:10:24Z</time>
      </trkpt>
      <trkpt lat="44.32925" lon="4.02339">
        <ele>396</ele>
        <time>2013-04-03T15:10:26Z</time>
      </trkpt>
      <trkpt lat="44.32924" lon="4.02345">
        <ele>398</ele>
        <time>2013-04-03T15:10:28Z</time>
      </trkpt>
      <trkpt lat="44.32923" lon="4.02346">
        <ele>398</ele>
        <time>2013-04-03T15:10:30Z</time>
      </trkpt>
      <trkpt lat="44.32923" lon="4.02346">
        <ele>398</ele>
        <time>2013-04-03T15:10:32Z</time>
      </trkpt>
      <trkpt lat="44.32923" lon="4.02346">
        <ele>398</ele>
        <time>2013-04-03T15:10:34Z</time>
      </trkpt>
      <trkpt lat="44.32921" lon="4.02352">
        <ele>398</ele>
        <time>2013-04-03T15:10:36Z</time>
      </trkpt>
      <trkpt lat="44.32921" lon="4.02352">
        <ele>398</ele>
        <time>2013-04-03T15:10:37Z</time>
      </trkpt>
      <trkpt lat="44.3292" lon="4.02356">
        <ele>399</ele>
        <time>2013-04-03T15:10:40Z</time>
      </trkpt>
      <trkpt lat="44.3292" lon="4.02356">
        <ele>399</ele>
        <time>2013-04-03T15:10:42Z</time>
      </trkpt>
      <trkpt lat="44.3292" lon="4.02356">
        <ele>399</ele>
        <time>2013-04-03T15:10:44Z</time>
      </trkpt>
      <trkpt lat="44.3292" lon="4.02357">
        <ele>399</ele>
        <time>2013-04-03T15:10:46Z</time>
      </trkpt>
      <trkpt lat="44.32919" lon="4.02359">
        <ele>400</ele>
        <time>2013-04-03T15:10:48Z</time>
      </trkpt>
      <trkpt lat="44.32917" lon="4.02362">
        <ele>400</ele>
        <time>2013-04-03T15:10:50Z</time>
      </trkpt>
      <trkpt lat="44.32917" lon="4.02366">
        <ele>400</ele>
        <time>2013-04-03T15:10:52Z</time>
      </trkpt>
      <trkpt lat="44.32916" lon="4.02369">
        <ele>401</ele>
        <time>2013-04-03T15:10:54Z</time>
      </trkpt>
      <trkpt lat="44.32915" lon="4.02371">
        <ele>401</ele>
        <time>2013-04-03T15:10:56Z</time>
      </trkpt>
      <trkpt lat="44.32915" lon="4.02376">
        <ele>402</ele>
        <time>2013-04-03T15:10:58Z</time>
      </trkpt>
      <trkpt lat="44.32915" lon="4.02378">
        <ele>402</ele>
        <time>2013-04-03T15:10:59Z</time>
      </trkpt>
      <trkpt lat="44.32913" lon="4.0238">
        <ele>402</ele>
        <time>2013-04-03T15:11:00Z</time>
      </trkpt>
      <trkpt lat="44.32912" lon="4.02383">
        <ele>404</ele>
        <time>2013-04-03T15:11:02Z</time>
      </trkpt>
      <trkpt lat="44.32912" lon="4.02383">
        <ele>404</ele>
        <time>2013-04-03T15:11:04Z</time>
      </trkpt>
      <trkpt lat="44.3291" lon="4.02386">
        <ele>404</ele>
        <time>2013-04-03T15:11:06Z</time>
      </trkpt>
      <trkpt lat="44.32909" lon="4.02389">
        <ele>405</ele>
        <time>2013-04-03T15:11:08Z</time>
      </trkpt>
      <trkpt lat="44.32908" lon="4.02392">
        <ele>405</ele>
        <time>2013-04-03T15:11:10Z</time>
      </trkpt>
      <trkpt lat="44.32908" lon="4.02392">
        <ele>405</ele>
        <time>2013-04-03T15:11:12Z</time>
      </trkpt>
      <trkpt lat="44.32908" lon="4.02392">
        <ele>405</ele>
        <time>2013-04-03T15:11:14Z</time>
      </trkpt>
      <trkpt lat="44.32905" lon="4.02394">
        <ele>405</ele>
        <time>2013-04-03T15:11:16Z</time>
      </trkpt>
      <trkpt lat="44.32904" lon="4.02396">
        <ele>406</ele>
        <time>2013-04-03T15:11:18Z</time>
      </trkpt>
      <trkpt lat="44.32904" lon="4.02396">
        <ele>406</ele>
        <time>2013-04-03T15:11:20Z</time>
      </trkpt>
      <trkpt lat="44.32904" lon="4.02396">
        <ele>406</ele>
        <time>2013-04-03T15:11:22Z</time>
      </trkpt>
      <trkpt lat="44.32904" lon="4.02397">
        <ele>406</ele>
        <time>2013-04-03T15:11:24Z</time>
      </trkpt>
      <trkpt lat="44.32904" lon="4.02397">
        <ele>406</ele>
        <time>2013-04-03T15:11:26Z</time>
      </trkpt>
      <trkpt lat="44.32904" lon="4.02397">
        <ele>405</ele>
        <time>2013-04-03T15:11:28Z</time>
      </trkpt>
      <trkpt lat="44.32903" lon="4.02396">
        <ele>405</ele>
        <time>2013-04-03T15:11:30Z</time>
      </trkpt>
      <trkpt lat="44.32901" lon="4.024">
        <ele>407</ele>
        <time>2013-04-03T15:11:32Z</time>
      </trkpt>
      <trkpt lat="44.32901" lon="4.024">
        <ele>407</ele>
        <time>2013-04-03T15:11:34Z</time>
      </trkpt>
      <trkpt lat="44.32899" lon="4.02404">
        <ele>407</ele>
        <time>2013-04-03T15:11:36Z</time>
      </trkpt>
      <trkpt lat="44.32899" lon="4.02405">
        <ele>408</ele>
        <time>2013-04-03T15:11:38Z</time>
      </trkpt>
      <trkpt lat="44.32897" lon="4.02407">
        <ele>408</ele>
        <time>2013-04-03T15:11:39Z</time>
      </trkpt>
      <trkpt lat="44.32896" lon="4.02409">
        <ele>407</ele>
        <time>2013-04-03T15:11:42Z</time>
      </trkpt>
      <trkpt lat="44.32894" lon="4.02411">
        <ele>408</ele>
        <time>2013-04-03T15:11:44Z</time>
      </trkpt>
      <trkpt lat="44.32893" lon="4.02413">
        <ele>408</ele>
        <time>2013-04-03T15:11:46Z</time>
      </trkpt>
      <trkpt lat="44.32893" lon="4.02413">
        <ele>408</ele>
        <time>2013-04-03T15:11:48Z</time>
      </trkpt>
      <trkpt lat="44.3289" lon="4.02417">
        <ele>407</ele>
        <time>2013-04-03T15:11:50Z</time>
      </trkpt>
      <trkpt lat="44.32886" lon="4.02422">
        <ele>406</ele>
        <time>2013-04-03T15:11:52Z</time>
      </trkpt>
      <trkpt lat="44.32886" lon="4.02424">
        <ele>406</ele>
        <time>2013-04-03T15:11:54Z</time>
      </trkpt>
      <trkpt lat="44.32884" lon="4.02428">
        <ele>407</ele>
        <time>2013-04-03T15:11:56Z</time>
      </trkpt>
      <trkpt lat="44.32882" lon="4.0243">
        <ele>406</ele>
        <time>2013-04-03T15:11:58Z</time>
      </trkpt>
      <trkpt lat="44.32882" lon="4.0243">
        <ele>406</ele>
        <time>2013-04-03T15:11:59Z</time>
      </trkpt>
      <trkpt lat="44.32881" lon="4.02431">
        <ele>406</ele>
        <time>2013-04-03T15:12:00Z</time>
      </trkpt>
      <trkpt lat="44.3288" lon="4.02435">
        <ele>407</ele>
        <time>2013-04-03T15:12:02Z</time>
      </trkpt>
      <trkpt lat="44.3288" lon="4.02435">
        <ele>407</ele>
        <time>2013-04-03T15:12:04Z</time>
      </trkpt>
      <trkpt lat="44.3288" lon="4.02435">
        <ele>407</ele>
        <time>2013-04-03T15:12:06Z</time>
      </trkpt>
      <trkpt lat="44.3288" lon="4.02435">
        <ele>407</ele>
        <time>2013-04-03T15:12:08Z</time>
      </trkpt>
      <trkpt lat="44.3288" lon="4.02436">
        <ele>407</ele>
        <time>2013-04-03T15:12:10Z</time>
      </trkpt>
      <trkpt lat="44.32879" lon="4.02438">
        <ele>408</ele>
        <time>2013-04-03T15:12:12Z</time>
      </trkpt>
      <trkpt lat="44.32879" lon="4.02439">
        <ele>408</ele>
        <time>2013-04-03T15:12:14Z</time>
      </trkpt>
      <trkpt lat="44.32878" lon="4.02442">
        <ele>408</ele>
        <time>2013-04-03T15:12:16Z</time>
      </trkpt>
      <trkpt lat="44.32878" lon="4.02442">
        <ele>408</ele>
        <time>2013-04-03T15:12:18Z</time>
      </trkpt>
      <trkpt lat="44.32878" lon="4.02442">
        <ele>408</ele>
        <time>2013-04-03T15:12:20Z</time>
      </trkpt>
      <trkpt lat="44.32878" lon="4.02442">
        <ele>408</ele>
        <time>2013-04-03T15:12:22Z</time>
      </trkpt>
      <trkpt lat="44.32876" lon="4.02445">
        <ele>410</ele>
        <time>2013-04-03T15:12:24Z</time>
      </trkpt>
      <trkpt lat="44.32876" lon="4.02445">
        <ele>410</ele>
        <time>2013-04-03T15:12:26Z</time>
      </trkpt>
      <trkpt lat="44.32876" lon="4.02445">
        <ele>410</ele>
        <time>2013-04-03T15:12:28Z</time>
      </trkpt>
      <trkpt lat="44.32875" lon="4.02446">
        <ele>410</ele>
        <time>2013-04-03T15:12:30Z</time>
      </trkpt>
      <trkpt lat="44.32874" lon="4.02449">
        <ele>410</ele>
        <time>2013-04-03T15:12:32Z</time>
      </trkpt>
      <trkpt lat="44.32874" lon="4.02449">
        <ele>410</ele>
        <time>2013-04-03T15:12:34Z</time>
      </trkpt>
      <trkpt lat="44.32874" lon="4.02449">
        <ele>410</ele>
        <time>2013-04-03T15:12:36Z</time>
      </trkpt>
      <trkpt lat="44.32873" lon="4.02452">
        <ele>410</ele>
        <time>2013-04-03T15:12:38Z</time>
      </trkpt>
      <trkpt lat="44.32873" lon="4.02454">
        <ele>411</ele>
        <time>2013-04-03T15:12:40Z</time>
      </trkpt>
      <trkpt lat="44.32873" lon="4.02454">
        <ele>411</ele>
        <time>2013-04-03T15:12:41Z</time>
      </trkpt>
      <trkpt lat="44.32873" lon="4.02455">
        <ele>411</ele>
        <time>2013-04-03T15:12:44Z</time>
      </trkpt>
      <trkpt lat="44.32871" lon="4.02458">
        <ele>413</ele>
        <time>2013-04-03T15:12:46Z</time>
      </trkpt>
      <trkpt lat="44.3287" lon="4.0246">
        <ele>414</ele>
        <time>2013-04-03T15:12:48Z</time>
      </trkpt>
      <trkpt lat="44.32869" lon="4.02461">
        <ele>414</ele>
        <time>2013-04-03T15:12:50Z</time>
      </trkpt>
      <trkpt lat="44.32869" lon="4.02461">
        <ele>414</ele>
        <time>2013-04-03T15:12:52Z</time>
      </trkpt>
      <trkpt lat="44.32869" lon="4.02463">
        <ele>414</ele>
        <time>2013-04-03T15:12:54Z</time>
      </trkpt>
      <trkpt lat="44.32868" lon="4.02464">
        <ele>415</ele>
        <time>2013-04-03T15:12:56Z</time>
      </trkpt>
      <trkpt lat="44.32867" lon="4.02465">
        <ele>415</ele>
        <time>2013-04-03T15:12:58Z</time>
      </trkpt>
      <trkpt lat="44.32867" lon="4.02465">
        <ele>415</ele>
        <time>2013-04-03T15:12:59Z</time>
      </trkpt>
      <trkpt lat="44.32867" lon="4.02465">
        <ele>415</ele>
        <time>2013-04-03T15:13:00Z</time>
      </trkpt>
      <trkpt lat="44.32867" lon="4.02465">
        <ele>415</ele>
        <time>2013-04-03T15:13:02Z</time>
      </trkpt>
      <trkpt lat="44.32867" lon="4.02465">
        <ele>415</ele>
        <time>2013-04-03T15:13:04Z</time>
      </trkpt>
      <trkpt lat="44.32864" lon="4.02468">
        <ele>415</ele>
        <time>2013-04-03T15:13:06Z</time>
      </trkpt>
      <trkpt lat="44.32864" lon="4.02468">
        <ele>415</ele>
        <time>2013-04-03T15:13:08Z</time>
      </trkpt>
      <trkpt lat="44.32864" lon="4.02469">
        <ele>416</ele>
        <time>2013-04-03T15:13:10Z</time>
      </trkpt>
      <trkpt lat="44.32864" lon="4.02471">
        <ele>416</ele>
        <time>2013-04-03T15:13:12Z</time>
      </trkpt>
      <trkpt lat="44.32863" lon="4.02473">
        <ele>416</ele>
        <time>2013-04-03T15:13:14Z</time>
      </trkpt>
      <trkpt lat="44.32863" lon="4.02474">
        <ele>416</ele>
        <time>2013-04-03T15:13:16Z</time>
      </trkpt>
      <trkpt lat="44.32862" lon="4.02476">
        <ele>416</ele>
        <time>2013-04-03T15:13:18Z</time>
      </trkpt>
      <trkpt lat="44.32862" lon="4.02476">
        <ele>416</ele>
        <time>2013-04-03T15:13:20Z</time>
      </trkpt>
      <trkpt lat="44.32862" lon="4.02476">
        <ele>416</ele>
        <time>2013-04-03T15:13:22Z</time>
      </trkpt>
      <trkpt lat="44.3286" lon="4.02478">
        <ele>416</ele>
        <time>2013-04-03T15:13:24Z</time>
      </trkpt>
      <trkpt lat="44.32859" lon="4.0248">
        <ele>416</ele>
        <time>2013-04-03T15:13:26Z</time>
      </trkpt>
      <trkpt lat="44.32859" lon="4.0248">
        <ele>416</ele>
        <time>2013-04-03T15:13:28Z</time>
      </trkpt>
      <trkpt lat="44.32858" lon="4.02481">
        <ele>417</ele>
        <time>2013-04-03T15:13:30Z</time>
      </trkpt>
      <trkpt lat="44.32858" lon="4.02481">
        <ele>417</ele>
        <time>2013-04-03T15:13:32Z</time>
      </trkpt>
      <trkpt lat="44.32853" lon="4.02484">
        <ele>417</ele>
        <time>2013-04-03T15:13:34Z</time>
      </trkpt>
      <trkpt lat="44.32853" lon="4.02484">
        <ele>417</ele>
        <time>2013-04-03T15:13:36Z</time>
      </trkpt>
      <trkpt lat="44.32853" lon="4.02484">
        <ele>417</ele>
        <time>2013-04-03T15:13:38Z</time>
      </trkpt>
      <trkpt lat="44.32853" lon="4.02484">
        <ele>417</ele>
        <time>2013-04-03T15:13:40Z</time>
      </trkpt>
      <trkpt lat="44.32853" lon="4.02484">
        <ele>417</ele>
        <time>2013-04-03T15:13:42Z</time>
      </trkpt>
      <trkpt lat="44.32853" lon="4.02487">
        <ele>417</ele>
        <time>2013-04-03T15:13:43Z</time>
      </trkpt>
      <trkpt lat="44.3285" lon="4.02491">
        <ele>418</ele>
        <time>2013-04-03T15:13:46Z</time>
      </trkpt>
      <trkpt lat="44.32849" lon="4.02493">
        <ele>419</ele>
        <time>2013-04-03T15:13:48Z</time>
      </trkpt>
      <trkpt lat="44.32846" lon="4.02497">
        <ele>420</ele>
        <time>2013-04-03T15:13:50Z</time>
      </trkpt>
      <trkpt lat="44.32846" lon="4.02497">
        <ele>420</ele>
        <time>2013-04-03T15:13:52Z</time>
      </trkpt>
      <trkpt lat="44.32843" lon="4.02498">
        <ele>420</ele>
        <time>2013-04-03T15:13:54Z</time>
      </trkpt>
      <trkpt lat="44.32838" lon="4.02501">
        <ele>419</ele>
        <time>2013-04-03T15:13:56Z</time>
      </trkpt>
      <trkpt lat="44.32838" lon="4.02501">
        <ele>419</ele>
        <time>2013-04-03T15:13:58Z</time>
      </trkpt>
      <trkpt lat="44.32838" lon="4.02501">
        <ele>419</ele>
        <time>2013-04-03T15:13:59Z</time>
      </trkpt>
      <trkpt lat="44.32838" lon="4.02501">
        <ele>419</ele>
        <time>2013-04-03T15:14:00Z</time>
      </trkpt>
      <trkpt lat="44.32838" lon="4.02501">
        <ele>419</ele>
        <time>2013-04-03T15:14:02Z</time>
      </trkpt>
      <trkpt lat="44.32838" lon="4.02501">
        <ele>419</ele>
        <time>2013-04-03T15:14:04Z</time>
      </trkpt>
      <trkpt lat="44.32838" lon="4.02501">
        <ele>419</ele>
        <time>2013-04-03T15:14:06Z</time>
      </trkpt>
      <trkpt lat="44.32838" lon="4.02501">
        <ele>419</ele>
        <time>2013-04-03T15:14:08Z</time>
      </trkpt>
      <trkpt lat="44.32838" lon="4.02501">
        <ele>419</ele>
        <time>2013-04-03T15:14:10Z</time>
      </trkpt>
      <trkpt lat="44.32838" lon="4.02501">
        <ele>419</ele>
        <time>2013-04-03T15:14:12Z</time>
      </trkpt>
      <trkpt lat="44.32838" lon="4.02501">
        <ele>419</ele>
        <time>2013-04-03T15:14:14Z</time>
      </trkpt>
      <trkpt lat="44.32838" lon="4.02501">
        <ele>419</ele>
        <time>2013-04-03T15:14:16Z</time>
      </trkpt>
      <trkpt lat="44.32838" lon="4.02501">
        <ele>419</ele>
        <time>2013-04-03T15:14:18Z</time>
      </trkpt>
      <trkpt lat="44.32838" lon="4.02501">
        <ele>419</ele>
        <time>2013-04-03T15:14:20Z</time>
      </trkpt>
      <trkpt lat="44.32838" lon="4.02501">
        <ele>419</ele>
        <time>2013-04-03T15:14:22Z</time>
      </trkpt>
      <trkpt lat="44.32837" lon="4.02502">
        <ele>419</ele>
        <time>2013-04-03T15:14:24Z</time>
      </trkpt>
      <trkpt lat="44.32837" lon="4.02502">
        <ele>419</ele>
        <time>2013-04-03T15:14:26Z</time>
      </trkpt>
      <trkpt lat="44.32837" lon="4.02502">
        <ele>419</ele>
        <time>2013-04-03T15:14:28Z</time>
      </trkpt>
      <trkpt lat="44.32836" lon="4.02503">
        <ele>419</ele>
        <time>2013-04-03T15:14:30Z</time>
      </trkpt>
      <trkpt lat="44.32836" lon="4.02503">
        <ele>419</ele>
        <time>2013-04-03T15:14:32Z</time>
      </trkpt>
      <trkpt lat="44.32836" lon="4.02503">
        <ele>419</ele>
        <time>2013-04-03T15:14:34Z</time>
      </trkpt>
      <trkpt lat="44.32836" lon="4.02503">
        <ele>419</ele>
        <time>2013-04-03T15:14:36Z</time>
      </trkpt>
      <trkpt lat="44.32836" lon="4.02503">
        <ele>419</ele>
        <time>2013-04-03T15:14:38Z</time>
      </trkpt>
      <trkpt lat="44.32836" lon="4.02503">
        <ele>419</ele>
        <time>2013-04-03T15:14:40Z</time>
      </trkpt>
      <trkpt lat="44.32836" lon="4.02503">
        <ele>419</ele>
        <time>2013-04-03T15:14:42Z</time>
      </trkpt>
      <trkpt lat="44.32835" lon="4.02503">
        <ele>420</ele>
        <time>2013-04-03T15:14:44Z</time>
      </trkpt>
      <trkpt lat="44.32835" lon="4.02503">
        <ele>420</ele>
        <time>2013-04-03T15:14:45Z</time>
      </trkpt>
      <trkpt lat="44.32835" lon="4.02503">
        <ele>420</ele>
        <time>2013-04-03T15:14:48Z</time>
      </trkpt>
      <trkpt lat="44.32835" lon="4.02503">
        <ele>420</ele>
        <time>2013-04-03T15:14:50Z</time>
      </trkpt>
      <trkpt lat="44.32835" lon="4.02503">
        <ele>420</ele>
        <time>2013-04-03T15:14:52Z</time>
      </trkpt>
      <trkpt lat="44.32835" lon="4.02503">
        <ele>420</ele>
        <time>2013-04-03T15:14:54Z</time>
      </trkpt>
      <trkpt lat="44.32835" lon="4.02503">
        <ele>420</ele>
        <time>2013-04-03T15:14:56Z</time>
      </trkpt>
      <trkpt lat="44.32835" lon="4.02503">
        <ele>420</ele>
        <time>2013-04-03T15:14:58Z</time>
      </trkpt>
      <trkpt lat="44.32835" lon="4.02503">
        <ele>420</ele>
        <time>2013-04-03T15:14:59Z</time>
      </trkpt>
      <trkpt lat="44.32835" lon="4.02503">
        <ele>420</ele>
        <time>2013-04-03T15:15:00Z</time>
      </trkpt>
      <trkpt lat="44.32835" lon="4.02503">
        <ele>420</ele>
        <time>2013-04-03T15:15:02Z</time>
      </trkpt>
      <trkpt lat="44.32835" lon="4.02503">
        <ele>420</ele>
        <time>2013-04-03T15:15:04Z</time>
      </trkpt>
      <trkpt lat="44.32835" lon="4.02503">
        <ele>420</ele>
        <time>2013-04-03T15:15:06Z</time>
      </trkpt>
      <trkpt lat="44.32835" lon="4.02503">
        <ele>420</ele>
        <time>2013-04-03T15:15:08Z</time>
      </trkpt>
      <trkpt lat="44.32835" lon="4.02503">
        <ele>420</ele>
        <time>2013-04-03T15:15:10Z</time>
      </trkpt>
      <trkpt lat="44.32835" lon="4.02503">
        <ele>420</ele>
        <time>2013-04-03T15:15:12Z</time>
      </trkpt>
      <trkpt lat="44.32835" lon="4.02503">
        <ele>420</ele>
        <time>2013-04-03T15:15:14Z</time>
      </trkpt>
      <trkpt lat="44.32835" lon="4.02503">
        <ele>420</ele>
        <time>2013-04-03T15:15:16Z</time>
      </trkpt>
      <trkpt lat="44.32835" lon="4.02503">
        <ele>420</ele>
        <time>2013-04-03T15:15:18Z</time>
      </trkpt>
      <trkpt lat="44.32835" lon="4.02503">
        <ele>420</ele>
        <time>2013-04-03T15:15:20Z</time>
      </trkpt>
      <trkpt lat="44.32835" lon="4.02503">
        <ele>420</ele>
        <time>2013-04-03T15:15:22Z</time>
      </trkpt>
      <trkpt lat="44.32835" lon="4.02503">
        <ele>420</ele>
        <time>2013-04-03T15:15:24Z</time>
      </trkpt>
      <trkpt lat="44.32835" lon="4.02503">
        <ele>420</ele>
        <time>2013-04-03T15:15:26Z</time>
      </trkpt>
      <trkpt lat="44.32835" lon="4.02503">
        <ele>420</ele>
        <time>2013-04-03T15:15:28Z</time>
      </trkpt>
      <trkpt lat="44.32835" lon="4.02503">
        <ele>420</ele>
        <time>2013-04-03T15:15:30Z</time>
      </trkpt>
      <trkpt lat="44.32835" lon="4.02503">
        <ele>420</ele>
        <time>2013-04-03T15:15:32Z</time>
      </trkpt>
      <trkpt lat="44.32835" lon="4.02503">
        <ele>420</ele>
        <time>2013-04-03T15:15:34Z</time>
      </trkpt>
      <trkpt lat="44.32835" lon="4.02503">
        <ele>420</ele>
        <time>2013-04-03T15:15:36Z</time>
      </trkpt>
      <trkpt lat="44.32835" lon="4.02503">
        <ele>420</ele>
        <time>2013-04-03T15:15:38Z</time>
      </trkpt>
      <trkpt lat="44.32835" lon="4.02503">
        <ele>420</ele>
        <time>2013-04-03T15:15:40Z</time>
      </trkpt>
      <trkpt lat="44.32835" lon="4.02503">
        <ele>420</ele>
        <time>2013-04-03T15:15:42Z</time>
      </trkpt>
      <trkpt lat="44.32835" lon="4.02503">
        <ele>420</ele>
        <time>2013-04-03T15:15:44Z</time>
      </trkpt>
      <trkpt lat="44.32835" lon="4.02503">
        <ele>420</ele>
        <time>2013-04-03T15:15:46Z</time>
      </trkpt>
      <trkpt lat="44.32835" lon="4.02503">
        <ele>420</ele>
        <time>2013-04-03T15:15:47Z</time>
      </trkpt>
      <trkpt lat="44.32835" lon="4.02503">
        <ele>420</ele>
        <time>2013-04-03T15:15:50Z</time>
      </trkpt>
      <trkpt lat="44.32834" lon="4.02506">
        <ele>420</ele>
        <time>2013-04-03T15:15:52Z</time>
      </trkpt>
      <trkpt lat="44.32834" lon="4.02506">
        <ele>420</ele>
        <time>2013-04-03T15:15:54Z</time>
      </trkpt>
      <trkpt lat="44.32834" lon="4.02507">
        <ele>421</ele>
        <time>2013-04-03T15:15:56Z</time>
      </trkpt>
      <trkpt lat="44.32834" lon="4.02507">
        <ele>421</ele>
        <time>2013-04-03T15:15:58Z</time>
      </trkpt>
      <trkpt lat="44.32833" lon="4.02507">
        <ele>421</ele>
        <time>2013-04-03T15:15:59Z</time>
      </trkpt>
      <trkpt lat="44.32833" lon="4.02507">
        <ele>421</ele>
        <time>2013-04-03T15:16:00Z</time>
      </trkpt>
      <trkpt lat="44.32832" lon="4.02509">
        <ele>421</ele>
        <time>2013-04-03T15:16:02Z</time>
      </trkpt>
      <trkpt lat="44.32831" lon="4.02511">
        <ele>421</ele>
        <time>2013-04-03T15:16:04Z</time>
      </trkpt>
      <trkpt lat="44.32829" lon="4.02513">
        <ele>422</ele>
        <time>2013-04-03T15:16:06Z</time>
      </trkpt>
      <trkpt lat="44.32827" lon="4.02518">
        <ele>422</ele>
        <time>2013-04-03T15:16:08Z</time>
      </trkpt>
      <trkpt lat="44.32826" lon="4.0252">
        <ele>423</ele>
        <time>2013-04-03T15:16:10Z</time>
      </trkpt>
      <trkpt lat="44.32824" lon="4.02523">
        <ele>423</ele>
        <time>2013-04-03T15:16:12Z</time>
      </trkpt>
      <trkpt lat="44.32821" lon="4.02527">
        <ele>424</ele>
        <time>2013-04-03T15:16:14Z</time>
      </trkpt>
      <trkpt lat="44.3282" lon="4.02529">
        <ele>424</ele>
        <time>2013-04-03T15:16:16Z</time>
      </trkpt>
      <trkpt lat="44.32819" lon="4.0253">
        <ele>424</ele>
        <time>2013-04-03T15:16:18Z</time>
      </trkpt>
      <trkpt lat="44.32819" lon="4.0253">
        <ele>424</ele>
        <time>2013-04-03T15:16:20Z</time>
      </trkpt>
      <trkpt lat="44.32818" lon="4.02532">
        <ele>424</ele>
        <time>2013-04-03T15:16:22Z</time>
      </trkpt>
      <trkpt lat="44.32817" lon="4.02534">
        <ele>425</ele>
        <time>2013-04-03T15:16:24Z</time>
      </trkpt>
      <trkpt lat="44.32816" lon="4.02536">
        <ele>425</ele>
        <time>2013-04-03T15:16:26Z</time>
      </trkpt>
      <trkpt lat="44.32816" lon="4.02536">
        <ele>425</ele>
        <time>2013-04-03T15:16:28Z</time>
      </trkpt>
      <trkpt lat="44.32814" lon="4.0254">
        <ele>426</ele>
        <time>2013-04-03T15:16:30Z</time>
      </trkpt>
      <trkpt lat="44.32812" lon="4.02545">
        <ele>428</ele>
        <time>2013-04-03T15:16:32Z</time>
      </trkpt>
      <trkpt lat="44.32811" lon="4.02547">
        <ele>428</ele>
        <time>2013-04-03T15:16:34Z</time>
      </trkpt>
      <trkpt lat="44.3281" lon="4.02549">
        <ele>429</ele>
        <time>2013-04-03T15:16:36Z</time>
      </trkpt>
      <trkpt lat="44.32808" lon="4.02555">
        <ele>430</ele>
        <time>2013-04-03T15:16:38Z</time>
      </trkpt>
      <trkpt lat="44.32806" lon="4.0256">
        <ele>431</ele>
        <time>2013-04-03T15:16:40Z</time>
      </trkpt>
      <trkpt lat="44.32806" lon="4.02561">
        <ele>431</ele>
        <time>2013-04-03T15:16:42Z</time>
      </trkpt>
      <trkpt lat="44.32803" lon="4.02566">
        <ele>432</ele>
        <time>2013-04-03T15:16:44Z</time>
      </trkpt>
      <trkpt lat="44.32803" lon="4.02567">
        <ele>432</ele>
        <time>2013-04-03T15:16:46Z</time>
      </trkpt>
      <trkpt lat="44.32802" lon="4.02572">
        <ele>432</ele>
        <time>2013-04-03T15:16:48Z</time>
      </trkpt>
      <trkpt lat="44.32801" lon="4.02573">
        <ele>433</ele>
        <time>2013-04-03T15:16:50Z</time>
      </trkpt>
      <trkpt lat="44.32801" lon="4.02573">
        <ele>433</ele>
        <time>2013-04-03T15:16:51Z</time>
      </trkpt>
      <trkpt lat="44.32798" lon="4.0258">
        <ele>433</ele>
        <time>2013-04-03T15:16:54Z</time>
      </trkpt>
      <trkpt lat="44.32796" lon="4.02584">
        <ele>434</ele>
        <time>2013-04-03T15:16:56Z</time>
      </trkpt>
      <trkpt lat="44.32796" lon="4.02586">
        <ele>434</ele>
        <time>2013-04-03T15:16:58Z</time>
      </trkpt>
      <trkpt lat="44.32795" lon="4.02588">
        <ele>434</ele>
        <time>2013-04-03T15:16:59Z</time>
      </trkpt>
      <trkpt lat="44.32795" lon="4.02588">
        <ele>434</ele>
        <time>2013-04-03T15:17:00Z</time>
      </trkpt>
      <trkpt lat="44.32793" lon="4.02593">
        <ele>434</ele>
        <time>2013-04-03T15:17:02Z</time>
      </trkpt>
      <trkpt lat="44.32791" lon="4.02596">
        <ele>435</ele>
        <time>2013-04-03T15:17:04Z</time>
      </trkpt>
      <trkpt lat="44.3279" lon="4.02598">
        <ele>435</ele>
        <time>2013-04-03T15:17:06Z</time>
      </trkpt>
      <trkpt lat="44.32788" lon="4.02602">
        <ele>435</ele>
        <time>2013-04-03T15:17:08Z</time>
      </trkpt>
      <trkpt lat="44.32786" lon="4.02607">
        <ele>435</ele>
        <time>2013-04-03T15:17:10Z</time>
      </trkpt>
      <trkpt lat="44.32785" lon="4.02612">
        <ele>436</ele>
        <time>2013-04-03T15:17:12Z</time>
      </trkpt>
      <trkpt lat="44.32784" lon="4.02616">
        <ele>436</ele>
        <time>2013-04-03T15:17:14Z</time>
      </trkpt>
      <trkpt lat="44.32782" lon="4.02621">
        <ele>436</ele>
        <time>2013-04-03T15:17:16Z</time>
      </trkpt>
      <trkpt lat="44.32781" lon="4.02624">
        <ele>437</ele>
        <time>2013-04-03T15:17:18Z</time>
      </trkpt>
      <trkpt lat="44.32779" lon="4.02627">
        <ele>438</ele>
        <time>2013-04-03T15:17:20Z</time>
      </trkpt>
      <trkpt lat="44.32777" lon="4.02632">
        <ele>438</ele>
        <time>2013-04-03T15:17:22Z</time>
      </trkpt>
      <trkpt lat="44.32775" lon="4.02635">
        <ele>438</ele>
        <time>2013-04-03T15:17:24Z</time>
      </trkpt>
      <trkpt lat="44.32773" lon="4.02638">
        <ele>438</ele>
        <time>2013-04-03T15:17:26Z</time>
      </trkpt>
      <trkpt lat="44.32771" lon="4.02639">
        <ele>438</ele>
        <time>2013-04-03T15:17:28Z</time>
      </trkpt>
      <trkpt lat="44.32769" lon="4.02642">
        <ele>438</ele>
        <time>2013-04-03T15:17:30Z</time>
      </trkpt>
      <trkpt lat="44.32767" lon="4.02645">
        <ele>439</ele>
        <time>2013-04-03T15:17:32Z</time>
      </trkpt>
      <trkpt lat="44.32765" lon="4.02648">
        <ele>440</ele>
        <time>2013-04-03T15:17:34Z</time>
      </trkpt>
      <trkpt lat="44.32764" lon="4.02651">
        <ele>441</ele>
        <time>2013-04-03T15:17:36Z</time>
      </trkpt>
      <trkpt lat="44.32764" lon="4.02651">
        <ele>441</ele>
        <time>2013-04-03T15:17:38Z</time>
      </trkpt>
      <trkpt lat="44.32762" lon="4.02652">
        <ele>440</ele>
        <time>2013-04-03T15:17:40Z</time>
      </trkpt>
      <trkpt lat="44.32761" lon="4.02653">
        <ele>440</ele>
        <time>2013-04-03T15:17:42Z</time>
      </trkpt>
      <trkpt lat="44.32759" lon="4.02655">
        <ele>441</ele>
        <time>2013-04-03T15:17:44Z</time>
      </trkpt>
      <trkpt lat="44.32759" lon="4.02656">
        <ele>441</ele>
        <time>2013-04-03T15:17:46Z</time>
      </trkpt>
      <trkpt lat="44.32758" lon="4.02656">
        <ele>441</ele>
        <time>2013-04-03T15:17:48Z</time>
      </trkpt>
      <trkpt lat="44.32758" lon="4.02656">
        <ele>441</ele>
        <time>2013-04-03T15:17:50Z</time>
      </trkpt>
      <trkpt lat="44.32758" lon="4.02656">
        <ele>441</ele>
        <time>2013-04-03T15:17:52Z</time>
      </trkpt>
      <trkpt lat="44.32758" lon="4.02656">
        <ele>441</ele>
        <time>2013-04-03T15:17:53Z</time>
      </trkpt>
      <trkpt lat="44.32758" lon="4.02656">
        <ele>441</ele>
        <time>2013-04-03T15:17:56Z</time>
      </trkpt>
      <trkpt lat="44.32758" lon="4.02656">
        <ele>441</ele>
        <time>2013-04-03T15:17:58Z</time>
      </trkpt>
      <trkpt lat="44.32758" lon="4.02656">
        <ele>441</ele>
        <time>2013-04-03T15:17:59Z</time>
      </trkpt>
      <trkpt lat="44.32757" lon="4.02656">
        <ele>441</ele>
        <time>2013-04-03T15:18:00Z</time>
      </trkpt>
      <trkpt lat="44.32756" lon="4.02656">
        <ele>441</ele>
        <time>2013-04-03T15:18:02Z</time>
      </trkpt>
      <trkpt lat="44.32756" lon="4.02656">
        <ele>442</ele>
        <time>2013-04-03T15:18:04Z</time>
      </trkpt>
      <trkpt lat="44.32753" lon="4.02656">
        <ele>442</ele>
        <time>2013-04-03T15:18:06Z</time>
      </trkpt>
      <trkpt lat="44.32752" lon="4.02656">
        <ele>442</ele>
        <time>2013-04-03T15:18:08Z</time>
      </trkpt>
      <trkpt lat="44.32752" lon="4.02656">
        <ele>442</ele>
        <time>2013-04-03T15:18:10Z</time>
      </trkpt>
      <trkpt lat="44.3275" lon="4.02657">
        <ele>442</ele>
        <time>2013-04-03T15:18:12Z</time>
      </trkpt>
      <trkpt lat="44.32747" lon="4.02658">
        <ele>442</ele>
        <time>2013-04-03T15:18:14Z</time>
      </trkpt>
      <trkpt lat="44.32744" lon="4.02659">
        <ele>442</ele>
        <time>2013-04-03T15:18:16Z</time>
      </trkpt>
      <trkpt lat="44.32741" lon="4.0266">
        <ele>442</ele>
        <time>2013-04-03T15:18:18Z</time>
      </trkpt>
      <trkpt lat="44.32738" lon="4.02662">
        <ele>442</ele>
        <time>2013-04-03T15:18:20Z</time>
      </trkpt>
      <trkpt lat="44.32735" lon="4.02664">
        <ele>442</ele>
        <time>2013-04-03T15:18:22Z</time>
      </trkpt>
      <trkpt lat="44.32732" lon="4.02667">
        <ele>441</ele>
        <time>2013-04-03T15:18:24Z</time>
      </trkpt>
      <trkpt lat="44.32729" lon="4.02669">
        <ele>441</ele>
        <time>2013-04-03T15:18:26Z</time>
      </trkpt>
      <trkpt lat="44.32726" lon="4.02671">
        <ele>441</ele>
        <time>2013-04-03T15:18:28Z</time>
      </trkpt>
      <trkpt lat="44.32723" lon="4.02672">
        <ele>441</ele>
        <time>2013-04-03T15:18:30Z</time>
      </trkpt>
      <trkpt lat="44.3272" lon="4.02673">
        <ele>442</ele>
        <time>2013-04-03T15:18:32Z</time>
      </trkpt>
      <trkpt lat="44.32718" lon="4.02673">
        <ele>442</ele>
        <time>2013-04-03T15:18:34Z</time>
      </trkpt>
      <trkpt lat="44.32715" lon="4.02674">
        <ele>442</ele>
        <time>2013-04-03T15:18:36Z</time>
      </trkpt>
      <trkpt lat="44.32712" lon="4.02674">
        <ele>442</ele>
        <time>2013-04-03T15:18:38Z</time>
      </trkpt>
      <trkpt lat="44.3271" lon="4.02674">
        <ele>442</ele>
        <time>2013-04-03T15:18:40Z</time>
      </trkpt>
      <trkpt lat="44.32708" lon="4.02674">
        <ele>443</ele>
        <time>2013-04-03T15:18:42Z</time>
      </trkpt>
      <trkpt lat="44.32705" lon="4.02674">
        <ele>443</ele>
        <time>2013-04-03T15:18:44Z</time>
      </trkpt>
      <trkpt lat="44.32703" lon="4.02674">
        <ele>443</ele>
        <time>2013-04-03T15:18:46Z</time>
      </trkpt>
      <trkpt lat="44.32699" lon="4.02675">
        <ele>443</ele>
        <time>2013-04-03T15:18:48Z</time>
      </trkpt>
      <trkpt lat="44.32696" lon="4.02675">
        <ele>444</ele>
        <time>2013-04-03T15:18:50Z</time>
      </trkpt>
      <trkpt lat="44.32695" lon="4.02675">
        <ele>444</ele>
        <time>2013-04-03T15:18:52Z</time>
      </trkpt>
      <trkpt lat="44.32694" lon="4.02675">
        <ele>444</ele>
        <time>2013-04-03T15:18:54Z</time>
      </trkpt>
      <trkpt lat="44.32693" lon="4.02675">
        <ele>444</ele>
        <time>2013-04-03T15:18:55Z</time>
      </trkpt>
      <trkpt lat="44.32692" lon="4.02675">
        <ele>444</ele>
        <time>2013-04-03T15:18:58Z</time>
      </trkpt>
      <trkpt lat="44.32691" lon="4.02674">
        <ele>444</ele>
        <time>2013-04-03T15:18:59Z</time>
      </trkpt>
      <trkpt lat="44.32691" lon="4.02674">
        <ele>444</ele>
        <time>2013-04-03T15:19:00Z</time>
      </trkpt>
      <trkpt lat="44.3269" lon="4.02674">
        <ele>444</ele>
        <time>2013-04-03T15:19:02Z</time>
      </trkpt>
      <trkpt lat="44.32689" lon="4.02673">
        <ele>445</ele>
        <time>2013-04-03T15:19:04Z</time>
      </trkpt>
      <trkpt lat="44.32686" lon="4.02672">
        <ele>445</ele>
        <time>2013-04-03T15:19:06Z</time>
      </trkpt>
      <trkpt lat="44.32683" lon="4.02671">
        <ele>446</ele>
        <time>2013-04-03T15:19:08Z</time>
      </trkpt>
      <trkpt lat="44.32682" lon="4.02671">
        <ele>446</ele>
        <time>2013-04-03T15:19:10Z</time>
      </trkpt>
      <trkpt lat="44.32681" lon="4.02671">
        <ele>446</ele>
        <time>2013-04-03T15:19:12Z</time>
      </trkpt>
      <trkpt lat="44.3268" lon="4.0267">
        <ele>446</ele>
        <time>2013-04-03T15:19:14Z</time>
      </trkpt>
      <trkpt lat="44.3268" lon="4.0267">
        <ele>446</ele>
        <time>2013-04-03T15:19:16Z</time>
      </trkpt>
      <trkpt lat="44.3268" lon="4.0267">
        <ele>446</ele>
        <time>2013-04-03T15:19:18Z</time>
      </trkpt>
      <trkpt lat="44.32678" lon="4.02669">
        <ele>446</ele>
        <time>2013-04-03T15:19:20Z</time>
      </trkpt>
      <trkpt lat="44.32674" lon="4.02667">
        <ele>446</ele>
        <time>2013-04-03T15:19:22Z</time>
      </trkpt>
      <trkpt lat="44.3267" lon="4.02665">
        <ele>445</ele>
        <time>2013-04-03T15:19:24Z</time>
      </trkpt>
      <trkpt lat="44.32667" lon="4.02662">
        <ele>445</ele>
        <time>2013-04-03T15:19:26Z</time>
      </trkpt>
      <trkpt lat="44.32664" lon="4.02658">
        <ele>445</ele>
        <time>2013-04-03T15:19:28Z</time>
      </trkpt>
      <trkpt lat="44.32662" lon="4.02657">
        <ele>445</ele>
        <time>2013-04-03T15:19:30Z</time>
      </trkpt>
      <trkpt lat="44.3266" lon="4.02657">
        <ele>446</ele>
        <time>2013-04-03T15:19:32Z</time>
      </trkpt>
      <trkpt lat="44.3266" lon="4.02657">
        <ele>446</ele>
        <time>2013-04-03T15:19:34Z</time>
      </trkpt>
      <trkpt lat="44.3266" lon="4.02657">
        <ele>446</ele>
        <time>2013-04-03T15:19:36Z</time>
      </trkpt>
      <trkpt lat="44.3266" lon="4.02657">
        <ele>446</ele>
        <time>2013-04-03T15:19:38Z</time>
      </trkpt>
      <trkpt lat="44.3266" lon="4.02657">
        <ele>446</ele>
        <time>2013-04-03T15:19:40Z</time>
      </trkpt>
      <trkpt lat="44.3266" lon="4.02657">
        <ele>446</ele>
        <time>2013-04-03T15:19:42Z</time>
      </trkpt>
      <trkpt lat="44.32659" lon="4.02657">
        <ele>446</ele>
        <time>2013-04-03T15:19:44Z</time>
      </trkpt>
      <trkpt lat="44.32659" lon="4.02657">
        <ele>446</ele>
        <time>2013-04-03T15:19:46Z</time>
      </trkpt>
      <trkpt lat="44.32658" lon="4.02657">
        <ele>447</ele>
        <time>2013-04-03T15:19:48Z</time>
      </trkpt>
      <trkpt lat="44.32657" lon="4.02656">
        <ele>447</ele>
        <time>2013-04-03T15:19:50Z</time>
      </trkpt>
      <trkpt lat="44.32654" lon="4.02654">
        <ele>447</ele>
        <time>2013-04-03T15:19:52Z</time>
      </trkpt>
      <trkpt lat="44.32651" lon="4.02652">
        <ele>447</ele>
        <time>2013-04-03T15:19:54Z</time>
      </trkpt>
      <trkpt lat="44.32648" lon="4.0265">
        <ele>447</ele>
        <time>2013-04-03T15:19:56Z</time>
      </trkpt>
      <trkpt lat="44.32647" lon="4.02649">
        <ele>447</ele>
        <time>2013-04-03T15:19:57Z</time>
      </trkpt>
    </trkseg>
  </trk>
</gpx>